<?xml version="1.0" encoding="UTF-8" standalone="no" ?>
<gpx xmlns="http://www.topografix.com/GPX/1/1" xmlns:xsi="http://www.w3.org/2001/XMLSchema-instance" xsi:schemaLocation="http://www.topografix.com/GPX/1/1 http://www.topografix.com/GPX/1/1/gpx.xsd" version="1.1" creator="VisuGPX - https://www.visugpx.com">
  <metadata>
    <name>Col des Allemands </name>
    <desc><![CDATA[Le 02/11/22]]></desc>
  </metadata>
  <trk>
    <name><![CDATA[Bussang Randonnée]]></name>
    <extensions>
      <line xmlns="http://www.topografix.com/GPX/gpx_style/0/2">
        <color>0000FF</color>
        <width>4</width>
      </line>
    </extensions>
    <trkseg>
      <trkpt lat="47.88952" lon="6.89296">
        <ele>700.8</ele>
        <time>2022-11-02T12:41:53Z</time>
      </trkpt>
      <trkpt lat="47.88953" lon="6.89296">
        <ele>700.6</ele>
        <time>2022-11-02T12:41:54Z</time>
      </trkpt>
      <trkpt lat="47.88954" lon="6.89297">
        <ele>700.5</ele>
        <time>2022-11-02T12:41:56Z</time>
      </trkpt>
      <trkpt lat="47.88955" lon="6.89297">
        <ele>700.2</ele>
        <time>2022-11-02T12:41:57Z</time>
      </trkpt>
      <trkpt lat="47.88957" lon="6.89299">
        <ele>700</ele>
        <time>2022-11-02T12:42:21Z</time>
      </trkpt>
      <trkpt lat="47.88958" lon="6.89299">
        <ele>699.8</ele>
        <time>2022-11-02T12:42:22Z</time>
      </trkpt>
      <trkpt lat="47.88959" lon="6.893">
        <ele>699.6</ele>
        <time>2022-11-02T12:42:23Z</time>
      </trkpt>
      <trkpt lat="47.8896" lon="6.89301">
        <ele>699.5</ele>
        <time>2022-11-02T12:42:24Z</time>
      </trkpt>
      <trkpt lat="47.8896" lon="6.89302">
        <ele>699.6</ele>
        <time>2022-11-02T12:42:25Z</time>
      </trkpt>
      <trkpt lat="47.88961" lon="6.89304">
        <ele>699.6</ele>
        <time>2022-11-02T12:42:26Z</time>
      </trkpt>
      <trkpt lat="47.88962" lon="6.89306">
        <ele>699.7</ele>
        <time>2022-11-02T12:42:27Z</time>
      </trkpt>
      <trkpt lat="47.88962" lon="6.89308">
        <ele>700.1</ele>
        <time>2022-11-02T12:42:28Z</time>
      </trkpt>
      <trkpt lat="47.88963" lon="6.8931">
        <ele>700.3</ele>
        <time>2022-11-02T12:42:29Z</time>
      </trkpt>
      <trkpt lat="47.88963" lon="6.89312">
        <ele>700.7</ele>
        <time>2022-11-02T12:42:30Z</time>
      </trkpt>
      <trkpt lat="47.88963" lon="6.89314">
        <ele>701.1</ele>
        <time>2022-11-02T12:42:31Z</time>
      </trkpt>
      <trkpt lat="47.88963" lon="6.89316">
        <ele>701.6</ele>
        <time>2022-11-02T12:42:32Z</time>
      </trkpt>
      <trkpt lat="47.88962" lon="6.89317">
        <ele>702</ele>
        <time>2022-11-02T12:42:33Z</time>
      </trkpt>
      <trkpt lat="47.88962" lon="6.89319">
        <ele>702.5</ele>
        <time>2022-11-02T12:42:34Z</time>
      </trkpt>
      <trkpt lat="47.88962" lon="6.8932">
        <ele>702.7</ele>
        <time>2022-11-02T12:42:35Z</time>
      </trkpt>
      <trkpt lat="47.88961" lon="6.89322">
        <ele>703.4</ele>
        <time>2022-11-02T12:42:36Z</time>
      </trkpt>
      <trkpt lat="47.88961" lon="6.89323">
        <ele>703.6</ele>
        <time>2022-11-02T12:42:37Z</time>
      </trkpt>
      <trkpt lat="47.88961" lon="6.89324">
        <ele>703.8</ele>
        <time>2022-11-02T12:42:38Z</time>
      </trkpt>
      <trkpt lat="47.8896" lon="6.89326">
        <ele>704.5</ele>
        <time>2022-11-02T12:42:39Z</time>
      </trkpt>
      <trkpt lat="47.8896" lon="6.89327">
        <ele>704.7</ele>
        <time>2022-11-02T12:42:40Z</time>
      </trkpt>
      <trkpt lat="47.8896" lon="6.89329">
        <ele>705.1</ele>
        <time>2022-11-02T12:42:41Z</time>
      </trkpt>
      <trkpt lat="47.8896" lon="6.89331">
        <ele>705.6</ele>
        <time>2022-11-02T12:42:42Z</time>
      </trkpt>
      <trkpt lat="47.8896" lon="6.89332">
        <ele>705.8</ele>
        <time>2022-11-02T12:42:43Z</time>
      </trkpt>
      <trkpt lat="47.88961" lon="6.89334">
        <ele>705.9</ele>
        <time>2022-11-02T12:42:44Z</time>
      </trkpt>
      <trkpt lat="47.88961" lon="6.89336">
        <ele>706.1</ele>
        <time>2022-11-02T12:42:45Z</time>
      </trkpt>
      <trkpt lat="47.88961" lon="6.89337">
        <ele>706.2</ele>
        <time>2022-11-02T12:42:46Z</time>
      </trkpt>
      <trkpt lat="47.88961" lon="6.89339">
        <ele>706.4</ele>
        <time>2022-11-02T12:42:47Z</time>
      </trkpt>
      <trkpt lat="47.88961" lon="6.8934">
        <ele>706.5</ele>
        <time>2022-11-02T12:42:48Z</time>
      </trkpt>
      <trkpt lat="47.8896" lon="6.89342">
        <ele>706.9</ele>
        <time>2022-11-02T12:42:49Z</time>
      </trkpt>
      <trkpt lat="47.8896" lon="6.89343">
        <ele>707</ele>
        <time>2022-11-02T12:42:50Z</time>
      </trkpt>
      <trkpt lat="47.8896" lon="6.89345">
        <ele>707.2</ele>
        <time>2022-11-02T12:42:51Z</time>
      </trkpt>
      <trkpt lat="47.8896" lon="6.89346">
        <ele>707.2</ele>
        <time>2022-11-02T12:42:52Z</time>
      </trkpt>
      <trkpt lat="47.8896" lon="6.89348">
        <ele>707.4</ele>
        <time>2022-11-02T12:42:53Z</time>
      </trkpt>
      <trkpt lat="47.8896" lon="6.89349">
        <ele>707.5</ele>
        <time>2022-11-02T12:42:54Z</time>
      </trkpt>
      <trkpt lat="47.88961" lon="6.89351">
        <ele>707.5</ele>
        <time>2022-11-02T12:42:55Z</time>
      </trkpt>
      <trkpt lat="47.88961" lon="6.89352">
        <ele>707.6</ele>
        <time>2022-11-02T12:42:56Z</time>
      </trkpt>
      <trkpt lat="47.88961" lon="6.89354">
        <ele>707.8</ele>
        <time>2022-11-02T12:42:57Z</time>
      </trkpt>
      <trkpt lat="47.88961" lon="6.89356">
        <ele>707.9</ele>
        <time>2022-11-02T12:42:58Z</time>
      </trkpt>
      <trkpt lat="47.88961" lon="6.89357">
        <ele>708</ele>
        <time>2022-11-02T12:42:59Z</time>
      </trkpt>
      <trkpt lat="47.88961" lon="6.89359">
        <ele>708.2</ele>
        <time>2022-11-02T12:43:00Z</time>
      </trkpt>
      <trkpt lat="47.88961" lon="6.8936">
        <ele>708.3</ele>
        <time>2022-11-02T12:43:01Z</time>
      </trkpt>
      <trkpt lat="47.88961" lon="6.89362">
        <ele>708.5</ele>
        <time>2022-11-02T12:43:02Z</time>
      </trkpt>
      <trkpt lat="47.88961" lon="6.89364">
        <ele>708.6</ele>
        <time>2022-11-02T12:43:03Z</time>
      </trkpt>
      <trkpt lat="47.88961" lon="6.89365">
        <ele>708.7</ele>
        <time>2022-11-02T12:43:04Z</time>
      </trkpt>
      <trkpt lat="47.88961" lon="6.89366">
        <ele>708.8</ele>
        <time>2022-11-02T12:43:05Z</time>
      </trkpt>
      <trkpt lat="47.88962" lon="6.89368">
        <ele>708.7</ele>
        <time>2022-11-02T12:43:06Z</time>
      </trkpt>
      <trkpt lat="47.88962" lon="6.8937">
        <ele>708.8</ele>
        <time>2022-11-02T12:43:07Z</time>
      </trkpt>
      <trkpt lat="47.88962" lon="6.89371">
        <ele>708.9</ele>
        <time>2022-11-02T12:43:08Z</time>
      </trkpt>
      <trkpt lat="47.88963" lon="6.89373">
        <ele>708.8</ele>
        <time>2022-11-02T12:43:09Z</time>
      </trkpt>
      <trkpt lat="47.88963" lon="6.89374">
        <ele>708.9</ele>
        <time>2022-11-02T12:43:10Z</time>
      </trkpt>
      <trkpt lat="47.88963" lon="6.89376">
        <ele>709.1</ele>
        <time>2022-11-02T12:43:11Z</time>
      </trkpt>
      <trkpt lat="47.88963" lon="6.89378">
        <ele>709.2</ele>
        <time>2022-11-02T12:43:12Z</time>
      </trkpt>
      <trkpt lat="47.88963" lon="6.8938">
        <ele>709.4</ele>
        <time>2022-11-02T12:43:13Z</time>
      </trkpt>
      <trkpt lat="47.88963" lon="6.89381">
        <ele>709.4</ele>
        <time>2022-11-02T12:43:14Z</time>
      </trkpt>
      <trkpt lat="47.88963" lon="6.89383">
        <ele>709.6</ele>
        <time>2022-11-02T12:43:15Z</time>
      </trkpt>
      <trkpt lat="47.88963" lon="6.89385">
        <ele>709.7</ele>
        <time>2022-11-02T12:43:16Z</time>
      </trkpt>
      <trkpt lat="47.88963" lon="6.89386">
        <ele>709.8</ele>
        <time>2022-11-02T12:43:17Z</time>
      </trkpt>
      <trkpt lat="47.88963" lon="6.89388">
        <ele>709.9</ele>
        <time>2022-11-02T12:43:18Z</time>
      </trkpt>
      <trkpt lat="47.88963" lon="6.89389">
        <ele>710</ele>
        <time>2022-11-02T12:43:19Z</time>
      </trkpt>
      <trkpt lat="47.88963" lon="6.89391">
        <ele>710.2</ele>
        <time>2022-11-02T12:43:20Z</time>
      </trkpt>
      <trkpt lat="47.88963" lon="6.89392">
        <ele>710.3</ele>
        <time>2022-11-02T12:43:21Z</time>
      </trkpt>
      <trkpt lat="47.88963" lon="6.89394">
        <ele>710.5</ele>
        <time>2022-11-02T12:43:22Z</time>
      </trkpt>
      <trkpt lat="47.88963" lon="6.89396">
        <ele>710.7</ele>
        <time>2022-11-02T12:43:23Z</time>
      </trkpt>
      <trkpt lat="47.88963" lon="6.89397">
        <ele>710.8</ele>
        <time>2022-11-02T12:43:24Z</time>
      </trkpt>
      <trkpt lat="47.88964" lon="6.89399">
        <ele>710.8</ele>
        <time>2022-11-02T12:43:25Z</time>
      </trkpt>
      <trkpt lat="47.88964" lon="6.894">
        <ele>710.9</ele>
        <time>2022-11-02T12:43:26Z</time>
      </trkpt>
      <trkpt lat="47.88964" lon="6.89401">
        <ele>711</ele>
        <time>2022-11-02T12:43:27Z</time>
      </trkpt>
      <trkpt lat="47.88964" lon="6.89403">
        <ele>711.1</ele>
        <time>2022-11-02T12:43:28Z</time>
      </trkpt>
      <trkpt lat="47.88964" lon="6.89404">
        <ele>711.2</ele>
        <time>2022-11-02T12:43:29Z</time>
      </trkpt>
      <trkpt lat="47.88964" lon="6.89406">
        <ele>711.4</ele>
        <time>2022-11-02T12:43:30Z</time>
      </trkpt>
      <trkpt lat="47.88964" lon="6.89407">
        <ele>711.5</ele>
        <time>2022-11-02T12:43:31Z</time>
      </trkpt>
      <trkpt lat="47.88964" lon="6.89409">
        <ele>711.7</ele>
        <time>2022-11-02T12:43:32Z</time>
      </trkpt>
      <trkpt lat="47.88964" lon="6.8941">
        <ele>711.8</ele>
        <time>2022-11-02T12:43:33Z</time>
      </trkpt>
      <trkpt lat="47.88964" lon="6.89412">
        <ele>712</ele>
        <time>2022-11-02T12:43:34Z</time>
      </trkpt>
      <trkpt lat="47.88964" lon="6.89413">
        <ele>712.1</ele>
        <time>2022-11-02T12:43:35Z</time>
      </trkpt>
      <trkpt lat="47.88964" lon="6.89415">
        <ele>712.3</ele>
        <time>2022-11-02T12:43:36Z</time>
      </trkpt>
      <trkpt lat="47.88964" lon="6.89416">
        <ele>712.4</ele>
        <time>2022-11-02T12:43:37Z</time>
      </trkpt>
      <trkpt lat="47.88964" lon="6.89418">
        <ele>712.5</ele>
        <time>2022-11-02T12:43:38Z</time>
      </trkpt>
      <trkpt lat="47.88964" lon="6.89419">
        <ele>712.6</ele>
        <time>2022-11-02T12:43:39Z</time>
      </trkpt>
      <trkpt lat="47.88964" lon="6.89421">
        <ele>712.6</ele>
        <time>2022-11-02T12:43:40Z</time>
      </trkpt>
      <trkpt lat="47.88964" lon="6.89422">
        <ele>712.7</ele>
        <time>2022-11-02T12:43:41Z</time>
      </trkpt>
      <trkpt lat="47.88964" lon="6.89424">
        <ele>712.7</ele>
        <time>2022-11-02T12:43:42Z</time>
      </trkpt>
      <trkpt lat="47.88965" lon="6.89425">
        <ele>712.6</ele>
        <time>2022-11-02T12:43:43Z</time>
      </trkpt>
      <trkpt lat="47.88965" lon="6.89427">
        <ele>712.7</ele>
        <time>2022-11-02T12:43:44Z</time>
      </trkpt>
      <trkpt lat="47.88965" lon="6.89428">
        <ele>712.7</ele>
        <time>2022-11-02T12:43:45Z</time>
      </trkpt>
      <trkpt lat="47.88965" lon="6.8943">
        <ele>712.8</ele>
        <time>2022-11-02T12:43:46Z</time>
      </trkpt>
      <trkpt lat="47.88965" lon="6.89431">
        <ele>712.8</ele>
        <time>2022-11-02T12:43:47Z</time>
      </trkpt>
      <trkpt lat="47.88965" lon="6.89433">
        <ele>712.9</ele>
        <time>2022-11-02T12:43:48Z</time>
      </trkpt>
      <trkpt lat="47.88965" lon="6.89434">
        <ele>712.9</ele>
        <time>2022-11-02T12:43:49Z</time>
      </trkpt>
      <trkpt lat="47.88965" lon="6.89436">
        <ele>713</ele>
        <time>2022-11-02T12:43:50Z</time>
      </trkpt>
      <trkpt lat="47.88965" lon="6.89437">
        <ele>713</ele>
        <time>2022-11-02T12:43:51Z</time>
      </trkpt>
      <trkpt lat="47.88965" lon="6.89439">
        <ele>713.1</ele>
        <time>2022-11-02T12:43:52Z</time>
      </trkpt>
      <trkpt lat="47.88965" lon="6.8944">
        <ele>713.1</ele>
        <time>2022-11-02T12:43:53Z</time>
      </trkpt>
      <trkpt lat="47.88965" lon="6.89442">
        <ele>713.2</ele>
        <time>2022-11-02T12:43:54Z</time>
      </trkpt>
      <trkpt lat="47.88966" lon="6.89444">
        <ele>713.1</ele>
        <time>2022-11-02T12:43:55Z</time>
      </trkpt>
      <trkpt lat="47.88966" lon="6.89445">
        <ele>713.1</ele>
        <time>2022-11-02T12:43:56Z</time>
      </trkpt>
      <trkpt lat="47.88966" lon="6.89447">
        <ele>713.2</ele>
        <time>2022-11-02T12:43:57Z</time>
      </trkpt>
      <trkpt lat="47.88966" lon="6.89448">
        <ele>713.3</ele>
        <time>2022-11-02T12:43:58Z</time>
      </trkpt>
      <trkpt lat="47.88966" lon="6.89449">
        <ele>713.3</ele>
        <time>2022-11-02T12:43:59Z</time>
      </trkpt>
      <trkpt lat="47.88966" lon="6.8945">
        <ele>713.4</ele>
        <time>2022-11-02T12:44:00Z</time>
      </trkpt>
      <trkpt lat="47.88966" lon="6.89452">
        <ele>713.5</ele>
        <time>2022-11-02T12:44:01Z</time>
      </trkpt>
      <trkpt lat="47.88966" lon="6.89453">
        <ele>713.5</ele>
        <time>2022-11-02T12:44:03Z</time>
      </trkpt>
      <trkpt lat="47.88967" lon="6.89454">
        <ele>713.3</ele>
        <time>2022-11-02T12:44:06Z</time>
      </trkpt>
      <trkpt lat="47.88967" lon="6.89455">
        <ele>713.4</ele>
        <time>2022-11-02T12:44:07Z</time>
      </trkpt>
      <trkpt lat="47.88968" lon="6.89455">
        <ele>713.2</ele>
        <time>2022-11-02T12:44:08Z</time>
      </trkpt>
      <trkpt lat="47.88968" lon="6.89456">
        <ele>713.2</ele>
        <time>2022-11-02T12:44:09Z</time>
      </trkpt>
      <trkpt lat="47.88969" lon="6.89456">
        <ele>713</ele>
        <time>2022-11-02T12:44:10Z</time>
      </trkpt>
      <trkpt lat="47.8897" lon="6.89457">
        <ele>712.9</ele>
        <time>2022-11-02T12:44:11Z</time>
      </trkpt>
      <trkpt lat="47.8897" lon="6.89458">
        <ele>712.9</ele>
        <time>2022-11-02T12:44:12Z</time>
      </trkpt>
      <trkpt lat="47.88971" lon="6.8946">
        <ele>712.8</ele>
        <time>2022-11-02T12:44:13Z</time>
      </trkpt>
      <trkpt lat="47.88971" lon="6.89461">
        <ele>712.8</ele>
        <time>2022-11-02T12:44:14Z</time>
      </trkpt>
      <trkpt lat="47.88972" lon="6.89462">
        <ele>712.7</ele>
        <time>2022-11-02T12:44:15Z</time>
      </trkpt>
      <trkpt lat="47.88972" lon="6.89464">
        <ele>712.7</ele>
        <time>2022-11-02T12:44:16Z</time>
      </trkpt>
      <trkpt lat="47.88972" lon="6.89465">
        <ele>712.8</ele>
        <time>2022-11-02T12:44:17Z</time>
      </trkpt>
      <trkpt lat="47.88972" lon="6.89466">
        <ele>712.8</ele>
        <time>2022-11-02T12:44:18Z</time>
      </trkpt>
      <trkpt lat="47.88972" lon="6.89467">
        <ele>712.9</ele>
        <time>2022-11-02T12:44:19Z</time>
      </trkpt>
      <trkpt lat="47.88972" lon="6.89468">
        <ele>712.9</ele>
        <time>2022-11-02T12:44:20Z</time>
      </trkpt>
      <trkpt lat="47.88971" lon="6.89469">
        <ele>713.1</ele>
        <time>2022-11-02T12:44:21Z</time>
      </trkpt>
      <trkpt lat="47.88971" lon="6.8947">
        <ele>713.2</ele>
        <time>2022-11-02T12:44:22Z</time>
      </trkpt>
      <trkpt lat="47.88971" lon="6.89471">
        <ele>713.2</ele>
        <time>2022-11-02T12:44:23Z</time>
      </trkpt>
      <trkpt lat="47.88971" lon="6.89472">
        <ele>713.3</ele>
        <time>2022-11-02T12:44:24Z</time>
      </trkpt>
      <trkpt lat="47.88971" lon="6.89473">
        <ele>713.4</ele>
        <time>2022-11-02T12:44:25Z</time>
      </trkpt>
      <trkpt lat="47.88971" lon="6.89474">
        <ele>713.6</ele>
        <time>2022-11-02T12:44:26Z</time>
      </trkpt>
      <trkpt lat="47.88971" lon="6.89476">
        <ele>713.9</ele>
        <time>2022-11-02T12:44:27Z</time>
      </trkpt>
      <trkpt lat="47.8897" lon="6.89477">
        <ele>714.3</ele>
        <time>2022-11-02T12:44:28Z</time>
      </trkpt>
      <trkpt lat="47.8897" lon="6.89479">
        <ele>714.6</ele>
        <time>2022-11-02T12:44:29Z</time>
      </trkpt>
      <trkpt lat="47.8897" lon="6.8948">
        <ele>714.8</ele>
        <time>2022-11-02T12:44:30Z</time>
      </trkpt>
      <trkpt lat="47.88969" lon="6.89482">
        <ele>715.3</ele>
        <time>2022-11-02T12:44:31Z</time>
      </trkpt>
      <trkpt lat="47.88969" lon="6.89483">
        <ele>715.5</ele>
        <time>2022-11-02T12:44:32Z</time>
      </trkpt>
      <trkpt lat="47.88968" lon="6.89485">
        <ele>715.9</ele>
        <time>2022-11-02T12:44:33Z</time>
      </trkpt>
      <trkpt lat="47.88968" lon="6.89486">
        <ele>716.1</ele>
        <time>2022-11-02T12:44:34Z</time>
      </trkpt>
      <trkpt lat="47.88967" lon="6.89488">
        <ele>716.5</ele>
        <time>2022-11-02T12:44:35Z</time>
      </trkpt>
      <trkpt lat="47.88967" lon="6.89489">
        <ele>716.7</ele>
        <time>2022-11-02T12:44:36Z</time>
      </trkpt>
      <trkpt lat="47.88966" lon="6.89491">
        <ele>717.1</ele>
        <time>2022-11-02T12:44:37Z</time>
      </trkpt>
      <trkpt lat="47.88966" lon="6.89492">
        <ele>717.3</ele>
        <time>2022-11-02T12:44:38Z</time>
      </trkpt>
      <trkpt lat="47.88966" lon="6.89494">
        <ele>717.6</ele>
        <time>2022-11-02T12:44:39Z</time>
      </trkpt>
      <trkpt lat="47.88966" lon="6.89495">
        <ele>717.7</ele>
        <time>2022-11-02T12:44:40Z</time>
      </trkpt>
      <trkpt lat="47.88965" lon="6.89496">
        <ele>717.9</ele>
        <time>2022-11-02T12:44:41Z</time>
      </trkpt>
      <trkpt lat="47.88965" lon="6.89498">
        <ele>718.2</ele>
        <time>2022-11-02T12:44:47Z</time>
      </trkpt>
      <trkpt lat="47.88965" lon="6.89499">
        <ele>718.4</ele>
        <time>2022-11-02T12:44:49Z</time>
      </trkpt>
      <trkpt lat="47.88964" lon="6.895">
        <ele>718.6</ele>
        <time>2022-11-02T12:44:50Z</time>
      </trkpt>
      <trkpt lat="47.88964" lon="6.89501">
        <ele>718.7</ele>
        <time>2022-11-02T12:44:51Z</time>
      </trkpt>
      <trkpt lat="47.88963" lon="6.89502">
        <ele>718.9</ele>
        <time>2022-11-02T12:44:52Z</time>
      </trkpt>
      <trkpt lat="47.88963" lon="6.89503">
        <ele>719</ele>
        <time>2022-11-02T12:44:53Z</time>
      </trkpt>
      <trkpt lat="47.88962" lon="6.89505">
        <ele>719.3</ele>
        <time>2022-11-02T12:44:54Z</time>
      </trkpt>
      <trkpt lat="47.88962" lon="6.89506">
        <ele>719.4</ele>
        <time>2022-11-02T12:44:55Z</time>
      </trkpt>
      <trkpt lat="47.88961" lon="6.89507">
        <ele>719.5</ele>
        <time>2022-11-02T12:44:56Z</time>
      </trkpt>
      <trkpt lat="47.88961" lon="6.89509">
        <ele>719.7</ele>
        <time>2022-11-02T12:44:57Z</time>
      </trkpt>
      <trkpt lat="47.8896" lon="6.8951">
        <ele>719.8</ele>
        <time>2022-11-02T12:44:58Z</time>
      </trkpt>
      <trkpt lat="47.8896" lon="6.89512">
        <ele>720</ele>
        <time>2022-11-02T12:44:59Z</time>
      </trkpt>
      <trkpt lat="47.8896" lon="6.89513">
        <ele>720.1</ele>
        <time>2022-11-02T12:45:00Z</time>
      </trkpt>
      <trkpt lat="47.88959" lon="6.89515">
        <ele>720.3</ele>
        <time>2022-11-02T12:45:01Z</time>
      </trkpt>
      <trkpt lat="47.88959" lon="6.89516">
        <ele>720.4</ele>
        <time>2022-11-02T12:45:02Z</time>
      </trkpt>
      <trkpt lat="47.88958" lon="6.89517">
        <ele>720.5</ele>
        <time>2022-11-02T12:45:03Z</time>
      </trkpt>
      <trkpt lat="47.88958" lon="6.89519">
        <ele>720.7</ele>
        <time>2022-11-02T12:45:04Z</time>
      </trkpt>
      <trkpt lat="47.88958" lon="6.8952">
        <ele>720.8</ele>
        <time>2022-11-02T12:45:05Z</time>
      </trkpt>
      <trkpt lat="47.88957" lon="6.89522">
        <ele>721</ele>
        <time>2022-11-02T12:45:06Z</time>
      </trkpt>
      <trkpt lat="47.88957" lon="6.89523">
        <ele>721</ele>
        <time>2022-11-02T12:45:07Z</time>
      </trkpt>
      <trkpt lat="47.88957" lon="6.89525">
        <ele>721.2</ele>
        <time>2022-11-02T12:45:08Z</time>
      </trkpt>
      <trkpt lat="47.88957" lon="6.89526">
        <ele>721.3</ele>
        <time>2022-11-02T12:45:09Z</time>
      </trkpt>
      <trkpt lat="47.88956" lon="6.89528">
        <ele>721.4</ele>
        <time>2022-11-02T12:45:10Z</time>
      </trkpt>
      <trkpt lat="47.88956" lon="6.89529">
        <ele>721.4</ele>
        <time>2022-11-02T12:45:11Z</time>
      </trkpt>
      <trkpt lat="47.88956" lon="6.89531">
        <ele>721.5</ele>
        <time>2022-11-02T12:45:12Z</time>
      </trkpt>
      <trkpt lat="47.88956" lon="6.89533">
        <ele>721.5</ele>
        <time>2022-11-02T12:45:13Z</time>
      </trkpt>
      <trkpt lat="47.88955" lon="6.89534">
        <ele>721.5</ele>
        <time>2022-11-02T12:45:14Z</time>
      </trkpt>
      <trkpt lat="47.88955" lon="6.89536">
        <ele>721.6</ele>
        <time>2022-11-02T12:45:15Z</time>
      </trkpt>
      <trkpt lat="47.88955" lon="6.89537">
        <ele>721.6</ele>
        <time>2022-11-02T12:45:16Z</time>
      </trkpt>
      <trkpt lat="47.88955" lon="6.89539">
        <ele>721.6</ele>
        <time>2022-11-02T12:45:17Z</time>
      </trkpt>
      <trkpt lat="47.88954" lon="6.89541">
        <ele>721.7</ele>
        <time>2022-11-02T12:45:18Z</time>
      </trkpt>
      <trkpt lat="47.88954" lon="6.89542">
        <ele>721.7</ele>
        <time>2022-11-02T12:45:19Z</time>
      </trkpt>
      <trkpt lat="47.88954" lon="6.89544">
        <ele>721.7</ele>
        <time>2022-11-02T12:45:20Z</time>
      </trkpt>
      <trkpt lat="47.88954" lon="6.89546">
        <ele>721.8</ele>
        <time>2022-11-02T12:45:21Z</time>
      </trkpt>
      <trkpt lat="47.88954" lon="6.89547">
        <ele>721.8</ele>
        <time>2022-11-02T12:45:22Z</time>
      </trkpt>
      <trkpt lat="47.88953" lon="6.89549">
        <ele>721.8</ele>
        <time>2022-11-02T12:45:23Z</time>
      </trkpt>
      <trkpt lat="47.88953" lon="6.89551">
        <ele>721.9</ele>
        <time>2022-11-02T12:45:24Z</time>
      </trkpt>
      <trkpt lat="47.88953" lon="6.89552">
        <ele>721.9</ele>
        <time>2022-11-02T12:45:25Z</time>
      </trkpt>
      <trkpt lat="47.88953" lon="6.89554">
        <ele>722</ele>
        <time>2022-11-02T12:45:26Z</time>
      </trkpt>
      <trkpt lat="47.88952" lon="6.89556">
        <ele>722</ele>
        <time>2022-11-02T12:45:27Z</time>
      </trkpt>
      <trkpt lat="47.88952" lon="6.89557">
        <ele>722.1</ele>
        <time>2022-11-02T12:45:28Z</time>
      </trkpt>
      <trkpt lat="47.88952" lon="6.89559">
        <ele>722.2</ele>
        <time>2022-11-02T12:45:29Z</time>
      </trkpt>
      <trkpt lat="47.88952" lon="6.89561">
        <ele>722.3</ele>
        <time>2022-11-02T12:45:30Z</time>
      </trkpt>
      <trkpt lat="47.88952" lon="6.89562">
        <ele>722.4</ele>
        <time>2022-11-02T12:45:31Z</time>
      </trkpt>
      <trkpt lat="47.88952" lon="6.89564">
        <ele>722.5</ele>
        <time>2022-11-02T12:45:32Z</time>
      </trkpt>
      <trkpt lat="47.88952" lon="6.89566">
        <ele>722.6</ele>
        <time>2022-11-02T12:45:33Z</time>
      </trkpt>
      <trkpt lat="47.88953" lon="6.89568">
        <ele>722.7</ele>
        <time>2022-11-02T12:45:34Z</time>
      </trkpt>
      <trkpt lat="47.88953" lon="6.8957">
        <ele>722.8</ele>
        <time>2022-11-02T12:45:35Z</time>
      </trkpt>
      <trkpt lat="47.88953" lon="6.89572">
        <ele>723</ele>
        <time>2022-11-02T12:45:36Z</time>
      </trkpt>
      <trkpt lat="47.88953" lon="6.89573">
        <ele>723</ele>
        <time>2022-11-02T12:45:37Z</time>
      </trkpt>
      <trkpt lat="47.88953" lon="6.89575">
        <ele>723.1</ele>
        <time>2022-11-02T12:45:38Z</time>
      </trkpt>
      <trkpt lat="47.88953" lon="6.89576">
        <ele>723.2</ele>
        <time>2022-11-02T12:45:39Z</time>
      </trkpt>
      <trkpt lat="47.88953" lon="6.89578">
        <ele>723.3</ele>
        <time>2022-11-02T12:45:40Z</time>
      </trkpt>
      <trkpt lat="47.88953" lon="6.89579">
        <ele>723.4</ele>
        <time>2022-11-02T12:45:41Z</time>
      </trkpt>
      <trkpt lat="47.88953" lon="6.89581">
        <ele>723.5</ele>
        <time>2022-11-02T12:45:42Z</time>
      </trkpt>
      <trkpt lat="47.88953" lon="6.89582">
        <ele>723.5</ele>
        <time>2022-11-02T12:45:43Z</time>
      </trkpt>
      <trkpt lat="47.88953" lon="6.89584">
        <ele>723.7</ele>
        <time>2022-11-02T12:45:44Z</time>
      </trkpt>
      <trkpt lat="47.88953" lon="6.89585">
        <ele>723.8</ele>
        <time>2022-11-02T12:45:45Z</time>
      </trkpt>
      <trkpt lat="47.88953" lon="6.89587">
        <ele>724</ele>
        <time>2022-11-02T12:45:46Z</time>
      </trkpt>
      <trkpt lat="47.88953" lon="6.89589">
        <ele>724.2</ele>
        <time>2022-11-02T12:45:47Z</time>
      </trkpt>
      <trkpt lat="47.88954" lon="6.89591">
        <ele>724.6</ele>
        <time>2022-11-02T12:45:48Z</time>
      </trkpt>
      <trkpt lat="47.88954" lon="6.89592">
        <ele>724.8</ele>
        <time>2022-11-02T12:45:49Z</time>
      </trkpt>
      <trkpt lat="47.88954" lon="6.89594">
        <ele>725</ele>
        <time>2022-11-02T12:45:50Z</time>
      </trkpt>
      <trkpt lat="47.88954" lon="6.89596">
        <ele>725.3</ele>
        <time>2022-11-02T12:45:51Z</time>
      </trkpt>
      <trkpt lat="47.88954" lon="6.89598">
        <ele>725.5</ele>
        <time>2022-11-02T12:45:52Z</time>
      </trkpt>
      <trkpt lat="47.88954" lon="6.89599">
        <ele>725.6</ele>
        <time>2022-11-02T12:45:53Z</time>
      </trkpt>
      <trkpt lat="47.88954" lon="6.89601">
        <ele>725.9</ele>
        <time>2022-11-02T12:45:54Z</time>
      </trkpt>
      <trkpt lat="47.88955" lon="6.89602">
        <ele>726.3</ele>
        <time>2022-11-02T12:45:55Z</time>
      </trkpt>
      <trkpt lat="47.88954" lon="6.89603">
        <ele>726.1</ele>
        <time>2022-11-02T12:45:56Z</time>
      </trkpt>
      <trkpt lat="47.88954" lon="6.89605">
        <ele>726.4</ele>
        <time>2022-11-02T12:45:57Z</time>
      </trkpt>
      <trkpt lat="47.88954" lon="6.89606">
        <ele>726.5</ele>
        <time>2022-11-02T12:45:58Z</time>
      </trkpt>
      <trkpt lat="47.88954" lon="6.89607">
        <ele>726.6</ele>
        <time>2022-11-02T12:45:59Z</time>
      </trkpt>
      <trkpt lat="47.88954" lon="6.89608">
        <ele>726.7</ele>
        <time>2022-11-02T12:46:00Z</time>
      </trkpt>
      <trkpt lat="47.88954" lon="6.89609">
        <ele>726.9</ele>
        <time>2022-11-02T12:46:01Z</time>
      </trkpt>
      <trkpt lat="47.88953" lon="6.8961">
        <ele>726.6</ele>
        <time>2022-11-02T12:46:02Z</time>
      </trkpt>
      <trkpt lat="47.88953" lon="6.89611">
        <ele>726.7</ele>
        <time>2022-11-02T12:46:03Z</time>
      </trkpt>
      <trkpt lat="47.88953" lon="6.89612">
        <ele>726.8</ele>
        <time>2022-11-02T12:46:04Z</time>
      </trkpt>
      <trkpt lat="47.88953" lon="6.89613">
        <ele>726.8</ele>
        <time>2022-11-02T12:46:05Z</time>
      </trkpt>
      <trkpt lat="47.88952" lon="6.89614">
        <ele>726.5</ele>
        <time>2022-11-02T12:46:06Z</time>
      </trkpt>
      <trkpt lat="47.88951" lon="6.89615">
        <ele>726.1</ele>
        <time>2022-11-02T12:46:07Z</time>
      </trkpt>
      <trkpt lat="47.88951" lon="6.89616">
        <ele>726.2</ele>
        <time>2022-11-02T12:46:08Z</time>
      </trkpt>
      <trkpt lat="47.8895" lon="6.89617">
        <ele>725.8</ele>
        <time>2022-11-02T12:46:09Z</time>
      </trkpt>
      <trkpt lat="47.88949" lon="6.89618">
        <ele>725.5</ele>
        <time>2022-11-02T12:46:10Z</time>
      </trkpt>
      <trkpt lat="47.88948" lon="6.89619">
        <ele>725.1</ele>
        <time>2022-11-02T12:46:11Z</time>
      </trkpt>
      <trkpt lat="47.88947" lon="6.8962">
        <ele>724.7</ele>
        <time>2022-11-02T12:46:12Z</time>
      </trkpt>
      <trkpt lat="47.88946" lon="6.89622">
        <ele>724.5</ele>
        <time>2022-11-02T12:46:13Z</time>
      </trkpt>
      <trkpt lat="47.88946" lon="6.89623">
        <ele>724.5</ele>
        <time>2022-11-02T12:46:14Z</time>
      </trkpt>
      <trkpt lat="47.88945" lon="6.89624">
        <ele>724.2</ele>
        <time>2022-11-02T12:46:15Z</time>
      </trkpt>
      <trkpt lat="47.88944" lon="6.89624">
        <ele>724.2</ele>
        <time>2022-11-02T12:46:24Z</time>
      </trkpt>
      <trkpt lat="47.88944" lon="6.89625">
        <ele>724.3</ele>
        <time>2022-11-02T12:46:25Z</time>
      </trkpt>
      <trkpt lat="47.88943" lon="6.89626">
        <ele>724.9</ele>
        <time>2022-11-02T12:46:27Z</time>
      </trkpt>
      <trkpt lat="47.88943" lon="6.89627">
        <ele>725</ele>
        <time>2022-11-02T12:46:28Z</time>
      </trkpt>
      <trkpt lat="47.88942" lon="6.89628">
        <ele>725.7</ele>
        <time>2022-11-02T12:46:30Z</time>
      </trkpt>
      <trkpt lat="47.88942" lon="6.89629">
        <ele>725.8</ele>
        <time>2022-11-02T12:46:31Z</time>
      </trkpt>
      <trkpt lat="47.88942" lon="6.8963">
        <ele>725.8</ele>
        <time>2022-11-02T12:46:32Z</time>
      </trkpt>
      <trkpt lat="47.88942" lon="6.89631">
        <ele>725.9</ele>
        <time>2022-11-02T12:46:34Z</time>
      </trkpt>
      <trkpt lat="47.88943" lon="6.89632">
        <ele>725.4</ele>
        <time>2022-11-02T12:46:35Z</time>
      </trkpt>
      <trkpt lat="47.88943" lon="6.89634">
        <ele>725.5</ele>
        <time>2022-11-02T12:46:42Z</time>
      </trkpt>
      <trkpt lat="47.88943" lon="6.89635">
        <ele>725.6</ele>
        <time>2022-11-02T12:46:44Z</time>
      </trkpt>
      <trkpt lat="47.88943" lon="6.89636">
        <ele>725.7</ele>
        <time>2022-11-02T12:46:45Z</time>
      </trkpt>
      <trkpt lat="47.88943" lon="6.89637">
        <ele>725.7</ele>
        <time>2022-11-02T12:46:46Z</time>
      </trkpt>
      <trkpt lat="47.88944" lon="6.89638">
        <ele>725.2</ele>
        <time>2022-11-02T12:46:47Z</time>
      </trkpt>
      <trkpt lat="47.88944" lon="6.89639">
        <ele>725.3</ele>
        <time>2022-11-02T12:46:48Z</time>
      </trkpt>
      <trkpt lat="47.88944" lon="6.89641">
        <ele>725.6</ele>
        <time>2022-11-02T12:46:54Z</time>
      </trkpt>
      <trkpt lat="47.88944" lon="6.89642">
        <ele>725.7</ele>
        <time>2022-11-02T12:46:55Z</time>
      </trkpt>
      <trkpt lat="47.88944" lon="6.89643">
        <ele>725.9</ele>
        <time>2022-11-02T12:46:56Z</time>
      </trkpt>
      <trkpt lat="47.88943" lon="6.89645">
        <ele>726.8</ele>
        <time>2022-11-02T12:47:02Z</time>
      </trkpt>
      <trkpt lat="47.88942" lon="6.89644">
        <ele>727.2</ele>
        <time>2022-11-02T12:47:03Z</time>
      </trkpt>
      <trkpt lat="47.88942" lon="6.89643">
        <ele>727.1</ele>
        <time>2022-11-02T12:47:05Z</time>
      </trkpt>
      <trkpt lat="47.88941" lon="6.89643">
        <ele>727.7</ele>
        <time>2022-11-02T12:47:06Z</time>
      </trkpt>
      <trkpt lat="47.88941" lon="6.89642">
        <ele>727.6</ele>
        <time>2022-11-02T12:47:07Z</time>
      </trkpt>
      <trkpt lat="47.8894" lon="6.89641">
        <ele>728</ele>
        <time>2022-11-02T12:47:08Z</time>
      </trkpt>
      <trkpt lat="47.88938" lon="6.8964">
        <ele>729.1</ele>
        <time>2022-11-02T12:47:10Z</time>
      </trkpt>
      <trkpt lat="47.88937" lon="6.89639">
        <ele>729.6</ele>
        <time>2022-11-02T12:47:11Z</time>
      </trkpt>
      <trkpt lat="47.88936" lon="6.89638">
        <ele>730.1</ele>
        <time>2022-11-02T12:47:12Z</time>
      </trkpt>
      <trkpt lat="47.88934" lon="6.89638">
        <ele>731.3</ele>
        <time>2022-11-02T12:47:13Z</time>
      </trkpt>
      <trkpt lat="47.88933" lon="6.89637">
        <ele>731.8</ele>
        <time>2022-11-02T12:47:14Z</time>
      </trkpt>
      <trkpt lat="47.88933" lon="6.89636">
        <ele>731.8</ele>
        <time>2022-11-02T12:47:15Z</time>
      </trkpt>
      <trkpt lat="47.88932" lon="6.89636">
        <ele>732.4</ele>
        <time>2022-11-02T12:47:16Z</time>
      </trkpt>
      <trkpt lat="47.88932" lon="6.89635">
        <ele>732.3</ele>
        <time>2022-11-02T12:47:18Z</time>
      </trkpt>
      <trkpt lat="47.88931" lon="6.89634">
        <ele>732.8</ele>
        <time>2022-11-02T12:47:21Z</time>
      </trkpt>
      <trkpt lat="47.88931" lon="6.89633">
        <ele>732.7</ele>
        <time>2022-11-02T12:47:22Z</time>
      </trkpt>
      <trkpt lat="47.8893" lon="6.89632">
        <ele>733.2</ele>
        <time>2022-11-02T12:47:23Z</time>
      </trkpt>
      <trkpt lat="47.8893" lon="6.8963">
        <ele>733</ele>
        <time>2022-11-02T12:47:24Z</time>
      </trkpt>
      <trkpt lat="47.88929" lon="6.89629">
        <ele>733.5</ele>
        <time>2022-11-02T12:47:25Z</time>
      </trkpt>
      <trkpt lat="47.88929" lon="6.89628">
        <ele>733.5</ele>
        <time>2022-11-02T12:47:26Z</time>
      </trkpt>
      <trkpt lat="47.88928" lon="6.89626">
        <ele>733.9</ele>
        <time>2022-11-02T12:47:27Z</time>
      </trkpt>
      <trkpt lat="47.88927" lon="6.89625">
        <ele>734.4</ele>
        <time>2022-11-02T12:47:28Z</time>
      </trkpt>
      <trkpt lat="47.88926" lon="6.89624">
        <ele>734.9</ele>
        <time>2022-11-02T12:47:29Z</time>
      </trkpt>
      <trkpt lat="47.88925" lon="6.89623">
        <ele>735.4</ele>
        <time>2022-11-02T12:47:30Z</time>
      </trkpt>
      <trkpt lat="47.88924" lon="6.89622">
        <ele>735.8</ele>
        <time>2022-11-02T12:47:32Z</time>
      </trkpt>
      <trkpt lat="47.88924" lon="6.89621">
        <ele>735.8</ele>
        <time>2022-11-02T12:47:33Z</time>
      </trkpt>
      <trkpt lat="47.88924" lon="6.8962">
        <ele>735.7</ele>
        <time>2022-11-02T12:47:34Z</time>
      </trkpt>
      <trkpt lat="47.88924" lon="6.89619">
        <ele>735.6</ele>
        <time>2022-11-02T12:47:35Z</time>
      </trkpt>
      <trkpt lat="47.88924" lon="6.89617">
        <ele>735.4</ele>
        <time>2022-11-02T12:47:42Z</time>
      </trkpt>
      <trkpt lat="47.88924" lon="6.89618">
        <ele>735.5</ele>
        <time>2022-11-02T12:47:44Z</time>
      </trkpt>
      <trkpt lat="47.88925" lon="6.89618">
        <ele>734.9</ele>
        <time>2022-11-02T12:47:47Z</time>
      </trkpt>
      <trkpt lat="47.88925" lon="6.89619">
        <ele>735</ele>
        <time>2022-11-02T12:47:48Z</time>
      </trkpt>
      <trkpt lat="47.88925" lon="6.8962">
        <ele>735.1</ele>
        <time>2022-11-02T12:47:49Z</time>
      </trkpt>
      <trkpt lat="47.88925" lon="6.89621">
        <ele>735.2</ele>
        <time>2022-11-02T12:47:51Z</time>
      </trkpt>
      <trkpt lat="47.88925" lon="6.89622">
        <ele>735.3</ele>
        <time>2022-11-02T12:47:53Z</time>
      </trkpt>
      <trkpt lat="47.88925" lon="6.89624">
        <ele>735.5</ele>
        <time>2022-11-02T12:47:54Z</time>
      </trkpt>
      <trkpt lat="47.88925" lon="6.89625">
        <ele>735.6</ele>
        <time>2022-11-02T12:47:55Z</time>
      </trkpt>
      <trkpt lat="47.88925" lon="6.89626">
        <ele>735.6</ele>
        <time>2022-11-02T12:47:56Z</time>
      </trkpt>
      <trkpt lat="47.88925" lon="6.89627">
        <ele>735.7</ele>
        <time>2022-11-02T12:47:57Z</time>
      </trkpt>
      <trkpt lat="47.88925" lon="6.89628">
        <ele>735.8</ele>
        <time>2022-11-02T12:47:58Z</time>
      </trkpt>
      <trkpt lat="47.88925" lon="6.89629">
        <ele>735.9</ele>
        <time>2022-11-02T12:47:59Z</time>
      </trkpt>
      <trkpt lat="47.88925" lon="6.8963">
        <ele>736</ele>
        <time>2022-11-02T12:48:00Z</time>
      </trkpt>
      <trkpt lat="47.88925" lon="6.89632">
        <ele>736.2</ele>
        <time>2022-11-02T12:48:08Z</time>
      </trkpt>
      <trkpt lat="47.88925" lon="6.89633">
        <ele>736.3</ele>
        <time>2022-11-02T12:48:09Z</time>
      </trkpt>
      <trkpt lat="47.88925" lon="6.89634">
        <ele>736.4</ele>
        <time>2022-11-02T12:48:10Z</time>
      </trkpt>
      <trkpt lat="47.88925" lon="6.89635">
        <ele>736.5</ele>
        <time>2022-11-02T12:48:12Z</time>
      </trkpt>
      <trkpt lat="47.88925" lon="6.89636">
        <ele>736.6</ele>
        <time>2022-11-02T12:48:13Z</time>
      </trkpt>
      <trkpt lat="47.88925" lon="6.89637">
        <ele>736.7</ele>
        <time>2022-11-02T12:48:15Z</time>
      </trkpt>
      <trkpt lat="47.88925" lon="6.89638">
        <ele>736.8</ele>
        <time>2022-11-02T12:48:16Z</time>
      </trkpt>
      <trkpt lat="47.88925" lon="6.8964">
        <ele>737.1</ele>
        <time>2022-11-02T12:48:17Z</time>
      </trkpt>
      <trkpt lat="47.88925" lon="6.89641">
        <ele>737.3</ele>
        <time>2022-11-02T12:48:18Z</time>
      </trkpt>
      <trkpt lat="47.88925" lon="6.89643">
        <ele>737.6</ele>
        <time>2022-11-02T12:48:19Z</time>
      </trkpt>
      <trkpt lat="47.88926" lon="6.89645">
        <ele>737.3</ele>
        <time>2022-11-02T12:48:20Z</time>
      </trkpt>
      <trkpt lat="47.88926" lon="6.89646">
        <ele>737.5</ele>
        <time>2022-11-02T12:48:21Z</time>
      </trkpt>
      <trkpt lat="47.88926" lon="6.89647">
        <ele>737.6</ele>
        <time>2022-11-02T12:48:22Z</time>
      </trkpt>
      <trkpt lat="47.88926" lon="6.89649">
        <ele>738</ele>
        <time>2022-11-02T12:48:23Z</time>
      </trkpt>
      <trkpt lat="47.88926" lon="6.8965">
        <ele>738.2</ele>
        <time>2022-11-02T12:48:24Z</time>
      </trkpt>
      <trkpt lat="47.88925" lon="6.89652">
        <ele>739.1</ele>
        <time>2022-11-02T12:48:25Z</time>
      </trkpt>
      <trkpt lat="47.88925" lon="6.89653">
        <ele>739.3</ele>
        <time>2022-11-02T12:48:26Z</time>
      </trkpt>
      <trkpt lat="47.88925" lon="6.89654">
        <ele>739.5</ele>
        <time>2022-11-02T12:48:27Z</time>
      </trkpt>
      <trkpt lat="47.88925" lon="6.89656">
        <ele>739.8</ele>
        <time>2022-11-02T12:48:28Z</time>
      </trkpt>
      <trkpt lat="47.88925" lon="6.89657">
        <ele>740</ele>
        <time>2022-11-02T12:48:29Z</time>
      </trkpt>
      <trkpt lat="47.88925" lon="6.89658">
        <ele>740.1</ele>
        <time>2022-11-02T12:48:30Z</time>
      </trkpt>
      <trkpt lat="47.88925" lon="6.8966">
        <ele>740.5</ele>
        <time>2022-11-02T12:48:31Z</time>
      </trkpt>
      <trkpt lat="47.88925" lon="6.89661">
        <ele>740.6</ele>
        <time>2022-11-02T12:48:32Z</time>
      </trkpt>
      <trkpt lat="47.88925" lon="6.89662">
        <ele>740.8</ele>
        <time>2022-11-02T12:48:34Z</time>
      </trkpt>
      <trkpt lat="47.88925" lon="6.89663">
        <ele>741</ele>
        <time>2022-11-02T12:48:35Z</time>
      </trkpt>
      <trkpt lat="47.88926" lon="6.89664">
        <ele>740.5</ele>
        <time>2022-11-02T12:48:37Z</time>
      </trkpt>
      <trkpt lat="47.88926" lon="6.89665">
        <ele>740.7</ele>
        <time>2022-11-02T12:48:38Z</time>
      </trkpt>
      <trkpt lat="47.88927" lon="6.89667">
        <ele>740.3</ele>
        <time>2022-11-02T12:48:39Z</time>
      </trkpt>
      <trkpt lat="47.88927" lon="6.89668">
        <ele>740.4</ele>
        <time>2022-11-02T12:48:40Z</time>
      </trkpt>
      <trkpt lat="47.88927" lon="6.89669">
        <ele>740.5</ele>
        <time>2022-11-02T12:48:41Z</time>
      </trkpt>
      <trkpt lat="47.88927" lon="6.8967">
        <ele>740.6</ele>
        <time>2022-11-02T12:48:42Z</time>
      </trkpt>
      <trkpt lat="47.88928" lon="6.89671">
        <ele>740</ele>
        <time>2022-11-02T12:48:43Z</time>
      </trkpt>
      <trkpt lat="47.88928" lon="6.89672">
        <ele>740.1</ele>
        <time>2022-11-02T12:48:45Z</time>
      </trkpt>
      <trkpt lat="47.88929" lon="6.89674">
        <ele>739.6</ele>
        <time>2022-11-02T12:48:46Z</time>
      </trkpt>
      <trkpt lat="47.88929" lon="6.89676">
        <ele>739.7</ele>
        <time>2022-11-02T12:48:47Z</time>
      </trkpt>
      <trkpt lat="47.8893" lon="6.89678">
        <ele>739.2</ele>
        <time>2022-11-02T12:48:48Z</time>
      </trkpt>
      <trkpt lat="47.88931" lon="6.89679">
        <ele>738.6</ele>
        <time>2022-11-02T12:48:49Z</time>
      </trkpt>
      <trkpt lat="47.88931" lon="6.8968">
        <ele>738.7</ele>
        <time>2022-11-02T12:48:50Z</time>
      </trkpt>
      <trkpt lat="47.88931" lon="6.89682">
        <ele>738.8</ele>
        <time>2022-11-02T12:48:51Z</time>
      </trkpt>
      <trkpt lat="47.88931" lon="6.89683">
        <ele>738.9</ele>
        <time>2022-11-02T12:48:52Z</time>
      </trkpt>
      <trkpt lat="47.88931" lon="6.89684">
        <ele>738.9</ele>
        <time>2022-11-02T12:48:53Z</time>
      </trkpt>
      <trkpt lat="47.88931" lon="6.89686">
        <ele>739.1</ele>
        <time>2022-11-02T12:48:54Z</time>
      </trkpt>
      <trkpt lat="47.88932" lon="6.89687">
        <ele>738.5</ele>
        <time>2022-11-02T12:48:55Z</time>
      </trkpt>
      <trkpt lat="47.88932" lon="6.89688">
        <ele>738.5</ele>
        <time>2022-11-02T12:48:56Z</time>
      </trkpt>
      <trkpt lat="47.88932" lon="6.8969">
        <ele>738.7</ele>
        <time>2022-11-02T12:48:57Z</time>
      </trkpt>
      <trkpt lat="47.88932" lon="6.89691">
        <ele>738.7</ele>
        <time>2022-11-02T12:48:58Z</time>
      </trkpt>
      <trkpt lat="47.88932" lon="6.89692">
        <ele>738.8</ele>
        <time>2022-11-02T12:48:59Z</time>
      </trkpt>
      <trkpt lat="47.88933" lon="6.89693">
        <ele>738.1</ele>
        <time>2022-11-02T12:49:00Z</time>
      </trkpt>
      <trkpt lat="47.88933" lon="6.89694">
        <ele>738.2</ele>
        <time>2022-11-02T12:49:01Z</time>
      </trkpt>
      <trkpt lat="47.88933" lon="6.89696">
        <ele>738.3</ele>
        <time>2022-11-02T12:49:02Z</time>
      </trkpt>
      <trkpt lat="47.88933" lon="6.89697">
        <ele>738.3</ele>
        <time>2022-11-02T12:49:03Z</time>
      </trkpt>
      <trkpt lat="47.88933" lon="6.89698">
        <ele>738.3</ele>
        <time>2022-11-02T12:49:04Z</time>
      </trkpt>
      <trkpt lat="47.88932" lon="6.89699">
        <ele>739</ele>
        <time>2022-11-02T12:49:06Z</time>
      </trkpt>
      <trkpt lat="47.88932" lon="6.897">
        <ele>739</ele>
        <time>2022-11-02T12:49:07Z</time>
      </trkpt>
      <trkpt lat="47.88931" lon="6.89701">
        <ele>739.8</ele>
        <time>2022-11-02T12:49:08Z</time>
      </trkpt>
      <trkpt lat="47.88931" lon="6.89703">
        <ele>739.8</ele>
        <time>2022-11-02T12:49:09Z</time>
      </trkpt>
      <trkpt lat="47.88931" lon="6.89704">
        <ele>739.8</ele>
        <time>2022-11-02T12:49:10Z</time>
      </trkpt>
      <trkpt lat="47.8893" lon="6.89705">
        <ele>740.6</ele>
        <time>2022-11-02T12:49:11Z</time>
      </trkpt>
      <trkpt lat="47.88931" lon="6.89706">
        <ele>739.9</ele>
        <time>2022-11-02T12:49:12Z</time>
      </trkpt>
      <trkpt lat="47.88931" lon="6.89707">
        <ele>739.9</ele>
        <time>2022-11-02T12:49:13Z</time>
      </trkpt>
      <trkpt lat="47.88931" lon="6.89708">
        <ele>739.9</ele>
        <time>2022-11-02T12:49:14Z</time>
      </trkpt>
      <trkpt lat="47.88932" lon="6.89709">
        <ele>739.2</ele>
        <time>2022-11-02T12:49:15Z</time>
      </trkpt>
      <trkpt lat="47.88932" lon="6.89711">
        <ele>739.2</ele>
        <time>2022-11-02T12:49:16Z</time>
      </trkpt>
      <trkpt lat="47.88932" lon="6.89712">
        <ele>739.2</ele>
        <time>2022-11-02T12:49:17Z</time>
      </trkpt>
      <trkpt lat="47.88933" lon="6.89713">
        <ele>738.5</ele>
        <time>2022-11-02T12:49:18Z</time>
      </trkpt>
      <trkpt lat="47.88933" lon="6.89715">
        <ele>738.5</ele>
        <time>2022-11-02T12:49:19Z</time>
      </trkpt>
      <trkpt lat="47.88933" lon="6.89716">
        <ele>738.6</ele>
        <time>2022-11-02T12:49:20Z</time>
      </trkpt>
      <trkpt lat="47.88933" lon="6.89717">
        <ele>738.6</ele>
        <time>2022-11-02T12:49:21Z</time>
      </trkpt>
      <trkpt lat="47.88933" lon="6.89718">
        <ele>738.6</ele>
        <time>2022-11-02T12:49:22Z</time>
      </trkpt>
      <trkpt lat="47.88933" lon="6.89719">
        <ele>738.6</ele>
        <time>2022-11-02T12:49:23Z</time>
      </trkpt>
      <trkpt lat="47.88933" lon="6.8972">
        <ele>738.6</ele>
        <time>2022-11-02T12:49:24Z</time>
      </trkpt>
      <trkpt lat="47.88933" lon="6.89721">
        <ele>738.6</ele>
        <time>2022-11-02T12:49:25Z</time>
      </trkpt>
      <trkpt lat="47.88933" lon="6.89722">
        <ele>738.6</ele>
        <time>2022-11-02T12:49:26Z</time>
      </trkpt>
      <trkpt lat="47.88933" lon="6.89723">
        <ele>738.7</ele>
        <time>2022-11-02T12:49:27Z</time>
      </trkpt>
      <trkpt lat="47.88933" lon="6.89724">
        <ele>738.7</ele>
        <time>2022-11-02T12:49:28Z</time>
      </trkpt>
      <trkpt lat="47.88933" lon="6.89725">
        <ele>738.7</ele>
        <time>2022-11-02T12:49:29Z</time>
      </trkpt>
      <trkpt lat="47.88934" lon="6.89727">
        <ele>737.9</ele>
        <time>2022-11-02T12:49:30Z</time>
      </trkpt>
      <trkpt lat="47.88934" lon="6.89728">
        <ele>737.9</ele>
        <time>2022-11-02T12:49:31Z</time>
      </trkpt>
      <trkpt lat="47.88935" lon="6.89729">
        <ele>737.1</ele>
        <time>2022-11-02T12:49:32Z</time>
      </trkpt>
      <trkpt lat="47.88935" lon="6.8973">
        <ele>737.1</ele>
        <time>2022-11-02T12:49:33Z</time>
      </trkpt>
      <trkpt lat="47.88936" lon="6.89732">
        <ele>736.4</ele>
        <time>2022-11-02T12:49:34Z</time>
      </trkpt>
      <trkpt lat="47.88936" lon="6.89733">
        <ele>736.4</ele>
        <time>2022-11-02T12:49:35Z</time>
      </trkpt>
      <trkpt lat="47.88937" lon="6.89735">
        <ele>735.6</ele>
        <time>2022-11-02T12:49:36Z</time>
      </trkpt>
      <trkpt lat="47.88937" lon="6.89737">
        <ele>735.6</ele>
        <time>2022-11-02T12:49:37Z</time>
      </trkpt>
      <trkpt lat="47.88938" lon="6.89739">
        <ele>734.9</ele>
        <time>2022-11-02T12:49:38Z</time>
      </trkpt>
      <trkpt lat="47.88938" lon="6.89741">
        <ele>734.9</ele>
        <time>2022-11-02T12:49:39Z</time>
      </trkpt>
      <trkpt lat="47.88938" lon="6.89743">
        <ele>734.9</ele>
        <time>2022-11-02T12:49:40Z</time>
      </trkpt>
      <trkpt lat="47.88939" lon="6.89745">
        <ele>734.1</ele>
        <time>2022-11-02T12:49:41Z</time>
      </trkpt>
      <trkpt lat="47.88939" lon="6.89746">
        <ele>734.1</ele>
        <time>2022-11-02T12:49:42Z</time>
      </trkpt>
      <trkpt lat="47.88939" lon="6.89748">
        <ele>734.1</ele>
        <time>2022-11-02T12:49:43Z</time>
      </trkpt>
      <trkpt lat="47.88938" lon="6.89749">
        <ele>734.9</ele>
        <time>2022-11-02T12:49:44Z</time>
      </trkpt>
      <trkpt lat="47.88938" lon="6.8975">
        <ele>734.9</ele>
        <time>2022-11-02T12:49:45Z</time>
      </trkpt>
      <trkpt lat="47.88937" lon="6.89751">
        <ele>735.6</ele>
        <time>2022-11-02T12:49:46Z</time>
      </trkpt>
      <trkpt lat="47.88937" lon="6.89752">
        <ele>735.6</ele>
        <time>2022-11-02T12:49:47Z</time>
      </trkpt>
      <trkpt lat="47.88937" lon="6.89753">
        <ele>735.7</ele>
        <time>2022-11-02T12:49:48Z</time>
      </trkpt>
      <trkpt lat="47.88936" lon="6.89754">
        <ele>736.4</ele>
        <time>2022-11-02T12:49:49Z</time>
      </trkpt>
      <trkpt lat="47.88937" lon="6.89756">
        <ele>735.7</ele>
        <time>2022-11-02T12:49:50Z</time>
      </trkpt>
      <trkpt lat="47.88937" lon="6.89757">
        <ele>735.7</ele>
        <time>2022-11-02T12:49:51Z</time>
      </trkpt>
      <trkpt lat="47.88937" lon="6.89759">
        <ele>735.7</ele>
        <time>2022-11-02T12:49:52Z</time>
      </trkpt>
      <trkpt lat="47.88937" lon="6.8976">
        <ele>735.7</ele>
        <time>2022-11-02T12:49:53Z</time>
      </trkpt>
      <trkpt lat="47.88936" lon="6.89762">
        <ele>736.5</ele>
        <time>2022-11-02T12:50:05Z</time>
      </trkpt>
      <trkpt lat="47.88936" lon="6.89763">
        <ele>736.5</ele>
        <time>2022-11-02T12:50:06Z</time>
      </trkpt>
      <trkpt lat="47.88935" lon="6.89764">
        <ele>737.3</ele>
        <time>2022-11-02T12:50:07Z</time>
      </trkpt>
      <trkpt lat="47.88935" lon="6.89765">
        <ele>737.3</ele>
        <time>2022-11-02T12:50:08Z</time>
      </trkpt>
      <trkpt lat="47.88934" lon="6.89767">
        <ele>738.1</ele>
        <time>2022-11-02T12:50:09Z</time>
      </trkpt>
      <trkpt lat="47.88934" lon="6.89768">
        <ele>738.1</ele>
        <time>2022-11-02T12:50:10Z</time>
      </trkpt>
      <trkpt lat="47.88933" lon="6.89769">
        <ele>738.9</ele>
        <time>2022-11-02T12:50:11Z</time>
      </trkpt>
      <trkpt lat="47.88933" lon="6.8977">
        <ele>738.9</ele>
        <time>2022-11-02T12:50:12Z</time>
      </trkpt>
      <trkpt lat="47.88932" lon="6.89771">
        <ele>739.7</ele>
        <time>2022-11-02T12:50:13Z</time>
      </trkpt>
      <trkpt lat="47.88932" lon="6.89773">
        <ele>739.8</ele>
        <time>2022-11-02T12:50:14Z</time>
      </trkpt>
      <trkpt lat="47.88931" lon="6.89774">
        <ele>740.6</ele>
        <time>2022-11-02T12:50:15Z</time>
      </trkpt>
      <trkpt lat="47.88931" lon="6.89776">
        <ele>740.6</ele>
        <time>2022-11-02T12:50:16Z</time>
      </trkpt>
      <trkpt lat="47.8893" lon="6.89778">
        <ele>741.4</ele>
        <time>2022-11-02T12:50:17Z</time>
      </trkpt>
      <trkpt lat="47.8893" lon="6.89779">
        <ele>741.4</ele>
        <time>2022-11-02T12:50:18Z</time>
      </trkpt>
      <trkpt lat="47.8893" lon="6.89781">
        <ele>741.3</ele>
        <time>2022-11-02T12:50:19Z</time>
      </trkpt>
      <trkpt lat="47.8893" lon="6.89782">
        <ele>741.2</ele>
        <time>2022-11-02T12:50:20Z</time>
      </trkpt>
      <trkpt lat="47.8893" lon="6.89783">
        <ele>741.2</ele>
        <time>2022-11-02T12:50:21Z</time>
      </trkpt>
      <trkpt lat="47.88929" lon="6.89784">
        <ele>741.9</ele>
        <time>2022-11-02T12:50:22Z</time>
      </trkpt>
      <trkpt lat="47.88929" lon="6.89786">
        <ele>741.8</ele>
        <time>2022-11-02T12:50:23Z</time>
      </trkpt>
      <trkpt lat="47.88929" lon="6.89787">
        <ele>741.8</ele>
        <time>2022-11-02T12:50:24Z</time>
      </trkpt>
      <trkpt lat="47.88928" lon="6.89789">
        <ele>742.5</ele>
        <time>2022-11-02T12:50:25Z</time>
      </trkpt>
      <trkpt lat="47.88928" lon="6.8979">
        <ele>742.4</ele>
        <time>2022-11-02T12:50:26Z</time>
      </trkpt>
      <trkpt lat="47.88927" lon="6.89791">
        <ele>743.2</ele>
        <time>2022-11-02T12:50:27Z</time>
      </trkpt>
      <trkpt lat="47.88927" lon="6.89792">
        <ele>743.1</ele>
        <time>2022-11-02T12:50:28Z</time>
      </trkpt>
      <trkpt lat="47.88927" lon="6.89793">
        <ele>743.1</ele>
        <time>2022-11-02T12:50:29Z</time>
      </trkpt>
      <trkpt lat="47.88926" lon="6.89794">
        <ele>743.8</ele>
        <time>2022-11-02T12:50:30Z</time>
      </trkpt>
      <trkpt lat="47.88926" lon="6.89795">
        <ele>743.8</ele>
        <time>2022-11-02T12:50:31Z</time>
      </trkpt>
      <trkpt lat="47.88926" lon="6.89796">
        <ele>743.7</ele>
        <time>2022-11-02T12:50:32Z</time>
      </trkpt>
      <trkpt lat="47.88926" lon="6.89797">
        <ele>743.7</ele>
        <time>2022-11-02T12:50:33Z</time>
      </trkpt>
      <trkpt lat="47.88927" lon="6.89798">
        <ele>742.8</ele>
        <time>2022-11-02T12:50:34Z</time>
      </trkpt>
      <trkpt lat="47.88928" lon="6.89799">
        <ele>741.9</ele>
        <time>2022-11-02T12:50:35Z</time>
      </trkpt>
      <trkpt lat="47.88928" lon="6.89801">
        <ele>741.8</ele>
        <time>2022-11-02T12:50:36Z</time>
      </trkpt>
      <trkpt lat="47.88928" lon="6.89802">
        <ele>741.8</ele>
        <time>2022-11-02T12:50:37Z</time>
      </trkpt>
      <trkpt lat="47.88929" lon="6.89803">
        <ele>740.9</ele>
        <time>2022-11-02T12:50:38Z</time>
      </trkpt>
      <trkpt lat="47.88929" lon="6.89804">
        <ele>740.9</ele>
        <time>2022-11-02T12:50:39Z</time>
      </trkpt>
      <trkpt lat="47.88929" lon="6.89806">
        <ele>740.8</ele>
        <time>2022-11-02T12:50:40Z</time>
      </trkpt>
      <trkpt lat="47.88929" lon="6.89807">
        <ele>740.7</ele>
        <time>2022-11-02T12:50:41Z</time>
      </trkpt>
      <trkpt lat="47.88929" lon="6.89808">
        <ele>740.6</ele>
        <time>2022-11-02T12:50:42Z</time>
      </trkpt>
      <trkpt lat="47.88928" lon="6.89809">
        <ele>741.3</ele>
        <time>2022-11-02T12:50:43Z</time>
      </trkpt>
      <trkpt lat="47.88928" lon="6.8981">
        <ele>741.3</ele>
        <time>2022-11-02T12:50:44Z</time>
      </trkpt>
      <trkpt lat="47.88928" lon="6.89811">
        <ele>741.2</ele>
        <time>2022-11-02T12:50:45Z</time>
      </trkpt>
      <trkpt lat="47.88927" lon="6.89812">
        <ele>741.9</ele>
        <time>2022-11-02T12:50:46Z</time>
      </trkpt>
      <trkpt lat="47.88927" lon="6.89813">
        <ele>741.8</ele>
        <time>2022-11-02T12:50:47Z</time>
      </trkpt>
      <trkpt lat="47.88926" lon="6.89814">
        <ele>742.6</ele>
        <time>2022-11-02T12:50:48Z</time>
      </trkpt>
      <trkpt lat="47.88927" lon="6.89816">
        <ele>741.6</ele>
        <time>2022-11-02T12:50:49Z</time>
      </trkpt>
      <trkpt lat="47.88927" lon="6.89817">
        <ele>741.5</ele>
        <time>2022-11-02T12:50:50Z</time>
      </trkpt>
      <trkpt lat="47.88927" lon="6.89818">
        <ele>741.4</ele>
        <time>2022-11-02T12:50:51Z</time>
      </trkpt>
      <trkpt lat="47.88927" lon="6.8982">
        <ele>741.3</ele>
        <time>2022-11-02T12:50:52Z</time>
      </trkpt>
      <trkpt lat="47.88927" lon="6.89821">
        <ele>741.2</ele>
        <time>2022-11-02T12:50:53Z</time>
      </trkpt>
      <trkpt lat="47.88927" lon="6.89823">
        <ele>741</ele>
        <time>2022-11-02T12:50:54Z</time>
      </trkpt>
      <trkpt lat="47.88928" lon="6.89825">
        <ele>740.1</ele>
        <time>2022-11-02T12:50:55Z</time>
      </trkpt>
      <trkpt lat="47.88928" lon="6.89826">
        <ele>740</ele>
        <time>2022-11-02T12:50:56Z</time>
      </trkpt>
      <trkpt lat="47.88929" lon="6.89828">
        <ele>739.1</ele>
        <time>2022-11-02T12:50:57Z</time>
      </trkpt>
      <trkpt lat="47.88929" lon="6.8983">
        <ele>738.9</ele>
        <time>2022-11-02T12:50:58Z</time>
      </trkpt>
      <trkpt lat="47.88929" lon="6.89832">
        <ele>738.8</ele>
        <time>2022-11-02T12:50:59Z</time>
      </trkpt>
      <trkpt lat="47.88928" lon="6.89833">
        <ele>739.5</ele>
        <time>2022-11-02T12:51:00Z</time>
      </trkpt>
      <trkpt lat="47.88928" lon="6.89834">
        <ele>739.4</ele>
        <time>2022-11-02T12:51:01Z</time>
      </trkpt>
      <trkpt lat="47.88928" lon="6.89836">
        <ele>739.1</ele>
        <time>2022-11-02T12:51:02Z</time>
      </trkpt>
      <trkpt lat="47.88927" lon="6.89836">
        <ele>739.9</ele>
        <time>2022-11-02T12:51:03Z</time>
      </trkpt>
      <trkpt lat="47.88926" lon="6.89837">
        <ele>740.5</ele>
        <time>2022-11-02T12:51:04Z</time>
      </trkpt>
      <trkpt lat="47.88926" lon="6.89839">
        <ele>740.3</ele>
        <time>2022-11-02T12:51:05Z</time>
      </trkpt>
      <trkpt lat="47.88925" lon="6.8984">
        <ele>740.9</ele>
        <time>2022-11-02T12:51:06Z</time>
      </trkpt>
      <trkpt lat="47.88924" lon="6.89841">
        <ele>741.5</ele>
        <time>2022-11-02T12:51:07Z</time>
      </trkpt>
      <trkpt lat="47.88923" lon="6.89843">
        <ele>742</ele>
        <time>2022-11-02T12:51:08Z</time>
      </trkpt>
      <trkpt lat="47.88922" lon="6.89844">
        <ele>742.6</ele>
        <time>2022-11-02T12:51:09Z</time>
      </trkpt>
      <trkpt lat="47.88922" lon="6.89846">
        <ele>742.3</ele>
        <time>2022-11-02T12:51:10Z</time>
      </trkpt>
      <trkpt lat="47.88921" lon="6.89847">
        <ele>742.9</ele>
        <time>2022-11-02T12:51:11Z</time>
      </trkpt>
      <trkpt lat="47.88921" lon="6.89848">
        <ele>742.8</ele>
        <time>2022-11-02T12:51:12Z</time>
      </trkpt>
      <trkpt lat="47.8892" lon="6.8985">
        <ele>743.2</ele>
        <time>2022-11-02T12:51:13Z</time>
      </trkpt>
      <trkpt lat="47.8892" lon="6.89851">
        <ele>743.1</ele>
        <time>2022-11-02T12:51:14Z</time>
      </trkpt>
      <trkpt lat="47.88919" lon="6.89852">
        <ele>743.7</ele>
        <time>2022-11-02T12:51:15Z</time>
      </trkpt>
      <trkpt lat="47.88919" lon="6.89853">
        <ele>743.5</ele>
        <time>2022-11-02T12:51:16Z</time>
      </trkpt>
      <trkpt lat="47.88918" lon="6.89854">
        <ele>744.1</ele>
        <time>2022-11-02T12:51:17Z</time>
      </trkpt>
      <trkpt lat="47.88918" lon="6.89855">
        <ele>743.9</ele>
        <time>2022-11-02T12:51:18Z</time>
      </trkpt>
      <trkpt lat="47.88917" lon="6.89856">
        <ele>744.5</ele>
        <time>2022-11-02T12:51:19Z</time>
      </trkpt>
      <trkpt lat="47.88917" lon="6.89857">
        <ele>744.4</ele>
        <time>2022-11-02T12:51:20Z</time>
      </trkpt>
      <trkpt lat="47.88916" lon="6.89858">
        <ele>745</ele>
        <time>2022-11-02T12:51:21Z</time>
      </trkpt>
      <trkpt lat="47.88916" lon="6.89859">
        <ele>744.9</ele>
        <time>2022-11-02T12:51:22Z</time>
      </trkpt>
      <trkpt lat="47.88915" lon="6.8986">
        <ele>745.6</ele>
        <time>2022-11-02T12:51:23Z</time>
      </trkpt>
      <trkpt lat="47.88915" lon="6.89861">
        <ele>745.5</ele>
        <time>2022-11-02T12:51:24Z</time>
      </trkpt>
      <trkpt lat="47.88914" lon="6.89862">
        <ele>746.1</ele>
        <time>2022-11-02T12:51:26Z</time>
      </trkpt>
      <trkpt lat="47.88914" lon="6.89863">
        <ele>745.9</ele>
        <time>2022-11-02T12:51:27Z</time>
      </trkpt>
      <trkpt lat="47.88913" lon="6.89863">
        <ele>746.8</ele>
        <time>2022-11-02T12:51:28Z</time>
      </trkpt>
      <trkpt lat="47.88913" lon="6.89864">
        <ele>746.6</ele>
        <time>2022-11-02T12:51:29Z</time>
      </trkpt>
      <trkpt lat="47.88913" lon="6.89865">
        <ele>746.4</ele>
        <time>2022-11-02T12:51:30Z</time>
      </trkpt>
      <trkpt lat="47.88913" lon="6.89866">
        <ele>746.2</ele>
        <time>2022-11-02T12:51:31Z</time>
      </trkpt>
      <trkpt lat="47.88913" lon="6.89867">
        <ele>746</ele>
        <time>2022-11-02T12:51:32Z</time>
      </trkpt>
      <trkpt lat="47.88914" lon="6.89868">
        <ele>744.9</ele>
        <time>2022-11-02T12:51:33Z</time>
      </trkpt>
      <trkpt lat="47.88914" lon="6.8987">
        <ele>744.4</ele>
        <time>2022-11-02T12:51:34Z</time>
      </trkpt>
      <trkpt lat="47.88914" lon="6.89871">
        <ele>744.2</ele>
        <time>2022-11-02T12:51:35Z</time>
      </trkpt>
      <trkpt lat="47.88914" lon="6.89872">
        <ele>744</ele>
        <time>2022-11-02T12:51:36Z</time>
      </trkpt>
      <trkpt lat="47.88914" lon="6.89874">
        <ele>743.6</ele>
        <time>2022-11-02T12:51:37Z</time>
      </trkpt>
      <trkpt lat="47.88913" lon="6.89875">
        <ele>744.3</ele>
        <time>2022-11-02T12:51:38Z</time>
      </trkpt>
      <trkpt lat="47.88912" lon="6.89876">
        <ele>745</ele>
        <time>2022-11-02T12:51:39Z</time>
      </trkpt>
      <trkpt lat="47.88911" lon="6.89877">
        <ele>745.7</ele>
        <time>2022-11-02T12:51:40Z</time>
      </trkpt>
      <trkpt lat="47.88911" lon="6.89878">
        <ele>745.5</ele>
        <time>2022-11-02T12:51:41Z</time>
      </trkpt>
      <trkpt lat="47.8891" lon="6.89879">
        <ele>746.2</ele>
        <time>2022-11-02T12:51:42Z</time>
      </trkpt>
      <trkpt lat="47.8891" lon="6.8988">
        <ele>746</ele>
        <time>2022-11-02T12:51:43Z</time>
      </trkpt>
      <trkpt lat="47.88909" lon="6.89881">
        <ele>746.7</ele>
        <time>2022-11-02T12:51:44Z</time>
      </trkpt>
      <trkpt lat="47.88909" lon="6.89882">
        <ele>746.5</ele>
        <time>2022-11-02T12:51:45Z</time>
      </trkpt>
      <trkpt lat="47.88909" lon="6.89883">
        <ele>746.3</ele>
        <time>2022-11-02T12:51:46Z</time>
      </trkpt>
      <trkpt lat="47.88908" lon="6.89884">
        <ele>747.1</ele>
        <time>2022-11-02T12:51:47Z</time>
      </trkpt>
      <trkpt lat="47.88908" lon="6.89885">
        <ele>746.9</ele>
        <time>2022-11-02T12:51:49Z</time>
      </trkpt>
      <trkpt lat="47.88908" lon="6.89886">
        <ele>746.7</ele>
        <time>2022-11-02T12:51:50Z</time>
      </trkpt>
      <trkpt lat="47.88908" lon="6.89889">
        <ele>746.1</ele>
        <time>2022-11-02T12:52:45Z</time>
      </trkpt>
      <trkpt lat="47.88907" lon="6.89892">
        <ele>746.4</ele>
        <time>2022-11-02T12:52:46Z</time>
      </trkpt>
      <trkpt lat="47.88907" lon="6.89894">
        <ele>746</ele>
        <time>2022-11-02T12:52:47Z</time>
      </trkpt>
      <trkpt lat="47.88907" lon="6.89895">
        <ele>745.8</ele>
        <time>2022-11-02T12:52:48Z</time>
      </trkpt>
      <trkpt lat="47.88907" lon="6.89897">
        <ele>745.4</ele>
        <time>2022-11-02T12:52:49Z</time>
      </trkpt>
      <trkpt lat="47.88907" lon="6.89898">
        <ele>745.2</ele>
        <time>2022-11-02T12:52:50Z</time>
      </trkpt>
      <trkpt lat="47.88907" lon="6.899">
        <ele>744.8</ele>
        <time>2022-11-02T12:52:51Z</time>
      </trkpt>
      <trkpt lat="47.88907" lon="6.89902">
        <ele>744.4</ele>
        <time>2022-11-02T12:52:52Z</time>
      </trkpt>
      <trkpt lat="47.88907" lon="6.89904">
        <ele>743.9</ele>
        <time>2022-11-02T12:52:53Z</time>
      </trkpt>
      <trkpt lat="47.88907" lon="6.89906">
        <ele>743.5</ele>
        <time>2022-11-02T12:52:54Z</time>
      </trkpt>
      <trkpt lat="47.88907" lon="6.89908">
        <ele>743.1</ele>
        <time>2022-11-02T12:52:55Z</time>
      </trkpt>
      <trkpt lat="47.88906" lon="6.8991">
        <ele>743.6</ele>
        <time>2022-11-02T12:52:56Z</time>
      </trkpt>
      <trkpt lat="47.88906" lon="6.89911">
        <ele>743.4</ele>
        <time>2022-11-02T12:52:57Z</time>
      </trkpt>
      <trkpt lat="47.88905" lon="6.89912">
        <ele>744.1</ele>
        <time>2022-11-02T12:52:58Z</time>
      </trkpt>
      <trkpt lat="47.88905" lon="6.89913">
        <ele>743.9</ele>
        <time>2022-11-02T12:52:59Z</time>
      </trkpt>
      <trkpt lat="47.88904" lon="6.89914">
        <ele>744.5</ele>
        <time>2022-11-02T12:53:00Z</time>
      </trkpt>
      <trkpt lat="47.88903" lon="6.89915">
        <ele>745.2</ele>
        <time>2022-11-02T12:53:01Z</time>
      </trkpt>
      <trkpt lat="47.88903" lon="6.89917">
        <ele>744.7</ele>
        <time>2022-11-02T12:53:02Z</time>
      </trkpt>
      <trkpt lat="47.88902" lon="6.89918">
        <ele>745.4</ele>
        <time>2022-11-02T12:53:03Z</time>
      </trkpt>
      <trkpt lat="47.88902" lon="6.89919">
        <ele>745.1</ele>
        <time>2022-11-02T12:53:04Z</time>
      </trkpt>
      <trkpt lat="47.88901" lon="6.8992">
        <ele>745.7</ele>
        <time>2022-11-02T12:53:05Z</time>
      </trkpt>
      <trkpt lat="47.88901" lon="6.89921">
        <ele>745.5</ele>
        <time>2022-11-02T12:53:06Z</time>
      </trkpt>
      <trkpt lat="47.889" lon="6.89922">
        <ele>746.1</ele>
        <time>2022-11-02T12:53:07Z</time>
      </trkpt>
      <trkpt lat="47.88899" lon="6.89923">
        <ele>746.8</ele>
        <time>2022-11-02T12:53:08Z</time>
      </trkpt>
      <trkpt lat="47.88898" lon="6.89925">
        <ele>747.1</ele>
        <time>2022-11-02T12:53:09Z</time>
      </trkpt>
      <trkpt lat="47.88897" lon="6.89926">
        <ele>747.7</ele>
        <time>2022-11-02T12:53:10Z</time>
      </trkpt>
      <trkpt lat="47.88896" lon="6.89927">
        <ele>748.3</ele>
        <time>2022-11-02T12:53:11Z</time>
      </trkpt>
      <trkpt lat="47.88895" lon="6.89928">
        <ele>749</ele>
        <time>2022-11-02T12:53:12Z</time>
      </trkpt>
      <trkpt lat="47.88895" lon="6.8993">
        <ele>748.5</ele>
        <time>2022-11-02T12:53:13Z</time>
      </trkpt>
      <trkpt lat="47.88895" lon="6.89932">
        <ele>748</ele>
        <time>2022-11-02T12:53:14Z</time>
      </trkpt>
      <trkpt lat="47.88895" lon="6.89934">
        <ele>747.5</ele>
        <time>2022-11-02T12:53:15Z</time>
      </trkpt>
      <trkpt lat="47.88895" lon="6.89936">
        <ele>747</ele>
        <time>2022-11-02T12:53:16Z</time>
      </trkpt>
      <trkpt lat="47.88895" lon="6.89938">
        <ele>746.5</ele>
        <time>2022-11-02T12:53:17Z</time>
      </trkpt>
      <trkpt lat="47.88894" lon="6.89939">
        <ele>747.1</ele>
        <time>2022-11-02T12:53:18Z</time>
      </trkpt>
      <trkpt lat="47.88893" lon="6.89941">
        <ele>747.4</ele>
        <time>2022-11-02T12:53:19Z</time>
      </trkpt>
      <trkpt lat="47.88893" lon="6.89942">
        <ele>747.2</ele>
        <time>2022-11-02T12:53:20Z</time>
      </trkpt>
      <trkpt lat="47.88892" lon="6.89944">
        <ele>747.5</ele>
        <time>2022-11-02T12:53:21Z</time>
      </trkpt>
      <trkpt lat="47.88892" lon="6.89945">
        <ele>747.3</ele>
        <time>2022-11-02T12:53:22Z</time>
      </trkpt>
      <trkpt lat="47.88891" lon="6.89946">
        <ele>747.9</ele>
        <time>2022-11-02T12:53:23Z</time>
      </trkpt>
      <trkpt lat="47.88891" lon="6.89947">
        <ele>747.6</ele>
        <time>2022-11-02T12:53:24Z</time>
      </trkpt>
      <trkpt lat="47.88891" lon="6.89948">
        <ele>747.4</ele>
        <time>2022-11-02T12:53:25Z</time>
      </trkpt>
      <trkpt lat="47.88891" lon="6.89949">
        <ele>747.1</ele>
        <time>2022-11-02T12:53:26Z</time>
      </trkpt>
      <trkpt lat="47.88891" lon="6.8995">
        <ele>746.9</ele>
        <time>2022-11-02T12:53:27Z</time>
      </trkpt>
      <trkpt lat="47.8889" lon="6.89951">
        <ele>747.4</ele>
        <time>2022-11-02T12:53:28Z</time>
      </trkpt>
      <trkpt lat="47.8889" lon="6.89952">
        <ele>747.2</ele>
        <time>2022-11-02T12:53:29Z</time>
      </trkpt>
      <trkpt lat="47.88889" lon="6.89953">
        <ele>747.8</ele>
        <time>2022-11-02T12:53:30Z</time>
      </trkpt>
      <trkpt lat="47.88889" lon="6.89954">
        <ele>747.5</ele>
        <time>2022-11-02T12:53:31Z</time>
      </trkpt>
      <trkpt lat="47.88888" lon="6.89955">
        <ele>748.1</ele>
        <time>2022-11-02T12:53:32Z</time>
      </trkpt>
      <trkpt lat="47.88888" lon="6.89956">
        <ele>747.9</ele>
        <time>2022-11-02T12:53:33Z</time>
      </trkpt>
      <trkpt lat="47.88888" lon="6.89958">
        <ele>747.4</ele>
        <time>2022-11-02T12:53:34Z</time>
      </trkpt>
      <trkpt lat="47.88887" lon="6.89959">
        <ele>748</ele>
        <time>2022-11-02T12:53:35Z</time>
      </trkpt>
      <trkpt lat="47.88887" lon="6.89961">
        <ele>747.4</ele>
        <time>2022-11-02T12:53:36Z</time>
      </trkpt>
      <trkpt lat="47.88887" lon="6.89962">
        <ele>747.2</ele>
        <time>2022-11-02T12:53:37Z</time>
      </trkpt>
      <trkpt lat="47.88886" lon="6.89963">
        <ele>747.8</ele>
        <time>2022-11-02T12:53:38Z</time>
      </trkpt>
      <trkpt lat="47.88886" lon="6.89964">
        <ele>747.5</ele>
        <time>2022-11-02T12:53:39Z</time>
      </trkpt>
      <trkpt lat="47.88886" lon="6.89965">
        <ele>747.3</ele>
        <time>2022-11-02T12:53:40Z</time>
      </trkpt>
      <trkpt lat="47.88885" lon="6.89966">
        <ele>747.9</ele>
        <time>2022-11-02T12:53:41Z</time>
      </trkpt>
      <trkpt lat="47.88885" lon="6.89967">
        <ele>747.6</ele>
        <time>2022-11-02T12:53:42Z</time>
      </trkpt>
      <trkpt lat="47.88885" lon="6.89968">
        <ele>747.3</ele>
        <time>2022-11-02T12:53:43Z</time>
      </trkpt>
      <trkpt lat="47.88885" lon="6.89969">
        <ele>747.1</ele>
        <time>2022-11-02T12:53:44Z</time>
      </trkpt>
      <trkpt lat="47.88885" lon="6.8997">
        <ele>746.8</ele>
        <time>2022-11-02T12:53:45Z</time>
      </trkpt>
      <trkpt lat="47.88885" lon="6.89972">
        <ele>746.3</ele>
        <time>2022-11-02T12:53:46Z</time>
      </trkpt>
      <trkpt lat="47.88885" lon="6.89973">
        <ele>746</ele>
        <time>2022-11-02T12:53:47Z</time>
      </trkpt>
      <trkpt lat="47.88884" lon="6.89975">
        <ele>746.4</ele>
        <time>2022-11-02T12:53:48Z</time>
      </trkpt>
      <trkpt lat="47.88884" lon="6.89976">
        <ele>746.1</ele>
        <time>2022-11-02T12:53:49Z</time>
      </trkpt>
      <trkpt lat="47.88884" lon="6.89978">
        <ele>745.7</ele>
        <time>2022-11-02T12:53:50Z</time>
      </trkpt>
      <trkpt lat="47.88883" lon="6.89979">
        <ele>746.3</ele>
        <time>2022-11-02T12:53:51Z</time>
      </trkpt>
      <trkpt lat="47.88883" lon="6.8998">
        <ele>746</ele>
        <time>2022-11-02T12:53:52Z</time>
      </trkpt>
      <trkpt lat="47.88882" lon="6.89981">
        <ele>746.6</ele>
        <time>2022-11-02T12:53:53Z</time>
      </trkpt>
      <trkpt lat="47.88882" lon="6.89983">
        <ele>746.2</ele>
        <time>2022-11-02T12:53:54Z</time>
      </trkpt>
      <trkpt lat="47.88882" lon="6.89984">
        <ele>745.9</ele>
        <time>2022-11-02T12:53:55Z</time>
      </trkpt>
      <trkpt lat="47.88882" lon="6.89985">
        <ele>745.7</ele>
        <time>2022-11-02T12:53:56Z</time>
      </trkpt>
      <trkpt lat="47.88882" lon="6.89986">
        <ele>745.5</ele>
        <time>2022-11-02T12:53:57Z</time>
      </trkpt>
      <trkpt lat="47.88883" lon="6.89987">
        <ele>744.4</ele>
        <time>2022-11-02T12:53:58Z</time>
      </trkpt>
      <trkpt lat="47.88883" lon="6.89989">
        <ele>743.9</ele>
        <time>2022-11-02T12:53:59Z</time>
      </trkpt>
      <trkpt lat="47.88884" lon="6.8999">
        <ele>742.8</ele>
        <time>2022-11-02T12:54:00Z</time>
      </trkpt>
      <trkpt lat="47.88884" lon="6.89992">
        <ele>742.3</ele>
        <time>2022-11-02T12:54:01Z</time>
      </trkpt>
      <trkpt lat="47.88884" lon="6.89993">
        <ele>742.1</ele>
        <time>2022-11-02T12:54:02Z</time>
      </trkpt>
      <trkpt lat="47.88885" lon="6.89994">
        <ele>741</ele>
        <time>2022-11-02T12:54:03Z</time>
      </trkpt>
      <trkpt lat="47.88885" lon="6.89996">
        <ele>740.5</ele>
        <time>2022-11-02T12:54:04Z</time>
      </trkpt>
      <trkpt lat="47.88885" lon="6.89998">
        <ele>740</ele>
        <time>2022-11-02T12:54:05Z</time>
      </trkpt>
      <trkpt lat="47.88886" lon="6.89999">
        <ele>738.8</ele>
        <time>2022-11-02T12:54:06Z</time>
      </trkpt>
      <trkpt lat="47.88886" lon="6.90001">
        <ele>738.3</ele>
        <time>2022-11-02T12:54:07Z</time>
      </trkpt>
      <trkpt lat="47.88886" lon="6.90003">
        <ele>737.8</ele>
        <time>2022-11-02T12:54:08Z</time>
      </trkpt>
      <trkpt lat="47.88886" lon="6.90004">
        <ele>737.6</ele>
        <time>2022-11-02T12:54:09Z</time>
      </trkpt>
      <trkpt lat="47.88887" lon="6.90005">
        <ele>736.4</ele>
        <time>2022-11-02T12:54:10Z</time>
      </trkpt>
      <trkpt lat="47.88887" lon="6.90007">
        <ele>735.9</ele>
        <time>2022-11-02T12:54:11Z</time>
      </trkpt>
      <trkpt lat="47.88887" lon="6.90008">
        <ele>735.7</ele>
        <time>2022-11-02T12:54:12Z</time>
      </trkpt>
      <trkpt lat="47.88887" lon="6.9001">
        <ele>735.2</ele>
        <time>2022-11-02T12:54:13Z</time>
      </trkpt>
      <trkpt lat="47.88887" lon="6.90011">
        <ele>734.9</ele>
        <time>2022-11-02T12:54:14Z</time>
      </trkpt>
      <trkpt lat="47.88885" lon="6.90012">
        <ele>736.4</ele>
        <time>2022-11-02T12:54:15Z</time>
      </trkpt>
      <trkpt lat="47.88884" lon="6.90013">
        <ele>737</ele>
        <time>2022-11-02T12:54:16Z</time>
      </trkpt>
      <trkpt lat="47.88882" lon="6.90014">
        <ele>738.5</ele>
        <time>2022-11-02T12:54:17Z</time>
      </trkpt>
      <trkpt lat="47.8888" lon="6.90014">
        <ele>740.3</ele>
        <time>2022-11-02T12:54:18Z</time>
      </trkpt>
      <trkpt lat="47.88879" lon="6.90015">
        <ele>740.9</ele>
        <time>2022-11-02T12:54:19Z</time>
      </trkpt>
      <trkpt lat="47.88878" lon="6.90015">
        <ele>741.8</ele>
        <time>2022-11-02T12:54:20Z</time>
      </trkpt>
      <trkpt lat="47.88877" lon="6.90016">
        <ele>742.4</ele>
        <time>2022-11-02T12:54:21Z</time>
      </trkpt>
      <trkpt lat="47.88876" lon="6.90016">
        <ele>743.3</ele>
        <time>2022-11-02T12:54:22Z</time>
      </trkpt>
      <trkpt lat="47.88875" lon="6.90016">
        <ele>744.2</ele>
        <time>2022-11-02T12:54:23Z</time>
      </trkpt>
      <trkpt lat="47.88873" lon="6.90018">
        <ele>745.4</ele>
        <time>2022-11-02T12:54:30Z</time>
      </trkpt>
      <trkpt lat="47.88872" lon="6.90019">
        <ele>746</ele>
        <time>2022-11-02T12:54:31Z</time>
      </trkpt>
      <trkpt lat="47.88872" lon="6.9002">
        <ele>745.7</ele>
        <time>2022-11-02T12:54:32Z</time>
      </trkpt>
      <trkpt lat="47.88872" lon="6.90021">
        <ele>745.4</ele>
        <time>2022-11-02T12:54:33Z</time>
      </trkpt>
      <trkpt lat="47.88872" lon="6.90022">
        <ele>745.2</ele>
        <time>2022-11-02T12:54:34Z</time>
      </trkpt>
      <trkpt lat="47.88872" lon="6.90023">
        <ele>744.9</ele>
        <time>2022-11-02T12:54:36Z</time>
      </trkpt>
      <trkpt lat="47.88872" lon="6.90024">
        <ele>744.6</ele>
        <time>2022-11-02T12:54:37Z</time>
      </trkpt>
      <trkpt lat="47.88871" lon="6.90025">
        <ele>745.2</ele>
        <time>2022-11-02T12:54:38Z</time>
      </trkpt>
      <trkpt lat="47.88871" lon="6.90026">
        <ele>744.9</ele>
        <time>2022-11-02T12:54:39Z</time>
      </trkpt>
      <trkpt lat="47.8887" lon="6.90027">
        <ele>745.5</ele>
        <time>2022-11-02T12:54:40Z</time>
      </trkpt>
      <trkpt lat="47.88869" lon="6.90029">
        <ele>745.8</ele>
        <time>2022-11-02T12:54:41Z</time>
      </trkpt>
      <trkpt lat="47.88869" lon="6.9003">
        <ele>745.5</ele>
        <time>2022-11-02T12:54:42Z</time>
      </trkpt>
      <trkpt lat="47.88868" lon="6.90032">
        <ele>745.8</ele>
        <time>2022-11-02T12:54:43Z</time>
      </trkpt>
      <trkpt lat="47.88868" lon="6.90034">
        <ele>745.1</ele>
        <time>2022-11-02T12:54:44Z</time>
      </trkpt>
      <trkpt lat="47.88867" lon="6.90036">
        <ele>745.4</ele>
        <time>2022-11-02T12:54:45Z</time>
      </trkpt>
      <trkpt lat="47.88867" lon="6.90038">
        <ele>744.8</ele>
        <time>2022-11-02T12:54:46Z</time>
      </trkpt>
      <trkpt lat="47.88866" lon="6.9004">
        <ele>745.1</ele>
        <time>2022-11-02T12:54:47Z</time>
      </trkpt>
      <trkpt lat="47.88866" lon="6.90042">
        <ele>744.5</ele>
        <time>2022-11-02T12:54:48Z</time>
      </trkpt>
      <trkpt lat="47.88866" lon="6.90043">
        <ele>744.2</ele>
        <time>2022-11-02T12:54:49Z</time>
      </trkpt>
      <trkpt lat="47.88866" lon="6.90045">
        <ele>743.6</ele>
        <time>2022-11-02T12:54:50Z</time>
      </trkpt>
      <trkpt lat="47.88865" lon="6.90046">
        <ele>744.2</ele>
        <time>2022-11-02T12:54:51Z</time>
      </trkpt>
      <trkpt lat="47.88865" lon="6.90047">
        <ele>743.9</ele>
        <time>2022-11-02T12:54:52Z</time>
      </trkpt>
      <trkpt lat="47.88865" lon="6.90048">
        <ele>743.6</ele>
        <time>2022-11-02T12:54:53Z</time>
      </trkpt>
      <trkpt lat="47.88864" lon="6.90049">
        <ele>744.2</ele>
        <time>2022-11-02T12:54:54Z</time>
      </trkpt>
      <trkpt lat="47.88864" lon="6.9005">
        <ele>743.9</ele>
        <time>2022-11-02T12:54:55Z</time>
      </trkpt>
      <trkpt lat="47.88863" lon="6.90051">
        <ele>744.6</ele>
        <time>2022-11-02T12:54:56Z</time>
      </trkpt>
      <trkpt lat="47.88863" lon="6.90052">
        <ele>744.3</ele>
        <time>2022-11-02T12:54:57Z</time>
      </trkpt>
      <trkpt lat="47.88863" lon="6.90053">
        <ele>744</ele>
        <time>2022-11-02T12:54:58Z</time>
      </trkpt>
      <trkpt lat="47.88863" lon="6.90054">
        <ele>743.7</ele>
        <time>2022-11-02T12:54:59Z</time>
      </trkpt>
      <trkpt lat="47.88863" lon="6.90055">
        <ele>743.4</ele>
        <time>2022-11-02T12:55:00Z</time>
      </trkpt>
      <trkpt lat="47.88862" lon="6.90056">
        <ele>744.1</ele>
        <time>2022-11-02T12:55:01Z</time>
      </trkpt>
      <trkpt lat="47.88862" lon="6.90057">
        <ele>743.9</ele>
        <time>2022-11-02T12:55:02Z</time>
      </trkpt>
      <trkpt lat="47.88861" lon="6.90059">
        <ele>744.4</ele>
        <time>2022-11-02T12:55:03Z</time>
      </trkpt>
      <trkpt lat="47.88859" lon="6.9006">
        <ele>746.4</ele>
        <time>2022-11-02T12:55:04Z</time>
      </trkpt>
      <trkpt lat="47.88858" lon="6.90061">
        <ele>747.3</ele>
        <time>2022-11-02T12:55:05Z</time>
      </trkpt>
      <trkpt lat="47.88857" lon="6.90062">
        <ele>748.2</ele>
        <time>2022-11-02T12:55:06Z</time>
      </trkpt>
      <trkpt lat="47.88857" lon="6.90063">
        <ele>747.9</ele>
        <time>2022-11-02T12:55:07Z</time>
      </trkpt>
      <trkpt lat="47.88856" lon="6.90065">
        <ele>748.6</ele>
        <time>2022-11-02T12:55:08Z</time>
      </trkpt>
      <trkpt lat="47.88856" lon="6.90066">
        <ele>748.4</ele>
        <time>2022-11-02T12:55:09Z</time>
      </trkpt>
      <trkpt lat="47.88856" lon="6.90067">
        <ele>748.2</ele>
        <time>2022-11-02T12:55:10Z</time>
      </trkpt>
      <trkpt lat="47.88856" lon="6.90069">
        <ele>747.7</ele>
        <time>2022-11-02T12:55:11Z</time>
      </trkpt>
      <trkpt lat="47.88856" lon="6.9007">
        <ele>747.5</ele>
        <time>2022-11-02T12:55:12Z</time>
      </trkpt>
      <trkpt lat="47.88856" lon="6.90071">
        <ele>747.3</ele>
        <time>2022-11-02T12:55:13Z</time>
      </trkpt>
      <trkpt lat="47.88856" lon="6.90072">
        <ele>747</ele>
        <time>2022-11-02T12:55:14Z</time>
      </trkpt>
      <trkpt lat="47.88856" lon="6.90073">
        <ele>746.8</ele>
        <time>2022-11-02T12:55:15Z</time>
      </trkpt>
      <trkpt lat="47.88857" lon="6.90074">
        <ele>745.5</ele>
        <time>2022-11-02T12:55:16Z</time>
      </trkpt>
      <trkpt lat="47.88857" lon="6.90075">
        <ele>745.3</ele>
        <time>2022-11-02T12:55:17Z</time>
      </trkpt>
      <trkpt lat="47.88858" lon="6.90076">
        <ele>744</ele>
        <time>2022-11-02T12:55:18Z</time>
      </trkpt>
      <trkpt lat="47.88858" lon="6.90077">
        <ele>743.8</ele>
        <time>2022-11-02T12:55:19Z</time>
      </trkpt>
      <trkpt lat="47.88859" lon="6.90078">
        <ele>742.4</ele>
        <time>2022-11-02T12:55:20Z</time>
      </trkpt>
      <trkpt lat="47.88859" lon="6.9008">
        <ele>742</ele>
        <time>2022-11-02T12:55:21Z</time>
      </trkpt>
      <trkpt lat="47.8886" lon="6.90081">
        <ele>740.7</ele>
        <time>2022-11-02T12:55:22Z</time>
      </trkpt>
      <trkpt lat="47.8886" lon="6.90083">
        <ele>740.3</ele>
        <time>2022-11-02T12:55:23Z</time>
      </trkpt>
      <trkpt lat="47.8886" lon="6.90085">
        <ele>739.7</ele>
        <time>2022-11-02T12:55:49Z</time>
      </trkpt>
      <trkpt lat="47.8886" lon="6.90086">
        <ele>739.4</ele>
        <time>2022-11-02T12:55:50Z</time>
      </trkpt>
      <trkpt lat="47.8886" lon="6.90087">
        <ele>739.1</ele>
        <time>2022-11-02T12:55:51Z</time>
      </trkpt>
      <trkpt lat="47.8886" lon="6.90088">
        <ele>738.8</ele>
        <time>2022-11-02T12:55:52Z</time>
      </trkpt>
      <trkpt lat="47.8886" lon="6.90089">
        <ele>738.6</ele>
        <time>2022-11-02T12:55:53Z</time>
      </trkpt>
      <trkpt lat="47.8886" lon="6.90091">
        <ele>738</ele>
        <time>2022-11-02T12:55:54Z</time>
      </trkpt>
      <trkpt lat="47.8886" lon="6.90093">
        <ele>737.4</ele>
        <time>2022-11-02T12:55:55Z</time>
      </trkpt>
      <trkpt lat="47.88861" lon="6.90094">
        <ele>736</ele>
        <time>2022-11-02T12:55:56Z</time>
      </trkpt>
      <trkpt lat="47.88861" lon="6.90096">
        <ele>735.5</ele>
        <time>2022-11-02T12:55:57Z</time>
      </trkpt>
      <trkpt lat="47.88861" lon="6.90097">
        <ele>735.2</ele>
        <time>2022-11-02T12:55:58Z</time>
      </trkpt>
      <trkpt lat="47.88861" lon="6.90099">
        <ele>734.6</ele>
        <time>2022-11-02T12:55:59Z</time>
      </trkpt>
      <trkpt lat="47.88862" lon="6.901">
        <ele>733.5</ele>
        <time>2022-11-02T12:56:00Z</time>
      </trkpt>
      <trkpt lat="47.88862" lon="6.90102">
        <ele>733</ele>
        <time>2022-11-02T12:56:01Z</time>
      </trkpt>
      <trkpt lat="47.88863" lon="6.90103">
        <ele>731.9</ele>
        <time>2022-11-02T12:56:02Z</time>
      </trkpt>
      <trkpt lat="47.88863" lon="6.90105">
        <ele>731.4</ele>
        <time>2022-11-02T12:56:03Z</time>
      </trkpt>
      <trkpt lat="47.88863" lon="6.90107">
        <ele>730.8</ele>
        <time>2022-11-02T12:56:04Z</time>
      </trkpt>
      <trkpt lat="47.88863" lon="6.90108">
        <ele>730.6</ele>
        <time>2022-11-02T12:56:05Z</time>
      </trkpt>
      <trkpt lat="47.88863" lon="6.90109">
        <ele>730.3</ele>
        <time>2022-11-02T12:56:06Z</time>
      </trkpt>
      <trkpt lat="47.88862" lon="6.90111">
        <ele>730.4</ele>
        <time>2022-11-02T12:56:07Z</time>
      </trkpt>
      <trkpt lat="47.88862" lon="6.90112">
        <ele>730.1</ele>
        <time>2022-11-02T12:56:08Z</time>
      </trkpt>
      <trkpt lat="47.88861" lon="6.90113">
        <ele>730.6</ele>
        <time>2022-11-02T12:56:09Z</time>
      </trkpt>
      <trkpt lat="47.88861" lon="6.90114">
        <ele>730.3</ele>
        <time>2022-11-02T12:56:10Z</time>
      </trkpt>
      <trkpt lat="47.8886" lon="6.90115">
        <ele>731</ele>
        <time>2022-11-02T12:56:11Z</time>
      </trkpt>
      <trkpt lat="47.8886" lon="6.90117">
        <ele>730.4</ele>
        <time>2022-11-02T12:56:12Z</time>
      </trkpt>
      <trkpt lat="47.88859" lon="6.90118">
        <ele>731.2</ele>
        <time>2022-11-02T12:56:13Z</time>
      </trkpt>
      <trkpt lat="47.88858" lon="6.90119">
        <ele>731.9</ele>
        <time>2022-11-02T12:56:14Z</time>
      </trkpt>
      <trkpt lat="47.88858" lon="6.9012">
        <ele>731.6</ele>
        <time>2022-11-02T12:56:15Z</time>
      </trkpt>
      <trkpt lat="47.88856" lon="6.90121">
        <ele>733.3</ele>
        <time>2022-11-02T12:56:16Z</time>
      </trkpt>
      <trkpt lat="47.88855" lon="6.90122">
        <ele>734</ele>
        <time>2022-11-02T12:56:17Z</time>
      </trkpt>
      <trkpt lat="47.88854" lon="6.90124">
        <ele>734.4</ele>
        <time>2022-11-02T12:56:18Z</time>
      </trkpt>
      <trkpt lat="47.88853" lon="6.90125">
        <ele>735</ele>
        <time>2022-11-02T12:56:19Z</time>
      </trkpt>
      <trkpt lat="47.88852" lon="6.90126">
        <ele>735.7</ele>
        <time>2022-11-02T12:56:20Z</time>
      </trkpt>
      <trkpt lat="47.88851" lon="6.90127">
        <ele>736.4</ele>
        <time>2022-11-02T12:56:21Z</time>
      </trkpt>
      <trkpt lat="47.8885" lon="6.90129">
        <ele>736.7</ele>
        <time>2022-11-02T12:56:22Z</time>
      </trkpt>
      <trkpt lat="47.88849" lon="6.9013">
        <ele>737.3</ele>
        <time>2022-11-02T12:56:23Z</time>
      </trkpt>
      <trkpt lat="47.88848" lon="6.90131">
        <ele>737.9</ele>
        <time>2022-11-02T12:56:24Z</time>
      </trkpt>
      <trkpt lat="47.88847" lon="6.90133">
        <ele>738.2</ele>
        <time>2022-11-02T12:56:25Z</time>
      </trkpt>
      <trkpt lat="47.88846" lon="6.90133">
        <ele>739.2</ele>
        <time>2022-11-02T12:56:26Z</time>
      </trkpt>
      <trkpt lat="47.88846" lon="6.90134">
        <ele>738.8</ele>
        <time>2022-11-02T12:56:28Z</time>
      </trkpt>
      <trkpt lat="47.88845" lon="6.90135">
        <ele>739.4</ele>
        <time>2022-11-02T12:56:29Z</time>
      </trkpt>
      <trkpt lat="47.88844" lon="6.90136">
        <ele>740</ele>
        <time>2022-11-02T12:56:30Z</time>
      </trkpt>
      <trkpt lat="47.88843" lon="6.90137">
        <ele>740.6</ele>
        <time>2022-11-02T12:56:31Z</time>
      </trkpt>
      <trkpt lat="47.88842" lon="6.90138">
        <ele>741.2</ele>
        <time>2022-11-02T12:56:32Z</time>
      </trkpt>
      <trkpt lat="47.88841" lon="6.9014">
        <ele>741.5</ele>
        <time>2022-11-02T12:56:33Z</time>
      </trkpt>
      <trkpt lat="47.8884" lon="6.90141">
        <ele>742.1</ele>
        <time>2022-11-02T12:56:34Z</time>
      </trkpt>
      <trkpt lat="47.88838" lon="6.90143">
        <ele>743.3</ele>
        <time>2022-11-02T12:56:35Z</time>
      </trkpt>
      <trkpt lat="47.88837" lon="6.90144">
        <ele>743.9</ele>
        <time>2022-11-02T12:56:36Z</time>
      </trkpt>
      <trkpt lat="47.88836" lon="6.90146">
        <ele>744.2</ele>
        <time>2022-11-02T12:56:37Z</time>
      </trkpt>
      <trkpt lat="47.88834" lon="6.90147">
        <ele>745.7</ele>
        <time>2022-11-02T12:56:38Z</time>
      </trkpt>
      <trkpt lat="47.88833" lon="6.90148">
        <ele>746.2</ele>
        <time>2022-11-02T12:56:39Z</time>
      </trkpt>
      <trkpt lat="47.88832" lon="6.90148">
        <ele>746.7</ele>
        <time>2022-11-02T12:56:40Z</time>
      </trkpt>
      <trkpt lat="47.88831" lon="6.90149">
        <ele>746.9</ele>
        <time>2022-11-02T12:56:41Z</time>
      </trkpt>
      <trkpt lat="47.8883" lon="6.9015">
        <ele>747.1</ele>
        <time>2022-11-02T12:56:42Z</time>
      </trkpt>
      <trkpt lat="47.88829" lon="6.90151">
        <ele>747.3</ele>
        <time>2022-11-02T12:56:43Z</time>
      </trkpt>
      <trkpt lat="47.88829" lon="6.90152">
        <ele>747</ele>
        <time>2022-11-02T12:56:44Z</time>
      </trkpt>
      <trkpt lat="47.88828" lon="6.90153">
        <ele>747.2</ele>
        <time>2022-11-02T12:56:45Z</time>
      </trkpt>
      <trkpt lat="47.88827" lon="6.90154">
        <ele>747.4</ele>
        <time>2022-11-02T12:56:46Z</time>
      </trkpt>
      <trkpt lat="47.88826" lon="6.90155">
        <ele>747.6</ele>
        <time>2022-11-02T12:56:47Z</time>
      </trkpt>
      <trkpt lat="47.88826" lon="6.90156">
        <ele>747.3</ele>
        <time>2022-11-02T12:56:49Z</time>
      </trkpt>
      <trkpt lat="47.88825" lon="6.90156">
        <ele>747.8</ele>
        <time>2022-11-02T12:56:50Z</time>
      </trkpt>
      <trkpt lat="47.88825" lon="6.90157">
        <ele>747.5</ele>
        <time>2022-11-02T12:56:51Z</time>
      </trkpt>
      <trkpt lat="47.88824" lon="6.90158">
        <ele>747.7</ele>
        <time>2022-11-02T12:56:53Z</time>
      </trkpt>
      <trkpt lat="47.88823" lon="6.9016">
        <ele>747.7</ele>
        <time>2022-11-02T12:56:54Z</time>
      </trkpt>
      <trkpt lat="47.88821" lon="6.90161">
        <ele>748.4</ele>
        <time>2022-11-02T12:56:55Z</time>
      </trkpt>
      <trkpt lat="47.8882" lon="6.90163">
        <ele>748.3</ele>
        <time>2022-11-02T12:56:56Z</time>
      </trkpt>
      <trkpt lat="47.88819" lon="6.90164">
        <ele>748.6</ele>
        <time>2022-11-02T12:56:57Z</time>
      </trkpt>
      <trkpt lat="47.88817" lon="6.90166">
        <ele>749</ele>
        <time>2022-11-02T12:56:58Z</time>
      </trkpt>
      <trkpt lat="47.88816" lon="6.90167">
        <ele>749.3</ele>
        <time>2022-11-02T12:56:59Z</time>
      </trkpt>
      <trkpt lat="47.88815" lon="6.90169">
        <ele>749.2</ele>
        <time>2022-11-02T12:57:00Z</time>
      </trkpt>
      <trkpt lat="47.88815" lon="6.90172">
        <ele>748.4</ele>
        <time>2022-11-02T12:57:01Z</time>
      </trkpt>
      <trkpt lat="47.88814" lon="6.90174">
        <ele>748.4</ele>
        <time>2022-11-02T12:57:02Z</time>
      </trkpt>
      <trkpt lat="47.88814" lon="6.90175">
        <ele>748.1</ele>
        <time>2022-11-02T12:57:03Z</time>
      </trkpt>
      <trkpt lat="47.88813" lon="6.90176">
        <ele>748.4</ele>
        <time>2022-11-02T12:57:04Z</time>
      </trkpt>
      <trkpt lat="47.88813" lon="6.90177">
        <ele>748.1</ele>
        <time>2022-11-02T12:57:05Z</time>
      </trkpt>
      <trkpt lat="47.88813" lon="6.90178">
        <ele>747.8</ele>
        <time>2022-11-02T12:57:06Z</time>
      </trkpt>
      <trkpt lat="47.88812" lon="6.90179">
        <ele>748.1</ele>
        <time>2022-11-02T12:57:07Z</time>
      </trkpt>
      <trkpt lat="47.88812" lon="6.9018">
        <ele>747.8</ele>
        <time>2022-11-02T12:57:08Z</time>
      </trkpt>
      <trkpt lat="47.88812" lon="6.90181">
        <ele>747.5</ele>
        <time>2022-11-02T12:57:10Z</time>
      </trkpt>
      <trkpt lat="47.88812" lon="6.90182">
        <ele>747.3</ele>
        <time>2022-11-02T12:57:11Z</time>
      </trkpt>
      <trkpt lat="47.88811" lon="6.90183">
        <ele>747.6</ele>
        <time>2022-11-02T12:57:12Z</time>
      </trkpt>
      <trkpt lat="47.88811" lon="6.90184">
        <ele>747.3</ele>
        <time>2022-11-02T12:57:13Z</time>
      </trkpt>
      <trkpt lat="47.8881" lon="6.90185">
        <ele>747.7</ele>
        <time>2022-11-02T12:57:14Z</time>
      </trkpt>
      <trkpt lat="47.88809" lon="6.90186">
        <ele>748</ele>
        <time>2022-11-02T12:57:16Z</time>
      </trkpt>
      <trkpt lat="47.88809" lon="6.90187">
        <ele>747.7</ele>
        <time>2022-11-02T12:57:17Z</time>
      </trkpt>
      <trkpt lat="47.88808" lon="6.90188">
        <ele>748.1</ele>
        <time>2022-11-02T12:57:18Z</time>
      </trkpt>
      <trkpt lat="47.88808" lon="6.90189">
        <ele>747.8</ele>
        <time>2022-11-02T12:57:19Z</time>
      </trkpt>
      <trkpt lat="47.88807" lon="6.9019">
        <ele>748.2</ele>
        <time>2022-11-02T12:57:20Z</time>
      </trkpt>
      <trkpt lat="47.88806" lon="6.90192">
        <ele>748.3</ele>
        <time>2022-11-02T12:57:21Z</time>
      </trkpt>
      <trkpt lat="47.88806" lon="6.90193">
        <ele>748.1</ele>
        <time>2022-11-02T12:57:22Z</time>
      </trkpt>
      <trkpt lat="47.88805" lon="6.90195">
        <ele>748.1</ele>
        <time>2022-11-02T12:57:23Z</time>
      </trkpt>
      <trkpt lat="47.88805" lon="6.90197">
        <ele>747.6</ele>
        <time>2022-11-02T12:57:24Z</time>
      </trkpt>
      <trkpt lat="47.88805" lon="6.90198">
        <ele>747.4</ele>
        <time>2022-11-02T12:57:25Z</time>
      </trkpt>
      <trkpt lat="47.88805" lon="6.90199">
        <ele>747.1</ele>
        <time>2022-11-02T12:57:26Z</time>
      </trkpt>
      <trkpt lat="47.88805" lon="6.90201">
        <ele>746.6</ele>
        <time>2022-11-02T12:57:27Z</time>
      </trkpt>
      <trkpt lat="47.88805" lon="6.90202">
        <ele>746.4</ele>
        <time>2022-11-02T12:57:28Z</time>
      </trkpt>
      <trkpt lat="47.88805" lon="6.90203">
        <ele>746.1</ele>
        <time>2022-11-02T12:57:29Z</time>
      </trkpt>
      <trkpt lat="47.88805" lon="6.90204">
        <ele>745.9</ele>
        <time>2022-11-02T12:57:31Z</time>
      </trkpt>
      <trkpt lat="47.88806" lon="6.90205">
        <ele>745.1</ele>
        <time>2022-11-02T12:57:32Z</time>
      </trkpt>
      <trkpt lat="47.88805" lon="6.90206">
        <ele>745.4</ele>
        <time>2022-11-02T12:57:33Z</time>
      </trkpt>
      <trkpt lat="47.88804" lon="6.90207">
        <ele>745.6</ele>
        <time>2022-11-02T12:57:35Z</time>
      </trkpt>
      <trkpt lat="47.88804" lon="6.90208">
        <ele>745.4</ele>
        <time>2022-11-02T12:57:36Z</time>
      </trkpt>
      <trkpt lat="47.88803" lon="6.90209">
        <ele>745.7</ele>
        <time>2022-11-02T12:57:37Z</time>
      </trkpt>
      <trkpt lat="47.88803" lon="6.9021">
        <ele>745.4</ele>
        <time>2022-11-02T12:57:38Z</time>
      </trkpt>
      <trkpt lat="47.88802" lon="6.90211">
        <ele>745.7</ele>
        <time>2022-11-02T12:57:39Z</time>
      </trkpt>
      <trkpt lat="47.88802" lon="6.90212">
        <ele>745.4</ele>
        <time>2022-11-02T12:57:40Z</time>
      </trkpt>
      <trkpt lat="47.88801" lon="6.90213">
        <ele>745.7</ele>
        <time>2022-11-02T12:57:41Z</time>
      </trkpt>
      <trkpt lat="47.888" lon="6.90214">
        <ele>746</ele>
        <time>2022-11-02T12:57:42Z</time>
      </trkpt>
      <trkpt lat="47.88799" lon="6.90215">
        <ele>746.3</ele>
        <time>2022-11-02T12:57:43Z</time>
      </trkpt>
      <trkpt lat="47.88797" lon="6.90217">
        <ele>746.9</ele>
        <time>2022-11-02T12:57:44Z</time>
      </trkpt>
      <trkpt lat="47.88796" lon="6.90218">
        <ele>747.2</ele>
        <time>2022-11-02T12:57:45Z</time>
      </trkpt>
      <trkpt lat="47.88796" lon="6.90219">
        <ele>746.9</ele>
        <time>2022-11-02T12:57:46Z</time>
      </trkpt>
      <trkpt lat="47.88795" lon="6.90219">
        <ele>747.5</ele>
        <time>2022-11-02T12:57:47Z</time>
      </trkpt>
      <trkpt lat="47.88795" lon="6.9022">
        <ele>747.2</ele>
        <time>2022-11-02T12:57:48Z</time>
      </trkpt>
      <trkpt lat="47.88794" lon="6.90221">
        <ele>747.5</ele>
        <time>2022-11-02T12:57:49Z</time>
      </trkpt>
      <trkpt lat="47.88793" lon="6.90221">
        <ele>748.1</ele>
        <time>2022-11-02T12:57:50Z</time>
      </trkpt>
      <trkpt lat="47.88792" lon="6.90222">
        <ele>748.4</ele>
        <time>2022-11-02T12:57:51Z</time>
      </trkpt>
      <trkpt lat="47.88791" lon="6.90223">
        <ele>748.7</ele>
        <time>2022-11-02T12:57:52Z</time>
      </trkpt>
      <trkpt lat="47.88789" lon="6.90225">
        <ele>749.5</ele>
        <time>2022-11-02T12:58:02Z</time>
      </trkpt>
      <trkpt lat="47.88788" lon="6.90226">
        <ele>749.8</ele>
        <time>2022-11-02T12:58:03Z</time>
      </trkpt>
      <trkpt lat="47.88786" lon="6.90227">
        <ele>750.8</ele>
        <time>2022-11-02T12:58:04Z</time>
      </trkpt>
      <trkpt lat="47.8878" lon="6.90231">
        <ele>753.9</ele>
      </trkpt>
      <trkpt lat="47.88773" lon="6.90236">
        <ele>757.1</ele>
      </trkpt>
      <trkpt lat="47.88768" lon="6.90252">
        <ele>757.9</ele>
      </trkpt>
      <trkpt lat="47.88768" lon="6.90248">
        <ele>758.2</ele>
        <time>2022-11-02T13:03:52Z</time>
      </trkpt>
      <trkpt lat="47.88767" lon="6.90251">
        <ele>758.5</ele>
        <time>2022-11-02T13:03:59Z</time>
      </trkpt>
      <trkpt lat="47.88767" lon="6.90252">
        <ele>758.4</ele>
        <time>2022-11-02T13:04:00Z</time>
      </trkpt>
      <trkpt lat="47.88767" lon="6.90253">
        <ele>758.3</ele>
        <time>2022-11-02T13:04:01Z</time>
      </trkpt>
      <trkpt lat="47.88767" lon="6.90254">
        <ele>758.2</ele>
        <time>2022-11-02T13:04:02Z</time>
      </trkpt>
      <trkpt lat="47.88767" lon="6.90255">
        <ele>758.1</ele>
        <time>2022-11-02T13:04:03Z</time>
      </trkpt>
      <trkpt lat="47.88767" lon="6.90259">
        <ele>757.7</ele>
        <time>2022-11-02T13:04:13Z</time>
      </trkpt>
      <trkpt lat="47.88767" lon="6.9026">
        <ele>757.7</ele>
        <time>2022-11-02T13:04:14Z</time>
      </trkpt>
      <trkpt lat="47.88767" lon="6.90262">
        <ele>757.5</ele>
        <time>2022-11-02T13:04:15Z</time>
      </trkpt>
      <trkpt lat="47.88767" lon="6.90263">
        <ele>757.4</ele>
        <time>2022-11-02T13:04:16Z</time>
      </trkpt>
      <trkpt lat="47.88767" lon="6.90264">
        <ele>757.3</ele>
        <time>2022-11-02T13:04:17Z</time>
      </trkpt>
      <trkpt lat="47.88767" lon="6.90266">
        <ele>757.1</ele>
        <time>2022-11-02T13:04:18Z</time>
      </trkpt>
      <trkpt lat="47.88768" lon="6.90267">
        <ele>756.4</ele>
        <time>2022-11-02T13:04:19Z</time>
      </trkpt>
      <trkpt lat="47.88768" lon="6.90268">
        <ele>756.3</ele>
        <time>2022-11-02T13:04:20Z</time>
      </trkpt>
      <trkpt lat="47.88768" lon="6.90269">
        <ele>756.2</ele>
        <time>2022-11-02T13:04:21Z</time>
      </trkpt>
      <trkpt lat="47.88768" lon="6.90271">
        <ele>756</ele>
        <time>2022-11-02T13:04:22Z</time>
      </trkpt>
      <trkpt lat="47.88768" lon="6.90272">
        <ele>755.9</ele>
        <time>2022-11-02T13:04:23Z</time>
      </trkpt>
      <trkpt lat="47.88768" lon="6.90274">
        <ele>755.7</ele>
        <time>2022-11-02T13:04:24Z</time>
      </trkpt>
      <trkpt lat="47.88767" lon="6.90275">
        <ele>756.2</ele>
        <time>2022-11-02T13:04:25Z</time>
      </trkpt>
      <trkpt lat="47.88766" lon="6.90276">
        <ele>756.8</ele>
        <time>2022-11-02T13:04:26Z</time>
      </trkpt>
      <trkpt lat="47.88765" lon="6.90277">
        <ele>757.4</ele>
        <time>2022-11-02T13:04:28Z</time>
      </trkpt>
      <trkpt lat="47.88764" lon="6.90278">
        <ele>757.9</ele>
        <time>2022-11-02T13:04:29Z</time>
      </trkpt>
      <trkpt lat="47.88763" lon="6.90278">
        <ele>758.6</ele>
        <time>2022-11-02T13:04:30Z</time>
      </trkpt>
      <trkpt lat="47.88762" lon="6.90278">
        <ele>759.2</ele>
        <time>2022-11-02T13:04:31Z</time>
      </trkpt>
      <trkpt lat="47.88761" lon="6.90278">
        <ele>759.9</ele>
        <time>2022-11-02T13:04:32Z</time>
      </trkpt>
      <trkpt lat="47.8876" lon="6.90278">
        <ele>760.5</ele>
        <time>2022-11-02T13:04:33Z</time>
      </trkpt>
      <trkpt lat="47.88759" lon="6.90279">
        <ele>761.1</ele>
        <time>2022-11-02T13:04:34Z</time>
      </trkpt>
      <trkpt lat="47.88758" lon="6.9028">
        <ele>761.7</ele>
        <time>2022-11-02T13:04:36Z</time>
      </trkpt>
      <trkpt lat="47.88757" lon="6.90281">
        <ele>762.2</ele>
        <time>2022-11-02T13:04:45Z</time>
      </trkpt>
      <trkpt lat="47.88757" lon="6.90282">
        <ele>762.2</ele>
        <time>2022-11-02T13:04:46Z</time>
      </trkpt>
      <trkpt lat="47.88756" lon="6.90282">
        <ele>762.8</ele>
        <time>2022-11-02T13:04:47Z</time>
      </trkpt>
      <trkpt lat="47.88756" lon="6.90283">
        <ele>762.7</ele>
        <time>2022-11-02T13:04:48Z</time>
      </trkpt>
      <trkpt lat="47.88755" lon="6.90284">
        <ele>763.3</ele>
        <time>2022-11-02T13:04:49Z</time>
      </trkpt>
      <trkpt lat="47.88755" lon="6.90285">
        <ele>763.2</ele>
        <time>2022-11-02T13:04:50Z</time>
      </trkpt>
      <trkpt lat="47.88755" lon="6.90286">
        <ele>763.2</ele>
        <time>2022-11-02T13:04:51Z</time>
      </trkpt>
      <trkpt lat="47.88755" lon="6.90287">
        <ele>763.1</ele>
        <time>2022-11-02T13:04:52Z</time>
      </trkpt>
      <trkpt lat="47.88754" lon="6.90288">
        <ele>763.7</ele>
        <time>2022-11-02T13:04:53Z</time>
      </trkpt>
      <trkpt lat="47.88754" lon="6.9029">
        <ele>763.5</ele>
        <time>2022-11-02T13:04:54Z</time>
      </trkpt>
      <trkpt lat="47.88754" lon="6.90291">
        <ele>763.5</ele>
        <time>2022-11-02T13:04:55Z</time>
      </trkpt>
      <trkpt lat="47.88754" lon="6.90293">
        <ele>763.3</ele>
        <time>2022-11-02T13:04:56Z</time>
      </trkpt>
      <trkpt lat="47.88754" lon="6.90295">
        <ele>763.2</ele>
        <time>2022-11-02T13:04:57Z</time>
      </trkpt>
      <trkpt lat="47.88755" lon="6.90297">
        <ele>762.4</ele>
        <time>2022-11-02T13:04:58Z</time>
      </trkpt>
      <trkpt lat="47.88755" lon="6.90298">
        <ele>762.3</ele>
        <time>2022-11-02T13:04:59Z</time>
      </trkpt>
      <trkpt lat="47.88755" lon="6.90301">
        <ele>762.1</ele>
        <time>2022-11-02T13:05:00Z</time>
      </trkpt>
      <trkpt lat="47.88755" lon="6.90303">
        <ele>761.9</ele>
        <time>2022-11-02T13:05:01Z</time>
      </trkpt>
      <trkpt lat="47.88755" lon="6.90304">
        <ele>761.9</ele>
        <time>2022-11-02T13:05:02Z</time>
      </trkpt>
      <trkpt lat="47.88755" lon="6.90306">
        <ele>761.7</ele>
        <time>2022-11-02T13:05:03Z</time>
      </trkpt>
      <trkpt lat="47.88755" lon="6.90307">
        <ele>761.7</ele>
        <time>2022-11-02T13:05:04Z</time>
      </trkpt>
      <trkpt lat="47.88755" lon="6.90309">
        <ele>761.6</ele>
        <time>2022-11-02T13:05:05Z</time>
      </trkpt>
      <trkpt lat="47.88754" lon="6.9031">
        <ele>762.2</ele>
        <time>2022-11-02T13:05:06Z</time>
      </trkpt>
      <trkpt lat="47.88754" lon="6.90312">
        <ele>762.1</ele>
        <time>2022-11-02T13:05:07Z</time>
      </trkpt>
      <trkpt lat="47.88754" lon="6.90313">
        <ele>762.1</ele>
        <time>2022-11-02T13:05:08Z</time>
      </trkpt>
      <trkpt lat="47.88753" lon="6.90315">
        <ele>762.7</ele>
        <time>2022-11-02T13:05:09Z</time>
      </trkpt>
      <trkpt lat="47.88753" lon="6.90316">
        <ele>762.6</ele>
        <time>2022-11-02T13:05:10Z</time>
      </trkpt>
      <trkpt lat="47.88753" lon="6.90317">
        <ele>762.6</ele>
        <time>2022-11-02T13:05:11Z</time>
      </trkpt>
      <trkpt lat="47.88752" lon="6.90319">
        <ele>763.2</ele>
        <time>2022-11-02T13:05:12Z</time>
      </trkpt>
      <trkpt lat="47.88752" lon="6.9032">
        <ele>763.1</ele>
        <time>2022-11-02T13:05:13Z</time>
      </trkpt>
      <trkpt lat="47.88752" lon="6.90321">
        <ele>763.1</ele>
        <time>2022-11-02T13:05:14Z</time>
      </trkpt>
      <trkpt lat="47.88751" lon="6.90323">
        <ele>763.7</ele>
        <time>2022-11-02T13:05:15Z</time>
      </trkpt>
      <trkpt lat="47.88751" lon="6.90324">
        <ele>763.7</ele>
        <time>2022-11-02T13:05:16Z</time>
      </trkpt>
      <trkpt lat="47.88751" lon="6.90326">
        <ele>763.6</ele>
        <time>2022-11-02T13:05:17Z</time>
      </trkpt>
      <trkpt lat="47.8875" lon="6.90327">
        <ele>764.2</ele>
        <time>2022-11-02T13:05:18Z</time>
      </trkpt>
      <trkpt lat="47.8875" lon="6.90329">
        <ele>764.2</ele>
        <time>2022-11-02T13:05:19Z</time>
      </trkpt>
      <trkpt lat="47.88749" lon="6.9033">
        <ele>764.9</ele>
        <time>2022-11-02T13:05:20Z</time>
      </trkpt>
      <trkpt lat="47.88748" lon="6.90332">
        <ele>765.6</ele>
        <time>2022-11-02T13:05:21Z</time>
      </trkpt>
      <trkpt lat="47.88747" lon="6.90333">
        <ele>766.3</ele>
        <time>2022-11-02T13:05:22Z</time>
      </trkpt>
      <trkpt lat="47.88746" lon="6.90335">
        <ele>766.8</ele>
        <time>2022-11-02T13:05:23Z</time>
      </trkpt>
      <trkpt lat="47.88745" lon="6.90336">
        <ele>767.4</ele>
        <time>2022-11-02T13:05:24Z</time>
      </trkpt>
      <trkpt lat="47.88745" lon="6.90337">
        <ele>767.3</ele>
        <time>2022-11-02T13:05:25Z</time>
      </trkpt>
      <trkpt lat="47.88744" lon="6.90339">
        <ele>767.7</ele>
        <time>2022-11-02T13:05:26Z</time>
      </trkpt>
      <trkpt lat="47.88744" lon="6.9034">
        <ele>767.6</ele>
        <time>2022-11-02T13:05:27Z</time>
      </trkpt>
      <trkpt lat="47.88744" lon="6.90342">
        <ele>767.3</ele>
        <time>2022-11-02T13:05:28Z</time>
      </trkpt>
      <trkpt lat="47.88744" lon="6.90343">
        <ele>767.1</ele>
        <time>2022-11-02T13:05:29Z</time>
      </trkpt>
      <trkpt lat="47.88744" lon="6.90344">
        <ele>767</ele>
        <time>2022-11-02T13:05:30Z</time>
      </trkpt>
      <trkpt lat="47.88744" lon="6.90346">
        <ele>766.7</ele>
        <time>2022-11-02T13:05:31Z</time>
      </trkpt>
      <trkpt lat="47.88743" lon="6.90347">
        <ele>767.3</ele>
        <time>2022-11-02T13:05:32Z</time>
      </trkpt>
      <trkpt lat="47.88743" lon="6.90348">
        <ele>767.2</ele>
        <time>2022-11-02T13:05:33Z</time>
      </trkpt>
      <trkpt lat="47.88742" lon="6.90349">
        <ele>767.8</ele>
        <time>2022-11-02T13:05:34Z</time>
      </trkpt>
      <trkpt lat="47.88741" lon="6.9035">
        <ele>768.4</ele>
        <time>2022-11-02T13:05:35Z</time>
      </trkpt>
      <trkpt lat="47.88741" lon="6.90351">
        <ele>768.3</ele>
        <time>2022-11-02T13:05:36Z</time>
      </trkpt>
      <trkpt lat="47.88741" lon="6.90353">
        <ele>768</ele>
        <time>2022-11-02T13:05:37Z</time>
      </trkpt>
      <trkpt lat="47.88741" lon="6.90354">
        <ele>767.8</ele>
        <time>2022-11-02T13:05:38Z</time>
      </trkpt>
      <trkpt lat="47.88741" lon="6.90356">
        <ele>767.5</ele>
        <time>2022-11-02T13:05:39Z</time>
      </trkpt>
      <trkpt lat="47.88741" lon="6.90358">
        <ele>767.3</ele>
        <time>2022-11-02T13:05:40Z</time>
      </trkpt>
      <trkpt lat="47.88742" lon="6.90359">
        <ele>766.4</ele>
        <time>2022-11-02T13:05:41Z</time>
      </trkpt>
      <trkpt lat="47.88742" lon="6.90361">
        <ele>766.1</ele>
        <time>2022-11-02T13:05:42Z</time>
      </trkpt>
      <trkpt lat="47.88742" lon="6.90363">
        <ele>765.7</ele>
        <time>2022-11-02T13:05:43Z</time>
      </trkpt>
      <trkpt lat="47.88743" lon="6.90364">
        <ele>764.8</ele>
        <time>2022-11-02T13:05:44Z</time>
      </trkpt>
      <trkpt lat="47.88744" lon="6.90366">
        <ele>763.7</ele>
        <time>2022-11-02T13:05:45Z</time>
      </trkpt>
      <trkpt lat="47.88744" lon="6.90367">
        <ele>763.5</ele>
        <time>2022-11-02T13:05:46Z</time>
      </trkpt>
      <trkpt lat="47.88744" lon="6.90368">
        <ele>763.3</ele>
        <time>2022-11-02T13:05:47Z</time>
      </trkpt>
      <trkpt lat="47.88744" lon="6.90369">
        <ele>763.1</ele>
        <time>2022-11-02T13:05:48Z</time>
      </trkpt>
      <trkpt lat="47.88744" lon="6.9037">
        <ele>762.9</ele>
        <time>2022-11-02T13:05:49Z</time>
      </trkpt>
      <trkpt lat="47.88743" lon="6.90372">
        <ele>763.3</ele>
        <time>2022-11-02T13:05:50Z</time>
      </trkpt>
      <trkpt lat="47.88743" lon="6.90373">
        <ele>763.2</ele>
        <time>2022-11-02T13:05:51Z</time>
      </trkpt>
      <trkpt lat="47.88742" lon="6.90374">
        <ele>763.7</ele>
        <time>2022-11-02T13:05:52Z</time>
      </trkpt>
      <trkpt lat="47.88742" lon="6.90375">
        <ele>763.5</ele>
        <time>2022-11-02T13:05:53Z</time>
      </trkpt>
      <trkpt lat="47.88741" lon="6.90377">
        <ele>763.9</ele>
        <time>2022-11-02T13:05:54Z</time>
      </trkpt>
      <trkpt lat="47.88741" lon="6.90378">
        <ele>763.8</ele>
        <time>2022-11-02T13:05:55Z</time>
      </trkpt>
      <trkpt lat="47.88741" lon="6.9038">
        <ele>763.4</ele>
        <time>2022-11-02T13:05:56Z</time>
      </trkpt>
      <trkpt lat="47.88741" lon="6.90382">
        <ele>763</ele>
        <time>2022-11-02T13:05:57Z</time>
      </trkpt>
      <trkpt lat="47.88741" lon="6.90384">
        <ele>762.7</ele>
        <time>2022-11-02T13:05:58Z</time>
      </trkpt>
      <trkpt lat="47.8874" lon="6.90386">
        <ele>763.1</ele>
        <time>2022-11-02T13:05:59Z</time>
      </trkpt>
      <trkpt lat="47.8874" lon="6.90388">
        <ele>762.7</ele>
        <time>2022-11-02T13:06:00Z</time>
      </trkpt>
      <trkpt lat="47.8874" lon="6.9039">
        <ele>762.4</ele>
        <time>2022-11-02T13:06:01Z</time>
      </trkpt>
      <trkpt lat="47.8874" lon="6.90391">
        <ele>762.3</ele>
        <time>2022-11-02T13:06:02Z</time>
      </trkpt>
      <trkpt lat="47.88739" lon="6.90393">
        <ele>762.8</ele>
        <time>2022-11-02T13:06:03Z</time>
      </trkpt>
      <trkpt lat="47.88739" lon="6.90394">
        <ele>762.7</ele>
        <time>2022-11-02T13:06:04Z</time>
      </trkpt>
      <trkpt lat="47.88739" lon="6.90396">
        <ele>762.4</ele>
        <time>2022-11-02T13:06:05Z</time>
      </trkpt>
      <trkpt lat="47.88739" lon="6.90397">
        <ele>762.3</ele>
        <time>2022-11-02T13:06:06Z</time>
      </trkpt>
      <trkpt lat="47.88739" lon="6.90399">
        <ele>762.1</ele>
        <time>2022-11-02T13:06:07Z</time>
      </trkpt>
      <trkpt lat="47.88739" lon="6.904">
        <ele>762</ele>
        <time>2022-11-02T13:06:08Z</time>
      </trkpt>
      <trkpt lat="47.88738" lon="6.90401">
        <ele>762.6</ele>
        <time>2022-11-02T13:06:09Z</time>
      </trkpt>
      <trkpt lat="47.88738" lon="6.90403">
        <ele>762.3</ele>
        <time>2022-11-02T13:06:10Z</time>
      </trkpt>
      <trkpt lat="47.88738" lon="6.90404">
        <ele>762.2</ele>
        <time>2022-11-02T13:06:11Z</time>
      </trkpt>
      <trkpt lat="47.88738" lon="6.90406">
        <ele>762</ele>
        <time>2022-11-02T13:06:12Z</time>
      </trkpt>
      <trkpt lat="47.88738" lon="6.90408">
        <ele>761.7</ele>
        <time>2022-11-02T13:06:13Z</time>
      </trkpt>
      <trkpt lat="47.88738" lon="6.9041">
        <ele>761.5</ele>
        <time>2022-11-02T13:06:14Z</time>
      </trkpt>
      <trkpt lat="47.88737" lon="6.90411">
        <ele>762.1</ele>
        <time>2022-11-02T13:06:15Z</time>
      </trkpt>
      <trkpt lat="47.88737" lon="6.90413">
        <ele>761.8</ele>
        <time>2022-11-02T13:06:16Z</time>
      </trkpt>
      <trkpt lat="47.88737" lon="6.90414">
        <ele>761.7</ele>
        <time>2022-11-02T13:06:17Z</time>
      </trkpt>
      <trkpt lat="47.88737" lon="6.90415">
        <ele>761.6</ele>
        <time>2022-11-02T13:06:18Z</time>
      </trkpt>
      <trkpt lat="47.88737" lon="6.90417">
        <ele>761.3</ele>
        <time>2022-11-02T13:06:19Z</time>
      </trkpt>
      <trkpt lat="47.88737" lon="6.90418">
        <ele>761.3</ele>
        <time>2022-11-02T13:06:20Z</time>
      </trkpt>
      <trkpt lat="47.88737" lon="6.9042">
        <ele>761.1</ele>
        <time>2022-11-02T13:06:21Z</time>
      </trkpt>
      <trkpt lat="47.88737" lon="6.90422">
        <ele>761</ele>
        <time>2022-11-02T13:06:22Z</time>
      </trkpt>
      <trkpt lat="47.88737" lon="6.90423">
        <ele>760.9</ele>
        <time>2022-11-02T13:06:23Z</time>
      </trkpt>
      <trkpt lat="47.88737" lon="6.90425">
        <ele>760.8</ele>
        <time>2022-11-02T13:06:24Z</time>
      </trkpt>
      <trkpt lat="47.88737" lon="6.90426">
        <ele>760.7</ele>
        <time>2022-11-02T13:06:25Z</time>
      </trkpt>
      <trkpt lat="47.88737" lon="6.90428">
        <ele>760.5</ele>
        <time>2022-11-02T13:06:26Z</time>
      </trkpt>
      <trkpt lat="47.88737" lon="6.90429">
        <ele>760.5</ele>
        <time>2022-11-02T13:06:27Z</time>
      </trkpt>
      <trkpt lat="47.88737" lon="6.90431">
        <ele>760.3</ele>
        <time>2022-11-02T13:06:28Z</time>
      </trkpt>
      <trkpt lat="47.88737" lon="6.90432">
        <ele>760.3</ele>
        <time>2022-11-02T13:06:29Z</time>
      </trkpt>
      <trkpt lat="47.88737" lon="6.90434">
        <ele>760.1</ele>
        <time>2022-11-02T13:06:30Z</time>
      </trkpt>
      <trkpt lat="47.88737" lon="6.90435">
        <ele>760</ele>
        <time>2022-11-02T13:06:31Z</time>
      </trkpt>
      <trkpt lat="47.88737" lon="6.90437">
        <ele>759.9</ele>
        <time>2022-11-02T13:06:32Z</time>
      </trkpt>
      <trkpt lat="47.88737" lon="6.90438">
        <ele>759.8</ele>
        <time>2022-11-02T13:06:33Z</time>
      </trkpt>
      <trkpt lat="47.88736" lon="6.9044">
        <ele>760.4</ele>
        <time>2022-11-02T13:06:34Z</time>
      </trkpt>
      <trkpt lat="47.88736" lon="6.90442">
        <ele>760.3</ele>
        <time>2022-11-02T13:06:35Z</time>
      </trkpt>
      <trkpt lat="47.88736" lon="6.90443">
        <ele>760.2</ele>
        <time>2022-11-02T13:06:36Z</time>
      </trkpt>
      <trkpt lat="47.88736" lon="6.90445">
        <ele>760</ele>
        <time>2022-11-02T13:06:37Z</time>
      </trkpt>
      <trkpt lat="47.88736" lon="6.90447">
        <ele>759.9</ele>
        <time>2022-11-02T13:06:38Z</time>
      </trkpt>
      <trkpt lat="47.88735" lon="6.90448">
        <ele>760.5</ele>
        <time>2022-11-02T13:06:39Z</time>
      </trkpt>
      <trkpt lat="47.88734" lon="6.90449">
        <ele>761.2</ele>
        <time>2022-11-02T13:06:40Z</time>
      </trkpt>
      <trkpt lat="47.88734" lon="6.9045">
        <ele>761.1</ele>
        <time>2022-11-02T13:06:41Z</time>
      </trkpt>
      <trkpt lat="47.88733" lon="6.90452">
        <ele>761.7</ele>
        <time>2022-11-02T13:06:42Z</time>
      </trkpt>
      <trkpt lat="47.88733" lon="6.90453">
        <ele>761.6</ele>
        <time>2022-11-02T13:06:43Z</time>
      </trkpt>
      <trkpt lat="47.88733" lon="6.90454">
        <ele>761.6</ele>
        <time>2022-11-02T13:06:44Z</time>
      </trkpt>
      <trkpt lat="47.88732" lon="6.90456">
        <ele>762.1</ele>
        <time>2022-11-02T13:06:45Z</time>
      </trkpt>
      <trkpt lat="47.88732" lon="6.90458">
        <ele>762</ele>
        <time>2022-11-02T13:06:46Z</time>
      </trkpt>
      <trkpt lat="47.88732" lon="6.9046">
        <ele>761.8</ele>
        <time>2022-11-02T13:06:47Z</time>
      </trkpt>
      <trkpt lat="47.88732" lon="6.90462">
        <ele>761.7</ele>
        <time>2022-11-02T13:06:48Z</time>
      </trkpt>
      <trkpt lat="47.88732" lon="6.90464">
        <ele>761.6</ele>
        <time>2022-11-02T13:06:49Z</time>
      </trkpt>
      <trkpt lat="47.88732" lon="6.90465">
        <ele>761.5</ele>
        <time>2022-11-02T13:06:50Z</time>
      </trkpt>
      <trkpt lat="47.88732" lon="6.90466">
        <ele>761.4</ele>
        <time>2022-11-02T13:06:51Z</time>
      </trkpt>
      <trkpt lat="47.88732" lon="6.90467">
        <ele>761.3</ele>
        <time>2022-11-02T13:06:52Z</time>
      </trkpt>
      <trkpt lat="47.88731" lon="6.90468">
        <ele>762</ele>
        <time>2022-11-02T13:06:53Z</time>
      </trkpt>
      <trkpt lat="47.88731" lon="6.90469">
        <ele>761.9</ele>
        <time>2022-11-02T13:06:54Z</time>
      </trkpt>
      <trkpt lat="47.88731" lon="6.90471">
        <ele>761.8</ele>
        <time>2022-11-02T13:06:55Z</time>
      </trkpt>
      <trkpt lat="47.8873" lon="6.90471">
        <ele>762.5</ele>
        <time>2022-11-02T13:06:56Z</time>
      </trkpt>
      <trkpt lat="47.8873" lon="6.90472">
        <ele>762.4</ele>
        <time>2022-11-02T13:06:57Z</time>
      </trkpt>
      <trkpt lat="47.88729" lon="6.90474">
        <ele>763</ele>
        <time>2022-11-02T13:06:58Z</time>
      </trkpt>
      <trkpt lat="47.88729" lon="6.90475">
        <ele>763</ele>
        <time>2022-11-02T13:06:59Z</time>
      </trkpt>
      <trkpt lat="47.88729" lon="6.90477">
        <ele>762.9</ele>
        <time>2022-11-02T13:07:00Z</time>
      </trkpt>
      <trkpt lat="47.88728" lon="6.90478">
        <ele>763.5</ele>
        <time>2022-11-02T13:07:01Z</time>
      </trkpt>
      <trkpt lat="47.88728" lon="6.9048">
        <ele>763.4</ele>
        <time>2022-11-02T13:07:02Z</time>
      </trkpt>
      <trkpt lat="47.88728" lon="6.90481">
        <ele>763.4</ele>
        <time>2022-11-02T13:07:03Z</time>
      </trkpt>
      <trkpt lat="47.88728" lon="6.90483">
        <ele>763.3</ele>
        <time>2022-11-02T13:07:04Z</time>
      </trkpt>
      <trkpt lat="47.88728" lon="6.90484">
        <ele>763.2</ele>
        <time>2022-11-02T13:07:05Z</time>
      </trkpt>
      <trkpt lat="47.88728" lon="6.90486">
        <ele>763.1</ele>
        <time>2022-11-02T13:07:06Z</time>
      </trkpt>
      <trkpt lat="47.88728" lon="6.90488">
        <ele>763</ele>
        <time>2022-11-02T13:07:07Z</time>
      </trkpt>
      <trkpt lat="47.88729" lon="6.90489">
        <ele>762.2</ele>
        <time>2022-11-02T13:07:08Z</time>
      </trkpt>
      <trkpt lat="47.88729" lon="6.90491">
        <ele>762.1</ele>
        <time>2022-11-02T13:07:09Z</time>
      </trkpt>
      <trkpt lat="47.88729" lon="6.90493">
        <ele>762</ele>
        <time>2022-11-02T13:07:10Z</time>
      </trkpt>
      <trkpt lat="47.8873" lon="6.90494">
        <ele>761.2</ele>
        <time>2022-11-02T13:07:11Z</time>
      </trkpt>
      <trkpt lat="47.8873" lon="6.90496">
        <ele>761.1</ele>
        <time>2022-11-02T13:07:12Z</time>
      </trkpt>
      <trkpt lat="47.8873" lon="6.90498">
        <ele>761</ele>
        <time>2022-11-02T13:07:13Z</time>
      </trkpt>
      <trkpt lat="47.8873" lon="6.905">
        <ele>760.8</ele>
        <time>2022-11-02T13:07:14Z</time>
      </trkpt>
      <trkpt lat="47.88731" lon="6.90502">
        <ele>759.9</ele>
        <time>2022-11-02T13:07:15Z</time>
      </trkpt>
      <trkpt lat="47.88731" lon="6.90503">
        <ele>759.9</ele>
        <time>2022-11-02T13:07:16Z</time>
      </trkpt>
      <trkpt lat="47.88731" lon="6.90505">
        <ele>759.7</ele>
        <time>2022-11-02T13:07:17Z</time>
      </trkpt>
      <trkpt lat="47.8873" lon="6.90507">
        <ele>760.4</ele>
        <time>2022-11-02T13:07:18Z</time>
      </trkpt>
      <trkpt lat="47.8873" lon="6.90509">
        <ele>760.3</ele>
        <time>2022-11-02T13:07:19Z</time>
      </trkpt>
      <trkpt lat="47.8873" lon="6.9051">
        <ele>760.2</ele>
        <time>2022-11-02T13:07:20Z</time>
      </trkpt>
      <trkpt lat="47.8873" lon="6.90512">
        <ele>760.1</ele>
        <time>2022-11-02T13:07:21Z</time>
      </trkpt>
      <trkpt lat="47.8873" lon="6.90513">
        <ele>760</ele>
        <time>2022-11-02T13:07:22Z</time>
      </trkpt>
      <trkpt lat="47.8873" lon="6.90514">
        <ele>760</ele>
        <time>2022-11-02T13:07:23Z</time>
      </trkpt>
      <trkpt lat="47.8873" lon="6.90515">
        <ele>759.9</ele>
        <time>2022-11-02T13:07:24Z</time>
      </trkpt>
      <trkpt lat="47.8873" lon="6.90516">
        <ele>759.8</ele>
        <time>2022-11-02T13:07:25Z</time>
      </trkpt>
      <trkpt lat="47.88729" lon="6.90517">
        <ele>760.6</ele>
        <time>2022-11-02T13:07:26Z</time>
      </trkpt>
      <trkpt lat="47.88729" lon="6.90518">
        <ele>760.5</ele>
        <time>2022-11-02T13:07:27Z</time>
      </trkpt>
      <trkpt lat="47.88729" lon="6.9052">
        <ele>760.4</ele>
        <time>2022-11-02T13:07:28Z</time>
      </trkpt>
      <trkpt lat="47.88729" lon="6.90521">
        <ele>760.3</ele>
        <time>2022-11-02T13:07:29Z</time>
      </trkpt>
      <trkpt lat="47.88729" lon="6.90523">
        <ele>760.2</ele>
        <time>2022-11-02T13:07:30Z</time>
      </trkpt>
      <trkpt lat="47.88729" lon="6.90524">
        <ele>760.1</ele>
        <time>2022-11-02T13:07:31Z</time>
      </trkpt>
      <trkpt lat="47.88729" lon="6.90526">
        <ele>760</ele>
        <time>2022-11-02T13:07:32Z</time>
      </trkpt>
      <trkpt lat="47.88729" lon="6.90528">
        <ele>759.9</ele>
        <time>2022-11-02T13:07:33Z</time>
      </trkpt>
      <trkpt lat="47.88729" lon="6.90529">
        <ele>759.8</ele>
        <time>2022-11-02T13:07:34Z</time>
      </trkpt>
      <trkpt lat="47.88728" lon="6.90531">
        <ele>760.5</ele>
        <time>2022-11-02T13:07:35Z</time>
      </trkpt>
      <trkpt lat="47.88728" lon="6.90532">
        <ele>760.5</ele>
        <time>2022-11-02T13:07:36Z</time>
      </trkpt>
      <trkpt lat="47.88727" lon="6.90534">
        <ele>761.2</ele>
        <time>2022-11-02T13:07:37Z</time>
      </trkpt>
      <trkpt lat="47.88726" lon="6.90535">
        <ele>761.9</ele>
        <time>2022-11-02T13:07:38Z</time>
      </trkpt>
      <trkpt lat="47.88726" lon="6.90536">
        <ele>761.8</ele>
        <time>2022-11-02T13:07:39Z</time>
      </trkpt>
      <trkpt lat="47.88726" lon="6.90537">
        <ele>761.8</ele>
        <time>2022-11-02T13:07:40Z</time>
      </trkpt>
      <trkpt lat="47.88726" lon="6.90538">
        <ele>761.8</ele>
        <time>2022-11-02T13:07:41Z</time>
      </trkpt>
      <trkpt lat="47.88725" lon="6.9054">
        <ele>762.5</ele>
        <time>2022-11-02T13:07:42Z</time>
      </trkpt>
      <trkpt lat="47.88725" lon="6.90542">
        <ele>762.4</ele>
        <time>2022-11-02T13:07:43Z</time>
      </trkpt>
      <trkpt lat="47.88725" lon="6.90543">
        <ele>762.4</ele>
        <time>2022-11-02T13:07:44Z</time>
      </trkpt>
      <trkpt lat="47.88725" lon="6.90545">
        <ele>762.3</ele>
        <time>2022-11-02T13:07:45Z</time>
      </trkpt>
      <trkpt lat="47.88725" lon="6.90547">
        <ele>762.2</ele>
        <time>2022-11-02T13:07:46Z</time>
      </trkpt>
      <trkpt lat="47.88725" lon="6.90549">
        <ele>762.1</ele>
        <time>2022-11-02T13:07:47Z</time>
      </trkpt>
      <trkpt lat="47.88725" lon="6.90551">
        <ele>762.1</ele>
        <time>2022-11-02T13:07:48Z</time>
      </trkpt>
      <trkpt lat="47.88725" lon="6.90553">
        <ele>762</ele>
        <time>2022-11-02T13:07:49Z</time>
      </trkpt>
      <trkpt lat="47.88725" lon="6.90554">
        <ele>762</ele>
        <time>2022-11-02T13:07:50Z</time>
      </trkpt>
      <trkpt lat="47.88724" lon="6.90556">
        <ele>762.7</ele>
        <time>2022-11-02T13:07:51Z</time>
      </trkpt>
      <trkpt lat="47.88724" lon="6.90558">
        <ele>762.6</ele>
        <time>2022-11-02T13:07:52Z</time>
      </trkpt>
      <trkpt lat="47.88724" lon="6.9056">
        <ele>762.6</ele>
        <time>2022-11-02T13:07:53Z</time>
      </trkpt>
      <trkpt lat="47.88724" lon="6.90561">
        <ele>762.6</ele>
        <time>2022-11-02T13:07:54Z</time>
      </trkpt>
      <trkpt lat="47.88723" lon="6.90563">
        <ele>763.4</ele>
        <time>2022-11-02T13:07:55Z</time>
      </trkpt>
      <trkpt lat="47.88723" lon="6.90564">
        <ele>763.4</ele>
        <time>2022-11-02T13:07:56Z</time>
      </trkpt>
      <trkpt lat="47.88723" lon="6.90566">
        <ele>763.4</ele>
        <time>2022-11-02T13:07:57Z</time>
      </trkpt>
      <trkpt lat="47.88723" lon="6.90567">
        <ele>763.4</ele>
        <time>2022-11-02T13:07:58Z</time>
      </trkpt>
      <trkpt lat="47.88723" lon="6.90568">
        <ele>763.4</ele>
        <time>2022-11-02T13:07:59Z</time>
      </trkpt>
      <trkpt lat="47.88723" lon="6.9057">
        <ele>763.4</ele>
        <time>2022-11-02T13:08:00Z</time>
      </trkpt>
      <trkpt lat="47.88723" lon="6.90571">
        <ele>763.4</ele>
        <time>2022-11-02T13:08:01Z</time>
      </trkpt>
      <trkpt lat="47.88723" lon="6.90572">
        <ele>763.4</ele>
        <time>2022-11-02T13:08:02Z</time>
      </trkpt>
      <trkpt lat="47.88723" lon="6.90574">
        <ele>763.4</ele>
        <time>2022-11-02T13:08:03Z</time>
      </trkpt>
      <trkpt lat="47.88723" lon="6.90575">
        <ele>763.4</ele>
        <time>2022-11-02T13:08:04Z</time>
      </trkpt>
      <trkpt lat="47.88723" lon="6.90577">
        <ele>763.4</ele>
        <time>2022-11-02T13:08:05Z</time>
      </trkpt>
      <trkpt lat="47.88723" lon="6.90578">
        <ele>763.4</ele>
        <time>2022-11-02T13:08:06Z</time>
      </trkpt>
      <trkpt lat="47.88723" lon="6.90579">
        <ele>763.4</ele>
        <time>2022-11-02T13:08:07Z</time>
      </trkpt>
      <trkpt lat="47.88722" lon="6.90581">
        <ele>764.2</ele>
        <time>2022-11-02T13:08:08Z</time>
      </trkpt>
      <trkpt lat="47.88722" lon="6.90582">
        <ele>764.2</ele>
        <time>2022-11-02T13:08:09Z</time>
      </trkpt>
      <trkpt lat="47.88722" lon="6.90583">
        <ele>764.2</ele>
        <time>2022-11-02T13:08:10Z</time>
      </trkpt>
      <trkpt lat="47.88722" lon="6.90584">
        <ele>764.1</ele>
        <time>2022-11-02T13:08:11Z</time>
      </trkpt>
      <trkpt lat="47.88722" lon="6.90586">
        <ele>763.9</ele>
        <time>2022-11-02T13:08:12Z</time>
      </trkpt>
      <trkpt lat="47.88722" lon="6.90587">
        <ele>763.8</ele>
        <time>2022-11-02T13:08:13Z</time>
      </trkpt>
      <trkpt lat="47.88722" lon="6.90589">
        <ele>763.6</ele>
        <time>2022-11-02T13:08:14Z</time>
      </trkpt>
      <trkpt lat="47.88722" lon="6.9059">
        <ele>763.4</ele>
        <time>2022-11-02T13:08:15Z</time>
      </trkpt>
      <trkpt lat="47.88722" lon="6.90592">
        <ele>763.2</ele>
        <time>2022-11-02T13:08:16Z</time>
      </trkpt>
      <trkpt lat="47.88722" lon="6.90593">
        <ele>763.1</ele>
        <time>2022-11-02T13:08:17Z</time>
      </trkpt>
      <trkpt lat="47.88721" lon="6.90594">
        <ele>763.8</ele>
        <time>2022-11-02T13:08:18Z</time>
      </trkpt>
      <trkpt lat="47.88721" lon="6.90596">
        <ele>763.6</ele>
        <time>2022-11-02T13:08:19Z</time>
      </trkpt>
      <trkpt lat="47.88721" lon="6.90597">
        <ele>763.5</ele>
        <time>2022-11-02T13:08:20Z</time>
      </trkpt>
      <trkpt lat="47.88721" lon="6.90598">
        <ele>763.4</ele>
        <time>2022-11-02T13:08:21Z</time>
      </trkpt>
      <trkpt lat="47.8872" lon="6.90599">
        <ele>764</ele>
        <time>2022-11-02T13:08:22Z</time>
      </trkpt>
      <trkpt lat="47.8872" lon="6.906">
        <ele>763.9</ele>
        <time>2022-11-02T13:08:23Z</time>
      </trkpt>
      <trkpt lat="47.8872" lon="6.90601">
        <ele>763.8</ele>
        <time>2022-11-02T13:08:24Z</time>
      </trkpt>
      <trkpt lat="47.8872" lon="6.90603">
        <ele>763.6</ele>
        <time>2022-11-02T13:08:25Z</time>
      </trkpt>
      <trkpt lat="47.8872" lon="6.90605">
        <ele>763.4</ele>
        <time>2022-11-02T13:08:26Z</time>
      </trkpt>
      <trkpt lat="47.8872" lon="6.90606">
        <ele>763.3</ele>
        <time>2022-11-02T13:08:27Z</time>
      </trkpt>
      <trkpt lat="47.88721" lon="6.90608">
        <ele>762.3</ele>
        <time>2022-11-02T13:08:28Z</time>
      </trkpt>
      <trkpt lat="47.88721" lon="6.9061">
        <ele>762.1</ele>
        <time>2022-11-02T13:08:29Z</time>
      </trkpt>
      <trkpt lat="47.88721" lon="6.90612">
        <ele>761.9</ele>
        <time>2022-11-02T13:08:30Z</time>
      </trkpt>
      <trkpt lat="47.88721" lon="6.90613">
        <ele>761.8</ele>
        <time>2022-11-02T13:08:31Z</time>
      </trkpt>
      <trkpt lat="47.88721" lon="6.90615">
        <ele>761.7</ele>
        <time>2022-11-02T13:08:32Z</time>
      </trkpt>
      <trkpt lat="47.88721" lon="6.90616">
        <ele>761.6</ele>
        <time>2022-11-02T13:08:33Z</time>
      </trkpt>
      <trkpt lat="47.88721" lon="6.90618">
        <ele>761.5</ele>
        <time>2022-11-02T13:08:34Z</time>
      </trkpt>
      <trkpt lat="47.88721" lon="6.90619">
        <ele>761.4</ele>
        <time>2022-11-02T13:08:35Z</time>
      </trkpt>
      <trkpt lat="47.8872" lon="6.9062">
        <ele>762.1</ele>
        <time>2022-11-02T13:08:36Z</time>
      </trkpt>
      <trkpt lat="47.8872" lon="6.90622">
        <ele>761.9</ele>
        <time>2022-11-02T13:08:37Z</time>
      </trkpt>
      <trkpt lat="47.8872" lon="6.90623">
        <ele>761.9</ele>
        <time>2022-11-02T13:08:38Z</time>
      </trkpt>
      <trkpt lat="47.8872" lon="6.90624">
        <ele>761.8</ele>
        <time>2022-11-02T13:08:39Z</time>
      </trkpt>
      <trkpt lat="47.8872" lon="6.90626">
        <ele>761.6</ele>
        <time>2022-11-02T13:08:40Z</time>
      </trkpt>
      <trkpt lat="47.88719" lon="6.90628">
        <ele>762.3</ele>
        <time>2022-11-02T13:08:41Z</time>
      </trkpt>
      <trkpt lat="47.88719" lon="6.90629">
        <ele>762.2</ele>
        <time>2022-11-02T13:08:42Z</time>
      </trkpt>
      <trkpt lat="47.88719" lon="6.90631">
        <ele>762</ele>
        <time>2022-11-02T13:08:43Z</time>
      </trkpt>
      <trkpt lat="47.88719" lon="6.90632">
        <ele>762</ele>
        <time>2022-11-02T13:08:44Z</time>
      </trkpt>
      <trkpt lat="47.88719" lon="6.90633">
        <ele>761.9</ele>
        <time>2022-11-02T13:08:45Z</time>
      </trkpt>
      <trkpt lat="47.88719" lon="6.90635">
        <ele>761.7</ele>
        <time>2022-11-02T13:08:46Z</time>
      </trkpt>
      <trkpt lat="47.88719" lon="6.90636">
        <ele>761.7</ele>
        <time>2022-11-02T13:08:47Z</time>
      </trkpt>
      <trkpt lat="47.88719" lon="6.90637">
        <ele>761.6</ele>
        <time>2022-11-02T13:08:48Z</time>
      </trkpt>
      <trkpt lat="47.88719" lon="6.90639">
        <ele>761.4</ele>
        <time>2022-11-02T13:08:49Z</time>
      </trkpt>
      <trkpt lat="47.88719" lon="6.9064">
        <ele>761.3</ele>
        <time>2022-11-02T13:08:50Z</time>
      </trkpt>
      <trkpt lat="47.88719" lon="6.90642">
        <ele>761.1</ele>
        <time>2022-11-02T13:08:51Z</time>
      </trkpt>
      <trkpt lat="47.88718" lon="6.90643">
        <ele>761.7</ele>
        <time>2022-11-02T13:08:52Z</time>
      </trkpt>
      <trkpt lat="47.88718" lon="6.90645">
        <ele>761.5</ele>
        <time>2022-11-02T13:08:53Z</time>
      </trkpt>
      <trkpt lat="47.88717" lon="6.90646">
        <ele>762.1</ele>
        <time>2022-11-02T13:08:54Z</time>
      </trkpt>
      <trkpt lat="47.88717" lon="6.90648">
        <ele>761.8</ele>
        <time>2022-11-02T13:08:55Z</time>
      </trkpt>
      <trkpt lat="47.88716" lon="6.90649">
        <ele>762.4</ele>
        <time>2022-11-02T13:08:56Z</time>
      </trkpt>
      <trkpt lat="47.88716" lon="6.90651">
        <ele>762.2</ele>
        <time>2022-11-02T13:08:57Z</time>
      </trkpt>
      <trkpt lat="47.88715" lon="6.90652">
        <ele>762.8</ele>
        <time>2022-11-02T13:08:58Z</time>
      </trkpt>
      <trkpt lat="47.88715" lon="6.90654">
        <ele>762.5</ele>
        <time>2022-11-02T13:08:59Z</time>
      </trkpt>
      <trkpt lat="47.88715" lon="6.90655">
        <ele>762.4</ele>
        <time>2022-11-02T13:09:00Z</time>
      </trkpt>
      <trkpt lat="47.88715" lon="6.90657">
        <ele>762.2</ele>
        <time>2022-11-02T13:09:01Z</time>
      </trkpt>
      <trkpt lat="47.88715" lon="6.90658">
        <ele>762</ele>
        <time>2022-11-02T13:09:02Z</time>
      </trkpt>
      <trkpt lat="47.88714" lon="6.9066">
        <ele>762.5</ele>
        <time>2022-11-02T13:09:03Z</time>
      </trkpt>
      <trkpt lat="47.88713" lon="6.90661">
        <ele>763.1</ele>
        <time>2022-11-02T13:09:04Z</time>
      </trkpt>
      <trkpt lat="47.88713" lon="6.90663">
        <ele>762.8</ele>
        <time>2022-11-02T13:09:05Z</time>
      </trkpt>
      <trkpt lat="47.88712" lon="6.90664">
        <ele>763.4</ele>
        <time>2022-11-02T13:09:06Z</time>
      </trkpt>
      <trkpt lat="47.88712" lon="6.90666">
        <ele>763.1</ele>
        <time>2022-11-02T13:09:07Z</time>
      </trkpt>
      <trkpt lat="47.88711" lon="6.90668">
        <ele>763.6</ele>
        <time>2022-11-02T13:09:08Z</time>
      </trkpt>
      <trkpt lat="47.88711" lon="6.9067">
        <ele>763.5</ele>
        <time>2022-11-02T13:09:09Z</time>
      </trkpt>
      <trkpt lat="47.88711" lon="6.90671">
        <ele>763.4</ele>
        <time>2022-11-02T13:09:10Z</time>
      </trkpt>
      <trkpt lat="47.88711" lon="6.90672">
        <ele>763.4</ele>
        <time>2022-11-02T13:09:11Z</time>
      </trkpt>
      <trkpt lat="47.88711" lon="6.90674">
        <ele>763.3</ele>
        <time>2022-11-02T13:09:12Z</time>
      </trkpt>
      <trkpt lat="47.8871" lon="6.90676">
        <ele>763.8</ele>
        <time>2022-11-02T13:09:13Z</time>
      </trkpt>
      <trkpt lat="47.8871" lon="6.90677">
        <ele>763.8</ele>
        <time>2022-11-02T13:09:14Z</time>
      </trkpt>
      <trkpt lat="47.8871" lon="6.90679">
        <ele>763.7</ele>
        <time>2022-11-02T13:09:15Z</time>
      </trkpt>
      <trkpt lat="47.8871" lon="6.90681">
        <ele>763.6</ele>
        <time>2022-11-02T13:09:16Z</time>
      </trkpt>
      <trkpt lat="47.8871" lon="6.90683">
        <ele>763.4</ele>
        <time>2022-11-02T13:09:17Z</time>
      </trkpt>
      <trkpt lat="47.8871" lon="6.90685">
        <ele>763.3</ele>
        <time>2022-11-02T13:09:18Z</time>
      </trkpt>
      <trkpt lat="47.8871" lon="6.90687">
        <ele>763.2</ele>
        <time>2022-11-02T13:09:19Z</time>
      </trkpt>
      <trkpt lat="47.8871" lon="6.90688">
        <ele>763.2</ele>
        <time>2022-11-02T13:09:20Z</time>
      </trkpt>
      <trkpt lat="47.8871" lon="6.9069">
        <ele>763</ele>
        <time>2022-11-02T13:09:21Z</time>
      </trkpt>
      <trkpt lat="47.8871" lon="6.90691">
        <ele>763</ele>
        <time>2022-11-02T13:09:22Z</time>
      </trkpt>
      <trkpt lat="47.8871" lon="6.90692">
        <ele>762.9</ele>
        <time>2022-11-02T13:09:23Z</time>
      </trkpt>
      <trkpt lat="47.8871" lon="6.90694">
        <ele>762.8</ele>
        <time>2022-11-02T13:09:24Z</time>
      </trkpt>
      <trkpt lat="47.8871" lon="6.90695">
        <ele>762.7</ele>
        <time>2022-11-02T13:09:25Z</time>
      </trkpt>
      <trkpt lat="47.8871" lon="6.90697">
        <ele>762.6</ele>
        <time>2022-11-02T13:09:26Z</time>
      </trkpt>
      <trkpt lat="47.8871" lon="6.90698">
        <ele>762.5</ele>
        <time>2022-11-02T13:09:27Z</time>
      </trkpt>
      <trkpt lat="47.88711" lon="6.907">
        <ele>761.6</ele>
        <time>2022-11-02T13:09:28Z</time>
      </trkpt>
      <trkpt lat="47.88711" lon="6.90702">
        <ele>761.4</ele>
        <time>2022-11-02T13:09:29Z</time>
      </trkpt>
      <trkpt lat="47.88711" lon="6.90703">
        <ele>761.3</ele>
        <time>2022-11-02T13:09:30Z</time>
      </trkpt>
      <trkpt lat="47.88711" lon="6.90705">
        <ele>761.1</ele>
        <time>2022-11-02T13:09:31Z</time>
      </trkpt>
      <trkpt lat="47.88711" lon="6.90706">
        <ele>761</ele>
        <time>2022-11-02T13:09:32Z</time>
      </trkpt>
      <trkpt lat="47.88711" lon="6.90707">
        <ele>760.9</ele>
        <time>2022-11-02T13:09:33Z</time>
      </trkpt>
      <trkpt lat="47.8871" lon="6.90709">
        <ele>761.5</ele>
        <time>2022-11-02T13:09:34Z</time>
      </trkpt>
      <trkpt lat="47.88709" lon="6.9071">
        <ele>762.1</ele>
        <time>2022-11-02T13:09:35Z</time>
      </trkpt>
      <trkpt lat="47.88709" lon="6.90711">
        <ele>762</ele>
        <time>2022-11-02T13:09:36Z</time>
      </trkpt>
      <trkpt lat="47.88708" lon="6.90712">
        <ele>762.7</ele>
        <time>2022-11-02T13:09:37Z</time>
      </trkpt>
      <trkpt lat="47.88708" lon="6.90714">
        <ele>762.5</ele>
        <time>2022-11-02T13:09:38Z</time>
      </trkpt>
      <trkpt lat="47.88707" lon="6.90715">
        <ele>763.1</ele>
        <time>2022-11-02T13:09:39Z</time>
      </trkpt>
      <trkpt lat="47.88707" lon="6.90716">
        <ele>763.1</ele>
        <time>2022-11-02T13:09:40Z</time>
      </trkpt>
      <trkpt lat="47.88706" lon="6.90717">
        <ele>763.7</ele>
        <time>2022-11-02T13:09:41Z</time>
      </trkpt>
      <trkpt lat="47.88706" lon="6.90718">
        <ele>763.6</ele>
        <time>2022-11-02T13:09:42Z</time>
      </trkpt>
      <trkpt lat="47.88705" lon="6.90719">
        <ele>764.3</ele>
        <time>2022-11-02T13:09:43Z</time>
      </trkpt>
      <trkpt lat="47.88705" lon="6.9072">
        <ele>764.2</ele>
        <time>2022-11-02T13:09:44Z</time>
      </trkpt>
      <trkpt lat="47.88705" lon="6.90721">
        <ele>764.1</ele>
        <time>2022-11-02T13:09:45Z</time>
      </trkpt>
      <trkpt lat="47.88705" lon="6.90723">
        <ele>764</ele>
        <time>2022-11-02T13:09:46Z</time>
      </trkpt>
      <trkpt lat="47.88705" lon="6.90724">
        <ele>763.9</ele>
        <time>2022-11-02T13:09:47Z</time>
      </trkpt>
      <trkpt lat="47.88705" lon="6.90725">
        <ele>763.8</ele>
        <time>2022-11-02T13:09:48Z</time>
      </trkpt>
      <trkpt lat="47.88705" lon="6.90726">
        <ele>763.8</ele>
        <time>2022-11-02T13:09:49Z</time>
      </trkpt>
      <trkpt lat="47.88705" lon="6.90727">
        <ele>763.7</ele>
        <time>2022-11-02T13:09:50Z</time>
      </trkpt>
      <trkpt lat="47.88706" lon="6.90728">
        <ele>762.9</ele>
        <time>2022-11-02T13:09:51Z</time>
      </trkpt>
      <trkpt lat="47.88706" lon="6.90729">
        <ele>762.8</ele>
        <time>2022-11-02T13:09:52Z</time>
      </trkpt>
      <trkpt lat="47.88706" lon="6.9073">
        <ele>762.8</ele>
        <time>2022-11-02T13:09:53Z</time>
      </trkpt>
      <trkpt lat="47.88707" lon="6.90731">
        <ele>761.9</ele>
        <time>2022-11-02T13:09:54Z</time>
      </trkpt>
      <trkpt lat="47.88707" lon="6.90733">
        <ele>761.8</ele>
        <time>2022-11-02T13:09:55Z</time>
      </trkpt>
      <trkpt lat="47.88707" lon="6.90734">
        <ele>761.7</ele>
        <time>2022-11-02T13:09:56Z</time>
      </trkpt>
      <trkpt lat="47.88707" lon="6.90736">
        <ele>761.6</ele>
        <time>2022-11-02T13:09:57Z</time>
      </trkpt>
      <trkpt lat="47.88707" lon="6.90737">
        <ele>761.5</ele>
        <time>2022-11-02T13:09:58Z</time>
      </trkpt>
      <trkpt lat="47.88706" lon="6.90738">
        <ele>762.2</ele>
        <time>2022-11-02T13:09:59Z</time>
      </trkpt>
      <trkpt lat="47.88706" lon="6.90739">
        <ele>762.2</ele>
        <time>2022-11-02T13:10:00Z</time>
      </trkpt>
      <trkpt lat="47.88706" lon="6.90741">
        <ele>762</ele>
        <time>2022-11-02T13:10:01Z</time>
      </trkpt>
      <trkpt lat="47.88706" lon="6.90742">
        <ele>762</ele>
        <time>2022-11-02T13:10:02Z</time>
      </trkpt>
      <trkpt lat="47.88705" lon="6.90743">
        <ele>762.7</ele>
        <time>2022-11-02T13:10:03Z</time>
      </trkpt>
      <trkpt lat="47.88705" lon="6.90744">
        <ele>762.6</ele>
        <time>2022-11-02T13:10:04Z</time>
      </trkpt>
      <trkpt lat="47.88704" lon="6.90745">
        <ele>763.4</ele>
        <time>2022-11-02T13:10:05Z</time>
      </trkpt>
      <trkpt lat="47.88703" lon="6.90747">
        <ele>764.1</ele>
        <time>2022-11-02T13:10:06Z</time>
      </trkpt>
      <trkpt lat="47.88702" lon="6.90748">
        <ele>764.9</ele>
        <time>2022-11-02T13:10:07Z</time>
      </trkpt>
      <trkpt lat="47.88702" lon="6.9075">
        <ele>764.7</ele>
        <time>2022-11-02T13:10:08Z</time>
      </trkpt>
      <trkpt lat="47.88701" lon="6.90751">
        <ele>765.4</ele>
        <time>2022-11-02T13:10:09Z</time>
      </trkpt>
      <trkpt lat="47.88701" lon="6.90753">
        <ele>765.2</ele>
        <time>2022-11-02T13:10:10Z</time>
      </trkpt>
      <trkpt lat="47.88701" lon="6.90755">
        <ele>764.9</ele>
        <time>2022-11-02T13:10:11Z</time>
      </trkpt>
      <trkpt lat="47.88701" lon="6.90756">
        <ele>764.8</ele>
        <time>2022-11-02T13:10:12Z</time>
      </trkpt>
      <trkpt lat="47.88701" lon="6.90758">
        <ele>764.5</ele>
        <time>2022-11-02T13:10:13Z</time>
      </trkpt>
      <trkpt lat="47.887" lon="6.90759">
        <ele>765.2</ele>
        <time>2022-11-02T13:10:14Z</time>
      </trkpt>
      <trkpt lat="47.887" lon="6.9076">
        <ele>765</ele>
        <time>2022-11-02T13:10:15Z</time>
      </trkpt>
      <trkpt lat="47.887" lon="6.90762">
        <ele>764.8</ele>
        <time>2022-11-02T13:10:16Z</time>
      </trkpt>
      <trkpt lat="47.88699" lon="6.90763">
        <ele>765.4</ele>
        <time>2022-11-02T13:10:17Z</time>
      </trkpt>
      <trkpt lat="47.88699" lon="6.90765">
        <ele>765.2</ele>
        <time>2022-11-02T13:10:18Z</time>
      </trkpt>
      <trkpt lat="47.88699" lon="6.90766">
        <ele>765</ele>
        <time>2022-11-02T13:10:19Z</time>
      </trkpt>
      <trkpt lat="47.88699" lon="6.90768">
        <ele>764.7</ele>
        <time>2022-11-02T13:10:20Z</time>
      </trkpt>
      <trkpt lat="47.88698" lon="6.90769">
        <ele>765.4</ele>
        <time>2022-11-02T13:10:21Z</time>
      </trkpt>
      <trkpt lat="47.88698" lon="6.90771">
        <ele>765.1</ele>
        <time>2022-11-02T13:10:22Z</time>
      </trkpt>
      <trkpt lat="47.88698" lon="6.90772">
        <ele>765</ele>
        <time>2022-11-02T13:10:23Z</time>
      </trkpt>
      <trkpt lat="47.88698" lon="6.90774">
        <ele>764.7</ele>
        <time>2022-11-02T13:10:24Z</time>
      </trkpt>
      <trkpt lat="47.88697" lon="6.90775">
        <ele>765.4</ele>
        <time>2022-11-02T13:10:25Z</time>
      </trkpt>
      <trkpt lat="47.88697" lon="6.90776">
        <ele>765.2</ele>
        <time>2022-11-02T13:10:26Z</time>
      </trkpt>
      <trkpt lat="47.88697" lon="6.90777">
        <ele>765.1</ele>
        <time>2022-11-02T13:10:27Z</time>
      </trkpt>
      <trkpt lat="47.88696" lon="6.90778">
        <ele>765.7</ele>
        <time>2022-11-02T13:10:28Z</time>
      </trkpt>
      <trkpt lat="47.88696" lon="6.9078">
        <ele>765.4</ele>
        <time>2022-11-02T13:10:29Z</time>
      </trkpt>
      <trkpt lat="47.88695" lon="6.90781">
        <ele>766.1</ele>
        <time>2022-11-02T13:10:30Z</time>
      </trkpt>
      <trkpt lat="47.88695" lon="6.90782">
        <ele>765.9</ele>
        <time>2022-11-02T13:10:31Z</time>
      </trkpt>
      <trkpt lat="47.88695" lon="6.90784">
        <ele>765.7</ele>
        <time>2022-11-02T13:10:32Z</time>
      </trkpt>
      <trkpt lat="47.88694" lon="6.90785">
        <ele>766.3</ele>
        <time>2022-11-02T13:10:33Z</time>
      </trkpt>
      <trkpt lat="47.88694" lon="6.90787">
        <ele>766</ele>
        <time>2022-11-02T13:10:34Z</time>
      </trkpt>
      <trkpt lat="47.88693" lon="6.90788">
        <ele>766.7</ele>
        <time>2022-11-02T13:10:35Z</time>
      </trkpt>
      <trkpt lat="47.88693" lon="6.90789">
        <ele>766.5</ele>
        <time>2022-11-02T13:10:36Z</time>
      </trkpt>
      <trkpt lat="47.88692" lon="6.90791">
        <ele>767</ele>
        <time>2022-11-02T13:10:37Z</time>
      </trkpt>
      <trkpt lat="47.88691" lon="6.90792">
        <ele>767.6</ele>
        <time>2022-11-02T13:10:38Z</time>
      </trkpt>
      <trkpt lat="47.88691" lon="6.90794">
        <ele>767.3</ele>
        <time>2022-11-02T13:10:39Z</time>
      </trkpt>
      <trkpt lat="47.8869" lon="6.90795">
        <ele>767.9</ele>
        <time>2022-11-02T13:10:40Z</time>
      </trkpt>
      <trkpt lat="47.88689" lon="6.90796">
        <ele>768.6</ele>
        <time>2022-11-02T13:10:41Z</time>
      </trkpt>
      <trkpt lat="47.88689" lon="6.90798">
        <ele>768.3</ele>
        <time>2022-11-02T13:10:42Z</time>
      </trkpt>
      <trkpt lat="47.88688" lon="6.90799">
        <ele>768.9</ele>
        <time>2022-11-02T13:10:43Z</time>
      </trkpt>
      <trkpt lat="47.88688" lon="6.908">
        <ele>768.7</ele>
        <time>2022-11-02T13:10:44Z</time>
      </trkpt>
      <trkpt lat="47.88687" lon="6.90801">
        <ele>769.3</ele>
        <time>2022-11-02T13:10:45Z</time>
      </trkpt>
      <trkpt lat="47.88687" lon="6.90803">
        <ele>769</ele>
        <time>2022-11-02T13:10:46Z</time>
      </trkpt>
      <trkpt lat="47.88687" lon="6.90804">
        <ele>768.9</ele>
        <time>2022-11-02T13:10:47Z</time>
      </trkpt>
      <trkpt lat="47.88686" lon="6.90805">
        <ele>769.5</ele>
        <time>2022-11-02T13:10:48Z</time>
      </trkpt>
      <trkpt lat="47.88686" lon="6.90806">
        <ele>769.3</ele>
        <time>2022-11-02T13:10:49Z</time>
      </trkpt>
      <trkpt lat="47.88685" lon="6.90807">
        <ele>769.8</ele>
        <time>2022-11-02T13:10:50Z</time>
      </trkpt>
      <trkpt lat="47.88685" lon="6.90809">
        <ele>769.4</ele>
        <time>2022-11-02T13:10:51Z</time>
      </trkpt>
      <trkpt lat="47.88685" lon="6.9081">
        <ele>769.1</ele>
        <time>2022-11-02T13:10:52Z</time>
      </trkpt>
      <trkpt lat="47.88685" lon="6.90811">
        <ele>768.9</ele>
        <time>2022-11-02T13:10:53Z</time>
      </trkpt>
      <trkpt lat="47.88685" lon="6.90812">
        <ele>768.7</ele>
        <time>2022-11-02T13:10:54Z</time>
      </trkpt>
      <trkpt lat="47.88685" lon="6.90814">
        <ele>768.2</ele>
        <time>2022-11-02T13:10:55Z</time>
      </trkpt>
      <trkpt lat="47.88685" lon="6.90815">
        <ele>768</ele>
        <time>2022-11-02T13:10:56Z</time>
      </trkpt>
      <trkpt lat="47.88685" lon="6.90817">
        <ele>767.5</ele>
        <time>2022-11-02T13:10:57Z</time>
      </trkpt>
      <trkpt lat="47.88685" lon="6.90818">
        <ele>767.3</ele>
        <time>2022-11-02T13:10:58Z</time>
      </trkpt>
      <trkpt lat="47.88685" lon="6.9082">
        <ele>766.8</ele>
        <time>2022-11-02T13:10:59Z</time>
      </trkpt>
      <trkpt lat="47.88685" lon="6.90821">
        <ele>766.6</ele>
        <time>2022-11-02T13:11:00Z</time>
      </trkpt>
      <trkpt lat="47.88685" lon="6.90822">
        <ele>766.4</ele>
        <time>2022-11-02T13:11:01Z</time>
      </trkpt>
      <trkpt lat="47.88684" lon="6.90824">
        <ele>766.7</ele>
        <time>2022-11-02T13:11:02Z</time>
      </trkpt>
      <trkpt lat="47.88684" lon="6.90825">
        <ele>766.4</ele>
        <time>2022-11-02T13:11:03Z</time>
      </trkpt>
      <trkpt lat="47.88685" lon="6.90826">
        <ele>765.5</ele>
        <time>2022-11-02T13:11:04Z</time>
      </trkpt>
      <trkpt lat="47.88685" lon="6.90828">
        <ele>765</ele>
        <time>2022-11-02T13:11:05Z</time>
      </trkpt>
      <trkpt lat="47.88685" lon="6.90829">
        <ele>764.8</ele>
        <time>2022-11-02T13:11:06Z</time>
      </trkpt>
      <trkpt lat="47.88685" lon="6.90831">
        <ele>764.3</ele>
        <time>2022-11-02T13:11:07Z</time>
      </trkpt>
      <trkpt lat="47.88684" lon="6.90832">
        <ele>764.8</ele>
        <time>2022-11-02T13:11:08Z</time>
      </trkpt>
      <trkpt lat="47.88684" lon="6.90833">
        <ele>764.6</ele>
        <time>2022-11-02T13:11:09Z</time>
      </trkpt>
      <trkpt lat="47.88683" lon="6.90834">
        <ele>765.1</ele>
        <time>2022-11-02T13:11:10Z</time>
      </trkpt>
      <trkpt lat="47.88683" lon="6.90835">
        <ele>764.9</ele>
        <time>2022-11-02T13:11:11Z</time>
      </trkpt>
      <trkpt lat="47.88682" lon="6.90837">
        <ele>765.2</ele>
        <time>2022-11-02T13:11:12Z</time>
      </trkpt>
      <trkpt lat="47.88681" lon="6.90839">
        <ele>765.5</ele>
        <time>2022-11-02T13:11:13Z</time>
      </trkpt>
      <trkpt lat="47.88679" lon="6.90844">
        <ele>766.1</ele>
        <time>2022-11-02T13:12:00Z</time>
      </trkpt>
      <trkpt lat="47.88678" lon="6.90846">
        <ele>766.5</ele>
        <time>2022-11-02T13:12:01Z</time>
      </trkpt>
      <trkpt lat="47.88677" lon="6.90848">
        <ele>766.9</ele>
        <time>2022-11-02T13:12:02Z</time>
      </trkpt>
      <trkpt lat="47.88676" lon="6.9085">
        <ele>767.3</ele>
        <time>2022-11-02T13:12:03Z</time>
      </trkpt>
      <trkpt lat="47.88676" lon="6.90851">
        <ele>767.1</ele>
        <time>2022-11-02T13:12:04Z</time>
      </trkpt>
      <trkpt lat="47.88675" lon="6.90853">
        <ele>767.5</ele>
        <time>2022-11-02T13:12:05Z</time>
      </trkpt>
      <trkpt lat="47.88674" lon="6.90854">
        <ele>768.2</ele>
        <time>2022-11-02T13:12:06Z</time>
      </trkpt>
      <trkpt lat="47.88674" lon="6.90856">
        <ele>767.8</ele>
        <time>2022-11-02T13:12:07Z</time>
      </trkpt>
      <trkpt lat="47.88673" lon="6.90857">
        <ele>768.4</ele>
        <time>2022-11-02T13:12:08Z</time>
      </trkpt>
      <trkpt lat="47.88673" lon="6.90858">
        <ele>768.3</ele>
        <time>2022-11-02T13:12:09Z</time>
      </trkpt>
      <trkpt lat="47.88672" lon="6.9086">
        <ele>768.8</ele>
        <time>2022-11-02T13:12:10Z</time>
      </trkpt>
      <trkpt lat="47.88672" lon="6.90861">
        <ele>768.6</ele>
        <time>2022-11-02T13:12:11Z</time>
      </trkpt>
      <trkpt lat="47.88671" lon="6.90862">
        <ele>769.3</ele>
        <time>2022-11-02T13:12:12Z</time>
      </trkpt>
      <trkpt lat="47.8867" lon="6.90863">
        <ele>770</ele>
        <time>2022-11-02T13:12:13Z</time>
      </trkpt>
      <trkpt lat="47.8867" lon="6.90864">
        <ele>769.9</ele>
        <time>2022-11-02T13:12:14Z</time>
      </trkpt>
      <trkpt lat="47.88669" lon="6.90866">
        <ele>770.5</ele>
        <time>2022-11-02T13:12:15Z</time>
      </trkpt>
      <trkpt lat="47.88669" lon="6.90867">
        <ele>770.4</ele>
        <time>2022-11-02T13:12:16Z</time>
      </trkpt>
      <trkpt lat="47.88668" lon="6.90868">
        <ele>771.1</ele>
        <time>2022-11-02T13:12:17Z</time>
      </trkpt>
      <trkpt lat="47.88667" lon="6.9087">
        <ele>771.8</ele>
        <time>2022-11-02T13:12:18Z</time>
      </trkpt>
      <trkpt lat="47.88667" lon="6.90871">
        <ele>771.7</ele>
        <time>2022-11-02T13:12:19Z</time>
      </trkpt>
      <trkpt lat="47.88666" lon="6.90872">
        <ele>772.2</ele>
        <time>2022-11-02T13:12:20Z</time>
      </trkpt>
      <trkpt lat="47.88665" lon="6.90874">
        <ele>772.6</ele>
        <time>2022-11-02T13:12:21Z</time>
      </trkpt>
      <trkpt lat="47.88664" lon="6.90875">
        <ele>773.1</ele>
        <time>2022-11-02T13:12:22Z</time>
      </trkpt>
      <trkpt lat="47.88664" lon="6.90876">
        <ele>773</ele>
        <time>2022-11-02T13:12:23Z</time>
      </trkpt>
      <trkpt lat="47.88663" lon="6.90878">
        <ele>773.3</ele>
        <time>2022-11-02T13:12:24Z</time>
      </trkpt>
      <trkpt lat="47.88662" lon="6.90879">
        <ele>773.8</ele>
        <time>2022-11-02T13:12:25Z</time>
      </trkpt>
      <trkpt lat="47.88662" lon="6.9088">
        <ele>773.6</ele>
        <time>2022-11-02T13:12:26Z</time>
      </trkpt>
      <trkpt lat="47.88661" lon="6.90882">
        <ele>773.9</ele>
        <time>2022-11-02T13:12:27Z</time>
      </trkpt>
      <trkpt lat="47.88661" lon="6.90883">
        <ele>773.8</ele>
        <time>2022-11-02T13:12:28Z</time>
      </trkpt>
      <trkpt lat="47.88661" lon="6.90884">
        <ele>773.6</ele>
        <time>2022-11-02T13:12:29Z</time>
      </trkpt>
      <trkpt lat="47.88661" lon="6.90885">
        <ele>773.4</ele>
        <time>2022-11-02T13:12:30Z</time>
      </trkpt>
      <trkpt lat="47.88661" lon="6.90887">
        <ele>773.1</ele>
        <time>2022-11-02T13:12:31Z</time>
      </trkpt>
      <trkpt lat="47.88661" lon="6.90888">
        <ele>773</ele>
        <time>2022-11-02T13:12:32Z</time>
      </trkpt>
      <trkpt lat="47.88661" lon="6.9089">
        <ele>772.7</ele>
        <time>2022-11-02T13:12:33Z</time>
      </trkpt>
      <trkpt lat="47.88661" lon="6.90892">
        <ele>772.3</ele>
        <time>2022-11-02T13:12:34Z</time>
      </trkpt>
      <trkpt lat="47.8866" lon="6.90893">
        <ele>772.6</ele>
        <time>2022-11-02T13:12:35Z</time>
      </trkpt>
      <trkpt lat="47.88659" lon="6.90895">
        <ele>772.7</ele>
        <time>2022-11-02T13:12:36Z</time>
      </trkpt>
      <trkpt lat="47.88659" lon="6.90896">
        <ele>772.6</ele>
        <time>2022-11-02T13:12:37Z</time>
      </trkpt>
      <trkpt lat="47.88658" lon="6.90897">
        <ele>772.8</ele>
        <time>2022-11-02T13:12:38Z</time>
      </trkpt>
      <trkpt lat="47.88657" lon="6.90898">
        <ele>773.1</ele>
        <time>2022-11-02T13:12:39Z</time>
      </trkpt>
      <trkpt lat="47.88657" lon="6.90899">
        <ele>772.9</ele>
        <time>2022-11-02T13:12:40Z</time>
      </trkpt>
      <trkpt lat="47.88656" lon="6.909">
        <ele>773.2</ele>
        <time>2022-11-02T13:12:41Z</time>
      </trkpt>
      <trkpt lat="47.88656" lon="6.90901">
        <ele>773</ele>
        <time>2022-11-02T13:12:42Z</time>
      </trkpt>
      <trkpt lat="47.88655" lon="6.90902">
        <ele>773.2</ele>
        <time>2022-11-02T13:12:43Z</time>
      </trkpt>
      <trkpt lat="47.88654" lon="6.90904">
        <ele>773.2</ele>
        <time>2022-11-02T13:12:44Z</time>
      </trkpt>
      <trkpt lat="47.88653" lon="6.90905">
        <ele>773.4</ele>
        <time>2022-11-02T13:12:45Z</time>
      </trkpt>
      <trkpt lat="47.88653" lon="6.90906">
        <ele>773.2</ele>
        <time>2022-11-02T13:12:46Z</time>
      </trkpt>
      <trkpt lat="47.88652" lon="6.90908">
        <ele>773.2</ele>
        <time>2022-11-02T13:12:47Z</time>
      </trkpt>
      <trkpt lat="47.88651" lon="6.90909">
        <ele>773.4</ele>
        <time>2022-11-02T13:12:53Z</time>
      </trkpt>
      <trkpt lat="47.8865" lon="6.90911">
        <ele>773.3</ele>
        <time>2022-11-02T13:12:54Z</time>
      </trkpt>
      <trkpt lat="47.8865" lon="6.90912">
        <ele>773.1</ele>
        <time>2022-11-02T13:12:55Z</time>
      </trkpt>
      <trkpt lat="47.88649" lon="6.90913">
        <ele>773.2</ele>
        <time>2022-11-02T13:12:56Z</time>
      </trkpt>
      <trkpt lat="47.88649" lon="6.90914">
        <ele>773</ele>
        <time>2022-11-02T13:12:57Z</time>
      </trkpt>
      <trkpt lat="47.88648" lon="6.90915">
        <ele>773.1</ele>
        <time>2022-11-02T13:12:59Z</time>
      </trkpt>
      <trkpt lat="47.88648" lon="6.90917">
        <ele>772.7</ele>
        <time>2022-11-02T13:13:00Z</time>
      </trkpt>
      <trkpt lat="47.88647" lon="6.90918">
        <ele>772.8</ele>
        <time>2022-11-02T13:13:01Z</time>
      </trkpt>
      <trkpt lat="47.88647" lon="6.90919">
        <ele>772.6</ele>
        <time>2022-11-02T13:13:02Z</time>
      </trkpt>
      <trkpt lat="47.88647" lon="6.9092">
        <ele>772.4</ele>
        <time>2022-11-02T13:13:03Z</time>
      </trkpt>
      <trkpt lat="47.88646" lon="6.90921">
        <ele>772.6</ele>
        <time>2022-11-02T13:13:04Z</time>
      </trkpt>
      <trkpt lat="47.88645" lon="6.90922">
        <ele>772.8</ele>
        <time>2022-11-02T13:13:06Z</time>
      </trkpt>
      <trkpt lat="47.88645" lon="6.90923">
        <ele>772.6</ele>
        <time>2022-11-02T13:13:07Z</time>
      </trkpt>
      <trkpt lat="47.88645" lon="6.90924">
        <ele>772.4</ele>
        <time>2022-11-02T13:13:09Z</time>
      </trkpt>
      <trkpt lat="47.88644" lon="6.90925">
        <ele>772.5</ele>
        <time>2022-11-02T13:13:10Z</time>
      </trkpt>
      <trkpt lat="47.88644" lon="6.90926">
        <ele>772.4</ele>
        <time>2022-11-02T13:13:11Z</time>
      </trkpt>
      <trkpt lat="47.88643" lon="6.90927">
        <ele>772.5</ele>
        <time>2022-11-02T13:13:12Z</time>
      </trkpt>
      <trkpt lat="47.88642" lon="6.90928">
        <ele>772.7</ele>
        <time>2022-11-02T13:13:13Z</time>
      </trkpt>
      <trkpt lat="47.88641" lon="6.90929">
        <ele>773</ele>
        <time>2022-11-02T13:13:14Z</time>
      </trkpt>
      <trkpt lat="47.88641" lon="6.9093">
        <ele>772.8</ele>
        <time>2022-11-02T13:13:15Z</time>
      </trkpt>
      <trkpt lat="47.8864" lon="6.90932">
        <ele>772.8</ele>
        <time>2022-11-02T13:13:16Z</time>
      </trkpt>
      <trkpt lat="47.8864" lon="6.90934">
        <ele>772.4</ele>
        <time>2022-11-02T13:13:17Z</time>
      </trkpt>
      <trkpt lat="47.88639" lon="6.90936">
        <ele>772.5</ele>
        <time>2022-11-02T13:13:18Z</time>
      </trkpt>
      <trkpt lat="47.88638" lon="6.90938">
        <ele>772.6</ele>
        <time>2022-11-02T13:13:19Z</time>
      </trkpt>
      <trkpt lat="47.88637" lon="6.90939">
        <ele>772.9</ele>
        <time>2022-11-02T13:13:20Z</time>
      </trkpt>
      <trkpt lat="47.88637" lon="6.90941">
        <ele>772.5</ele>
        <time>2022-11-02T13:13:21Z</time>
      </trkpt>
      <trkpt lat="47.88636" lon="6.90942">
        <ele>772.8</ele>
        <time>2022-11-02T13:13:22Z</time>
      </trkpt>
      <trkpt lat="47.88635" lon="6.90943">
        <ele>773.1</ele>
        <time>2022-11-02T13:13:23Z</time>
      </trkpt>
      <trkpt lat="47.88634" lon="6.90945">
        <ele>773.1</ele>
        <time>2022-11-02T13:13:24Z</time>
      </trkpt>
      <trkpt lat="47.88634" lon="6.90946">
        <ele>772.8</ele>
        <time>2022-11-02T13:13:25Z</time>
      </trkpt>
      <trkpt lat="47.88633" lon="6.90947">
        <ele>773</ele>
        <time>2022-11-02T13:13:26Z</time>
      </trkpt>
      <trkpt lat="47.88632" lon="6.90948">
        <ele>773.1</ele>
        <time>2022-11-02T13:13:27Z</time>
      </trkpt>
      <trkpt lat="47.88631" lon="6.90949">
        <ele>773.3</ele>
        <time>2022-11-02T13:13:28Z</time>
      </trkpt>
      <trkpt lat="47.8863" lon="6.9095">
        <ele>773.5</ele>
        <time>2022-11-02T13:13:29Z</time>
      </trkpt>
      <trkpt lat="47.8863" lon="6.90951">
        <ele>773.2</ele>
        <time>2022-11-02T13:13:30Z</time>
      </trkpt>
      <trkpt lat="47.88629" lon="6.90952">
        <ele>773.4</ele>
        <time>2022-11-02T13:13:31Z</time>
      </trkpt>
      <trkpt lat="47.88628" lon="6.90954">
        <ele>773.3</ele>
        <time>2022-11-02T13:13:32Z</time>
      </trkpt>
      <trkpt lat="47.88628" lon="6.90956">
        <ele>772.7</ele>
        <time>2022-11-02T13:13:33Z</time>
      </trkpt>
      <trkpt lat="47.88627" lon="6.90958">
        <ele>772.6</ele>
        <time>2022-11-02T13:13:34Z</time>
      </trkpt>
      <trkpt lat="47.88626" lon="6.90959">
        <ele>772.8</ele>
        <time>2022-11-02T13:13:35Z</time>
      </trkpt>
      <trkpt lat="47.88626" lon="6.90961">
        <ele>772.2</ele>
        <time>2022-11-02T13:13:36Z</time>
      </trkpt>
      <trkpt lat="47.88624" lon="6.90965">
        <ele>772.1</ele>
        <time>2022-11-02T13:13:45Z</time>
      </trkpt>
      <trkpt lat="47.88624" lon="6.90967">
        <ele>771.5</ele>
        <time>2022-11-02T13:13:46Z</time>
      </trkpt>
      <trkpt lat="47.88624" lon="6.90969">
        <ele>771</ele>
        <time>2022-11-02T13:13:47Z</time>
      </trkpt>
      <trkpt lat="47.88623" lon="6.90971">
        <ele>770.9</ele>
        <time>2022-11-02T13:13:48Z</time>
      </trkpt>
      <trkpt lat="47.88622" lon="6.90973">
        <ele>771</ele>
        <time>2022-11-02T13:13:49Z</time>
      </trkpt>
      <trkpt lat="47.88621" lon="6.90974">
        <ele>771.3</ele>
        <time>2022-11-02T13:13:50Z</time>
      </trkpt>
      <trkpt lat="47.8862" lon="6.90975">
        <ele>771.6</ele>
        <time>2022-11-02T13:13:51Z</time>
      </trkpt>
      <trkpt lat="47.88618" lon="6.90977">
        <ele>772.3</ele>
        <time>2022-11-02T13:13:52Z</time>
      </trkpt>
      <trkpt lat="47.88617" lon="6.90978">
        <ele>772.7</ele>
        <time>2022-11-02T13:13:53Z</time>
      </trkpt>
      <trkpt lat="47.88615" lon="6.9098">
        <ele>773.4</ele>
        <time>2022-11-02T13:13:54Z</time>
      </trkpt>
      <trkpt lat="47.88613" lon="6.90981">
        <ele>774.4</ele>
        <time>2022-11-02T13:13:55Z</time>
      </trkpt>
      <trkpt lat="47.88612" lon="6.90983">
        <ele>774.6</ele>
        <time>2022-11-02T13:13:56Z</time>
      </trkpt>
      <trkpt lat="47.88611" lon="6.90984">
        <ele>775</ele>
        <time>2022-11-02T13:13:57Z</time>
      </trkpt>
      <trkpt lat="47.88611" lon="6.90986">
        <ele>774.6</ele>
        <time>2022-11-02T13:13:58Z</time>
      </trkpt>
      <trkpt lat="47.8861" lon="6.90987">
        <ele>775.1</ele>
        <time>2022-11-02T13:13:59Z</time>
      </trkpt>
      <trkpt lat="47.8861" lon="6.90988">
        <ele>774.9</ele>
        <time>2022-11-02T13:14:00Z</time>
      </trkpt>
      <trkpt lat="47.88609" lon="6.9099">
        <ele>775.2</ele>
        <time>2022-11-02T13:14:01Z</time>
      </trkpt>
      <trkpt lat="47.88609" lon="6.90991">
        <ele>775</ele>
        <time>2022-11-02T13:14:02Z</time>
      </trkpt>
      <trkpt lat="47.88609" lon="6.90992">
        <ele>774.8</ele>
        <time>2022-11-02T13:14:03Z</time>
      </trkpt>
      <trkpt lat="47.88609" lon="6.90994">
        <ele>774.4</ele>
        <time>2022-11-02T13:14:04Z</time>
      </trkpt>
      <trkpt lat="47.88609" lon="6.90995">
        <ele>774.3</ele>
        <time>2022-11-02T13:14:05Z</time>
      </trkpt>
      <trkpt lat="47.88608" lon="6.90997">
        <ele>774.6</ele>
        <time>2022-11-02T13:14:06Z</time>
      </trkpt>
      <trkpt lat="47.88608" lon="6.90998">
        <ele>774.4</ele>
        <time>2022-11-02T13:14:07Z</time>
      </trkpt>
      <trkpt lat="47.88607" lon="6.90999">
        <ele>774.8</ele>
        <time>2022-11-02T13:14:08Z</time>
      </trkpt>
      <trkpt lat="47.88606" lon="6.91">
        <ele>775.3</ele>
        <time>2022-11-02T13:14:09Z</time>
      </trkpt>
      <trkpt lat="47.88606" lon="6.91002">
        <ele>775</ele>
        <time>2022-11-02T13:14:10Z</time>
      </trkpt>
      <trkpt lat="47.88605" lon="6.91004">
        <ele>775.3</ele>
        <time>2022-11-02T13:14:11Z</time>
      </trkpt>
      <trkpt lat="47.88604" lon="6.91006">
        <ele>775.6</ele>
        <time>2022-11-02T13:14:12Z</time>
      </trkpt>
      <trkpt lat="47.88604" lon="6.91007">
        <ele>775.4</ele>
        <time>2022-11-02T13:14:13Z</time>
      </trkpt>
      <trkpt lat="47.88603" lon="6.91008">
        <ele>775.9</ele>
        <time>2022-11-02T13:14:14Z</time>
      </trkpt>
      <trkpt lat="47.88603" lon="6.9101">
        <ele>775.6</ele>
        <time>2022-11-02T13:14:15Z</time>
      </trkpt>
      <trkpt lat="47.88603" lon="6.91011">
        <ele>775.4</ele>
        <time>2022-11-02T13:14:16Z</time>
      </trkpt>
      <trkpt lat="47.88602" lon="6.91012">
        <ele>775.9</ele>
        <time>2022-11-02T13:14:17Z</time>
      </trkpt>
      <trkpt lat="47.88602" lon="6.91013">
        <ele>775.7</ele>
        <time>2022-11-02T13:14:18Z</time>
      </trkpt>
      <trkpt lat="47.88601" lon="6.91013">
        <ele>776.4</ele>
        <time>2022-11-02T13:14:19Z</time>
      </trkpt>
      <trkpt lat="47.88601" lon="6.91014">
        <ele>776.2</ele>
        <time>2022-11-02T13:14:20Z</time>
      </trkpt>
      <trkpt lat="47.886" lon="6.91015">
        <ele>776.7</ele>
        <time>2022-11-02T13:14:21Z</time>
      </trkpt>
      <trkpt lat="47.886" lon="6.91016">
        <ele>776.6</ele>
        <time>2022-11-02T13:14:22Z</time>
      </trkpt>
      <trkpt lat="47.886" lon="6.91018">
        <ele>776.2</ele>
        <time>2022-11-02T13:14:23Z</time>
      </trkpt>
      <trkpt lat="47.886" lon="6.91019">
        <ele>776.1</ele>
        <time>2022-11-02T13:14:24Z</time>
      </trkpt>
      <trkpt lat="47.886" lon="6.91021">
        <ele>775.7</ele>
        <time>2022-11-02T13:14:25Z</time>
      </trkpt>
      <trkpt lat="47.886" lon="6.91022">
        <ele>775.6</ele>
        <time>2022-11-02T13:14:26Z</time>
      </trkpt>
      <trkpt lat="47.88599" lon="6.91024">
        <ele>775.9</ele>
        <time>2022-11-02T13:14:27Z</time>
      </trkpt>
      <trkpt lat="47.88599" lon="6.91026">
        <ele>775.6</ele>
        <time>2022-11-02T13:14:28Z</time>
      </trkpt>
      <trkpt lat="47.88598" lon="6.91028">
        <ele>775.9</ele>
        <time>2022-11-02T13:14:29Z</time>
      </trkpt>
      <trkpt lat="47.88598" lon="6.91029">
        <ele>775.7</ele>
        <time>2022-11-02T13:14:30Z</time>
      </trkpt>
      <trkpt lat="47.88598" lon="6.91031">
        <ele>775.4</ele>
        <time>2022-11-02T13:14:31Z</time>
      </trkpt>
      <trkpt lat="47.88598" lon="6.91032">
        <ele>775.2</ele>
        <time>2022-11-02T13:14:32Z</time>
      </trkpt>
      <trkpt lat="47.88598" lon="6.91034">
        <ele>774.8</ele>
        <time>2022-11-02T13:14:33Z</time>
      </trkpt>
      <trkpt lat="47.88598" lon="6.91035">
        <ele>774.7</ele>
        <time>2022-11-02T13:14:34Z</time>
      </trkpt>
      <trkpt lat="47.88599" lon="6.91036">
        <ele>773.8</ele>
        <time>2022-11-02T13:14:35Z</time>
      </trkpt>
      <trkpt lat="47.88599" lon="6.91037">
        <ele>773.6</ele>
        <time>2022-11-02T13:14:36Z</time>
      </trkpt>
      <trkpt lat="47.88599" lon="6.91039">
        <ele>773.3</ele>
        <time>2022-11-02T13:14:37Z</time>
      </trkpt>
      <trkpt lat="47.88599" lon="6.9104">
        <ele>773.1</ele>
        <time>2022-11-02T13:14:38Z</time>
      </trkpt>
      <trkpt lat="47.88599" lon="6.91041">
        <ele>772.9</ele>
        <time>2022-11-02T13:14:39Z</time>
      </trkpt>
      <trkpt lat="47.88598" lon="6.91042">
        <ele>773.4</ele>
        <time>2022-11-02T13:14:40Z</time>
      </trkpt>
      <trkpt lat="47.88598" lon="6.91044">
        <ele>773</ele>
        <time>2022-11-02T13:14:41Z</time>
      </trkpt>
      <trkpt lat="47.88598" lon="6.91046">
        <ele>772.7</ele>
        <time>2022-11-02T13:14:42Z</time>
      </trkpt>
      <trkpt lat="47.88598" lon="6.91047">
        <ele>772.5</ele>
        <time>2022-11-02T13:14:43Z</time>
      </trkpt>
      <trkpt lat="47.88598" lon="6.91049">
        <ele>772.1</ele>
        <time>2022-11-02T13:14:44Z</time>
      </trkpt>
      <trkpt lat="47.88597" lon="6.91051">
        <ele>772.5</ele>
        <time>2022-11-02T13:14:45Z</time>
      </trkpt>
      <trkpt lat="47.88597" lon="6.91053">
        <ele>772.1</ele>
        <time>2022-11-02T13:14:46Z</time>
      </trkpt>
      <trkpt lat="47.88596" lon="6.91054">
        <ele>772.6</ele>
        <time>2022-11-02T13:14:47Z</time>
      </trkpt>
      <trkpt lat="47.88596" lon="6.91056">
        <ele>772.3</ele>
        <time>2022-11-02T13:14:48Z</time>
      </trkpt>
      <trkpt lat="47.88595" lon="6.91058">
        <ele>772.7</ele>
        <time>2022-11-02T13:14:49Z</time>
      </trkpt>
      <trkpt lat="47.88595" lon="6.9106">
        <ele>772.4</ele>
        <time>2022-11-02T13:14:50Z</time>
      </trkpt>
      <trkpt lat="47.88595" lon="6.91061">
        <ele>772.2</ele>
        <time>2022-11-02T13:14:51Z</time>
      </trkpt>
      <trkpt lat="47.88595" lon="6.91063">
        <ele>771.9</ele>
        <time>2022-11-02T13:14:52Z</time>
      </trkpt>
      <trkpt lat="47.88595" lon="6.91064">
        <ele>771.8</ele>
        <time>2022-11-02T13:14:53Z</time>
      </trkpt>
      <trkpt lat="47.88595" lon="6.91066">
        <ele>771.5</ele>
        <time>2022-11-02T13:14:54Z</time>
      </trkpt>
      <trkpt lat="47.88595" lon="6.91067">
        <ele>771.4</ele>
        <time>2022-11-02T13:14:55Z</time>
      </trkpt>
      <trkpt lat="47.88594" lon="6.91069">
        <ele>771.8</ele>
        <time>2022-11-02T13:14:56Z</time>
      </trkpt>
      <trkpt lat="47.88594" lon="6.9107">
        <ele>771.6</ele>
        <time>2022-11-02T13:14:57Z</time>
      </trkpt>
      <trkpt lat="47.88593" lon="6.91071">
        <ele>772.2</ele>
        <time>2022-11-02T13:14:58Z</time>
      </trkpt>
      <trkpt lat="47.88593" lon="6.91073">
        <ele>771.9</ele>
        <time>2022-11-02T13:14:59Z</time>
      </trkpt>
      <trkpt lat="47.88592" lon="6.91074">
        <ele>772.4</ele>
        <time>2022-11-02T13:15:00Z</time>
      </trkpt>
      <trkpt lat="47.88592" lon="6.91075">
        <ele>772.3</ele>
        <time>2022-11-02T13:15:01Z</time>
      </trkpt>
      <trkpt lat="47.88591" lon="6.91076">
        <ele>772.8</ele>
        <time>2022-11-02T13:15:02Z</time>
      </trkpt>
      <trkpt lat="47.88591" lon="6.91077">
        <ele>772.7</ele>
        <time>2022-11-02T13:15:03Z</time>
      </trkpt>
      <trkpt lat="47.8859" lon="6.91078">
        <ele>773.2</ele>
        <time>2022-11-02T13:15:04Z</time>
      </trkpt>
      <trkpt lat="47.88589" lon="6.91079">
        <ele>773.7</ele>
        <time>2022-11-02T13:15:05Z</time>
      </trkpt>
      <trkpt lat="47.88588" lon="6.9108">
        <ele>774.3</ele>
        <time>2022-11-02T13:15:06Z</time>
      </trkpt>
      <trkpt lat="47.88588" lon="6.91081">
        <ele>774.1</ele>
        <time>2022-11-02T13:15:07Z</time>
      </trkpt>
      <trkpt lat="47.88587" lon="6.91083">
        <ele>774.5</ele>
        <time>2022-11-02T13:15:08Z</time>
      </trkpt>
      <trkpt lat="47.88587" lon="6.91084">
        <ele>774.4</ele>
        <time>2022-11-02T13:15:09Z</time>
      </trkpt>
      <trkpt lat="47.88586" lon="6.91086">
        <ele>774.9</ele>
        <time>2022-11-02T13:15:10Z</time>
      </trkpt>
      <trkpt lat="47.88585" lon="6.91087">
        <ele>775.5</ele>
        <time>2022-11-02T13:15:11Z</time>
      </trkpt>
      <trkpt lat="47.88584" lon="6.91088">
        <ele>776</ele>
        <time>2022-11-02T13:15:12Z</time>
      </trkpt>
      <trkpt lat="47.88583" lon="6.91089">
        <ele>776.6</ele>
        <time>2022-11-02T13:15:13Z</time>
      </trkpt>
      <trkpt lat="47.88582" lon="6.91091">
        <ele>777.1</ele>
        <time>2022-11-02T13:15:14Z</time>
      </trkpt>
      <trkpt lat="47.88581" lon="6.91092">
        <ele>777.7</ele>
        <time>2022-11-02T13:15:15Z</time>
      </trkpt>
      <trkpt lat="47.8858" lon="6.91093">
        <ele>778.3</ele>
        <time>2022-11-02T13:15:16Z</time>
      </trkpt>
      <trkpt lat="47.88579" lon="6.91095">
        <ele>778.8</ele>
        <time>2022-11-02T13:15:17Z</time>
      </trkpt>
      <trkpt lat="47.88578" lon="6.91096">
        <ele>779.4</ele>
        <time>2022-11-02T13:15:18Z</time>
      </trkpt>
      <trkpt lat="47.88577" lon="6.91097">
        <ele>780</ele>
        <time>2022-11-02T13:15:19Z</time>
      </trkpt>
      <trkpt lat="47.88577" lon="6.91099">
        <ele>779.8</ele>
        <time>2022-11-02T13:15:20Z</time>
      </trkpt>
      <trkpt lat="47.88576" lon="6.911">
        <ele>780.4</ele>
        <time>2022-11-02T13:15:21Z</time>
      </trkpt>
      <trkpt lat="47.88576" lon="6.91102">
        <ele>780.2</ele>
        <time>2022-11-02T13:15:22Z</time>
      </trkpt>
      <trkpt lat="47.88575" lon="6.91103">
        <ele>780.8</ele>
        <time>2022-11-02T13:15:23Z</time>
      </trkpt>
      <trkpt lat="47.88575" lon="6.91104">
        <ele>780.7</ele>
        <time>2022-11-02T13:15:24Z</time>
      </trkpt>
      <trkpt lat="47.88575" lon="6.91105">
        <ele>780.6</ele>
        <time>2022-11-02T13:15:25Z</time>
      </trkpt>
      <trkpt lat="47.88575" lon="6.91106">
        <ele>780.5</ele>
        <time>2022-11-02T13:15:27Z</time>
      </trkpt>
      <trkpt lat="47.88574" lon="6.91105">
        <ele>781.3</ele>
        <time>2022-11-02T13:16:58Z</time>
      </trkpt>
      <trkpt lat="47.88573" lon="6.91106">
        <ele>781.9</ele>
        <time>2022-11-02T13:16:59Z</time>
      </trkpt>
      <trkpt lat="47.88572" lon="6.91107">
        <ele>782.5</ele>
        <time>2022-11-02T13:17:01Z</time>
      </trkpt>
      <trkpt lat="47.88572" lon="6.91109">
        <ele>782.4</ele>
        <time>2022-11-02T13:17:03Z</time>
      </trkpt>
      <trkpt lat="47.88571" lon="6.9111">
        <ele>783</ele>
        <time>2022-11-02T13:17:04Z</time>
      </trkpt>
      <trkpt lat="47.88571" lon="6.91112">
        <ele>782.8</ele>
        <time>2022-11-02T13:17:05Z</time>
      </trkpt>
      <trkpt lat="47.88571" lon="6.91114">
        <ele>782.7</ele>
        <time>2022-11-02T13:17:06Z</time>
      </trkpt>
      <trkpt lat="47.8857" lon="6.91115">
        <ele>783.3</ele>
        <time>2022-11-02T13:17:07Z</time>
      </trkpt>
      <trkpt lat="47.8857" lon="6.91117">
        <ele>783.2</ele>
        <time>2022-11-02T13:17:08Z</time>
      </trkpt>
      <trkpt lat="47.8857" lon="6.91119">
        <ele>783</ele>
        <time>2022-11-02T13:17:09Z</time>
      </trkpt>
      <trkpt lat="47.8857" lon="6.9112">
        <ele>783</ele>
        <time>2022-11-02T13:17:10Z</time>
      </trkpt>
      <trkpt lat="47.8857" lon="6.91122">
        <ele>782.8</ele>
        <time>2022-11-02T13:17:11Z</time>
      </trkpt>
      <trkpt lat="47.8857" lon="6.91123">
        <ele>782.7</ele>
        <time>2022-11-02T13:17:12Z</time>
      </trkpt>
      <trkpt lat="47.88571" lon="6.91125">
        <ele>781.9</ele>
        <time>2022-11-02T13:17:13Z</time>
      </trkpt>
      <trkpt lat="47.88571" lon="6.91126">
        <ele>781.8</ele>
        <time>2022-11-02T13:17:14Z</time>
      </trkpt>
      <trkpt lat="47.88572" lon="6.91127">
        <ele>781</ele>
        <time>2022-11-02T13:17:15Z</time>
      </trkpt>
      <trkpt lat="47.88572" lon="6.91129">
        <ele>780.9</ele>
        <time>2022-11-02T13:17:16Z</time>
      </trkpt>
      <trkpt lat="47.88571" lon="6.91131">
        <ele>781.4</ele>
        <time>2022-11-02T13:17:17Z</time>
      </trkpt>
      <trkpt lat="47.8857" lon="6.91133">
        <ele>782</ele>
        <time>2022-11-02T13:17:18Z</time>
      </trkpt>
      <trkpt lat="47.88569" lon="6.91135">
        <ele>782.6</ele>
        <time>2022-11-02T13:17:19Z</time>
      </trkpt>
      <trkpt lat="47.88568" lon="6.91137">
        <ele>783.2</ele>
        <time>2022-11-02T13:17:20Z</time>
      </trkpt>
      <trkpt lat="47.88567" lon="6.91138">
        <ele>783.8</ele>
        <time>2022-11-02T13:17:21Z</time>
      </trkpt>
      <trkpt lat="47.88567" lon="6.9114">
        <ele>783.8</ele>
        <time>2022-11-02T13:17:22Z</time>
      </trkpt>
      <trkpt lat="47.88566" lon="6.91141">
        <ele>784.6</ele>
        <time>2022-11-02T13:17:23Z</time>
      </trkpt>
      <trkpt lat="47.88566" lon="6.91143">
        <ele>784.7</ele>
        <time>2022-11-02T13:17:24Z</time>
      </trkpt>
      <trkpt lat="47.88566" lon="6.91145">
        <ele>784.8</ele>
        <time>2022-11-02T13:17:25Z</time>
      </trkpt>
      <trkpt lat="47.88566" lon="6.91146">
        <ele>784.8</ele>
        <time>2022-11-02T13:17:26Z</time>
      </trkpt>
      <trkpt lat="47.88566" lon="6.91148">
        <ele>784.9</ele>
        <time>2022-11-02T13:17:27Z</time>
      </trkpt>
      <trkpt lat="47.88566" lon="6.91149">
        <ele>784.9</ele>
        <time>2022-11-02T13:17:28Z</time>
      </trkpt>
      <trkpt lat="47.88566" lon="6.91151">
        <ele>785</ele>
        <time>2022-11-02T13:17:29Z</time>
      </trkpt>
      <trkpt lat="47.88566" lon="6.91152">
        <ele>785.1</ele>
        <time>2022-11-02T13:17:30Z</time>
      </trkpt>
      <trkpt lat="47.88566" lon="6.91154">
        <ele>785.2</ele>
        <time>2022-11-02T13:17:31Z</time>
      </trkpt>
      <trkpt lat="47.88566" lon="6.91155">
        <ele>785.2</ele>
        <time>2022-11-02T13:17:32Z</time>
      </trkpt>
      <trkpt lat="47.88566" lon="6.91157">
        <ele>785.3</ele>
        <time>2022-11-02T13:17:33Z</time>
      </trkpt>
      <trkpt lat="47.88566" lon="6.91159">
        <ele>785.4</ele>
        <time>2022-11-02T13:17:34Z</time>
      </trkpt>
      <trkpt lat="47.88566" lon="6.9116">
        <ele>785.4</ele>
        <time>2022-11-02T13:17:35Z</time>
      </trkpt>
      <trkpt lat="47.88567" lon="6.91162">
        <ele>784.7</ele>
        <time>2022-11-02T13:17:36Z</time>
      </trkpt>
      <trkpt lat="47.88567" lon="6.91163">
        <ele>784.8</ele>
        <time>2022-11-02T13:17:37Z</time>
      </trkpt>
      <trkpt lat="47.88567" lon="6.91165">
        <ele>784.9</ele>
        <time>2022-11-02T13:17:38Z</time>
      </trkpt>
      <trkpt lat="47.88567" lon="6.91166">
        <ele>784.9</ele>
        <time>2022-11-02T13:17:39Z</time>
      </trkpt>
      <trkpt lat="47.88567" lon="6.91167">
        <ele>784.9</ele>
        <time>2022-11-02T13:17:40Z</time>
      </trkpt>
      <trkpt lat="47.88567" lon="6.91168">
        <ele>785</ele>
        <time>2022-11-02T13:17:41Z</time>
      </trkpt>
      <trkpt lat="47.88567" lon="6.91169">
        <ele>785</ele>
        <time>2022-11-02T13:17:42Z</time>
      </trkpt>
      <trkpt lat="47.88568" lon="6.91171">
        <ele>784.2</ele>
        <time>2022-11-02T13:17:43Z</time>
      </trkpt>
      <trkpt lat="47.88568" lon="6.91172">
        <ele>784.2</ele>
        <time>2022-11-02T13:17:44Z</time>
      </trkpt>
      <trkpt lat="47.88569" lon="6.91173">
        <ele>783.5</ele>
        <time>2022-11-02T13:17:45Z</time>
      </trkpt>
      <trkpt lat="47.8857" lon="6.91175">
        <ele>782.7</ele>
        <time>2022-11-02T13:17:46Z</time>
      </trkpt>
      <trkpt lat="47.8857" lon="6.91177">
        <ele>782.8</ele>
        <time>2022-11-02T13:17:47Z</time>
      </trkpt>
      <trkpt lat="47.88571" lon="6.91179">
        <ele>782</ele>
        <time>2022-11-02T13:17:48Z</time>
      </trkpt>
      <trkpt lat="47.88571" lon="6.91181">
        <ele>782.1</ele>
        <time>2022-11-02T13:17:49Z</time>
      </trkpt>
      <trkpt lat="47.88571" lon="6.91183">
        <ele>782.1</ele>
        <time>2022-11-02T13:17:50Z</time>
      </trkpt>
      <trkpt lat="47.88571" lon="6.91186">
        <ele>782.2</ele>
        <time>2022-11-02T13:17:51Z</time>
      </trkpt>
      <trkpt lat="47.88571" lon="6.91188">
        <ele>782.2</ele>
        <time>2022-11-02T13:17:52Z</time>
      </trkpt>
      <trkpt lat="47.88572" lon="6.9119">
        <ele>781.5</ele>
        <time>2022-11-02T13:17:53Z</time>
      </trkpt>
      <trkpt lat="47.88572" lon="6.91192">
        <ele>781.5</ele>
        <time>2022-11-02T13:17:54Z</time>
      </trkpt>
      <trkpt lat="47.88572" lon="6.91194">
        <ele>781.6</ele>
        <time>2022-11-02T13:17:55Z</time>
      </trkpt>
      <trkpt lat="47.88572" lon="6.91195">
        <ele>781.5</ele>
        <time>2022-11-02T13:17:56Z</time>
      </trkpt>
      <trkpt lat="47.88571" lon="6.91197">
        <ele>782.1</ele>
        <time>2022-11-02T13:17:57Z</time>
      </trkpt>
      <trkpt lat="47.88571" lon="6.91198">
        <ele>782.1</ele>
        <time>2022-11-02T13:17:58Z</time>
      </trkpt>
      <trkpt lat="47.8857" lon="6.912">
        <ele>782.7</ele>
        <time>2022-11-02T13:17:59Z</time>
      </trkpt>
      <trkpt lat="47.8857" lon="6.91201">
        <ele>782.6</ele>
        <time>2022-11-02T13:18:00Z</time>
      </trkpt>
      <trkpt lat="47.88569" lon="6.91203">
        <ele>783.2</ele>
        <time>2022-11-02T13:18:01Z</time>
      </trkpt>
      <trkpt lat="47.88569" lon="6.91204">
        <ele>783.1</ele>
        <time>2022-11-02T13:18:02Z</time>
      </trkpt>
      <trkpt lat="47.88569" lon="6.91206">
        <ele>783</ele>
        <time>2022-11-02T13:18:03Z</time>
      </trkpt>
      <trkpt lat="47.88569" lon="6.91208">
        <ele>782.9</ele>
        <time>2022-11-02T13:18:04Z</time>
      </trkpt>
      <trkpt lat="47.88569" lon="6.91209">
        <ele>782.8</ele>
        <time>2022-11-02T13:18:05Z</time>
      </trkpt>
      <trkpt lat="47.88569" lon="6.91211">
        <ele>782.6</ele>
        <time>2022-11-02T13:18:06Z</time>
      </trkpt>
      <trkpt lat="47.88569" lon="6.91213">
        <ele>782.5</ele>
        <time>2022-11-02T13:18:07Z</time>
      </trkpt>
      <trkpt lat="47.88569" lon="6.91215">
        <ele>782.4</ele>
        <time>2022-11-02T13:18:08Z</time>
      </trkpt>
      <trkpt lat="47.88568" lon="6.91216">
        <ele>783</ele>
        <time>2022-11-02T13:18:09Z</time>
      </trkpt>
      <trkpt lat="47.88567" lon="6.91218">
        <ele>783.7</ele>
        <time>2022-11-02T13:18:10Z</time>
      </trkpt>
      <trkpt lat="47.88567" lon="6.9122">
        <ele>783.5</ele>
        <time>2022-11-02T13:18:11Z</time>
      </trkpt>
      <trkpt lat="47.88566" lon="6.91221">
        <ele>784.2</ele>
        <time>2022-11-02T13:18:12Z</time>
      </trkpt>
      <trkpt lat="47.88565" lon="6.91223">
        <ele>784.8</ele>
        <time>2022-11-02T13:18:13Z</time>
      </trkpt>
      <trkpt lat="47.88565" lon="6.91224">
        <ele>784.8</ele>
        <time>2022-11-02T13:18:14Z</time>
      </trkpt>
      <trkpt lat="47.88565" lon="6.91226">
        <ele>784.8</ele>
        <time>2022-11-02T13:18:15Z</time>
      </trkpt>
      <trkpt lat="47.88565" lon="6.91227">
        <ele>784.7</ele>
        <time>2022-11-02T13:18:16Z</time>
      </trkpt>
      <trkpt lat="47.88565" lon="6.91228">
        <ele>784.7</ele>
        <time>2022-11-02T13:18:17Z</time>
      </trkpt>
      <trkpt lat="47.88566" lon="6.9123">
        <ele>783.9</ele>
        <time>2022-11-02T13:18:18Z</time>
      </trkpt>
      <trkpt lat="47.88566" lon="6.91231">
        <ele>783.9</ele>
        <time>2022-11-02T13:18:19Z</time>
      </trkpt>
      <trkpt lat="47.88566" lon="6.91233">
        <ele>783.8</ele>
        <time>2022-11-02T13:18:20Z</time>
      </trkpt>
      <trkpt lat="47.88566" lon="6.91234">
        <ele>783.8</ele>
        <time>2022-11-02T13:18:21Z</time>
      </trkpt>
      <trkpt lat="47.88567" lon="6.91236">
        <ele>782.9</ele>
        <time>2022-11-02T13:18:22Z</time>
      </trkpt>
      <trkpt lat="47.88567" lon="6.91238">
        <ele>782.9</ele>
        <time>2022-11-02T13:18:23Z</time>
      </trkpt>
      <trkpt lat="47.88568" lon="6.9124">
        <ele>782</ele>
        <time>2022-11-02T13:18:24Z</time>
      </trkpt>
      <trkpt lat="47.88568" lon="6.91241">
        <ele>782</ele>
        <time>2022-11-02T13:18:25Z</time>
      </trkpt>
      <trkpt lat="47.88568" lon="6.91243">
        <ele>781.9</ele>
        <time>2022-11-02T13:18:26Z</time>
      </trkpt>
      <trkpt lat="47.88568" lon="6.91244">
        <ele>781.9</ele>
        <time>2022-11-02T13:18:27Z</time>
      </trkpt>
      <trkpt lat="47.88568" lon="6.91246">
        <ele>781.8</ele>
        <time>2022-11-02T13:18:28Z</time>
      </trkpt>
      <trkpt lat="47.88568" lon="6.91247">
        <ele>781.8</ele>
        <time>2022-11-02T13:18:29Z</time>
      </trkpt>
      <trkpt lat="47.88568" lon="6.91248">
        <ele>781.8</ele>
        <time>2022-11-02T13:18:30Z</time>
      </trkpt>
      <trkpt lat="47.88568" lon="6.9125">
        <ele>781.7</ele>
        <time>2022-11-02T13:18:31Z</time>
      </trkpt>
      <trkpt lat="47.88567" lon="6.91251">
        <ele>782.5</ele>
        <time>2022-11-02T13:18:32Z</time>
      </trkpt>
      <trkpt lat="47.88567" lon="6.91253">
        <ele>782.4</ele>
        <time>2022-11-02T13:18:34Z</time>
      </trkpt>
      <trkpt lat="47.88566" lon="6.91254">
        <ele>783.2</ele>
        <time>2022-11-02T13:18:35Z</time>
      </trkpt>
      <trkpt lat="47.88567" lon="6.91256">
        <ele>782.3</ele>
        <time>2022-11-02T13:18:36Z</time>
      </trkpt>
      <trkpt lat="47.88567" lon="6.91257">
        <ele>782.2</ele>
        <time>2022-11-02T13:18:37Z</time>
      </trkpt>
      <trkpt lat="47.88567" lon="6.91259">
        <ele>782.1</ele>
        <time>2022-11-02T13:18:38Z</time>
      </trkpt>
      <trkpt lat="47.88568" lon="6.9126">
        <ele>781.2</ele>
        <time>2022-11-02T13:18:39Z</time>
      </trkpt>
      <trkpt lat="47.88568" lon="6.91262">
        <ele>781.1</ele>
        <time>2022-11-02T13:18:40Z</time>
      </trkpt>
      <trkpt lat="47.88568" lon="6.91263">
        <ele>781.1</ele>
        <time>2022-11-02T13:18:41Z</time>
      </trkpt>
      <trkpt lat="47.88568" lon="6.91264">
        <ele>781</ele>
        <time>2022-11-02T13:18:42Z</time>
      </trkpt>
      <trkpt lat="47.88568" lon="6.91266">
        <ele>780.9</ele>
        <time>2022-11-02T13:18:43Z</time>
      </trkpt>
      <trkpt lat="47.88568" lon="6.91267">
        <ele>780.9</ele>
        <time>2022-11-02T13:18:44Z</time>
      </trkpt>
      <trkpt lat="47.88568" lon="6.91269">
        <ele>780.8</ele>
        <time>2022-11-02T13:18:45Z</time>
      </trkpt>
      <trkpt lat="47.88568" lon="6.9127">
        <ele>780.7</ele>
        <time>2022-11-02T13:18:46Z</time>
      </trkpt>
      <trkpt lat="47.88568" lon="6.91271">
        <ele>780.7</ele>
        <time>2022-11-02T13:18:47Z</time>
      </trkpt>
      <trkpt lat="47.88568" lon="6.91272">
        <ele>780.6</ele>
        <time>2022-11-02T13:18:48Z</time>
      </trkpt>
      <trkpt lat="47.88568" lon="6.91274">
        <ele>780.5</ele>
        <time>2022-11-02T13:18:49Z</time>
      </trkpt>
      <trkpt lat="47.88568" lon="6.91275">
        <ele>780.5</ele>
        <time>2022-11-02T13:18:50Z</time>
      </trkpt>
      <trkpt lat="47.88568" lon="6.91276">
        <ele>780.4</ele>
        <time>2022-11-02T13:18:51Z</time>
      </trkpt>
      <trkpt lat="47.88568" lon="6.91278">
        <ele>780.3</ele>
        <time>2022-11-02T13:18:52Z</time>
      </trkpt>
      <trkpt lat="47.88569" lon="6.91279">
        <ele>779.4</ele>
        <time>2022-11-02T13:18:53Z</time>
      </trkpt>
      <trkpt lat="47.88568" lon="6.9128">
        <ele>780.3</ele>
        <time>2022-11-02T13:18:54Z</time>
      </trkpt>
      <trkpt lat="47.88568" lon="6.91282">
        <ele>780.2</ele>
        <time>2022-11-02T13:18:55Z</time>
      </trkpt>
      <trkpt lat="47.88568" lon="6.91283">
        <ele>780.2</ele>
        <time>2022-11-02T13:18:56Z</time>
      </trkpt>
      <trkpt lat="47.88568" lon="6.91284">
        <ele>780.1</ele>
        <time>2022-11-02T13:18:58Z</time>
      </trkpt>
      <trkpt lat="47.88568" lon="6.91285">
        <ele>780.1</ele>
        <time>2022-11-02T13:18:59Z</time>
      </trkpt>
      <trkpt lat="47.88568" lon="6.91286">
        <ele>780.1</ele>
        <time>2022-11-02T13:19:00Z</time>
      </trkpt>
      <trkpt lat="47.88569" lon="6.91287">
        <ele>779.1</ele>
        <time>2022-11-02T13:19:01Z</time>
      </trkpt>
      <trkpt lat="47.88569" lon="6.91288">
        <ele>779</ele>
        <time>2022-11-02T13:19:02Z</time>
      </trkpt>
      <trkpt lat="47.88569" lon="6.91289">
        <ele>779</ele>
        <time>2022-11-02T13:19:03Z</time>
      </trkpt>
      <trkpt lat="47.88569" lon="6.9129">
        <ele>779</ele>
        <time>2022-11-02T13:19:04Z</time>
      </trkpt>
      <trkpt lat="47.88569" lon="6.91292">
        <ele>778.9</ele>
        <time>2022-11-02T13:19:05Z</time>
      </trkpt>
      <trkpt lat="47.88568" lon="6.91294">
        <ele>779.8</ele>
        <time>2022-11-02T13:19:06Z</time>
      </trkpt>
      <trkpt lat="47.88568" lon="6.91295">
        <ele>779.7</ele>
        <time>2022-11-02T13:19:07Z</time>
      </trkpt>
      <trkpt lat="47.88567" lon="6.91297">
        <ele>780.6</ele>
        <time>2022-11-02T13:19:08Z</time>
      </trkpt>
      <trkpt lat="47.88567" lon="6.91298">
        <ele>780.6</ele>
        <time>2022-11-02T13:19:09Z</time>
      </trkpt>
      <trkpt lat="47.88567" lon="6.913">
        <ele>780.5</ele>
        <time>2022-11-02T13:19:10Z</time>
      </trkpt>
      <trkpt lat="47.88567" lon="6.91301">
        <ele>780.5</ele>
        <time>2022-11-02T13:19:11Z</time>
      </trkpt>
      <trkpt lat="47.88567" lon="6.91303">
        <ele>780.4</ele>
        <time>2022-11-02T13:19:12Z</time>
      </trkpt>
      <trkpt lat="47.88568" lon="6.91304">
        <ele>779.4</ele>
        <time>2022-11-02T13:19:13Z</time>
      </trkpt>
      <trkpt lat="47.88568" lon="6.91306">
        <ele>779.3</ele>
        <time>2022-11-02T13:19:14Z</time>
      </trkpt>
      <trkpt lat="47.88568" lon="6.91307">
        <ele>779.2</ele>
        <time>2022-11-02T13:19:15Z</time>
      </trkpt>
      <trkpt lat="47.88567" lon="6.91308">
        <ele>780</ele>
        <time>2022-11-02T13:19:16Z</time>
      </trkpt>
      <trkpt lat="47.88567" lon="6.91309">
        <ele>779.9</ele>
        <time>2022-11-02T13:19:17Z</time>
      </trkpt>
      <trkpt lat="47.88567" lon="6.9131">
        <ele>779.8</ele>
        <time>2022-11-02T13:19:18Z</time>
      </trkpt>
      <trkpt lat="47.88567" lon="6.91311">
        <ele>779.7</ele>
        <time>2022-11-02T13:19:20Z</time>
      </trkpt>
      <trkpt lat="47.88566" lon="6.91311">
        <ele>780.6</ele>
        <time>2022-11-02T13:19:21Z</time>
      </trkpt>
      <trkpt lat="47.88566" lon="6.91313">
        <ele>780.4</ele>
        <time>2022-11-02T13:19:22Z</time>
      </trkpt>
      <trkpt lat="47.88566" lon="6.91314">
        <ele>780.3</ele>
        <time>2022-11-02T13:19:23Z</time>
      </trkpt>
      <trkpt lat="47.88566" lon="6.91315">
        <ele>780.2</ele>
        <time>2022-11-02T13:19:25Z</time>
      </trkpt>
      <trkpt lat="47.88566" lon="6.91316">
        <ele>780.1</ele>
        <time>2022-11-02T13:19:26Z</time>
      </trkpt>
      <trkpt lat="47.88566" lon="6.91317">
        <ele>780</ele>
        <time>2022-11-02T13:19:28Z</time>
      </trkpt>
      <trkpt lat="47.88565" lon="6.91318">
        <ele>780.8</ele>
        <time>2022-11-02T13:19:29Z</time>
      </trkpt>
      <trkpt lat="47.88565" lon="6.91319">
        <ele>780.7</ele>
        <time>2022-11-02T13:19:32Z</time>
      </trkpt>
      <trkpt lat="47.88564" lon="6.9132">
        <ele>781.5</ele>
        <time>2022-11-02T13:19:34Z</time>
      </trkpt>
      <trkpt lat="47.88564" lon="6.91321">
        <ele>781.4</ele>
        <time>2022-11-02T13:19:35Z</time>
      </trkpt>
      <trkpt lat="47.88564" lon="6.91322">
        <ele>781.3</ele>
        <time>2022-11-02T13:19:36Z</time>
      </trkpt>
      <trkpt lat="47.88564" lon="6.91325">
        <ele>781</ele>
        <time>2022-11-02T13:19:46Z</time>
      </trkpt>
      <trkpt lat="47.88564" lon="6.91326">
        <ele>780.9</ele>
        <time>2022-11-02T13:19:47Z</time>
      </trkpt>
      <trkpt lat="47.88564" lon="6.91327">
        <ele>780.8</ele>
        <time>2022-11-02T13:19:48Z</time>
      </trkpt>
      <trkpt lat="47.88564" lon="6.91328">
        <ele>780.7</ele>
        <time>2022-11-02T13:19:49Z</time>
      </trkpt>
      <trkpt lat="47.88563" lon="6.9133">
        <ele>781.4</ele>
        <time>2022-11-02T13:19:50Z</time>
      </trkpt>
      <trkpt lat="47.88563" lon="6.91331">
        <ele>781.3</ele>
        <time>2022-11-02T13:19:51Z</time>
      </trkpt>
      <trkpt lat="47.88563" lon="6.91332">
        <ele>781.2</ele>
        <time>2022-11-02T13:19:52Z</time>
      </trkpt>
      <trkpt lat="47.88563" lon="6.91334">
        <ele>781</ele>
        <time>2022-11-02T13:20:04Z</time>
      </trkpt>
      <trkpt lat="47.88563" lon="6.91336">
        <ele>780.7</ele>
        <time>2022-11-02T13:20:05Z</time>
      </trkpt>
      <trkpt lat="47.88563" lon="6.91337">
        <ele>780.6</ele>
        <time>2022-11-02T13:20:06Z</time>
      </trkpt>
      <trkpt lat="47.88562" lon="6.91339">
        <ele>781.4</ele>
        <time>2022-11-02T13:20:07Z</time>
      </trkpt>
      <trkpt lat="47.88562" lon="6.9134">
        <ele>781.2</ele>
        <time>2022-11-02T13:20:08Z</time>
      </trkpt>
      <trkpt lat="47.88562" lon="6.91341">
        <ele>781.1</ele>
        <time>2022-11-02T13:20:09Z</time>
      </trkpt>
      <trkpt lat="47.88562" lon="6.91342">
        <ele>781</ele>
        <time>2022-11-02T13:20:10Z</time>
      </trkpt>
      <trkpt lat="47.88561" lon="6.91342">
        <ele>782</ele>
        <time>2022-11-02T13:20:11Z</time>
      </trkpt>
      <trkpt lat="47.88561" lon="6.91343">
        <ele>781.9</ele>
        <time>2022-11-02T13:20:12Z</time>
      </trkpt>
      <trkpt lat="47.8856" lon="6.91343">
        <ele>782.8</ele>
        <time>2022-11-02T13:20:13Z</time>
      </trkpt>
      <trkpt lat="47.8856" lon="6.91344">
        <ele>782.7</ele>
        <time>2022-11-02T13:20:14Z</time>
      </trkpt>
      <trkpt lat="47.88559" lon="6.91345">
        <ele>783.5</ele>
        <time>2022-11-02T13:20:15Z</time>
      </trkpt>
      <trkpt lat="47.88558" lon="6.91346">
        <ele>784.3</ele>
        <time>2022-11-02T13:20:16Z</time>
      </trkpt>
      <trkpt lat="47.88558" lon="6.91347">
        <ele>784.2</ele>
        <time>2022-11-02T13:20:17Z</time>
      </trkpt>
      <trkpt lat="47.88557" lon="6.91348">
        <ele>785.1</ele>
        <time>2022-11-02T13:20:18Z</time>
      </trkpt>
      <trkpt lat="47.88556" lon="6.91349">
        <ele>785.9</ele>
        <time>2022-11-02T13:20:19Z</time>
      </trkpt>
      <trkpt lat="47.88556" lon="6.9135">
        <ele>785.8</ele>
        <time>2022-11-02T13:20:20Z</time>
      </trkpt>
      <trkpt lat="47.88555" lon="6.91351">
        <ele>786.4</ele>
        <time>2022-11-02T13:20:21Z</time>
      </trkpt>
      <trkpt lat="47.88554" lon="6.91352">
        <ele>786.9</ele>
        <time>2022-11-02T13:20:22Z</time>
      </trkpt>
      <trkpt lat="47.88553" lon="6.91353">
        <ele>787.3</ele>
        <time>2022-11-02T13:20:23Z</time>
      </trkpt>
      <trkpt lat="47.88553" lon="6.91354">
        <ele>787.2</ele>
        <time>2022-11-02T13:20:24Z</time>
      </trkpt>
      <trkpt lat="47.88552" lon="6.91355">
        <ele>787.6</ele>
        <time>2022-11-02T13:20:25Z</time>
      </trkpt>
      <trkpt lat="47.88552" lon="6.91356">
        <ele>787.5</ele>
        <time>2022-11-02T13:20:26Z</time>
      </trkpt>
      <trkpt lat="47.88551" lon="6.91356">
        <ele>788</ele>
        <time>2022-11-02T13:20:27Z</time>
      </trkpt>
      <trkpt lat="47.8855" lon="6.91357">
        <ele>788.4</ele>
        <time>2022-11-02T13:20:28Z</time>
      </trkpt>
      <trkpt lat="47.8855" lon="6.91358">
        <ele>788.3</ele>
        <time>2022-11-02T13:20:29Z</time>
      </trkpt>
      <trkpt lat="47.88549" lon="6.9136">
        <ele>788.5</ele>
        <time>2022-11-02T13:20:30Z</time>
      </trkpt>
      <trkpt lat="47.88548" lon="6.91361">
        <ele>788.8</ele>
        <time>2022-11-02T13:20:31Z</time>
      </trkpt>
      <trkpt lat="47.88547" lon="6.91362">
        <ele>789.1</ele>
        <time>2022-11-02T13:20:32Z</time>
      </trkpt>
      <trkpt lat="47.88547" lon="6.91364">
        <ele>788.5</ele>
        <time>2022-11-02T13:20:33Z</time>
      </trkpt>
      <trkpt lat="47.88546" lon="6.91365">
        <ele>788.7</ele>
        <time>2022-11-02T13:20:34Z</time>
      </trkpt>
      <trkpt lat="47.88545" lon="6.91366">
        <ele>788.9</ele>
        <time>2022-11-02T13:20:35Z</time>
      </trkpt>
      <trkpt lat="47.88545" lon="6.91367">
        <ele>788.6</ele>
        <time>2022-11-02T13:20:36Z</time>
      </trkpt>
      <trkpt lat="47.88544" lon="6.91368">
        <ele>788.8</ele>
        <time>2022-11-02T13:20:37Z</time>
      </trkpt>
      <trkpt lat="47.88543" lon="6.91369">
        <ele>789.1</ele>
        <time>2022-11-02T13:20:38Z</time>
      </trkpt>
      <trkpt lat="47.88543" lon="6.9137">
        <ele>788.8</ele>
        <time>2022-11-02T13:20:39Z</time>
      </trkpt>
      <trkpt lat="47.88542" lon="6.91371">
        <ele>789</ele>
        <time>2022-11-02T13:20:40Z</time>
      </trkpt>
      <trkpt lat="47.88542" lon="6.91372">
        <ele>788.7</ele>
        <time>2022-11-02T13:20:41Z</time>
      </trkpt>
      <trkpt lat="47.88541" lon="6.91372">
        <ele>789.2</ele>
        <time>2022-11-02T13:20:42Z</time>
      </trkpt>
      <trkpt lat="47.88541" lon="6.91373">
        <ele>788.9</ele>
        <time>2022-11-02T13:20:43Z</time>
      </trkpt>
      <trkpt lat="47.88541" lon="6.91374">
        <ele>788.6</ele>
        <time>2022-11-02T13:20:44Z</time>
      </trkpt>
      <trkpt lat="47.88541" lon="6.91375">
        <ele>788.3</ele>
        <time>2022-11-02T13:20:45Z</time>
      </trkpt>
      <trkpt lat="47.88541" lon="6.91376">
        <ele>788</ele>
        <time>2022-11-02T13:20:46Z</time>
      </trkpt>
      <trkpt lat="47.88541" lon="6.91377">
        <ele>787.8</ele>
        <time>2022-11-02T13:20:47Z</time>
      </trkpt>
      <trkpt lat="47.8854" lon="6.91378">
        <ele>788</ele>
        <time>2022-11-02T13:20:48Z</time>
      </trkpt>
      <trkpt lat="47.8854" lon="6.91379">
        <ele>787.7</ele>
        <time>2022-11-02T13:20:49Z</time>
      </trkpt>
      <trkpt lat="47.8854" lon="6.9138">
        <ele>787.4</ele>
        <time>2022-11-02T13:20:50Z</time>
      </trkpt>
      <trkpt lat="47.8854" lon="6.91381">
        <ele>787.1</ele>
        <time>2022-11-02T13:20:51Z</time>
      </trkpt>
      <trkpt lat="47.88539" lon="6.91382">
        <ele>787.3</ele>
        <time>2022-11-02T13:20:52Z</time>
      </trkpt>
      <trkpt lat="47.88539" lon="6.91383">
        <ele>787</ele>
        <time>2022-11-02T13:20:53Z</time>
      </trkpt>
      <trkpt lat="47.88539" lon="6.91384">
        <ele>786.8</ele>
        <time>2022-11-02T13:20:54Z</time>
      </trkpt>
      <trkpt lat="47.8854" lon="6.91385">
        <ele>786</ele>
        <time>2022-11-02T13:20:55Z</time>
      </trkpt>
      <trkpt lat="47.8854" lon="6.91386">
        <ele>785.7</ele>
        <time>2022-11-02T13:20:56Z</time>
      </trkpt>
      <trkpt lat="47.8854" lon="6.91388">
        <ele>785.1</ele>
        <time>2022-11-02T13:20:57Z</time>
      </trkpt>
      <trkpt lat="47.8854" lon="6.91389">
        <ele>784.8</ele>
        <time>2022-11-02T13:20:58Z</time>
      </trkpt>
      <trkpt lat="47.8854" lon="6.9139">
        <ele>784.5</ele>
        <time>2022-11-02T13:20:59Z</time>
      </trkpt>
      <trkpt lat="47.8854" lon="6.91392">
        <ele>784</ele>
        <time>2022-11-02T13:21:00Z</time>
      </trkpt>
      <trkpt lat="47.8854" lon="6.91393">
        <ele>783.8</ele>
        <time>2022-11-02T13:21:01Z</time>
      </trkpt>
      <trkpt lat="47.8854" lon="6.91395">
        <ele>783.2</ele>
        <time>2022-11-02T13:21:02Z</time>
      </trkpt>
      <trkpt lat="47.8854" lon="6.91396">
        <ele>783</ele>
        <time>2022-11-02T13:21:03Z</time>
      </trkpt>
      <trkpt lat="47.88539" lon="6.91397">
        <ele>783.1</ele>
        <time>2022-11-02T13:21:04Z</time>
      </trkpt>
      <trkpt lat="47.88539" lon="6.91399">
        <ele>782.6</ele>
        <time>2022-11-02T13:21:05Z</time>
      </trkpt>
      <trkpt lat="47.88539" lon="6.914">
        <ele>782.3</ele>
        <time>2022-11-02T13:21:06Z</time>
      </trkpt>
      <trkpt lat="47.88539" lon="6.91401">
        <ele>782</ele>
        <time>2022-11-02T13:21:07Z</time>
      </trkpt>
      <trkpt lat="47.88539" lon="6.91402">
        <ele>781.8</ele>
        <time>2022-11-02T13:21:08Z</time>
      </trkpt>
      <trkpt lat="47.88539" lon="6.91403">
        <ele>781.5</ele>
        <time>2022-11-02T13:21:09Z</time>
      </trkpt>
      <trkpt lat="47.88539" lon="6.91404">
        <ele>781.2</ele>
        <time>2022-11-02T13:21:10Z</time>
      </trkpt>
      <trkpt lat="47.88538" lon="6.91405">
        <ele>781.3</ele>
        <time>2022-11-02T13:21:11Z</time>
      </trkpt>
      <trkpt lat="47.88538" lon="6.91407">
        <ele>780.8</ele>
        <time>2022-11-02T13:21:12Z</time>
      </trkpt>
      <trkpt lat="47.88537" lon="6.91408">
        <ele>780.8</ele>
        <time>2022-11-02T13:21:14Z</time>
      </trkpt>
      <trkpt lat="47.88537" lon="6.91409">
        <ele>780.6</ele>
        <time>2022-11-02T13:21:15Z</time>
      </trkpt>
      <trkpt lat="47.88537" lon="6.9141">
        <ele>780.3</ele>
        <time>2022-11-02T13:21:16Z</time>
      </trkpt>
      <trkpt lat="47.88536" lon="6.9141">
        <ele>780.6</ele>
        <time>2022-11-02T13:21:17Z</time>
      </trkpt>
      <trkpt lat="47.88536" lon="6.91411">
        <ele>780.3</ele>
        <time>2022-11-02T13:21:18Z</time>
      </trkpt>
      <trkpt lat="47.88535" lon="6.91412">
        <ele>780.3</ele>
        <time>2022-11-02T13:21:19Z</time>
      </trkpt>
      <trkpt lat="47.88534" lon="6.91413">
        <ele>780.4</ele>
        <time>2022-11-02T13:21:21Z</time>
      </trkpt>
      <trkpt lat="47.88534" lon="6.91414">
        <ele>780</ele>
        <time>2022-11-02T13:21:22Z</time>
      </trkpt>
      <trkpt lat="47.88533" lon="6.91415">
        <ele>780</ele>
        <time>2022-11-02T13:21:23Z</time>
      </trkpt>
      <trkpt lat="47.88532" lon="6.91416">
        <ele>780</ele>
        <time>2022-11-02T13:21:24Z</time>
      </trkpt>
      <trkpt lat="47.88531" lon="6.91416">
        <ele>780.3</ele>
        <time>2022-11-02T13:21:26Z</time>
      </trkpt>
      <trkpt lat="47.8853" lon="6.91417">
        <ele>780.2</ele>
        <time>2022-11-02T13:21:27Z</time>
      </trkpt>
      <trkpt lat="47.88529" lon="6.91417">
        <ele>780.4</ele>
        <time>2022-11-02T13:21:28Z</time>
      </trkpt>
      <trkpt lat="47.88528" lon="6.91417">
        <ele>780.7</ele>
        <time>2022-11-02T13:21:29Z</time>
      </trkpt>
      <trkpt lat="47.88527" lon="6.91416">
        <ele>781.1</ele>
        <time>2022-11-02T13:21:30Z</time>
      </trkpt>
      <trkpt lat="47.88526" lon="6.91416">
        <ele>780.9</ele>
        <time>2022-11-02T13:21:31Z</time>
      </trkpt>
      <trkpt lat="47.88525" lon="6.91416">
        <ele>780.8</ele>
        <time>2022-11-02T13:21:32Z</time>
      </trkpt>
      <trkpt lat="47.88525" lon="6.91415">
        <ele>781.2</ele>
        <time>2022-11-02T13:21:33Z</time>
      </trkpt>
      <trkpt lat="47.88524" lon="6.91415">
        <ele>781</ele>
        <time>2022-11-02T13:21:34Z</time>
      </trkpt>
      <trkpt lat="47.88523" lon="6.91415">
        <ele>780.8</ele>
        <time>2022-11-02T13:21:35Z</time>
      </trkpt>
      <trkpt lat="47.88522" lon="6.91415">
        <ele>780.7</ele>
        <time>2022-11-02T13:21:36Z</time>
      </trkpt>
      <trkpt lat="47.88521" lon="6.91414">
        <ele>781</ele>
        <time>2022-11-02T13:21:37Z</time>
      </trkpt>
      <trkpt lat="47.8852" lon="6.91414">
        <ele>780.8</ele>
        <time>2022-11-02T13:21:38Z</time>
      </trkpt>
      <trkpt lat="47.88519" lon="6.91413">
        <ele>781.1</ele>
        <time>2022-11-02T13:21:39Z</time>
      </trkpt>
      <trkpt lat="47.88518" lon="6.91412">
        <ele>781.5</ele>
        <time>2022-11-02T13:21:41Z</time>
      </trkpt>
      <trkpt lat="47.88516" lon="6.91412">
        <ele>781.2</ele>
        <time>2022-11-02T13:21:42Z</time>
      </trkpt>
      <trkpt lat="47.88515" lon="6.91412">
        <ele>781.1</ele>
        <time>2022-11-02T13:21:44Z</time>
      </trkpt>
      <trkpt lat="47.88514" lon="6.91412">
        <ele>780.9</ele>
        <time>2022-11-02T13:21:45Z</time>
      </trkpt>
      <trkpt lat="47.88513" lon="6.91412">
        <ele>780.8</ele>
        <time>2022-11-02T13:21:46Z</time>
      </trkpt>
      <trkpt lat="47.8851" lon="6.91415">
        <ele>778.7</ele>
        <time>2022-11-02T13:22:07Z</time>
      </trkpt>
      <trkpt lat="47.88509" lon="6.91417">
        <ele>777.4</ele>
        <time>2022-11-02T13:22:08Z</time>
      </trkpt>
      <trkpt lat="47.88507" lon="6.91418">
        <ele>776.4</ele>
        <time>2022-11-02T13:22:09Z</time>
      </trkpt>
      <trkpt lat="47.88506" lon="6.91418">
        <ele>776.3</ele>
        <time>2022-11-02T13:22:10Z</time>
      </trkpt>
      <trkpt lat="47.88505" lon="6.91418">
        <ele>776.1</ele>
        <time>2022-11-02T13:22:11Z</time>
      </trkpt>
      <trkpt lat="47.88505" lon="6.91419">
        <ele>775.5</ele>
        <time>2022-11-02T13:22:12Z</time>
      </trkpt>
      <trkpt lat="47.88504" lon="6.91419">
        <ele>775.3</ele>
        <time>2022-11-02T13:22:13Z</time>
      </trkpt>
      <trkpt lat="47.88503" lon="6.91419">
        <ele>775.1</ele>
        <time>2022-11-02T13:22:14Z</time>
      </trkpt>
      <trkpt lat="47.88502" lon="6.91418">
        <ele>775.5</ele>
        <time>2022-11-02T13:22:15Z</time>
      </trkpt>
      <trkpt lat="47.88501" lon="6.91418">
        <ele>775.4</ele>
        <time>2022-11-02T13:22:17Z</time>
      </trkpt>
      <trkpt lat="47.885" lon="6.91418">
        <ele>775.2</ele>
        <time>2022-11-02T13:22:18Z</time>
      </trkpt>
      <trkpt lat="47.885" lon="6.91417">
        <ele>775.8</ele>
        <time>2022-11-02T13:22:19Z</time>
      </trkpt>
      <trkpt lat="47.88499" lon="6.91417">
        <ele>775.8</ele>
        <time>2022-11-02T13:22:20Z</time>
      </trkpt>
      <trkpt lat="47.88498" lon="6.91416">
        <ele>776.4</ele>
        <time>2022-11-02T13:22:21Z</time>
      </trkpt>
      <trkpt lat="47.88497" lon="6.91416">
        <ele>776.3</ele>
        <time>2022-11-02T13:22:23Z</time>
      </trkpt>
      <trkpt lat="47.88496" lon="6.91415">
        <ele>777</ele>
        <time>2022-11-02T13:22:25Z</time>
      </trkpt>
      <trkpt lat="47.88495" lon="6.91416">
        <ele>776.3</ele>
        <time>2022-11-02T13:22:27Z</time>
      </trkpt>
      <trkpt lat="47.88494" lon="6.91416">
        <ele>776.2</ele>
        <time>2022-11-02T13:22:28Z</time>
      </trkpt>
      <trkpt lat="47.88493" lon="6.91417">
        <ele>775.6</ele>
        <time>2022-11-02T13:22:30Z</time>
      </trkpt>
      <trkpt lat="47.88492" lon="6.91417">
        <ele>775.5</ele>
        <time>2022-11-02T13:22:32Z</time>
      </trkpt>
      <trkpt lat="47.88491" lon="6.91418">
        <ele>774.9</ele>
        <time>2022-11-02T13:22:33Z</time>
      </trkpt>
      <trkpt lat="47.8849" lon="6.91419">
        <ele>774.3</ele>
        <time>2022-11-02T13:22:35Z</time>
      </trkpt>
      <trkpt lat="47.88489" lon="6.91419">
        <ele>774.2</ele>
        <time>2022-11-02T13:22:36Z</time>
      </trkpt>
      <trkpt lat="47.88489" lon="6.9142">
        <ele>773.7</ele>
        <time>2022-11-02T13:22:37Z</time>
      </trkpt>
      <trkpt lat="47.88488" lon="6.91421">
        <ele>773.1</ele>
        <time>2022-11-02T13:22:38Z</time>
      </trkpt>
      <trkpt lat="47.88487" lon="6.91422">
        <ele>772.4</ele>
        <time>2022-11-02T13:22:39Z</time>
      </trkpt>
      <trkpt lat="47.88486" lon="6.91422">
        <ele>772.4</ele>
        <time>2022-11-02T13:22:40Z</time>
      </trkpt>
      <trkpt lat="47.88485" lon="6.91423">
        <ele>771.8</ele>
        <time>2022-11-02T13:22:41Z</time>
      </trkpt>
      <trkpt lat="47.88483" lon="6.91425">
        <ele>770.7</ele>
        <time>2022-11-02T13:22:49Z</time>
      </trkpt>
      <trkpt lat="47.88482" lon="6.91426">
        <ele>770.1</ele>
        <time>2022-11-02T13:22:50Z</time>
      </trkpt>
      <trkpt lat="47.88481" lon="6.91426">
        <ele>770.1</ele>
        <time>2022-11-02T13:22:51Z</time>
      </trkpt>
      <trkpt lat="47.88478" lon="6.91428">
        <ele>768.9</ele>
        <time>2022-11-02T13:23:00Z</time>
      </trkpt>
      <trkpt lat="47.88477" lon="6.91428">
        <ele>768.9</ele>
        <time>2022-11-02T13:23:01Z</time>
      </trkpt>
      <trkpt lat="47.88476" lon="6.91429">
        <ele>768.4</ele>
        <time>2022-11-02T13:23:02Z</time>
      </trkpt>
      <trkpt lat="47.88475" lon="6.9143">
        <ele>767.8</ele>
        <time>2022-11-02T13:23:03Z</time>
      </trkpt>
      <trkpt lat="47.88474" lon="6.9143">
        <ele>767.8</ele>
        <time>2022-11-02T13:23:04Z</time>
      </trkpt>
      <trkpt lat="47.88473" lon="6.9143">
        <ele>767.8</ele>
        <time>2022-11-02T13:23:05Z</time>
      </trkpt>
      <trkpt lat="47.88472" lon="6.9143">
        <ele>767.9</ele>
        <time>2022-11-02T13:23:08Z</time>
      </trkpt>
      <trkpt lat="47.88471" lon="6.9143">
        <ele>768.4</ele>
        <time>2022-11-02T13:23:10Z</time>
      </trkpt>
      <trkpt lat="47.8847" lon="6.91429">
        <ele>769.4</ele>
        <time>2022-11-02T13:23:11Z</time>
      </trkpt>
      <trkpt lat="47.88469" lon="6.91428">
        <ele>770.4</ele>
        <time>2022-11-02T13:23:12Z</time>
      </trkpt>
      <trkpt lat="47.88468" lon="6.91428">
        <ele>770.8</ele>
        <time>2022-11-02T13:23:14Z</time>
      </trkpt>
      <trkpt lat="47.88468" lon="6.91427">
        <ele>771.4</ele>
        <time>2022-11-02T13:23:15Z</time>
      </trkpt>
      <trkpt lat="47.88467" lon="6.91427">
        <ele>771.8</ele>
        <time>2022-11-02T13:23:16Z</time>
      </trkpt>
      <trkpt lat="47.88465" lon="6.91427">
        <ele>772.7</ele>
        <time>2022-11-02T13:23:25Z</time>
      </trkpt>
      <trkpt lat="47.88464" lon="6.91427">
        <ele>773.2</ele>
        <time>2022-11-02T13:23:26Z</time>
      </trkpt>
      <trkpt lat="47.88463" lon="6.91427">
        <ele>773.7</ele>
        <time>2022-11-02T13:23:27Z</time>
      </trkpt>
      <trkpt lat="47.88462" lon="6.91428">
        <ele>773.6</ele>
        <time>2022-11-02T13:23:28Z</time>
      </trkpt>
      <trkpt lat="47.88461" lon="6.91428">
        <ele>774.1</ele>
        <time>2022-11-02T13:23:29Z</time>
      </trkpt>
      <trkpt lat="47.8846" lon="6.91428">
        <ele>774.5</ele>
        <time>2022-11-02T13:23:30Z</time>
      </trkpt>
      <trkpt lat="47.88459" lon="6.91429">
        <ele>774.5</ele>
        <time>2022-11-02T13:23:31Z</time>
      </trkpt>
      <trkpt lat="47.88458" lon="6.9143">
        <ele>774.4</ele>
        <time>2022-11-02T13:23:32Z</time>
      </trkpt>
      <trkpt lat="47.88457" lon="6.91431">
        <ele>774.4</ele>
        <time>2022-11-02T13:23:33Z</time>
      </trkpt>
      <trkpt lat="47.88456" lon="6.91433">
        <ele>773.9</ele>
        <time>2022-11-02T13:23:34Z</time>
      </trkpt>
      <trkpt lat="47.88455" lon="6.91434">
        <ele>773.9</ele>
        <time>2022-11-02T13:23:35Z</time>
      </trkpt>
      <trkpt lat="47.88454" lon="6.91435">
        <ele>773.8</ele>
        <time>2022-11-02T13:23:36Z</time>
      </trkpt>
      <trkpt lat="47.88454" lon="6.91436">
        <ele>773.3</ele>
        <time>2022-11-02T13:23:37Z</time>
      </trkpt>
      <trkpt lat="47.88453" lon="6.91436">
        <ele>773.8</ele>
        <time>2022-11-02T13:23:38Z</time>
      </trkpt>
      <trkpt lat="47.88453" lon="6.91437">
        <ele>773.3</ele>
        <time>2022-11-02T13:23:41Z</time>
      </trkpt>
      <trkpt lat="47.88452" lon="6.91437">
        <ele>773.8</ele>
        <time>2022-11-02T13:23:42Z</time>
      </trkpt>
      <trkpt lat="47.88452" lon="6.91438">
        <ele>773.3</ele>
        <time>2022-11-02T13:23:43Z</time>
      </trkpt>
      <trkpt lat="47.88451" lon="6.91439">
        <ele>773.3</ele>
        <time>2022-11-02T13:23:44Z</time>
      </trkpt>
      <trkpt lat="47.8845" lon="6.9144">
        <ele>773.3</ele>
        <time>2022-11-02T13:23:46Z</time>
      </trkpt>
      <trkpt lat="47.8845" lon="6.91441">
        <ele>772.9</ele>
        <time>2022-11-02T13:23:47Z</time>
      </trkpt>
      <trkpt lat="47.88449" lon="6.91442">
        <ele>772.9</ele>
        <time>2022-11-02T13:23:48Z</time>
      </trkpt>
      <trkpt lat="47.88448" lon="6.91442">
        <ele>773.4</ele>
        <time>2022-11-02T13:23:50Z</time>
      </trkpt>
      <trkpt lat="47.88448" lon="6.9144">
        <ele>774.3</ele>
        <time>2022-11-02T13:23:59Z</time>
      </trkpt>
      <trkpt lat="47.88448" lon="6.91439">
        <ele>774.8</ele>
        <time>2022-11-02T13:24:00Z</time>
      </trkpt>
      <trkpt lat="47.88449" lon="6.91437">
        <ele>775.3</ele>
        <time>2022-11-02T13:24:01Z</time>
      </trkpt>
      <trkpt lat="47.88449" lon="6.91436">
        <ele>775.8</ele>
        <time>2022-11-02T13:24:02Z</time>
      </trkpt>
      <trkpt lat="47.88449" lon="6.91434">
        <ele>776.7</ele>
        <time>2022-11-02T13:24:03Z</time>
      </trkpt>
      <trkpt lat="47.8845" lon="6.91433">
        <ele>776.7</ele>
        <time>2022-11-02T13:24:04Z</time>
      </trkpt>
      <trkpt lat="47.8845" lon="6.91431">
        <ele>777.7</ele>
        <time>2022-11-02T13:24:05Z</time>
      </trkpt>
      <trkpt lat="47.8845" lon="6.9143">
        <ele>778.2</ele>
        <time>2022-11-02T13:24:06Z</time>
      </trkpt>
      <trkpt lat="47.88451" lon="6.91429">
        <ele>778.2</ele>
        <time>2022-11-02T13:24:07Z</time>
      </trkpt>
      <trkpt lat="47.88451" lon="6.91428">
        <ele>778.7</ele>
        <time>2022-11-02T13:24:08Z</time>
      </trkpt>
      <trkpt lat="47.88452" lon="6.91427">
        <ele>778.7</ele>
        <time>2022-11-02T13:24:09Z</time>
      </trkpt>
      <trkpt lat="47.88453" lon="6.91426">
        <ele>778.7</ele>
        <time>2022-11-02T13:24:10Z</time>
      </trkpt>
      <trkpt lat="47.88453" lon="6.91425">
        <ele>779.2</ele>
        <time>2022-11-02T13:24:11Z</time>
      </trkpt>
      <trkpt lat="47.88454" lon="6.91424">
        <ele>779.3</ele>
        <time>2022-11-02T13:24:12Z</time>
      </trkpt>
      <trkpt lat="47.88454" lon="6.91423">
        <ele>779.8</ele>
        <time>2022-11-02T13:24:13Z</time>
      </trkpt>
      <trkpt lat="47.88455" lon="6.91422">
        <ele>779.8</ele>
        <time>2022-11-02T13:24:14Z</time>
      </trkpt>
      <trkpt lat="47.88455" lon="6.91421">
        <ele>780.3</ele>
        <time>2022-11-02T13:24:15Z</time>
      </trkpt>
      <trkpt lat="47.88456" lon="6.9142">
        <ele>780.3</ele>
        <time>2022-11-02T13:24:16Z</time>
      </trkpt>
      <trkpt lat="47.88457" lon="6.91419">
        <ele>780.4</ele>
        <time>2022-11-02T13:24:17Z</time>
      </trkpt>
      <trkpt lat="47.88458" lon="6.91418">
        <ele>780.5</ele>
        <time>2022-11-02T13:24:19Z</time>
      </trkpt>
      <trkpt lat="47.88459" lon="6.91417">
        <ele>780.5</ele>
        <time>2022-11-02T13:24:21Z</time>
      </trkpt>
      <trkpt lat="47.8846" lon="6.91417">
        <ele>780.1</ele>
        <time>2022-11-02T13:24:22Z</time>
      </trkpt>
      <trkpt lat="47.88459" lon="6.91415">
        <ele>781.6</ele>
        <time>2022-11-02T13:24:40Z</time>
      </trkpt>
      <trkpt lat="47.88459" lon="6.91414">
        <ele>782.1</ele>
        <time>2022-11-02T13:24:41Z</time>
      </trkpt>
      <trkpt lat="47.88458" lon="6.91413">
        <ele>783</ele>
        <time>2022-11-02T13:24:42Z</time>
      </trkpt>
      <trkpt lat="47.88457" lon="6.91412">
        <ele>783.9</ele>
        <time>2022-11-02T13:24:43Z</time>
      </trkpt>
      <trkpt lat="47.88456" lon="6.91412">
        <ele>784.3</ele>
        <time>2022-11-02T13:24:44Z</time>
      </trkpt>
      <trkpt lat="47.88455" lon="6.91411">
        <ele>785.2</ele>
        <time>2022-11-02T13:24:45Z</time>
      </trkpt>
      <trkpt lat="47.88454" lon="6.91411">
        <ele>785.5</ele>
        <time>2022-11-02T13:24:46Z</time>
      </trkpt>
      <trkpt lat="47.88453" lon="6.91411">
        <ele>785.9</ele>
        <time>2022-11-02T13:24:47Z</time>
      </trkpt>
      <trkpt lat="47.88452" lon="6.91411">
        <ele>786.3</ele>
        <time>2022-11-02T13:24:48Z</time>
      </trkpt>
      <trkpt lat="47.88451" lon="6.91411">
        <ele>786.6</ele>
        <time>2022-11-02T13:24:49Z</time>
      </trkpt>
      <trkpt lat="47.8845" lon="6.91411">
        <ele>787</ele>
        <time>2022-11-02T13:24:51Z</time>
      </trkpt>
      <trkpt lat="47.8845" lon="6.91412">
        <ele>786.6</ele>
        <time>2022-11-02T13:24:52Z</time>
      </trkpt>
      <trkpt lat="47.88449" lon="6.91413">
        <ele>786.5</ele>
        <time>2022-11-02T13:24:54Z</time>
      </trkpt>
      <trkpt lat="47.88449" lon="6.91414">
        <ele>786.1</ele>
        <time>2022-11-02T13:24:56Z</time>
      </trkpt>
      <trkpt lat="47.88448" lon="6.91414">
        <ele>786.5</ele>
        <time>2022-11-02T13:24:57Z</time>
      </trkpt>
      <trkpt lat="47.88447" lon="6.91414">
        <ele>786.9</ele>
        <time>2022-11-02T13:24:58Z</time>
      </trkpt>
      <trkpt lat="47.88441" lon="6.91417">
        <ele>788.7</ele>
        <time>2022-11-02T13:26:38Z</time>
      </trkpt>
      <trkpt lat="47.88437" lon="6.91418">
        <ele>790.3</ele>
        <time>2022-11-02T13:26:39Z</time>
      </trkpt>
      <trkpt lat="47.88434" lon="6.9142">
        <ele>790.9</ele>
        <time>2022-11-02T13:26:40Z</time>
      </trkpt>
      <trkpt lat="47.8843" lon="6.9142">
        <ele>792.9</ele>
        <time>2022-11-02T13:26:50Z</time>
      </trkpt>
      <trkpt lat="47.88429" lon="6.9142">
        <ele>793.4</ele>
        <time>2022-11-02T13:26:51Z</time>
      </trkpt>
      <trkpt lat="47.88428" lon="6.9142">
        <ele>794</ele>
        <time>2022-11-02T13:26:52Z</time>
      </trkpt>
      <trkpt lat="47.88425" lon="6.91421">
        <ele>794.9</ele>
        <time>2022-11-02T13:27:12Z</time>
      </trkpt>
      <trkpt lat="47.88423" lon="6.91421">
        <ele>795.9</ele>
        <time>2022-11-02T13:27:13Z</time>
      </trkpt>
      <trkpt lat="47.88422" lon="6.9142">
        <ele>797.1</ele>
        <time>2022-11-02T13:27:14Z</time>
      </trkpt>
      <trkpt lat="47.88421" lon="6.9142">
        <ele>797.6</ele>
        <time>2022-11-02T13:27:15Z</time>
      </trkpt>
      <trkpt lat="47.8842" lon="6.9142">
        <ele>798.1</ele>
        <time>2022-11-02T13:27:16Z</time>
      </trkpt>
      <trkpt lat="47.88419" lon="6.91419">
        <ele>799.3</ele>
        <time>2022-11-02T13:27:17Z</time>
      </trkpt>
      <trkpt lat="47.88418" lon="6.91419">
        <ele>799.8</ele>
        <time>2022-11-02T13:27:18Z</time>
      </trkpt>
      <trkpt lat="47.88417" lon="6.91418">
        <ele>801</ele>
        <time>2022-11-02T13:27:19Z</time>
      </trkpt>
      <trkpt lat="47.88417" lon="6.91417">
        <ele>801.6</ele>
        <time>2022-11-02T13:27:20Z</time>
      </trkpt>
      <trkpt lat="47.88416" lon="6.91416">
        <ele>802</ele>
        <time>2022-11-02T13:27:21Z</time>
      </trkpt>
      <trkpt lat="47.88415" lon="6.91415">
        <ele>802</ele>
        <time>2022-11-02T13:27:22Z</time>
      </trkpt>
      <trkpt lat="47.88414" lon="6.91414">
        <ele>802</ele>
        <time>2022-11-02T13:27:24Z</time>
      </trkpt>
      <trkpt lat="47.88413" lon="6.91413">
        <ele>802.1</ele>
        <time>2022-11-02T13:27:25Z</time>
      </trkpt>
      <trkpt lat="47.88413" lon="6.91412">
        <ele>802.4</ele>
        <time>2022-11-02T13:27:26Z</time>
      </trkpt>
      <trkpt lat="47.88412" lon="6.91411">
        <ele>802.4</ele>
        <time>2022-11-02T13:27:27Z</time>
      </trkpt>
      <trkpt lat="47.88411" lon="6.91411">
        <ele>802.1</ele>
        <time>2022-11-02T13:27:28Z</time>
      </trkpt>
      <trkpt lat="47.8841" lon="6.91411">
        <ele>801.8</ele>
        <time>2022-11-02T13:27:29Z</time>
      </trkpt>
      <trkpt lat="47.8841" lon="6.9141">
        <ele>802.2</ele>
        <time>2022-11-02T13:27:30Z</time>
      </trkpt>
      <trkpt lat="47.88408" lon="6.9141">
        <ele>801.6</ele>
        <time>2022-11-02T13:27:31Z</time>
      </trkpt>
      <trkpt lat="47.88407" lon="6.9141">
        <ele>801.3</ele>
        <time>2022-11-02T13:27:32Z</time>
      </trkpt>
      <trkpt lat="47.88406" lon="6.91409">
        <ele>801.3</ele>
        <time>2022-11-02T13:27:33Z</time>
      </trkpt>
      <trkpt lat="47.88405" lon="6.91408">
        <ele>801.4</ele>
        <time>2022-11-02T13:27:34Z</time>
      </trkpt>
      <trkpt lat="47.88404" lon="6.91408">
        <ele>801.1</ele>
        <time>2022-11-02T13:27:35Z</time>
      </trkpt>
      <trkpt lat="47.88403" lon="6.91407">
        <ele>801.2</ele>
        <time>2022-11-02T13:27:36Z</time>
      </trkpt>
      <trkpt lat="47.88402" lon="6.91406">
        <ele>801.3</ele>
        <time>2022-11-02T13:27:37Z</time>
      </trkpt>
      <trkpt lat="47.88401" lon="6.91406">
        <ele>801</ele>
        <time>2022-11-02T13:27:38Z</time>
      </trkpt>
      <trkpt lat="47.884" lon="6.91406">
        <ele>800.7</ele>
        <time>2022-11-02T13:27:39Z</time>
      </trkpt>
      <trkpt lat="47.884" lon="6.91405">
        <ele>801.1</ele>
        <time>2022-11-02T13:27:40Z</time>
      </trkpt>
      <trkpt lat="47.88399" lon="6.91405">
        <ele>800.9</ele>
        <time>2022-11-02T13:27:41Z</time>
      </trkpt>
      <trkpt lat="47.88398" lon="6.91405">
        <ele>800.6</ele>
        <time>2022-11-02T13:27:42Z</time>
      </trkpt>
      <trkpt lat="47.88397" lon="6.91405">
        <ele>800.3</ele>
        <time>2022-11-02T13:27:43Z</time>
      </trkpt>
      <trkpt lat="47.88396" lon="6.91405">
        <ele>800</ele>
        <time>2022-11-02T13:27:44Z</time>
      </trkpt>
      <trkpt lat="47.88395" lon="6.91405">
        <ele>799.7</ele>
        <time>2022-11-02T13:27:46Z</time>
      </trkpt>
      <trkpt lat="47.88394" lon="6.91404">
        <ele>799.9</ele>
        <time>2022-11-02T13:27:47Z</time>
      </trkpt>
      <trkpt lat="47.88394" lon="6.91403">
        <ele>800.3</ele>
        <time>2022-11-02T13:27:48Z</time>
      </trkpt>
      <trkpt lat="47.88393" lon="6.91402">
        <ele>800.4</ele>
        <time>2022-11-02T13:27:49Z</time>
      </trkpt>
      <trkpt lat="47.88393" lon="6.91401">
        <ele>800.8</ele>
        <time>2022-11-02T13:27:50Z</time>
      </trkpt>
      <trkpt lat="47.88392" lon="6.914">
        <ele>801</ele>
        <time>2022-11-02T13:27:51Z</time>
      </trkpt>
      <trkpt lat="47.88392" lon="6.91399">
        <ele>801.4</ele>
        <time>2022-11-02T13:27:52Z</time>
      </trkpt>
      <trkpt lat="47.88392" lon="6.91398">
        <ele>801.8</ele>
        <time>2022-11-02T13:27:53Z</time>
      </trkpt>
      <trkpt lat="47.88391" lon="6.91397">
        <ele>802</ele>
        <time>2022-11-02T13:27:54Z</time>
      </trkpt>
      <trkpt lat="47.88391" lon="6.91396">
        <ele>802.4</ele>
        <time>2022-11-02T13:27:55Z</time>
      </trkpt>
      <trkpt lat="47.8839" lon="6.91395">
        <ele>802.6</ele>
        <time>2022-11-02T13:27:56Z</time>
      </trkpt>
      <trkpt lat="47.88389" lon="6.91394">
        <ele>802.8</ele>
        <time>2022-11-02T13:27:58Z</time>
      </trkpt>
      <trkpt lat="47.88388" lon="6.91394">
        <ele>803</ele>
        <time>2022-11-02T13:28:00Z</time>
      </trkpt>
      <trkpt lat="47.88387" lon="6.91393">
        <ele>803.6</ele>
        <time>2022-11-02T13:28:01Z</time>
      </trkpt>
      <trkpt lat="47.88386" lon="6.91393">
        <ele>803.7</ele>
        <time>2022-11-02T13:28:03Z</time>
      </trkpt>
      <trkpt lat="47.88385" lon="6.91394">
        <ele>803.5</ele>
        <time>2022-11-02T13:28:04Z</time>
      </trkpt>
      <trkpt lat="47.88384" lon="6.91394">
        <ele>803.7</ele>
        <time>2022-11-02T13:28:05Z</time>
      </trkpt>
      <trkpt lat="47.88384" lon="6.91395">
        <ele>803.3</ele>
        <time>2022-11-02T13:28:06Z</time>
      </trkpt>
      <trkpt lat="47.88384" lon="6.91396">
        <ele>802.9</ele>
        <time>2022-11-02T13:28:10Z</time>
      </trkpt>
      <trkpt lat="47.88383" lon="6.91396">
        <ele>803.1</ele>
        <time>2022-11-02T13:28:11Z</time>
      </trkpt>
      <trkpt lat="47.88382" lon="6.91396">
        <ele>803.3</ele>
        <time>2022-11-02T13:28:13Z</time>
      </trkpt>
      <trkpt lat="47.88381" lon="6.91396">
        <ele>803.5</ele>
        <time>2022-11-02T13:28:14Z</time>
      </trkpt>
      <trkpt lat="47.8838" lon="6.91396">
        <ele>803.7</ele>
        <time>2022-11-02T13:28:15Z</time>
      </trkpt>
      <trkpt lat="47.8838" lon="6.91397">
        <ele>803.3</ele>
        <time>2022-11-02T13:28:16Z</time>
      </trkpt>
      <trkpt lat="47.88379" lon="6.91397">
        <ele>803.5</ele>
        <time>2022-11-02T13:28:19Z</time>
      </trkpt>
      <trkpt lat="47.88378" lon="6.91397">
        <ele>803.8</ele>
        <time>2022-11-02T13:28:21Z</time>
      </trkpt>
      <trkpt lat="47.88377" lon="6.91397">
        <ele>804</ele>
        <time>2022-11-02T13:28:22Z</time>
      </trkpt>
      <trkpt lat="47.88377" lon="6.91398">
        <ele>803.6</ele>
        <time>2022-11-02T13:28:23Z</time>
      </trkpt>
      <trkpt lat="47.88376" lon="6.91398">
        <ele>803.8</ele>
        <time>2022-11-02T13:28:24Z</time>
      </trkpt>
      <trkpt lat="47.88376" lon="6.91399">
        <ele>803.5</ele>
        <time>2022-11-02T13:28:25Z</time>
      </trkpt>
      <trkpt lat="47.88375" lon="6.914">
        <ele>803.4</ele>
        <time>2022-11-02T13:28:28Z</time>
      </trkpt>
      <trkpt lat="47.88375" lon="6.91401">
        <ele>803.1</ele>
        <time>2022-11-02T13:28:29Z</time>
      </trkpt>
      <trkpt lat="47.88374" lon="6.91402">
        <ele>803</ele>
        <time>2022-11-02T13:28:30Z</time>
      </trkpt>
      <trkpt lat="47.88374" lon="6.91403">
        <ele>802.7</ele>
        <time>2022-11-02T13:28:31Z</time>
      </trkpt>
      <trkpt lat="47.88373" lon="6.91404">
        <ele>802.6</ele>
        <time>2022-11-02T13:28:58Z</time>
      </trkpt>
      <trkpt lat="47.88373" lon="6.91405">
        <ele>802.3</ele>
        <time>2022-11-02T13:29:00Z</time>
      </trkpt>
      <trkpt lat="47.88373" lon="6.91406">
        <ele>802</ele>
        <time>2022-11-02T13:29:01Z</time>
      </trkpt>
      <trkpt lat="47.88372" lon="6.91406">
        <ele>802.3</ele>
        <time>2022-11-02T13:29:02Z</time>
      </trkpt>
      <trkpt lat="47.88371" lon="6.91407">
        <ele>802.3</ele>
        <time>2022-11-02T13:29:03Z</time>
      </trkpt>
      <trkpt lat="47.88371" lon="6.91408">
        <ele>802</ele>
        <time>2022-11-02T13:29:04Z</time>
      </trkpt>
      <trkpt lat="47.8837" lon="6.91409">
        <ele>802</ele>
        <time>2022-11-02T13:29:05Z</time>
      </trkpt>
      <trkpt lat="47.88369" lon="6.9141">
        <ele>802</ele>
        <time>2022-11-02T13:29:06Z</time>
      </trkpt>
      <trkpt lat="47.88368" lon="6.91411">
        <ele>802</ele>
        <time>2022-11-02T13:29:44Z</time>
      </trkpt>
      <trkpt lat="47.88367" lon="6.91413">
        <ele>801.8</ele>
        <time>2022-11-02T13:29:45Z</time>
      </trkpt>
      <trkpt lat="47.88366" lon="6.91414">
        <ele>801.9</ele>
        <time>2022-11-02T13:29:46Z</time>
      </trkpt>
      <trkpt lat="47.88365" lon="6.91415">
        <ele>802</ele>
        <time>2022-11-02T13:29:47Z</time>
      </trkpt>
      <trkpt lat="47.88364" lon="6.91416">
        <ele>802.1</ele>
        <time>2022-11-02T13:29:49Z</time>
      </trkpt>
      <trkpt lat="47.88364" lon="6.91417">
        <ele>801.8</ele>
        <time>2022-11-02T13:29:50Z</time>
      </trkpt>
      <trkpt lat="47.88363" lon="6.91418">
        <ele>801.8</ele>
        <time>2022-11-02T13:29:52Z</time>
      </trkpt>
      <trkpt lat="47.88363" lon="6.91419">
        <ele>801.5</ele>
        <time>2022-11-02T13:29:53Z</time>
      </trkpt>
      <trkpt lat="47.88362" lon="6.9142">
        <ele>801.5</ele>
        <time>2022-11-02T13:29:55Z</time>
      </trkpt>
      <trkpt lat="47.88362" lon="6.91421">
        <ele>801.1</ele>
        <time>2022-11-02T13:29:56Z</time>
      </trkpt>
      <trkpt lat="47.88361" lon="6.91422">
        <ele>801.1</ele>
        <time>2022-11-02T13:29:57Z</time>
      </trkpt>
      <trkpt lat="47.88361" lon="6.91423">
        <ele>800.8</ele>
        <time>2022-11-02T13:29:58Z</time>
      </trkpt>
      <trkpt lat="47.8836" lon="6.91424">
        <ele>800.8</ele>
        <time>2022-11-02T13:29:59Z</time>
      </trkpt>
      <trkpt lat="47.88359" lon="6.91426">
        <ele>800.5</ele>
        <time>2022-11-02T13:30:00Z</time>
      </trkpt>
      <trkpt lat="47.88358" lon="6.91427">
        <ele>800.5</ele>
        <time>2022-11-02T13:30:01Z</time>
      </trkpt>
      <trkpt lat="47.88357" lon="6.91428">
        <ele>800.5</ele>
        <time>2022-11-02T13:30:02Z</time>
      </trkpt>
      <trkpt lat="47.88356" lon="6.91428">
        <ele>800.9</ele>
        <time>2022-11-02T13:30:03Z</time>
      </trkpt>
      <trkpt lat="47.88355" lon="6.91429">
        <ele>800.9</ele>
        <time>2022-11-02T13:30:04Z</time>
      </trkpt>
      <trkpt lat="47.88354" lon="6.9143">
        <ele>800.9</ele>
        <time>2022-11-02T13:30:05Z</time>
      </trkpt>
      <trkpt lat="47.88353" lon="6.91431">
        <ele>800.9</ele>
        <time>2022-11-02T13:30:06Z</time>
      </trkpt>
      <trkpt lat="47.88352" lon="6.91432">
        <ele>800.9</ele>
        <time>2022-11-02T13:30:07Z</time>
      </trkpt>
      <trkpt lat="47.88351" lon="6.91433">
        <ele>800.9</ele>
        <time>2022-11-02T13:30:08Z</time>
      </trkpt>
      <trkpt lat="47.8835" lon="6.91434">
        <ele>800.9</ele>
        <time>2022-11-02T13:30:09Z</time>
      </trkpt>
      <trkpt lat="47.88349" lon="6.91435">
        <ele>800.9</ele>
        <time>2022-11-02T13:30:10Z</time>
      </trkpt>
      <trkpt lat="47.88348" lon="6.91436">
        <ele>800.9</ele>
        <time>2022-11-02T13:30:11Z</time>
      </trkpt>
      <trkpt lat="47.88347" lon="6.91437">
        <ele>800.9</ele>
        <time>2022-11-02T13:30:12Z</time>
      </trkpt>
      <trkpt lat="47.88346" lon="6.91438">
        <ele>800.9</ele>
        <time>2022-11-02T13:30:13Z</time>
      </trkpt>
      <trkpt lat="47.88346" lon="6.9144">
        <ele>800.1</ele>
        <time>2022-11-02T13:30:14Z</time>
      </trkpt>
      <trkpt lat="47.88345" lon="6.91441">
        <ele>800.1</ele>
        <time>2022-11-02T13:30:15Z</time>
      </trkpt>
      <trkpt lat="47.88344" lon="6.91442">
        <ele>800.1</ele>
        <time>2022-11-02T13:30:16Z</time>
      </trkpt>
      <trkpt lat="47.88342" lon="6.91444">
        <ele>800.1</ele>
        <time>2022-11-02T13:30:17Z</time>
      </trkpt>
      <trkpt lat="47.88341" lon="6.91446">
        <ele>799.8</ele>
        <time>2022-11-02T13:30:18Z</time>
      </trkpt>
      <trkpt lat="47.8834" lon="6.91447">
        <ele>799.8</ele>
        <time>2022-11-02T13:30:19Z</time>
      </trkpt>
      <trkpt lat="47.88338" lon="6.91448">
        <ele>800.2</ele>
        <time>2022-11-02T13:30:20Z</time>
      </trkpt>
      <trkpt lat="47.88337" lon="6.91449">
        <ele>800.3</ele>
        <time>2022-11-02T13:30:21Z</time>
      </trkpt>
      <trkpt lat="47.88335" lon="6.91451">
        <ele>800.3</ele>
        <time>2022-11-02T13:30:22Z</time>
      </trkpt>
      <trkpt lat="47.88333" lon="6.91452">
        <ele>800.7</ele>
        <time>2022-11-02T13:30:23Z</time>
      </trkpt>
      <trkpt lat="47.88332" lon="6.91453">
        <ele>800.8</ele>
        <time>2022-11-02T13:30:24Z</time>
      </trkpt>
      <trkpt lat="47.8833" lon="6.91455">
        <ele>800.9</ele>
        <time>2022-11-02T13:30:25Z</time>
      </trkpt>
      <trkpt lat="47.88329" lon="6.91457">
        <ele>800.7</ele>
        <time>2022-11-02T13:30:26Z</time>
      </trkpt>
      <trkpt lat="47.88328" lon="6.91459">
        <ele>800.5</ele>
        <time>2022-11-02T13:30:27Z</time>
      </trkpt>
      <trkpt lat="47.88327" lon="6.9146">
        <ele>800.6</ele>
        <time>2022-11-02T13:30:28Z</time>
      </trkpt>
      <trkpt lat="47.88327" lon="6.91462">
        <ele>800</ele>
        <time>2022-11-02T13:30:29Z</time>
      </trkpt>
      <trkpt lat="47.88326" lon="6.91463">
        <ele>800.1</ele>
        <time>2022-11-02T13:30:30Z</time>
      </trkpt>
      <trkpt lat="47.88326" lon="6.91464">
        <ele>799.8</ele>
        <time>2022-11-02T13:30:31Z</time>
      </trkpt>
      <trkpt lat="47.88325" lon="6.91465">
        <ele>799.9</ele>
        <time>2022-11-02T13:30:32Z</time>
      </trkpt>
      <trkpt lat="47.88324" lon="6.91466">
        <ele>800</ele>
        <time>2022-11-02T13:30:33Z</time>
      </trkpt>
      <trkpt lat="47.88324" lon="6.91467">
        <ele>799.7</ele>
        <time>2022-11-02T13:30:34Z</time>
      </trkpt>
      <trkpt lat="47.88323" lon="6.91468">
        <ele>799.8</ele>
        <time>2022-11-02T13:30:35Z</time>
      </trkpt>
      <trkpt lat="47.88323" lon="6.91469">
        <ele>799.5</ele>
        <time>2022-11-02T13:30:36Z</time>
      </trkpt>
      <trkpt lat="47.88323" lon="6.91471">
        <ele>798.8</ele>
        <time>2022-11-02T13:30:37Z</time>
      </trkpt>
      <trkpt lat="47.88322" lon="6.91472">
        <ele>799</ele>
        <time>2022-11-02T13:30:38Z</time>
      </trkpt>
      <trkpt lat="47.88322" lon="6.91473">
        <ele>798.7</ele>
        <time>2022-11-02T13:30:39Z</time>
      </trkpt>
      <trkpt lat="47.88321" lon="6.91474">
        <ele>798.8</ele>
        <time>2022-11-02T13:30:40Z</time>
      </trkpt>
      <trkpt lat="47.8832" lon="6.91474">
        <ele>799.2</ele>
        <time>2022-11-02T13:30:41Z</time>
      </trkpt>
      <trkpt lat="47.88319" lon="6.91475">
        <ele>799.3</ele>
        <time>2022-11-02T13:30:42Z</time>
      </trkpt>
      <trkpt lat="47.88318" lon="6.91476">
        <ele>799.4</ele>
        <time>2022-11-02T13:30:44Z</time>
      </trkpt>
      <trkpt lat="47.88317" lon="6.91476">
        <ele>799.8</ele>
        <time>2022-11-02T13:30:45Z</time>
      </trkpt>
      <trkpt lat="47.88316" lon="6.91477">
        <ele>799.9</ele>
        <time>2022-11-02T13:30:46Z</time>
      </trkpt>
      <trkpt lat="47.88315" lon="6.91477">
        <ele>800.3</ele>
        <time>2022-11-02T13:30:47Z</time>
      </trkpt>
      <trkpt lat="47.88314" lon="6.91478">
        <ele>800.3</ele>
        <time>2022-11-02T13:30:48Z</time>
      </trkpt>
      <trkpt lat="47.88313" lon="6.91479">
        <ele>800.4</ele>
        <time>2022-11-02T13:30:49Z</time>
      </trkpt>
      <trkpt lat="47.88312" lon="6.9148">
        <ele>800.4</ele>
        <time>2022-11-02T13:30:50Z</time>
      </trkpt>
      <trkpt lat="47.88311" lon="6.9148">
        <ele>800.8</ele>
        <time>2022-11-02T13:30:51Z</time>
      </trkpt>
      <trkpt lat="47.88311" lon="6.91481">
        <ele>800.4</ele>
        <time>2022-11-02T13:30:52Z</time>
      </trkpt>
      <trkpt lat="47.8831" lon="6.91482">
        <ele>800.4</ele>
        <time>2022-11-02T13:30:53Z</time>
      </trkpt>
      <trkpt lat="47.88309" lon="6.91483">
        <ele>800.4</ele>
        <time>2022-11-02T13:30:54Z</time>
      </trkpt>
      <trkpt lat="47.88308" lon="6.91484">
        <ele>800.4</ele>
        <time>2022-11-02T13:30:55Z</time>
      </trkpt>
      <trkpt lat="47.88307" lon="6.91484">
        <ele>800.8</ele>
        <time>2022-11-02T13:30:56Z</time>
      </trkpt>
      <trkpt lat="47.88306" lon="6.91485">
        <ele>800.8</ele>
        <time>2022-11-02T13:30:57Z</time>
      </trkpt>
      <trkpt lat="47.88305" lon="6.91486">
        <ele>800.6</ele>
        <time>2022-11-02T13:30:58Z</time>
      </trkpt>
      <trkpt lat="47.88304" lon="6.91486">
        <ele>800.7</ele>
        <time>2022-11-02T13:30:59Z</time>
      </trkpt>
      <trkpt lat="47.88303" lon="6.91487">
        <ele>800.5</ele>
        <time>2022-11-02T13:31:00Z</time>
      </trkpt>
      <trkpt lat="47.88302" lon="6.91487">
        <ele>800.6</ele>
        <time>2022-11-02T13:31:01Z</time>
      </trkpt>
      <trkpt lat="47.88301" lon="6.91487">
        <ele>800.7</ele>
        <time>2022-11-02T13:31:02Z</time>
      </trkpt>
      <trkpt lat="47.88301" lon="6.91488">
        <ele>800.4</ele>
        <time>2022-11-02T13:31:03Z</time>
      </trkpt>
      <trkpt lat="47.883" lon="6.91488">
        <ele>800.5</ele>
        <time>2022-11-02T13:31:05Z</time>
      </trkpt>
      <trkpt lat="47.883" lon="6.91489">
        <ele>800.2</ele>
        <time>2022-11-02T13:31:06Z</time>
      </trkpt>
      <trkpt lat="47.88299" lon="6.91489">
        <ele>800.3</ele>
        <time>2022-11-02T13:31:07Z</time>
      </trkpt>
      <trkpt lat="47.88298" lon="6.91489">
        <ele>800.4</ele>
        <time>2022-11-02T13:31:08Z</time>
      </trkpt>
      <trkpt lat="47.88297" lon="6.91489">
        <ele>800.6</ele>
        <time>2022-11-02T13:31:09Z</time>
      </trkpt>
      <trkpt lat="47.88296" lon="6.9149">
        <ele>800.4</ele>
        <time>2022-11-02T13:31:10Z</time>
      </trkpt>
      <trkpt lat="47.88295" lon="6.9149">
        <ele>800.6</ele>
        <time>2022-11-02T13:31:11Z</time>
      </trkpt>
      <trkpt lat="47.88294" lon="6.9149">
        <ele>800.7</ele>
        <time>2022-11-02T13:31:12Z</time>
      </trkpt>
      <trkpt lat="47.88293" lon="6.9149">
        <ele>800.9</ele>
        <time>2022-11-02T13:31:13Z</time>
      </trkpt>
      <trkpt lat="47.88292" lon="6.9149">
        <ele>801</ele>
        <time>2022-11-02T13:31:14Z</time>
      </trkpt>
      <trkpt lat="47.88292" lon="6.91489">
        <ele>801.3</ele>
        <time>2022-11-02T13:31:15Z</time>
      </trkpt>
      <trkpt lat="47.88291" lon="6.91489">
        <ele>801.5</ele>
        <time>2022-11-02T13:31:16Z</time>
      </trkpt>
      <trkpt lat="47.8829" lon="6.91489">
        <ele>801.6</ele>
        <time>2022-11-02T13:31:17Z</time>
      </trkpt>
      <trkpt lat="47.88289" lon="6.91489">
        <ele>801.8</ele>
        <time>2022-11-02T13:31:19Z</time>
      </trkpt>
      <trkpt lat="47.88288" lon="6.9149">
        <ele>801.6</ele>
        <time>2022-11-02T13:31:20Z</time>
      </trkpt>
      <trkpt lat="47.88287" lon="6.9149">
        <ele>801.8</ele>
        <time>2022-11-02T13:31:21Z</time>
      </trkpt>
      <trkpt lat="47.88286" lon="6.91491">
        <ele>801.6</ele>
        <time>2022-11-02T13:31:22Z</time>
      </trkpt>
      <trkpt lat="47.88284" lon="6.91492">
        <ele>801.7</ele>
        <time>2022-11-02T13:31:23Z</time>
      </trkpt>
      <trkpt lat="47.88283" lon="6.91493">
        <ele>801.6</ele>
        <time>2022-11-02T13:31:24Z</time>
      </trkpt>
      <trkpt lat="47.88282" lon="6.91493">
        <ele>801.8</ele>
        <time>2022-11-02T13:31:25Z</time>
      </trkpt>
      <trkpt lat="47.88281" lon="6.91494">
        <ele>801.7</ele>
        <time>2022-11-02T13:31:26Z</time>
      </trkpt>
      <trkpt lat="47.8828" lon="6.91495">
        <ele>801.7</ele>
        <time>2022-11-02T13:31:27Z</time>
      </trkpt>
      <trkpt lat="47.88279" lon="6.91495">
        <ele>801.9</ele>
        <time>2022-11-02T13:31:28Z</time>
      </trkpt>
      <trkpt lat="47.88278" lon="6.91496">
        <ele>801.8</ele>
        <time>2022-11-02T13:31:29Z</time>
      </trkpt>
      <trkpt lat="47.88277" lon="6.91497">
        <ele>802</ele>
        <time>2022-11-02T13:31:30Z</time>
      </trkpt>
      <trkpt lat="47.88276" lon="6.91498">
        <ele>802.2</ele>
        <time>2022-11-02T13:31:31Z</time>
      </trkpt>
      <trkpt lat="47.88275" lon="6.91499">
        <ele>802.4</ele>
        <time>2022-11-02T13:31:32Z</time>
      </trkpt>
      <trkpt lat="47.88274" lon="6.915">
        <ele>802.6</ele>
        <time>2022-11-02T13:31:33Z</time>
      </trkpt>
      <trkpt lat="47.88274" lon="6.91501">
        <ele>802.3</ele>
        <time>2022-11-02T13:31:34Z</time>
      </trkpt>
      <trkpt lat="47.88273" lon="6.91502">
        <ele>802.3</ele>
        <time>2022-11-02T13:31:35Z</time>
      </trkpt>
      <trkpt lat="47.88272" lon="6.91503">
        <ele>802.4</ele>
        <time>2022-11-02T13:31:36Z</time>
      </trkpt>
      <trkpt lat="47.88272" lon="6.91504">
        <ele>802.1</ele>
        <time>2022-11-02T13:31:37Z</time>
      </trkpt>
      <trkpt lat="47.88271" lon="6.91505">
        <ele>802.1</ele>
        <time>2022-11-02T13:31:38Z</time>
      </trkpt>
      <trkpt lat="47.8827" lon="6.91506">
        <ele>802.2</ele>
        <time>2022-11-02T13:31:39Z</time>
      </trkpt>
      <trkpt lat="47.88269" lon="6.91507">
        <ele>802.3</ele>
        <time>2022-11-02T13:31:40Z</time>
      </trkpt>
      <trkpt lat="47.88269" lon="6.91508">
        <ele>801.9</ele>
        <time>2022-11-02T13:31:41Z</time>
      </trkpt>
      <trkpt lat="47.88268" lon="6.91509">
        <ele>802</ele>
        <time>2022-11-02T13:31:42Z</time>
      </trkpt>
      <trkpt lat="47.88267" lon="6.9151">
        <ele>802.1</ele>
        <time>2022-11-02T13:31:43Z</time>
      </trkpt>
      <trkpt lat="47.88266" lon="6.91511">
        <ele>802.1</ele>
        <time>2022-11-02T13:31:44Z</time>
      </trkpt>
      <trkpt lat="47.88265" lon="6.91512">
        <ele>802.2</ele>
        <time>2022-11-02T13:31:45Z</time>
      </trkpt>
      <trkpt lat="47.88264" lon="6.91513">
        <ele>802.3</ele>
        <time>2022-11-02T13:31:46Z</time>
      </trkpt>
      <trkpt lat="47.88263" lon="6.91514">
        <ele>802.3</ele>
        <time>2022-11-02T13:31:47Z</time>
      </trkpt>
      <trkpt lat="47.88262" lon="6.91515">
        <ele>802.4</ele>
        <time>2022-11-02T13:31:48Z</time>
      </trkpt>
      <trkpt lat="47.88261" lon="6.91516">
        <ele>802.5</ele>
        <time>2022-11-02T13:31:49Z</time>
      </trkpt>
      <trkpt lat="47.8826" lon="6.91517">
        <ele>802.6</ele>
        <time>2022-11-02T13:31:50Z</time>
      </trkpt>
      <trkpt lat="47.88259" lon="6.91518">
        <ele>802.6</ele>
        <time>2022-11-02T13:31:51Z</time>
      </trkpt>
      <trkpt lat="47.88258" lon="6.91519">
        <ele>802.7</ele>
        <time>2022-11-02T13:31:52Z</time>
      </trkpt>
      <trkpt lat="47.88257" lon="6.9152">
        <ele>802.8</ele>
        <time>2022-11-02T13:31:53Z</time>
      </trkpt>
      <trkpt lat="47.88255" lon="6.91521">
        <ele>803.3</ele>
        <time>2022-11-02T13:31:54Z</time>
      </trkpt>
      <trkpt lat="47.88254" lon="6.91523">
        <ele>803</ele>
        <time>2022-11-02T13:31:55Z</time>
      </trkpt>
      <trkpt lat="47.88253" lon="6.91525">
        <ele>802.7</ele>
        <time>2022-11-02T13:31:56Z</time>
      </trkpt>
      <trkpt lat="47.88252" lon="6.91527">
        <ele>802.4</ele>
        <time>2022-11-02T13:31:57Z</time>
      </trkpt>
      <trkpt lat="47.88251" lon="6.91529">
        <ele>802.1</ele>
        <time>2022-11-02T13:31:58Z</time>
      </trkpt>
      <trkpt lat="47.88251" lon="6.91531">
        <ele>801.4</ele>
        <time>2022-11-02T13:31:59Z</time>
      </trkpt>
      <trkpt lat="47.8825" lon="6.91533">
        <ele>801.1</ele>
        <time>2022-11-02T13:32:00Z</time>
      </trkpt>
      <trkpt lat="47.8825" lon="6.91534">
        <ele>800.8</ele>
        <time>2022-11-02T13:32:01Z</time>
      </trkpt>
      <trkpt lat="47.8825" lon="6.91535">
        <ele>800.4</ele>
        <time>2022-11-02T13:32:02Z</time>
      </trkpt>
      <trkpt lat="47.88249" lon="6.91536">
        <ele>800</ele>
        <time>2022-11-02T13:32:03Z</time>
      </trkpt>
      <trkpt lat="47.88249" lon="6.91537">
        <ele>799.7</ele>
        <time>2022-11-02T13:32:04Z</time>
      </trkpt>
      <trkpt lat="47.88248" lon="6.91537">
        <ele>799.7</ele>
        <time>2022-11-02T13:32:05Z</time>
      </trkpt>
      <trkpt lat="47.88247" lon="6.91538">
        <ele>799.3</ele>
        <time>2022-11-02T13:32:06Z</time>
      </trkpt>
      <trkpt lat="47.88246" lon="6.91537">
        <ele>799.7</ele>
        <time>2022-11-02T13:32:07Z</time>
      </trkpt>
      <trkpt lat="47.88245" lon="6.91537">
        <ele>799.7</ele>
        <time>2022-11-02T13:32:08Z</time>
      </trkpt>
      <trkpt lat="47.88243" lon="6.91537">
        <ele>799.7</ele>
        <time>2022-11-02T13:32:09Z</time>
      </trkpt>
      <trkpt lat="47.88242" lon="6.91536">
        <ele>800</ele>
        <time>2022-11-02T13:32:10Z</time>
      </trkpt>
      <trkpt lat="47.8824" lon="6.91536">
        <ele>800</ele>
        <time>2022-11-02T13:32:11Z</time>
      </trkpt>
      <trkpt lat="47.88239" lon="6.91535">
        <ele>800.4</ele>
        <time>2022-11-02T13:32:12Z</time>
      </trkpt>
      <trkpt lat="47.88238" lon="6.91535">
        <ele>800.4</ele>
        <time>2022-11-02T13:32:13Z</time>
      </trkpt>
      <trkpt lat="47.88237" lon="6.91534">
        <ele>800.8</ele>
        <time>2022-11-02T13:32:14Z</time>
      </trkpt>
      <trkpt lat="47.88235" lon="6.91534">
        <ele>800.8</ele>
        <time>2022-11-02T13:32:15Z</time>
      </trkpt>
      <trkpt lat="47.88234" lon="6.91533">
        <ele>801.1</ele>
        <time>2022-11-02T13:32:16Z</time>
      </trkpt>
      <trkpt lat="47.88233" lon="6.91533">
        <ele>801.1</ele>
        <time>2022-11-02T13:32:17Z</time>
      </trkpt>
      <trkpt lat="47.88232" lon="6.91533">
        <ele>801.1</ele>
        <time>2022-11-02T13:32:18Z</time>
      </trkpt>
      <trkpt lat="47.8823" lon="6.91532">
        <ele>801.5</ele>
        <time>2022-11-02T13:32:19Z</time>
      </trkpt>
      <trkpt lat="47.88229" lon="6.91532">
        <ele>801.5</ele>
        <time>2022-11-02T13:32:20Z</time>
      </trkpt>
      <trkpt lat="47.88228" lon="6.91533">
        <ele>801.1</ele>
        <time>2022-11-02T13:32:21Z</time>
      </trkpt>
      <trkpt lat="47.88227" lon="6.91533">
        <ele>801.1</ele>
        <time>2022-11-02T13:32:22Z</time>
      </trkpt>
      <trkpt lat="47.88225" lon="6.91533">
        <ele>801.1</ele>
        <time>2022-11-02T13:32:23Z</time>
      </trkpt>
      <trkpt lat="47.88224" lon="6.91533">
        <ele>801.1</ele>
        <time>2022-11-02T13:32:24Z</time>
      </trkpt>
      <trkpt lat="47.88223" lon="6.91533">
        <ele>801.1</ele>
        <time>2022-11-02T13:32:25Z</time>
      </trkpt>
      <trkpt lat="47.88222" lon="6.91533">
        <ele>801.2</ele>
        <time>2022-11-02T13:32:26Z</time>
      </trkpt>
      <trkpt lat="47.8822" lon="6.91533">
        <ele>802</ele>
        <time>2022-11-02T13:32:27Z</time>
      </trkpt>
      <trkpt lat="47.88219" lon="6.91533">
        <ele>802.4</ele>
        <time>2022-11-02T13:32:28Z</time>
      </trkpt>
      <trkpt lat="47.88218" lon="6.91533">
        <ele>802.8</ele>
        <time>2022-11-02T13:32:29Z</time>
      </trkpt>
      <trkpt lat="47.88217" lon="6.91533">
        <ele>803.2</ele>
        <time>2022-11-02T13:32:30Z</time>
      </trkpt>
      <trkpt lat="47.88216" lon="6.91534">
        <ele>803.2</ele>
        <time>2022-11-02T13:32:31Z</time>
      </trkpt>
      <trkpt lat="47.88215" lon="6.91534">
        <ele>803.6</ele>
        <time>2022-11-02T13:32:32Z</time>
      </trkpt>
      <trkpt lat="47.88214" lon="6.91534">
        <ele>804</ele>
        <time>2022-11-02T13:32:33Z</time>
      </trkpt>
      <trkpt lat="47.88213" lon="6.91535">
        <ele>804.1</ele>
        <time>2022-11-02T13:32:37Z</time>
      </trkpt>
      <trkpt lat="47.88212" lon="6.91535">
        <ele>804.4</ele>
        <time>2022-11-02T13:32:39Z</time>
      </trkpt>
      <trkpt lat="47.88212" lon="6.91536">
        <ele>804.1</ele>
        <time>2022-11-02T13:32:40Z</time>
      </trkpt>
      <trkpt lat="47.88211" lon="6.91536">
        <ele>804.5</ele>
        <time>2022-11-02T13:32:41Z</time>
      </trkpt>
      <trkpt lat="47.88211" lon="6.91537">
        <ele>804.1</ele>
        <time>2022-11-02T13:32:42Z</time>
      </trkpt>
      <trkpt lat="47.8821" lon="6.91538">
        <ele>804.2</ele>
        <time>2022-11-02T13:32:44Z</time>
      </trkpt>
      <trkpt lat="47.88209" lon="6.91538">
        <ele>804.6</ele>
        <time>2022-11-02T13:32:45Z</time>
      </trkpt>
      <trkpt lat="47.88208" lon="6.91539">
        <ele>804.6</ele>
        <time>2022-11-02T13:32:46Z</time>
      </trkpt>
      <trkpt lat="47.88207" lon="6.91539">
        <ele>805</ele>
        <time>2022-11-02T13:32:47Z</time>
      </trkpt>
      <trkpt lat="47.88206" lon="6.91539">
        <ele>805.4</ele>
        <time>2022-11-02T13:32:48Z</time>
      </trkpt>
      <trkpt lat="47.88205" lon="6.9154">
        <ele>805.4</ele>
        <time>2022-11-02T13:32:49Z</time>
      </trkpt>
      <trkpt lat="47.88204" lon="6.9154">
        <ele>805.8</ele>
        <time>2022-11-02T13:32:50Z</time>
      </trkpt>
      <trkpt lat="47.88203" lon="6.91541">
        <ele>805.9</ele>
        <time>2022-11-02T13:32:51Z</time>
      </trkpt>
      <trkpt lat="47.88202" lon="6.91541">
        <ele>806.2</ele>
        <time>2022-11-02T13:32:52Z</time>
      </trkpt>
      <trkpt lat="47.88202" lon="6.91542">
        <ele>805.9</ele>
        <time>2022-11-02T13:32:53Z</time>
      </trkpt>
      <trkpt lat="47.88201" lon="6.91543">
        <ele>805.9</ele>
        <time>2022-11-02T13:32:54Z</time>
      </trkpt>
      <trkpt lat="47.882" lon="6.91544">
        <ele>806</ele>
        <time>2022-11-02T13:32:55Z</time>
      </trkpt>
      <trkpt lat="47.88199" lon="6.91546">
        <ele>805.6</ele>
        <time>2022-11-02T13:32:56Z</time>
      </trkpt>
      <trkpt lat="47.88198" lon="6.91547">
        <ele>805.7</ele>
        <time>2022-11-02T13:32:57Z</time>
      </trkpt>
      <trkpt lat="47.88197" lon="6.91549">
        <ele>805.3</ele>
        <time>2022-11-02T13:32:58Z</time>
      </trkpt>
      <trkpt lat="47.88195" lon="6.91551">
        <ele>805.4</ele>
        <time>2022-11-02T13:32:59Z</time>
      </trkpt>
      <trkpt lat="47.88194" lon="6.91552">
        <ele>805.4</ele>
        <time>2022-11-02T13:33:00Z</time>
      </trkpt>
      <trkpt lat="47.88192" lon="6.91554">
        <ele>805.1</ele>
        <time>2022-11-02T13:33:01Z</time>
      </trkpt>
      <trkpt lat="47.88191" lon="6.91555">
        <ele>805</ele>
        <time>2022-11-02T13:33:02Z</time>
      </trkpt>
      <trkpt lat="47.8819" lon="6.91555">
        <ele>805.2</ele>
        <time>2022-11-02T13:33:03Z</time>
      </trkpt>
      <trkpt lat="47.88189" lon="6.91556">
        <ele>805</ele>
        <time>2022-11-02T13:33:04Z</time>
      </trkpt>
      <trkpt lat="47.88188" lon="6.91556">
        <ele>805.2</ele>
        <time>2022-11-02T13:33:05Z</time>
      </trkpt>
      <trkpt lat="47.88187" lon="6.91556">
        <ele>805.5</ele>
        <time>2022-11-02T13:33:06Z</time>
      </trkpt>
      <trkpt lat="47.88186" lon="6.91557">
        <ele>805.4</ele>
        <time>2022-11-02T13:33:07Z</time>
      </trkpt>
      <trkpt lat="47.88185" lon="6.91557">
        <ele>805.6</ele>
        <time>2022-11-02T13:33:08Z</time>
      </trkpt>
      <trkpt lat="47.88184" lon="6.91558">
        <ele>805.5</ele>
        <time>2022-11-02T13:33:09Z</time>
      </trkpt>
      <trkpt lat="47.88183" lon="6.91559">
        <ele>805.4</ele>
        <time>2022-11-02T13:33:11Z</time>
      </trkpt>
      <trkpt lat="47.88183" lon="6.9156">
        <ele>805.1</ele>
        <time>2022-11-02T13:33:12Z</time>
      </trkpt>
      <trkpt lat="47.88182" lon="6.9156">
        <ele>805.3</ele>
        <time>2022-11-02T13:33:13Z</time>
      </trkpt>
      <trkpt lat="47.88182" lon="6.91561">
        <ele>805</ele>
        <time>2022-11-02T13:33:14Z</time>
      </trkpt>
      <trkpt lat="47.88181" lon="6.91561">
        <ele>805.2</ele>
        <time>2022-11-02T13:33:15Z</time>
      </trkpt>
      <trkpt lat="47.88181" lon="6.91562">
        <ele>804.9</ele>
        <time>2022-11-02T13:33:16Z</time>
      </trkpt>
      <trkpt lat="47.8818" lon="6.91563">
        <ele>804.9</ele>
        <time>2022-11-02T13:33:17Z</time>
      </trkpt>
      <trkpt lat="47.8818" lon="6.91564">
        <ele>804.6</ele>
        <time>2022-11-02T13:33:18Z</time>
      </trkpt>
      <trkpt lat="47.88179" lon="6.91566">
        <ele>804.2</ele>
        <time>2022-11-02T13:33:19Z</time>
      </trkpt>
      <trkpt lat="47.88178" lon="6.91567">
        <ele>804.2</ele>
        <time>2022-11-02T13:33:20Z</time>
      </trkpt>
      <trkpt lat="47.88177" lon="6.91568">
        <ele>804.1</ele>
        <time>2022-11-02T13:33:21Z</time>
      </trkpt>
      <trkpt lat="47.88176" lon="6.91569">
        <ele>804.1</ele>
        <time>2022-11-02T13:33:22Z</time>
      </trkpt>
      <trkpt lat="47.88175" lon="6.9157">
        <ele>804.1</ele>
        <time>2022-11-02T13:33:23Z</time>
      </trkpt>
      <trkpt lat="47.88174" lon="6.91571">
        <ele>804.1</ele>
        <time>2022-11-02T13:33:24Z</time>
      </trkpt>
      <trkpt lat="47.88172" lon="6.91571">
        <ele>804.6</ele>
        <time>2022-11-02T13:33:25Z</time>
      </trkpt>
      <trkpt lat="47.88171" lon="6.91572">
        <ele>804.6</ele>
        <time>2022-11-02T13:33:26Z</time>
      </trkpt>
      <trkpt lat="47.88169" lon="6.91572">
        <ele>805.2</ele>
        <time>2022-11-02T13:33:27Z</time>
      </trkpt>
      <trkpt lat="47.88168" lon="6.91572">
        <ele>805.5</ele>
        <time>2022-11-02T13:33:28Z</time>
      </trkpt>
      <trkpt lat="47.88166" lon="6.91572">
        <ele>806.2</ele>
        <time>2022-11-02T13:33:29Z</time>
      </trkpt>
      <trkpt lat="47.88165" lon="6.91572">
        <ele>806.7</ele>
        <time>2022-11-02T13:33:30Z</time>
      </trkpt>
      <trkpt lat="47.88164" lon="6.91573">
        <ele>806.9</ele>
        <time>2022-11-02T13:33:31Z</time>
      </trkpt>
      <trkpt lat="47.88163" lon="6.91573">
        <ele>807.4</ele>
        <time>2022-11-02T13:33:32Z</time>
      </trkpt>
      <trkpt lat="47.88162" lon="6.91573">
        <ele>807.9</ele>
        <time>2022-11-02T13:33:33Z</time>
      </trkpt>
      <trkpt lat="47.88161" lon="6.91574">
        <ele>808.2</ele>
        <time>2022-11-02T13:33:34Z</time>
      </trkpt>
      <trkpt lat="47.8816" lon="6.91575">
        <ele>808.5</ele>
        <time>2022-11-02T13:33:36Z</time>
      </trkpt>
      <trkpt lat="47.88159" lon="6.91575">
        <ele>809</ele>
        <time>2022-11-02T13:33:37Z</time>
      </trkpt>
      <trkpt lat="47.88158" lon="6.91576">
        <ele>809.3</ele>
        <time>2022-11-02T13:33:39Z</time>
      </trkpt>
      <trkpt lat="47.88157" lon="6.91576">
        <ele>809.8</ele>
        <time>2022-11-02T13:33:40Z</time>
      </trkpt>
      <trkpt lat="47.88157" lon="6.91577">
        <ele>809.6</ele>
        <time>2022-11-02T13:33:41Z</time>
      </trkpt>
      <trkpt lat="47.88156" lon="6.91578">
        <ele>809.9</ele>
        <time>2022-11-02T13:33:43Z</time>
      </trkpt>
      <trkpt lat="47.88156" lon="6.91579">
        <ele>809.7</ele>
        <time>2022-11-02T13:33:44Z</time>
      </trkpt>
      <trkpt lat="47.88156" lon="6.9158">
        <ele>809.5</ele>
        <time>2022-11-02T13:33:45Z</time>
      </trkpt>
      <trkpt lat="47.88156" lon="6.91581">
        <ele>809.3</ele>
        <time>2022-11-02T13:33:46Z</time>
      </trkpt>
      <trkpt lat="47.88156" lon="6.91583">
        <ele>808.8</ele>
        <time>2022-11-02T13:33:47Z</time>
      </trkpt>
      <trkpt lat="47.88156" lon="6.91584">
        <ele>808.7</ele>
        <time>2022-11-02T13:33:48Z</time>
      </trkpt>
      <trkpt lat="47.88155" lon="6.91585">
        <ele>809.2</ele>
        <time>2022-11-02T13:33:49Z</time>
      </trkpt>
      <trkpt lat="47.88155" lon="6.91587">
        <ele>809.1</ele>
        <time>2022-11-02T13:33:50Z</time>
      </trkpt>
      <trkpt lat="47.88155" lon="6.91588">
        <ele>809</ele>
        <time>2022-11-02T13:33:51Z</time>
      </trkpt>
      <trkpt lat="47.88155" lon="6.91589">
        <ele>808.9</ele>
        <time>2022-11-02T13:33:52Z</time>
      </trkpt>
      <trkpt lat="47.88154" lon="6.9159">
        <ele>809.4</ele>
        <time>2022-11-02T13:33:53Z</time>
      </trkpt>
      <trkpt lat="47.88153" lon="6.91591">
        <ele>809.8</ele>
        <time>2022-11-02T13:33:54Z</time>
      </trkpt>
      <trkpt lat="47.88152" lon="6.91592">
        <ele>810.3</ele>
        <time>2022-11-02T13:33:55Z</time>
      </trkpt>
      <trkpt lat="47.88152" lon="6.91593">
        <ele>810.2</ele>
        <time>2022-11-02T13:33:56Z</time>
      </trkpt>
      <trkpt lat="47.88151" lon="6.91594">
        <ele>810.6</ele>
        <time>2022-11-02T13:33:57Z</time>
      </trkpt>
      <trkpt lat="47.8815" lon="6.91595">
        <ele>811.1</ele>
        <time>2022-11-02T13:33:58Z</time>
      </trkpt>
      <trkpt lat="47.88149" lon="6.91596">
        <ele>811.5</ele>
        <time>2022-11-02T13:33:59Z</time>
      </trkpt>
      <trkpt lat="47.88149" lon="6.91597">
        <ele>811.4</ele>
        <time>2022-11-02T13:34:00Z</time>
      </trkpt>
      <trkpt lat="47.88148" lon="6.91599">
        <ele>811.8</ele>
        <time>2022-11-02T13:34:01Z</time>
      </trkpt>
      <trkpt lat="47.88147" lon="6.916">
        <ele>812.2</ele>
        <time>2022-11-02T13:34:02Z</time>
      </trkpt>
      <trkpt lat="47.88147" lon="6.91601">
        <ele>812.1</ele>
        <time>2022-11-02T13:34:03Z</time>
      </trkpt>
      <trkpt lat="47.88146" lon="6.91602">
        <ele>812.5</ele>
        <time>2022-11-02T13:34:04Z</time>
      </trkpt>
      <trkpt lat="47.88146" lon="6.91604">
        <ele>812.3</ele>
        <time>2022-11-02T13:34:05Z</time>
      </trkpt>
      <trkpt lat="47.88146" lon="6.91605">
        <ele>812.2</ele>
        <time>2022-11-02T13:34:06Z</time>
      </trkpt>
      <trkpt lat="47.88146" lon="6.91607">
        <ele>812</ele>
        <time>2022-11-02T13:34:07Z</time>
      </trkpt>
      <trkpt lat="47.88145" lon="6.91608">
        <ele>812.4</ele>
        <time>2022-11-02T13:34:08Z</time>
      </trkpt>
      <trkpt lat="47.88145" lon="6.9161">
        <ele>812.2</ele>
        <time>2022-11-02T13:34:09Z</time>
      </trkpt>
      <trkpt lat="47.88145" lon="6.91611">
        <ele>812.2</ele>
        <time>2022-11-02T13:34:10Z</time>
      </trkpt>
      <trkpt lat="47.88144" lon="6.91613">
        <ele>812.3</ele>
        <time>2022-11-02T13:34:11Z</time>
      </trkpt>
      <trkpt lat="47.88144" lon="6.91614">
        <ele>812.2</ele>
        <time>2022-11-02T13:34:12Z</time>
      </trkpt>
      <trkpt lat="47.88143" lon="6.91615">
        <ele>812.5</ele>
        <time>2022-11-02T13:34:13Z</time>
      </trkpt>
      <trkpt lat="47.88143" lon="6.91617">
        <ele>812.3</ele>
        <time>2022-11-02T13:34:14Z</time>
      </trkpt>
      <trkpt lat="47.88143" lon="6.91618">
        <ele>812.1</ele>
        <time>2022-11-02T13:34:15Z</time>
      </trkpt>
      <trkpt lat="47.88142" lon="6.91619">
        <ele>812.4</ele>
        <time>2022-11-02T13:34:16Z</time>
      </trkpt>
      <trkpt lat="47.88142" lon="6.91621">
        <ele>812.2</ele>
        <time>2022-11-02T13:34:17Z</time>
      </trkpt>
      <trkpt lat="47.88141" lon="6.91622">
        <ele>812.5</ele>
        <time>2022-11-02T13:34:18Z</time>
      </trkpt>
      <trkpt lat="47.88141" lon="6.91624">
        <ele>812.2</ele>
        <time>2022-11-02T13:34:19Z</time>
      </trkpt>
      <trkpt lat="47.88141" lon="6.91625">
        <ele>812</ele>
        <time>2022-11-02T13:34:20Z</time>
      </trkpt>
      <trkpt lat="47.8814" lon="6.91627">
        <ele>812.2</ele>
        <time>2022-11-02T13:34:21Z</time>
      </trkpt>
      <trkpt lat="47.8814" lon="6.91629">
        <ele>811.9</ele>
        <time>2022-11-02T13:34:22Z</time>
      </trkpt>
      <trkpt lat="47.8814" lon="6.9163">
        <ele>811.8</ele>
        <time>2022-11-02T13:34:23Z</time>
      </trkpt>
      <trkpt lat="47.8814" lon="6.91632">
        <ele>811.5</ele>
        <time>2022-11-02T13:34:24Z</time>
      </trkpt>
      <trkpt lat="47.8814" lon="6.91633">
        <ele>811.4</ele>
        <time>2022-11-02T13:34:25Z</time>
      </trkpt>
      <trkpt lat="47.8814" lon="6.91635">
        <ele>811.1</ele>
        <time>2022-11-02T13:34:26Z</time>
      </trkpt>
      <trkpt lat="47.88139" lon="6.91636">
        <ele>811.4</ele>
        <time>2022-11-02T13:34:27Z</time>
      </trkpt>
      <trkpt lat="47.88139" lon="6.91637">
        <ele>811.2</ele>
        <time>2022-11-02T13:34:28Z</time>
      </trkpt>
      <trkpt lat="47.88138" lon="6.91639">
        <ele>811.5</ele>
        <time>2022-11-02T13:34:29Z</time>
      </trkpt>
      <trkpt lat="47.88137" lon="6.9164">
        <ele>811.9</ele>
        <time>2022-11-02T13:34:30Z</time>
      </trkpt>
      <trkpt lat="47.88137" lon="6.91641">
        <ele>811.7</ele>
        <time>2022-11-02T13:34:31Z</time>
      </trkpt>
      <trkpt lat="47.88136" lon="6.91643">
        <ele>811.8</ele>
        <time>2022-11-02T13:34:32Z</time>
      </trkpt>
      <trkpt lat="47.88135" lon="6.91644">
        <ele>812.2</ele>
        <time>2022-11-02T13:34:33Z</time>
      </trkpt>
      <trkpt lat="47.88135" lon="6.91645">
        <ele>812</ele>
        <time>2022-11-02T13:34:34Z</time>
      </trkpt>
      <trkpt lat="47.88134" lon="6.91646">
        <ele>812.4</ele>
        <time>2022-11-02T13:34:35Z</time>
      </trkpt>
      <trkpt lat="47.88133" lon="6.91648">
        <ele>812.5</ele>
        <time>2022-11-02T13:34:36Z</time>
      </trkpt>
      <trkpt lat="47.88133" lon="6.91649">
        <ele>812.3</ele>
        <time>2022-11-02T13:34:37Z</time>
      </trkpt>
      <trkpt lat="47.88132" lon="6.9165">
        <ele>812.7</ele>
        <time>2022-11-02T13:34:38Z</time>
      </trkpt>
      <trkpt lat="47.88132" lon="6.91652">
        <ele>812.2</ele>
        <time>2022-11-02T13:34:39Z</time>
      </trkpt>
      <trkpt lat="47.88131" lon="6.91653">
        <ele>812.6</ele>
        <time>2022-11-02T13:34:40Z</time>
      </trkpt>
      <trkpt lat="47.88131" lon="6.91655">
        <ele>812.1</ele>
        <time>2022-11-02T13:34:41Z</time>
      </trkpt>
      <trkpt lat="47.8813" lon="6.91656">
        <ele>812.4</ele>
        <time>2022-11-02T13:34:42Z</time>
      </trkpt>
      <trkpt lat="47.88129" lon="6.91658">
        <ele>812.6</ele>
        <time>2022-11-02T13:34:43Z</time>
      </trkpt>
      <trkpt lat="47.88128" lon="6.91659">
        <ele>813</ele>
        <time>2022-11-02T13:34:44Z</time>
      </trkpt>
      <trkpt lat="47.88128" lon="6.9166">
        <ele>812.7</ele>
        <time>2022-11-02T13:34:45Z</time>
      </trkpt>
      <trkpt lat="47.88127" lon="6.91661">
        <ele>813.1</ele>
        <time>2022-11-02T13:34:46Z</time>
      </trkpt>
      <trkpt lat="47.88127" lon="6.91662">
        <ele>812.9</ele>
        <time>2022-11-02T13:34:47Z</time>
      </trkpt>
      <trkpt lat="47.88126" lon="6.91664">
        <ele>813</ele>
        <time>2022-11-02T13:34:48Z</time>
      </trkpt>
      <trkpt lat="47.88125" lon="6.91665">
        <ele>813.4</ele>
        <time>2022-11-02T13:34:49Z</time>
      </trkpt>
      <trkpt lat="47.88124" lon="6.91666">
        <ele>813.8</ele>
        <time>2022-11-02T13:34:50Z</time>
      </trkpt>
      <trkpt lat="47.88123" lon="6.91668">
        <ele>813.9</ele>
        <time>2022-11-02T13:34:51Z</time>
      </trkpt>
      <trkpt lat="47.88123" lon="6.9167">
        <ele>813.3</ele>
        <time>2022-11-02T13:34:52Z</time>
      </trkpt>
      <trkpt lat="47.88122" lon="6.91671">
        <ele>813.6</ele>
        <time>2022-11-02T13:34:53Z</time>
      </trkpt>
      <trkpt lat="47.88122" lon="6.91673">
        <ele>813</ele>
        <time>2022-11-02T13:34:54Z</time>
      </trkpt>
      <trkpt lat="47.88121" lon="6.91674">
        <ele>813.3</ele>
        <time>2022-11-02T13:34:55Z</time>
      </trkpt>
      <trkpt lat="47.88121" lon="6.91676">
        <ele>812.7</ele>
        <time>2022-11-02T13:34:56Z</time>
      </trkpt>
      <trkpt lat="47.8812" lon="6.91677">
        <ele>813</ele>
        <time>2022-11-02T13:34:57Z</time>
      </trkpt>
      <trkpt lat="47.8812" lon="6.91679">
        <ele>812.4</ele>
        <time>2022-11-02T13:34:58Z</time>
      </trkpt>
      <trkpt lat="47.88119" lon="6.9168">
        <ele>812.7</ele>
        <time>2022-11-02T13:34:59Z</time>
      </trkpt>
      <trkpt lat="47.88119" lon="6.91682">
        <ele>812.1</ele>
        <time>2022-11-02T13:35:00Z</time>
      </trkpt>
      <trkpt lat="47.88118" lon="6.91683">
        <ele>812.4</ele>
        <time>2022-11-02T13:35:01Z</time>
      </trkpt>
      <trkpt lat="47.88118" lon="6.91684">
        <ele>812.1</ele>
        <time>2022-11-02T13:35:02Z</time>
      </trkpt>
      <trkpt lat="47.88117" lon="6.91685">
        <ele>812.4</ele>
        <time>2022-11-02T13:35:03Z</time>
      </trkpt>
      <trkpt lat="47.88117" lon="6.91686">
        <ele>812.1</ele>
        <time>2022-11-02T13:35:04Z</time>
      </trkpt>
      <trkpt lat="47.88116" lon="6.91687">
        <ele>812.4</ele>
        <time>2022-11-02T13:35:05Z</time>
      </trkpt>
      <trkpt lat="47.88116" lon="6.91688">
        <ele>812.1</ele>
        <time>2022-11-02T13:35:06Z</time>
      </trkpt>
      <trkpt lat="47.88115" lon="6.91688">
        <ele>812.7</ele>
        <time>2022-11-02T13:35:07Z</time>
      </trkpt>
      <trkpt lat="47.88114" lon="6.91689">
        <ele>813</ele>
        <time>2022-11-02T13:35:08Z</time>
      </trkpt>
      <trkpt lat="47.88114" lon="6.9169">
        <ele>812.7</ele>
        <time>2022-11-02T13:35:09Z</time>
      </trkpt>
      <trkpt lat="47.88113" lon="6.91691">
        <ele>813</ele>
        <time>2022-11-02T13:35:10Z</time>
      </trkpt>
      <trkpt lat="47.88112" lon="6.91692">
        <ele>813.2</ele>
        <time>2022-11-02T13:35:11Z</time>
      </trkpt>
      <trkpt lat="47.88111" lon="6.91694">
        <ele>813.2</ele>
        <time>2022-11-02T13:35:12Z</time>
      </trkpt>
      <trkpt lat="47.88111" lon="6.91695">
        <ele>812.9</ele>
        <time>2022-11-02T13:35:13Z</time>
      </trkpt>
      <trkpt lat="47.8811" lon="6.91696">
        <ele>812.8</ele>
        <time>2022-11-02T13:35:14Z</time>
      </trkpt>
      <trkpt lat="47.88109" lon="6.91696">
        <ele>813.2</ele>
        <time>2022-11-02T13:35:15Z</time>
      </trkpt>
      <trkpt lat="47.88109" lon="6.91697">
        <ele>812.8</ele>
        <time>2022-11-02T13:35:16Z</time>
      </trkpt>
      <trkpt lat="47.88109" lon="6.91698">
        <ele>812.5</ele>
        <time>2022-11-02T13:35:17Z</time>
      </trkpt>
      <trkpt lat="47.88108" lon="6.91699">
        <ele>812.5</ele>
        <time>2022-11-02T13:35:18Z</time>
      </trkpt>
      <trkpt lat="47.88107" lon="6.91699">
        <ele>812.8</ele>
        <time>2022-11-02T13:35:19Z</time>
      </trkpt>
      <trkpt lat="47.88107" lon="6.917">
        <ele>812.4</ele>
        <time>2022-11-02T13:35:20Z</time>
      </trkpt>
      <trkpt lat="47.88106" lon="6.91701">
        <ele>812.4</ele>
        <time>2022-11-02T13:35:21Z</time>
      </trkpt>
      <trkpt lat="47.88105" lon="6.91702">
        <ele>812.4</ele>
        <time>2022-11-02T13:35:22Z</time>
      </trkpt>
      <trkpt lat="47.88104" lon="6.91703">
        <ele>812.3</ele>
        <time>2022-11-02T13:35:23Z</time>
      </trkpt>
      <trkpt lat="47.88103" lon="6.91704">
        <ele>812.2</ele>
        <time>2022-11-02T13:35:24Z</time>
      </trkpt>
      <trkpt lat="47.88102" lon="6.91705">
        <ele>812.2</ele>
        <time>2022-11-02T13:35:25Z</time>
      </trkpt>
      <trkpt lat="47.88101" lon="6.91706">
        <ele>812.1</ele>
        <time>2022-11-02T13:35:26Z</time>
      </trkpt>
      <trkpt lat="47.881" lon="6.91706">
        <ele>812.4</ele>
        <time>2022-11-02T13:35:27Z</time>
      </trkpt>
      <trkpt lat="47.88099" lon="6.91707">
        <ele>812.3</ele>
        <time>2022-11-02T13:35:28Z</time>
      </trkpt>
      <trkpt lat="47.88098" lon="6.91708">
        <ele>812.2</ele>
        <time>2022-11-02T13:35:29Z</time>
      </trkpt>
      <trkpt lat="47.88097" lon="6.91709">
        <ele>812.1</ele>
        <time>2022-11-02T13:35:30Z</time>
      </trkpt>
      <trkpt lat="47.88096" lon="6.91709">
        <ele>812.3</ele>
        <time>2022-11-02T13:35:31Z</time>
      </trkpt>
      <trkpt lat="47.88095" lon="6.9171">
        <ele>812.2</ele>
        <time>2022-11-02T13:35:32Z</time>
      </trkpt>
      <trkpt lat="47.88094" lon="6.91711">
        <ele>812.1</ele>
        <time>2022-11-02T13:35:33Z</time>
      </trkpt>
      <trkpt lat="47.88093" lon="6.91711">
        <ele>812.3</ele>
        <time>2022-11-02T13:35:34Z</time>
      </trkpt>
      <trkpt lat="47.88093" lon="6.91712">
        <ele>811.9</ele>
        <time>2022-11-02T13:35:35Z</time>
      </trkpt>
      <trkpt lat="47.88092" lon="6.91713">
        <ele>811.8</ele>
        <time>2022-11-02T13:35:36Z</time>
      </trkpt>
      <trkpt lat="47.88091" lon="6.91714">
        <ele>811.7</ele>
        <time>2022-11-02T13:35:37Z</time>
      </trkpt>
      <trkpt lat="47.8809" lon="6.91715">
        <ele>811.5</ele>
        <time>2022-11-02T13:35:38Z</time>
      </trkpt>
      <trkpt lat="47.88089" lon="6.91716">
        <ele>811.3</ele>
        <time>2022-11-02T13:35:39Z</time>
      </trkpt>
      <trkpt lat="47.88088" lon="6.91717">
        <ele>811.2</ele>
        <time>2022-11-02T13:35:40Z</time>
      </trkpt>
      <trkpt lat="47.88087" lon="6.91718">
        <ele>811</ele>
        <time>2022-11-02T13:35:41Z</time>
      </trkpt>
      <trkpt lat="47.88085" lon="6.91719">
        <ele>811</ele>
        <time>2022-11-02T13:36:27Z</time>
      </trkpt>
      <trkpt lat="47.88084" lon="6.9172">
        <ele>810.8</ele>
        <time>2022-11-02T13:36:28Z</time>
      </trkpt>
      <trkpt lat="47.88083" lon="6.91721">
        <ele>810.6</ele>
        <time>2022-11-02T13:36:29Z</time>
      </trkpt>
      <trkpt lat="47.88082" lon="6.91722">
        <ele>810.2</ele>
        <time>2022-11-02T13:36:31Z</time>
      </trkpt>
      <trkpt lat="47.88081" lon="6.91722">
        <ele>810.3</ele>
        <time>2022-11-02T13:36:33Z</time>
      </trkpt>
      <trkpt lat="47.8808" lon="6.91723">
        <ele>809.8</ele>
        <time>2022-11-02T13:36:34Z</time>
      </trkpt>
      <trkpt lat="47.88079" lon="6.91723">
        <ele>809.9</ele>
        <time>2022-11-02T13:36:35Z</time>
      </trkpt>
      <trkpt lat="47.88078" lon="6.91723">
        <ele>810</ele>
        <time>2022-11-02T13:36:36Z</time>
      </trkpt>
      <trkpt lat="47.88077" lon="6.91723">
        <ele>810</ele>
        <time>2022-11-02T13:36:37Z</time>
      </trkpt>
      <trkpt lat="47.88076" lon="6.91723">
        <ele>810.1</ele>
        <time>2022-11-02T13:36:39Z</time>
      </trkpt>
      <trkpt lat="47.88075" lon="6.91723">
        <ele>810.2</ele>
        <time>2022-11-02T13:36:40Z</time>
      </trkpt>
      <trkpt lat="47.88074" lon="6.91723">
        <ele>810.2</ele>
        <time>2022-11-02T13:36:41Z</time>
      </trkpt>
      <trkpt lat="47.88073" lon="6.91723">
        <ele>810.3</ele>
        <time>2022-11-02T13:36:42Z</time>
      </trkpt>
      <trkpt lat="47.88072" lon="6.91723">
        <ele>810.4</ele>
        <time>2022-11-02T13:36:44Z</time>
      </trkpt>
      <trkpt lat="47.88071" lon="6.91723">
        <ele>810.4</ele>
        <time>2022-11-02T13:36:45Z</time>
      </trkpt>
      <trkpt lat="47.8807" lon="6.91723">
        <ele>810.5</ele>
        <time>2022-11-02T13:36:46Z</time>
      </trkpt>
      <trkpt lat="47.88069" lon="6.91722">
        <ele>811.1</ele>
        <time>2022-11-02T13:36:47Z</time>
      </trkpt>
      <trkpt lat="47.88068" lon="6.91722">
        <ele>811.2</ele>
        <time>2022-11-02T13:36:48Z</time>
      </trkpt>
      <trkpt lat="47.88067" lon="6.91722">
        <ele>811.3</ele>
        <time>2022-11-02T13:36:49Z</time>
      </trkpt>
      <trkpt lat="47.88065" lon="6.91722">
        <ele>811.4</ele>
        <time>2022-11-02T13:36:50Z</time>
      </trkpt>
      <trkpt lat="47.88064" lon="6.91721">
        <ele>812</ele>
        <time>2022-11-02T13:36:51Z</time>
      </trkpt>
      <trkpt lat="47.88062" lon="6.91721">
        <ele>812.1</ele>
        <time>2022-11-02T13:36:52Z</time>
      </trkpt>
      <trkpt lat="47.88061" lon="6.9172">
        <ele>812.7</ele>
        <time>2022-11-02T13:36:53Z</time>
      </trkpt>
      <trkpt lat="47.8806" lon="6.9172">
        <ele>812.8</ele>
        <time>2022-11-02T13:36:54Z</time>
      </trkpt>
      <trkpt lat="47.88058" lon="6.9172">
        <ele>812.9</ele>
        <time>2022-11-02T13:36:55Z</time>
      </trkpt>
      <trkpt lat="47.88058" lon="6.91719">
        <ele>813.4</ele>
        <time>2022-11-02T13:36:56Z</time>
      </trkpt>
      <trkpt lat="47.88057" lon="6.91719">
        <ele>813.5</ele>
        <time>2022-11-02T13:36:57Z</time>
      </trkpt>
      <trkpt lat="47.88055" lon="6.91719">
        <ele>813.5</ele>
        <time>2022-11-02T13:37:15Z</time>
      </trkpt>
      <trkpt lat="47.88054" lon="6.91719">
        <ele>813.2</ele>
        <time>2022-11-02T13:37:17Z</time>
      </trkpt>
      <trkpt lat="47.88054" lon="6.91718">
        <ele>813.6</ele>
        <time>2022-11-02T13:37:18Z</time>
      </trkpt>
      <trkpt lat="47.88053" lon="6.91718">
        <ele>813.3</ele>
        <time>2022-11-02T13:37:19Z</time>
      </trkpt>
      <trkpt lat="47.88052" lon="6.91717">
        <ele>813.5</ele>
        <time>2022-11-02T13:37:20Z</time>
      </trkpt>
      <trkpt lat="47.88051" lon="6.91716">
        <ele>813.7</ele>
        <time>2022-11-02T13:37:21Z</time>
      </trkpt>
      <trkpt lat="47.8805" lon="6.91716">
        <ele>813.4</ele>
        <time>2022-11-02T13:37:22Z</time>
      </trkpt>
      <trkpt lat="47.88049" lon="6.91715">
        <ele>813.5</ele>
        <time>2022-11-02T13:37:23Z</time>
      </trkpt>
      <trkpt lat="47.88048" lon="6.91714">
        <ele>813.6</ele>
        <time>2022-11-02T13:37:25Z</time>
      </trkpt>
      <trkpt lat="47.88047" lon="6.91714">
        <ele>813.3</ele>
        <time>2022-11-02T13:37:26Z</time>
      </trkpt>
      <trkpt lat="47.88046" lon="6.91713">
        <ele>813.4</ele>
        <time>2022-11-02T13:37:27Z</time>
      </trkpt>
      <trkpt lat="47.88045" lon="6.91712">
        <ele>813.6</ele>
        <time>2022-11-02T13:37:28Z</time>
      </trkpt>
      <trkpt lat="47.88043" lon="6.91712">
        <ele>812.9</ele>
        <time>2022-11-02T13:37:29Z</time>
      </trkpt>
      <trkpt lat="47.88042" lon="6.91711">
        <ele>813</ele>
        <time>2022-11-02T13:37:30Z</time>
      </trkpt>
      <trkpt lat="47.88041" lon="6.91711">
        <ele>812.6</ele>
        <time>2022-11-02T13:37:31Z</time>
      </trkpt>
      <trkpt lat="47.8804" lon="6.9171">
        <ele>812.7</ele>
        <time>2022-11-02T13:37:32Z</time>
      </trkpt>
      <trkpt lat="47.88039" lon="6.91709">
        <ele>812.8</ele>
        <time>2022-11-02T13:37:34Z</time>
      </trkpt>
      <trkpt lat="47.88038" lon="6.91708">
        <ele>812.8</ele>
        <time>2022-11-02T13:37:35Z</time>
      </trkpt>
      <trkpt lat="47.88037" lon="6.91708">
        <ele>812.5</ele>
        <time>2022-11-02T13:37:36Z</time>
      </trkpt>
      <trkpt lat="47.88036" lon="6.91707">
        <ele>812.5</ele>
        <time>2022-11-02T13:37:37Z</time>
      </trkpt>
      <trkpt lat="47.88035" lon="6.91707">
        <ele>812.1</ele>
        <time>2022-11-02T13:37:38Z</time>
      </trkpt>
      <trkpt lat="47.88034" lon="6.91706">
        <ele>812.2</ele>
        <time>2022-11-02T13:37:39Z</time>
      </trkpt>
      <trkpt lat="47.88033" lon="6.91705">
        <ele>812.2</ele>
        <time>2022-11-02T13:37:40Z</time>
      </trkpt>
      <trkpt lat="47.88032" lon="6.91705">
        <ele>811.8</ele>
        <time>2022-11-02T13:37:41Z</time>
      </trkpt>
      <trkpt lat="47.88031" lon="6.91704">
        <ele>811.8</ele>
        <time>2022-11-02T13:37:42Z</time>
      </trkpt>
      <trkpt lat="47.8803" lon="6.91704">
        <ele>811.4</ele>
        <time>2022-11-02T13:37:43Z</time>
      </trkpt>
      <trkpt lat="47.88029" lon="6.91703">
        <ele>811.4</ele>
        <time>2022-11-02T13:37:44Z</time>
      </trkpt>
      <trkpt lat="47.88028" lon="6.91703">
        <ele>811</ele>
        <time>2022-11-02T13:37:45Z</time>
      </trkpt>
      <trkpt lat="47.88027" lon="6.91702">
        <ele>811</ele>
        <time>2022-11-02T13:37:46Z</time>
      </trkpt>
      <trkpt lat="47.88026" lon="6.91702">
        <ele>810.6</ele>
        <time>2022-11-02T13:37:47Z</time>
      </trkpt>
      <trkpt lat="47.88025" lon="6.91701">
        <ele>810.5</ele>
        <time>2022-11-02T13:37:48Z</time>
      </trkpt>
      <trkpt lat="47.88024" lon="6.91701">
        <ele>810.1</ele>
        <time>2022-11-02T13:37:49Z</time>
      </trkpt>
      <trkpt lat="47.88023" lon="6.917">
        <ele>810.1</ele>
        <time>2022-11-02T13:37:50Z</time>
      </trkpt>
      <trkpt lat="47.88022" lon="6.91699">
        <ele>810</ele>
        <time>2022-11-02T13:37:51Z</time>
      </trkpt>
      <trkpt lat="47.88022" lon="6.91698">
        <ele>810.3</ele>
        <time>2022-11-02T13:37:52Z</time>
      </trkpt>
      <trkpt lat="47.88021" lon="6.91698">
        <ele>809.9</ele>
        <time>2022-11-02T13:37:53Z</time>
      </trkpt>
      <trkpt lat="47.8802" lon="6.91697">
        <ele>809.8</ele>
        <time>2022-11-02T13:37:54Z</time>
      </trkpt>
      <trkpt lat="47.88019" lon="6.91697">
        <ele>809.4</ele>
        <time>2022-11-02T13:37:55Z</time>
      </trkpt>
      <trkpt lat="47.88018" lon="6.91696">
        <ele>809.3</ele>
        <time>2022-11-02T13:37:56Z</time>
      </trkpt>
      <trkpt lat="47.88017" lon="6.91695">
        <ele>809.2</ele>
        <time>2022-11-02T13:37:57Z</time>
      </trkpt>
      <trkpt lat="47.88016" lon="6.91693">
        <ele>809.3</ele>
        <time>2022-11-02T13:37:58Z</time>
      </trkpt>
      <trkpt lat="47.88015" lon="6.91692">
        <ele>809.1</ele>
        <time>2022-11-02T13:37:59Z</time>
      </trkpt>
      <trkpt lat="47.88014" lon="6.91691">
        <ele>809</ele>
        <time>2022-11-02T13:38:00Z</time>
      </trkpt>
      <trkpt lat="47.88013" lon="6.91689">
        <ele>809.1</ele>
        <time>2022-11-02T13:38:01Z</time>
      </trkpt>
      <trkpt lat="47.88012" lon="6.91688">
        <ele>808.9</ele>
        <time>2022-11-02T13:38:02Z</time>
      </trkpt>
      <trkpt lat="47.88012" lon="6.91687">
        <ele>809.2</ele>
        <time>2022-11-02T13:38:03Z</time>
      </trkpt>
      <trkpt lat="47.88011" lon="6.91686">
        <ele>809</ele>
        <time>2022-11-02T13:38:04Z</time>
      </trkpt>
      <trkpt lat="47.8801" lon="6.91685">
        <ele>808.8</ele>
        <time>2022-11-02T13:38:05Z</time>
      </trkpt>
      <trkpt lat="47.88009" lon="6.91684">
        <ele>808.6</ele>
        <time>2022-11-02T13:38:06Z</time>
      </trkpt>
      <trkpt lat="47.88008" lon="6.91683">
        <ele>808.5</ele>
        <time>2022-11-02T13:38:08Z</time>
      </trkpt>
      <trkpt lat="47.88007" lon="6.91682">
        <ele>808.3</ele>
        <time>2022-11-02T13:38:09Z</time>
      </trkpt>
      <trkpt lat="47.88006" lon="6.91681">
        <ele>808.1</ele>
        <time>2022-11-02T13:38:11Z</time>
      </trkpt>
      <trkpt lat="47.88005" lon="6.91681">
        <ele>807.6</ele>
        <time>2022-11-02T13:38:12Z</time>
      </trkpt>
      <trkpt lat="47.88004" lon="6.9168">
        <ele>807.4</ele>
        <time>2022-11-02T13:38:13Z</time>
      </trkpt>
      <trkpt lat="47.88004" lon="6.91679">
        <ele>807.7</ele>
        <time>2022-11-02T13:38:14Z</time>
      </trkpt>
      <trkpt lat="47.88003" lon="6.91678">
        <ele>807.5</ele>
        <time>2022-11-02T13:38:15Z</time>
      </trkpt>
      <trkpt lat="47.88002" lon="6.91678">
        <ele>807.1</ele>
        <time>2022-11-02T13:38:16Z</time>
      </trkpt>
      <trkpt lat="47.88001" lon="6.91677">
        <ele>806.9</ele>
        <time>2022-11-02T13:38:17Z</time>
      </trkpt>
      <trkpt lat="47.88" lon="6.91676">
        <ele>806.6</ele>
        <time>2022-11-02T13:38:18Z</time>
      </trkpt>
      <trkpt lat="47.87999" lon="6.91676">
        <ele>806.3</ele>
        <time>2022-11-02T13:38:19Z</time>
      </trkpt>
      <trkpt lat="47.87999" lon="6.91675">
        <ele>806.6</ele>
        <time>2022-11-02T13:38:20Z</time>
      </trkpt>
      <trkpt lat="47.87998" lon="6.91674">
        <ele>806.5</ele>
        <time>2022-11-02T13:38:21Z</time>
      </trkpt>
      <trkpt lat="47.87997" lon="6.91674">
        <ele>806.1</ele>
        <time>2022-11-02T13:38:22Z</time>
      </trkpt>
      <trkpt lat="47.87996" lon="6.91673">
        <ele>806</ele>
        <time>2022-11-02T13:38:23Z</time>
      </trkpt>
      <trkpt lat="47.87995" lon="6.91672">
        <ele>805.9</ele>
        <time>2022-11-02T13:38:24Z</time>
      </trkpt>
      <trkpt lat="47.87994" lon="6.91671">
        <ele>805.8</ele>
        <time>2022-11-02T13:38:25Z</time>
      </trkpt>
      <trkpt lat="47.87993" lon="6.9167">
        <ele>805.7</ele>
        <time>2022-11-02T13:38:26Z</time>
      </trkpt>
      <trkpt lat="47.87992" lon="6.9167">
        <ele>805.3</ele>
        <time>2022-11-02T13:38:27Z</time>
      </trkpt>
      <trkpt lat="47.87992" lon="6.91669">
        <ele>805.6</ele>
        <time>2022-11-02T13:38:28Z</time>
      </trkpt>
      <trkpt lat="47.87991" lon="6.91668">
        <ele>805.5</ele>
        <time>2022-11-02T13:38:29Z</time>
      </trkpt>
      <trkpt lat="47.8799" lon="6.91667">
        <ele>805.3</ele>
        <time>2022-11-02T13:38:30Z</time>
      </trkpt>
      <trkpt lat="47.87989" lon="6.91666">
        <ele>805.2</ele>
        <time>2022-11-02T13:38:31Z</time>
      </trkpt>
      <trkpt lat="47.87988" lon="6.91665">
        <ele>805.1</ele>
        <time>2022-11-02T13:38:32Z</time>
      </trkpt>
      <trkpt lat="47.87987" lon="6.91664">
        <ele>805</ele>
        <time>2022-11-02T13:38:33Z</time>
      </trkpt>
      <trkpt lat="47.87986" lon="6.91663">
        <ele>804.8</ele>
        <time>2022-11-02T13:38:34Z</time>
      </trkpt>
      <trkpt lat="47.87985" lon="6.91662">
        <ele>804.7</ele>
        <time>2022-11-02T13:38:35Z</time>
      </trkpt>
      <trkpt lat="47.87984" lon="6.91662">
        <ele>804.3</ele>
        <time>2022-11-02T13:38:36Z</time>
      </trkpt>
      <trkpt lat="47.87984" lon="6.91661">
        <ele>804.5</ele>
        <time>2022-11-02T13:38:37Z</time>
      </trkpt>
      <trkpt lat="47.87983" lon="6.91661">
        <ele>804.1</ele>
        <time>2022-11-02T13:38:38Z</time>
      </trkpt>
      <trkpt lat="47.87982" lon="6.9166">
        <ele>804</ele>
        <time>2022-11-02T13:38:39Z</time>
      </trkpt>
      <trkpt lat="47.87981" lon="6.9166">
        <ele>803.6</ele>
        <time>2022-11-02T13:38:40Z</time>
      </trkpt>
      <trkpt lat="47.87981" lon="6.91659">
        <ele>803.8</ele>
        <time>2022-11-02T13:38:41Z</time>
      </trkpt>
      <trkpt lat="47.8798" lon="6.91658">
        <ele>803.6</ele>
        <time>2022-11-02T13:38:42Z</time>
      </trkpt>
      <trkpt lat="47.87979" lon="6.91657">
        <ele>803.4</ele>
        <time>2022-11-02T13:38:44Z</time>
      </trkpt>
      <trkpt lat="47.87979" lon="6.91656">
        <ele>803.6</ele>
        <time>2022-11-02T13:38:45Z</time>
      </trkpt>
      <trkpt lat="47.87978" lon="6.91655">
        <ele>803.4</ele>
        <time>2022-11-02T13:38:46Z</time>
      </trkpt>
      <trkpt lat="47.87977" lon="6.91654">
        <ele>803.2</ele>
        <time>2022-11-02T13:38:48Z</time>
      </trkpt>
      <trkpt lat="47.87976" lon="6.91653">
        <ele>803</ele>
        <time>2022-11-02T13:38:49Z</time>
      </trkpt>
      <trkpt lat="47.87976" lon="6.91652">
        <ele>803.2</ele>
        <time>2022-11-02T13:38:50Z</time>
      </trkpt>
      <trkpt lat="47.87975" lon="6.91651">
        <ele>803</ele>
        <time>2022-11-02T13:38:51Z</time>
      </trkpt>
      <trkpt lat="47.87974" lon="6.91651">
        <ele>802.6</ele>
        <time>2022-11-02T13:38:52Z</time>
      </trkpt>
      <trkpt lat="47.87974" lon="6.9165">
        <ele>802.8</ele>
        <time>2022-11-02T13:38:53Z</time>
      </trkpt>
      <trkpt lat="47.87973" lon="6.91649">
        <ele>802.5</ele>
        <time>2022-11-02T13:38:54Z</time>
      </trkpt>
      <trkpt lat="47.87972" lon="6.91649">
        <ele>802.1</ele>
        <time>2022-11-02T13:38:55Z</time>
      </trkpt>
      <trkpt lat="47.87972" lon="6.91648">
        <ele>802.3</ele>
        <time>2022-11-02T13:38:56Z</time>
      </trkpt>
      <trkpt lat="47.87971" lon="6.91647">
        <ele>802.3</ele>
        <time>2022-11-02T13:38:57Z</time>
      </trkpt>
      <trkpt lat="47.87971" lon="6.91646">
        <ele>802.5</ele>
        <time>2022-11-02T13:38:58Z</time>
      </trkpt>
      <trkpt lat="47.8797" lon="6.91645">
        <ele>802.5</ele>
        <time>2022-11-02T13:38:59Z</time>
      </trkpt>
      <trkpt lat="47.8797" lon="6.91644">
        <ele>802.7</ele>
        <time>2022-11-02T13:39:00Z</time>
      </trkpt>
      <trkpt lat="47.87969" lon="6.91642">
        <ele>802.9</ele>
        <time>2022-11-02T13:39:01Z</time>
      </trkpt>
      <trkpt lat="47.87969" lon="6.91641">
        <ele>803</ele>
        <time>2022-11-02T13:39:02Z</time>
      </trkpt>
      <trkpt lat="47.87968" lon="6.91639">
        <ele>803.2</ele>
        <time>2022-11-02T13:39:03Z</time>
      </trkpt>
      <trkpt lat="47.87967" lon="6.91638">
        <ele>803.2</ele>
        <time>2022-11-02T13:39:04Z</time>
      </trkpt>
      <trkpt lat="47.87966" lon="6.91637">
        <ele>803.2</ele>
        <time>2022-11-02T13:39:05Z</time>
      </trkpt>
      <trkpt lat="47.87966" lon="6.91636">
        <ele>803.4</ele>
        <time>2022-11-02T13:39:06Z</time>
      </trkpt>
      <trkpt lat="47.87965" lon="6.91635">
        <ele>803.3</ele>
        <time>2022-11-02T13:39:07Z</time>
      </trkpt>
      <trkpt lat="47.87964" lon="6.91634">
        <ele>803.3</ele>
        <time>2022-11-02T13:39:08Z</time>
      </trkpt>
      <trkpt lat="47.87963" lon="6.91633">
        <ele>803.3</ele>
        <time>2022-11-02T13:39:09Z</time>
      </trkpt>
      <trkpt lat="47.87962" lon="6.91632">
        <ele>803.2</ele>
        <time>2022-11-02T13:39:10Z</time>
      </trkpt>
      <trkpt lat="47.87961" lon="6.91631">
        <ele>803.2</ele>
        <time>2022-11-02T13:39:11Z</time>
      </trkpt>
      <trkpt lat="47.8796" lon="6.9163">
        <ele>803.1</ele>
        <time>2022-11-02T13:39:12Z</time>
      </trkpt>
      <trkpt lat="47.87959" lon="6.91629">
        <ele>803.1</ele>
        <time>2022-11-02T13:39:13Z</time>
      </trkpt>
      <trkpt lat="47.87957" lon="6.91628">
        <ele>802.8</ele>
        <time>2022-11-02T13:39:14Z</time>
      </trkpt>
      <trkpt lat="47.87956" lon="6.91628">
        <ele>802.6</ele>
        <time>2022-11-02T13:39:15Z</time>
      </trkpt>
      <trkpt lat="47.87955" lon="6.91627">
        <ele>802.5</ele>
        <time>2022-11-02T13:39:16Z</time>
      </trkpt>
      <trkpt lat="47.87955" lon="6.91626">
        <ele>802.6</ele>
        <time>2022-11-02T13:39:17Z</time>
      </trkpt>
      <trkpt lat="47.87954" lon="6.91625">
        <ele>802.6</ele>
        <time>2022-11-02T13:39:18Z</time>
      </trkpt>
      <trkpt lat="47.87953" lon="6.91624">
        <ele>802.5</ele>
        <time>2022-11-02T13:39:19Z</time>
      </trkpt>
      <trkpt lat="47.87952" lon="6.91624">
        <ele>802.3</ele>
        <time>2022-11-02T13:39:20Z</time>
      </trkpt>
      <trkpt lat="47.87951" lon="6.91623">
        <ele>802.2</ele>
        <time>2022-11-02T13:39:21Z</time>
      </trkpt>
      <trkpt lat="47.8795" lon="6.91623">
        <ele>801.9</ele>
        <time>2022-11-02T13:39:22Z</time>
      </trkpt>
      <trkpt lat="47.87949" lon="6.91623">
        <ele>801.7</ele>
        <time>2022-11-02T13:39:23Z</time>
      </trkpt>
      <trkpt lat="47.87949" lon="6.91622">
        <ele>801.8</ele>
        <time>2022-11-02T13:39:24Z</time>
      </trkpt>
      <trkpt lat="47.87948" lon="6.91622">
        <ele>801.6</ele>
        <time>2022-11-02T13:39:25Z</time>
      </trkpt>
      <trkpt lat="47.87948" lon="6.91621">
        <ele>801.7</ele>
        <time>2022-11-02T13:39:26Z</time>
      </trkpt>
      <trkpt lat="47.87947" lon="6.91621">
        <ele>801.5</ele>
        <time>2022-11-02T13:39:27Z</time>
      </trkpt>
      <trkpt lat="47.87947" lon="6.9162">
        <ele>801.6</ele>
        <time>2022-11-02T13:39:38Z</time>
      </trkpt>
      <trkpt lat="47.87947" lon="6.91619">
        <ele>801.7</ele>
        <time>2022-11-02T13:39:39Z</time>
      </trkpt>
      <trkpt lat="47.87946" lon="6.91619">
        <ele>801.5</ele>
        <time>2022-11-02T13:39:40Z</time>
      </trkpt>
      <trkpt lat="47.87946" lon="6.91618">
        <ele>801.6</ele>
        <time>2022-11-02T13:39:41Z</time>
      </trkpt>
      <trkpt lat="47.87946" lon="6.91617">
        <ele>801.7</ele>
        <time>2022-11-02T13:39:42Z</time>
      </trkpt>
      <trkpt lat="47.87946" lon="6.91616">
        <ele>801.8</ele>
        <time>2022-11-02T13:39:43Z</time>
      </trkpt>
      <trkpt lat="47.87945" lon="6.91615">
        <ele>801.7</ele>
        <time>2022-11-02T13:39:44Z</time>
      </trkpt>
      <trkpt lat="47.87945" lon="6.91614">
        <ele>801.8</ele>
        <time>2022-11-02T13:39:45Z</time>
      </trkpt>
      <trkpt lat="47.87945" lon="6.91613">
        <ele>801.9</ele>
        <time>2022-11-02T13:39:46Z</time>
      </trkpt>
      <trkpt lat="47.87945" lon="6.91611">
        <ele>802.1</ele>
        <time>2022-11-02T13:39:47Z</time>
      </trkpt>
      <trkpt lat="47.87944" lon="6.91609">
        <ele>802.1</ele>
        <time>2022-11-02T13:39:48Z</time>
      </trkpt>
      <trkpt lat="47.87944" lon="6.91608">
        <ele>802.1</ele>
        <time>2022-11-02T13:39:49Z</time>
      </trkpt>
      <trkpt lat="47.87944" lon="6.91606">
        <ele>802.3</ele>
        <time>2022-11-02T13:39:50Z</time>
      </trkpt>
      <trkpt lat="47.87944" lon="6.91605">
        <ele>802.3</ele>
        <time>2022-11-02T13:39:51Z</time>
      </trkpt>
      <trkpt lat="47.87943" lon="6.91603">
        <ele>802.3</ele>
        <time>2022-11-02T13:39:52Z</time>
      </trkpt>
      <trkpt lat="47.87943" lon="6.91601">
        <ele>802.4</ele>
        <time>2022-11-02T13:39:53Z</time>
      </trkpt>
      <trkpt lat="47.87943" lon="6.916">
        <ele>802.5</ele>
        <time>2022-11-02T13:39:54Z</time>
      </trkpt>
      <trkpt lat="47.87942" lon="6.91598">
        <ele>802.5</ele>
        <time>2022-11-02T13:39:55Z</time>
      </trkpt>
      <trkpt lat="47.87942" lon="6.91596">
        <ele>802.6</ele>
        <time>2022-11-02T13:39:56Z</time>
      </trkpt>
      <trkpt lat="47.87941" lon="6.91593">
        <ele>802.6</ele>
        <time>2022-11-02T13:39:57Z</time>
      </trkpt>
      <trkpt lat="47.8794" lon="6.91591">
        <ele>802.6</ele>
        <time>2022-11-02T13:39:58Z</time>
      </trkpt>
      <trkpt lat="47.87939" lon="6.91588">
        <ele>802.7</ele>
        <time>2022-11-02T13:39:59Z</time>
      </trkpt>
      <trkpt lat="47.87938" lon="6.91586">
        <ele>802.6</ele>
        <time>2022-11-02T13:40:00Z</time>
      </trkpt>
      <trkpt lat="47.87938" lon="6.91583">
        <ele>802.9</ele>
        <time>2022-11-02T13:40:01Z</time>
      </trkpt>
      <trkpt lat="47.87937" lon="6.91581">
        <ele>802.8</ele>
        <time>2022-11-02T13:40:02Z</time>
      </trkpt>
      <trkpt lat="47.87937" lon="6.91579">
        <ele>803</ele>
        <time>2022-11-02T13:40:03Z</time>
      </trkpt>
      <trkpt lat="47.87936" lon="6.91577">
        <ele>803</ele>
        <time>2022-11-02T13:40:04Z</time>
      </trkpt>
      <trkpt lat="47.87936" lon="6.91575">
        <ele>803.1</ele>
        <time>2022-11-02T13:40:05Z</time>
      </trkpt>
      <trkpt lat="47.87936" lon="6.91572">
        <ele>803.3</ele>
        <time>2022-11-02T13:40:06Z</time>
      </trkpt>
      <trkpt lat="47.87936" lon="6.91571">
        <ele>803.4</ele>
        <time>2022-11-02T13:40:07Z</time>
      </trkpt>
      <trkpt lat="47.87936" lon="6.91569">
        <ele>803.6</ele>
        <time>2022-11-02T13:40:08Z</time>
      </trkpt>
      <trkpt lat="47.87936" lon="6.91567">
        <ele>803.7</ele>
        <time>2022-11-02T13:40:09Z</time>
      </trkpt>
      <trkpt lat="47.87936" lon="6.91566">
        <ele>803.8</ele>
        <time>2022-11-02T13:40:10Z</time>
      </trkpt>
      <trkpt lat="47.87937" lon="6.91564">
        <ele>804.2</ele>
        <time>2022-11-02T13:40:11Z</time>
      </trkpt>
      <trkpt lat="47.87937" lon="6.91562">
        <ele>804.3</ele>
        <time>2022-11-02T13:40:12Z</time>
      </trkpt>
      <trkpt lat="47.87936" lon="6.91561">
        <ele>804.2</ele>
        <time>2022-11-02T13:40:13Z</time>
      </trkpt>
      <trkpt lat="47.87936" lon="6.91559">
        <ele>804.3</ele>
        <time>2022-11-02T13:40:14Z</time>
      </trkpt>
      <trkpt lat="47.87936" lon="6.91557">
        <ele>804.5</ele>
        <time>2022-11-02T13:40:15Z</time>
      </trkpt>
      <trkpt lat="47.87935" lon="6.91555">
        <ele>804.3</ele>
        <time>2022-11-02T13:40:16Z</time>
      </trkpt>
      <trkpt lat="47.87935" lon="6.91554">
        <ele>804.4</ele>
        <time>2022-11-02T13:40:17Z</time>
      </trkpt>
      <trkpt lat="47.87934" lon="6.91552">
        <ele>804.2</ele>
        <time>2022-11-02T13:40:18Z</time>
      </trkpt>
      <trkpt lat="47.87934" lon="6.9155">
        <ele>804.2</ele>
        <time>2022-11-02T13:40:19Z</time>
      </trkpt>
      <trkpt lat="47.87933" lon="6.91548">
        <ele>804</ele>
        <time>2022-11-02T13:40:20Z</time>
      </trkpt>
      <trkpt lat="47.87933" lon="6.91546">
        <ele>804.1</ele>
        <time>2022-11-02T13:40:21Z</time>
      </trkpt>
      <trkpt lat="47.87932" lon="6.91544">
        <ele>803.9</ele>
        <time>2022-11-02T13:40:22Z</time>
      </trkpt>
      <trkpt lat="47.87932" lon="6.91542">
        <ele>804</ele>
        <time>2022-11-02T13:40:23Z</time>
      </trkpt>
      <trkpt lat="47.87931" lon="6.9154">
        <ele>803.7</ele>
        <time>2022-11-02T13:40:24Z</time>
      </trkpt>
      <trkpt lat="47.87931" lon="6.91538">
        <ele>803.8</ele>
        <time>2022-11-02T13:40:25Z</time>
      </trkpt>
      <trkpt lat="47.87931" lon="6.91536">
        <ele>803.9</ele>
        <time>2022-11-02T13:40:26Z</time>
      </trkpt>
      <trkpt lat="47.8793" lon="6.91534">
        <ele>803.6</ele>
        <time>2022-11-02T13:40:27Z</time>
      </trkpt>
      <trkpt lat="47.8793" lon="6.91532">
        <ele>803.7</ele>
        <time>2022-11-02T13:40:28Z</time>
      </trkpt>
      <trkpt lat="47.8793" lon="6.9153">
        <ele>803.7</ele>
        <time>2022-11-02T13:40:29Z</time>
      </trkpt>
      <trkpt lat="47.8793" lon="6.91528">
        <ele>803.8</ele>
        <time>2022-11-02T13:40:30Z</time>
      </trkpt>
      <trkpt lat="47.8793" lon="6.91527">
        <ele>803.9</ele>
        <time>2022-11-02T13:40:31Z</time>
      </trkpt>
      <trkpt lat="47.8793" lon="6.91525">
        <ele>804</ele>
        <time>2022-11-02T13:40:32Z</time>
      </trkpt>
      <trkpt lat="47.8793" lon="6.91524">
        <ele>804.1</ele>
        <time>2022-11-02T13:40:33Z</time>
      </trkpt>
      <trkpt lat="47.8793" lon="6.91522">
        <ele>804.3</ele>
        <time>2022-11-02T13:40:34Z</time>
      </trkpt>
      <trkpt lat="47.8793" lon="6.91521">
        <ele>804.4</ele>
        <time>2022-11-02T13:40:35Z</time>
      </trkpt>
      <trkpt lat="47.87931" lon="6.91519">
        <ele>805</ele>
        <time>2022-11-02T13:40:36Z</time>
      </trkpt>
      <trkpt lat="47.87931" lon="6.91518">
        <ele>805</ele>
        <time>2022-11-02T13:40:37Z</time>
      </trkpt>
      <trkpt lat="47.87931" lon="6.91517">
        <ele>805.1</ele>
        <time>2022-11-02T13:40:38Z</time>
      </trkpt>
      <trkpt lat="47.87932" lon="6.91516">
        <ele>805.6</ele>
        <time>2022-11-02T13:40:39Z</time>
      </trkpt>
      <trkpt lat="47.87932" lon="6.91514">
        <ele>805.8</ele>
        <time>2022-11-02T13:40:40Z</time>
      </trkpt>
      <trkpt lat="47.87932" lon="6.91513">
        <ele>805.9</ele>
        <time>2022-11-02T13:40:41Z</time>
      </trkpt>
      <trkpt lat="47.87932" lon="6.91512">
        <ele>806</ele>
        <time>2022-11-02T13:40:42Z</time>
      </trkpt>
      <trkpt lat="47.87932" lon="6.91511">
        <ele>806.1</ele>
        <time>2022-11-02T13:40:43Z</time>
      </trkpt>
      <trkpt lat="47.87932" lon="6.9151">
        <ele>806.2</ele>
        <time>2022-11-02T13:40:45Z</time>
      </trkpt>
      <trkpt lat="47.87932" lon="6.91509">
        <ele>806.2</ele>
        <time>2022-11-02T13:40:46Z</time>
      </trkpt>
      <trkpt lat="47.87932" lon="6.91508">
        <ele>806.3</ele>
        <time>2022-11-02T13:40:47Z</time>
      </trkpt>
      <trkpt lat="47.87932" lon="6.91507">
        <ele>806.4</ele>
        <time>2022-11-02T13:40:48Z</time>
      </trkpt>
      <trkpt lat="47.87932" lon="6.91506">
        <ele>806.5</ele>
        <time>2022-11-02T13:40:49Z</time>
      </trkpt>
      <trkpt lat="47.87932" lon="6.91505">
        <ele>806.6</ele>
        <time>2022-11-02T13:40:50Z</time>
      </trkpt>
      <trkpt lat="47.87932" lon="6.91503">
        <ele>806.8</ele>
        <time>2022-11-02T13:40:51Z</time>
      </trkpt>
      <trkpt lat="47.87933" lon="6.91502">
        <ele>807.3</ele>
        <time>2022-11-02T13:40:52Z</time>
      </trkpt>
      <trkpt lat="47.87933" lon="6.915">
        <ele>807.5</ele>
        <time>2022-11-02T13:40:53Z</time>
      </trkpt>
      <trkpt lat="47.87934" lon="6.91498">
        <ele>808.1</ele>
        <time>2022-11-02T13:40:54Z</time>
      </trkpt>
      <trkpt lat="47.87934" lon="6.91496">
        <ele>808.3</ele>
        <time>2022-11-02T13:40:55Z</time>
      </trkpt>
      <trkpt lat="47.87935" lon="6.91495">
        <ele>808.9</ele>
        <time>2022-11-02T13:40:56Z</time>
      </trkpt>
      <trkpt lat="47.87935" lon="6.91493">
        <ele>809.1</ele>
        <time>2022-11-02T13:40:57Z</time>
      </trkpt>
      <trkpt lat="47.87935" lon="6.91492">
        <ele>809.2</ele>
        <time>2022-11-02T13:40:58Z</time>
      </trkpt>
      <trkpt lat="47.87934" lon="6.9149">
        <ele>809</ele>
        <time>2022-11-02T13:40:59Z</time>
      </trkpt>
      <trkpt lat="47.87934" lon="6.91489">
        <ele>809.2</ele>
        <time>2022-11-02T13:41:00Z</time>
      </trkpt>
      <trkpt lat="47.87934" lon="6.91488">
        <ele>809.3</ele>
        <time>2022-11-02T13:41:01Z</time>
      </trkpt>
      <trkpt lat="47.87934" lon="6.91486">
        <ele>809.5</ele>
        <time>2022-11-02T13:41:02Z</time>
      </trkpt>
      <trkpt lat="47.87934" lon="6.91485">
        <ele>809.6</ele>
        <time>2022-11-02T13:41:03Z</time>
      </trkpt>
      <trkpt lat="47.87934" lon="6.91483">
        <ele>809.9</ele>
        <time>2022-11-02T13:41:04Z</time>
      </trkpt>
      <trkpt lat="47.87934" lon="6.91481">
        <ele>810.1</ele>
        <time>2022-11-02T13:41:05Z</time>
      </trkpt>
      <trkpt lat="47.87934" lon="6.9148">
        <ele>810.2</ele>
        <time>2022-11-02T13:41:06Z</time>
      </trkpt>
      <trkpt lat="47.87934" lon="6.91479">
        <ele>810.3</ele>
        <time>2022-11-02T13:41:07Z</time>
      </trkpt>
      <trkpt lat="47.87934" lon="6.91478">
        <ele>810.4</ele>
        <time>2022-11-02T13:41:08Z</time>
      </trkpt>
      <trkpt lat="47.87934" lon="6.91477">
        <ele>810.6</ele>
        <time>2022-11-02T13:41:09Z</time>
      </trkpt>
      <trkpt lat="47.87934" lon="6.91475">
        <ele>810.8</ele>
        <time>2022-11-02T13:41:10Z</time>
      </trkpt>
      <trkpt lat="47.87934" lon="6.91474">
        <ele>810.9</ele>
        <time>2022-11-02T13:41:11Z</time>
      </trkpt>
      <trkpt lat="47.87934" lon="6.91472">
        <ele>811.1</ele>
        <time>2022-11-02T13:41:12Z</time>
      </trkpt>
      <trkpt lat="47.87933" lon="6.9147">
        <ele>810.9</ele>
        <time>2022-11-02T13:41:13Z</time>
      </trkpt>
      <trkpt lat="47.87933" lon="6.91468">
        <ele>811.1</ele>
        <time>2022-11-02T13:41:14Z</time>
      </trkpt>
      <trkpt lat="47.87933" lon="6.91466">
        <ele>811.3</ele>
        <time>2022-11-02T13:41:15Z</time>
      </trkpt>
      <trkpt lat="47.87933" lon="6.91464">
        <ele>811.5</ele>
        <time>2022-11-02T13:41:16Z</time>
      </trkpt>
      <trkpt lat="47.87932" lon="6.91462">
        <ele>811.3</ele>
        <time>2022-11-02T13:41:17Z</time>
      </trkpt>
      <trkpt lat="47.87932" lon="6.91461">
        <ele>811.4</ele>
        <time>2022-11-02T13:41:18Z</time>
      </trkpt>
      <trkpt lat="47.87932" lon="6.9146">
        <ele>811.5</ele>
        <time>2022-11-02T13:41:19Z</time>
      </trkpt>
      <trkpt lat="47.87932" lon="6.91459">
        <ele>811.6</ele>
        <time>2022-11-02T13:41:20Z</time>
      </trkpt>
      <trkpt lat="47.87933" lon="6.91457">
        <ele>812.3</ele>
        <time>2022-11-02T13:41:21Z</time>
      </trkpt>
      <trkpt lat="47.87933" lon="6.91456">
        <ele>812.4</ele>
        <time>2022-11-02T13:41:22Z</time>
      </trkpt>
      <trkpt lat="47.87933" lon="6.91455">
        <ele>812.5</ele>
        <time>2022-11-02T13:41:23Z</time>
      </trkpt>
      <trkpt lat="47.87933" lon="6.91453">
        <ele>812.7</ele>
        <time>2022-11-02T13:41:24Z</time>
      </trkpt>
      <trkpt lat="47.87933" lon="6.91451">
        <ele>812.9</ele>
        <time>2022-11-02T13:41:25Z</time>
      </trkpt>
      <trkpt lat="47.87933" lon="6.91449">
        <ele>813.2</ele>
        <time>2022-11-02T13:41:26Z</time>
      </trkpt>
      <trkpt lat="47.87933" lon="6.91447">
        <ele>813.4</ele>
        <time>2022-11-02T13:41:27Z</time>
      </trkpt>
      <trkpt lat="47.87933" lon="6.91445">
        <ele>813.6</ele>
        <time>2022-11-02T13:41:28Z</time>
      </trkpt>
      <trkpt lat="47.87933" lon="6.91444">
        <ele>813.7</ele>
        <time>2022-11-02T13:41:29Z</time>
      </trkpt>
      <trkpt lat="47.87933" lon="6.91443">
        <ele>813.8</ele>
        <time>2022-11-02T13:41:30Z</time>
      </trkpt>
      <trkpt lat="47.87933" lon="6.91442">
        <ele>814</ele>
        <time>2022-11-02T13:41:31Z</time>
      </trkpt>
      <trkpt lat="47.87933" lon="6.9144">
        <ele>814.2</ele>
        <time>2022-11-02T13:41:32Z</time>
      </trkpt>
      <trkpt lat="47.87933" lon="6.91439">
        <ele>814.3</ele>
        <time>2022-11-02T13:41:33Z</time>
      </trkpt>
      <trkpt lat="47.87933" lon="6.91437">
        <ele>814.6</ele>
        <time>2022-11-02T13:41:34Z</time>
      </trkpt>
      <trkpt lat="47.87932" lon="6.91435">
        <ele>814.4</ele>
        <time>2022-11-02T13:41:35Z</time>
      </trkpt>
      <trkpt lat="47.87932" lon="6.91433">
        <ele>814.6</ele>
        <time>2022-11-02T13:41:36Z</time>
      </trkpt>
      <trkpt lat="47.87931" lon="6.91432">
        <ele>814.3</ele>
        <time>2022-11-02T13:41:37Z</time>
      </trkpt>
      <trkpt lat="47.87931" lon="6.9143">
        <ele>814.5</ele>
        <time>2022-11-02T13:41:38Z</time>
      </trkpt>
      <trkpt lat="47.8793" lon="6.91429">
        <ele>814.2</ele>
        <time>2022-11-02T13:41:39Z</time>
      </trkpt>
      <trkpt lat="47.8793" lon="6.91427">
        <ele>814.4</ele>
        <time>2022-11-02T13:41:40Z</time>
      </trkpt>
      <trkpt lat="47.8793" lon="6.91426">
        <ele>814.6</ele>
        <time>2022-11-02T13:41:41Z</time>
      </trkpt>
      <trkpt lat="47.8793" lon="6.91425">
        <ele>814.7</ele>
        <time>2022-11-02T13:41:42Z</time>
      </trkpt>
      <trkpt lat="47.8793" lon="6.91424">
        <ele>814.8</ele>
        <time>2022-11-02T13:41:43Z</time>
      </trkpt>
      <trkpt lat="47.87929" lon="6.91423">
        <ele>814.4</ele>
        <time>2022-11-02T13:41:44Z</time>
      </trkpt>
      <trkpt lat="47.87929" lon="6.91422">
        <ele>814.6</ele>
        <time>2022-11-02T13:41:45Z</time>
      </trkpt>
      <trkpt lat="47.87929" lon="6.91421">
        <ele>814.7</ele>
        <time>2022-11-02T13:41:46Z</time>
      </trkpt>
      <trkpt lat="47.87929" lon="6.9142">
        <ele>814.8</ele>
        <time>2022-11-02T13:41:47Z</time>
      </trkpt>
      <trkpt lat="47.87929" lon="6.91419">
        <ele>814.9</ele>
        <time>2022-11-02T13:41:48Z</time>
      </trkpt>
      <trkpt lat="47.87929" lon="6.91417">
        <ele>815.2</ele>
        <time>2022-11-02T13:41:49Z</time>
      </trkpt>
      <trkpt lat="47.87929" lon="6.91416">
        <ele>815.3</ele>
        <time>2022-11-02T13:41:50Z</time>
      </trkpt>
      <trkpt lat="47.87929" lon="6.91415">
        <ele>815.4</ele>
        <time>2022-11-02T13:41:51Z</time>
      </trkpt>
      <trkpt lat="47.87929" lon="6.91413">
        <ele>815.6</ele>
        <time>2022-11-02T13:41:52Z</time>
      </trkpt>
      <trkpt lat="47.87929" lon="6.91412">
        <ele>815.7</ele>
        <time>2022-11-02T13:41:53Z</time>
      </trkpt>
      <trkpt lat="47.8793" lon="6.91411">
        <ele>816.3</ele>
        <time>2022-11-02T13:41:54Z</time>
      </trkpt>
      <trkpt lat="47.8793" lon="6.91409">
        <ele>816.5</ele>
        <time>2022-11-02T13:41:55Z</time>
      </trkpt>
      <trkpt lat="47.8793" lon="6.91408">
        <ele>816.7</ele>
        <time>2022-11-02T13:41:56Z</time>
      </trkpt>
      <trkpt lat="47.8793" lon="6.91406">
        <ele>816.9</ele>
        <time>2022-11-02T13:41:57Z</time>
      </trkpt>
      <trkpt lat="47.87931" lon="6.91405">
        <ele>817.5</ele>
        <time>2022-11-02T13:41:58Z</time>
      </trkpt>
      <trkpt lat="47.8793" lon="6.91404">
        <ele>817.1</ele>
        <time>2022-11-02T13:41:59Z</time>
      </trkpt>
      <trkpt lat="47.8793" lon="6.91403">
        <ele>817.2</ele>
        <time>2022-11-02T13:42:00Z</time>
      </trkpt>
      <trkpt lat="47.8793" lon="6.91402">
        <ele>817.3</ele>
        <time>2022-11-02T13:42:01Z</time>
      </trkpt>
      <trkpt lat="47.8793" lon="6.91401">
        <ele>817.4</ele>
        <time>2022-11-02T13:42:02Z</time>
      </trkpt>
      <trkpt lat="47.8793" lon="6.91399">
        <ele>817.6</ele>
        <time>2022-11-02T13:42:03Z</time>
      </trkpt>
      <trkpt lat="47.8793" lon="6.91398">
        <ele>817.7</ele>
        <time>2022-11-02T13:42:04Z</time>
      </trkpt>
      <trkpt lat="47.8793" lon="6.91397">
        <ele>817.8</ele>
        <time>2022-11-02T13:42:05Z</time>
      </trkpt>
      <trkpt lat="47.8793" lon="6.91395">
        <ele>818.1</ele>
        <time>2022-11-02T13:42:06Z</time>
      </trkpt>
      <trkpt lat="47.87929" lon="6.91393">
        <ele>817.8</ele>
        <time>2022-11-02T13:42:32Z</time>
      </trkpt>
      <trkpt lat="47.87929" lon="6.91392">
        <ele>817.9</ele>
        <time>2022-11-02T13:42:33Z</time>
      </trkpt>
      <trkpt lat="47.87929" lon="6.91391">
        <ele>818</ele>
        <time>2022-11-02T13:42:34Z</time>
      </trkpt>
      <trkpt lat="47.87929" lon="6.9139">
        <ele>818.1</ele>
        <time>2022-11-02T13:42:35Z</time>
      </trkpt>
      <trkpt lat="47.87929" lon="6.91389">
        <ele>818.2</ele>
        <time>2022-11-02T13:42:36Z</time>
      </trkpt>
      <trkpt lat="47.87929" lon="6.91388">
        <ele>818.3</ele>
        <time>2022-11-02T13:42:37Z</time>
      </trkpt>
      <trkpt lat="47.87929" lon="6.91387">
        <ele>818.4</ele>
        <time>2022-11-02T13:42:38Z</time>
      </trkpt>
      <trkpt lat="47.87929" lon="6.91386">
        <ele>818.5</ele>
        <time>2022-11-02T13:42:46Z</time>
      </trkpt>
      <trkpt lat="47.87929" lon="6.91385">
        <ele>818.6</ele>
        <time>2022-11-02T13:42:47Z</time>
      </trkpt>
      <trkpt lat="47.87929" lon="6.91384">
        <ele>818.6</ele>
        <time>2022-11-02T13:42:48Z</time>
      </trkpt>
      <trkpt lat="47.87928" lon="6.91383">
        <ele>818.2</ele>
        <time>2022-11-02T13:42:49Z</time>
      </trkpt>
      <trkpt lat="47.87928" lon="6.91382">
        <ele>818.3</ele>
        <time>2022-11-02T13:42:50Z</time>
      </trkpt>
      <trkpt lat="47.87928" lon="6.91381">
        <ele>818.4</ele>
        <time>2022-11-02T13:42:51Z</time>
      </trkpt>
      <trkpt lat="47.87928" lon="6.91379">
        <ele>818.6</ele>
        <time>2022-11-02T13:42:52Z</time>
      </trkpt>
      <trkpt lat="47.87928" lon="6.91378">
        <ele>818.7</ele>
        <time>2022-11-02T13:42:53Z</time>
      </trkpt>
      <trkpt lat="47.87928" lon="6.91377">
        <ele>818.7</ele>
        <time>2022-11-02T13:42:54Z</time>
      </trkpt>
      <trkpt lat="47.87928" lon="6.91375">
        <ele>818.9</ele>
        <time>2022-11-02T13:42:55Z</time>
      </trkpt>
      <trkpt lat="47.87928" lon="6.91374">
        <ele>819</ele>
        <time>2022-11-02T13:42:56Z</time>
      </trkpt>
      <trkpt lat="47.87928" lon="6.91373">
        <ele>819.1</ele>
        <time>2022-11-02T13:42:57Z</time>
      </trkpt>
      <trkpt lat="47.87928" lon="6.91372">
        <ele>819.2</ele>
        <time>2022-11-02T13:42:58Z</time>
      </trkpt>
      <trkpt lat="47.87928" lon="6.9137">
        <ele>819.3</ele>
        <time>2022-11-02T13:42:59Z</time>
      </trkpt>
      <trkpt lat="47.87928" lon="6.91369">
        <ele>819.4</ele>
        <time>2022-11-02T13:43:00Z</time>
      </trkpt>
      <trkpt lat="47.87928" lon="6.91368">
        <ele>819.5</ele>
        <time>2022-11-02T13:43:01Z</time>
      </trkpt>
      <trkpt lat="47.87928" lon="6.91366">
        <ele>819.7</ele>
        <time>2022-11-02T13:43:02Z</time>
      </trkpt>
      <trkpt lat="47.87928" lon="6.91365">
        <ele>819.8</ele>
        <time>2022-11-02T13:43:03Z</time>
      </trkpt>
      <trkpt lat="47.87929" lon="6.91364">
        <ele>820.4</ele>
        <time>2022-11-02T13:43:04Z</time>
      </trkpt>
      <trkpt lat="47.87929" lon="6.91363">
        <ele>820.5</ele>
        <time>2022-11-02T13:43:05Z</time>
      </trkpt>
      <trkpt lat="47.87929" lon="6.91362">
        <ele>820.6</ele>
        <time>2022-11-02T13:43:06Z</time>
      </trkpt>
      <trkpt lat="47.87929" lon="6.9136">
        <ele>820.7</ele>
        <time>2022-11-02T13:43:07Z</time>
      </trkpt>
      <trkpt lat="47.87929" lon="6.91359">
        <ele>820.8</ele>
        <time>2022-11-02T13:43:08Z</time>
      </trkpt>
      <trkpt lat="47.8793" lon="6.91358">
        <ele>821.4</ele>
        <time>2022-11-02T13:43:09Z</time>
      </trkpt>
      <trkpt lat="47.8793" lon="6.91356">
        <ele>821.6</ele>
        <time>2022-11-02T13:43:10Z</time>
      </trkpt>
      <trkpt lat="47.8793" lon="6.91355">
        <ele>821.6</ele>
        <time>2022-11-02T13:43:11Z</time>
      </trkpt>
      <trkpt lat="47.8793" lon="6.91354">
        <ele>821.7</ele>
        <time>2022-11-02T13:43:12Z</time>
      </trkpt>
      <trkpt lat="47.8793" lon="6.91352">
        <ele>821.9</ele>
        <time>2022-11-02T13:43:13Z</time>
      </trkpt>
      <trkpt lat="47.8793" lon="6.91351">
        <ele>821.9</ele>
        <time>2022-11-02T13:43:14Z</time>
      </trkpt>
      <trkpt lat="47.8793" lon="6.91349">
        <ele>822.1</ele>
        <time>2022-11-02T13:43:15Z</time>
      </trkpt>
      <trkpt lat="47.8793" lon="6.91348">
        <ele>822.1</ele>
        <time>2022-11-02T13:43:16Z</time>
      </trkpt>
      <trkpt lat="47.87929" lon="6.91346">
        <ele>821.7</ele>
        <time>2022-11-02T13:43:17Z</time>
      </trkpt>
      <trkpt lat="47.87929" lon="6.91345">
        <ele>821.8</ele>
        <time>2022-11-02T13:43:18Z</time>
      </trkpt>
      <trkpt lat="47.87929" lon="6.91343">
        <ele>822</ele>
        <time>2022-11-02T13:43:19Z</time>
      </trkpt>
      <trkpt lat="47.87929" lon="6.91341">
        <ele>822.1</ele>
        <time>2022-11-02T13:43:20Z</time>
      </trkpt>
      <trkpt lat="47.87929" lon="6.9134">
        <ele>822.2</ele>
        <time>2022-11-02T13:43:21Z</time>
      </trkpt>
      <trkpt lat="47.87929" lon="6.91338">
        <ele>822.3</ele>
        <time>2022-11-02T13:43:22Z</time>
      </trkpt>
      <trkpt lat="47.87929" lon="6.91336">
        <ele>822.5</ele>
        <time>2022-11-02T13:43:23Z</time>
      </trkpt>
      <trkpt lat="47.87929" lon="6.91335">
        <ele>822.5</ele>
        <time>2022-11-02T13:43:24Z</time>
      </trkpt>
      <trkpt lat="47.87929" lon="6.91333">
        <ele>822.7</ele>
        <time>2022-11-02T13:43:25Z</time>
      </trkpt>
      <trkpt lat="47.87929" lon="6.91332">
        <ele>822.8</ele>
        <time>2022-11-02T13:43:26Z</time>
      </trkpt>
      <trkpt lat="47.87929" lon="6.9133">
        <ele>822.9</ele>
        <time>2022-11-02T13:43:27Z</time>
      </trkpt>
      <trkpt lat="47.87929" lon="6.91329">
        <ele>823</ele>
        <time>2022-11-02T13:43:28Z</time>
      </trkpt>
      <trkpt lat="47.87929" lon="6.91327">
        <ele>823.1</ele>
        <time>2022-11-02T13:43:29Z</time>
      </trkpt>
      <trkpt lat="47.87929" lon="6.91326">
        <ele>823.2</ele>
        <time>2022-11-02T13:43:30Z</time>
      </trkpt>
      <trkpt lat="47.87929" lon="6.91325">
        <ele>823.3</ele>
        <time>2022-11-02T13:43:31Z</time>
      </trkpt>
      <trkpt lat="47.87929" lon="6.91323">
        <ele>823.4</ele>
        <time>2022-11-02T13:43:32Z</time>
      </trkpt>
      <trkpt lat="47.87929" lon="6.91322">
        <ele>823.5</ele>
        <time>2022-11-02T13:43:33Z</time>
      </trkpt>
      <trkpt lat="47.87929" lon="6.91321">
        <ele>823.5</ele>
        <time>2022-11-02T13:43:34Z</time>
      </trkpt>
      <trkpt lat="47.87929" lon="6.9132">
        <ele>823.6</ele>
        <time>2022-11-02T13:43:35Z</time>
      </trkpt>
      <trkpt lat="47.87928" lon="6.91318">
        <ele>823.2</ele>
        <time>2022-11-02T13:43:36Z</time>
      </trkpt>
      <trkpt lat="47.87928" lon="6.91317">
        <ele>823.3</ele>
        <time>2022-11-02T13:43:37Z</time>
      </trkpt>
      <trkpt lat="47.87928" lon="6.91316">
        <ele>823.4</ele>
        <time>2022-11-02T13:43:38Z</time>
      </trkpt>
      <trkpt lat="47.87928" lon="6.91314">
        <ele>823.5</ele>
        <time>2022-11-02T13:43:39Z</time>
      </trkpt>
      <trkpt lat="47.87928" lon="6.91313">
        <ele>823.6</ele>
        <time>2022-11-02T13:43:40Z</time>
      </trkpt>
      <trkpt lat="47.87928" lon="6.91311">
        <ele>823.7</ele>
        <time>2022-11-02T13:43:41Z</time>
      </trkpt>
      <trkpt lat="47.87928" lon="6.9131">
        <ele>823.8</ele>
        <time>2022-11-02T13:43:42Z</time>
      </trkpt>
      <trkpt lat="47.87928" lon="6.91308">
        <ele>823.9</ele>
        <time>2022-11-02T13:43:43Z</time>
      </trkpt>
      <trkpt lat="47.87928" lon="6.91307">
        <ele>824</ele>
        <time>2022-11-02T13:43:44Z</time>
      </trkpt>
      <trkpt lat="47.87929" lon="6.91305">
        <ele>824.7</ele>
        <time>2022-11-02T13:43:45Z</time>
      </trkpt>
      <trkpt lat="47.87929" lon="6.91304">
        <ele>824.8</ele>
        <time>2022-11-02T13:43:46Z</time>
      </trkpt>
      <trkpt lat="47.87929" lon="6.91303">
        <ele>824.8</ele>
        <time>2022-11-02T13:43:47Z</time>
      </trkpt>
      <trkpt lat="47.87929" lon="6.91302">
        <ele>824.9</ele>
        <time>2022-11-02T13:43:48Z</time>
      </trkpt>
      <trkpt lat="47.87929" lon="6.91301">
        <ele>825</ele>
        <time>2022-11-02T13:43:49Z</time>
      </trkpt>
      <trkpt lat="47.8793" lon="6.913">
        <ele>825.6</ele>
        <time>2022-11-02T13:43:50Z</time>
      </trkpt>
      <trkpt lat="47.87929" lon="6.91298">
        <ele>825.2</ele>
        <time>2022-11-02T13:43:51Z</time>
      </trkpt>
      <trkpt lat="47.87929" lon="6.91297">
        <ele>825.3</ele>
        <time>2022-11-02T13:43:52Z</time>
      </trkpt>
      <trkpt lat="47.87929" lon="6.91295">
        <ele>825.4</ele>
        <time>2022-11-02T13:43:53Z</time>
      </trkpt>
      <trkpt lat="47.87929" lon="6.91293">
        <ele>825.6</ele>
        <time>2022-11-02T13:43:54Z</time>
      </trkpt>
      <trkpt lat="47.87929" lon="6.91292">
        <ele>825.6</ele>
        <time>2022-11-02T13:43:55Z</time>
      </trkpt>
      <trkpt lat="47.87929" lon="6.91291">
        <ele>825.7</ele>
        <time>2022-11-02T13:43:56Z</time>
      </trkpt>
      <trkpt lat="47.87929" lon="6.91289">
        <ele>825.9</ele>
        <time>2022-11-02T13:43:57Z</time>
      </trkpt>
      <trkpt lat="47.87929" lon="6.91287">
        <ele>826</ele>
        <time>2022-11-02T13:43:58Z</time>
      </trkpt>
      <trkpt lat="47.87929" lon="6.91286">
        <ele>826.1</ele>
        <time>2022-11-02T13:43:59Z</time>
      </trkpt>
      <trkpt lat="47.87929" lon="6.91284">
        <ele>826.2</ele>
        <time>2022-11-02T13:44:00Z</time>
      </trkpt>
      <trkpt lat="47.87928" lon="6.91283">
        <ele>825.7</ele>
        <time>2022-11-02T13:44:01Z</time>
      </trkpt>
      <trkpt lat="47.87928" lon="6.91282">
        <ele>825.8</ele>
        <time>2022-11-02T13:44:02Z</time>
      </trkpt>
      <trkpt lat="47.87928" lon="6.91281">
        <ele>825.9</ele>
        <time>2022-11-02T13:44:03Z</time>
      </trkpt>
      <trkpt lat="47.87928" lon="6.91279">
        <ele>826</ele>
        <time>2022-11-02T13:44:04Z</time>
      </trkpt>
      <trkpt lat="47.87928" lon="6.91278">
        <ele>826.1</ele>
        <time>2022-11-02T13:44:05Z</time>
      </trkpt>
      <trkpt lat="47.87928" lon="6.91277">
        <ele>826.2</ele>
        <time>2022-11-02T13:44:06Z</time>
      </trkpt>
      <trkpt lat="47.87928" lon="6.91276">
        <ele>826.2</ele>
        <time>2022-11-02T13:44:07Z</time>
      </trkpt>
      <trkpt lat="47.87927" lon="6.91274">
        <ele>825.9</ele>
        <time>2022-11-02T13:44:08Z</time>
      </trkpt>
      <trkpt lat="47.87927" lon="6.91273">
        <ele>825.9</ele>
        <time>2022-11-02T13:44:09Z</time>
      </trkpt>
      <trkpt lat="47.87927" lon="6.91272">
        <ele>826</ele>
        <time>2022-11-02T13:44:10Z</time>
      </trkpt>
      <trkpt lat="47.87927" lon="6.9127">
        <ele>826.1</ele>
        <time>2022-11-02T13:44:11Z</time>
      </trkpt>
      <trkpt lat="47.87927" lon="6.91269">
        <ele>826.2</ele>
        <time>2022-11-02T13:44:12Z</time>
      </trkpt>
      <trkpt lat="47.87927" lon="6.91268">
        <ele>826.3</ele>
        <time>2022-11-02T13:44:13Z</time>
      </trkpt>
      <trkpt lat="47.87927" lon="6.91266">
        <ele>826.4</ele>
        <time>2022-11-02T13:44:14Z</time>
      </trkpt>
      <trkpt lat="47.87927" lon="6.91265">
        <ele>826.5</ele>
        <time>2022-11-02T13:44:15Z</time>
      </trkpt>
      <trkpt lat="47.87927" lon="6.91263">
        <ele>826.6</ele>
        <time>2022-11-02T13:44:16Z</time>
      </trkpt>
      <trkpt lat="47.87927" lon="6.91262">
        <ele>826.7</ele>
        <time>2022-11-02T13:44:17Z</time>
      </trkpt>
      <trkpt lat="47.87927" lon="6.9126">
        <ele>826.9</ele>
        <time>2022-11-02T13:44:18Z</time>
      </trkpt>
      <trkpt lat="47.87927" lon="6.91258">
        <ele>827</ele>
        <time>2022-11-02T13:44:19Z</time>
      </trkpt>
      <trkpt lat="47.87928" lon="6.91257">
        <ele>827.6</ele>
        <time>2022-11-02T13:44:20Z</time>
      </trkpt>
      <trkpt lat="47.87928" lon="6.91255">
        <ele>827.8</ele>
        <time>2022-11-02T13:44:21Z</time>
      </trkpt>
      <trkpt lat="47.87928" lon="6.91254">
        <ele>827.8</ele>
        <time>2022-11-02T13:44:22Z</time>
      </trkpt>
      <trkpt lat="47.87928" lon="6.91253">
        <ele>827.9</ele>
        <time>2022-11-02T13:44:23Z</time>
      </trkpt>
      <trkpt lat="47.87928" lon="6.91252">
        <ele>828</ele>
        <time>2022-11-02T13:44:24Z</time>
      </trkpt>
      <trkpt lat="47.87928" lon="6.91251">
        <ele>828</ele>
        <time>2022-11-02T13:44:25Z</time>
      </trkpt>
      <trkpt lat="47.87927" lon="6.9125">
        <ele>827.6</ele>
        <time>2022-11-02T13:44:26Z</time>
      </trkpt>
      <trkpt lat="47.87927" lon="6.91248">
        <ele>827.7</ele>
        <time>2022-11-02T13:44:27Z</time>
      </trkpt>
      <trkpt lat="47.87927" lon="6.91247">
        <ele>827.8</ele>
        <time>2022-11-02T13:44:28Z</time>
      </trkpt>
      <trkpt lat="47.87927" lon="6.91246">
        <ele>827.9</ele>
        <time>2022-11-02T13:44:29Z</time>
      </trkpt>
      <trkpt lat="47.87927" lon="6.91244">
        <ele>828</ele>
        <time>2022-11-02T13:44:30Z</time>
      </trkpt>
      <trkpt lat="47.87927" lon="6.91243">
        <ele>828.1</ele>
        <time>2022-11-02T13:44:31Z</time>
      </trkpt>
      <trkpt lat="47.87927" lon="6.91241">
        <ele>828.2</ele>
        <time>2022-11-02T13:44:32Z</time>
      </trkpt>
      <trkpt lat="47.87927" lon="6.9124">
        <ele>828.3</ele>
        <time>2022-11-02T13:44:33Z</time>
      </trkpt>
      <trkpt lat="47.87927" lon="6.91239">
        <ele>828.4</ele>
        <time>2022-11-02T13:44:34Z</time>
      </trkpt>
      <trkpt lat="47.87926" lon="6.91237">
        <ele>828</ele>
        <time>2022-11-02T13:44:35Z</time>
      </trkpt>
      <trkpt lat="47.87926" lon="6.91236">
        <ele>828</ele>
        <time>2022-11-02T13:44:36Z</time>
      </trkpt>
      <trkpt lat="47.87926" lon="6.91235">
        <ele>828.1</ele>
        <time>2022-11-02T13:44:37Z</time>
      </trkpt>
      <trkpt lat="47.87926" lon="6.91234">
        <ele>828.2</ele>
        <time>2022-11-02T13:44:38Z</time>
      </trkpt>
      <trkpt lat="47.87926" lon="6.91232">
        <ele>828.3</ele>
        <time>2022-11-02T13:44:39Z</time>
      </trkpt>
      <trkpt lat="47.87926" lon="6.91231">
        <ele>828.4</ele>
        <time>2022-11-02T13:44:40Z</time>
      </trkpt>
      <trkpt lat="47.87926" lon="6.9123">
        <ele>828.5</ele>
        <time>2022-11-02T13:44:41Z</time>
      </trkpt>
      <trkpt lat="47.87926" lon="6.91228">
        <ele>828.6</ele>
        <time>2022-11-02T13:44:42Z</time>
      </trkpt>
      <trkpt lat="47.87926" lon="6.91227">
        <ele>828.7</ele>
        <time>2022-11-02T13:44:43Z</time>
      </trkpt>
      <trkpt lat="47.87926" lon="6.91225">
        <ele>828.8</ele>
        <time>2022-11-02T13:44:44Z</time>
      </trkpt>
      <trkpt lat="47.87927" lon="6.91222">
        <ele>829.6</ele>
        <time>2022-11-02T13:44:45Z</time>
      </trkpt>
      <trkpt lat="47.87927" lon="6.9122">
        <ele>829.8</ele>
        <time>2022-11-02T13:44:46Z</time>
      </trkpt>
      <trkpt lat="47.87927" lon="6.91218">
        <ele>829.9</ele>
        <time>2022-11-02T13:44:47Z</time>
      </trkpt>
      <trkpt lat="47.87928" lon="6.91216">
        <ele>830.7</ele>
        <time>2022-11-02T13:44:48Z</time>
      </trkpt>
      <trkpt lat="47.87928" lon="6.91215">
        <ele>830.7</ele>
        <time>2022-11-02T13:44:49Z</time>
      </trkpt>
      <trkpt lat="47.87928" lon="6.91213">
        <ele>830.9</ele>
        <time>2022-11-02T13:44:50Z</time>
      </trkpt>
      <trkpt lat="47.87927" lon="6.91212">
        <ele>830.5</ele>
        <time>2022-11-02T13:44:51Z</time>
      </trkpt>
      <trkpt lat="47.87927" lon="6.9121">
        <ele>830.6</ele>
        <time>2022-11-02T13:44:52Z</time>
      </trkpt>
      <trkpt lat="47.87927" lon="6.91209">
        <ele>830.7</ele>
        <time>2022-11-02T13:44:53Z</time>
      </trkpt>
      <trkpt lat="47.87926" lon="6.91208">
        <ele>830.2</ele>
        <time>2022-11-02T13:44:54Z</time>
      </trkpt>
      <trkpt lat="47.87926" lon="6.91207">
        <ele>830.3</ele>
        <time>2022-11-02T13:44:55Z</time>
      </trkpt>
      <trkpt lat="47.87925" lon="6.91206">
        <ele>829.8</ele>
        <time>2022-11-02T13:44:56Z</time>
      </trkpt>
      <trkpt lat="47.87925" lon="6.91204">
        <ele>830</ele>
        <time>2022-11-02T13:44:57Z</time>
      </trkpt>
      <trkpt lat="47.87925" lon="6.91203">
        <ele>830.1</ele>
        <time>2022-11-02T13:44:58Z</time>
      </trkpt>
      <trkpt lat="47.87925" lon="6.91201">
        <ele>830.3</ele>
        <time>2022-11-02T13:44:59Z</time>
      </trkpt>
      <trkpt lat="47.87925" lon="6.91199">
        <ele>830.4</ele>
        <time>2022-11-02T13:45:00Z</time>
      </trkpt>
      <trkpt lat="47.87924" lon="6.91197">
        <ele>830</ele>
        <time>2022-11-02T13:45:01Z</time>
      </trkpt>
      <trkpt lat="47.87924" lon="6.91194">
        <ele>830.3</ele>
        <time>2022-11-02T13:45:02Z</time>
      </trkpt>
      <trkpt lat="47.87923" lon="6.91192">
        <ele>829.9</ele>
        <time>2022-11-02T13:45:03Z</time>
      </trkpt>
      <trkpt lat="47.87923" lon="6.91191">
        <ele>830</ele>
        <time>2022-11-02T13:45:04Z</time>
      </trkpt>
      <trkpt lat="47.87923" lon="6.91189">
        <ele>830.1</ele>
        <time>2022-11-02T13:45:05Z</time>
      </trkpt>
      <trkpt lat="47.87922" lon="6.91187">
        <ele>829.7</ele>
        <time>2022-11-02T13:45:06Z</time>
      </trkpt>
      <trkpt lat="47.87922" lon="6.91186">
        <ele>829.8</ele>
        <time>2022-11-02T13:45:07Z</time>
      </trkpt>
      <trkpt lat="47.87923" lon="6.91184">
        <ele>830.6</ele>
        <time>2022-11-02T13:45:08Z</time>
      </trkpt>
      <trkpt lat="47.87923" lon="6.91183">
        <ele>830.7</ele>
        <time>2022-11-02T13:45:09Z</time>
      </trkpt>
      <trkpt lat="47.87923" lon="6.91182">
        <ele>830.7</ele>
        <time>2022-11-02T13:45:10Z</time>
      </trkpt>
      <trkpt lat="47.87923" lon="6.9118">
        <ele>830.9</ele>
        <time>2022-11-02T13:45:11Z</time>
      </trkpt>
      <trkpt lat="47.87923" lon="6.91179">
        <ele>831</ele>
        <time>2022-11-02T13:45:12Z</time>
      </trkpt>
      <trkpt lat="47.87923" lon="6.91178">
        <ele>831.1</ele>
        <time>2022-11-02T13:45:13Z</time>
      </trkpt>
      <trkpt lat="47.87923" lon="6.91177">
        <ele>831.2</ele>
        <time>2022-11-02T13:45:14Z</time>
      </trkpt>
      <trkpt lat="47.87923" lon="6.91175">
        <ele>831.4</ele>
        <time>2022-11-02T13:45:15Z</time>
      </trkpt>
      <trkpt lat="47.87923" lon="6.91174">
        <ele>831.5</ele>
        <time>2022-11-02T13:45:16Z</time>
      </trkpt>
      <trkpt lat="47.87923" lon="6.91173">
        <ele>831.5</ele>
        <time>2022-11-02T13:45:17Z</time>
      </trkpt>
      <trkpt lat="47.87923" lon="6.91172">
        <ele>831.6</ele>
        <time>2022-11-02T13:45:18Z</time>
      </trkpt>
      <trkpt lat="47.87923" lon="6.9117">
        <ele>831.8</ele>
        <time>2022-11-02T13:45:19Z</time>
      </trkpt>
      <trkpt lat="47.87923" lon="6.91169">
        <ele>831.9</ele>
        <time>2022-11-02T13:45:20Z</time>
      </trkpt>
      <trkpt lat="47.87923" lon="6.91167">
        <ele>832.1</ele>
        <time>2022-11-02T13:45:21Z</time>
      </trkpt>
      <trkpt lat="47.87923" lon="6.91166">
        <ele>832.2</ele>
        <time>2022-11-02T13:45:22Z</time>
      </trkpt>
      <trkpt lat="47.87923" lon="6.91164">
        <ele>832.4</ele>
        <time>2022-11-02T13:45:23Z</time>
      </trkpt>
      <trkpt lat="47.87923" lon="6.91162">
        <ele>832.7</ele>
        <time>2022-11-02T13:45:24Z</time>
      </trkpt>
      <trkpt lat="47.87923" lon="6.9116">
        <ele>832.9</ele>
        <time>2022-11-02T13:45:25Z</time>
      </trkpt>
      <trkpt lat="47.87923" lon="6.91158">
        <ele>833.1</ele>
        <time>2022-11-02T13:45:26Z</time>
      </trkpt>
      <trkpt lat="47.87923" lon="6.91156">
        <ele>833.4</ele>
        <time>2022-11-02T13:45:27Z</time>
      </trkpt>
      <trkpt lat="47.87923" lon="6.91155">
        <ele>833.5</ele>
        <time>2022-11-02T13:45:28Z</time>
      </trkpt>
      <trkpt lat="47.87923" lon="6.91154">
        <ele>833.6</ele>
        <time>2022-11-02T13:45:29Z</time>
      </trkpt>
      <trkpt lat="47.87923" lon="6.91152">
        <ele>833.9</ele>
        <time>2022-11-02T13:45:30Z</time>
      </trkpt>
      <trkpt lat="47.87923" lon="6.91151">
        <ele>834</ele>
        <time>2022-11-02T13:45:31Z</time>
      </trkpt>
      <trkpt lat="47.87923" lon="6.9115">
        <ele>834.1</ele>
        <time>2022-11-02T13:45:32Z</time>
      </trkpt>
      <trkpt lat="47.87922" lon="6.91149">
        <ele>833.6</ele>
        <time>2022-11-02T13:45:33Z</time>
      </trkpt>
      <trkpt lat="47.87922" lon="6.91148">
        <ele>833.8</ele>
        <time>2022-11-02T13:45:34Z</time>
      </trkpt>
      <trkpt lat="47.87922" lon="6.91146">
        <ele>834</ele>
        <time>2022-11-02T13:45:35Z</time>
      </trkpt>
      <trkpt lat="47.87921" lon="6.91145">
        <ele>833.6</ele>
        <time>2022-11-02T13:45:36Z</time>
      </trkpt>
      <trkpt lat="47.87921" lon="6.91144">
        <ele>833.7</ele>
        <time>2022-11-02T13:45:37Z</time>
      </trkpt>
      <trkpt lat="47.87921" lon="6.91142">
        <ele>833.9</ele>
        <time>2022-11-02T13:45:38Z</time>
      </trkpt>
      <trkpt lat="47.87921" lon="6.91141">
        <ele>834.1</ele>
        <time>2022-11-02T13:45:39Z</time>
      </trkpt>
      <trkpt lat="47.87921" lon="6.9114">
        <ele>834.2</ele>
        <time>2022-11-02T13:45:40Z</time>
      </trkpt>
      <trkpt lat="47.87921" lon="6.91139">
        <ele>834.3</ele>
        <time>2022-11-02T13:45:41Z</time>
      </trkpt>
      <trkpt lat="47.87921" lon="6.91137">
        <ele>834.5</ele>
        <time>2022-11-02T13:45:42Z</time>
      </trkpt>
      <trkpt lat="47.87921" lon="6.91135">
        <ele>834.8</ele>
        <time>2022-11-02T13:45:43Z</time>
      </trkpt>
      <trkpt lat="47.87921" lon="6.91134">
        <ele>834.9</ele>
        <time>2022-11-02T13:45:44Z</time>
      </trkpt>
      <trkpt lat="47.8792" lon="6.91132">
        <ele>834.5</ele>
        <time>2022-11-02T13:45:45Z</time>
      </trkpt>
      <trkpt lat="47.87919" lon="6.91129">
        <ele>834.3</ele>
        <time>2022-11-02T13:45:46Z</time>
      </trkpt>
      <trkpt lat="47.87919" lon="6.91127">
        <ele>834.5</ele>
        <time>2022-11-02T13:45:47Z</time>
      </trkpt>
      <trkpt lat="47.87918" lon="6.91125">
        <ele>834.2</ele>
        <time>2022-11-02T13:45:48Z</time>
      </trkpt>
      <trkpt lat="47.87917" lon="6.91123">
        <ele>833.9</ele>
        <time>2022-11-02T13:45:49Z</time>
      </trkpt>
      <trkpt lat="47.87916" lon="6.91121">
        <ele>833.7</ele>
        <time>2022-11-02T13:45:50Z</time>
      </trkpt>
      <trkpt lat="47.87916" lon="6.9112">
        <ele>833.8</ele>
        <time>2022-11-02T13:45:51Z</time>
      </trkpt>
      <trkpt lat="47.87915" lon="6.91118">
        <ele>833.6</ele>
        <time>2022-11-02T13:45:52Z</time>
      </trkpt>
      <trkpt lat="47.87914" lon="6.91116">
        <ele>833.4</ele>
        <time>2022-11-02T13:45:53Z</time>
      </trkpt>
      <trkpt lat="47.87914" lon="6.91114">
        <ele>833.6</ele>
        <time>2022-11-02T13:45:54Z</time>
      </trkpt>
      <trkpt lat="47.87913" lon="6.91113">
        <ele>833.3</ele>
        <time>2022-11-02T13:45:55Z</time>
      </trkpt>
      <trkpt lat="47.87913" lon="6.91111">
        <ele>833.6</ele>
        <time>2022-11-02T13:45:56Z</time>
      </trkpt>
      <trkpt lat="47.87912" lon="6.91109">
        <ele>833.4</ele>
        <time>2022-11-02T13:45:57Z</time>
      </trkpt>
      <trkpt lat="47.87912" lon="6.91108">
        <ele>833.5</ele>
        <time>2022-11-02T13:45:58Z</time>
      </trkpt>
      <trkpt lat="47.87912" lon="6.91106">
        <ele>833.8</ele>
        <time>2022-11-02T13:45:59Z</time>
      </trkpt>
      <trkpt lat="47.87912" lon="6.91105">
        <ele>833.9</ele>
        <time>2022-11-02T13:46:00Z</time>
      </trkpt>
      <trkpt lat="47.87912" lon="6.91104">
        <ele>834</ele>
        <time>2022-11-02T13:46:01Z</time>
      </trkpt>
      <trkpt lat="47.87912" lon="6.91103">
        <ele>834.2</ele>
        <time>2022-11-02T13:46:02Z</time>
      </trkpt>
      <trkpt lat="47.87912" lon="6.91102">
        <ele>834.3</ele>
        <time>2022-11-02T13:46:03Z</time>
      </trkpt>
      <trkpt lat="47.87912" lon="6.91101">
        <ele>834.4</ele>
        <time>2022-11-02T13:46:05Z</time>
      </trkpt>
      <trkpt lat="47.87912" lon="6.911">
        <ele>834.6</ele>
        <time>2022-11-02T13:46:06Z</time>
      </trkpt>
      <trkpt lat="47.87912" lon="6.91099">
        <ele>834.7</ele>
        <time>2022-11-02T13:46:07Z</time>
      </trkpt>
      <trkpt lat="47.87912" lon="6.91098">
        <ele>834.8</ele>
        <time>2022-11-02T13:46:08Z</time>
      </trkpt>
      <trkpt lat="47.87911" lon="6.91097">
        <ele>834.6</ele>
        <time>2022-11-02T13:46:09Z</time>
      </trkpt>
      <trkpt lat="47.87911" lon="6.91096">
        <ele>834.7</ele>
        <time>2022-11-02T13:46:10Z</time>
      </trkpt>
      <trkpt lat="47.8791" lon="6.91095">
        <ele>834.5</ele>
        <time>2022-11-02T13:46:11Z</time>
      </trkpt>
      <trkpt lat="47.87909" lon="6.91093">
        <ele>834.5</ele>
        <time>2022-11-02T13:46:12Z</time>
      </trkpt>
      <trkpt lat="47.87909" lon="6.91092">
        <ele>834.6</ele>
        <time>2022-11-02T13:46:13Z</time>
      </trkpt>
      <trkpt lat="47.87909" lon="6.9109">
        <ele>834.9</ele>
        <time>2022-11-02T13:46:14Z</time>
      </trkpt>
      <trkpt lat="47.87908" lon="6.91089">
        <ele>834.7</ele>
        <time>2022-11-02T13:46:15Z</time>
      </trkpt>
      <trkpt lat="47.87908" lon="6.91087">
        <ele>835</ele>
        <time>2022-11-02T13:46:16Z</time>
      </trkpt>
      <trkpt lat="47.87908" lon="6.91085">
        <ele>835.3</ele>
        <time>2022-11-02T13:46:17Z</time>
      </trkpt>
      <trkpt lat="47.87908" lon="6.91084">
        <ele>835.4</ele>
        <time>2022-11-02T13:46:18Z</time>
      </trkpt>
      <trkpt lat="47.87908" lon="6.91082">
        <ele>835.7</ele>
        <time>2022-11-02T13:46:19Z</time>
      </trkpt>
      <trkpt lat="47.87907" lon="6.91081">
        <ele>835.5</ele>
        <time>2022-11-02T13:46:20Z</time>
      </trkpt>
      <trkpt lat="47.87907" lon="6.9108">
        <ele>835.7</ele>
        <time>2022-11-02T13:46:21Z</time>
      </trkpt>
      <trkpt lat="47.87907" lon="6.91078">
        <ele>835.9</ele>
        <time>2022-11-02T13:46:22Z</time>
      </trkpt>
      <trkpt lat="47.87906" lon="6.91077">
        <ele>835.8</ele>
        <time>2022-11-02T13:46:23Z</time>
      </trkpt>
      <trkpt lat="47.87906" lon="6.91076">
        <ele>835.9</ele>
        <time>2022-11-02T13:46:24Z</time>
      </trkpt>
      <trkpt lat="47.87906" lon="6.91075">
        <ele>836.1</ele>
        <time>2022-11-02T13:46:25Z</time>
      </trkpt>
      <trkpt lat="47.87906" lon="6.91074">
        <ele>836.2</ele>
        <time>2022-11-02T13:46:26Z</time>
      </trkpt>
      <trkpt lat="47.87905" lon="6.91073">
        <ele>836.1</ele>
        <time>2022-11-02T13:46:27Z</time>
      </trkpt>
      <trkpt lat="47.87905" lon="6.91072">
        <ele>836.2</ele>
        <time>2022-11-02T13:46:28Z</time>
      </trkpt>
      <trkpt lat="47.87905" lon="6.91071">
        <ele>836.3</ele>
        <time>2022-11-02T13:46:29Z</time>
      </trkpt>
      <trkpt lat="47.87904" lon="6.9107">
        <ele>836.2</ele>
        <time>2022-11-02T13:46:30Z</time>
      </trkpt>
      <trkpt lat="47.87904" lon="6.91069">
        <ele>836.4</ele>
        <time>2022-11-02T13:46:31Z</time>
      </trkpt>
      <trkpt lat="47.87903" lon="6.91067">
        <ele>836.4</ele>
        <time>2022-11-02T13:46:32Z</time>
      </trkpt>
      <trkpt lat="47.87903" lon="6.91066">
        <ele>836.6</ele>
        <time>2022-11-02T13:46:33Z</time>
      </trkpt>
      <trkpt lat="47.87902" lon="6.91064">
        <ele>836.6</ele>
        <time>2022-11-02T13:46:34Z</time>
      </trkpt>
      <trkpt lat="47.87902" lon="6.91063">
        <ele>836.7</ele>
        <time>2022-11-02T13:46:35Z</time>
      </trkpt>
      <trkpt lat="47.87902" lon="6.91062">
        <ele>836.9</ele>
        <time>2022-11-02T13:46:36Z</time>
      </trkpt>
      <trkpt lat="47.87902" lon="6.91061">
        <ele>837</ele>
        <time>2022-11-02T13:46:37Z</time>
      </trkpt>
      <trkpt lat="47.87901" lon="6.9106">
        <ele>837</ele>
        <time>2022-11-02T13:46:38Z</time>
      </trkpt>
      <trkpt lat="47.87901" lon="6.91058">
        <ele>837.3</ele>
        <time>2022-11-02T13:46:39Z</time>
      </trkpt>
      <trkpt lat="47.87901" lon="6.91057">
        <ele>837.4</ele>
        <time>2022-11-02T13:46:40Z</time>
      </trkpt>
      <trkpt lat="47.87901" lon="6.91056">
        <ele>837.5</ele>
        <time>2022-11-02T13:46:41Z</time>
      </trkpt>
      <trkpt lat="47.879" lon="6.91055">
        <ele>837.5</ele>
        <time>2022-11-02T13:46:42Z</time>
      </trkpt>
      <trkpt lat="47.879" lon="6.91054">
        <ele>837.6</ele>
        <time>2022-11-02T13:46:43Z</time>
      </trkpt>
      <trkpt lat="47.879" lon="6.91052">
        <ele>837.8</ele>
        <time>2022-11-02T13:46:44Z</time>
      </trkpt>
      <trkpt lat="47.879" lon="6.91051">
        <ele>837.9</ele>
        <time>2022-11-02T13:46:45Z</time>
      </trkpt>
      <trkpt lat="47.879" lon="6.91049">
        <ele>838.2</ele>
        <time>2022-11-02T13:46:46Z</time>
      </trkpt>
      <trkpt lat="47.879" lon="6.91047">
        <ele>838.4</ele>
        <time>2022-11-02T13:46:47Z</time>
      </trkpt>
      <trkpt lat="47.87899" lon="6.91046">
        <ele>838.3</ele>
        <time>2022-11-02T13:46:48Z</time>
      </trkpt>
      <trkpt lat="47.87899" lon="6.91044">
        <ele>838.5</ele>
        <time>2022-11-02T13:46:49Z</time>
      </trkpt>
      <trkpt lat="47.87899" lon="6.91043">
        <ele>838.7</ele>
        <time>2022-11-02T13:46:50Z</time>
      </trkpt>
      <trkpt lat="47.87898" lon="6.91041">
        <ele>838.7</ele>
        <time>2022-11-02T13:46:51Z</time>
      </trkpt>
      <trkpt lat="47.87898" lon="6.9104">
        <ele>838.8</ele>
        <time>2022-11-02T13:46:52Z</time>
      </trkpt>
      <trkpt lat="47.87898" lon="6.91038">
        <ele>839.1</ele>
        <time>2022-11-02T13:46:53Z</time>
      </trkpt>
      <trkpt lat="47.87897" lon="6.91036">
        <ele>839.2</ele>
        <time>2022-11-02T13:46:54Z</time>
      </trkpt>
      <trkpt lat="47.87897" lon="6.91035">
        <ele>839.3</ele>
        <time>2022-11-02T13:46:55Z</time>
      </trkpt>
      <trkpt lat="47.87897" lon="6.91034">
        <ele>839.4</ele>
        <time>2022-11-02T13:46:56Z</time>
      </trkpt>
      <trkpt lat="47.87897" lon="6.91033">
        <ele>839.5</ele>
        <time>2022-11-02T13:46:58Z</time>
      </trkpt>
      <trkpt lat="47.87896" lon="6.91032">
        <ele>839.5</ele>
        <time>2022-11-02T13:46:59Z</time>
      </trkpt>
      <trkpt lat="47.87896" lon="6.91031">
        <ele>839.6</ele>
        <time>2022-11-02T13:47:00Z</time>
      </trkpt>
      <trkpt lat="47.87895" lon="6.9103">
        <ele>839.6</ele>
        <time>2022-11-02T13:47:01Z</time>
      </trkpt>
      <trkpt lat="47.87895" lon="6.91029">
        <ele>839.7</ele>
        <time>2022-11-02T13:47:02Z</time>
      </trkpt>
      <trkpt lat="47.87894" lon="6.91028">
        <ele>839.7</ele>
        <time>2022-11-02T13:47:03Z</time>
      </trkpt>
      <trkpt lat="47.87894" lon="6.91027">
        <ele>839.8</ele>
        <time>2022-11-02T13:47:04Z</time>
      </trkpt>
      <trkpt lat="47.87893" lon="6.91026">
        <ele>839.8</ele>
        <time>2022-11-02T13:47:05Z</time>
      </trkpt>
      <trkpt lat="47.87893" lon="6.91025">
        <ele>840</ele>
        <time>2022-11-02T13:47:06Z</time>
      </trkpt>
      <trkpt lat="47.87892" lon="6.91025">
        <ele>839.8</ele>
        <time>2022-11-02T13:47:07Z</time>
      </trkpt>
      <trkpt lat="47.87891" lon="6.91024">
        <ele>839.8</ele>
        <time>2022-11-02T13:47:08Z</time>
      </trkpt>
      <trkpt lat="47.8789" lon="6.91024">
        <ele>839.7</ele>
        <time>2022-11-02T13:47:09Z</time>
      </trkpt>
      <trkpt lat="47.87889" lon="6.91024">
        <ele>839.6</ele>
        <time>2022-11-02T13:47:10Z</time>
      </trkpt>
      <trkpt lat="47.87888" lon="6.91024">
        <ele>839.5</ele>
        <time>2022-11-02T13:47:11Z</time>
      </trkpt>
      <trkpt lat="47.87887" lon="6.91024">
        <ele>839.5</ele>
        <time>2022-11-02T13:47:12Z</time>
      </trkpt>
      <trkpt lat="47.87886" lon="6.91025">
        <ele>839.3</ele>
        <time>2022-11-02T13:47:13Z</time>
      </trkpt>
      <trkpt lat="47.87885" lon="6.91025">
        <ele>839.2</ele>
        <time>2022-11-02T13:47:14Z</time>
      </trkpt>
      <trkpt lat="47.87884" lon="6.91025">
        <ele>839.2</ele>
        <time>2022-11-02T13:47:15Z</time>
      </trkpt>
      <trkpt lat="47.87883" lon="6.91026">
        <ele>839</ele>
        <time>2022-11-02T13:47:16Z</time>
      </trkpt>
      <trkpt lat="47.87882" lon="6.91026">
        <ele>839</ele>
        <time>2022-11-02T13:47:17Z</time>
      </trkpt>
      <trkpt lat="47.87881" lon="6.91026">
        <ele>839</ele>
        <time>2022-11-02T13:47:18Z</time>
      </trkpt>
      <trkpt lat="47.8788" lon="6.91027">
        <ele>838.8</ele>
        <time>2022-11-02T13:47:19Z</time>
      </trkpt>
      <trkpt lat="47.87879" lon="6.91027">
        <ele>838.7</ele>
        <time>2022-11-02T13:47:20Z</time>
      </trkpt>
      <trkpt lat="47.87877" lon="6.91025">
        <ele>838.9</ele>
        <time>2022-11-02T13:47:36Z</time>
      </trkpt>
      <trkpt lat="47.87876" lon="6.91024">
        <ele>839</ele>
        <time>2022-11-02T13:47:37Z</time>
      </trkpt>
      <trkpt lat="47.87874" lon="6.91023">
        <ele>839.1</ele>
        <time>2022-11-02T13:47:38Z</time>
      </trkpt>
      <trkpt lat="47.87873" lon="6.91022">
        <ele>839.1</ele>
        <time>2022-11-02T13:47:39Z</time>
      </trkpt>
      <trkpt lat="47.87872" lon="6.91021">
        <ele>839.2</ele>
        <time>2022-11-02T13:47:40Z</time>
      </trkpt>
      <trkpt lat="47.87871" lon="6.91021">
        <ele>839.2</ele>
        <time>2022-11-02T13:47:42Z</time>
      </trkpt>
      <trkpt lat="47.8787" lon="6.9102">
        <ele>839.2</ele>
        <time>2022-11-02T13:47:43Z</time>
      </trkpt>
      <trkpt lat="47.87869" lon="6.9102">
        <ele>839.2</ele>
        <time>2022-11-02T13:47:44Z</time>
      </trkpt>
      <trkpt lat="47.87868" lon="6.9102">
        <ele>839.2</ele>
        <time>2022-11-02T13:47:45Z</time>
      </trkpt>
      <trkpt lat="47.87867" lon="6.91019">
        <ele>839.2</ele>
        <time>2022-11-02T13:47:46Z</time>
      </trkpt>
      <trkpt lat="47.87866" lon="6.91019">
        <ele>839.2</ele>
        <time>2022-11-02T13:47:47Z</time>
      </trkpt>
      <trkpt lat="47.87865" lon="6.91019">
        <ele>839.1</ele>
        <time>2022-11-02T13:47:48Z</time>
      </trkpt>
      <trkpt lat="47.87865" lon="6.9102">
        <ele>839</ele>
        <time>2022-11-02T13:47:49Z</time>
      </trkpt>
      <trkpt lat="47.87864" lon="6.9102">
        <ele>839</ele>
        <time>2022-11-02T13:47:50Z</time>
      </trkpt>
      <trkpt lat="47.87863" lon="6.9102">
        <ele>838.9</ele>
        <time>2022-11-02T13:47:51Z</time>
      </trkpt>
      <trkpt lat="47.87862" lon="6.91021">
        <ele>838.8</ele>
        <time>2022-11-02T13:47:52Z</time>
      </trkpt>
      <trkpt lat="47.87861" lon="6.91021">
        <ele>838.7</ele>
        <time>2022-11-02T13:47:53Z</time>
      </trkpt>
      <trkpt lat="47.87861" lon="6.91022">
        <ele>838.6</ele>
        <time>2022-11-02T13:47:54Z</time>
      </trkpt>
      <trkpt lat="47.8786" lon="6.91022">
        <ele>838.6</ele>
        <time>2022-11-02T13:47:55Z</time>
      </trkpt>
      <trkpt lat="47.87859" lon="6.91022">
        <ele>838.6</ele>
        <time>2022-11-02T13:47:56Z</time>
      </trkpt>
      <trkpt lat="47.87858" lon="6.91023">
        <ele>838.5</ele>
        <time>2022-11-02T13:47:57Z</time>
      </trkpt>
      <trkpt lat="47.87857" lon="6.91023">
        <ele>838.5</ele>
        <time>2022-11-02T13:47:59Z</time>
      </trkpt>
      <trkpt lat="47.87857" lon="6.91024">
        <ele>838.4</ele>
        <time>2022-11-02T13:48:00Z</time>
      </trkpt>
      <trkpt lat="47.87856" lon="6.91024">
        <ele>838.4</ele>
        <time>2022-11-02T13:48:20Z</time>
      </trkpt>
      <trkpt lat="47.87855" lon="6.91024">
        <ele>838.3</ele>
        <time>2022-11-02T13:48:21Z</time>
      </trkpt>
      <trkpt lat="47.87855" lon="6.91025">
        <ele>838.3</ele>
        <time>2022-11-02T13:48:22Z</time>
      </trkpt>
      <trkpt lat="47.87854" lon="6.91025">
        <ele>838.2</ele>
        <time>2022-11-02T13:48:23Z</time>
      </trkpt>
      <trkpt lat="47.87853" lon="6.91026">
        <ele>838.2</ele>
        <time>2022-11-02T13:48:25Z</time>
      </trkpt>
      <trkpt lat="47.87852" lon="6.91026">
        <ele>838.2</ele>
        <time>2022-11-02T13:48:26Z</time>
      </trkpt>
      <trkpt lat="47.87851" lon="6.91026">
        <ele>838.1</ele>
        <time>2022-11-02T13:48:27Z</time>
      </trkpt>
      <trkpt lat="47.8785" lon="6.91027">
        <ele>838.1</ele>
        <time>2022-11-02T13:48:28Z</time>
      </trkpt>
      <trkpt lat="47.87849" lon="6.91027">
        <ele>838.1</ele>
        <time>2022-11-02T13:48:29Z</time>
      </trkpt>
      <trkpt lat="47.87847" lon="6.91028">
        <ele>838</ele>
        <time>2022-11-02T13:48:30Z</time>
      </trkpt>
      <trkpt lat="47.87846" lon="6.91029">
        <ele>837.8</ele>
        <time>2022-11-02T13:48:31Z</time>
      </trkpt>
      <trkpt lat="47.87845" lon="6.91029">
        <ele>837.8</ele>
        <time>2022-11-02T13:48:32Z</time>
      </trkpt>
      <trkpt lat="47.87844" lon="6.9103">
        <ele>837.7</ele>
        <time>2022-11-02T13:48:33Z</time>
      </trkpt>
      <trkpt lat="47.87843" lon="6.9103">
        <ele>837.7</ele>
        <time>2022-11-02T13:48:34Z</time>
      </trkpt>
      <trkpt lat="47.87842" lon="6.91031">
        <ele>837.5</ele>
        <time>2022-11-02T13:48:35Z</time>
      </trkpt>
      <trkpt lat="47.8784" lon="6.91031">
        <ele>837.5</ele>
        <time>2022-11-02T13:48:36Z</time>
      </trkpt>
      <trkpt lat="47.87839" lon="6.91032">
        <ele>837.4</ele>
        <time>2022-11-02T13:48:37Z</time>
      </trkpt>
      <trkpt lat="47.87838" lon="6.91032">
        <ele>837.4</ele>
        <time>2022-11-02T13:48:38Z</time>
      </trkpt>
      <trkpt lat="47.87838" lon="6.91033">
        <ele>837.2</ele>
        <time>2022-11-02T13:48:39Z</time>
      </trkpt>
      <trkpt lat="47.87837" lon="6.91034">
        <ele>837.1</ele>
        <time>2022-11-02T13:48:40Z</time>
      </trkpt>
      <trkpt lat="47.87836" lon="6.91034">
        <ele>837.1</ele>
        <time>2022-11-02T13:48:41Z</time>
      </trkpt>
      <trkpt lat="47.87835" lon="6.91035">
        <ele>837</ele>
        <time>2022-11-02T13:48:42Z</time>
      </trkpt>
      <trkpt lat="47.87835" lon="6.91036">
        <ele>836.8</ele>
        <time>2022-11-02T13:48:43Z</time>
      </trkpt>
      <trkpt lat="47.87834" lon="6.91037">
        <ele>836.7</ele>
        <time>2022-11-02T13:48:44Z</time>
      </trkpt>
      <trkpt lat="47.87833" lon="6.91037">
        <ele>836.8</ele>
        <time>2022-11-02T13:48:45Z</time>
      </trkpt>
      <trkpt lat="47.87832" lon="6.91038">
        <ele>836.9</ele>
        <time>2022-11-02T13:48:46Z</time>
      </trkpt>
      <trkpt lat="47.87831" lon="6.91039">
        <ele>837.1</ele>
        <time>2022-11-02T13:48:47Z</time>
      </trkpt>
      <trkpt lat="47.8783" lon="6.91039">
        <ele>837.4</ele>
        <time>2022-11-02T13:48:48Z</time>
      </trkpt>
      <trkpt lat="47.8783" lon="6.9104">
        <ele>837.2</ele>
        <time>2022-11-02T13:48:49Z</time>
      </trkpt>
      <trkpt lat="47.87829" lon="6.91041">
        <ele>837.4</ele>
        <time>2022-11-02T13:48:50Z</time>
      </trkpt>
      <trkpt lat="47.87828" lon="6.91041">
        <ele>837.6</ele>
        <time>2022-11-02T13:48:51Z</time>
      </trkpt>
      <trkpt lat="47.87828" lon="6.91042">
        <ele>837.5</ele>
        <time>2022-11-02T13:48:52Z</time>
      </trkpt>
      <trkpt lat="47.87827" lon="6.91043">
        <ele>837.6</ele>
        <time>2022-11-02T13:48:53Z</time>
      </trkpt>
      <trkpt lat="47.87826" lon="6.91044">
        <ele>837.7</ele>
        <time>2022-11-02T13:48:54Z</time>
      </trkpt>
      <trkpt lat="47.87826" lon="6.91045">
        <ele>837.6</ele>
        <time>2022-11-02T13:48:55Z</time>
      </trkpt>
      <trkpt lat="47.87825" lon="6.91046">
        <ele>837.7</ele>
        <time>2022-11-02T13:48:56Z</time>
      </trkpt>
      <trkpt lat="47.87824" lon="6.91047">
        <ele>837.8</ele>
        <time>2022-11-02T13:48:57Z</time>
      </trkpt>
      <trkpt lat="47.87824" lon="6.91048">
        <ele>837.6</ele>
        <time>2022-11-02T13:48:58Z</time>
      </trkpt>
      <trkpt lat="47.87823" lon="6.91048">
        <ele>837.9</ele>
        <time>2022-11-02T13:48:59Z</time>
      </trkpt>
      <trkpt lat="47.87822" lon="6.91049">
        <ele>838</ele>
        <time>2022-11-02T13:49:00Z</time>
      </trkpt>
      <trkpt lat="47.87821" lon="6.91049">
        <ele>838.3</ele>
        <time>2022-11-02T13:49:01Z</time>
      </trkpt>
      <trkpt lat="47.87821" lon="6.9105">
        <ele>838.1</ele>
        <time>2022-11-02T13:49:02Z</time>
      </trkpt>
      <trkpt lat="47.8782" lon="6.91051">
        <ele>838.2</ele>
        <time>2022-11-02T13:49:03Z</time>
      </trkpt>
      <trkpt lat="47.87819" lon="6.91052">
        <ele>838.3</ele>
        <time>2022-11-02T13:49:04Z</time>
      </trkpt>
      <trkpt lat="47.87818" lon="6.91053">
        <ele>838.3</ele>
        <time>2022-11-02T13:49:05Z</time>
      </trkpt>
      <trkpt lat="47.87817" lon="6.91054">
        <ele>838.4</ele>
        <time>2022-11-02T13:49:06Z</time>
      </trkpt>
      <trkpt lat="47.87816" lon="6.91055">
        <ele>838.5</ele>
        <time>2022-11-02T13:49:07Z</time>
      </trkpt>
      <trkpt lat="47.87815" lon="6.91057">
        <ele>838.3</ele>
        <time>2022-11-02T13:49:08Z</time>
      </trkpt>
      <trkpt lat="47.87814" lon="6.91058">
        <ele>838.4</ele>
        <time>2022-11-02T13:49:09Z</time>
      </trkpt>
      <trkpt lat="47.87813" lon="6.91059">
        <ele>838.4</ele>
        <time>2022-11-02T13:49:10Z</time>
      </trkpt>
      <trkpt lat="47.87812" lon="6.9106">
        <ele>838.5</ele>
        <time>2022-11-02T13:49:11Z</time>
      </trkpt>
      <trkpt lat="47.87811" lon="6.91061">
        <ele>838.6</ele>
        <time>2022-11-02T13:49:12Z</time>
      </trkpt>
      <trkpt lat="47.87811" lon="6.91062">
        <ele>838.4</ele>
        <time>2022-11-02T13:49:13Z</time>
      </trkpt>
      <trkpt lat="47.8781" lon="6.91063">
        <ele>838.5</ele>
        <time>2022-11-02T13:49:14Z</time>
      </trkpt>
      <trkpt lat="47.87809" lon="6.91065">
        <ele>838.3</ele>
        <time>2022-11-02T13:49:15Z</time>
      </trkpt>
      <trkpt lat="47.87808" lon="6.91066">
        <ele>838.4</ele>
        <time>2022-11-02T13:49:16Z</time>
      </trkpt>
      <trkpt lat="47.87808" lon="6.91067">
        <ele>838.3</ele>
        <time>2022-11-02T13:49:17Z</time>
      </trkpt>
      <trkpt lat="47.87807" lon="6.91068">
        <ele>838.3</ele>
        <time>2022-11-02T13:49:18Z</time>
      </trkpt>
      <trkpt lat="47.87807" lon="6.91069">
        <ele>838.2</ele>
        <time>2022-11-02T13:49:19Z</time>
      </trkpt>
      <trkpt lat="47.87806" lon="6.91071">
        <ele>838.1</ele>
        <time>2022-11-02T13:49:20Z</time>
      </trkpt>
      <trkpt lat="47.87806" lon="6.91072">
        <ele>837.9</ele>
        <time>2022-11-02T13:49:21Z</time>
      </trkpt>
      <trkpt lat="47.87805" lon="6.91073">
        <ele>838.2</ele>
        <time>2022-11-02T13:49:22Z</time>
      </trkpt>
      <trkpt lat="47.87805" lon="6.91074">
        <ele>838</ele>
        <time>2022-11-02T13:49:23Z</time>
      </trkpt>
      <trkpt lat="47.87804" lon="6.91076">
        <ele>838.1</ele>
        <time>2022-11-02T13:49:24Z</time>
      </trkpt>
      <trkpt lat="47.87803" lon="6.91077">
        <ele>838.5</ele>
        <time>2022-11-02T13:49:25Z</time>
      </trkpt>
      <trkpt lat="47.87802" lon="6.91078">
        <ele>838.8</ele>
        <time>2022-11-02T13:49:26Z</time>
      </trkpt>
      <trkpt lat="47.87801" lon="6.91079">
        <ele>839.2</ele>
        <time>2022-11-02T13:49:28Z</time>
      </trkpt>
      <trkpt lat="47.878" lon="6.9108">
        <ele>839.5</ele>
        <time>2022-11-02T13:49:29Z</time>
      </trkpt>
      <trkpt lat="47.87799" lon="6.91081">
        <ele>839.8</ele>
        <time>2022-11-02T13:49:30Z</time>
      </trkpt>
      <trkpt lat="47.87799" lon="6.91083">
        <ele>839.4</ele>
        <time>2022-11-02T13:49:31Z</time>
      </trkpt>
      <trkpt lat="47.87798" lon="6.91084">
        <ele>839.7</ele>
        <time>2022-11-02T13:49:32Z</time>
      </trkpt>
      <trkpt lat="47.87797" lon="6.91086">
        <ele>839.7</ele>
        <time>2022-11-02T13:49:33Z</time>
      </trkpt>
      <trkpt lat="47.87797" lon="6.91087">
        <ele>839.5</ele>
        <time>2022-11-02T13:49:34Z</time>
      </trkpt>
      <trkpt lat="47.87796" lon="6.91088">
        <ele>839.8</ele>
        <time>2022-11-02T13:49:35Z</time>
      </trkpt>
      <trkpt lat="47.87795" lon="6.9109">
        <ele>839.9</ele>
        <time>2022-11-02T13:49:36Z</time>
      </trkpt>
      <trkpt lat="47.87795" lon="6.91091">
        <ele>839.7</ele>
        <time>2022-11-02T13:49:37Z</time>
      </trkpt>
      <trkpt lat="47.87794" lon="6.91092">
        <ele>840</ele>
        <time>2022-11-02T13:49:38Z</time>
      </trkpt>
      <trkpt lat="47.87794" lon="6.91094">
        <ele>839.5</ele>
        <time>2022-11-02T13:49:39Z</time>
      </trkpt>
      <trkpt lat="47.87793" lon="6.91095">
        <ele>839.8</ele>
        <time>2022-11-02T13:49:40Z</time>
      </trkpt>
      <trkpt lat="47.87792" lon="6.91097">
        <ele>839.9</ele>
        <time>2022-11-02T13:49:41Z</time>
      </trkpt>
      <trkpt lat="47.87792" lon="6.91098">
        <ele>839.7</ele>
        <time>2022-11-02T13:49:42Z</time>
      </trkpt>
      <trkpt lat="47.87791" lon="6.91099">
        <ele>840</ele>
        <time>2022-11-02T13:49:43Z</time>
      </trkpt>
      <trkpt lat="47.87791" lon="6.91101">
        <ele>839.5</ele>
        <time>2022-11-02T13:49:44Z</time>
      </trkpt>
      <trkpt lat="47.8779" lon="6.91102">
        <ele>839.8</ele>
        <time>2022-11-02T13:49:45Z</time>
      </trkpt>
      <trkpt lat="47.8779" lon="6.91103">
        <ele>839.6</ele>
        <time>2022-11-02T13:49:46Z</time>
      </trkpt>
      <trkpt lat="47.8779" lon="6.91104">
        <ele>839.4</ele>
        <time>2022-11-02T13:49:47Z</time>
      </trkpt>
      <trkpt lat="47.87789" lon="6.91106">
        <ele>839.4</ele>
        <time>2022-11-02T13:49:48Z</time>
      </trkpt>
      <trkpt lat="47.87789" lon="6.91107">
        <ele>839.2</ele>
        <time>2022-11-02T13:49:49Z</time>
      </trkpt>
      <trkpt lat="47.87789" lon="6.91108">
        <ele>839</ele>
        <time>2022-11-02T13:49:50Z</time>
      </trkpt>
      <trkpt lat="47.87788" lon="6.9111">
        <ele>839.1</ele>
        <time>2022-11-02T13:49:51Z</time>
      </trkpt>
      <trkpt lat="47.87788" lon="6.91111">
        <ele>838.9</ele>
        <time>2022-11-02T13:49:52Z</time>
      </trkpt>
      <trkpt lat="47.87787" lon="6.91113">
        <ele>839.1</ele>
        <time>2022-11-02T13:49:53Z</time>
      </trkpt>
      <trkpt lat="47.87787" lon="6.91114">
        <ele>838.9</ele>
        <time>2022-11-02T13:49:54Z</time>
      </trkpt>
      <trkpt lat="47.87786" lon="6.91116">
        <ele>839.2</ele>
        <time>2022-11-02T13:49:55Z</time>
      </trkpt>
      <trkpt lat="47.87786" lon="6.91117">
        <ele>839</ele>
        <time>2022-11-02T13:49:56Z</time>
      </trkpt>
      <trkpt lat="47.87785" lon="6.91118">
        <ele>839.4</ele>
        <time>2022-11-02T13:49:57Z</time>
      </trkpt>
      <trkpt lat="47.87785" lon="6.91119">
        <ele>839.2</ele>
        <time>2022-11-02T13:49:58Z</time>
      </trkpt>
      <trkpt lat="47.87784" lon="6.91121">
        <ele>839.4</ele>
        <time>2022-11-02T13:49:59Z</time>
      </trkpt>
      <trkpt lat="47.87783" lon="6.91122">
        <ele>839.8</ele>
        <time>2022-11-02T13:50:00Z</time>
      </trkpt>
      <trkpt lat="47.87782" lon="6.91123">
        <ele>840.2</ele>
        <time>2022-11-02T13:50:01Z</time>
      </trkpt>
      <trkpt lat="47.87781" lon="6.91124">
        <ele>840.5</ele>
        <time>2022-11-02T13:50:02Z</time>
      </trkpt>
      <trkpt lat="47.87781" lon="6.91125">
        <ele>840.4</ele>
        <time>2022-11-02T13:50:03Z</time>
      </trkpt>
      <trkpt lat="47.8778" lon="6.91127">
        <ele>840.6</ele>
        <time>2022-11-02T13:50:04Z</time>
      </trkpt>
      <trkpt lat="47.8778" lon="6.91128">
        <ele>840.4</ele>
        <time>2022-11-02T13:50:05Z</time>
      </trkpt>
      <trkpt lat="47.87779" lon="6.9113">
        <ele>840.7</ele>
        <time>2022-11-02T13:50:06Z</time>
      </trkpt>
      <trkpt lat="47.87779" lon="6.91131">
        <ele>840.5</ele>
        <time>2022-11-02T13:50:07Z</time>
      </trkpt>
      <trkpt lat="47.87778" lon="6.91132">
        <ele>840.9</ele>
        <time>2022-11-02T13:50:08Z</time>
      </trkpt>
      <trkpt lat="47.87777" lon="6.91134">
        <ele>841</ele>
        <time>2022-11-02T13:50:09Z</time>
      </trkpt>
      <trkpt lat="47.87776" lon="6.91135">
        <ele>841.3</ele>
        <time>2022-11-02T13:50:10Z</time>
      </trkpt>
      <trkpt lat="47.87776" lon="6.91136">
        <ele>841.1</ele>
        <time>2022-11-02T13:50:11Z</time>
      </trkpt>
      <trkpt lat="47.87775" lon="6.91137">
        <ele>841.4</ele>
        <time>2022-11-02T13:50:12Z</time>
      </trkpt>
      <trkpt lat="47.87774" lon="6.91138">
        <ele>841.6</ele>
        <time>2022-11-02T13:50:13Z</time>
      </trkpt>
      <trkpt lat="47.87773" lon="6.91139">
        <ele>841.9</ele>
        <time>2022-11-02T13:50:14Z</time>
      </trkpt>
      <trkpt lat="47.87772" lon="6.9114">
        <ele>842</ele>
        <time>2022-11-02T13:50:15Z</time>
      </trkpt>
      <trkpt lat="47.87771" lon="6.91141">
        <ele>842.2</ele>
        <time>2022-11-02T13:50:16Z</time>
      </trkpt>
      <trkpt lat="47.8777" lon="6.91142">
        <ele>842.4</ele>
        <time>2022-11-02T13:50:17Z</time>
      </trkpt>
      <trkpt lat="47.8777" lon="6.91143">
        <ele>842.2</ele>
        <time>2022-11-02T13:50:18Z</time>
      </trkpt>
      <trkpt lat="47.87769" lon="6.91144">
        <ele>842.3</ele>
        <time>2022-11-02T13:50:19Z</time>
      </trkpt>
      <trkpt lat="47.87768" lon="6.91145">
        <ele>842.5</ele>
        <time>2022-11-02T13:50:20Z</time>
      </trkpt>
      <trkpt lat="47.87767" lon="6.91146">
        <ele>842.6</ele>
        <time>2022-11-02T13:50:21Z</time>
      </trkpt>
      <trkpt lat="47.87766" lon="6.91148">
        <ele>842.6</ele>
        <time>2022-11-02T13:50:22Z</time>
      </trkpt>
      <trkpt lat="47.87766" lon="6.91149">
        <ele>842.3</ele>
        <time>2022-11-02T13:50:23Z</time>
      </trkpt>
      <trkpt lat="47.87765" lon="6.9115">
        <ele>842.5</ele>
        <time>2022-11-02T13:50:24Z</time>
      </trkpt>
      <trkpt lat="47.87764" lon="6.91151">
        <ele>842.6</ele>
        <time>2022-11-02T13:50:25Z</time>
      </trkpt>
      <trkpt lat="47.87763" lon="6.91152">
        <ele>842.8</ele>
        <time>2022-11-02T13:50:26Z</time>
      </trkpt>
      <trkpt lat="47.87762" lon="6.91154">
        <ele>842.7</ele>
        <time>2022-11-02T13:50:27Z</time>
      </trkpt>
      <trkpt lat="47.87761" lon="6.91155">
        <ele>842.8</ele>
        <time>2022-11-02T13:50:28Z</time>
      </trkpt>
      <trkpt lat="47.87761" lon="6.91156">
        <ele>842.6</ele>
        <time>2022-11-02T13:50:29Z</time>
      </trkpt>
      <trkpt lat="47.8776" lon="6.91157">
        <ele>842.7</ele>
        <time>2022-11-02T13:50:30Z</time>
      </trkpt>
      <trkpt lat="47.87759" lon="6.91159">
        <ele>842.6</ele>
        <time>2022-11-02T13:50:31Z</time>
      </trkpt>
      <trkpt lat="47.87758" lon="6.9116">
        <ele>842.7</ele>
        <time>2022-11-02T13:50:32Z</time>
      </trkpt>
      <trkpt lat="47.87758" lon="6.91161">
        <ele>842.5</ele>
        <time>2022-11-02T13:50:33Z</time>
      </trkpt>
      <trkpt lat="47.87757" lon="6.91162">
        <ele>842.6</ele>
        <time>2022-11-02T13:50:34Z</time>
      </trkpt>
      <trkpt lat="47.87756" lon="6.91163">
        <ele>842.7</ele>
        <time>2022-11-02T13:50:35Z</time>
      </trkpt>
      <trkpt lat="47.87755" lon="6.91164">
        <ele>842.9</ele>
        <time>2022-11-02T13:50:36Z</time>
      </trkpt>
      <trkpt lat="47.87754" lon="6.91165">
        <ele>843</ele>
        <time>2022-11-02T13:50:37Z</time>
      </trkpt>
      <trkpt lat="47.87753" lon="6.91166">
        <ele>843.1</ele>
        <time>2022-11-02T13:50:38Z</time>
      </trkpt>
      <trkpt lat="47.87752" lon="6.91168">
        <ele>842.9</ele>
        <time>2022-11-02T13:50:39Z</time>
      </trkpt>
      <trkpt lat="47.87751" lon="6.91169">
        <ele>843.1</ele>
        <time>2022-11-02T13:50:40Z</time>
      </trkpt>
      <trkpt lat="47.8775" lon="6.9117">
        <ele>843.2</ele>
        <time>2022-11-02T13:50:41Z</time>
      </trkpt>
      <trkpt lat="47.8775" lon="6.91172">
        <ele>842.7</ele>
        <time>2022-11-02T13:50:42Z</time>
      </trkpt>
      <trkpt lat="47.87749" lon="6.91173">
        <ele>842.9</ele>
        <time>2022-11-02T13:50:43Z</time>
      </trkpt>
      <trkpt lat="47.87748" lon="6.91175">
        <ele>843</ele>
        <time>2022-11-02T13:50:44Z</time>
      </trkpt>
      <trkpt lat="47.87748" lon="6.91176">
        <ele>842.7</ele>
        <time>2022-11-02T13:50:45Z</time>
      </trkpt>
      <trkpt lat="47.87747" lon="6.91178">
        <ele>842.7</ele>
        <time>2022-11-02T13:50:46Z</time>
      </trkpt>
      <trkpt lat="47.87747" lon="6.9118">
        <ele>842.2</ele>
        <time>2022-11-02T13:50:47Z</time>
      </trkpt>
      <trkpt lat="47.87747" lon="6.91181">
        <ele>842</ele>
        <time>2022-11-02T13:50:48Z</time>
      </trkpt>
      <trkpt lat="47.87746" lon="6.91183">
        <ele>842</ele>
        <time>2022-11-02T13:50:49Z</time>
      </trkpt>
      <trkpt lat="47.87746" lon="6.91184">
        <ele>841.7</ele>
        <time>2022-11-02T13:50:50Z</time>
      </trkpt>
      <trkpt lat="47.87745" lon="6.91186">
        <ele>841.7</ele>
        <time>2022-11-02T13:50:51Z</time>
      </trkpt>
      <trkpt lat="47.87745" lon="6.91187">
        <ele>841.4</ele>
        <time>2022-11-02T13:50:52Z</time>
      </trkpt>
      <trkpt lat="47.87744" lon="6.91188">
        <ele>841.7</ele>
        <time>2022-11-02T13:50:53Z</time>
      </trkpt>
      <trkpt lat="47.87743" lon="6.9119">
        <ele>841.7</ele>
        <time>2022-11-02T13:50:54Z</time>
      </trkpt>
      <trkpt lat="47.87742" lon="6.91191">
        <ele>841.9</ele>
        <time>2022-11-02T13:50:56Z</time>
      </trkpt>
      <trkpt lat="47.87741" lon="6.91192">
        <ele>842.2</ele>
        <time>2022-11-02T13:50:57Z</time>
      </trkpt>
      <trkpt lat="47.87741" lon="6.91193">
        <ele>841.9</ele>
        <time>2022-11-02T13:50:58Z</time>
      </trkpt>
      <trkpt lat="47.8774" lon="6.91194">
        <ele>842.2</ele>
        <time>2022-11-02T13:50:59Z</time>
      </trkpt>
      <trkpt lat="47.87739" lon="6.91195">
        <ele>842.5</ele>
        <time>2022-11-02T13:51:00Z</time>
      </trkpt>
      <trkpt lat="47.87738" lon="6.91196">
        <ele>842.8</ele>
        <time>2022-11-02T13:51:01Z</time>
      </trkpt>
      <trkpt lat="47.87737" lon="6.91197">
        <ele>843.2</ele>
        <time>2022-11-02T13:51:02Z</time>
      </trkpt>
      <trkpt lat="47.87737" lon="6.91198">
        <ele>843</ele>
        <time>2022-11-02T13:51:03Z</time>
      </trkpt>
      <trkpt lat="47.87736" lon="6.91199">
        <ele>843.4</ele>
        <time>2022-11-02T13:51:04Z</time>
      </trkpt>
      <trkpt lat="47.87735" lon="6.912">
        <ele>843.8</ele>
        <time>2022-11-02T13:51:05Z</time>
      </trkpt>
      <trkpt lat="47.87734" lon="6.91202">
        <ele>844.1</ele>
        <time>2022-11-02T13:51:06Z</time>
      </trkpt>
      <trkpt lat="47.87734" lon="6.91203">
        <ele>843.9</ele>
        <time>2022-11-02T13:51:07Z</time>
      </trkpt>
      <trkpt lat="47.87733" lon="6.91204">
        <ele>844.3</ele>
        <time>2022-11-02T13:51:08Z</time>
      </trkpt>
      <trkpt lat="47.87732" lon="6.91205">
        <ele>844.8</ele>
        <time>2022-11-02T13:51:09Z</time>
      </trkpt>
      <trkpt lat="47.87731" lon="6.91206">
        <ele>845.2</ele>
        <time>2022-11-02T13:51:10Z</time>
      </trkpt>
      <trkpt lat="47.87731" lon="6.91207">
        <ele>845.1</ele>
        <time>2022-11-02T13:51:11Z</time>
      </trkpt>
      <trkpt lat="47.8773" lon="6.91208">
        <ele>845.6</ele>
        <time>2022-11-02T13:51:12Z</time>
      </trkpt>
      <trkpt lat="47.8773" lon="6.91209">
        <ele>845.4</ele>
        <time>2022-11-02T13:51:13Z</time>
      </trkpt>
      <trkpt lat="47.87729" lon="6.9121">
        <ele>845.9</ele>
        <time>2022-11-02T13:51:14Z</time>
      </trkpt>
      <trkpt lat="47.87729" lon="6.91212">
        <ele>845.7</ele>
        <time>2022-11-02T13:51:15Z</time>
      </trkpt>
      <trkpt lat="47.87729" lon="6.91213">
        <ele>845.6</ele>
        <time>2022-11-02T13:51:16Z</time>
      </trkpt>
      <trkpt lat="47.87728" lon="6.91214">
        <ele>846.1</ele>
        <time>2022-11-02T13:51:17Z</time>
      </trkpt>
      <trkpt lat="47.87728" lon="6.91215">
        <ele>846</ele>
        <time>2022-11-02T13:51:18Z</time>
      </trkpt>
      <trkpt lat="47.87728" lon="6.91217">
        <ele>845.8</ele>
        <time>2022-11-02T13:51:19Z</time>
      </trkpt>
      <trkpt lat="47.87728" lon="6.91218">
        <ele>845.7</ele>
        <time>2022-11-02T13:51:20Z</time>
      </trkpt>
      <trkpt lat="47.87728" lon="6.9122">
        <ele>845.5</ele>
        <time>2022-11-02T13:51:21Z</time>
      </trkpt>
      <trkpt lat="47.87729" lon="6.91221">
        <ele>844.7</ele>
        <time>2022-11-02T13:51:22Z</time>
      </trkpt>
      <trkpt lat="47.87729" lon="6.91223">
        <ele>844.6</ele>
        <time>2022-11-02T13:51:23Z</time>
      </trkpt>
      <trkpt lat="47.87729" lon="6.91225">
        <ele>844.4</ele>
        <time>2022-11-02T13:51:24Z</time>
      </trkpt>
      <trkpt lat="47.87729" lon="6.91226">
        <ele>844.4</ele>
        <time>2022-11-02T13:51:25Z</time>
      </trkpt>
      <trkpt lat="47.87729" lon="6.91228">
        <ele>844.2</ele>
        <time>2022-11-02T13:51:26Z</time>
      </trkpt>
      <trkpt lat="47.87729" lon="6.9123">
        <ele>844.1</ele>
        <time>2022-11-02T13:51:27Z</time>
      </trkpt>
      <trkpt lat="47.87729" lon="6.91232">
        <ele>844</ele>
        <time>2022-11-02T13:51:28Z</time>
      </trkpt>
      <trkpt lat="47.87729" lon="6.91233">
        <ele>843.9</ele>
        <time>2022-11-02T13:51:29Z</time>
      </trkpt>
      <trkpt lat="47.87729" lon="6.91234">
        <ele>843.9</ele>
        <time>2022-11-02T13:51:30Z</time>
      </trkpt>
      <trkpt lat="47.87729" lon="6.91236">
        <ele>843.7</ele>
        <time>2022-11-02T13:51:31Z</time>
      </trkpt>
      <trkpt lat="47.87729" lon="6.91237">
        <ele>843.7</ele>
        <time>2022-11-02T13:51:32Z</time>
      </trkpt>
      <trkpt lat="47.87729" lon="6.91239">
        <ele>843.5</ele>
        <time>2022-11-02T13:51:33Z</time>
      </trkpt>
      <trkpt lat="47.87729" lon="6.9124">
        <ele>843.5</ele>
        <time>2022-11-02T13:51:34Z</time>
      </trkpt>
      <trkpt lat="47.87729" lon="6.91242">
        <ele>843.4</ele>
        <time>2022-11-02T13:51:35Z</time>
      </trkpt>
      <trkpt lat="47.87729" lon="6.91243">
        <ele>843.3</ele>
        <time>2022-11-02T13:51:36Z</time>
      </trkpt>
      <trkpt lat="47.87729" lon="6.91245">
        <ele>843.2</ele>
        <time>2022-11-02T13:51:37Z</time>
      </trkpt>
      <trkpt lat="47.87729" lon="6.91246">
        <ele>843.1</ele>
        <time>2022-11-02T13:51:38Z</time>
      </trkpt>
      <trkpt lat="47.87728" lon="6.91248">
        <ele>843.6</ele>
        <time>2022-11-02T13:51:39Z</time>
      </trkpt>
      <trkpt lat="47.87728" lon="6.91249">
        <ele>843.5</ele>
        <time>2022-11-02T13:51:40Z</time>
      </trkpt>
      <trkpt lat="47.87728" lon="6.91251">
        <ele>843.4</ele>
        <time>2022-11-02T13:51:41Z</time>
      </trkpt>
      <trkpt lat="47.87728" lon="6.91252">
        <ele>843.3</ele>
        <time>2022-11-02T13:51:42Z</time>
      </trkpt>
      <trkpt lat="47.87728" lon="6.91254">
        <ele>843.1</ele>
        <time>2022-11-02T13:51:43Z</time>
      </trkpt>
      <trkpt lat="47.87727" lon="6.91255">
        <ele>843.7</ele>
        <time>2022-11-02T13:51:44Z</time>
      </trkpt>
      <trkpt lat="47.87727" lon="6.91257">
        <ele>843.5</ele>
        <time>2022-11-02T13:51:45Z</time>
      </trkpt>
      <trkpt lat="47.87726" lon="6.91258">
        <ele>844.1</ele>
        <time>2022-11-02T13:51:46Z</time>
      </trkpt>
      <trkpt lat="47.87726" lon="6.9126">
        <ele>843.9</ele>
        <time>2022-11-02T13:51:47Z</time>
      </trkpt>
      <trkpt lat="47.87726" lon="6.91262">
        <ele>843.8</ele>
        <time>2022-11-02T13:51:48Z</time>
      </trkpt>
      <trkpt lat="47.87726" lon="6.91263">
        <ele>843.7</ele>
        <time>2022-11-02T13:51:49Z</time>
      </trkpt>
      <trkpt lat="47.87725" lon="6.91265">
        <ele>844.2</ele>
        <time>2022-11-02T13:51:50Z</time>
      </trkpt>
      <trkpt lat="47.87725" lon="6.91266">
        <ele>844.1</ele>
        <time>2022-11-02T13:51:51Z</time>
      </trkpt>
      <trkpt lat="47.87725" lon="6.91268">
        <ele>843.9</ele>
        <time>2022-11-02T13:51:52Z</time>
      </trkpt>
      <trkpt lat="47.87725" lon="6.91269">
        <ele>843.9</ele>
        <time>2022-11-02T13:51:53Z</time>
      </trkpt>
      <trkpt lat="47.87725" lon="6.91271">
        <ele>843.7</ele>
        <time>2022-11-02T13:51:54Z</time>
      </trkpt>
      <trkpt lat="47.87725" lon="6.91273">
        <ele>843.6</ele>
        <time>2022-11-02T13:51:55Z</time>
      </trkpt>
      <trkpt lat="47.87725" lon="6.91274">
        <ele>843.5</ele>
        <time>2022-11-02T13:51:56Z</time>
      </trkpt>
      <trkpt lat="47.87725" lon="6.91276">
        <ele>843.3</ele>
        <time>2022-11-02T13:51:57Z</time>
      </trkpt>
      <trkpt lat="47.87726" lon="6.91278">
        <ele>842.5</ele>
        <time>2022-11-02T13:51:58Z</time>
      </trkpt>
      <trkpt lat="47.87726" lon="6.91279">
        <ele>842.5</ele>
        <time>2022-11-02T13:51:59Z</time>
      </trkpt>
      <trkpt lat="47.87726" lon="6.91281">
        <ele>842.3</ele>
        <time>2022-11-02T13:52:00Z</time>
      </trkpt>
      <trkpt lat="47.87726" lon="6.91283">
        <ele>842.2</ele>
        <time>2022-11-02T13:52:01Z</time>
      </trkpt>
      <trkpt lat="47.87726" lon="6.91284">
        <ele>842.1</ele>
        <time>2022-11-02T13:52:02Z</time>
      </trkpt>
      <trkpt lat="47.87726" lon="6.91286">
        <ele>842</ele>
        <time>2022-11-02T13:52:03Z</time>
      </trkpt>
      <trkpt lat="47.87726" lon="6.91287">
        <ele>841.9</ele>
        <time>2022-11-02T13:52:04Z</time>
      </trkpt>
      <trkpt lat="47.87726" lon="6.91289">
        <ele>841.8</ele>
        <time>2022-11-02T13:52:05Z</time>
      </trkpt>
      <trkpt lat="47.87726" lon="6.9129">
        <ele>841.8</ele>
        <time>2022-11-02T13:52:06Z</time>
      </trkpt>
      <trkpt lat="47.87726" lon="6.91292">
        <ele>841.6</ele>
        <time>2022-11-02T13:52:07Z</time>
      </trkpt>
      <trkpt lat="47.87725" lon="6.91294">
        <ele>842.3</ele>
        <time>2022-11-02T13:52:08Z</time>
      </trkpt>
      <trkpt lat="47.87725" lon="6.91295">
        <ele>842.2</ele>
        <time>2022-11-02T13:52:09Z</time>
      </trkpt>
      <trkpt lat="47.87725" lon="6.91297">
        <ele>842.1</ele>
        <time>2022-11-02T13:52:10Z</time>
      </trkpt>
      <trkpt lat="47.87725" lon="6.91299">
        <ele>842</ele>
        <time>2022-11-02T13:52:11Z</time>
      </trkpt>
      <trkpt lat="47.87724" lon="6.91301">
        <ele>842.7</ele>
        <time>2022-11-02T13:52:12Z</time>
      </trkpt>
      <trkpt lat="47.87724" lon="6.91302">
        <ele>842.6</ele>
        <time>2022-11-02T13:52:13Z</time>
      </trkpt>
      <trkpt lat="47.87724" lon="6.91304">
        <ele>842.5</ele>
        <time>2022-11-02T13:52:14Z</time>
      </trkpt>
      <trkpt lat="47.87723" lon="6.91306">
        <ele>843.3</ele>
        <time>2022-11-02T13:52:15Z</time>
      </trkpt>
      <trkpt lat="47.87723" lon="6.91307">
        <ele>843.3</ele>
        <time>2022-11-02T13:52:16Z</time>
      </trkpt>
      <trkpt lat="47.87723" lon="6.91309">
        <ele>843.3</ele>
        <time>2022-11-02T13:52:17Z</time>
      </trkpt>
      <trkpt lat="47.87724" lon="6.91311">
        <ele>842.5</ele>
        <time>2022-11-02T13:52:18Z</time>
      </trkpt>
      <trkpt lat="47.87724" lon="6.91313">
        <ele>842.5</ele>
        <time>2022-11-02T13:52:19Z</time>
      </trkpt>
      <trkpt lat="47.87724" lon="6.91314">
        <ele>842.5</ele>
        <time>2022-11-02T13:52:20Z</time>
      </trkpt>
      <trkpt lat="47.87724" lon="6.91316">
        <ele>842.5</ele>
        <time>2022-11-02T13:52:21Z</time>
      </trkpt>
      <trkpt lat="47.87724" lon="6.91318">
        <ele>842.5</ele>
        <time>2022-11-02T13:52:22Z</time>
      </trkpt>
      <trkpt lat="47.87724" lon="6.9132">
        <ele>842.5</ele>
        <time>2022-11-02T13:52:23Z</time>
      </trkpt>
      <trkpt lat="47.87724" lon="6.91321">
        <ele>842.5</ele>
        <time>2022-11-02T13:52:24Z</time>
      </trkpt>
      <trkpt lat="47.87724" lon="6.91323">
        <ele>842.5</ele>
        <time>2022-11-02T13:52:25Z</time>
      </trkpt>
      <trkpt lat="47.87724" lon="6.91324">
        <ele>842.5</ele>
        <time>2022-11-02T13:52:26Z</time>
      </trkpt>
      <trkpt lat="47.87724" lon="6.91326">
        <ele>842.5</ele>
        <time>2022-11-02T13:52:27Z</time>
      </trkpt>
      <trkpt lat="47.87724" lon="6.91328">
        <ele>842.5</ele>
        <time>2022-11-02T13:52:28Z</time>
      </trkpt>
      <trkpt lat="47.87723" lon="6.9133">
        <ele>843.4</ele>
        <time>2022-11-02T13:52:29Z</time>
      </trkpt>
      <trkpt lat="47.87723" lon="6.91331">
        <ele>843.4</ele>
        <time>2022-11-02T13:52:30Z</time>
      </trkpt>
      <trkpt lat="47.87723" lon="6.91333">
        <ele>843.4</ele>
        <time>2022-11-02T13:52:31Z</time>
      </trkpt>
      <trkpt lat="47.87723" lon="6.91335">
        <ele>843.3</ele>
        <time>2022-11-02T13:52:32Z</time>
      </trkpt>
      <trkpt lat="47.87723" lon="6.91336">
        <ele>843.3</ele>
        <time>2022-11-02T13:52:33Z</time>
      </trkpt>
      <trkpt lat="47.87723" lon="6.91338">
        <ele>843.2</ele>
        <time>2022-11-02T13:52:34Z</time>
      </trkpt>
      <trkpt lat="47.87723" lon="6.9134">
        <ele>843.1</ele>
        <time>2022-11-02T13:52:35Z</time>
      </trkpt>
      <trkpt lat="47.87723" lon="6.91341">
        <ele>843.1</ele>
        <time>2022-11-02T13:52:36Z</time>
      </trkpt>
      <trkpt lat="47.87722" lon="6.91343">
        <ele>843.8</ele>
        <time>2022-11-02T13:52:37Z</time>
      </trkpt>
      <trkpt lat="47.87722" lon="6.91344">
        <ele>843.8</ele>
        <time>2022-11-02T13:52:38Z</time>
      </trkpt>
      <trkpt lat="47.87722" lon="6.91346">
        <ele>843.7</ele>
        <time>2022-11-02T13:52:39Z</time>
      </trkpt>
      <trkpt lat="47.87722" lon="6.91347">
        <ele>843.7</ele>
        <time>2022-11-02T13:52:40Z</time>
      </trkpt>
      <trkpt lat="47.87722" lon="6.91349">
        <ele>843.6</ele>
        <time>2022-11-02T13:52:41Z</time>
      </trkpt>
      <trkpt lat="47.87721" lon="6.9135">
        <ele>844.4</ele>
        <time>2022-11-02T13:52:42Z</time>
      </trkpt>
      <trkpt lat="47.87722" lon="6.91352">
        <ele>843.5</ele>
        <time>2022-11-02T13:52:43Z</time>
      </trkpt>
      <trkpt lat="47.87722" lon="6.91353">
        <ele>843.5</ele>
        <time>2022-11-02T13:52:44Z</time>
      </trkpt>
      <trkpt lat="47.87722" lon="6.91355">
        <ele>843.4</ele>
        <time>2022-11-02T13:52:45Z</time>
      </trkpt>
      <trkpt lat="47.87722" lon="6.91356">
        <ele>843.4</ele>
        <time>2022-11-02T13:52:46Z</time>
      </trkpt>
      <trkpt lat="47.87722" lon="6.91358">
        <ele>843.3</ele>
        <time>2022-11-02T13:52:47Z</time>
      </trkpt>
      <trkpt lat="47.87722" lon="6.91359">
        <ele>843.3</ele>
        <time>2022-11-02T13:52:48Z</time>
      </trkpt>
      <trkpt lat="47.87722" lon="6.9136">
        <ele>843.2</ele>
        <time>2022-11-02T13:52:49Z</time>
      </trkpt>
      <trkpt lat="47.87722" lon="6.91362">
        <ele>843.2</ele>
        <time>2022-11-02T13:52:50Z</time>
      </trkpt>
      <trkpt lat="47.87722" lon="6.91363">
        <ele>843.3</ele>
        <time>2022-11-02T13:52:51Z</time>
      </trkpt>
      <trkpt lat="47.87722" lon="6.91364">
        <ele>843.3</ele>
        <time>2022-11-02T13:52:52Z</time>
      </trkpt>
      <trkpt lat="47.87722" lon="6.91366">
        <ele>843.4</ele>
        <time>2022-11-02T13:52:53Z</time>
      </trkpt>
      <trkpt lat="47.87721" lon="6.91367">
        <ele>844.3</ele>
        <time>2022-11-02T13:52:54Z</time>
      </trkpt>
      <trkpt lat="47.87721" lon="6.91369">
        <ele>844.5</ele>
        <time>2022-11-02T13:52:55Z</time>
      </trkpt>
      <trkpt lat="47.87721" lon="6.9137">
        <ele>844.5</ele>
        <time>2022-11-02T13:52:56Z</time>
      </trkpt>
      <trkpt lat="47.87721" lon="6.91372">
        <ele>844.6</ele>
        <time>2022-11-02T13:52:57Z</time>
      </trkpt>
      <trkpt lat="47.87721" lon="6.91374">
        <ele>844.7</ele>
        <time>2022-11-02T13:52:58Z</time>
      </trkpt>
      <trkpt lat="47.87721" lon="6.91376">
        <ele>844.9</ele>
        <time>2022-11-02T13:52:59Z</time>
      </trkpt>
      <trkpt lat="47.87721" lon="6.91377">
        <ele>844.9</ele>
        <time>2022-11-02T13:53:00Z</time>
      </trkpt>
      <trkpt lat="47.8772" lon="6.91379">
        <ele>846.2</ele>
        <time>2022-11-02T13:53:01Z</time>
      </trkpt>
      <trkpt lat="47.8772" lon="6.91381">
        <ele>846.3</ele>
        <time>2022-11-02T13:53:02Z</time>
      </trkpt>
      <trkpt lat="47.8772" lon="6.91383">
        <ele>846.4</ele>
        <time>2022-11-02T13:53:03Z</time>
      </trkpt>
      <trkpt lat="47.8772" lon="6.91385">
        <ele>846.6</ele>
        <time>2022-11-02T13:53:04Z</time>
      </trkpt>
      <trkpt lat="47.8772" lon="6.91387">
        <ele>846.7</ele>
        <time>2022-11-02T13:53:05Z</time>
      </trkpt>
      <trkpt lat="47.8772" lon="6.91388">
        <ele>846.8</ele>
        <time>2022-11-02T13:53:06Z</time>
      </trkpt>
      <trkpt lat="47.87719" lon="6.9139">
        <ele>848</ele>
        <time>2022-11-02T13:53:07Z</time>
      </trkpt>
      <trkpt lat="47.87719" lon="6.91392">
        <ele>847.6</ele>
        <time>2022-11-02T13:53:08Z</time>
      </trkpt>
      <trkpt lat="47.87718" lon="6.91393">
        <ele>848.7</ele>
        <time>2022-11-02T13:53:09Z</time>
      </trkpt>
      <trkpt lat="47.87718" lon="6.91394">
        <ele>848.5</ele>
        <time>2022-11-02T13:53:10Z</time>
      </trkpt>
      <trkpt lat="47.87718" lon="6.91395">
        <ele>848.3</ele>
        <time>2022-11-02T13:53:11Z</time>
      </trkpt>
      <trkpt lat="47.87717" lon="6.91395">
        <ele>849.5</ele>
        <time>2022-11-02T13:53:12Z</time>
      </trkpt>
      <trkpt lat="47.87717" lon="6.91396">
        <ele>849.3</ele>
        <time>2022-11-02T13:53:13Z</time>
      </trkpt>
      <trkpt lat="47.87717" lon="6.91397">
        <ele>849.1</ele>
        <time>2022-11-02T13:53:14Z</time>
      </trkpt>
      <trkpt lat="47.87717" lon="6.91398">
        <ele>848.9</ele>
        <time>2022-11-02T13:53:15Z</time>
      </trkpt>
      <trkpt lat="47.87717" lon="6.91399">
        <ele>848.6</ele>
        <time>2022-11-02T13:53:16Z</time>
      </trkpt>
      <trkpt lat="47.87717" lon="6.914">
        <ele>848.4</ele>
        <time>2022-11-02T13:53:17Z</time>
      </trkpt>
      <trkpt lat="47.87716" lon="6.91401">
        <ele>849.3</ele>
        <time>2022-11-02T13:53:18Z</time>
      </trkpt>
      <trkpt lat="47.87716" lon="6.91402">
        <ele>849.1</ele>
        <time>2022-11-02T13:53:19Z</time>
      </trkpt>
      <trkpt lat="47.87716" lon="6.91404">
        <ele>848.6</ele>
        <time>2022-11-02T13:53:20Z</time>
      </trkpt>
      <trkpt lat="47.87716" lon="6.91405">
        <ele>848.4</ele>
        <time>2022-11-02T13:53:21Z</time>
      </trkpt>
      <trkpt lat="47.87716" lon="6.91407">
        <ele>847.9</ele>
        <time>2022-11-02T13:53:22Z</time>
      </trkpt>
      <trkpt lat="47.87715" lon="6.91408">
        <ele>848.6</ele>
        <time>2022-11-02T13:53:23Z</time>
      </trkpt>
      <trkpt lat="47.87715" lon="6.91409">
        <ele>848.4</ele>
        <time>2022-11-02T13:53:24Z</time>
      </trkpt>
      <trkpt lat="47.87715" lon="6.91411">
        <ele>847.9</ele>
        <time>2022-11-02T13:53:25Z</time>
      </trkpt>
      <trkpt lat="47.87714" lon="6.91412">
        <ele>848.5</ele>
        <time>2022-11-02T13:53:26Z</time>
      </trkpt>
      <trkpt lat="47.87714" lon="6.91413">
        <ele>848.2</ele>
        <time>2022-11-02T13:53:27Z</time>
      </trkpt>
      <trkpt lat="47.87713" lon="6.91415">
        <ele>848.5</ele>
        <time>2022-11-02T13:53:28Z</time>
      </trkpt>
      <trkpt lat="47.87713" lon="6.91416">
        <ele>848.2</ele>
        <time>2022-11-02T13:53:29Z</time>
      </trkpt>
      <trkpt lat="47.87712" lon="6.91417">
        <ele>848.6</ele>
        <time>2022-11-02T13:53:30Z</time>
      </trkpt>
      <trkpt lat="47.87711" lon="6.91418">
        <ele>849.1</ele>
        <time>2022-11-02T13:53:31Z</time>
      </trkpt>
      <trkpt lat="47.87711" lon="6.91419">
        <ele>848.9</ele>
        <time>2022-11-02T13:53:32Z</time>
      </trkpt>
      <trkpt lat="47.8771" lon="6.9142">
        <ele>849.4</ele>
        <time>2022-11-02T13:53:33Z</time>
      </trkpt>
      <trkpt lat="47.8771" lon="6.91421">
        <ele>849.1</ele>
        <time>2022-11-02T13:53:34Z</time>
      </trkpt>
      <trkpt lat="47.87709" lon="6.91422">
        <ele>849.6</ele>
        <time>2022-11-02T13:53:35Z</time>
      </trkpt>
      <trkpt lat="47.87708" lon="6.91423">
        <ele>850</ele>
        <time>2022-11-02T13:53:36Z</time>
      </trkpt>
      <trkpt lat="47.87708" lon="6.91424">
        <ele>849.8</ele>
        <time>2022-11-02T13:53:37Z</time>
      </trkpt>
      <trkpt lat="47.87707" lon="6.91425">
        <ele>850.2</ele>
        <time>2022-11-02T13:53:38Z</time>
      </trkpt>
      <trkpt lat="47.87706" lon="6.91426">
        <ele>850.6</ele>
        <time>2022-11-02T13:53:39Z</time>
      </trkpt>
      <trkpt lat="47.87706" lon="6.91428">
        <ele>850</ele>
        <time>2022-11-02T13:53:40Z</time>
      </trkpt>
      <trkpt lat="47.87705" lon="6.91429">
        <ele>850.4</ele>
        <time>2022-11-02T13:53:41Z</time>
      </trkpt>
      <trkpt lat="47.87705" lon="6.9143">
        <ele>850.1</ele>
        <time>2022-11-02T13:53:42Z</time>
      </trkpt>
      <trkpt lat="47.87704" lon="6.91431">
        <ele>850.5</ele>
        <time>2022-11-02T13:53:43Z</time>
      </trkpt>
      <trkpt lat="47.87704" lon="6.91432">
        <ele>850.2</ele>
        <time>2022-11-02T13:53:44Z</time>
      </trkpt>
      <trkpt lat="47.87704" lon="6.91433">
        <ele>849.9</ele>
        <time>2022-11-02T13:53:45Z</time>
      </trkpt>
      <trkpt lat="47.87704" lon="6.91434">
        <ele>849.6</ele>
        <time>2022-11-02T13:53:46Z</time>
      </trkpt>
      <trkpt lat="47.87703" lon="6.91435">
        <ele>849.9</ele>
        <time>2022-11-02T13:53:47Z</time>
      </trkpt>
      <trkpt lat="47.87703" lon="6.91436">
        <ele>849.6</ele>
        <time>2022-11-02T13:53:48Z</time>
      </trkpt>
      <trkpt lat="47.87702" lon="6.91437">
        <ele>850</ele>
        <time>2022-11-02T13:53:49Z</time>
      </trkpt>
      <trkpt lat="47.87701" lon="6.91438">
        <ele>850.3</ele>
        <time>2022-11-02T13:53:51Z</time>
      </trkpt>
      <trkpt lat="47.877" lon="6.91439">
        <ele>850.6</ele>
        <time>2022-11-02T13:53:52Z</time>
      </trkpt>
      <trkpt lat="47.877" lon="6.9144">
        <ele>850.2</ele>
        <time>2022-11-02T13:53:53Z</time>
      </trkpt>
      <trkpt lat="47.87698" lon="6.91441">
        <ele>851.1</ele>
        <time>2022-11-02T13:53:54Z</time>
      </trkpt>
      <trkpt lat="47.87697" lon="6.91441">
        <ele>851.7</ele>
        <time>2022-11-02T13:53:55Z</time>
      </trkpt>
      <trkpt lat="47.87696" lon="6.91442">
        <ele>852</ele>
        <time>2022-11-02T13:53:56Z</time>
      </trkpt>
      <trkpt lat="47.87695" lon="6.91442">
        <ele>852.6</ele>
        <time>2022-11-02T13:53:57Z</time>
      </trkpt>
      <trkpt lat="47.87694" lon="6.91442">
        <ele>853.1</ele>
        <time>2022-11-02T13:53:58Z</time>
      </trkpt>
      <trkpt lat="47.87693" lon="6.91443">
        <ele>853.2</ele>
        <time>2022-11-02T13:53:59Z</time>
      </trkpt>
      <trkpt lat="47.87691" lon="6.91443">
        <ele>854.2</ele>
        <time>2022-11-02T13:54:32Z</time>
      </trkpt>
      <trkpt lat="47.87689" lon="6.91442">
        <ele>855.5</ele>
        <time>2022-11-02T13:54:33Z</time>
      </trkpt>
      <trkpt lat="47.87688" lon="6.91442">
        <ele>856</ele>
        <time>2022-11-02T13:54:34Z</time>
      </trkpt>
      <trkpt lat="47.87686" lon="6.91442">
        <ele>857</ele>
        <time>2022-11-02T13:54:41Z</time>
      </trkpt>
      <trkpt lat="47.87685" lon="6.91442">
        <ele>857.4</ele>
        <time>2022-11-02T13:54:42Z</time>
      </trkpt>
      <trkpt lat="47.87684" lon="6.91442">
        <ele>857.9</ele>
        <time>2022-11-02T13:54:43Z</time>
      </trkpt>
      <trkpt lat="47.87684" lon="6.91443">
        <ele>857.5</ele>
        <time>2022-11-02T13:54:44Z</time>
      </trkpt>
      <trkpt lat="47.87683" lon="6.91444">
        <ele>857.5</ele>
        <time>2022-11-02T13:54:54Z</time>
      </trkpt>
      <trkpt lat="47.87683" lon="6.91445">
        <ele>857.2</ele>
        <time>2022-11-02T13:54:55Z</time>
      </trkpt>
      <trkpt lat="47.87683" lon="6.91446">
        <ele>856.8</ele>
        <time>2022-11-02T13:54:56Z</time>
      </trkpt>
      <trkpt lat="47.87682" lon="6.91446">
        <ele>857.3</ele>
        <time>2022-11-02T13:54:57Z</time>
      </trkpt>
      <trkpt lat="47.87682" lon="6.91447">
        <ele>857</ele>
        <time>2022-11-02T13:54:58Z</time>
      </trkpt>
      <trkpt lat="47.87682" lon="6.91448">
        <ele>856.7</ele>
        <time>2022-11-02T13:54:59Z</time>
      </trkpt>
      <trkpt lat="47.87681" lon="6.91448">
        <ele>857.1</ele>
        <time>2022-11-02T13:55:00Z</time>
      </trkpt>
      <trkpt lat="47.8768" lon="6.9145">
        <ele>857</ele>
        <time>2022-11-02T13:55:01Z</time>
      </trkpt>
      <trkpt lat="47.8768" lon="6.91451">
        <ele>856.6</ele>
        <time>2022-11-02T13:55:02Z</time>
      </trkpt>
      <trkpt lat="47.87679" lon="6.91453">
        <ele>856.5</ele>
        <time>2022-11-02T13:55:03Z</time>
      </trkpt>
      <trkpt lat="47.87679" lon="6.91454">
        <ele>856.2</ele>
        <time>2022-11-02T13:55:04Z</time>
      </trkpt>
      <trkpt lat="47.87678" lon="6.91455">
        <ele>856.3</ele>
        <time>2022-11-02T13:55:05Z</time>
      </trkpt>
      <trkpt lat="47.87677" lon="6.91456">
        <ele>856.5</ele>
        <time>2022-11-02T13:55:06Z</time>
      </trkpt>
      <trkpt lat="47.87677" lon="6.91457">
        <ele>856.2</ele>
        <time>2022-11-02T13:55:07Z</time>
      </trkpt>
      <trkpt lat="47.87676" lon="6.91458">
        <ele>856.4</ele>
        <time>2022-11-02T13:55:08Z</time>
      </trkpt>
      <trkpt lat="47.87675" lon="6.91459">
        <ele>856.6</ele>
        <time>2022-11-02T13:55:09Z</time>
      </trkpt>
      <trkpt lat="47.87675" lon="6.9146">
        <ele>856.3</ele>
        <time>2022-11-02T13:55:10Z</time>
      </trkpt>
      <trkpt lat="47.87674" lon="6.91461">
        <ele>856.5</ele>
        <time>2022-11-02T13:55:11Z</time>
      </trkpt>
      <trkpt lat="47.87674" lon="6.91462">
        <ele>856.2</ele>
        <time>2022-11-02T13:55:12Z</time>
      </trkpt>
      <trkpt lat="47.87673" lon="6.91463">
        <ele>856.4</ele>
        <time>2022-11-02T13:55:13Z</time>
      </trkpt>
      <trkpt lat="47.87673" lon="6.91464">
        <ele>856.1</ele>
        <time>2022-11-02T13:55:14Z</time>
      </trkpt>
      <trkpt lat="47.87672" lon="6.91465">
        <ele>856.3</ele>
        <time>2022-11-02T13:56:02Z</time>
      </trkpt>
      <trkpt lat="47.87671" lon="6.91466">
        <ele>856.5</ele>
        <time>2022-11-02T13:56:03Z</time>
      </trkpt>
      <trkpt lat="47.8767" lon="6.91466">
        <ele>857</ele>
        <time>2022-11-02T13:56:04Z</time>
      </trkpt>
      <trkpt lat="47.8767" lon="6.91467">
        <ele>856.7</ele>
        <time>2022-11-02T13:56:05Z</time>
      </trkpt>
      <trkpt lat="47.87669" lon="6.91468">
        <ele>857</ele>
        <time>2022-11-02T13:56:06Z</time>
      </trkpt>
      <trkpt lat="47.87668" lon="6.91468">
        <ele>857.5</ele>
        <time>2022-11-02T13:56:07Z</time>
      </trkpt>
      <trkpt lat="47.87667" lon="6.91469">
        <ele>857.8</ele>
        <time>2022-11-02T13:56:08Z</time>
      </trkpt>
      <trkpt lat="47.87667" lon="6.9147">
        <ele>857.5</ele>
        <time>2022-11-02T13:56:09Z</time>
      </trkpt>
      <trkpt lat="47.87666" lon="6.91471">
        <ele>857.7</ele>
        <time>2022-11-02T13:56:10Z</time>
      </trkpt>
      <trkpt lat="47.87665" lon="6.91472">
        <ele>858</ele>
        <time>2022-11-02T13:56:11Z</time>
      </trkpt>
      <trkpt lat="47.87664" lon="6.91473">
        <ele>858.2</ele>
        <time>2022-11-02T13:56:12Z</time>
      </trkpt>
      <trkpt lat="47.87663" lon="6.91474">
        <ele>858.4</ele>
        <time>2022-11-02T13:56:13Z</time>
      </trkpt>
      <trkpt lat="47.87662" lon="6.91474">
        <ele>859</ele>
        <time>2022-11-02T13:56:14Z</time>
      </trkpt>
      <trkpt lat="47.87662" lon="6.91475">
        <ele>858.7</ele>
        <time>2022-11-02T13:56:15Z</time>
      </trkpt>
      <trkpt lat="47.87661" lon="6.91476">
        <ele>858.9</ele>
        <time>2022-11-02T13:56:16Z</time>
      </trkpt>
      <trkpt lat="47.8766" lon="6.91476">
        <ele>859.4</ele>
        <time>2022-11-02T13:56:17Z</time>
      </trkpt>
      <trkpt lat="47.87659" lon="6.91477">
        <ele>859.6</ele>
        <time>2022-11-02T13:56:18Z</time>
      </trkpt>
      <trkpt lat="47.87658" lon="6.91478">
        <ele>859.8</ele>
        <time>2022-11-02T13:56:19Z</time>
      </trkpt>
      <trkpt lat="47.87658" lon="6.91479">
        <ele>859.5</ele>
        <time>2022-11-02T13:56:20Z</time>
      </trkpt>
      <trkpt lat="47.87657" lon="6.9148">
        <ele>859.7</ele>
        <time>2022-11-02T13:56:21Z</time>
      </trkpt>
      <trkpt lat="47.87656" lon="6.91481">
        <ele>859.9</ele>
        <time>2022-11-02T13:56:22Z</time>
      </trkpt>
      <trkpt lat="47.87656" lon="6.91482">
        <ele>859.5</ele>
        <time>2022-11-02T13:56:23Z</time>
      </trkpt>
      <trkpt lat="47.87655" lon="6.91483">
        <ele>859.7</ele>
        <time>2022-11-02T13:56:24Z</time>
      </trkpt>
      <trkpt lat="47.87654" lon="6.91484">
        <ele>859.9</ele>
        <time>2022-11-02T13:56:25Z</time>
      </trkpt>
      <trkpt lat="47.87653" lon="6.91485">
        <ele>860</ele>
        <time>2022-11-02T13:56:26Z</time>
      </trkpt>
      <trkpt lat="47.87652" lon="6.91486">
        <ele>860.2</ele>
        <time>2022-11-02T13:56:27Z</time>
      </trkpt>
      <trkpt lat="47.87652" lon="6.91487">
        <ele>859.8</ele>
        <time>2022-11-02T13:56:28Z</time>
      </trkpt>
      <trkpt lat="47.87651" lon="6.91488">
        <ele>860</ele>
        <time>2022-11-02T13:56:29Z</time>
      </trkpt>
      <trkpt lat="47.8765" lon="6.91489">
        <ele>860.1</ele>
        <time>2022-11-02T13:56:30Z</time>
      </trkpt>
      <trkpt lat="47.8765" lon="6.9149">
        <ele>859.7</ele>
        <time>2022-11-02T13:56:31Z</time>
      </trkpt>
      <trkpt lat="47.87649" lon="6.91491">
        <ele>859.8</ele>
        <time>2022-11-02T13:56:32Z</time>
      </trkpt>
      <trkpt lat="47.87648" lon="6.91492">
        <ele>859.9</ele>
        <time>2022-11-02T13:56:33Z</time>
      </trkpt>
      <trkpt lat="47.87648" lon="6.91493">
        <ele>859.6</ele>
        <time>2022-11-02T13:56:34Z</time>
      </trkpt>
      <trkpt lat="47.87647" lon="6.91494">
        <ele>859.7</ele>
        <time>2022-11-02T13:56:35Z</time>
      </trkpt>
      <trkpt lat="47.87646" lon="6.91495">
        <ele>859.8</ele>
        <time>2022-11-02T13:56:37Z</time>
      </trkpt>
      <trkpt lat="47.87645" lon="6.91496">
        <ele>859.8</ele>
        <time>2022-11-02T13:56:38Z</time>
      </trkpt>
      <trkpt lat="47.87645" lon="6.91497">
        <ele>859.5</ele>
        <time>2022-11-02T13:56:39Z</time>
      </trkpt>
      <trkpt lat="47.87644" lon="6.91498">
        <ele>859.5</ele>
        <time>2022-11-02T13:56:40Z</time>
      </trkpt>
      <trkpt lat="47.87644" lon="6.91499">
        <ele>859.2</ele>
        <time>2022-11-02T13:56:41Z</time>
      </trkpt>
      <trkpt lat="47.87643" lon="6.915">
        <ele>859.2</ele>
        <time>2022-11-02T13:56:42Z</time>
      </trkpt>
      <trkpt lat="47.87643" lon="6.91501">
        <ele>859.1</ele>
        <time>2022-11-02T13:56:43Z</time>
      </trkpt>
      <trkpt lat="47.87642" lon="6.91502">
        <ele>859.5</ele>
        <time>2022-11-02T13:56:44Z</time>
      </trkpt>
      <trkpt lat="47.87642" lon="6.91503">
        <ele>859.4</ele>
        <time>2022-11-02T13:56:45Z</time>
      </trkpt>
      <trkpt lat="47.87642" lon="6.91505">
        <ele>859.2</ele>
        <time>2022-11-02T13:56:59Z</time>
      </trkpt>
      <trkpt lat="47.87641" lon="6.91506">
        <ele>859.6</ele>
        <time>2022-11-02T13:57:00Z</time>
      </trkpt>
      <trkpt lat="47.87641" lon="6.91507">
        <ele>859.5</ele>
        <time>2022-11-02T13:57:01Z</time>
      </trkpt>
      <trkpt lat="47.87641" lon="6.91508">
        <ele>859.4</ele>
        <time>2022-11-02T13:57:03Z</time>
      </trkpt>
      <trkpt lat="47.8764" lon="6.91509">
        <ele>859.8</ele>
        <time>2022-11-02T13:57:04Z</time>
      </trkpt>
      <trkpt lat="47.8764" lon="6.9151">
        <ele>859.7</ele>
        <time>2022-11-02T13:57:05Z</time>
      </trkpt>
      <trkpt lat="47.87639" lon="6.9151">
        <ele>860.2</ele>
        <time>2022-11-02T13:57:06Z</time>
      </trkpt>
      <trkpt lat="47.87639" lon="6.91512">
        <ele>860.1</ele>
        <time>2022-11-02T13:57:07Z</time>
      </trkpt>
      <trkpt lat="47.87638" lon="6.91513">
        <ele>860.9</ele>
        <time>2022-11-02T13:57:08Z</time>
      </trkpt>
      <trkpt lat="47.87638" lon="6.91514">
        <ele>860.8</ele>
        <time>2022-11-02T13:57:09Z</time>
      </trkpt>
      <trkpt lat="47.87637" lon="6.91515">
        <ele>861.6</ele>
        <time>2022-11-02T13:57:10Z</time>
      </trkpt>
      <trkpt lat="47.87636" lon="6.91516">
        <ele>862.5</ele>
        <time>2022-11-02T13:57:11Z</time>
      </trkpt>
      <trkpt lat="47.87636" lon="6.91517">
        <ele>862.4</ele>
        <time>2022-11-02T13:57:12Z</time>
      </trkpt>
      <trkpt lat="47.87635" lon="6.91518">
        <ele>863.2</ele>
        <time>2022-11-02T13:57:13Z</time>
      </trkpt>
      <trkpt lat="47.87635" lon="6.91519">
        <ele>863.1</ele>
        <time>2022-11-02T13:57:14Z</time>
      </trkpt>
      <trkpt lat="47.87634" lon="6.9152">
        <ele>863.9</ele>
        <time>2022-11-02T13:57:15Z</time>
      </trkpt>
      <trkpt lat="47.87633" lon="6.91521">
        <ele>864.7</ele>
        <time>2022-11-02T13:57:16Z</time>
      </trkpt>
      <trkpt lat="47.87633" lon="6.91522">
        <ele>864.6</ele>
        <time>2022-11-02T13:57:17Z</time>
      </trkpt>
      <trkpt lat="47.87632" lon="6.91523">
        <ele>865.4</ele>
        <time>2022-11-02T13:57:18Z</time>
      </trkpt>
      <trkpt lat="47.87632" lon="6.91525">
        <ele>865.2</ele>
        <time>2022-11-02T13:57:19Z</time>
      </trkpt>
      <trkpt lat="47.87632" lon="6.91526">
        <ele>865.1</ele>
        <time>2022-11-02T13:57:20Z</time>
      </trkpt>
      <trkpt lat="47.87631" lon="6.91527">
        <ele>865.9</ele>
        <time>2022-11-02T13:57:21Z</time>
      </trkpt>
      <trkpt lat="47.87631" lon="6.91529">
        <ele>865.5</ele>
        <time>2022-11-02T13:57:22Z</time>
      </trkpt>
      <trkpt lat="47.8763" lon="6.9153">
        <ele>866.1</ele>
        <time>2022-11-02T13:57:23Z</time>
      </trkpt>
      <trkpt lat="47.8763" lon="6.91531">
        <ele>865.8</ele>
        <time>2022-11-02T13:57:24Z</time>
      </trkpt>
      <trkpt lat="47.87629" lon="6.91532">
        <ele>866.4</ele>
        <time>2022-11-02T13:57:25Z</time>
      </trkpt>
      <trkpt lat="47.87629" lon="6.91533">
        <ele>866.1</ele>
        <time>2022-11-02T13:57:26Z</time>
      </trkpt>
      <trkpt lat="47.87628" lon="6.91534">
        <ele>866.6</ele>
        <time>2022-11-02T13:57:27Z</time>
      </trkpt>
      <trkpt lat="47.87627" lon="6.91535">
        <ele>867.2</ele>
        <time>2022-11-02T13:57:28Z</time>
      </trkpt>
      <trkpt lat="47.87627" lon="6.91536">
        <ele>866.9</ele>
        <time>2022-11-02T13:57:29Z</time>
      </trkpt>
      <trkpt lat="47.87626" lon="6.91538">
        <ele>867.1</ele>
        <time>2022-11-02T13:57:30Z</time>
      </trkpt>
      <trkpt lat="47.87625" lon="6.91539">
        <ele>867.6</ele>
        <time>2022-11-02T13:57:31Z</time>
      </trkpt>
      <trkpt lat="47.87625" lon="6.91541">
        <ele>867</ele>
        <time>2022-11-02T13:57:32Z</time>
      </trkpt>
      <trkpt lat="47.87624" lon="6.91542">
        <ele>867.4</ele>
        <time>2022-11-02T13:57:33Z</time>
      </trkpt>
      <trkpt lat="47.87624" lon="6.91543">
        <ele>867.1</ele>
        <time>2022-11-02T13:57:34Z</time>
      </trkpt>
      <trkpt lat="47.87623" lon="6.91545">
        <ele>867.2</ele>
        <time>2022-11-02T13:57:35Z</time>
      </trkpt>
      <trkpt lat="47.87623" lon="6.91546">
        <ele>866.9</ele>
        <time>2022-11-02T13:57:36Z</time>
      </trkpt>
      <trkpt lat="47.87623" lon="6.91547">
        <ele>866.6</ele>
        <time>2022-11-02T13:57:37Z</time>
      </trkpt>
      <trkpt lat="47.87622" lon="6.91548">
        <ele>867</ele>
        <time>2022-11-02T13:57:38Z</time>
      </trkpt>
      <trkpt lat="47.87622" lon="6.91549">
        <ele>866.7</ele>
        <time>2022-11-02T13:57:39Z</time>
      </trkpt>
      <trkpt lat="47.87622" lon="6.9155">
        <ele>866.4</ele>
        <time>2022-11-02T13:57:40Z</time>
      </trkpt>
      <trkpt lat="47.87622" lon="6.91551">
        <ele>866</ele>
        <time>2022-11-02T13:57:41Z</time>
      </trkpt>
      <trkpt lat="47.87621" lon="6.91552">
        <ele>866.4</ele>
        <time>2022-11-02T13:57:42Z</time>
      </trkpt>
      <trkpt lat="47.87621" lon="6.91553">
        <ele>866.1</ele>
        <time>2022-11-02T13:57:43Z</time>
      </trkpt>
      <trkpt lat="47.87621" lon="6.91554">
        <ele>865.8</ele>
        <time>2022-11-02T13:57:44Z</time>
      </trkpt>
      <trkpt lat="47.87621" lon="6.91555">
        <ele>865.4</ele>
        <time>2022-11-02T13:57:45Z</time>
      </trkpt>
      <trkpt lat="47.8762" lon="6.91556">
        <ele>865.9</ele>
        <time>2022-11-02T13:57:46Z</time>
      </trkpt>
      <trkpt lat="47.8762" lon="6.91557">
        <ele>865.8</ele>
        <time>2022-11-02T13:57:47Z</time>
      </trkpt>
      <trkpt lat="47.8762" lon="6.91559">
        <ele>865.7</ele>
        <time>2022-11-02T13:57:48Z</time>
      </trkpt>
      <trkpt lat="47.8762" lon="6.9156">
        <ele>865.6</ele>
        <time>2022-11-02T13:57:49Z</time>
      </trkpt>
      <trkpt lat="47.8762" lon="6.91561">
        <ele>865.5</ele>
        <time>2022-11-02T13:57:50Z</time>
      </trkpt>
      <trkpt lat="47.8762" lon="6.91562">
        <ele>865.5</ele>
        <time>2022-11-02T13:57:51Z</time>
      </trkpt>
      <trkpt lat="47.87619" lon="6.91563">
        <ele>866.1</ele>
        <time>2022-11-02T13:57:52Z</time>
      </trkpt>
      <trkpt lat="47.87619" lon="6.91564">
        <ele>866</ele>
        <time>2022-11-02T13:57:53Z</time>
      </trkpt>
      <trkpt lat="47.87619" lon="6.91566">
        <ele>865.9</ele>
        <time>2022-11-02T13:57:54Z</time>
      </trkpt>
      <trkpt lat="47.87619" lon="6.91567">
        <ele>865.8</ele>
        <time>2022-11-02T13:57:55Z</time>
      </trkpt>
      <trkpt lat="47.87618" lon="6.91568">
        <ele>866.4</ele>
        <time>2022-11-02T13:57:56Z</time>
      </trkpt>
      <trkpt lat="47.87618" lon="6.91569">
        <ele>866.3</ele>
        <time>2022-11-02T13:57:57Z</time>
      </trkpt>
      <trkpt lat="47.87617" lon="6.9157">
        <ele>866.9</ele>
        <time>2022-11-02T13:57:58Z</time>
      </trkpt>
      <trkpt lat="47.87616" lon="6.91571">
        <ele>867.5</ele>
        <time>2022-11-02T13:57:59Z</time>
      </trkpt>
      <trkpt lat="47.87616" lon="6.91572">
        <ele>867.5</ele>
        <time>2022-11-02T13:58:00Z</time>
      </trkpt>
      <trkpt lat="47.87615" lon="6.91573">
        <ele>868.1</ele>
        <time>2022-11-02T13:58:01Z</time>
      </trkpt>
      <trkpt lat="47.87615" lon="6.91575">
        <ele>867.9</ele>
        <time>2022-11-02T13:58:02Z</time>
      </trkpt>
      <trkpt lat="47.87614" lon="6.91576">
        <ele>868.6</ele>
        <time>2022-11-02T13:58:03Z</time>
      </trkpt>
      <trkpt lat="47.87614" lon="6.91577">
        <ele>868.5</ele>
        <time>2022-11-02T13:58:04Z</time>
      </trkpt>
      <trkpt lat="47.87614" lon="6.91578">
        <ele>868.4</ele>
        <time>2022-11-02T13:58:05Z</time>
      </trkpt>
      <trkpt lat="47.87613" lon="6.91579">
        <ele>869</ele>
        <time>2022-11-02T13:58:06Z</time>
      </trkpt>
      <trkpt lat="47.87612" lon="6.9158">
        <ele>869.6</ele>
        <time>2022-11-02T13:58:08Z</time>
      </trkpt>
      <trkpt lat="47.87612" lon="6.91581">
        <ele>869.6</ele>
        <time>2022-11-02T13:58:09Z</time>
      </trkpt>
      <trkpt lat="47.87611" lon="6.91582">
        <ele>870.2</ele>
        <time>2022-11-02T13:58:10Z</time>
      </trkpt>
      <trkpt lat="47.87611" lon="6.91583">
        <ele>870.1</ele>
        <time>2022-11-02T13:58:11Z</time>
      </trkpt>
      <trkpt lat="47.8761" lon="6.91584">
        <ele>870.7</ele>
        <time>2022-11-02T13:58:12Z</time>
      </trkpt>
      <trkpt lat="47.8761" lon="6.91586">
        <ele>870.9</ele>
        <time>2022-11-02T13:58:14Z</time>
      </trkpt>
      <trkpt lat="47.8761" lon="6.91587">
        <ele>871.1</ele>
        <time>2022-11-02T13:58:15Z</time>
      </trkpt>
      <trkpt lat="47.8761" lon="6.91588">
        <ele>871.2</ele>
        <time>2022-11-02T13:58:16Z</time>
      </trkpt>
      <trkpt lat="47.8761" lon="6.91589">
        <ele>871.3</ele>
        <time>2022-11-02T13:58:17Z</time>
      </trkpt>
      <trkpt lat="47.8761" lon="6.9159">
        <ele>871.5</ele>
        <time>2022-11-02T13:58:18Z</time>
      </trkpt>
      <trkpt lat="47.8761" lon="6.91592">
        <ele>871.7</ele>
        <time>2022-11-02T13:58:19Z</time>
      </trkpt>
      <trkpt lat="47.8761" lon="6.91594">
        <ele>872</ele>
        <time>2022-11-02T13:58:20Z</time>
      </trkpt>
      <trkpt lat="47.8761" lon="6.91595">
        <ele>872.1</ele>
        <time>2022-11-02T13:58:21Z</time>
      </trkpt>
      <trkpt lat="47.8761" lon="6.91597">
        <ele>872.4</ele>
        <time>2022-11-02T13:58:22Z</time>
      </trkpt>
      <trkpt lat="47.8761" lon="6.91599">
        <ele>872.7</ele>
        <time>2022-11-02T13:58:23Z</time>
      </trkpt>
      <trkpt lat="47.87611" lon="6.916">
        <ele>872.4</ele>
        <time>2022-11-02T13:58:24Z</time>
      </trkpt>
      <trkpt lat="47.87611" lon="6.91602">
        <ele>872.7</ele>
        <time>2022-11-02T13:58:25Z</time>
      </trkpt>
      <trkpt lat="47.87611" lon="6.91603">
        <ele>872.9</ele>
        <time>2022-11-02T13:58:26Z</time>
      </trkpt>
      <trkpt lat="47.8761" lon="6.91605">
        <ele>873.5</ele>
        <time>2022-11-02T13:58:27Z</time>
      </trkpt>
      <trkpt lat="47.8761" lon="6.91606">
        <ele>873.6</ele>
        <time>2022-11-02T13:58:28Z</time>
      </trkpt>
      <trkpt lat="47.8761" lon="6.91607">
        <ele>873.8</ele>
        <time>2022-11-02T13:58:29Z</time>
      </trkpt>
      <trkpt lat="47.8761" lon="6.91609">
        <ele>874</ele>
        <time>2022-11-02T13:58:30Z</time>
      </trkpt>
      <trkpt lat="47.8761" lon="6.91611">
        <ele>874.3</ele>
        <time>2022-11-02T13:58:31Z</time>
      </trkpt>
      <trkpt lat="47.8761" lon="6.91613">
        <ele>874.7</ele>
        <time>2022-11-02T13:58:32Z</time>
      </trkpt>
      <trkpt lat="47.8761" lon="6.91614">
        <ele>874.8</ele>
        <time>2022-11-02T13:58:33Z</time>
      </trkpt>
      <trkpt lat="47.8761" lon="6.91616">
        <ele>875.2</ele>
        <time>2022-11-02T13:58:34Z</time>
      </trkpt>
      <trkpt lat="47.8761" lon="6.91617">
        <ele>875.4</ele>
        <time>2022-11-02T13:58:35Z</time>
      </trkpt>
      <trkpt lat="47.8761" lon="6.91619">
        <ele>875.7</ele>
        <time>2022-11-02T13:58:36Z</time>
      </trkpt>
      <trkpt lat="47.8761" lon="6.9162">
        <ele>875.9</ele>
        <time>2022-11-02T13:58:37Z</time>
      </trkpt>
      <trkpt lat="47.8761" lon="6.91621">
        <ele>876.1</ele>
        <time>2022-11-02T13:58:38Z</time>
      </trkpt>
      <trkpt lat="47.8761" lon="6.91622">
        <ele>876.2</ele>
        <time>2022-11-02T13:58:39Z</time>
      </trkpt>
      <trkpt lat="47.87611" lon="6.91623">
        <ele>876.2</ele>
        <time>2022-11-02T13:58:40Z</time>
      </trkpt>
      <trkpt lat="47.87611" lon="6.91624">
        <ele>876.3</ele>
        <time>2022-11-02T13:58:41Z</time>
      </trkpt>
      <trkpt lat="47.87611" lon="6.91626">
        <ele>876.7</ele>
        <time>2022-11-02T13:58:42Z</time>
      </trkpt>
      <trkpt lat="47.87612" lon="6.91627">
        <ele>876.5</ele>
        <time>2022-11-02T13:58:43Z</time>
      </trkpt>
      <trkpt lat="47.87612" lon="6.91628">
        <ele>876.7</ele>
        <time>2022-11-02T13:58:44Z</time>
      </trkpt>
      <trkpt lat="47.87612" lon="6.91629">
        <ele>876.9</ele>
        <time>2022-11-02T13:58:45Z</time>
      </trkpt>
      <trkpt lat="47.87613" lon="6.9163">
        <ele>876.7</ele>
        <time>2022-11-02T13:58:46Z</time>
      </trkpt>
      <trkpt lat="47.87613" lon="6.91631">
        <ele>876.9</ele>
        <time>2022-11-02T13:58:47Z</time>
      </trkpt>
      <trkpt lat="47.87613" lon="6.91632">
        <ele>877.1</ele>
        <time>2022-11-02T13:58:48Z</time>
      </trkpt>
      <trkpt lat="47.87613" lon="6.91633">
        <ele>877.3</ele>
        <time>2022-11-02T13:58:59Z</time>
      </trkpt>
      <trkpt lat="47.87613" lon="6.91634">
        <ele>877.4</ele>
        <time>2022-11-02T13:59:00Z</time>
      </trkpt>
      <trkpt lat="47.87613" lon="6.91635">
        <ele>877.6</ele>
        <time>2022-11-02T13:59:01Z</time>
      </trkpt>
      <trkpt lat="47.87613" lon="6.91636">
        <ele>877.8</ele>
        <time>2022-11-02T13:59:02Z</time>
      </trkpt>
      <trkpt lat="47.87613" lon="6.91637">
        <ele>878</ele>
        <time>2022-11-02T13:59:03Z</time>
      </trkpt>
      <trkpt lat="47.87613" lon="6.91638">
        <ele>878.2</ele>
        <time>2022-11-02T13:59:04Z</time>
      </trkpt>
      <trkpt lat="47.87613" lon="6.91639">
        <ele>878.4</ele>
        <time>2022-11-02T13:59:05Z</time>
      </trkpt>
      <trkpt lat="47.87613" lon="6.9164">
        <ele>878.5</ele>
        <time>2022-11-02T13:59:06Z</time>
      </trkpt>
      <trkpt lat="47.87613" lon="6.91642">
        <ele>878.6</ele>
        <time>2022-11-02T13:59:07Z</time>
      </trkpt>
      <trkpt lat="47.87613" lon="6.91643">
        <ele>878.7</ele>
        <time>2022-11-02T13:59:08Z</time>
      </trkpt>
      <trkpt lat="47.87612" lon="6.91643">
        <ele>879</ele>
        <time>2022-11-02T13:59:09Z</time>
      </trkpt>
      <trkpt lat="47.87612" lon="6.91645">
        <ele>879.1</ele>
        <time>2022-11-02T13:59:10Z</time>
      </trkpt>
      <trkpt lat="47.87612" lon="6.91646">
        <ele>879.2</ele>
        <time>2022-11-02T13:59:11Z</time>
      </trkpt>
      <trkpt lat="47.87612" lon="6.91647">
        <ele>879.3</ele>
        <time>2022-11-02T13:59:12Z</time>
      </trkpt>
      <trkpt lat="47.87612" lon="6.91649">
        <ele>879.4</ele>
        <time>2022-11-02T13:59:13Z</time>
      </trkpt>
      <trkpt lat="47.87612" lon="6.9165">
        <ele>879.5</ele>
        <time>2022-11-02T13:59:14Z</time>
      </trkpt>
      <trkpt lat="47.87612" lon="6.91651">
        <ele>879.6</ele>
        <time>2022-11-02T13:59:15Z</time>
      </trkpt>
      <trkpt lat="47.87612" lon="6.91652">
        <ele>879.6</ele>
        <time>2022-11-02T13:59:16Z</time>
      </trkpt>
      <trkpt lat="47.87612" lon="6.91653">
        <ele>879.7</ele>
        <time>2022-11-02T13:59:17Z</time>
      </trkpt>
      <trkpt lat="47.87612" lon="6.91655">
        <ele>879.8</ele>
        <time>2022-11-02T13:59:18Z</time>
      </trkpt>
      <trkpt lat="47.87613" lon="6.91656">
        <ele>879.5</ele>
        <time>2022-11-02T13:59:19Z</time>
      </trkpt>
      <trkpt lat="47.87613" lon="6.91657">
        <ele>879.6</ele>
        <time>2022-11-02T13:59:20Z</time>
      </trkpt>
      <trkpt lat="47.87613" lon="6.91658">
        <ele>879.7</ele>
        <time>2022-11-02T13:59:21Z</time>
      </trkpt>
      <trkpt lat="47.87613" lon="6.91659">
        <ele>879.7</ele>
        <time>2022-11-02T13:59:22Z</time>
      </trkpt>
      <trkpt lat="47.87613" lon="6.9166">
        <ele>879.8</ele>
        <time>2022-11-02T13:59:23Z</time>
      </trkpt>
      <trkpt lat="47.87613" lon="6.91661">
        <ele>879.9</ele>
        <time>2022-11-02T13:59:24Z</time>
      </trkpt>
      <trkpt lat="47.87613" lon="6.91662">
        <ele>879.9</ele>
        <time>2022-11-02T13:59:25Z</time>
      </trkpt>
      <trkpt lat="47.87613" lon="6.91664">
        <ele>880.1</ele>
        <time>2022-11-02T13:59:26Z</time>
      </trkpt>
      <trkpt lat="47.87613" lon="6.91666">
        <ele>880.2</ele>
        <time>2022-11-02T13:59:27Z</time>
      </trkpt>
      <trkpt lat="47.87614" lon="6.91667">
        <ele>879.8</ele>
        <time>2022-11-02T13:59:28Z</time>
      </trkpt>
      <trkpt lat="47.87614" lon="6.91669">
        <ele>879.5</ele>
        <time>2022-11-02T13:59:29Z</time>
      </trkpt>
      <trkpt lat="47.87614" lon="6.9167">
        <ele>879.4</ele>
        <time>2022-11-02T13:59:30Z</time>
      </trkpt>
      <trkpt lat="47.87615" lon="6.91671">
        <ele>878.8</ele>
        <time>2022-11-02T13:59:31Z</time>
      </trkpt>
      <trkpt lat="47.87616" lon="6.91672">
        <ele>878.2</ele>
        <time>2022-11-02T13:59:33Z</time>
      </trkpt>
      <trkpt lat="47.87616" lon="6.91671">
        <ele>878.3</ele>
        <time>2022-11-02T13:59:37Z</time>
      </trkpt>
      <trkpt lat="47.87616" lon="6.9167">
        <ele>878.5</ele>
        <time>2022-11-02T13:59:39Z</time>
      </trkpt>
      <trkpt lat="47.87616" lon="6.91669">
        <ele>878.7</ele>
        <time>2022-11-02T13:59:41Z</time>
      </trkpt>
      <trkpt lat="47.87616" lon="6.91668">
        <ele>878.8</ele>
        <time>2022-11-02T13:59:43Z</time>
      </trkpt>
      <trkpt lat="47.87616" lon="6.91667">
        <ele>879</ele>
        <time>2022-11-02T13:59:44Z</time>
      </trkpt>
      <trkpt lat="47.87616" lon="6.91666">
        <ele>879</ele>
        <time>2022-11-02T13:59:45Z</time>
      </trkpt>
      <trkpt lat="47.87616" lon="6.91665">
        <ele>879</ele>
        <time>2022-11-02T14:00:10Z</time>
      </trkpt>
      <trkpt lat="47.87617" lon="6.91664">
        <ele>878.5</ele>
        <time>2022-11-02T14:00:12Z</time>
      </trkpt>
      <trkpt lat="47.87618" lon="6.91664">
        <ele>878.1</ele>
        <time>2022-11-02T14:00:14Z</time>
      </trkpt>
      <trkpt lat="47.87618" lon="6.91665">
        <ele>878.2</ele>
        <time>2022-11-02T14:00:15Z</time>
      </trkpt>
      <trkpt lat="47.87619" lon="6.91666">
        <ele>877.8</ele>
        <time>2022-11-02T14:00:17Z</time>
      </trkpt>
      <trkpt lat="47.8762" lon="6.91667">
        <ele>877.4</ele>
        <time>2022-11-02T14:00:19Z</time>
      </trkpt>
      <trkpt lat="47.87621" lon="6.91668">
        <ele>876.8</ele>
        <time>2022-11-02T14:00:20Z</time>
      </trkpt>
      <trkpt lat="47.87622" lon="6.91669">
        <ele>876.1</ele>
        <time>2022-11-02T14:00:21Z</time>
      </trkpt>
      <trkpt lat="47.87622" lon="6.91671">
        <ele>875.7</ele>
        <time>2022-11-02T14:00:41Z</time>
      </trkpt>
      <trkpt lat="47.87622" lon="6.91672">
        <ele>875.4</ele>
        <time>2022-11-02T14:00:42Z</time>
      </trkpt>
      <trkpt lat="47.87622" lon="6.91673">
        <ele>875.2</ele>
        <time>2022-11-02T14:00:43Z</time>
      </trkpt>
      <trkpt lat="47.87621" lon="6.91675">
        <ele>875.2</ele>
        <time>2022-11-02T14:00:51Z</time>
      </trkpt>
      <trkpt lat="47.87621" lon="6.91676">
        <ele>875</ele>
        <time>2022-11-02T14:00:52Z</time>
      </trkpt>
      <trkpt lat="47.8762" lon="6.91677">
        <ele>875.3</ele>
        <time>2022-11-02T14:00:54Z</time>
      </trkpt>
      <trkpt lat="47.87619" lon="6.91677">
        <ele>875.8</ele>
        <time>2022-11-02T14:00:55Z</time>
      </trkpt>
      <trkpt lat="47.87618" lon="6.91677">
        <ele>876.3</ele>
        <time>2022-11-02T14:00:56Z</time>
      </trkpt>
      <trkpt lat="47.87618" lon="6.91678">
        <ele>876.1</ele>
        <time>2022-11-02T14:00:57Z</time>
      </trkpt>
      <trkpt lat="47.87616" lon="6.91678">
        <ele>877.2</ele>
        <time>2022-11-02T14:01:03Z</time>
      </trkpt>
      <trkpt lat="47.87615" lon="6.91679">
        <ele>877.6</ele>
        <time>2022-11-02T14:01:04Z</time>
      </trkpt>
      <trkpt lat="47.87614" lon="6.91679">
        <ele>878.1</ele>
        <time>2022-11-02T14:01:05Z</time>
      </trkpt>
      <trkpt lat="47.87613" lon="6.9168">
        <ele>878.5</ele>
        <time>2022-11-02T14:01:06Z</time>
      </trkpt>
      <trkpt lat="47.87613" lon="6.91681">
        <ele>878.4</ele>
        <time>2022-11-02T14:01:07Z</time>
      </trkpt>
      <trkpt lat="47.87609" lon="6.91682">
        <ele>880</ele>
        <time>2022-11-02T14:02:30Z</time>
      </trkpt>
      <trkpt lat="47.87607" lon="6.91682">
        <ele>880.7</ele>
        <time>2022-11-02T14:02:31Z</time>
      </trkpt>
      <trkpt lat="47.87606" lon="6.91682">
        <ele>881</ele>
        <time>2022-11-02T14:02:32Z</time>
      </trkpt>
      <trkpt lat="47.87604" lon="6.91682">
        <ele>881.7</ele>
        <time>2022-11-02T14:02:33Z</time>
      </trkpt>
      <trkpt lat="47.87603" lon="6.91682">
        <ele>882</ele>
        <time>2022-11-02T14:02:34Z</time>
      </trkpt>
      <trkpt lat="47.87603" lon="6.91681">
        <ele>882.1</ele>
        <time>2022-11-02T14:03:14Z</time>
      </trkpt>
      <trkpt lat="47.87602" lon="6.9168">
        <ele>882.5</ele>
        <time>2022-11-02T14:03:15Z</time>
      </trkpt>
      <trkpt lat="47.87602" lon="6.91679">
        <ele>882.5</ele>
        <time>2022-11-02T14:03:16Z</time>
      </trkpt>
      <trkpt lat="47.87602" lon="6.91678">
        <ele>882.6</ele>
        <time>2022-11-02T14:03:18Z</time>
      </trkpt>
      <trkpt lat="47.87603" lon="6.91677">
        <ele>882.4</ele>
        <time>2022-11-02T14:03:19Z</time>
      </trkpt>
      <trkpt lat="47.87603" lon="6.91676">
        <ele>882.4</ele>
        <time>2022-11-02T14:03:20Z</time>
      </trkpt>
      <trkpt lat="47.87604" lon="6.91675">
        <ele>882.2</ele>
        <time>2022-11-02T14:03:21Z</time>
      </trkpt>
      <trkpt lat="47.87604" lon="6.91673">
        <ele>882.3</ele>
        <time>2022-11-02T14:03:22Z</time>
      </trkpt>
      <trkpt lat="47.87605" lon="6.91672">
        <ele>882.1</ele>
        <time>2022-11-02T14:03:23Z</time>
      </trkpt>
      <trkpt lat="47.87605" lon="6.9167">
        <ele>882.3</ele>
        <time>2022-11-02T14:03:24Z</time>
      </trkpt>
      <trkpt lat="47.87605" lon="6.91669">
        <ele>882.4</ele>
        <time>2022-11-02T14:03:25Z</time>
      </trkpt>
      <trkpt lat="47.87605" lon="6.91667">
        <ele>882.5</ele>
        <time>2022-11-02T14:03:26Z</time>
      </trkpt>
      <trkpt lat="47.87605" lon="6.91666">
        <ele>882.5</ele>
        <time>2022-11-02T14:03:27Z</time>
      </trkpt>
      <trkpt lat="47.87605" lon="6.91665">
        <ele>882.4</ele>
        <time>2022-11-02T14:03:28Z</time>
      </trkpt>
      <trkpt lat="47.87604" lon="6.91663">
        <ele>882.5</ele>
        <time>2022-11-02T14:03:29Z</time>
      </trkpt>
      <trkpt lat="47.87604" lon="6.91662">
        <ele>882.4</ele>
        <time>2022-11-02T14:03:30Z</time>
      </trkpt>
      <trkpt lat="47.87603" lon="6.9166">
        <ele>882.5</ele>
        <time>2022-11-02T14:03:31Z</time>
      </trkpt>
      <trkpt lat="47.87603" lon="6.91659">
        <ele>882.4</ele>
        <time>2022-11-02T14:03:32Z</time>
      </trkpt>
      <trkpt lat="47.87603" lon="6.91657">
        <ele>882.2</ele>
        <time>2022-11-02T14:03:33Z</time>
      </trkpt>
      <trkpt lat="47.87602" lon="6.91655">
        <ele>882.3</ele>
        <time>2022-11-02T14:03:34Z</time>
      </trkpt>
      <trkpt lat="47.87602" lon="6.91654">
        <ele>882.2</ele>
        <time>2022-11-02T14:03:35Z</time>
      </trkpt>
      <trkpt lat="47.87602" lon="6.91652">
        <ele>882.1</ele>
        <time>2022-11-02T14:03:36Z</time>
      </trkpt>
      <trkpt lat="47.87601" lon="6.9165">
        <ele>882.1</ele>
        <time>2022-11-02T14:03:37Z</time>
      </trkpt>
      <trkpt lat="47.87601" lon="6.91649">
        <ele>882</ele>
        <time>2022-11-02T14:03:38Z</time>
      </trkpt>
      <trkpt lat="47.87601" lon="6.91647">
        <ele>881.9</ele>
        <time>2022-11-02T14:03:39Z</time>
      </trkpt>
      <trkpt lat="47.87601" lon="6.91645">
        <ele>881.7</ele>
        <time>2022-11-02T14:03:40Z</time>
      </trkpt>
      <trkpt lat="47.87601" lon="6.91644">
        <ele>881.6</ele>
        <time>2022-11-02T14:03:41Z</time>
      </trkpt>
      <trkpt lat="47.87601" lon="6.91642">
        <ele>881.4</ele>
        <time>2022-11-02T14:03:42Z</time>
      </trkpt>
      <trkpt lat="47.87601" lon="6.9164">
        <ele>881.3</ele>
        <time>2022-11-02T14:03:43Z</time>
      </trkpt>
      <trkpt lat="47.87601" lon="6.91639">
        <ele>881.2</ele>
        <time>2022-11-02T14:03:44Z</time>
      </trkpt>
      <trkpt lat="47.87601" lon="6.91637">
        <ele>880.9</ele>
        <time>2022-11-02T14:03:45Z</time>
      </trkpt>
      <trkpt lat="47.87601" lon="6.91636">
        <ele>880.7</ele>
        <time>2022-11-02T14:03:46Z</time>
      </trkpt>
      <trkpt lat="47.87601" lon="6.91635">
        <ele>880.6</ele>
        <time>2022-11-02T14:03:47Z</time>
      </trkpt>
      <trkpt lat="47.87601" lon="6.91633">
        <ele>880.3</ele>
        <time>2022-11-02T14:03:48Z</time>
      </trkpt>
      <trkpt lat="47.87601" lon="6.91632">
        <ele>880.1</ele>
        <time>2022-11-02T14:03:49Z</time>
      </trkpt>
      <trkpt lat="47.87601" lon="6.91631">
        <ele>880</ele>
        <time>2022-11-02T14:03:50Z</time>
      </trkpt>
      <trkpt lat="47.87602" lon="6.91629">
        <ele>879.4</ele>
        <time>2022-11-02T14:03:51Z</time>
      </trkpt>
      <trkpt lat="47.87603" lon="6.91628">
        <ele>879</ele>
        <time>2022-11-02T14:03:52Z</time>
      </trkpt>
      <trkpt lat="47.87603" lon="6.91626">
        <ele>878.7</ele>
        <time>2022-11-02T14:03:53Z</time>
      </trkpt>
      <trkpt lat="47.87603" lon="6.91625">
        <ele>878.5</ele>
        <time>2022-11-02T14:03:54Z</time>
      </trkpt>
      <trkpt lat="47.87603" lon="6.91623">
        <ele>878.2</ele>
        <time>2022-11-02T14:03:55Z</time>
      </trkpt>
      <trkpt lat="47.87603" lon="6.91621">
        <ele>877.9</ele>
        <time>2022-11-02T14:03:56Z</time>
      </trkpt>
      <trkpt lat="47.87603" lon="6.9162">
        <ele>877.7</ele>
        <time>2022-11-02T14:03:57Z</time>
      </trkpt>
      <trkpt lat="47.87603" lon="6.91619">
        <ele>877.6</ele>
        <time>2022-11-02T14:03:58Z</time>
      </trkpt>
      <trkpt lat="47.87603" lon="6.91617">
        <ele>877.3</ele>
        <time>2022-11-02T14:03:59Z</time>
      </trkpt>
      <trkpt lat="47.87603" lon="6.91616">
        <ele>877.1</ele>
        <time>2022-11-02T14:04:00Z</time>
      </trkpt>
      <trkpt lat="47.87603" lon="6.91615">
        <ele>877</ele>
        <time>2022-11-02T14:04:01Z</time>
      </trkpt>
      <trkpt lat="47.87604" lon="6.91613">
        <ele>876.4</ele>
        <time>2022-11-02T14:04:02Z</time>
      </trkpt>
      <trkpt lat="47.87604" lon="6.91611">
        <ele>876</ele>
        <time>2022-11-02T14:04:03Z</time>
      </trkpt>
      <trkpt lat="47.87605" lon="6.9161">
        <ele>875.7</ele>
        <time>2022-11-02T14:04:04Z</time>
      </trkpt>
      <trkpt lat="47.87605" lon="6.91607">
        <ele>875.4</ele>
        <time>2022-11-02T14:04:05Z</time>
      </trkpt>
      <trkpt lat="47.87605" lon="6.91605">
        <ele>875.2</ele>
        <time>2022-11-02T14:04:06Z</time>
      </trkpt>
      <trkpt lat="47.87605" lon="6.91603">
        <ele>875</ele>
        <time>2022-11-02T14:04:07Z</time>
      </trkpt>
      <trkpt lat="47.87606" lon="6.91601">
        <ele>874.4</ele>
        <time>2022-11-02T14:04:08Z</time>
      </trkpt>
      <trkpt lat="47.87606" lon="6.91599">
        <ele>874.2</ele>
        <time>2022-11-02T14:04:09Z</time>
      </trkpt>
      <trkpt lat="47.87605" lon="6.91597">
        <ele>874.4</ele>
        <time>2022-11-02T14:04:10Z</time>
      </trkpt>
      <trkpt lat="47.87606" lon="6.91595">
        <ele>873.8</ele>
        <time>2022-11-02T14:04:11Z</time>
      </trkpt>
      <trkpt lat="47.87606" lon="6.91593">
        <ele>873.6</ele>
        <time>2022-11-02T14:04:12Z</time>
      </trkpt>
      <trkpt lat="47.87606" lon="6.91591">
        <ele>873.4</ele>
        <time>2022-11-02T14:04:13Z</time>
      </trkpt>
      <trkpt lat="47.87606" lon="6.9159">
        <ele>873.3</ele>
        <time>2022-11-02T14:04:14Z</time>
      </trkpt>
      <trkpt lat="47.87606" lon="6.91588">
        <ele>873.1</ele>
        <time>2022-11-02T14:04:15Z</time>
      </trkpt>
      <trkpt lat="47.87606" lon="6.91586">
        <ele>872.9</ele>
        <time>2022-11-02T14:04:16Z</time>
      </trkpt>
      <trkpt lat="47.87607" lon="6.91585">
        <ele>872.3</ele>
        <time>2022-11-02T14:04:17Z</time>
      </trkpt>
      <trkpt lat="47.87607" lon="6.91583">
        <ele>872.1</ele>
        <time>2022-11-02T14:04:18Z</time>
      </trkpt>
      <trkpt lat="47.87607" lon="6.91582">
        <ele>872.2</ele>
        <time>2022-11-02T14:04:19Z</time>
      </trkpt>
      <trkpt lat="47.87608" lon="6.91581">
        <ele>871.8</ele>
        <time>2022-11-02T14:04:20Z</time>
      </trkpt>
      <trkpt lat="47.87608" lon="6.9158">
        <ele>871.9</ele>
        <time>2022-11-02T14:04:21Z</time>
      </trkpt>
      <trkpt lat="47.87609" lon="6.91578">
        <ele>871.5</ele>
        <time>2022-11-02T14:04:22Z</time>
      </trkpt>
      <trkpt lat="47.87609" lon="6.91577">
        <ele>871.6</ele>
        <time>2022-11-02T14:04:23Z</time>
      </trkpt>
      <trkpt lat="47.8761" lon="6.91576">
        <ele>871.1</ele>
        <time>2022-11-02T14:04:24Z</time>
      </trkpt>
      <trkpt lat="47.8761" lon="6.91575">
        <ele>871.2</ele>
        <time>2022-11-02T14:04:25Z</time>
      </trkpt>
      <trkpt lat="47.87611" lon="6.91574">
        <ele>870.7</ele>
        <time>2022-11-02T14:04:26Z</time>
      </trkpt>
      <trkpt lat="47.87611" lon="6.91572">
        <ele>870.9</ele>
        <time>2022-11-02T14:04:27Z</time>
      </trkpt>
      <trkpt lat="47.87611" lon="6.91571">
        <ele>871</ele>
        <time>2022-11-02T14:04:28Z</time>
      </trkpt>
      <trkpt lat="47.87612" lon="6.9157">
        <ele>870.4</ele>
        <time>2022-11-02T14:04:29Z</time>
      </trkpt>
      <trkpt lat="47.87612" lon="6.91568">
        <ele>870.5</ele>
        <time>2022-11-02T14:04:30Z</time>
      </trkpt>
      <trkpt lat="47.87612" lon="6.91567">
        <ele>870.6</ele>
        <time>2022-11-02T14:04:31Z</time>
      </trkpt>
      <trkpt lat="47.87611" lon="6.91566">
        <ele>871.3</ele>
        <time>2022-11-02T14:04:32Z</time>
      </trkpt>
      <trkpt lat="47.87612" lon="6.91564">
        <ele>870.8</ele>
        <time>2022-11-02T14:04:33Z</time>
      </trkpt>
      <trkpt lat="47.87612" lon="6.91563">
        <ele>870.9</ele>
        <time>2022-11-02T14:04:34Z</time>
      </trkpt>
      <trkpt lat="47.87612" lon="6.91562">
        <ele>870.9</ele>
        <time>2022-11-02T14:04:35Z</time>
      </trkpt>
      <trkpt lat="47.87613" lon="6.91561">
        <ele>870.3</ele>
        <time>2022-11-02T14:04:36Z</time>
      </trkpt>
      <trkpt lat="47.87613" lon="6.91559">
        <ele>870.5</ele>
        <time>2022-11-02T14:04:37Z</time>
      </trkpt>
      <trkpt lat="47.87613" lon="6.91558">
        <ele>870.5</ele>
        <time>2022-11-02T14:04:38Z</time>
      </trkpt>
      <trkpt lat="47.87614" lon="6.91557">
        <ele>869.9</ele>
        <time>2022-11-02T14:04:39Z</time>
      </trkpt>
      <trkpt lat="47.87614" lon="6.91556">
        <ele>870</ele>
        <time>2022-11-02T14:04:40Z</time>
      </trkpt>
      <trkpt lat="47.87615" lon="6.91555">
        <ele>869.5</ele>
        <time>2022-11-02T14:04:41Z</time>
      </trkpt>
      <trkpt lat="47.87616" lon="6.91554">
        <ele>869.2</ele>
        <time>2022-11-02T14:04:42Z</time>
      </trkpt>
      <trkpt lat="47.87616" lon="6.91553">
        <ele>869.6</ele>
        <time>2022-11-02T14:04:43Z</time>
      </trkpt>
      <trkpt lat="47.87616" lon="6.91552">
        <ele>870</ele>
        <time>2022-11-02T14:04:44Z</time>
      </trkpt>
      <trkpt lat="47.87616" lon="6.9155">
        <ele>870.7</ele>
        <time>2022-11-02T14:04:45Z</time>
      </trkpt>
      <trkpt lat="47.87616" lon="6.91549">
        <ele>871</ele>
        <time>2022-11-02T14:04:46Z</time>
      </trkpt>
      <trkpt lat="47.87616" lon="6.91547">
        <ele>871.8</ele>
        <time>2022-11-02T14:04:47Z</time>
      </trkpt>
      <trkpt lat="47.87616" lon="6.91545">
        <ele>872.5</ele>
        <time>2022-11-02T14:04:48Z</time>
      </trkpt>
      <trkpt lat="47.87616" lon="6.91543">
        <ele>873.2</ele>
        <time>2022-11-02T14:04:49Z</time>
      </trkpt>
      <trkpt lat="47.87616" lon="6.91541">
        <ele>874</ele>
        <time>2022-11-02T14:04:50Z</time>
      </trkpt>
      <trkpt lat="47.87616" lon="6.9154">
        <ele>874.3</ele>
        <time>2022-11-02T14:04:51Z</time>
      </trkpt>
      <trkpt lat="47.87616" lon="6.91538">
        <ele>875.1</ele>
        <time>2022-11-02T14:04:52Z</time>
      </trkpt>
      <trkpt lat="47.87616" lon="6.91536">
        <ele>875.8</ele>
        <time>2022-11-02T14:04:53Z</time>
      </trkpt>
      <trkpt lat="47.87617" lon="6.91535">
        <ele>875.3</ele>
        <time>2022-11-02T14:04:54Z</time>
      </trkpt>
      <trkpt lat="47.87618" lon="6.91534">
        <ele>874.9</ele>
        <time>2022-11-02T14:04:55Z</time>
      </trkpt>
      <trkpt lat="47.87618" lon="6.91533">
        <ele>875.2</ele>
        <time>2022-11-02T14:04:56Z</time>
      </trkpt>
      <trkpt lat="47.87619" lon="6.91532">
        <ele>874.7</ele>
        <time>2022-11-02T14:04:57Z</time>
      </trkpt>
      <trkpt lat="47.8762" lon="6.91531">
        <ele>874.2</ele>
        <time>2022-11-02T14:04:58Z</time>
      </trkpt>
      <trkpt lat="47.8762" lon="6.9153">
        <ele>874.6</ele>
        <time>2022-11-02T14:04:59Z</time>
      </trkpt>
      <trkpt lat="47.87621" lon="6.91529">
        <ele>874.1</ele>
        <time>2022-11-02T14:05:00Z</time>
      </trkpt>
      <trkpt lat="47.87621" lon="6.91528">
        <ele>874.4</ele>
        <time>2022-11-02T14:05:01Z</time>
      </trkpt>
      <trkpt lat="47.87622" lon="6.91526">
        <ele>873.8</ele>
        <time>2022-11-02T14:05:02Z</time>
      </trkpt>
      <trkpt lat="47.87622" lon="6.91525">
        <ele>874</ele>
        <time>2022-11-02T14:05:03Z</time>
      </trkpt>
      <trkpt lat="47.87623" lon="6.91524">
        <ele>873.2</ele>
        <time>2022-11-02T14:05:04Z</time>
      </trkpt>
      <trkpt lat="47.87624" lon="6.91523">
        <ele>872.5</ele>
        <time>2022-11-02T14:05:05Z</time>
      </trkpt>
      <trkpt lat="47.87625" lon="6.91522">
        <ele>871.7</ele>
        <time>2022-11-02T14:05:06Z</time>
      </trkpt>
      <trkpt lat="47.87625" lon="6.91521">
        <ele>871.9</ele>
        <time>2022-11-02T14:05:07Z</time>
      </trkpt>
      <trkpt lat="47.87626" lon="6.9152">
        <ele>871.1</ele>
        <time>2022-11-02T14:05:08Z</time>
      </trkpt>
      <trkpt lat="47.87627" lon="6.91519">
        <ele>870.3</ele>
        <time>2022-11-02T14:05:09Z</time>
      </trkpt>
      <trkpt lat="47.87628" lon="6.91518">
        <ele>869.5</ele>
        <time>2022-11-02T14:05:10Z</time>
      </trkpt>
      <trkpt lat="47.87629" lon="6.91517">
        <ele>868.7</ele>
        <time>2022-11-02T14:05:11Z</time>
      </trkpt>
      <trkpt lat="47.87629" lon="6.91516">
        <ele>868.8</ele>
        <time>2022-11-02T14:05:12Z</time>
      </trkpt>
      <trkpt lat="47.8763" lon="6.91515">
        <ele>868</ele>
        <time>2022-11-02T14:05:13Z</time>
      </trkpt>
      <trkpt lat="47.87631" lon="6.91515">
        <ele>867.1</ele>
        <time>2022-11-02T14:05:14Z</time>
      </trkpt>
      <trkpt lat="47.87631" lon="6.91513">
        <ele>867.3</ele>
        <time>2022-11-02T14:05:15Z</time>
      </trkpt>
      <trkpt lat="47.87632" lon="6.91512">
        <ele>866.5</ele>
        <time>2022-11-02T14:05:16Z</time>
      </trkpt>
      <trkpt lat="47.87632" lon="6.91511">
        <ele>866.6</ele>
        <time>2022-11-02T14:05:17Z</time>
      </trkpt>
      <trkpt lat="47.87633" lon="6.9151">
        <ele>865.8</ele>
        <time>2022-11-02T14:05:18Z</time>
      </trkpt>
      <trkpt lat="47.87633" lon="6.91509">
        <ele>865.9</ele>
        <time>2022-11-02T14:05:19Z</time>
      </trkpt>
      <trkpt lat="47.87634" lon="6.91507">
        <ele>865.1</ele>
        <time>2022-11-02T14:05:20Z</time>
      </trkpt>
      <trkpt lat="47.87635" lon="6.91506">
        <ele>864.3</ele>
        <time>2022-11-02T14:05:21Z</time>
      </trkpt>
      <trkpt lat="47.87635" lon="6.91505">
        <ele>864.3</ele>
        <time>2022-11-02T14:05:22Z</time>
      </trkpt>
      <trkpt lat="47.87636" lon="6.91503">
        <ele>863.6</ele>
        <time>2022-11-02T14:05:23Z</time>
      </trkpt>
      <trkpt lat="47.87637" lon="6.91502">
        <ele>862.7</ele>
        <time>2022-11-02T14:05:24Z</time>
      </trkpt>
      <trkpt lat="47.87637" lon="6.91501">
        <ele>862.8</ele>
        <time>2022-11-02T14:05:25Z</time>
      </trkpt>
      <trkpt lat="47.87638" lon="6.91499">
        <ele>862.3</ele>
        <time>2022-11-02T14:05:26Z</time>
      </trkpt>
      <trkpt lat="47.87638" lon="6.91498">
        <ele>862.7</ele>
        <time>2022-11-02T14:05:27Z</time>
      </trkpt>
      <trkpt lat="47.87638" lon="6.91497">
        <ele>863.1</ele>
        <time>2022-11-02T14:05:28Z</time>
      </trkpt>
      <trkpt lat="47.87639" lon="6.91496">
        <ele>862.5</ele>
        <time>2022-11-02T14:05:29Z</time>
      </trkpt>
      <trkpt lat="47.87639" lon="6.91495">
        <ele>862.9</ele>
        <time>2022-11-02T14:05:30Z</time>
      </trkpt>
      <trkpt lat="47.8764" lon="6.91494">
        <ele>862.9</ele>
        <time>2022-11-02T14:05:31Z</time>
      </trkpt>
      <trkpt lat="47.8764" lon="6.91493">
        <ele>863.3</ele>
        <time>2022-11-02T14:05:32Z</time>
      </trkpt>
      <trkpt lat="47.87641" lon="6.91493">
        <ele>862.8</ele>
        <time>2022-11-02T14:05:33Z</time>
      </trkpt>
      <trkpt lat="47.87641" lon="6.91492">
        <ele>863.2</ele>
        <time>2022-11-02T14:05:34Z</time>
      </trkpt>
      <trkpt lat="47.87642" lon="6.91491">
        <ele>863.1</ele>
        <time>2022-11-02T14:05:35Z</time>
      </trkpt>
      <trkpt lat="47.87643" lon="6.9149">
        <ele>863</ele>
        <time>2022-11-02T14:05:36Z</time>
      </trkpt>
      <trkpt lat="47.87643" lon="6.91489">
        <ele>863.4</ele>
        <time>2022-11-02T14:05:37Z</time>
      </trkpt>
      <trkpt lat="47.87644" lon="6.91488">
        <ele>863.3</ele>
        <time>2022-11-02T14:05:38Z</time>
      </trkpt>
      <trkpt lat="47.87645" lon="6.91487">
        <ele>863.2</ele>
        <time>2022-11-02T14:05:39Z</time>
      </trkpt>
      <trkpt lat="47.87645" lon="6.91485">
        <ele>863.9</ele>
        <time>2022-11-02T14:05:40Z</time>
      </trkpt>
      <trkpt lat="47.87646" lon="6.91484">
        <ele>863.8</ele>
        <time>2022-11-02T14:05:41Z</time>
      </trkpt>
      <trkpt lat="47.87647" lon="6.91482">
        <ele>864.1</ele>
        <time>2022-11-02T14:05:42Z</time>
      </trkpt>
      <trkpt lat="47.87647" lon="6.91481">
        <ele>864.4</ele>
        <time>2022-11-02T14:05:43Z</time>
      </trkpt>
      <trkpt lat="47.87648" lon="6.9148">
        <ele>864.3</ele>
        <time>2022-11-02T14:05:44Z</time>
      </trkpt>
      <trkpt lat="47.87649" lon="6.91479">
        <ele>864.1</ele>
        <time>2022-11-02T14:05:45Z</time>
      </trkpt>
      <trkpt lat="47.8765" lon="6.91479">
        <ele>863.6</ele>
        <time>2022-11-02T14:05:46Z</time>
      </trkpt>
      <trkpt lat="47.8765" lon="6.91478">
        <ele>864</ele>
        <time>2022-11-02T14:05:47Z</time>
      </trkpt>
      <trkpt lat="47.87651" lon="6.91477">
        <ele>863.8</ele>
        <time>2022-11-02T14:05:48Z</time>
      </trkpt>
      <trkpt lat="47.87652" lon="6.91477">
        <ele>863.3</ele>
        <time>2022-11-02T14:05:49Z</time>
      </trkpt>
      <trkpt lat="47.87653" lon="6.91476">
        <ele>863.1</ele>
        <time>2022-11-02T14:05:50Z</time>
      </trkpt>
      <trkpt lat="47.87654" lon="6.91476">
        <ele>862.6</ele>
        <time>2022-11-02T14:05:51Z</time>
      </trkpt>
      <trkpt lat="47.87656" lon="6.91475">
        <ele>861.8</ele>
        <time>2022-11-02T14:05:52Z</time>
      </trkpt>
      <trkpt lat="47.87657" lon="6.91475">
        <ele>861.3</ele>
        <time>2022-11-02T14:05:53Z</time>
      </trkpt>
      <trkpt lat="47.87658" lon="6.91474">
        <ele>861.1</ele>
        <time>2022-11-02T14:05:54Z</time>
      </trkpt>
      <trkpt lat="47.87659" lon="6.91474">
        <ele>860.6</ele>
        <time>2022-11-02T14:05:55Z</time>
      </trkpt>
      <trkpt lat="47.87659" lon="6.91473">
        <ele>860.9</ele>
        <time>2022-11-02T14:05:56Z</time>
      </trkpt>
      <trkpt lat="47.8766" lon="6.91472">
        <ele>860.7</ele>
        <time>2022-11-02T14:05:57Z</time>
      </trkpt>
      <trkpt lat="47.87661" lon="6.91471">
        <ele>860.5</ele>
        <time>2022-11-02T14:05:58Z</time>
      </trkpt>
      <trkpt lat="47.87661" lon="6.9147">
        <ele>860.8</ele>
        <time>2022-11-02T14:05:59Z</time>
      </trkpt>
      <trkpt lat="47.87662" lon="6.9147">
        <ele>860.2</ele>
        <time>2022-11-02T14:06:00Z</time>
      </trkpt>
      <trkpt lat="47.87662" lon="6.91469">
        <ele>860.5</ele>
        <time>2022-11-02T14:06:01Z</time>
      </trkpt>
      <trkpt lat="47.87663" lon="6.91468">
        <ele>860.3</ele>
        <time>2022-11-02T14:06:02Z</time>
      </trkpt>
      <trkpt lat="47.87664" lon="6.91467">
        <ele>860</ele>
        <time>2022-11-02T14:06:03Z</time>
      </trkpt>
      <trkpt lat="47.87665" lon="6.91466">
        <ele>859.8</ele>
        <time>2022-11-02T14:06:04Z</time>
      </trkpt>
      <trkpt lat="47.87665" lon="6.91465">
        <ele>860.1</ele>
        <time>2022-11-02T14:06:05Z</time>
      </trkpt>
      <trkpt lat="47.87666" lon="6.91464">
        <ele>859.8</ele>
        <time>2022-11-02T14:06:06Z</time>
      </trkpt>
      <trkpt lat="47.87667" lon="6.91463">
        <ele>859.5</ele>
        <time>2022-11-02T14:06:07Z</time>
      </trkpt>
      <trkpt lat="47.87668" lon="6.91462">
        <ele>859.3</ele>
        <time>2022-11-02T14:06:08Z</time>
      </trkpt>
      <trkpt lat="47.87669" lon="6.91462">
        <ele>858.7</ele>
        <time>2022-11-02T14:06:09Z</time>
      </trkpt>
      <trkpt lat="47.8767" lon="6.91461">
        <ele>858.5</ele>
        <time>2022-11-02T14:06:10Z</time>
      </trkpt>
      <trkpt lat="47.87671" lon="6.9146">
        <ele>858.3</ele>
        <time>2022-11-02T14:06:11Z</time>
      </trkpt>
      <trkpt lat="47.87671" lon="6.91459">
        <ele>858.6</ele>
        <time>2022-11-02T14:06:12Z</time>
      </trkpt>
      <trkpt lat="47.87672" lon="6.91459">
        <ele>858.1</ele>
        <time>2022-11-02T14:06:13Z</time>
      </trkpt>
      <trkpt lat="47.87673" lon="6.91457">
        <ele>858.2</ele>
        <time>2022-11-02T14:06:14Z</time>
      </trkpt>
      <trkpt lat="47.87674" lon="6.91456">
        <ele>858</ele>
        <time>2022-11-02T14:06:15Z</time>
      </trkpt>
      <trkpt lat="47.87675" lon="6.91455">
        <ele>857.8</ele>
        <time>2022-11-02T14:06:16Z</time>
      </trkpt>
      <trkpt lat="47.87675" lon="6.91454">
        <ele>858.1</ele>
        <time>2022-11-02T14:06:17Z</time>
      </trkpt>
      <trkpt lat="47.87676" lon="6.91453">
        <ele>858</ele>
        <time>2022-11-02T14:06:18Z</time>
      </trkpt>
      <trkpt lat="47.87677" lon="6.91452">
        <ele>857.8</ele>
        <time>2022-11-02T14:06:19Z</time>
      </trkpt>
      <trkpt lat="47.87678" lon="6.91451">
        <ele>857.6</ele>
        <time>2022-11-02T14:06:20Z</time>
      </trkpt>
      <trkpt lat="47.87679" lon="6.91451">
        <ele>857.1</ele>
        <time>2022-11-02T14:06:21Z</time>
      </trkpt>
      <trkpt lat="47.87679" lon="6.9145">
        <ele>857.5</ele>
        <time>2022-11-02T14:06:22Z</time>
      </trkpt>
      <trkpt lat="47.8768" lon="6.91449">
        <ele>857.3</ele>
        <time>2022-11-02T14:06:23Z</time>
      </trkpt>
      <trkpt lat="47.87681" lon="6.91449">
        <ele>856.8</ele>
        <time>2022-11-02T14:06:24Z</time>
      </trkpt>
      <trkpt lat="47.87682" lon="6.91448">
        <ele>856.7</ele>
        <time>2022-11-02T14:06:25Z</time>
      </trkpt>
      <trkpt lat="47.87682" lon="6.91447">
        <ele>857</ele>
        <time>2022-11-02T14:06:26Z</time>
      </trkpt>
      <trkpt lat="47.87683" lon="6.91446">
        <ele>856.8</ele>
        <time>2022-11-02T14:06:27Z</time>
      </trkpt>
      <trkpt lat="47.87684" lon="6.91445">
        <ele>856.7</ele>
        <time>2022-11-02T14:06:28Z</time>
      </trkpt>
      <trkpt lat="47.87684" lon="6.91444">
        <ele>857.1</ele>
        <time>2022-11-02T14:06:29Z</time>
      </trkpt>
      <trkpt lat="47.87685" lon="6.91443">
        <ele>857</ele>
        <time>2022-11-02T14:06:30Z</time>
      </trkpt>
      <trkpt lat="47.87686" lon="6.91442">
        <ele>857</ele>
        <time>2022-11-02T14:06:31Z</time>
      </trkpt>
      <trkpt lat="47.87686" lon="6.9144">
        <ele>857.8</ele>
        <time>2022-11-02T14:06:32Z</time>
      </trkpt>
      <trkpt lat="47.87687" lon="6.91439">
        <ele>857.7</ele>
        <time>2022-11-02T14:06:33Z</time>
      </trkpt>
      <trkpt lat="47.87687" lon="6.91438">
        <ele>858.1</ele>
        <time>2022-11-02T14:06:34Z</time>
      </trkpt>
      <trkpt lat="47.87688" lon="6.91437">
        <ele>858</ele>
        <time>2022-11-02T14:06:35Z</time>
      </trkpt>
      <trkpt lat="47.87689" lon="6.91436">
        <ele>857.9</ele>
        <time>2022-11-02T14:06:36Z</time>
      </trkpt>
      <trkpt lat="47.8769" lon="6.91435">
        <ele>857.8</ele>
        <time>2022-11-02T14:06:37Z</time>
      </trkpt>
      <trkpt lat="47.87691" lon="6.91434">
        <ele>857.6</ele>
        <time>2022-11-02T14:06:38Z</time>
      </trkpt>
      <trkpt lat="47.87692" lon="6.91433">
        <ele>857.4</ele>
        <time>2022-11-02T14:06:39Z</time>
      </trkpt>
      <trkpt lat="47.87693" lon="6.91433">
        <ele>856.9</ele>
        <time>2022-11-02T14:06:40Z</time>
      </trkpt>
      <trkpt lat="47.87694" lon="6.91432">
        <ele>856.7</ele>
        <time>2022-11-02T14:06:41Z</time>
      </trkpt>
      <trkpt lat="47.87695" lon="6.91431">
        <ele>856.5</ele>
        <time>2022-11-02T14:06:42Z</time>
      </trkpt>
      <trkpt lat="47.87696" lon="6.9143">
        <ele>856.2</ele>
        <time>2022-11-02T14:06:43Z</time>
      </trkpt>
      <trkpt lat="47.87696" lon="6.91429">
        <ele>856.5</ele>
        <time>2022-11-02T14:06:44Z</time>
      </trkpt>
      <trkpt lat="47.87697" lon="6.91429">
        <ele>855.8</ele>
        <time>2022-11-02T14:06:45Z</time>
      </trkpt>
      <trkpt lat="47.87698" lon="6.91428">
        <ele>855.5</ele>
        <time>2022-11-02T14:06:46Z</time>
      </trkpt>
      <trkpt lat="47.87699" lon="6.91427">
        <ele>855.1</ele>
        <time>2022-11-02T14:06:47Z</time>
      </trkpt>
      <trkpt lat="47.877" lon="6.91426">
        <ele>854.8</ele>
        <time>2022-11-02T14:06:48Z</time>
      </trkpt>
      <trkpt lat="47.87701" lon="6.91426">
        <ele>854.1</ele>
        <time>2022-11-02T14:06:49Z</time>
      </trkpt>
      <trkpt lat="47.87701" lon="6.91425">
        <ele>854.4</ele>
        <time>2022-11-02T14:06:50Z</time>
      </trkpt>
      <trkpt lat="47.87702" lon="6.91424">
        <ele>854</ele>
        <time>2022-11-02T14:06:51Z</time>
      </trkpt>
      <trkpt lat="47.87703" lon="6.91423">
        <ele>853.6</ele>
        <time>2022-11-02T14:06:52Z</time>
      </trkpt>
      <trkpt lat="47.87704" lon="6.91422">
        <ele>853.2</ele>
        <time>2022-11-02T14:06:53Z</time>
      </trkpt>
      <trkpt lat="47.87705" lon="6.91421">
        <ele>852.8</ele>
        <time>2022-11-02T14:06:54Z</time>
      </trkpt>
      <trkpt lat="47.87707" lon="6.9142">
        <ele>851.6</ele>
        <time>2022-11-02T14:06:55Z</time>
      </trkpt>
      <trkpt lat="47.87708" lon="6.91419">
        <ele>851.1</ele>
        <time>2022-11-02T14:06:56Z</time>
      </trkpt>
      <trkpt lat="47.87709" lon="6.91418">
        <ele>850.6</ele>
        <time>2022-11-02T14:06:57Z</time>
      </trkpt>
      <trkpt lat="47.8771" lon="6.91417">
        <ele>850.2</ele>
        <time>2022-11-02T14:06:58Z</time>
      </trkpt>
      <trkpt lat="47.87711" lon="6.91417">
        <ele>849.4</ele>
        <time>2022-11-02T14:06:59Z</time>
      </trkpt>
      <trkpt lat="47.87711" lon="6.91415">
        <ele>850</ele>
        <time>2022-11-02T14:07:00Z</time>
      </trkpt>
      <trkpt lat="47.87712" lon="6.91414">
        <ele>849.5</ele>
        <time>2022-11-02T14:07:01Z</time>
      </trkpt>
      <trkpt lat="47.87712" lon="6.91413">
        <ele>849.9</ele>
        <time>2022-11-02T14:07:02Z</time>
      </trkpt>
      <trkpt lat="47.87713" lon="6.91412">
        <ele>849.3</ele>
        <time>2022-11-02T14:07:03Z</time>
      </trkpt>
      <trkpt lat="47.87713" lon="6.91411">
        <ele>849.6</ele>
        <time>2022-11-02T14:07:04Z</time>
      </trkpt>
      <trkpt lat="47.87713" lon="6.91409">
        <ele>850.2</ele>
        <time>2022-11-02T14:07:05Z</time>
      </trkpt>
      <trkpt lat="47.87713" lon="6.91408">
        <ele>850.5</ele>
        <time>2022-11-02T14:07:06Z</time>
      </trkpt>
      <trkpt lat="47.87713" lon="6.91406">
        <ele>851</ele>
        <time>2022-11-02T14:07:07Z</time>
      </trkpt>
      <trkpt lat="47.87713" lon="6.91405">
        <ele>851.3</ele>
        <time>2022-11-02T14:07:08Z</time>
      </trkpt>
      <trkpt lat="47.87713" lon="6.91404">
        <ele>851.6</ele>
        <time>2022-11-02T14:07:09Z</time>
      </trkpt>
      <trkpt lat="47.87713" lon="6.91403">
        <ele>851.9</ele>
        <time>2022-11-02T14:07:10Z</time>
      </trkpt>
      <trkpt lat="47.87714" lon="6.91402">
        <ele>851.1</ele>
        <time>2022-11-02T14:07:11Z</time>
      </trkpt>
      <trkpt lat="47.87714" lon="6.914">
        <ele>851.7</ele>
        <time>2022-11-02T14:07:12Z</time>
      </trkpt>
      <trkpt lat="47.87714" lon="6.91399">
        <ele>851.9</ele>
        <time>2022-11-02T14:07:13Z</time>
      </trkpt>
      <trkpt lat="47.87715" lon="6.91398">
        <ele>851.1</ele>
        <time>2022-11-02T14:07:14Z</time>
      </trkpt>
      <trkpt lat="47.87715" lon="6.91397">
        <ele>851.3</ele>
        <time>2022-11-02T14:07:15Z</time>
      </trkpt>
      <trkpt lat="47.87715" lon="6.91395">
        <ele>851.8</ele>
        <time>2022-11-02T14:07:16Z</time>
      </trkpt>
      <trkpt lat="47.87715" lon="6.91394">
        <ele>852.1</ele>
        <time>2022-11-02T14:07:17Z</time>
      </trkpt>
      <trkpt lat="47.87715" lon="6.91393">
        <ele>852.3</ele>
        <time>2022-11-02T14:07:18Z</time>
      </trkpt>
      <trkpt lat="47.87715" lon="6.91391">
        <ele>852.8</ele>
        <time>2022-11-02T14:07:19Z</time>
      </trkpt>
      <trkpt lat="47.87715" lon="6.9139">
        <ele>853.1</ele>
        <time>2022-11-02T14:07:20Z</time>
      </trkpt>
      <trkpt lat="47.87715" lon="6.91389">
        <ele>853.3</ele>
        <time>2022-11-02T14:07:21Z</time>
      </trkpt>
      <trkpt lat="47.87715" lon="6.91387">
        <ele>853.1</ele>
        <time>2022-11-02T14:07:22Z</time>
      </trkpt>
      <trkpt lat="47.87715" lon="6.91385">
        <ele>852.7</ele>
        <time>2022-11-02T14:07:23Z</time>
      </trkpt>
      <trkpt lat="47.87714" lon="6.91384">
        <ele>853.8</ele>
        <time>2022-11-02T14:07:24Z</time>
      </trkpt>
      <trkpt lat="47.87714" lon="6.91382">
        <ele>853.5</ele>
        <time>2022-11-02T14:07:25Z</time>
      </trkpt>
      <trkpt lat="47.87714" lon="6.91381">
        <ele>853.3</ele>
        <time>2022-11-02T14:07:26Z</time>
      </trkpt>
      <trkpt lat="47.87714" lon="6.91379">
        <ele>852.9</ele>
        <time>2022-11-02T14:07:27Z</time>
      </trkpt>
      <trkpt lat="47.87714" lon="6.91378">
        <ele>852.8</ele>
        <time>2022-11-02T14:07:28Z</time>
      </trkpt>
      <trkpt lat="47.87714" lon="6.91377">
        <ele>852.6</ele>
        <time>2022-11-02T14:07:29Z</time>
      </trkpt>
      <trkpt lat="47.87714" lon="6.91375">
        <ele>852.2</ele>
        <time>2022-11-02T14:07:30Z</time>
      </trkpt>
      <trkpt lat="47.87714" lon="6.91374">
        <ele>852.1</ele>
        <time>2022-11-02T14:07:31Z</time>
      </trkpt>
      <trkpt lat="47.87714" lon="6.91372">
        <ele>851.7</ele>
        <time>2022-11-02T14:07:32Z</time>
      </trkpt>
      <trkpt lat="47.87714" lon="6.91371">
        <ele>851.5</ele>
        <time>2022-11-02T14:07:33Z</time>
      </trkpt>
      <trkpt lat="47.87714" lon="6.91369">
        <ele>851.2</ele>
        <time>2022-11-02T14:07:34Z</time>
      </trkpt>
      <trkpt lat="47.87714" lon="6.91368">
        <ele>851</ele>
        <time>2022-11-02T14:07:35Z</time>
      </trkpt>
      <trkpt lat="47.87714" lon="6.91366">
        <ele>850.7</ele>
        <time>2022-11-02T14:07:36Z</time>
      </trkpt>
      <trkpt lat="47.87714" lon="6.91365">
        <ele>850.5</ele>
        <time>2022-11-02T14:07:37Z</time>
      </trkpt>
      <trkpt lat="47.87714" lon="6.91363">
        <ele>850.1</ele>
        <time>2022-11-02T14:07:38Z</time>
      </trkpt>
      <trkpt lat="47.87714" lon="6.91362">
        <ele>850</ele>
        <time>2022-11-02T14:07:39Z</time>
      </trkpt>
      <trkpt lat="47.87714" lon="6.9136">
        <ele>849.8</ele>
        <time>2022-11-02T14:07:40Z</time>
      </trkpt>
      <trkpt lat="47.87714" lon="6.91359">
        <ele>849.8</ele>
        <time>2022-11-02T14:07:41Z</time>
      </trkpt>
      <trkpt lat="47.87714" lon="6.91357">
        <ele>849.9</ele>
        <time>2022-11-02T14:07:42Z</time>
      </trkpt>
      <trkpt lat="47.87714" lon="6.91356">
        <ele>849.9</ele>
        <time>2022-11-02T14:07:43Z</time>
      </trkpt>
      <trkpt lat="47.87714" lon="6.91354">
        <ele>849.9</ele>
        <time>2022-11-02T14:07:44Z</time>
      </trkpt>
      <trkpt lat="47.87715" lon="6.91353">
        <ele>849.1</ele>
        <time>2022-11-02T14:07:45Z</time>
      </trkpt>
      <trkpt lat="47.87715" lon="6.91351">
        <ele>849.2</ele>
        <time>2022-11-02T14:07:46Z</time>
      </trkpt>
      <trkpt lat="47.87715" lon="6.9135">
        <ele>849.2</ele>
        <time>2022-11-02T14:07:47Z</time>
      </trkpt>
      <trkpt lat="47.87715" lon="6.91348">
        <ele>849.2</ele>
        <time>2022-11-02T14:07:48Z</time>
      </trkpt>
      <trkpt lat="47.87715" lon="6.91346">
        <ele>849.2</ele>
        <time>2022-11-02T14:07:49Z</time>
      </trkpt>
      <trkpt lat="47.87715" lon="6.91345">
        <ele>849.3</ele>
        <time>2022-11-02T14:07:50Z</time>
      </trkpt>
      <trkpt lat="47.87715" lon="6.91343">
        <ele>849.3</ele>
        <time>2022-11-02T14:07:51Z</time>
      </trkpt>
      <trkpt lat="47.87715" lon="6.91342">
        <ele>849.3</ele>
        <time>2022-11-02T14:07:52Z</time>
      </trkpt>
      <trkpt lat="47.87715" lon="6.9134">
        <ele>849.3</ele>
        <time>2022-11-02T14:07:53Z</time>
      </trkpt>
      <trkpt lat="47.87715" lon="6.91338">
        <ele>849.4</ele>
        <time>2022-11-02T14:07:54Z</time>
      </trkpt>
      <trkpt lat="47.87715" lon="6.91337">
        <ele>849.4</ele>
        <time>2022-11-02T14:07:55Z</time>
      </trkpt>
      <trkpt lat="47.87715" lon="6.91336">
        <ele>849.4</ele>
        <time>2022-11-02T14:07:56Z</time>
      </trkpt>
      <trkpt lat="47.87715" lon="6.91335">
        <ele>849.4</ele>
        <time>2022-11-02T14:07:57Z</time>
      </trkpt>
      <trkpt lat="47.87716" lon="6.91333">
        <ele>848.7</ele>
        <time>2022-11-02T14:07:58Z</time>
      </trkpt>
      <trkpt lat="47.87716" lon="6.91332">
        <ele>848.7</ele>
        <time>2022-11-02T14:07:59Z</time>
      </trkpt>
      <trkpt lat="47.87717" lon="6.9133">
        <ele>848</ele>
        <time>2022-11-02T14:08:00Z</time>
      </trkpt>
      <trkpt lat="47.87717" lon="6.91329">
        <ele>848</ele>
        <time>2022-11-02T14:08:01Z</time>
      </trkpt>
      <trkpt lat="47.87718" lon="6.91328">
        <ele>847.3</ele>
        <time>2022-11-02T14:08:02Z</time>
      </trkpt>
      <trkpt lat="47.87718" lon="6.91326">
        <ele>847.3</ele>
        <time>2022-11-02T14:08:03Z</time>
      </trkpt>
      <trkpt lat="47.87718" lon="6.91325">
        <ele>847.3</ele>
        <time>2022-11-02T14:08:04Z</time>
      </trkpt>
      <trkpt lat="47.87719" lon="6.91324">
        <ele>846.5</ele>
        <time>2022-11-02T14:08:05Z</time>
      </trkpt>
      <trkpt lat="47.87719" lon="6.91323">
        <ele>846.5</ele>
        <time>2022-11-02T14:08:06Z</time>
      </trkpt>
      <trkpt lat="47.8772" lon="6.91322">
        <ele>845.7</ele>
        <time>2022-11-02T14:08:07Z</time>
      </trkpt>
      <trkpt lat="47.87721" lon="6.91321">
        <ele>845</ele>
        <time>2022-11-02T14:08:08Z</time>
      </trkpt>
      <trkpt lat="47.87721" lon="6.9132">
        <ele>845</ele>
        <time>2022-11-02T14:08:09Z</time>
      </trkpt>
      <trkpt lat="47.87722" lon="6.91319">
        <ele>844.2</ele>
        <time>2022-11-02T14:08:10Z</time>
      </trkpt>
      <trkpt lat="47.87723" lon="6.91318">
        <ele>843.3</ele>
        <time>2022-11-02T14:08:11Z</time>
      </trkpt>
      <trkpt lat="47.87724" lon="6.91317">
        <ele>842.5</ele>
        <time>2022-11-02T14:08:12Z</time>
      </trkpt>
      <trkpt lat="47.87724" lon="6.91316">
        <ele>842.5</ele>
        <time>2022-11-02T14:08:13Z</time>
      </trkpt>
      <trkpt lat="47.87725" lon="6.91314">
        <ele>841.6</ele>
        <time>2022-11-02T14:08:14Z</time>
      </trkpt>
      <trkpt lat="47.87725" lon="6.91313">
        <ele>841.6</ele>
        <time>2022-11-02T14:08:15Z</time>
      </trkpt>
      <trkpt lat="47.87725" lon="6.91312">
        <ele>841.6</ele>
        <time>2022-11-02T14:08:16Z</time>
      </trkpt>
      <trkpt lat="47.87726" lon="6.9131">
        <ele>840.8</ele>
        <time>2022-11-02T14:08:17Z</time>
      </trkpt>
      <trkpt lat="47.87726" lon="6.91309">
        <ele>840.8</ele>
        <time>2022-11-02T14:08:18Z</time>
      </trkpt>
      <trkpt lat="47.87726" lon="6.91307">
        <ele>840.7</ele>
        <time>2022-11-02T14:08:19Z</time>
      </trkpt>
      <trkpt lat="47.87726" lon="6.91306">
        <ele>840.7</ele>
        <time>2022-11-02T14:08:20Z</time>
      </trkpt>
      <trkpt lat="47.87726" lon="6.91304">
        <ele>840.8</ele>
        <time>2022-11-02T14:08:21Z</time>
      </trkpt>
      <trkpt lat="47.87726" lon="6.91302">
        <ele>841</ele>
        <time>2022-11-02T14:08:22Z</time>
      </trkpt>
      <trkpt lat="47.87726" lon="6.913">
        <ele>841.1</ele>
        <time>2022-11-02T14:08:23Z</time>
      </trkpt>
      <trkpt lat="47.87726" lon="6.91298">
        <ele>841.2</ele>
        <time>2022-11-02T14:08:24Z</time>
      </trkpt>
      <trkpt lat="47.87726" lon="6.91297">
        <ele>841.3</ele>
        <time>2022-11-02T14:08:25Z</time>
      </trkpt>
      <trkpt lat="47.87726" lon="6.91295">
        <ele>841.4</ele>
        <time>2022-11-02T14:08:26Z</time>
      </trkpt>
      <trkpt lat="47.87726" lon="6.91293">
        <ele>841.6</ele>
        <time>2022-11-02T14:08:27Z</time>
      </trkpt>
      <trkpt lat="47.87726" lon="6.91291">
        <ele>841.7</ele>
        <time>2022-11-02T14:08:28Z</time>
      </trkpt>
      <trkpt lat="47.87726" lon="6.91289">
        <ele>841.8</ele>
        <time>2022-11-02T14:08:29Z</time>
      </trkpt>
      <trkpt lat="47.87726" lon="6.91287">
        <ele>841.9</ele>
        <time>2022-11-02T14:08:30Z</time>
      </trkpt>
      <trkpt lat="47.87726" lon="6.91285">
        <ele>842.1</ele>
        <time>2022-11-02T14:08:31Z</time>
      </trkpt>
      <trkpt lat="47.87726" lon="6.91284">
        <ele>842.1</ele>
        <time>2022-11-02T14:08:32Z</time>
      </trkpt>
      <trkpt lat="47.87726" lon="6.91282">
        <ele>842.3</ele>
        <time>2022-11-02T14:08:33Z</time>
      </trkpt>
      <trkpt lat="47.87726" lon="6.91281">
        <ele>842.3</ele>
        <time>2022-11-02T14:08:34Z</time>
      </trkpt>
      <trkpt lat="47.87726" lon="6.9128">
        <ele>842.4</ele>
        <time>2022-11-02T14:08:35Z</time>
      </trkpt>
      <trkpt lat="47.87727" lon="6.91278">
        <ele>841.9</ele>
        <time>2022-11-02T14:08:36Z</time>
      </trkpt>
      <trkpt lat="47.87727" lon="6.91277">
        <ele>842</ele>
        <time>2022-11-02T14:08:37Z</time>
      </trkpt>
      <trkpt lat="47.87728" lon="6.91275">
        <ele>841.5</ele>
        <time>2022-11-02T14:08:38Z</time>
      </trkpt>
      <trkpt lat="47.87728" lon="6.91274">
        <ele>841.6</ele>
        <time>2022-11-02T14:08:39Z</time>
      </trkpt>
      <trkpt lat="47.87728" lon="6.91272">
        <ele>841.7</ele>
        <time>2022-11-02T14:08:40Z</time>
      </trkpt>
      <trkpt lat="47.87728" lon="6.9127">
        <ele>841.9</ele>
        <time>2022-11-02T14:08:41Z</time>
      </trkpt>
      <trkpt lat="47.87728" lon="6.91268">
        <ele>842</ele>
        <time>2022-11-02T14:08:42Z</time>
      </trkpt>
      <trkpt lat="47.87728" lon="6.91266">
        <ele>842.2</ele>
        <time>2022-11-02T14:08:43Z</time>
      </trkpt>
      <trkpt lat="47.87728" lon="6.91264">
        <ele>842.4</ele>
        <time>2022-11-02T14:08:44Z</time>
      </trkpt>
      <trkpt lat="47.87727" lon="6.91262">
        <ele>843.1</ele>
        <time>2022-11-02T14:08:45Z</time>
      </trkpt>
      <trkpt lat="47.87727" lon="6.9126">
        <ele>843.3</ele>
        <time>2022-11-02T14:08:46Z</time>
      </trkpt>
      <trkpt lat="47.87727" lon="6.91258">
        <ele>843.5</ele>
        <time>2022-11-02T14:08:47Z</time>
      </trkpt>
      <trkpt lat="47.87727" lon="6.91256">
        <ele>843.6</ele>
        <time>2022-11-02T14:08:48Z</time>
      </trkpt>
      <trkpt lat="47.87727" lon="6.91254">
        <ele>843.8</ele>
        <time>2022-11-02T14:08:49Z</time>
      </trkpt>
      <trkpt lat="47.87726" lon="6.91252">
        <ele>844.5</ele>
        <time>2022-11-02T14:08:50Z</time>
      </trkpt>
      <trkpt lat="47.87726" lon="6.9125">
        <ele>844.7</ele>
        <time>2022-11-02T14:08:51Z</time>
      </trkpt>
      <trkpt lat="47.87726" lon="6.91248">
        <ele>844.8</ele>
        <time>2022-11-02T14:08:52Z</time>
      </trkpt>
      <trkpt lat="47.87726" lon="6.91246">
        <ele>845</ele>
        <time>2022-11-02T14:08:53Z</time>
      </trkpt>
      <trkpt lat="47.87726" lon="6.91245">
        <ele>845</ele>
        <time>2022-11-02T14:08:54Z</time>
      </trkpt>
      <trkpt lat="47.87726" lon="6.91243">
        <ele>845.2</ele>
        <time>2022-11-02T14:08:55Z</time>
      </trkpt>
      <trkpt lat="47.87726" lon="6.91241">
        <ele>845.3</ele>
        <time>2022-11-02T14:08:56Z</time>
      </trkpt>
      <trkpt lat="47.87726" lon="6.9124">
        <ele>845.4</ele>
        <time>2022-11-02T14:08:57Z</time>
      </trkpt>
      <trkpt lat="47.87727" lon="6.91238">
        <ele>844.9</ele>
        <time>2022-11-02T14:08:58Z</time>
      </trkpt>
      <trkpt lat="47.87727" lon="6.91236">
        <ele>845</ele>
        <time>2022-11-02T14:08:59Z</time>
      </trkpt>
      <trkpt lat="47.87728" lon="6.91234">
        <ele>844.5</ele>
        <time>2022-11-02T14:09:00Z</time>
      </trkpt>
      <trkpt lat="47.87728" lon="6.91232">
        <ele>844.6</ele>
        <time>2022-11-02T14:09:01Z</time>
      </trkpt>
      <trkpt lat="47.87729" lon="6.91231">
        <ele>844.1</ele>
        <time>2022-11-02T14:09:02Z</time>
      </trkpt>
      <trkpt lat="47.87729" lon="6.91229">
        <ele>844.2</ele>
        <time>2022-11-02T14:09:03Z</time>
      </trkpt>
      <trkpt lat="47.87729" lon="6.91227">
        <ele>844.3</ele>
        <time>2022-11-02T14:09:04Z</time>
      </trkpt>
      <trkpt lat="47.87728" lon="6.91226">
        <ele>845</ele>
        <time>2022-11-02T14:09:05Z</time>
      </trkpt>
      <trkpt lat="47.87729" lon="6.91224">
        <ele>844.5</ele>
        <time>2022-11-02T14:09:06Z</time>
      </trkpt>
      <trkpt lat="47.87729" lon="6.91223">
        <ele>844.6</ele>
        <time>2022-11-02T14:09:07Z</time>
      </trkpt>
      <trkpt lat="47.87729" lon="6.91221">
        <ele>844.7</ele>
        <time>2022-11-02T14:09:08Z</time>
      </trkpt>
      <trkpt lat="47.87729" lon="6.9122">
        <ele>844.8</ele>
        <time>2022-11-02T14:09:09Z</time>
      </trkpt>
      <trkpt lat="47.8773" lon="6.91218">
        <ele>844.4</ele>
        <time>2022-11-02T14:09:10Z</time>
      </trkpt>
      <trkpt lat="47.8773" lon="6.91216">
        <ele>844.7</ele>
        <time>2022-11-02T14:09:11Z</time>
      </trkpt>
      <trkpt lat="47.87731" lon="6.91215">
        <ele>844.2</ele>
        <time>2022-11-02T14:09:12Z</time>
      </trkpt>
      <trkpt lat="47.87732" lon="6.91213">
        <ele>843.8</ele>
        <time>2022-11-02T14:09:13Z</time>
      </trkpt>
      <trkpt lat="47.87733" lon="6.91211">
        <ele>843.5</ele>
        <time>2022-11-02T14:09:14Z</time>
      </trkpt>
      <trkpt lat="47.87733" lon="6.9121">
        <ele>843.6</ele>
        <time>2022-11-02T14:09:15Z</time>
      </trkpt>
      <trkpt lat="47.87734" lon="6.91208">
        <ele>843.3</ele>
        <time>2022-11-02T14:09:16Z</time>
      </trkpt>
      <trkpt lat="47.87734" lon="6.91206">
        <ele>843.5</ele>
        <time>2022-11-02T14:09:17Z</time>
      </trkpt>
      <trkpt lat="47.87734" lon="6.91205">
        <ele>843.7</ele>
        <time>2022-11-02T14:09:18Z</time>
      </trkpt>
      <trkpt lat="47.87733" lon="6.91203">
        <ele>844.5</ele>
        <time>2022-11-02T14:09:19Z</time>
      </trkpt>
      <trkpt lat="47.87733" lon="6.91201">
        <ele>844.7</ele>
        <time>2022-11-02T14:09:20Z</time>
      </trkpt>
      <trkpt lat="47.87733" lon="6.91199">
        <ele>845</ele>
        <time>2022-11-02T14:09:21Z</time>
      </trkpt>
      <trkpt lat="47.87734" lon="6.91197">
        <ele>844.7</ele>
        <time>2022-11-02T14:09:22Z</time>
      </trkpt>
      <trkpt lat="47.87734" lon="6.91196">
        <ele>844.9</ele>
        <time>2022-11-02T14:09:23Z</time>
      </trkpt>
      <trkpt lat="47.87734" lon="6.91194">
        <ele>845.2</ele>
        <time>2022-11-02T14:09:24Z</time>
      </trkpt>
      <trkpt lat="47.87735" lon="6.91193">
        <ele>845</ele>
        <time>2022-11-02T14:09:25Z</time>
      </trkpt>
      <trkpt lat="47.87735" lon="6.91191">
        <ele>845.5</ele>
        <time>2022-11-02T14:09:26Z</time>
      </trkpt>
      <trkpt lat="47.87735" lon="6.9119">
        <ele>845.8</ele>
        <time>2022-11-02T14:09:27Z</time>
      </trkpt>
      <trkpt lat="47.87735" lon="6.91189">
        <ele>846</ele>
        <time>2022-11-02T14:09:28Z</time>
      </trkpt>
      <trkpt lat="47.87736" lon="6.91188">
        <ele>845.8</ele>
        <time>2022-11-02T14:09:29Z</time>
      </trkpt>
      <trkpt lat="47.87736" lon="6.91187">
        <ele>846.1</ele>
        <time>2022-11-02T14:09:30Z</time>
      </trkpt>
      <trkpt lat="47.87737" lon="6.91186">
        <ele>845.8</ele>
        <time>2022-11-02T14:09:31Z</time>
      </trkpt>
      <trkpt lat="47.87738" lon="6.91185">
        <ele>845.6</ele>
        <time>2022-11-02T14:09:32Z</time>
      </trkpt>
      <trkpt lat="47.87739" lon="6.91184">
        <ele>845.3</ele>
        <time>2022-11-02T14:09:33Z</time>
      </trkpt>
      <trkpt lat="47.8774" lon="6.91183">
        <ele>845.1</ele>
        <time>2022-11-02T14:09:35Z</time>
      </trkpt>
      <trkpt lat="47.87741" lon="6.91183">
        <ele>844.6</ele>
        <time>2022-11-02T14:09:36Z</time>
      </trkpt>
      <trkpt lat="47.87741" lon="6.91182">
        <ele>844.8</ele>
        <time>2022-11-02T14:09:37Z</time>
      </trkpt>
      <trkpt lat="47.87742" lon="6.91182">
        <ele>844.3</ele>
        <time>2022-11-02T14:09:38Z</time>
      </trkpt>
      <trkpt lat="47.87742" lon="6.91181">
        <ele>844.6</ele>
        <time>2022-11-02T14:09:39Z</time>
      </trkpt>
      <trkpt lat="47.87743" lon="6.91181">
        <ele>844</ele>
        <time>2022-11-02T14:09:40Z</time>
      </trkpt>
      <trkpt lat="47.87743" lon="6.9118">
        <ele>844.3</ele>
        <time>2022-11-02T14:09:41Z</time>
      </trkpt>
      <trkpt lat="47.87744" lon="6.9118">
        <ele>843.8</ele>
        <time>2022-11-02T14:09:42Z</time>
      </trkpt>
      <trkpt lat="47.87744" lon="6.91179">
        <ele>844</ele>
        <time>2022-11-02T14:09:43Z</time>
      </trkpt>
      <trkpt lat="47.87745" lon="6.91178">
        <ele>843.8</ele>
        <time>2022-11-02T14:09:44Z</time>
      </trkpt>
      <trkpt lat="47.87746" lon="6.91177">
        <ele>843.5</ele>
        <time>2022-11-02T14:09:45Z</time>
      </trkpt>
      <trkpt lat="47.87748" lon="6.91176">
        <ele>842.7</ele>
        <time>2022-11-02T14:09:46Z</time>
      </trkpt>
      <trkpt lat="47.87749" lon="6.91175">
        <ele>842.4</ele>
        <time>2022-11-02T14:09:47Z</time>
      </trkpt>
      <trkpt lat="47.8775" lon="6.91173">
        <ele>842.4</ele>
        <time>2022-11-02T14:09:48Z</time>
      </trkpt>
      <trkpt lat="47.87751" lon="6.91172">
        <ele>842.3</ele>
        <time>2022-11-02T14:09:49Z</time>
      </trkpt>
      <trkpt lat="47.87752" lon="6.91171">
        <ele>842.2</ele>
        <time>2022-11-02T14:09:50Z</time>
      </trkpt>
      <trkpt lat="47.87753" lon="6.9117">
        <ele>842.1</ele>
        <time>2022-11-02T14:09:51Z</time>
      </trkpt>
      <trkpt lat="47.87754" lon="6.91169">
        <ele>842</ele>
        <time>2022-11-02T14:09:52Z</time>
      </trkpt>
      <trkpt lat="47.87756" lon="6.91168">
        <ele>841.5</ele>
        <time>2022-11-02T14:09:53Z</time>
      </trkpt>
      <trkpt lat="47.87757" lon="6.91167">
        <ele>841.4</ele>
        <time>2022-11-02T14:09:54Z</time>
      </trkpt>
      <trkpt lat="47.87758" lon="6.91166">
        <ele>841.3</ele>
        <time>2022-11-02T14:09:55Z</time>
      </trkpt>
      <trkpt lat="47.87759" lon="6.91165">
        <ele>841.2</ele>
        <time>2022-11-02T14:09:56Z</time>
      </trkpt>
      <trkpt lat="47.8776" lon="6.91164">
        <ele>841</ele>
        <time>2022-11-02T14:09:57Z</time>
      </trkpt>
      <trkpt lat="47.87761" lon="6.91163">
        <ele>840.9</ele>
        <time>2022-11-02T14:09:58Z</time>
      </trkpt>
      <trkpt lat="47.87762" lon="6.91162">
        <ele>840.8</ele>
        <time>2022-11-02T14:09:59Z</time>
      </trkpt>
      <trkpt lat="47.87762" lon="6.9116">
        <ele>841.3</ele>
        <time>2022-11-02T14:10:00Z</time>
      </trkpt>
      <trkpt lat="47.87763" lon="6.91158">
        <ele>841.4</ele>
        <time>2022-11-02T14:10:01Z</time>
      </trkpt>
      <trkpt lat="47.87763" lon="6.91157">
        <ele>841.6</ele>
        <time>2022-11-02T14:10:02Z</time>
      </trkpt>
      <trkpt lat="47.87763" lon="6.91155">
        <ele>842.1</ele>
        <time>2022-11-02T14:10:03Z</time>
      </trkpt>
      <trkpt lat="47.87764" lon="6.91153">
        <ele>842.2</ele>
        <time>2022-11-02T14:10:04Z</time>
      </trkpt>
      <trkpt lat="47.87764" lon="6.91152">
        <ele>842.4</ele>
        <time>2022-11-02T14:10:05Z</time>
      </trkpt>
      <trkpt lat="47.87765" lon="6.91151">
        <ele>842.2</ele>
        <time>2022-11-02T14:10:06Z</time>
      </trkpt>
      <trkpt lat="47.87765" lon="6.91149">
        <ele>842.7</ele>
        <time>2022-11-02T14:10:07Z</time>
      </trkpt>
      <trkpt lat="47.87766" lon="6.91148">
        <ele>842.6</ele>
        <time>2022-11-02T14:10:08Z</time>
      </trkpt>
      <trkpt lat="47.87766" lon="6.91146">
        <ele>843</ele>
        <time>2022-11-02T14:10:09Z</time>
      </trkpt>
      <trkpt lat="47.87767" lon="6.91145">
        <ele>842.9</ele>
        <time>2022-11-02T14:10:10Z</time>
      </trkpt>
      <trkpt lat="47.87767" lon="6.91143">
        <ele>843.3</ele>
        <time>2022-11-02T14:10:11Z</time>
      </trkpt>
      <trkpt lat="47.87767" lon="6.91141">
        <ele>843.8</ele>
        <time>2022-11-02T14:10:12Z</time>
      </trkpt>
      <trkpt lat="47.87767" lon="6.91139">
        <ele>844.2</ele>
        <time>2022-11-02T14:10:13Z</time>
      </trkpt>
      <trkpt lat="47.87768" lon="6.91138">
        <ele>844</ele>
        <time>2022-11-02T14:10:14Z</time>
      </trkpt>
      <trkpt lat="47.87769" lon="6.91136">
        <ele>844</ele>
        <time>2022-11-02T14:10:15Z</time>
      </trkpt>
      <trkpt lat="47.8777" lon="6.91135">
        <ele>843.8</ele>
        <time>2022-11-02T14:10:16Z</time>
      </trkpt>
      <trkpt lat="47.87771" lon="6.91134">
        <ele>843.5</ele>
        <time>2022-11-02T14:10:17Z</time>
      </trkpt>
      <trkpt lat="47.87772" lon="6.91133">
        <ele>843.3</ele>
        <time>2022-11-02T14:10:18Z</time>
      </trkpt>
      <trkpt lat="47.87773" lon="6.91132">
        <ele>843</ele>
        <time>2022-11-02T14:10:19Z</time>
      </trkpt>
      <trkpt lat="47.87774" lon="6.91131">
        <ele>842.7</ele>
        <time>2022-11-02T14:10:20Z</time>
      </trkpt>
      <trkpt lat="47.87774" lon="6.9113">
        <ele>842.9</ele>
        <time>2022-11-02T14:10:21Z</time>
      </trkpt>
      <trkpt lat="47.87775" lon="6.91129">
        <ele>842.6</ele>
        <time>2022-11-02T14:10:22Z</time>
      </trkpt>
      <trkpt lat="47.87776" lon="6.91128">
        <ele>842.3</ele>
        <time>2022-11-02T14:10:23Z</time>
      </trkpt>
      <trkpt lat="47.87776" lon="6.91127">
        <ele>842.5</ele>
        <time>2022-11-02T14:10:24Z</time>
      </trkpt>
      <trkpt lat="47.87777" lon="6.91126">
        <ele>842.2</ele>
        <time>2022-11-02T14:10:25Z</time>
      </trkpt>
      <trkpt lat="47.87778" lon="6.91125">
        <ele>841.9</ele>
        <time>2022-11-02T14:10:26Z</time>
      </trkpt>
      <trkpt lat="47.87779" lon="6.91124">
        <ele>841.5</ele>
        <time>2022-11-02T14:10:27Z</time>
      </trkpt>
      <trkpt lat="47.8778" lon="6.91123">
        <ele>841.2</ele>
        <time>2022-11-02T14:10:28Z</time>
      </trkpt>
      <trkpt lat="47.8778" lon="6.91122">
        <ele>841.3</ele>
        <time>2022-11-02T14:10:29Z</time>
      </trkpt>
      <trkpt lat="47.87781" lon="6.91121">
        <ele>841</ele>
        <time>2022-11-02T14:10:30Z</time>
      </trkpt>
      <trkpt lat="47.87782" lon="6.9112">
        <ele>840.6</ele>
        <time>2022-11-02T14:10:31Z</time>
      </trkpt>
      <trkpt lat="47.87783" lon="6.91118">
        <ele>840.4</ele>
        <time>2022-11-02T14:10:32Z</time>
      </trkpt>
      <trkpt lat="47.87784" lon="6.91117">
        <ele>840</ele>
        <time>2022-11-02T14:10:33Z</time>
      </trkpt>
      <trkpt lat="47.87785" lon="6.91116">
        <ele>839.7</ele>
        <time>2022-11-02T14:10:34Z</time>
      </trkpt>
      <trkpt lat="47.87785" lon="6.91115">
        <ele>839.8</ele>
        <time>2022-11-02T14:10:35Z</time>
      </trkpt>
      <trkpt lat="47.87786" lon="6.91113">
        <ele>839.6</ele>
        <time>2022-11-02T14:10:36Z</time>
      </trkpt>
      <trkpt lat="47.87787" lon="6.91112">
        <ele>839.2</ele>
        <time>2022-11-02T14:10:37Z</time>
      </trkpt>
      <trkpt lat="47.87788" lon="6.91111">
        <ele>838.9</ele>
        <time>2022-11-02T14:10:38Z</time>
      </trkpt>
      <trkpt lat="47.87788" lon="6.91109">
        <ele>839.3</ele>
        <time>2022-11-02T14:10:39Z</time>
      </trkpt>
      <trkpt lat="47.87789" lon="6.91108">
        <ele>839</ele>
        <time>2022-11-02T14:10:40Z</time>
      </trkpt>
      <trkpt lat="47.87789" lon="6.91106">
        <ele>839.4</ele>
        <time>2022-11-02T14:10:41Z</time>
      </trkpt>
      <trkpt lat="47.8779" lon="6.91104">
        <ele>839.4</ele>
        <time>2022-11-02T14:10:42Z</time>
      </trkpt>
      <trkpt lat="47.8779" lon="6.91102">
        <ele>839.8</ele>
        <time>2022-11-02T14:10:43Z</time>
      </trkpt>
      <trkpt lat="47.87791" lon="6.91101">
        <ele>839.5</ele>
        <time>2022-11-02T14:10:44Z</time>
      </trkpt>
      <trkpt lat="47.87792" lon="6.91099">
        <ele>839.4</ele>
        <time>2022-11-02T14:10:45Z</time>
      </trkpt>
      <trkpt lat="47.87794" lon="6.91098">
        <ele>838.7</ele>
        <time>2022-11-02T14:10:46Z</time>
      </trkpt>
      <trkpt lat="47.87795" lon="6.91097">
        <ele>838.4</ele>
        <time>2022-11-02T14:10:47Z</time>
      </trkpt>
      <trkpt lat="47.87796" lon="6.91096">
        <ele>838.1</ele>
        <time>2022-11-02T14:10:48Z</time>
      </trkpt>
      <trkpt lat="47.87798" lon="6.91095">
        <ele>837.3</ele>
        <time>2022-11-02T14:10:49Z</time>
      </trkpt>
      <trkpt lat="47.87799" lon="6.91094">
        <ele>837</ele>
        <time>2022-11-02T14:10:50Z</time>
      </trkpt>
      <trkpt lat="47.878" lon="6.91093">
        <ele>836.7</ele>
        <time>2022-11-02T14:10:51Z</time>
      </trkpt>
      <trkpt lat="47.87801" lon="6.91092">
        <ele>836.4</ele>
        <time>2022-11-02T14:10:52Z</time>
      </trkpt>
      <trkpt lat="47.87802" lon="6.91091">
        <ele>836.1</ele>
        <time>2022-11-02T14:10:53Z</time>
      </trkpt>
      <trkpt lat="47.87803" lon="6.9109">
        <ele>835.8</ele>
        <time>2022-11-02T14:10:54Z</time>
      </trkpt>
      <trkpt lat="47.87804" lon="6.91089">
        <ele>835.6</ele>
        <time>2022-11-02T14:10:55Z</time>
      </trkpt>
      <trkpt lat="47.87804" lon="6.91088">
        <ele>835.8</ele>
        <time>2022-11-02T14:10:56Z</time>
      </trkpt>
      <trkpt lat="47.87805" lon="6.91086">
        <ele>835.7</ele>
        <time>2022-11-02T14:10:57Z</time>
      </trkpt>
      <trkpt lat="47.87805" lon="6.91085">
        <ele>835.9</ele>
        <time>2022-11-02T14:10:58Z</time>
      </trkpt>
      <trkpt lat="47.87806" lon="6.91084">
        <ele>835.7</ele>
        <time>2022-11-02T14:10:59Z</time>
      </trkpt>
      <trkpt lat="47.87806" lon="6.91082">
        <ele>836.1</ele>
        <time>2022-11-02T14:11:00Z</time>
      </trkpt>
      <trkpt lat="47.87807" lon="6.91081">
        <ele>836</ele>
        <time>2022-11-02T14:11:01Z</time>
      </trkpt>
      <trkpt lat="47.87807" lon="6.91079">
        <ele>836.3</ele>
        <time>2022-11-02T14:11:02Z</time>
      </trkpt>
      <trkpt lat="47.87807" lon="6.91078">
        <ele>836.5</ele>
        <time>2022-11-02T14:11:03Z</time>
      </trkpt>
      <trkpt lat="47.87808" lon="6.91076">
        <ele>836.6</ele>
        <time>2022-11-02T14:11:04Z</time>
      </trkpt>
      <trkpt lat="47.87808" lon="6.91075">
        <ele>836.8</ele>
        <time>2022-11-02T14:11:05Z</time>
      </trkpt>
      <trkpt lat="47.87809" lon="6.91073">
        <ele>836.8</ele>
        <time>2022-11-02T14:11:06Z</time>
      </trkpt>
      <trkpt lat="47.8781" lon="6.91072">
        <ele>836.7</ele>
        <time>2022-11-02T14:11:07Z</time>
      </trkpt>
      <trkpt lat="47.87811" lon="6.91071">
        <ele>836.6</ele>
        <time>2022-11-02T14:11:08Z</time>
      </trkpt>
      <trkpt lat="47.87812" lon="6.9107">
        <ele>836.5</ele>
        <time>2022-11-02T14:11:09Z</time>
      </trkpt>
      <trkpt lat="47.87813" lon="6.91069">
        <ele>836.4</ele>
        <time>2022-11-02T14:11:10Z</time>
      </trkpt>
      <trkpt lat="47.87813" lon="6.91068">
        <ele>836.6</ele>
        <time>2022-11-02T14:11:11Z</time>
      </trkpt>
      <trkpt lat="47.87814" lon="6.91067">
        <ele>836.6</ele>
        <time>2022-11-02T14:11:12Z</time>
      </trkpt>
      <trkpt lat="47.87815" lon="6.91065">
        <ele>836.7</ele>
        <time>2022-11-02T14:11:13Z</time>
      </trkpt>
      <trkpt lat="47.87815" lon="6.91064">
        <ele>836.9</ele>
        <time>2022-11-02T14:11:14Z</time>
      </trkpt>
      <trkpt lat="47.87816" lon="6.91063">
        <ele>836.8</ele>
        <time>2022-11-02T14:11:15Z</time>
      </trkpt>
      <trkpt lat="47.87816" lon="6.91062">
        <ele>837</ele>
        <time>2022-11-02T14:11:16Z</time>
      </trkpt>
      <trkpt lat="47.87816" lon="6.9106">
        <ele>837.4</ele>
        <time>2022-11-02T14:11:17Z</time>
      </trkpt>
      <trkpt lat="47.87817" lon="6.91058">
        <ele>837.6</ele>
        <time>2022-11-02T14:11:18Z</time>
      </trkpt>
      <trkpt lat="47.87817" lon="6.91057">
        <ele>837.8</ele>
        <time>2022-11-02T14:11:19Z</time>
      </trkpt>
      <trkpt lat="47.87817" lon="6.91055">
        <ele>838.2</ele>
        <time>2022-11-02T14:11:20Z</time>
      </trkpt>
      <trkpt lat="47.87817" lon="6.91053">
        <ele>838.6</ele>
        <time>2022-11-02T14:11:21Z</time>
      </trkpt>
      <trkpt lat="47.87817" lon="6.91051">
        <ele>839</ele>
        <time>2022-11-02T14:11:22Z</time>
      </trkpt>
      <trkpt lat="47.87817" lon="6.91049">
        <ele>839.3</ele>
        <time>2022-11-02T14:11:23Z</time>
      </trkpt>
      <trkpt lat="47.87817" lon="6.91048">
        <ele>839.5</ele>
        <time>2022-11-02T14:11:24Z</time>
      </trkpt>
      <trkpt lat="47.87817" lon="6.91046">
        <ele>839.9</ele>
        <time>2022-11-02T14:11:25Z</time>
      </trkpt>
      <trkpt lat="47.87818" lon="6.91045">
        <ele>839.8</ele>
        <time>2022-11-02T14:11:26Z</time>
      </trkpt>
      <trkpt lat="47.87818" lon="6.91044">
        <ele>840</ele>
        <time>2022-11-02T14:11:27Z</time>
      </trkpt>
      <trkpt lat="47.87819" lon="6.91043">
        <ele>839.9</ele>
        <time>2022-11-02T14:11:28Z</time>
      </trkpt>
      <trkpt lat="47.8782" lon="6.91042">
        <ele>839.8</ele>
        <time>2022-11-02T14:11:29Z</time>
      </trkpt>
      <trkpt lat="47.8782" lon="6.91041">
        <ele>840</ele>
        <time>2022-11-02T14:11:30Z</time>
      </trkpt>
      <trkpt lat="47.8782" lon="6.9104">
        <ele>840.1</ele>
        <time>2022-11-02T14:11:31Z</time>
      </trkpt>
      <trkpt lat="47.87821" lon="6.91039">
        <ele>840</ele>
        <time>2022-11-02T14:11:32Z</time>
      </trkpt>
      <trkpt lat="47.87822" lon="6.91038">
        <ele>839.9</ele>
        <time>2022-11-02T14:11:33Z</time>
      </trkpt>
      <trkpt lat="47.87822" lon="6.91037">
        <ele>840.1</ele>
        <time>2022-11-02T14:11:34Z</time>
      </trkpt>
      <trkpt lat="47.87823" lon="6.91036">
        <ele>839.9</ele>
        <time>2022-11-02T14:11:35Z</time>
      </trkpt>
      <trkpt lat="47.87824" lon="6.91035">
        <ele>839.8</ele>
        <time>2022-11-02T14:11:36Z</time>
      </trkpt>
      <trkpt lat="47.87824" lon="6.91034">
        <ele>840</ele>
        <time>2022-11-02T14:11:37Z</time>
      </trkpt>
      <trkpt lat="47.87825" lon="6.91033">
        <ele>839.8</ele>
        <time>2022-11-02T14:11:38Z</time>
      </trkpt>
      <trkpt lat="47.87825" lon="6.91032">
        <ele>840</ele>
        <time>2022-11-02T14:11:39Z</time>
      </trkpt>
      <trkpt lat="47.87826" lon="6.9103">
        <ele>840</ele>
        <time>2022-11-02T14:11:40Z</time>
      </trkpt>
      <trkpt lat="47.87826" lon="6.91029">
        <ele>840.2</ele>
        <time>2022-11-02T14:11:41Z</time>
      </trkpt>
      <trkpt lat="47.87827" lon="6.91027">
        <ele>840.1</ele>
        <time>2022-11-02T14:11:42Z</time>
      </trkpt>
      <trkpt lat="47.87827" lon="6.91026">
        <ele>840.1</ele>
        <time>2022-11-02T14:11:43Z</time>
      </trkpt>
      <trkpt lat="47.87828" lon="6.91024">
        <ele>839.9</ele>
        <time>2022-11-02T14:11:44Z</time>
      </trkpt>
      <trkpt lat="47.87828" lon="6.91023">
        <ele>839.9</ele>
        <time>2022-11-02T14:11:45Z</time>
      </trkpt>
      <trkpt lat="47.87829" lon="6.91021">
        <ele>839.7</ele>
        <time>2022-11-02T14:11:46Z</time>
      </trkpt>
      <trkpt lat="47.8783" lon="6.9102">
        <ele>839.4</ele>
        <time>2022-11-02T14:11:47Z</time>
      </trkpt>
      <trkpt lat="47.8783" lon="6.91019">
        <ele>839.4</ele>
        <time>2022-11-02T14:11:48Z</time>
      </trkpt>
      <trkpt lat="47.87831" lon="6.91019">
        <ele>839.1</ele>
        <time>2022-11-02T14:11:49Z</time>
      </trkpt>
      <trkpt lat="47.87832" lon="6.91018">
        <ele>838.8</ele>
        <time>2022-11-02T14:11:50Z</time>
      </trkpt>
      <trkpt lat="47.87833" lon="6.91017">
        <ele>838.5</ele>
        <time>2022-11-02T14:11:51Z</time>
      </trkpt>
      <trkpt lat="47.87834" lon="6.91016">
        <ele>838.4</ele>
        <time>2022-11-02T14:11:52Z</time>
      </trkpt>
      <trkpt lat="47.87835" lon="6.91015">
        <ele>838.5</ele>
        <time>2022-11-02T14:11:53Z</time>
      </trkpt>
      <trkpt lat="47.87836" lon="6.91014">
        <ele>838.6</ele>
        <time>2022-11-02T14:11:54Z</time>
      </trkpt>
      <trkpt lat="47.87837" lon="6.91014">
        <ele>838.6</ele>
        <time>2022-11-02T14:11:55Z</time>
      </trkpt>
      <trkpt lat="47.87838" lon="6.91013">
        <ele>838.7</ele>
        <time>2022-11-02T14:11:56Z</time>
      </trkpt>
      <trkpt lat="47.87839" lon="6.91012">
        <ele>838.8</ele>
        <time>2022-11-02T14:11:57Z</time>
      </trkpt>
      <trkpt lat="47.8784" lon="6.91012">
        <ele>838.8</ele>
        <time>2022-11-02T14:11:58Z</time>
      </trkpt>
      <trkpt lat="47.87841" lon="6.91011">
        <ele>838.9</ele>
        <time>2022-11-02T14:11:59Z</time>
      </trkpt>
      <trkpt lat="47.87842" lon="6.91011">
        <ele>839</ele>
        <time>2022-11-02T14:12:00Z</time>
      </trkpt>
      <trkpt lat="47.87843" lon="6.9101">
        <ele>839.1</ele>
        <time>2022-11-02T14:12:01Z</time>
      </trkpt>
      <trkpt lat="47.87844" lon="6.9101">
        <ele>839.1</ele>
        <time>2022-11-02T14:12:02Z</time>
      </trkpt>
      <trkpt lat="47.87844" lon="6.91009">
        <ele>839.2</ele>
        <time>2022-11-02T14:12:03Z</time>
      </trkpt>
      <trkpt lat="47.87845" lon="6.91009">
        <ele>839.2</ele>
        <time>2022-11-02T14:12:04Z</time>
      </trkpt>
      <trkpt lat="47.87846" lon="6.91009">
        <ele>839.3</ele>
        <time>2022-11-02T14:12:05Z</time>
      </trkpt>
      <trkpt lat="47.87847" lon="6.91009">
        <ele>839.3</ele>
        <time>2022-11-02T14:12:06Z</time>
      </trkpt>
      <trkpt lat="47.87849" lon="6.91009">
        <ele>839.4</ele>
        <time>2022-11-02T14:12:07Z</time>
      </trkpt>
      <trkpt lat="47.8785" lon="6.91009">
        <ele>839.5</ele>
        <time>2022-11-02T14:12:08Z</time>
      </trkpt>
      <trkpt lat="47.87851" lon="6.9101">
        <ele>839.5</ele>
        <time>2022-11-02T14:12:09Z</time>
      </trkpt>
      <trkpt lat="47.87853" lon="6.9101">
        <ele>839.5</ele>
        <time>2022-11-02T14:12:10Z</time>
      </trkpt>
      <trkpt lat="47.87854" lon="6.9101">
        <ele>839.6</ele>
        <time>2022-11-02T14:12:11Z</time>
      </trkpt>
      <trkpt lat="47.87856" lon="6.91011">
        <ele>839.6</ele>
        <time>2022-11-02T14:12:12Z</time>
      </trkpt>
      <trkpt lat="47.87857" lon="6.91011">
        <ele>839.6</ele>
        <time>2022-11-02T14:12:13Z</time>
      </trkpt>
      <trkpt lat="47.87858" lon="6.91011">
        <ele>839.7</ele>
        <time>2022-11-02T14:12:14Z</time>
      </trkpt>
      <trkpt lat="47.87859" lon="6.91011">
        <ele>839.7</ele>
        <time>2022-11-02T14:12:15Z</time>
      </trkpt>
      <trkpt lat="47.87861" lon="6.91011">
        <ele>839.8</ele>
        <time>2022-11-02T14:12:16Z</time>
      </trkpt>
      <trkpt lat="47.87862" lon="6.91011">
        <ele>839.9</ele>
        <time>2022-11-02T14:12:17Z</time>
      </trkpt>
      <trkpt lat="47.87863" lon="6.9101">
        <ele>840</ele>
        <time>2022-11-02T14:12:18Z</time>
      </trkpt>
      <trkpt lat="47.87864" lon="6.9101">
        <ele>840.1</ele>
        <time>2022-11-02T14:12:19Z</time>
      </trkpt>
      <trkpt lat="47.87865" lon="6.91009">
        <ele>840.3</ele>
        <time>2022-11-02T14:12:20Z</time>
      </trkpt>
      <trkpt lat="47.87866" lon="6.91008">
        <ele>840.4</ele>
        <time>2022-11-02T14:12:21Z</time>
      </trkpt>
      <trkpt lat="47.87867" lon="6.91008">
        <ele>840.5</ele>
        <time>2022-11-02T14:12:22Z</time>
      </trkpt>
      <trkpt lat="47.87868" lon="6.91007">
        <ele>840.7</ele>
        <time>2022-11-02T14:12:23Z</time>
      </trkpt>
      <trkpt lat="47.8787" lon="6.91006">
        <ele>840.9</ele>
        <time>2022-11-02T14:12:24Z</time>
      </trkpt>
      <trkpt lat="47.87871" lon="6.91005">
        <ele>841.1</ele>
        <time>2022-11-02T14:12:31Z</time>
      </trkpt>
      <trkpt lat="47.87872" lon="6.91004">
        <ele>841.3</ele>
        <time>2022-11-02T14:12:32Z</time>
      </trkpt>
      <trkpt lat="47.87873" lon="6.91003">
        <ele>841.5</ele>
        <time>2022-11-02T14:12:34Z</time>
      </trkpt>
      <trkpt lat="47.87874" lon="6.91002">
        <ele>841.7</ele>
        <time>2022-11-02T14:12:35Z</time>
      </trkpt>
      <trkpt lat="47.87874" lon="6.91001">
        <ele>841.8</ele>
        <time>2022-11-02T14:12:36Z</time>
      </trkpt>
      <trkpt lat="47.87875" lon="6.91">
        <ele>842</ele>
        <time>2022-11-02T14:12:37Z</time>
      </trkpt>
      <trkpt lat="47.87875" lon="6.90998">
        <ele>842.2</ele>
        <time>2022-11-02T14:12:38Z</time>
      </trkpt>
      <trkpt lat="47.87875" lon="6.90997">
        <ele>842.3</ele>
        <time>2022-11-02T14:12:39Z</time>
      </trkpt>
      <trkpt lat="47.87875" lon="6.90995">
        <ele>842.4</ele>
        <time>2022-11-02T14:12:40Z</time>
      </trkpt>
      <trkpt lat="47.87874" lon="6.90993">
        <ele>842.5</ele>
        <time>2022-11-02T14:12:41Z</time>
      </trkpt>
      <trkpt lat="47.87874" lon="6.90992">
        <ele>842.6</ele>
        <time>2022-11-02T14:12:42Z</time>
      </trkpt>
      <trkpt lat="47.87875" lon="6.9099">
        <ele>842.9</ele>
        <time>2022-11-02T14:12:43Z</time>
      </trkpt>
      <trkpt lat="47.87875" lon="6.90989">
        <ele>843</ele>
        <time>2022-11-02T14:12:45Z</time>
      </trkpt>
      <trkpt lat="47.87876" lon="6.90988">
        <ele>843.2</ele>
        <time>2022-11-02T14:12:46Z</time>
      </trkpt>
      <trkpt lat="47.87876" lon="6.90987">
        <ele>843.3</ele>
        <time>2022-11-02T14:12:47Z</time>
      </trkpt>
      <trkpt lat="47.87877" lon="6.90985">
        <ele>843.5</ele>
        <time>2022-11-02T14:12:48Z</time>
      </trkpt>
      <trkpt lat="47.87877" lon="6.90984">
        <ele>843.6</ele>
        <time>2022-11-02T14:12:49Z</time>
      </trkpt>
      <trkpt lat="47.87878" lon="6.90983">
        <ele>843.8</ele>
        <time>2022-11-02T14:12:50Z</time>
      </trkpt>
      <trkpt lat="47.87879" lon="6.90982">
        <ele>844</ele>
        <time>2022-11-02T14:12:51Z</time>
      </trkpt>
      <trkpt lat="47.87879" lon="6.90981">
        <ele>844.1</ele>
        <time>2022-11-02T14:12:52Z</time>
      </trkpt>
      <trkpt lat="47.87879" lon="6.9098">
        <ele>844.2</ele>
        <time>2022-11-02T14:12:54Z</time>
      </trkpt>
      <trkpt lat="47.8788" lon="6.90979">
        <ele>844.4</ele>
        <time>2022-11-02T14:12:55Z</time>
      </trkpt>
      <trkpt lat="47.87879" lon="6.90977">
        <ele>844.5</ele>
        <time>2022-11-02T14:12:56Z</time>
      </trkpt>
      <trkpt lat="47.87879" lon="6.90976">
        <ele>844.6</ele>
        <time>2022-11-02T14:12:57Z</time>
      </trkpt>
      <trkpt lat="47.87879" lon="6.90974">
        <ele>844.8</ele>
        <time>2022-11-02T14:12:58Z</time>
      </trkpt>
      <trkpt lat="47.87879" lon="6.90972">
        <ele>845</ele>
        <time>2022-11-02T14:12:59Z</time>
      </trkpt>
      <trkpt lat="47.87879" lon="6.90971">
        <ele>845</ele>
        <time>2022-11-02T14:13:00Z</time>
      </trkpt>
      <trkpt lat="47.87879" lon="6.90969">
        <ele>845.2</ele>
        <time>2022-11-02T14:13:01Z</time>
      </trkpt>
      <trkpt lat="47.87879" lon="6.90968">
        <ele>845.3</ele>
        <time>2022-11-02T14:13:02Z</time>
      </trkpt>
      <trkpt lat="47.8788" lon="6.90967">
        <ele>845.5</ele>
        <time>2022-11-02T14:13:03Z</time>
      </trkpt>
      <trkpt lat="47.8788" lon="6.90966">
        <ele>845.6</ele>
        <time>2022-11-02T14:13:04Z</time>
      </trkpt>
      <trkpt lat="47.87881" lon="6.90964">
        <ele>845.8</ele>
        <time>2022-11-02T14:13:05Z</time>
      </trkpt>
      <trkpt lat="47.87882" lon="6.90963">
        <ele>846</ele>
        <time>2022-11-02T14:13:06Z</time>
      </trkpt>
      <trkpt lat="47.87882" lon="6.90962">
        <ele>846.1</ele>
        <time>2022-11-02T14:13:07Z</time>
      </trkpt>
      <trkpt lat="47.87883" lon="6.90961">
        <ele>846.3</ele>
        <time>2022-11-02T14:13:08Z</time>
      </trkpt>
      <trkpt lat="47.87883" lon="6.9096">
        <ele>846.3</ele>
        <time>2022-11-02T14:13:09Z</time>
      </trkpt>
      <trkpt lat="47.87884" lon="6.90959">
        <ele>846.5</ele>
        <time>2022-11-02T14:13:10Z</time>
      </trkpt>
      <trkpt lat="47.87884" lon="6.90958">
        <ele>846.6</ele>
        <time>2022-11-02T14:13:11Z</time>
      </trkpt>
      <trkpt lat="47.87884" lon="6.90957">
        <ele>846.7</ele>
        <time>2022-11-02T14:13:12Z</time>
      </trkpt>
      <trkpt lat="47.87885" lon="6.90956">
        <ele>846.8</ele>
        <time>2022-11-02T14:13:13Z</time>
      </trkpt>
      <trkpt lat="47.87885" lon="6.90955">
        <ele>846.9</ele>
        <time>2022-11-02T14:13:15Z</time>
      </trkpt>
      <trkpt lat="47.87886" lon="6.90954">
        <ele>847.1</ele>
        <time>2022-11-02T14:13:16Z</time>
      </trkpt>
      <trkpt lat="47.87887" lon="6.90953">
        <ele>847.2</ele>
        <time>2022-11-02T14:13:18Z</time>
      </trkpt>
      <trkpt lat="47.87887" lon="6.90952">
        <ele>847.3</ele>
        <time>2022-11-02T14:13:19Z</time>
      </trkpt>
      <trkpt lat="47.87888" lon="6.90951">
        <ele>847.5</ele>
        <time>2022-11-02T14:13:20Z</time>
      </trkpt>
      <trkpt lat="47.87888" lon="6.9095">
        <ele>847.5</ele>
        <time>2022-11-02T14:13:22Z</time>
      </trkpt>
      <trkpt lat="47.87888" lon="6.90949">
        <ele>847.6</ele>
        <time>2022-11-02T14:13:37Z</time>
      </trkpt>
      <trkpt lat="47.87888" lon="6.90948">
        <ele>847.7</ele>
        <time>2022-11-02T14:13:38Z</time>
      </trkpt>
      <trkpt lat="47.87888" lon="6.90947">
        <ele>847.7</ele>
        <time>2022-11-02T14:13:39Z</time>
      </trkpt>
      <trkpt lat="47.87889" lon="6.90946">
        <ele>847.9</ele>
        <time>2022-11-02T14:13:40Z</time>
      </trkpt>
      <trkpt lat="47.87889" lon="6.90945">
        <ele>848</ele>
        <time>2022-11-02T14:13:42Z</time>
      </trkpt>
      <trkpt lat="47.8789" lon="6.90944">
        <ele>848.3</ele>
        <time>2022-11-02T14:13:43Z</time>
      </trkpt>
      <trkpt lat="47.8789" lon="6.90943">
        <ele>848.4</ele>
        <time>2022-11-02T14:13:44Z</time>
      </trkpt>
      <trkpt lat="47.8789" lon="6.90942">
        <ele>848.5</ele>
        <time>2022-11-02T14:13:45Z</time>
      </trkpt>
      <trkpt lat="47.8789" lon="6.9094">
        <ele>848.8</ele>
        <time>2022-11-02T14:13:46Z</time>
      </trkpt>
      <trkpt lat="47.8789" lon="6.90939">
        <ele>848.9</ele>
        <time>2022-11-02T14:13:47Z</time>
      </trkpt>
      <trkpt lat="47.8789" lon="6.90938">
        <ele>849</ele>
        <time>2022-11-02T14:13:48Z</time>
      </trkpt>
      <trkpt lat="47.8789" lon="6.90937">
        <ele>849.1</ele>
        <time>2022-11-02T14:13:49Z</time>
      </trkpt>
      <trkpt lat="47.8789" lon="6.90936">
        <ele>849.2</ele>
        <time>2022-11-02T14:13:50Z</time>
      </trkpt>
      <trkpt lat="47.8789" lon="6.90935">
        <ele>849.3</ele>
        <time>2022-11-02T14:13:51Z</time>
      </trkpt>
      <trkpt lat="47.87891" lon="6.90934">
        <ele>849.7</ele>
        <time>2022-11-02T14:13:52Z</time>
      </trkpt>
      <trkpt lat="47.87891" lon="6.90933">
        <ele>849.8</ele>
        <time>2022-11-02T14:13:53Z</time>
      </trkpt>
      <trkpt lat="47.87891" lon="6.90932">
        <ele>849.9</ele>
        <time>2022-11-02T14:13:54Z</time>
      </trkpt>
      <trkpt lat="47.87891" lon="6.90931">
        <ele>850</ele>
        <time>2022-11-02T14:13:55Z</time>
      </trkpt>
      <trkpt lat="47.87891" lon="6.9093">
        <ele>850.1</ele>
        <time>2022-11-02T14:13:56Z</time>
      </trkpt>
      <trkpt lat="47.87892" lon="6.90929">
        <ele>850.5</ele>
        <time>2022-11-02T14:13:57Z</time>
      </trkpt>
      <trkpt lat="47.87891" lon="6.90927">
        <ele>850.5</ele>
        <time>2022-11-02T14:13:58Z</time>
      </trkpt>
      <trkpt lat="47.87891" lon="6.90926">
        <ele>850.6</ele>
        <time>2022-11-02T14:13:59Z</time>
      </trkpt>
      <trkpt lat="47.87891" lon="6.90925">
        <ele>850.7</ele>
        <time>2022-11-02T14:14:00Z</time>
      </trkpt>
      <trkpt lat="47.87891" lon="6.90924">
        <ele>850.8</ele>
        <time>2022-11-02T14:14:01Z</time>
      </trkpt>
      <trkpt lat="47.87891" lon="6.90923">
        <ele>850.9</ele>
        <time>2022-11-02T14:14:02Z</time>
      </trkpt>
      <trkpt lat="47.87891" lon="6.90922">
        <ele>851</ele>
        <time>2022-11-02T14:14:03Z</time>
      </trkpt>
      <trkpt lat="47.87891" lon="6.9092">
        <ele>851.2</ele>
        <time>2022-11-02T14:14:04Z</time>
      </trkpt>
      <trkpt lat="47.87892" lon="6.90919">
        <ele>851.6</ele>
        <time>2022-11-02T14:14:05Z</time>
      </trkpt>
      <trkpt lat="47.87891" lon="6.90917">
        <ele>851.6</ele>
        <time>2022-11-02T14:14:06Z</time>
      </trkpt>
      <trkpt lat="47.87891" lon="6.90916">
        <ele>851.7</ele>
        <time>2022-11-02T14:14:07Z</time>
      </trkpt>
      <trkpt lat="47.87891" lon="6.9091">
        <ele>852.6</ele>
        <time>2022-11-02T14:14:21Z</time>
      </trkpt>
      <trkpt lat="47.8789" lon="6.90908">
        <ele>852.6</ele>
        <time>2022-11-02T14:14:22Z</time>
      </trkpt>
      <trkpt lat="47.8789" lon="6.90906">
        <ele>852.9</ele>
        <time>2022-11-02T14:14:23Z</time>
      </trkpt>
      <trkpt lat="47.8789" lon="6.90904">
        <ele>853.2</ele>
        <time>2022-11-02T14:14:24Z</time>
      </trkpt>
      <trkpt lat="47.8789" lon="6.90903">
        <ele>853.3</ele>
        <time>2022-11-02T14:14:25Z</time>
      </trkpt>
      <trkpt lat="47.87889" lon="6.90902">
        <ele>853.1</ele>
        <time>2022-11-02T14:14:26Z</time>
      </trkpt>
      <trkpt lat="47.87889" lon="6.909">
        <ele>853.4</ele>
        <time>2022-11-02T14:14:27Z</time>
      </trkpt>
      <trkpt lat="47.87888" lon="6.90899">
        <ele>853.5</ele>
        <time>2022-11-02T14:14:28Z</time>
      </trkpt>
      <trkpt lat="47.87887" lon="6.90898">
        <ele>853.7</ele>
        <time>2022-11-02T14:14:30Z</time>
      </trkpt>
      <trkpt lat="47.87887" lon="6.90897">
        <ele>853.8</ele>
        <time>2022-11-02T14:14:31Z</time>
      </trkpt>
      <trkpt lat="47.87887" lon="6.90896">
        <ele>854</ele>
        <time>2022-11-02T14:14:32Z</time>
      </trkpt>
      <trkpt lat="47.87887" lon="6.90895">
        <ele>854.1</ele>
        <time>2022-11-02T14:14:33Z</time>
      </trkpt>
      <trkpt lat="47.87887" lon="6.90894">
        <ele>854.3</ele>
        <time>2022-11-02T14:14:34Z</time>
      </trkpt>
      <trkpt lat="47.87887" lon="6.90893">
        <ele>854.4</ele>
        <time>2022-11-02T14:14:35Z</time>
      </trkpt>
      <trkpt lat="47.87887" lon="6.90892">
        <ele>854.5</ele>
        <time>2022-11-02T14:14:36Z</time>
      </trkpt>
      <trkpt lat="47.87887" lon="6.90891">
        <ele>854.7</ele>
        <time>2022-11-02T14:14:37Z</time>
      </trkpt>
      <trkpt lat="47.87887" lon="6.9089">
        <ele>854.8</ele>
        <time>2022-11-02T14:14:38Z</time>
      </trkpt>
      <trkpt lat="47.87887" lon="6.90889">
        <ele>855</ele>
        <time>2022-11-02T14:14:39Z</time>
      </trkpt>
      <trkpt lat="47.87887" lon="6.90888">
        <ele>855.1</ele>
        <time>2022-11-02T14:14:40Z</time>
      </trkpt>
      <trkpt lat="47.87887" lon="6.90887">
        <ele>855.3</ele>
        <time>2022-11-02T14:14:41Z</time>
      </trkpt>
      <trkpt lat="47.87887" lon="6.90886">
        <ele>855.4</ele>
        <time>2022-11-02T14:14:42Z</time>
      </trkpt>
      <trkpt lat="47.87887" lon="6.90885">
        <ele>855.6</ele>
        <time>2022-11-02T14:14:43Z</time>
      </trkpt>
      <trkpt lat="47.87887" lon="6.90884">
        <ele>855.7</ele>
        <time>2022-11-02T14:14:44Z</time>
      </trkpt>
      <trkpt lat="47.87887" lon="6.90883">
        <ele>855.9</ele>
        <time>2022-11-02T14:14:45Z</time>
      </trkpt>
      <trkpt lat="47.87886" lon="6.90882">
        <ele>856</ele>
        <time>2022-11-02T14:14:46Z</time>
      </trkpt>
      <trkpt lat="47.87886" lon="6.90881">
        <ele>856.2</ele>
        <time>2022-11-02T14:14:47Z</time>
      </trkpt>
      <trkpt lat="47.87886" lon="6.90879">
        <ele>856.5</ele>
        <time>2022-11-02T14:14:48Z</time>
      </trkpt>
      <trkpt lat="47.87886" lon="6.90878">
        <ele>856.6</ele>
        <time>2022-11-02T14:14:56Z</time>
      </trkpt>
      <trkpt lat="47.87887" lon="6.90878">
        <ele>856.6</ele>
        <time>2022-11-02T14:14:57Z</time>
      </trkpt>
      <trkpt lat="47.87887" lon="6.90877">
        <ele>856.7</ele>
        <time>2022-11-02T14:14:58Z</time>
      </trkpt>
      <trkpt lat="47.87889" lon="6.90875">
        <ele>857</ele>
        <time>2022-11-02T14:15:04Z</time>
      </trkpt>
      <trkpt lat="47.87889" lon="6.90873">
        <ele>857.3</ele>
        <time>2022-11-02T14:15:05Z</time>
      </trkpt>
      <trkpt lat="47.87889" lon="6.90871">
        <ele>857.6</ele>
        <time>2022-11-02T14:15:06Z</time>
      </trkpt>
      <trkpt lat="47.87889" lon="6.9087">
        <ele>857.8</ele>
        <time>2022-11-02T14:15:07Z</time>
      </trkpt>
      <trkpt lat="47.87889" lon="6.90869">
        <ele>857.9</ele>
        <time>2022-11-02T14:15:08Z</time>
      </trkpt>
      <trkpt lat="47.87889" lon="6.90867">
        <ele>858.2</ele>
        <time>2022-11-02T14:15:09Z</time>
      </trkpt>
      <trkpt lat="47.87888" lon="6.90866">
        <ele>858.3</ele>
        <time>2022-11-02T14:15:10Z</time>
      </trkpt>
      <trkpt lat="47.87887" lon="6.90865">
        <ele>858.5</ele>
        <time>2022-11-02T14:15:11Z</time>
      </trkpt>
      <trkpt lat="47.87887" lon="6.90863">
        <ele>858.8</ele>
        <time>2022-11-02T14:15:12Z</time>
      </trkpt>
      <trkpt lat="47.87886" lon="6.90862">
        <ele>859</ele>
        <time>2022-11-02T14:15:13Z</time>
      </trkpt>
      <trkpt lat="47.87885" lon="6.90861">
        <ele>859.2</ele>
        <time>2022-11-02T14:15:14Z</time>
      </trkpt>
      <trkpt lat="47.87884" lon="6.9086">
        <ele>859.3</ele>
        <time>2022-11-02T14:15:15Z</time>
      </trkpt>
      <trkpt lat="47.87883" lon="6.90859">
        <ele>859.4</ele>
        <time>2022-11-02T14:15:16Z</time>
      </trkpt>
      <trkpt lat="47.87883" lon="6.90858">
        <ele>859.5</ele>
        <time>2022-11-02T14:15:17Z</time>
      </trkpt>
      <trkpt lat="47.87882" lon="6.90857">
        <ele>859.7</ele>
        <time>2022-11-02T14:15:18Z</time>
      </trkpt>
      <trkpt lat="47.87882" lon="6.90856">
        <ele>859.8</ele>
        <time>2022-11-02T14:15:19Z</time>
      </trkpt>
      <trkpt lat="47.87882" lon="6.90855">
        <ele>859.9</ele>
        <time>2022-11-02T14:15:20Z</time>
      </trkpt>
      <trkpt lat="47.87882" lon="6.90854">
        <ele>860</ele>
        <time>2022-11-02T14:15:21Z</time>
      </trkpt>
      <trkpt lat="47.87881" lon="6.90853">
        <ele>860.2</ele>
        <time>2022-11-02T14:15:22Z</time>
      </trkpt>
      <trkpt lat="47.87881" lon="6.90851">
        <ele>860.4</ele>
        <time>2022-11-02T14:15:23Z</time>
      </trkpt>
      <trkpt lat="47.87881" lon="6.9085">
        <ele>860.5</ele>
        <time>2022-11-02T14:15:24Z</time>
      </trkpt>
      <trkpt lat="47.8788" lon="6.90849">
        <ele>860.6</ele>
        <time>2022-11-02T14:15:25Z</time>
      </trkpt>
      <trkpt lat="47.8788" lon="6.90847">
        <ele>860.8</ele>
        <time>2022-11-02T14:15:26Z</time>
      </trkpt>
      <trkpt lat="47.87879" lon="6.90846">
        <ele>861</ele>
        <time>2022-11-02T14:15:27Z</time>
      </trkpt>
      <trkpt lat="47.87879" lon="6.90845">
        <ele>861.1</ele>
        <time>2022-11-02T14:15:28Z</time>
      </trkpt>
      <trkpt lat="47.87879" lon="6.90844">
        <ele>861.2</ele>
        <time>2022-11-02T14:15:29Z</time>
      </trkpt>
      <trkpt lat="47.87878" lon="6.90843">
        <ele>861.3</ele>
        <time>2022-11-02T14:15:30Z</time>
      </trkpt>
      <trkpt lat="47.87878" lon="6.90842">
        <ele>861.5</ele>
        <time>2022-11-02T14:15:31Z</time>
      </trkpt>
      <trkpt lat="47.87878" lon="6.90841">
        <ele>861.6</ele>
        <time>2022-11-02T14:15:33Z</time>
      </trkpt>
      <trkpt lat="47.87877" lon="6.90841">
        <ele>861.6</ele>
        <time>2022-11-02T14:15:34Z</time>
      </trkpt>
      <trkpt lat="47.87877" lon="6.9084">
        <ele>861.7</ele>
        <time>2022-11-02T14:15:35Z</time>
      </trkpt>
      <trkpt lat="47.87876" lon="6.90839">
        <ele>861.9</ele>
        <time>2022-11-02T14:15:37Z</time>
      </trkpt>
      <trkpt lat="47.87876" lon="6.90838">
        <ele>862</ele>
        <time>2022-11-02T14:15:38Z</time>
      </trkpt>
      <trkpt lat="47.87875" lon="6.90837">
        <ele>862.1</ele>
        <time>2022-11-02T14:15:40Z</time>
      </trkpt>
      <trkpt lat="47.87875" lon="6.90836">
        <ele>862.2</ele>
        <time>2022-11-02T14:15:41Z</time>
      </trkpt>
      <trkpt lat="47.87874" lon="6.90836">
        <ele>862.2</ele>
        <time>2022-11-02T14:15:42Z</time>
      </trkpt>
      <trkpt lat="47.87874" lon="6.90835">
        <ele>862.4</ele>
        <time>2022-11-02T14:15:43Z</time>
      </trkpt>
      <trkpt lat="47.87874" lon="6.90834">
        <ele>862.5</ele>
        <time>2022-11-02T14:15:44Z</time>
      </trkpt>
      <trkpt lat="47.87874" lon="6.90833">
        <ele>862.6</ele>
        <time>2022-11-02T14:15:45Z</time>
      </trkpt>
      <trkpt lat="47.87874" lon="6.90832">
        <ele>862.7</ele>
        <time>2022-11-02T14:15:47Z</time>
      </trkpt>
      <trkpt lat="47.87874" lon="6.9083">
        <ele>863.1</ele>
        <time>2022-11-02T14:15:49Z</time>
      </trkpt>
      <trkpt lat="47.87874" lon="6.90829">
        <ele>863.2</ele>
        <time>2022-11-02T14:15:50Z</time>
      </trkpt>
      <trkpt lat="47.87874" lon="6.90822">
        <ele>864.3</ele>
        <time>2022-11-02T14:16:12Z</time>
      </trkpt>
      <trkpt lat="47.87874" lon="6.90818">
        <ele>865</ele>
        <time>2022-11-02T14:16:13Z</time>
      </trkpt>
      <trkpt lat="47.87874" lon="6.90815">
        <ele>865.4</ele>
        <time>2022-11-02T14:16:14Z</time>
      </trkpt>
      <trkpt lat="47.87874" lon="6.90812">
        <ele>865.9</ele>
        <time>2022-11-02T14:16:15Z</time>
      </trkpt>
      <trkpt lat="47.87875" lon="6.9081">
        <ele>866.3</ele>
        <time>2022-11-02T14:16:16Z</time>
      </trkpt>
      <trkpt lat="47.87875" lon="6.90809">
        <ele>866.4</ele>
        <time>2022-11-02T14:16:17Z</time>
      </trkpt>
      <trkpt lat="47.87875" lon="6.90808">
        <ele>866.6</ele>
        <time>2022-11-02T14:16:18Z</time>
      </trkpt>
      <trkpt lat="47.87875" lon="6.90807">
        <ele>866.8</ele>
        <time>2022-11-02T14:16:19Z</time>
      </trkpt>
      <trkpt lat="47.87875" lon="6.90806">
        <ele>866.9</ele>
        <time>2022-11-02T14:16:20Z</time>
      </trkpt>
      <trkpt lat="47.87876" lon="6.90804">
        <ele>867.4</ele>
        <time>2022-11-02T14:16:21Z</time>
      </trkpt>
      <trkpt lat="47.87877" lon="6.90802">
        <ele>868</ele>
        <time>2022-11-02T14:16:22Z</time>
      </trkpt>
      <trkpt lat="47.87877" lon="6.90801">
        <ele>868.2</ele>
        <time>2022-11-02T14:16:23Z</time>
      </trkpt>
      <trkpt lat="47.87878" lon="6.90799">
        <ele>868.8</ele>
        <time>2022-11-02T14:16:24Z</time>
      </trkpt>
      <trkpt lat="47.87878" lon="6.90798">
        <ele>869.1</ele>
        <time>2022-11-02T14:16:25Z</time>
      </trkpt>
      <trkpt lat="47.87878" lon="6.90797">
        <ele>869.3</ele>
        <time>2022-11-02T14:16:26Z</time>
      </trkpt>
      <trkpt lat="47.87879" lon="6.90796">
        <ele>869.7</ele>
        <time>2022-11-02T14:16:27Z</time>
      </trkpt>
      <trkpt lat="47.8788" lon="6.90795">
        <ele>870</ele>
        <time>2022-11-02T14:16:28Z</time>
      </trkpt>
      <trkpt lat="47.8788" lon="6.90794">
        <ele>870.3</ele>
        <time>2022-11-02T14:16:29Z</time>
      </trkpt>
      <trkpt lat="47.87881" lon="6.90793">
        <ele>870.7</ele>
        <time>2022-11-02T14:16:30Z</time>
      </trkpt>
      <trkpt lat="47.8788" lon="6.90792">
        <ele>870.8</ele>
        <time>2022-11-02T14:17:58Z</time>
      </trkpt>
      <trkpt lat="47.87879" lon="6.90791">
        <ele>870.9</ele>
        <time>2022-11-02T14:17:59Z</time>
      </trkpt>
      <trkpt lat="47.87879" lon="6.9079">
        <ele>871.2</ele>
        <time>2022-11-02T14:18:01Z</time>
      </trkpt>
      <trkpt lat="47.87878" lon="6.9079">
        <ele>871</ele>
        <time>2022-11-02T14:18:02Z</time>
      </trkpt>
      <trkpt lat="47.87878" lon="6.90789">
        <ele>871.3</ele>
        <time>2022-11-02T14:18:03Z</time>
      </trkpt>
      <trkpt lat="47.87878" lon="6.90788">
        <ele>871.5</ele>
        <time>2022-11-02T14:18:04Z</time>
      </trkpt>
      <trkpt lat="47.87878" lon="6.90787">
        <ele>871.8</ele>
        <time>2022-11-02T14:18:05Z</time>
      </trkpt>
      <trkpt lat="47.87878" lon="6.90786">
        <ele>872</ele>
        <time>2022-11-02T14:18:06Z</time>
      </trkpt>
      <trkpt lat="47.87878" lon="6.90785">
        <ele>872.3</ele>
        <time>2022-11-02T14:18:07Z</time>
      </trkpt>
      <trkpt lat="47.87878" lon="6.90784">
        <ele>872.5</ele>
        <time>2022-11-02T14:18:08Z</time>
      </trkpt>
      <trkpt lat="47.87878" lon="6.90783">
        <ele>872.8</ele>
        <time>2022-11-02T14:18:09Z</time>
      </trkpt>
      <trkpt lat="47.87878" lon="6.90782">
        <ele>873</ele>
        <time>2022-11-02T14:18:10Z</time>
      </trkpt>
      <trkpt lat="47.87878" lon="6.90781">
        <ele>873.2</ele>
        <time>2022-11-02T14:18:11Z</time>
      </trkpt>
      <trkpt lat="47.87878" lon="6.9078">
        <ele>873.5</ele>
        <time>2022-11-02T14:18:12Z</time>
      </trkpt>
      <trkpt lat="47.87879" lon="6.90779">
        <ele>873.9</ele>
        <time>2022-11-02T14:18:13Z</time>
      </trkpt>
      <trkpt lat="47.87879" lon="6.90778">
        <ele>874.2</ele>
        <time>2022-11-02T14:18:14Z</time>
      </trkpt>
      <trkpt lat="47.87879" lon="6.90777">
        <ele>874.4</ele>
        <time>2022-11-02T14:18:15Z</time>
      </trkpt>
      <trkpt lat="47.87879" lon="6.90776">
        <ele>874.6</ele>
        <time>2022-11-02T14:18:16Z</time>
      </trkpt>
      <trkpt lat="47.87879" lon="6.90775">
        <ele>874.9</ele>
        <time>2022-11-02T14:18:17Z</time>
      </trkpt>
      <trkpt lat="47.87879" lon="6.90773">
        <ele>875.3</ele>
        <time>2022-11-02T14:18:19Z</time>
      </trkpt>
      <trkpt lat="47.8788" lon="6.90772">
        <ele>875.7</ele>
        <time>2022-11-02T14:18:20Z</time>
      </trkpt>
      <trkpt lat="47.8788" lon="6.90771">
        <ele>875.9</ele>
        <time>2022-11-02T14:18:21Z</time>
      </trkpt>
      <trkpt lat="47.8788" lon="6.9077">
        <ele>876.2</ele>
        <time>2022-11-02T14:18:22Z</time>
      </trkpt>
      <trkpt lat="47.8788" lon="6.90769">
        <ele>876.4</ele>
        <time>2022-11-02T14:18:24Z</time>
      </trkpt>
      <trkpt lat="47.8788" lon="6.90768">
        <ele>876.6</ele>
        <time>2022-11-02T14:18:25Z</time>
      </trkpt>
      <trkpt lat="47.8788" lon="6.90767">
        <ele>876.9</ele>
        <time>2022-11-02T14:18:26Z</time>
      </trkpt>
      <trkpt lat="47.8788" lon="6.90766">
        <ele>877.1</ele>
        <time>2022-11-02T14:18:27Z</time>
      </trkpt>
      <trkpt lat="47.8788" lon="6.90765">
        <ele>877.3</ele>
        <time>2022-11-02T14:18:28Z</time>
      </trkpt>
      <trkpt lat="47.8788" lon="6.90764">
        <ele>877.5</ele>
        <time>2022-11-02T14:18:29Z</time>
      </trkpt>
      <trkpt lat="47.8788" lon="6.90763">
        <ele>877.8</ele>
        <time>2022-11-02T14:18:31Z</time>
      </trkpt>
      <trkpt lat="47.8788" lon="6.90762">
        <ele>878</ele>
        <time>2022-11-02T14:18:32Z</time>
      </trkpt>
      <trkpt lat="47.8788" lon="6.90761">
        <ele>878.2</ele>
        <time>2022-11-02T14:18:34Z</time>
      </trkpt>
      <trkpt lat="47.8788" lon="6.9076">
        <ele>878.4</ele>
        <time>2022-11-02T14:18:35Z</time>
      </trkpt>
      <trkpt lat="47.87881" lon="6.90759">
        <ele>878.8</ele>
        <time>2022-11-02T14:18:36Z</time>
      </trkpt>
      <trkpt lat="47.87881" lon="6.90758">
        <ele>879.1</ele>
        <time>2022-11-02T14:18:38Z</time>
      </trkpt>
      <trkpt lat="47.87882" lon="6.9075">
        <ele>881</ele>
        <time>2022-11-02T14:19:49Z</time>
      </trkpt>
      <trkpt lat="47.87882" lon="6.90746">
        <ele>882.1</ele>
        <time>2022-11-02T14:19:50Z</time>
      </trkpt>
      <trkpt lat="47.87883" lon="6.90741">
        <ele>883.5</ele>
        <time>2022-11-02T14:19:51Z</time>
      </trkpt>
      <trkpt lat="47.87883" lon="6.90739">
        <ele>884</ele>
        <time>2022-11-02T14:19:52Z</time>
      </trkpt>
      <trkpt lat="47.87883" lon="6.90737">
        <ele>884.5</ele>
        <time>2022-11-02T14:19:53Z</time>
      </trkpt>
      <trkpt lat="47.87883" lon="6.90735">
        <ele>885</ele>
        <time>2022-11-02T14:19:54Z</time>
      </trkpt>
      <trkpt lat="47.87882" lon="6.90734">
        <ele>885.2</ele>
        <time>2022-11-02T14:19:55Z</time>
      </trkpt>
      <trkpt lat="47.87882" lon="6.90733">
        <ele>885.4</ele>
        <time>2022-11-02T14:19:56Z</time>
      </trkpt>
      <trkpt lat="47.87882" lon="6.90731">
        <ele>886</ele>
        <time>2022-11-02T14:19:58Z</time>
      </trkpt>
      <trkpt lat="47.87882" lon="6.9073">
        <ele>886.2</ele>
        <time>2022-11-02T14:19:59Z</time>
      </trkpt>
      <trkpt lat="47.87883" lon="6.90726">
        <ele>887.4</ele>
        <time>2022-11-02T14:20:09Z</time>
      </trkpt>
      <trkpt lat="47.87884" lon="6.90725">
        <ele>887.8</ele>
        <time>2022-11-02T14:20:10Z</time>
      </trkpt>
      <trkpt lat="47.87884" lon="6.90723">
        <ele>888.3</ele>
        <time>2022-11-02T14:20:11Z</time>
      </trkpt>
      <trkpt lat="47.87884" lon="6.90721">
        <ele>888.6</ele>
        <time>2022-11-02T14:20:12Z</time>
      </trkpt>
      <trkpt lat="47.87885" lon="6.9072">
        <ele>888.9</ele>
        <time>2022-11-02T14:20:13Z</time>
      </trkpt>
      <trkpt lat="47.87885" lon="6.90718">
        <ele>889.1</ele>
        <time>2022-11-02T14:20:14Z</time>
      </trkpt>
      <trkpt lat="47.87885" lon="6.90717">
        <ele>889.2</ele>
        <time>2022-11-02T14:20:15Z</time>
      </trkpt>
      <trkpt lat="47.87886" lon="6.90716">
        <ele>889.5</ele>
        <time>2022-11-02T14:20:16Z</time>
      </trkpt>
      <trkpt lat="47.87886" lon="6.90715">
        <ele>889.6</ele>
        <time>2022-11-02T14:20:17Z</time>
      </trkpt>
      <trkpt lat="47.87887" lon="6.90714">
        <ele>889.8</ele>
        <time>2022-11-02T14:20:18Z</time>
      </trkpt>
      <trkpt lat="47.87887" lon="6.90713">
        <ele>889.9</ele>
        <time>2022-11-02T14:20:19Z</time>
      </trkpt>
      <trkpt lat="47.87888" lon="6.90712">
        <ele>890.1</ele>
        <time>2022-11-02T14:20:20Z</time>
      </trkpt>
      <trkpt lat="47.87888" lon="6.90711">
        <ele>890.2</ele>
        <time>2022-11-02T14:20:21Z</time>
      </trkpt>
      <trkpt lat="47.87888" lon="6.9071">
        <ele>890.3</ele>
        <time>2022-11-02T14:20:22Z</time>
      </trkpt>
      <trkpt lat="47.87888" lon="6.90709">
        <ele>890.4</ele>
        <time>2022-11-02T14:20:23Z</time>
      </trkpt>
      <trkpt lat="47.87888" lon="6.90708">
        <ele>890.5</ele>
        <time>2022-11-02T14:20:24Z</time>
      </trkpt>
      <trkpt lat="47.87887" lon="6.90707">
        <ele>890.6</ele>
        <time>2022-11-02T14:20:25Z</time>
      </trkpt>
      <trkpt lat="47.87887" lon="6.90706">
        <ele>890.7</ele>
        <time>2022-11-02T14:20:26Z</time>
      </trkpt>
      <trkpt lat="47.87887" lon="6.90705">
        <ele>890.8</ele>
        <time>2022-11-02T14:20:27Z</time>
      </trkpt>
      <trkpt lat="47.87887" lon="6.90704">
        <ele>890.9</ele>
        <time>2022-11-02T14:20:29Z</time>
      </trkpt>
      <trkpt lat="47.87886" lon="6.90702">
        <ele>891.2</ele>
        <time>2022-11-02T14:20:31Z</time>
      </trkpt>
      <trkpt lat="47.87886" lon="6.90701">
        <ele>891.3</ele>
        <time>2022-11-02T14:20:32Z</time>
      </trkpt>
      <trkpt lat="47.87886" lon="6.907">
        <ele>891.4</ele>
        <time>2022-11-02T14:20:33Z</time>
      </trkpt>
      <trkpt lat="47.87886" lon="6.90699">
        <ele>891.5</ele>
        <time>2022-11-02T14:20:35Z</time>
      </trkpt>
      <trkpt lat="47.87886" lon="6.90698">
        <ele>891.7</ele>
        <time>2022-11-02T14:20:36Z</time>
      </trkpt>
      <trkpt lat="47.87885" lon="6.90696">
        <ele>891.9</ele>
        <time>2022-11-02T14:20:38Z</time>
      </trkpt>
      <trkpt lat="47.87885" lon="6.90694">
        <ele>892.2</ele>
        <time>2022-11-02T14:20:39Z</time>
      </trkpt>
      <trkpt lat="47.87885" lon="6.9069">
        <ele>893.1</ele>
        <time>2022-11-02T14:21:06Z</time>
      </trkpt>
      <trkpt lat="47.87885" lon="6.90688">
        <ele>893.6</ele>
        <time>2022-11-02T14:21:07Z</time>
      </trkpt>
      <trkpt lat="47.87885" lon="6.90687">
        <ele>893.8</ele>
        <time>2022-11-02T14:21:08Z</time>
      </trkpt>
      <trkpt lat="47.87885" lon="6.90686">
        <ele>894</ele>
        <time>2022-11-02T14:21:09Z</time>
      </trkpt>
      <trkpt lat="47.87885" lon="6.90685">
        <ele>894.2</ele>
        <time>2022-11-02T14:21:10Z</time>
      </trkpt>
      <trkpt lat="47.87884" lon="6.90684">
        <ele>894.5</ele>
        <time>2022-11-02T14:21:11Z</time>
      </trkpt>
      <trkpt lat="47.87885" lon="6.90682">
        <ele>894.9</ele>
        <time>2022-11-02T14:21:12Z</time>
      </trkpt>
      <trkpt lat="47.87885" lon="6.90681">
        <ele>895.1</ele>
        <time>2022-11-02T14:21:13Z</time>
      </trkpt>
      <trkpt lat="47.87885" lon="6.9068">
        <ele>895.3</ele>
        <time>2022-11-02T14:21:14Z</time>
      </trkpt>
      <trkpt lat="47.87886" lon="6.9068">
        <ele>895.3</ele>
        <time>2022-11-02T14:21:15Z</time>
      </trkpt>
      <trkpt lat="47.87886" lon="6.90679">
        <ele>895.5</ele>
        <time>2022-11-02T14:21:16Z</time>
      </trkpt>
      <trkpt lat="47.87886" lon="6.90678">
        <ele>895.7</ele>
        <time>2022-11-02T14:21:18Z</time>
      </trkpt>
      <trkpt lat="47.87886" lon="6.90677">
        <ele>895.9</ele>
        <time>2022-11-02T14:21:19Z</time>
      </trkpt>
      <trkpt lat="47.87887" lon="6.90676">
        <ele>896.1</ele>
        <time>2022-11-02T14:21:20Z</time>
      </trkpt>
      <trkpt lat="47.87887" lon="6.90675">
        <ele>896.3</ele>
        <time>2022-11-02T14:21:22Z</time>
      </trkpt>
      <trkpt lat="47.87887" lon="6.90674">
        <ele>896.5</ele>
        <time>2022-11-02T14:21:24Z</time>
      </trkpt>
      <trkpt lat="47.87887" lon="6.90673">
        <ele>896.8</ele>
        <time>2022-11-02T14:21:25Z</time>
      </trkpt>
      <trkpt lat="47.87887" lon="6.90672">
        <ele>897</ele>
        <time>2022-11-02T14:21:26Z</time>
      </trkpt>
      <trkpt lat="47.87887" lon="6.9067">
        <ele>897.4</ele>
        <time>2022-11-02T14:21:27Z</time>
      </trkpt>
      <trkpt lat="47.87887" lon="6.90669">
        <ele>897.6</ele>
        <time>2022-11-02T14:21:28Z</time>
      </trkpt>
      <trkpt lat="47.87887" lon="6.90668">
        <ele>897.8</ele>
        <time>2022-11-02T14:21:29Z</time>
      </trkpt>
      <trkpt lat="47.87887" lon="6.90667">
        <ele>898.1</ele>
        <time>2022-11-02T14:21:31Z</time>
      </trkpt>
      <trkpt lat="47.87887" lon="6.90666">
        <ele>898.2</ele>
        <time>2022-11-02T14:21:32Z</time>
      </trkpt>
      <trkpt lat="47.87887" lon="6.90665">
        <ele>898.4</ele>
        <time>2022-11-02T14:21:33Z</time>
      </trkpt>
      <trkpt lat="47.87888" lon="6.90664">
        <ele>898.4</ele>
        <time>2022-11-02T14:21:35Z</time>
      </trkpt>
      <trkpt lat="47.87888" lon="6.90663">
        <ele>898.6</ele>
        <time>2022-11-02T14:21:36Z</time>
      </trkpt>
      <trkpt lat="47.87888" lon="6.90662">
        <ele>898.7</ele>
        <time>2022-11-02T14:21:37Z</time>
      </trkpt>
      <trkpt lat="47.87888" lon="6.90661">
        <ele>898.9</ele>
        <time>2022-11-02T14:21:38Z</time>
      </trkpt>
      <trkpt lat="47.87888" lon="6.90659">
        <ele>899.2</ele>
        <time>2022-11-02T14:21:39Z</time>
      </trkpt>
      <trkpt lat="47.87888" lon="6.90658">
        <ele>899.3</ele>
        <time>2022-11-02T14:21:41Z</time>
      </trkpt>
      <trkpt lat="47.87888" lon="6.90657">
        <ele>899.5</ele>
        <time>2022-11-02T14:21:42Z</time>
      </trkpt>
      <trkpt lat="47.87888" lon="6.90656">
        <ele>899.6</ele>
        <time>2022-11-02T14:21:43Z</time>
      </trkpt>
      <trkpt lat="47.87889" lon="6.90655">
        <ele>899.7</ele>
        <time>2022-11-02T14:21:45Z</time>
      </trkpt>
      <trkpt lat="47.87889" lon="6.90654">
        <ele>899.8</ele>
        <time>2022-11-02T14:21:46Z</time>
      </trkpt>
      <trkpt lat="47.8789" lon="6.90652">
        <ele>900.4</ele>
        <time>2022-11-02T14:21:47Z</time>
      </trkpt>
      <trkpt lat="47.8789" lon="6.90651">
        <ele>900.5</ele>
        <time>2022-11-02T14:21:48Z</time>
      </trkpt>
      <trkpt lat="47.87891" lon="6.90649">
        <ele>901</ele>
        <time>2022-11-02T14:21:49Z</time>
      </trkpt>
      <trkpt lat="47.87891" lon="6.90648">
        <ele>901.2</ele>
        <time>2022-11-02T14:21:50Z</time>
      </trkpt>
      <trkpt lat="47.87892" lon="6.90647">
        <ele>901.6</ele>
        <time>2022-11-02T14:21:51Z</time>
      </trkpt>
      <trkpt lat="47.87892" lon="6.90646">
        <ele>901.7</ele>
        <time>2022-11-02T14:21:52Z</time>
      </trkpt>
      <trkpt lat="47.87892" lon="6.90645">
        <ele>901.9</ele>
        <time>2022-11-02T14:21:53Z</time>
      </trkpt>
      <trkpt lat="47.87892" lon="6.90644">
        <ele>902</ele>
        <time>2022-11-02T14:21:54Z</time>
      </trkpt>
      <trkpt lat="47.87891" lon="6.9064">
        <ele>902.4</ele>
        <time>2022-11-02T14:22:10Z</time>
      </trkpt>
      <trkpt lat="47.87891" lon="6.90638">
        <ele>902.7</ele>
        <time>2022-11-02T14:22:11Z</time>
      </trkpt>
      <trkpt lat="47.87891" lon="6.90637">
        <ele>902.8</ele>
        <time>2022-11-02T14:22:12Z</time>
      </trkpt>
      <trkpt lat="47.8789" lon="6.90636">
        <ele>902.7</ele>
        <time>2022-11-02T14:22:13Z</time>
      </trkpt>
      <trkpt lat="47.8789" lon="6.90635">
        <ele>902.9</ele>
        <time>2022-11-02T14:22:14Z</time>
      </trkpt>
      <trkpt lat="47.8789" lon="6.90634">
        <ele>903</ele>
        <time>2022-11-02T14:22:15Z</time>
      </trkpt>
      <trkpt lat="47.87889" lon="6.90633">
        <ele>902.9</ele>
        <time>2022-11-02T14:22:16Z</time>
      </trkpt>
      <trkpt lat="47.87889" lon="6.90632">
        <ele>903</ele>
        <time>2022-11-02T14:22:17Z</time>
      </trkpt>
      <trkpt lat="47.87889" lon="6.90631">
        <ele>903.2</ele>
        <time>2022-11-02T14:22:18Z</time>
      </trkpt>
      <trkpt lat="47.87889" lon="6.9063">
        <ele>903.3</ele>
        <time>2022-11-02T14:22:19Z</time>
      </trkpt>
      <trkpt lat="47.87889" lon="6.90629">
        <ele>903.5</ele>
        <time>2022-11-02T14:22:20Z</time>
      </trkpt>
      <trkpt lat="47.87889" lon="6.90627">
        <ele>903.7</ele>
        <time>2022-11-02T14:22:22Z</time>
      </trkpt>
      <trkpt lat="47.87889" lon="6.90626">
        <ele>903.9</ele>
        <time>2022-11-02T14:22:23Z</time>
      </trkpt>
      <trkpt lat="47.87889" lon="6.90625">
        <ele>904</ele>
        <time>2022-11-02T14:22:25Z</time>
      </trkpt>
      <trkpt lat="47.87888" lon="6.90625">
        <ele>904.1</ele>
        <time>2022-11-02T14:22:26Z</time>
      </trkpt>
      <trkpt lat="47.87888" lon="6.90623">
        <ele>904.4</ele>
        <time>2022-11-02T14:22:27Z</time>
      </trkpt>
      <trkpt lat="47.87888" lon="6.90622">
        <ele>904.5</ele>
        <time>2022-11-02T14:22:28Z</time>
      </trkpt>
      <trkpt lat="47.87888" lon="6.9062">
        <ele>904.8</ele>
        <time>2022-11-02T14:22:29Z</time>
      </trkpt>
      <trkpt lat="47.87888" lon="6.90619">
        <ele>905</ele>
        <time>2022-11-02T14:22:30Z</time>
      </trkpt>
      <trkpt lat="47.87888" lon="6.90617">
        <ele>905.2</ele>
        <time>2022-11-02T14:22:31Z</time>
      </trkpt>
      <trkpt lat="47.87888" lon="6.90616">
        <ele>905.4</ele>
        <time>2022-11-02T14:22:32Z</time>
      </trkpt>
      <trkpt lat="47.87888" lon="6.90615">
        <ele>905.5</ele>
        <time>2022-11-02T14:22:33Z</time>
      </trkpt>
      <trkpt lat="47.87888" lon="6.90614">
        <ele>905.7</ele>
        <time>2022-11-02T14:22:34Z</time>
      </trkpt>
      <trkpt lat="47.87888" lon="6.90613">
        <ele>905.8</ele>
        <time>2022-11-02T14:22:35Z</time>
      </trkpt>
      <trkpt lat="47.87888" lon="6.90612">
        <ele>906</ele>
        <time>2022-11-02T14:22:36Z</time>
      </trkpt>
      <trkpt lat="47.87888" lon="6.9061">
        <ele>906.3</ele>
        <time>2022-11-02T14:22:37Z</time>
      </trkpt>
      <trkpt lat="47.87888" lon="6.90609">
        <ele>906.4</ele>
        <time>2022-11-02T14:22:38Z</time>
      </trkpt>
      <trkpt lat="47.87888" lon="6.90608">
        <ele>906.5</ele>
        <time>2022-11-02T14:22:39Z</time>
      </trkpt>
      <trkpt lat="47.87889" lon="6.90606">
        <ele>906.8</ele>
        <time>2022-11-02T14:22:41Z</time>
      </trkpt>
      <trkpt lat="47.87889" lon="6.90605">
        <ele>906.9</ele>
        <time>2022-11-02T14:22:42Z</time>
      </trkpt>
      <trkpt lat="47.87889" lon="6.90603">
        <ele>907.2</ele>
        <time>2022-11-02T14:22:43Z</time>
      </trkpt>
      <trkpt lat="47.87889" lon="6.90602">
        <ele>907.3</ele>
        <time>2022-11-02T14:22:44Z</time>
      </trkpt>
      <trkpt lat="47.87889" lon="6.90601">
        <ele>907.5</ele>
        <time>2022-11-02T14:22:45Z</time>
      </trkpt>
      <trkpt lat="47.87889" lon="6.906">
        <ele>907.6</ele>
        <time>2022-11-02T14:22:46Z</time>
      </trkpt>
      <trkpt lat="47.87888" lon="6.90599">
        <ele>907.8</ele>
        <time>2022-11-02T14:22:47Z</time>
      </trkpt>
      <trkpt lat="47.87888" lon="6.90598">
        <ele>908</ele>
        <time>2022-11-02T14:22:48Z</time>
      </trkpt>
      <trkpt lat="47.87888" lon="6.90597">
        <ele>908.1</ele>
        <time>2022-11-02T14:22:49Z</time>
      </trkpt>
      <trkpt lat="47.87888" lon="6.90596">
        <ele>908.3</ele>
        <time>2022-11-02T14:22:50Z</time>
      </trkpt>
      <trkpt lat="47.87887" lon="6.90595">
        <ele>908.5</ele>
        <time>2022-11-02T14:22:51Z</time>
      </trkpt>
      <trkpt lat="47.87887" lon="6.90594">
        <ele>908.7</ele>
        <time>2022-11-02T14:22:52Z</time>
      </trkpt>
      <trkpt lat="47.87886" lon="6.90593">
        <ele>908.9</ele>
        <time>2022-11-02T14:22:53Z</time>
      </trkpt>
      <trkpt lat="47.87885" lon="6.90592">
        <ele>909.2</ele>
        <time>2022-11-02T14:22:54Z</time>
      </trkpt>
      <trkpt lat="47.87885" lon="6.90591">
        <ele>909.3</ele>
        <time>2022-11-02T14:22:55Z</time>
      </trkpt>
      <trkpt lat="47.87884" lon="6.9059">
        <ele>909.6</ele>
        <time>2022-11-02T14:22:56Z</time>
      </trkpt>
      <trkpt lat="47.87884" lon="6.90589">
        <ele>909.7</ele>
        <time>2022-11-02T14:22:57Z</time>
      </trkpt>
      <trkpt lat="47.87884" lon="6.90587">
        <ele>910</ele>
        <time>2022-11-02T14:22:58Z</time>
      </trkpt>
      <trkpt lat="47.87884" lon="6.90585">
        <ele>910.3</ele>
        <time>2022-11-02T14:22:59Z</time>
      </trkpt>
      <trkpt lat="47.87884" lon="6.90584">
        <ele>910.4</ele>
        <time>2022-11-02T14:23:00Z</time>
      </trkpt>
      <trkpt lat="47.87884" lon="6.90582">
        <ele>910.7</ele>
        <time>2022-11-02T14:23:01Z</time>
      </trkpt>
      <trkpt lat="47.87884" lon="6.9058">
        <ele>910.8</ele>
        <time>2022-11-02T14:23:02Z</time>
      </trkpt>
      <trkpt lat="47.87884" lon="6.90579">
        <ele>910.9</ele>
        <time>2022-11-02T14:23:03Z</time>
      </trkpt>
      <trkpt lat="47.87884" lon="6.90578">
        <ele>911</ele>
        <time>2022-11-02T14:23:04Z</time>
      </trkpt>
      <trkpt lat="47.87883" lon="6.90577">
        <ele>911.2</ele>
        <time>2022-11-02T14:23:05Z</time>
      </trkpt>
      <trkpt lat="47.87883" lon="6.90576">
        <ele>911.3</ele>
        <time>2022-11-02T14:23:06Z</time>
      </trkpt>
      <trkpt lat="47.87882" lon="6.90576">
        <ele>911.4</ele>
        <time>2022-11-02T14:23:07Z</time>
      </trkpt>
      <trkpt lat="47.87881" lon="6.90576">
        <ele>911.5</ele>
        <time>2022-11-02T14:23:09Z</time>
      </trkpt>
      <trkpt lat="47.8788" lon="6.90575">
        <ele>911.7</ele>
        <time>2022-11-02T14:23:10Z</time>
      </trkpt>
      <trkpt lat="47.8788" lon="6.90574">
        <ele>911.8</ele>
        <time>2022-11-02T14:23:13Z</time>
      </trkpt>
      <trkpt lat="47.87879" lon="6.90574">
        <ele>911.8</ele>
        <time>2022-11-02T14:23:14Z</time>
      </trkpt>
      <trkpt lat="47.87879" lon="6.90573">
        <ele>911.9</ele>
        <time>2022-11-02T14:23:16Z</time>
      </trkpt>
      <trkpt lat="47.87879" lon="6.90572">
        <ele>912</ele>
        <time>2022-11-02T14:23:17Z</time>
      </trkpt>
      <trkpt lat="47.87878" lon="6.90571">
        <ele>912.2</ele>
        <time>2022-11-02T14:23:18Z</time>
      </trkpt>
      <trkpt lat="47.87878" lon="6.9057">
        <ele>912.2</ele>
        <time>2022-11-02T14:23:19Z</time>
      </trkpt>
      <trkpt lat="47.87878" lon="6.90569">
        <ele>912.3</ele>
        <time>2022-11-02T14:23:20Z</time>
      </trkpt>
      <trkpt lat="47.87878" lon="6.90568">
        <ele>912.4</ele>
        <time>2022-11-02T14:23:21Z</time>
      </trkpt>
      <trkpt lat="47.87877" lon="6.90567">
        <ele>912.5</ele>
        <time>2022-11-02T14:23:22Z</time>
      </trkpt>
      <trkpt lat="47.87877" lon="6.90566">
        <ele>912.6</ele>
        <time>2022-11-02T14:23:23Z</time>
      </trkpt>
      <trkpt lat="47.87877" lon="6.90565">
        <ele>912.7</ele>
        <time>2022-11-02T14:23:24Z</time>
      </trkpt>
      <trkpt lat="47.87876" lon="6.90563">
        <ele>912.9</ele>
        <time>2022-11-02T14:23:25Z</time>
      </trkpt>
      <trkpt lat="47.87876" lon="6.90562">
        <ele>913</ele>
        <time>2022-11-02T14:23:26Z</time>
      </trkpt>
      <trkpt lat="47.87876" lon="6.90561">
        <ele>913.1</ele>
        <time>2022-11-02T14:23:27Z</time>
      </trkpt>
      <trkpt lat="47.87875" lon="6.9056">
        <ele>913.2</ele>
        <time>2022-11-02T14:23:28Z</time>
      </trkpt>
      <trkpt lat="47.87875" lon="6.90559">
        <ele>913.3</ele>
        <time>2022-11-02T14:23:29Z</time>
      </trkpt>
      <trkpt lat="47.87874" lon="6.90558">
        <ele>913.4</ele>
        <time>2022-11-02T14:23:30Z</time>
      </trkpt>
      <trkpt lat="47.87874" lon="6.90557">
        <ele>913.4</ele>
        <time>2022-11-02T14:23:31Z</time>
      </trkpt>
      <trkpt lat="47.87873" lon="6.90556">
        <ele>913.5</ele>
        <time>2022-11-02T14:23:32Z</time>
      </trkpt>
      <trkpt lat="47.87872" lon="6.90554">
        <ele>913.7</ele>
        <time>2022-11-02T14:23:33Z</time>
      </trkpt>
      <trkpt lat="47.87872" lon="6.90553">
        <ele>913.7</ele>
        <time>2022-11-02T14:23:34Z</time>
      </trkpt>
      <trkpt lat="47.87871" lon="6.90551">
        <ele>913.8</ele>
        <time>2022-11-02T14:23:35Z</time>
      </trkpt>
      <trkpt lat="47.87871" lon="6.9055">
        <ele>913.9</ele>
        <time>2022-11-02T14:23:36Z</time>
      </trkpt>
      <trkpt lat="47.8787" lon="6.90548">
        <ele>913.9</ele>
        <time>2022-11-02T14:23:37Z</time>
      </trkpt>
      <trkpt lat="47.8787" lon="6.90547">
        <ele>914</ele>
        <time>2022-11-02T14:23:38Z</time>
      </trkpt>
      <trkpt lat="47.87869" lon="6.90545">
        <ele>914</ele>
        <time>2022-11-02T14:23:39Z</time>
      </trkpt>
      <trkpt lat="47.87869" lon="6.90544">
        <ele>914.1</ele>
        <time>2022-11-02T14:23:40Z</time>
      </trkpt>
      <trkpt lat="47.87868" lon="6.90543">
        <ele>914.1</ele>
        <time>2022-11-02T14:23:41Z</time>
      </trkpt>
      <trkpt lat="47.87867" lon="6.90542">
        <ele>914.1</ele>
        <time>2022-11-02T14:23:42Z</time>
      </trkpt>
      <trkpt lat="47.87867" lon="6.9054">
        <ele>914.1</ele>
        <time>2022-11-02T14:23:43Z</time>
      </trkpt>
      <trkpt lat="47.87867" lon="6.90539">
        <ele>914.2</ele>
        <time>2022-11-02T14:23:44Z</time>
      </trkpt>
      <trkpt lat="47.87866" lon="6.90538">
        <ele>914.2</ele>
        <time>2022-11-02T14:23:45Z</time>
      </trkpt>
      <trkpt lat="47.87866" lon="6.90536">
        <ele>914.2</ele>
        <time>2022-11-02T14:23:46Z</time>
      </trkpt>
      <trkpt lat="47.87866" lon="6.90535">
        <ele>914.2</ele>
        <time>2022-11-02T14:23:47Z</time>
      </trkpt>
      <trkpt lat="47.87866" lon="6.90533">
        <ele>914.3</ele>
        <time>2022-11-02T14:23:48Z</time>
      </trkpt>
      <trkpt lat="47.87866" lon="6.90532">
        <ele>914.3</ele>
        <time>2022-11-02T14:23:49Z</time>
      </trkpt>
      <trkpt lat="47.87865" lon="6.90531">
        <ele>914.2</ele>
        <time>2022-11-02T14:23:50Z</time>
      </trkpt>
      <trkpt lat="47.87865" lon="6.90529">
        <ele>914.3</ele>
        <time>2022-11-02T14:23:51Z</time>
      </trkpt>
      <trkpt lat="47.87865" lon="6.90528">
        <ele>914.3</ele>
        <time>2022-11-02T14:23:53Z</time>
      </trkpt>
      <trkpt lat="47.87864" lon="6.90527">
        <ele>914.2</ele>
        <time>2022-11-02T14:23:54Z</time>
      </trkpt>
      <trkpt lat="47.87864" lon="6.90526">
        <ele>914.3</ele>
        <time>2022-11-02T14:23:55Z</time>
      </trkpt>
      <trkpt lat="47.87864" lon="6.90525">
        <ele>914.3</ele>
        <time>2022-11-02T14:23:56Z</time>
      </trkpt>
      <trkpt lat="47.87864" lon="6.90524">
        <ele>914.3</ele>
        <time>2022-11-02T14:23:57Z</time>
      </trkpt>
      <trkpt lat="47.87865" lon="6.90522">
        <ele>914.5</ele>
        <time>2022-11-02T14:23:58Z</time>
      </trkpt>
      <trkpt lat="47.87865" lon="6.90521">
        <ele>914.5</ele>
        <time>2022-11-02T14:23:59Z</time>
      </trkpt>
      <trkpt lat="47.87865" lon="6.90519">
        <ele>914.6</ele>
        <time>2022-11-02T14:24:00Z</time>
      </trkpt>
      <trkpt lat="47.87865" lon="6.90518">
        <ele>914.6</ele>
        <time>2022-11-02T14:24:01Z</time>
      </trkpt>
      <trkpt lat="47.87865" lon="6.90516">
        <ele>914.7</ele>
        <time>2022-11-02T14:24:02Z</time>
      </trkpt>
      <trkpt lat="47.87864" lon="6.90515">
        <ele>914.5</ele>
        <time>2022-11-02T14:24:03Z</time>
      </trkpt>
      <trkpt lat="47.87863" lon="6.90513">
        <ele>914.4</ele>
        <time>2022-11-02T14:24:04Z</time>
      </trkpt>
      <trkpt lat="47.87863" lon="6.90512">
        <ele>914.4</ele>
        <time>2022-11-02T14:24:05Z</time>
      </trkpt>
      <trkpt lat="47.87862" lon="6.9051">
        <ele>914.2</ele>
        <time>2022-11-02T14:24:06Z</time>
      </trkpt>
      <trkpt lat="47.87862" lon="6.90509">
        <ele>914.2</ele>
        <time>2022-11-02T14:24:07Z</time>
      </trkpt>
      <trkpt lat="47.87861" lon="6.90507">
        <ele>914</ele>
        <time>2022-11-02T14:24:08Z</time>
      </trkpt>
      <trkpt lat="47.87861" lon="6.90505">
        <ele>914</ele>
        <time>2022-11-02T14:24:09Z</time>
      </trkpt>
      <trkpt lat="47.8786" lon="6.90503">
        <ele>914.4</ele>
        <time>2022-11-02T14:24:10Z</time>
      </trkpt>
      <trkpt lat="47.8786" lon="6.90502">
        <ele>914.4</ele>
        <time>2022-11-02T14:24:11Z</time>
      </trkpt>
      <trkpt lat="47.87859" lon="6.90501">
        <ele>914.8</ele>
        <time>2022-11-02T14:24:12Z</time>
      </trkpt>
      <trkpt lat="47.87858" lon="6.905">
        <ele>915.2</ele>
        <time>2022-11-02T14:24:14Z</time>
      </trkpt>
      <trkpt lat="47.87858" lon="6.90499">
        <ele>915.3</ele>
        <time>2022-11-02T14:24:15Z</time>
      </trkpt>
      <trkpt lat="47.87857" lon="6.90499">
        <ele>915.7</ele>
        <time>2022-11-02T14:24:16Z</time>
      </trkpt>
      <trkpt lat="47.87856" lon="6.90499">
        <ele>916.1</ele>
        <time>2022-11-02T14:24:17Z</time>
      </trkpt>
      <trkpt lat="47.87856" lon="6.90498">
        <ele>916.2</ele>
        <time>2022-11-02T14:24:18Z</time>
      </trkpt>
      <trkpt lat="47.87855" lon="6.90498">
        <ele>916.6</ele>
        <time>2022-11-02T14:24:19Z</time>
      </trkpt>
      <trkpt lat="47.87855" lon="6.90497">
        <ele>916.7</ele>
        <time>2022-11-02T14:24:20Z</time>
      </trkpt>
      <trkpt lat="47.87855" lon="6.90496">
        <ele>916.7</ele>
        <time>2022-11-02T14:24:21Z</time>
      </trkpt>
      <trkpt lat="47.87854" lon="6.90496">
        <ele>917.1</ele>
        <time>2022-11-02T14:24:22Z</time>
      </trkpt>
      <trkpt lat="47.87854" lon="6.90495">
        <ele>917.2</ele>
        <time>2022-11-02T14:24:23Z</time>
      </trkpt>
      <trkpt lat="47.87854" lon="6.90494">
        <ele>917.3</ele>
        <time>2022-11-02T14:24:24Z</time>
      </trkpt>
      <trkpt lat="47.87854" lon="6.90492">
        <ele>917.5</ele>
        <time>2022-11-02T14:24:25Z</time>
      </trkpt>
      <trkpt lat="47.87855" lon="6.90491">
        <ele>917.1</ele>
        <time>2022-11-02T14:24:26Z</time>
      </trkpt>
      <trkpt lat="47.87855" lon="6.9049">
        <ele>917.2</ele>
        <time>2022-11-02T14:24:27Z</time>
      </trkpt>
      <trkpt lat="47.87855" lon="6.90488">
        <ele>917.4</ele>
        <time>2022-11-02T14:24:28Z</time>
      </trkpt>
      <trkpt lat="47.87857" lon="6.90486">
        <ele>916.7</ele>
        <time>2022-11-02T14:24:29Z</time>
      </trkpt>
      <trkpt lat="47.87858" lon="6.90483">
        <ele>916.5</ele>
        <time>2022-11-02T14:24:30Z</time>
      </trkpt>
      <trkpt lat="47.87859" lon="6.90481">
        <ele>916.3</ele>
        <time>2022-11-02T14:24:31Z</time>
      </trkpt>
      <trkpt lat="47.8786" lon="6.90478">
        <ele>916.1</ele>
        <time>2022-11-02T14:24:32Z</time>
      </trkpt>
      <trkpt lat="47.8786" lon="6.90476">
        <ele>916.2</ele>
        <time>2022-11-02T14:24:33Z</time>
      </trkpt>
      <trkpt lat="47.8786" lon="6.90474">
        <ele>916.3</ele>
        <time>2022-11-02T14:24:34Z</time>
      </trkpt>
      <trkpt lat="47.87859" lon="6.90472">
        <ele>916.9</ele>
        <time>2022-11-02T14:24:35Z</time>
      </trkpt>
      <trkpt lat="47.87859" lon="6.90471">
        <ele>916.9</ele>
        <time>2022-11-02T14:24:36Z</time>
      </trkpt>
      <trkpt lat="47.87858" lon="6.9047">
        <ele>917.4</ele>
        <time>2022-11-02T14:24:37Z</time>
      </trkpt>
      <trkpt lat="47.87858" lon="6.90469">
        <ele>917.4</ele>
        <time>2022-11-02T14:24:38Z</time>
      </trkpt>
      <trkpt lat="47.87857" lon="6.90466">
        <ele>917.9</ele>
        <time>2022-11-02T14:25:08Z</time>
      </trkpt>
      <trkpt lat="47.87856" lon="6.90464">
        <ele>918.3</ele>
        <time>2022-11-02T14:25:09Z</time>
      </trkpt>
      <trkpt lat="47.87856" lon="6.90461">
        <ele>918.3</ele>
        <time>2022-11-02T14:25:10Z</time>
      </trkpt>
      <trkpt lat="47.87857" lon="6.90459">
        <ele>918</ele>
        <time>2022-11-02T14:25:40Z</time>
      </trkpt>
      <trkpt lat="47.87857" lon="6.90458">
        <ele>918</ele>
        <time>2022-11-02T14:25:41Z</time>
      </trkpt>
      <trkpt lat="47.87857" lon="6.90457">
        <ele>918</ele>
        <time>2022-11-02T14:25:42Z</time>
      </trkpt>
      <trkpt lat="47.87857" lon="6.90458">
        <ele>918</ele>
        <time>2022-11-02T14:25:44Z</time>
      </trkpt>
      <trkpt lat="47.87856" lon="6.90458">
        <ele>918.3</ele>
        <time>2022-11-02T14:25:45Z</time>
      </trkpt>
      <trkpt lat="47.87855" lon="6.90458">
        <ele>918.7</ele>
        <time>2022-11-02T14:25:46Z</time>
      </trkpt>
      <trkpt lat="47.87854" lon="6.90459">
        <ele>919.1</ele>
        <time>2022-11-02T14:25:47Z</time>
      </trkpt>
      <trkpt lat="47.87853" lon="6.90459">
        <ele>919.4</ele>
        <time>2022-11-02T14:25:48Z</time>
      </trkpt>
      <trkpt lat="47.87852" lon="6.90459">
        <ele>919.8</ele>
        <time>2022-11-02T14:25:49Z</time>
      </trkpt>
      <trkpt lat="47.87851" lon="6.90459">
        <ele>920.2</ele>
        <time>2022-11-02T14:25:51Z</time>
      </trkpt>
      <trkpt lat="47.8785" lon="6.90458">
        <ele>920.5</ele>
        <time>2022-11-02T14:25:52Z</time>
      </trkpt>
      <trkpt lat="47.87849" lon="6.90458">
        <ele>920.9</ele>
        <time>2022-11-02T14:25:55Z</time>
      </trkpt>
      <trkpt lat="47.87849" lon="6.90457">
        <ele>920.8</ele>
        <time>2022-11-02T14:25:56Z</time>
      </trkpt>
      <trkpt lat="47.87849" lon="6.90456">
        <ele>920.8</ele>
        <time>2022-11-02T14:25:58Z</time>
      </trkpt>
      <trkpt lat="47.87849" lon="6.90455">
        <ele>920.8</ele>
        <time>2022-11-02T14:25:59Z</time>
      </trkpt>
      <trkpt lat="47.87848" lon="6.90454">
        <ele>921.1</ele>
        <time>2022-11-02T14:26:00Z</time>
      </trkpt>
      <trkpt lat="47.87848" lon="6.90453">
        <ele>921</ele>
        <time>2022-11-02T14:26:01Z</time>
      </trkpt>
      <trkpt lat="47.87847" lon="6.90452">
        <ele>921.3</ele>
        <time>2022-11-02T14:26:02Z</time>
      </trkpt>
      <trkpt lat="47.87847" lon="6.9045">
        <ele>921.3</ele>
        <time>2022-11-02T14:26:04Z</time>
      </trkpt>
      <trkpt lat="47.87847" lon="6.90449">
        <ele>921.2</ele>
        <time>2022-11-02T14:26:05Z</time>
      </trkpt>
      <trkpt lat="47.87847" lon="6.90448">
        <ele>921.2</ele>
        <time>2022-11-02T14:26:06Z</time>
      </trkpt>
      <trkpt lat="47.87847" lon="6.90447">
        <ele>921.2</ele>
        <time>2022-11-02T14:26:07Z</time>
      </trkpt>
      <trkpt lat="47.87847" lon="6.90445">
        <ele>921.1</ele>
        <time>2022-11-02T14:26:08Z</time>
      </trkpt>
      <trkpt lat="47.87847" lon="6.90444">
        <ele>921</ele>
        <time>2022-11-02T14:26:09Z</time>
      </trkpt>
      <trkpt lat="47.87847" lon="6.90442">
        <ele>921</ele>
        <time>2022-11-02T14:26:10Z</time>
      </trkpt>
      <trkpt lat="47.87847" lon="6.90441">
        <ele>920.9</ele>
        <time>2022-11-02T14:26:11Z</time>
      </trkpt>
      <trkpt lat="47.87846" lon="6.9044">
        <ele>921.2</ele>
        <time>2022-11-02T14:26:12Z</time>
      </trkpt>
      <trkpt lat="47.87846" lon="6.90438">
        <ele>921.1</ele>
        <time>2022-11-02T14:26:13Z</time>
      </trkpt>
      <trkpt lat="47.87846" lon="6.90437">
        <ele>921</ele>
        <time>2022-11-02T14:26:14Z</time>
      </trkpt>
      <trkpt lat="47.87845" lon="6.90436">
        <ele>921.2</ele>
        <time>2022-11-02T14:26:15Z</time>
      </trkpt>
      <trkpt lat="47.87845" lon="6.90434">
        <ele>921.1</ele>
        <time>2022-11-02T14:26:16Z</time>
      </trkpt>
      <trkpt lat="47.87845" lon="6.90433">
        <ele>921.1</ele>
        <time>2022-11-02T14:26:17Z</time>
      </trkpt>
      <trkpt lat="47.87844" lon="6.90431">
        <ele>921.2</ele>
        <time>2022-11-02T14:26:18Z</time>
      </trkpt>
      <trkpt lat="47.87844" lon="6.90429">
        <ele>921.1</ele>
        <time>2022-11-02T14:26:19Z</time>
      </trkpt>
      <trkpt lat="47.87844" lon="6.90428">
        <ele>921.1</ele>
        <time>2022-11-02T14:26:20Z</time>
      </trkpt>
      <trkpt lat="47.87844" lon="6.90426">
        <ele>921</ele>
        <time>2022-11-02T14:26:21Z</time>
      </trkpt>
      <trkpt lat="47.87844" lon="6.90425">
        <ele>920.9</ele>
        <time>2022-11-02T14:26:22Z</time>
      </trkpt>
      <trkpt lat="47.87844" lon="6.90423">
        <ele>920.8</ele>
        <time>2022-11-02T14:26:23Z</time>
      </trkpt>
      <trkpt lat="47.87844" lon="6.90422">
        <ele>920.7</ele>
        <time>2022-11-02T14:26:24Z</time>
      </trkpt>
      <trkpt lat="47.87844" lon="6.90421">
        <ele>920.7</ele>
        <time>2022-11-02T14:26:25Z</time>
      </trkpt>
      <trkpt lat="47.87843" lon="6.90413">
        <ele>920.5</ele>
        <time>2022-11-02T14:27:14Z</time>
      </trkpt>
      <trkpt lat="47.87843" lon="6.90409">
        <ele>920.3</ele>
        <time>2022-11-02T14:27:15Z</time>
      </trkpt>
      <trkpt lat="47.87842" lon="6.90406">
        <ele>920.4</ele>
        <time>2022-11-02T14:27:16Z</time>
      </trkpt>
      <trkpt lat="47.87843" lon="6.90404">
        <ele>920.2</ele>
        <time>2022-11-02T14:27:17Z</time>
      </trkpt>
      <trkpt lat="47.87843" lon="6.90402">
        <ele>920.1</ele>
        <time>2022-11-02T14:27:18Z</time>
      </trkpt>
      <trkpt lat="47.87843" lon="6.90401">
        <ele>920</ele>
        <time>2022-11-02T14:27:19Z</time>
      </trkpt>
      <trkpt lat="47.87843" lon="6.904">
        <ele>920</ele>
        <time>2022-11-02T14:27:20Z</time>
      </trkpt>
      <trkpt lat="47.87843" lon="6.90399">
        <ele>920</ele>
        <time>2022-11-02T14:27:21Z</time>
      </trkpt>
      <trkpt lat="47.87843" lon="6.90398">
        <ele>919.9</ele>
        <time>2022-11-02T14:27:22Z</time>
      </trkpt>
      <trkpt lat="47.87843" lon="6.90396">
        <ele>919.9</ele>
        <time>2022-11-02T14:27:23Z</time>
      </trkpt>
      <trkpt lat="47.87843" lon="6.90395">
        <ele>919.8</ele>
        <time>2022-11-02T14:27:24Z</time>
      </trkpt>
      <trkpt lat="47.87843" lon="6.90394">
        <ele>919.8</ele>
        <time>2022-11-02T14:27:25Z</time>
      </trkpt>
      <trkpt lat="47.87843" lon="6.90393">
        <ele>919.8</ele>
        <time>2022-11-02T14:27:26Z</time>
      </trkpt>
      <trkpt lat="47.87843" lon="6.90392">
        <ele>919.7</ele>
        <time>2022-11-02T14:27:27Z</time>
      </trkpt>
      <trkpt lat="47.87843" lon="6.90391">
        <ele>919.7</ele>
        <time>2022-11-02T14:27:28Z</time>
      </trkpt>
      <trkpt lat="47.87843" lon="6.9039">
        <ele>919.6</ele>
        <time>2022-11-02T14:27:29Z</time>
      </trkpt>
      <trkpt lat="47.87844" lon="6.90389">
        <ele>919.5</ele>
        <time>2022-11-02T14:27:30Z</time>
      </trkpt>
      <trkpt lat="47.87844" lon="6.90388">
        <ele>919.3</ele>
        <time>2022-11-02T14:27:31Z</time>
      </trkpt>
      <trkpt lat="47.87844" lon="6.90386">
        <ele>919.1</ele>
        <time>2022-11-02T14:27:32Z</time>
      </trkpt>
      <trkpt lat="47.87843" lon="6.90385">
        <ele>919.1</ele>
        <time>2022-11-02T14:27:33Z</time>
      </trkpt>
      <trkpt lat="47.87843" lon="6.90384">
        <ele>919</ele>
        <time>2022-11-02T14:27:34Z</time>
      </trkpt>
      <trkpt lat="47.87843" lon="6.90382">
        <ele>918.7</ele>
        <time>2022-11-02T14:27:35Z</time>
      </trkpt>
      <trkpt lat="47.87843" lon="6.9038">
        <ele>918.4</ele>
        <time>2022-11-02T14:27:36Z</time>
      </trkpt>
      <trkpt lat="47.87843" lon="6.90379">
        <ele>918.3</ele>
        <time>2022-11-02T14:27:37Z</time>
      </trkpt>
      <trkpt lat="47.87843" lon="6.90377">
        <ele>918</ele>
        <time>2022-11-02T14:27:38Z</time>
      </trkpt>
      <trkpt lat="47.87843" lon="6.90376">
        <ele>917.9</ele>
        <time>2022-11-02T14:27:39Z</time>
      </trkpt>
      <trkpt lat="47.87843" lon="6.90374">
        <ele>917.7</ele>
        <time>2022-11-02T14:27:40Z</time>
      </trkpt>
      <trkpt lat="47.87844" lon="6.90373">
        <ele>917.4</ele>
        <time>2022-11-02T14:27:41Z</time>
      </trkpt>
      <trkpt lat="47.87844" lon="6.90372">
        <ele>917.3</ele>
        <time>2022-11-02T14:27:42Z</time>
      </trkpt>
      <trkpt lat="47.87843" lon="6.90371">
        <ele>917.3</ele>
        <time>2022-11-02T14:27:43Z</time>
      </trkpt>
      <trkpt lat="47.87843" lon="6.9037">
        <ele>917.1</ele>
        <time>2022-11-02T14:27:44Z</time>
      </trkpt>
      <trkpt lat="47.87843" lon="6.90369">
        <ele>917</ele>
        <time>2022-11-02T14:27:45Z</time>
      </trkpt>
      <trkpt lat="47.87843" lon="6.90368">
        <ele>916.9</ele>
        <time>2022-11-02T14:27:46Z</time>
      </trkpt>
      <trkpt lat="47.87843" lon="6.90367">
        <ele>916.7</ele>
        <time>2022-11-02T14:27:47Z</time>
      </trkpt>
      <trkpt lat="47.87843" lon="6.90366">
        <ele>916.6</ele>
        <time>2022-11-02T14:27:48Z</time>
      </trkpt>
      <trkpt lat="47.87843" lon="6.90365">
        <ele>916.5</ele>
        <time>2022-11-02T14:27:49Z</time>
      </trkpt>
      <trkpt lat="47.87842" lon="6.90363">
        <ele>916.3</ele>
        <time>2022-11-02T14:27:50Z</time>
      </trkpt>
      <trkpt lat="47.87842" lon="6.90362">
        <ele>916.2</ele>
        <time>2022-11-02T14:27:51Z</time>
      </trkpt>
      <trkpt lat="47.87843" lon="6.9036">
        <ele>915.8</ele>
        <time>2022-11-02T14:27:52Z</time>
      </trkpt>
      <trkpt lat="47.87843" lon="6.90359">
        <ele>915.7</ele>
        <time>2022-11-02T14:27:53Z</time>
      </trkpt>
      <trkpt lat="47.87843" lon="6.90357">
        <ele>915.4</ele>
        <time>2022-11-02T14:27:54Z</time>
      </trkpt>
      <trkpt lat="47.87843" lon="6.90355">
        <ele>915.2</ele>
        <time>2022-11-02T14:27:55Z</time>
      </trkpt>
      <trkpt lat="47.87843" lon="6.90353">
        <ele>914.9</ele>
        <time>2022-11-02T14:27:56Z</time>
      </trkpt>
      <trkpt lat="47.87842" lon="6.90351">
        <ele>914.7</ele>
        <time>2022-11-02T14:27:57Z</time>
      </trkpt>
      <trkpt lat="47.87842" lon="6.9035">
        <ele>914.6</ele>
        <time>2022-11-02T14:27:58Z</time>
      </trkpt>
      <trkpt lat="47.87841" lon="6.90348">
        <ele>914.3</ele>
        <time>2022-11-02T14:27:59Z</time>
      </trkpt>
      <trkpt lat="47.87841" lon="6.90347">
        <ele>914.2</ele>
        <time>2022-11-02T14:28:00Z</time>
      </trkpt>
      <trkpt lat="47.8784" lon="6.90346">
        <ele>914.1</ele>
        <time>2022-11-02T14:28:01Z</time>
      </trkpt>
      <trkpt lat="47.8784" lon="6.90344">
        <ele>913.8</ele>
        <time>2022-11-02T14:28:02Z</time>
      </trkpt>
      <trkpt lat="47.8784" lon="6.90343">
        <ele>913.6</ele>
        <time>2022-11-02T14:28:03Z</time>
      </trkpt>
      <trkpt lat="47.8784" lon="6.90341">
        <ele>913.4</ele>
        <time>2022-11-02T14:28:04Z</time>
      </trkpt>
      <trkpt lat="47.87841" lon="6.90339">
        <ele>913.1</ele>
        <time>2022-11-02T14:28:05Z</time>
      </trkpt>
      <trkpt lat="47.87841" lon="6.90338">
        <ele>912.9</ele>
        <time>2022-11-02T14:28:06Z</time>
      </trkpt>
      <trkpt lat="47.87841" lon="6.90336">
        <ele>912.7</ele>
        <time>2022-11-02T14:28:07Z</time>
      </trkpt>
      <trkpt lat="47.8784" lon="6.90334">
        <ele>912.3</ele>
        <time>2022-11-02T14:28:08Z</time>
      </trkpt>
      <trkpt lat="47.8784" lon="6.90333">
        <ele>912.2</ele>
        <time>2022-11-02T14:28:09Z</time>
      </trkpt>
      <trkpt lat="47.87839" lon="6.90332">
        <ele>911.9</ele>
        <time>2022-11-02T14:28:10Z</time>
      </trkpt>
      <trkpt lat="47.87839" lon="6.90331">
        <ele>911.8</ele>
        <time>2022-11-02T14:28:11Z</time>
      </trkpt>
      <trkpt lat="47.87838" lon="6.9033">
        <ele>911.5</ele>
        <time>2022-11-02T14:28:12Z</time>
      </trkpt>
      <trkpt lat="47.87838" lon="6.90329">
        <ele>911.3</ele>
        <time>2022-11-02T14:28:13Z</time>
      </trkpt>
      <trkpt lat="47.87838" lon="6.90328">
        <ele>911.1</ele>
        <time>2022-11-02T14:28:14Z</time>
      </trkpt>
      <trkpt lat="47.87838" lon="6.90327">
        <ele>910.9</ele>
        <time>2022-11-02T14:28:15Z</time>
      </trkpt>
      <trkpt lat="47.87839" lon="6.90326">
        <ele>910.8</ele>
        <time>2022-11-02T14:28:17Z</time>
      </trkpt>
      <trkpt lat="47.87839" lon="6.90325">
        <ele>910.6</ele>
        <time>2022-11-02T14:28:18Z</time>
      </trkpt>
      <trkpt lat="47.87839" lon="6.90324">
        <ele>910.4</ele>
        <time>2022-11-02T14:28:19Z</time>
      </trkpt>
      <trkpt lat="47.87839" lon="6.90323">
        <ele>910.2</ele>
        <time>2022-11-02T14:28:20Z</time>
      </trkpt>
      <trkpt lat="47.87839" lon="6.90321">
        <ele>909.8</ele>
        <time>2022-11-02T14:28:21Z</time>
      </trkpt>
      <trkpt lat="47.87839" lon="6.9032">
        <ele>909.6</ele>
        <time>2022-11-02T14:28:22Z</time>
      </trkpt>
      <trkpt lat="47.87838" lon="6.90318">
        <ele>909.1</ele>
        <time>2022-11-02T14:28:23Z</time>
      </trkpt>
      <trkpt lat="47.87838" lon="6.90317">
        <ele>908.9</ele>
        <time>2022-11-02T14:28:24Z</time>
      </trkpt>
      <trkpt lat="47.87838" lon="6.90316">
        <ele>908.7</ele>
        <time>2022-11-02T14:28:25Z</time>
      </trkpt>
      <trkpt lat="47.87837" lon="6.90314">
        <ele>908.2</ele>
        <time>2022-11-02T14:28:26Z</time>
      </trkpt>
      <trkpt lat="47.87837" lon="6.90313">
        <ele>908</ele>
        <time>2022-11-02T14:28:27Z</time>
      </trkpt>
      <trkpt lat="47.87837" lon="6.90312">
        <ele>907.8</ele>
        <time>2022-11-02T14:28:28Z</time>
      </trkpt>
      <trkpt lat="47.87837" lon="6.9031">
        <ele>907.4</ele>
        <time>2022-11-02T14:28:29Z</time>
      </trkpt>
      <trkpt lat="47.87837" lon="6.90309">
        <ele>907.2</ele>
        <time>2022-11-02T14:28:30Z</time>
      </trkpt>
      <trkpt lat="47.87837" lon="6.90308">
        <ele>907</ele>
        <time>2022-11-02T14:28:31Z</time>
      </trkpt>
      <trkpt lat="47.87837" lon="6.90307">
        <ele>906.8</ele>
        <time>2022-11-02T14:28:32Z</time>
      </trkpt>
      <trkpt lat="47.87837" lon="6.90306">
        <ele>906.6</ele>
        <time>2022-11-02T14:28:33Z</time>
      </trkpt>
      <trkpt lat="47.87837" lon="6.90305">
        <ele>906.4</ele>
        <time>2022-11-02T14:28:34Z</time>
      </trkpt>
      <trkpt lat="47.87836" lon="6.90304">
        <ele>905.9</ele>
        <time>2022-11-02T14:28:36Z</time>
      </trkpt>
      <trkpt lat="47.87836" lon="6.90303">
        <ele>905.7</ele>
        <time>2022-11-02T14:28:37Z</time>
      </trkpt>
      <trkpt lat="47.87835" lon="6.90302">
        <ele>905.2</ele>
        <time>2022-11-02T14:28:39Z</time>
      </trkpt>
      <trkpt lat="47.87835" lon="6.90301">
        <ele>904.9</ele>
        <time>2022-11-02T14:28:41Z</time>
      </trkpt>
      <trkpt lat="47.87835" lon="6.903">
        <ele>904.7</ele>
        <time>2022-11-02T14:28:42Z</time>
      </trkpt>
      <trkpt lat="47.87835" lon="6.90299">
        <ele>904.4</ele>
        <time>2022-11-02T14:28:43Z</time>
      </trkpt>
      <trkpt lat="47.87835" lon="6.90298">
        <ele>904.1</ele>
        <time>2022-11-02T14:28:44Z</time>
      </trkpt>
      <trkpt lat="47.87835" lon="6.90297">
        <ele>903.8</ele>
        <time>2022-11-02T14:28:45Z</time>
      </trkpt>
      <trkpt lat="47.87835" lon="6.90296">
        <ele>903.5</ele>
        <time>2022-11-02T14:28:47Z</time>
      </trkpt>
      <trkpt lat="47.87835" lon="6.90295">
        <ele>903.2</ele>
        <time>2022-11-02T14:28:48Z</time>
      </trkpt>
      <trkpt lat="47.87834" lon="6.90294">
        <ele>902.8</ele>
        <time>2022-11-02T14:28:49Z</time>
      </trkpt>
      <trkpt lat="47.87833" lon="6.90294">
        <ele>902.8</ele>
        <time>2022-11-02T14:28:50Z</time>
      </trkpt>
      <trkpt lat="47.87833" lon="6.90293">
        <ele>902.5</ele>
        <time>2022-11-02T14:28:51Z</time>
      </trkpt>
      <trkpt lat="47.87832" lon="6.90293">
        <ele>902.9</ele>
        <time>2022-11-02T14:28:52Z</time>
      </trkpt>
      <trkpt lat="47.87831" lon="6.90293">
        <ele>903.2</ele>
        <time>2022-11-02T14:28:53Z</time>
      </trkpt>
      <trkpt lat="47.8783" lon="6.90293">
        <ele>903.6</ele>
        <time>2022-11-02T14:28:54Z</time>
      </trkpt>
      <trkpt lat="47.8783" lon="6.90292">
        <ele>903.3</ele>
        <time>2022-11-02T14:28:56Z</time>
      </trkpt>
      <trkpt lat="47.87829" lon="6.90292">
        <ele>903.7</ele>
        <time>2022-11-02T14:28:57Z</time>
      </trkpt>
      <trkpt lat="47.87829" lon="6.90291">
        <ele>903.4</ele>
        <time>2022-11-02T14:28:58Z</time>
      </trkpt>
      <trkpt lat="47.87829" lon="6.9029">
        <ele>903.1</ele>
        <time>2022-11-02T14:28:59Z</time>
      </trkpt>
      <trkpt lat="47.87829" lon="6.90288">
        <ele>902.5</ele>
        <time>2022-11-02T14:29:00Z</time>
      </trkpt>
      <trkpt lat="47.87829" lon="6.90287">
        <ele>902.3</ele>
        <time>2022-11-02T14:29:01Z</time>
      </trkpt>
      <trkpt lat="47.87829" lon="6.90286">
        <ele>902</ele>
        <time>2022-11-02T14:29:02Z</time>
      </trkpt>
      <trkpt lat="47.87829" lon="6.90284">
        <ele>901.4</ele>
        <time>2022-11-02T14:29:03Z</time>
      </trkpt>
      <trkpt lat="47.8783" lon="6.90279">
        <ele>899.7</ele>
        <time>2022-11-02T14:29:13Z</time>
      </trkpt>
      <trkpt lat="47.8783" lon="6.90278">
        <ele>899.4</ele>
        <time>2022-11-02T14:29:14Z</time>
      </trkpt>
      <trkpt lat="47.87829" lon="6.90276">
        <ele>899.3</ele>
        <time>2022-11-02T14:29:15Z</time>
      </trkpt>
      <trkpt lat="47.87829" lon="6.90275">
        <ele>899</ele>
        <time>2022-11-02T14:29:16Z</time>
      </trkpt>
      <trkpt lat="47.87829" lon="6.90274">
        <ele>898.8</ele>
        <time>2022-11-02T14:29:17Z</time>
      </trkpt>
      <trkpt lat="47.87829" lon="6.90273">
        <ele>898.5</ele>
        <time>2022-11-02T14:29:18Z</time>
      </trkpt>
      <trkpt lat="47.87829" lon="6.90272">
        <ele>898.3</ele>
        <time>2022-11-02T14:29:19Z</time>
      </trkpt>
      <trkpt lat="47.87828" lon="6.90272">
        <ele>898.7</ele>
        <time>2022-11-02T14:29:20Z</time>
      </trkpt>
      <trkpt lat="47.87828" lon="6.90271">
        <ele>898.5</ele>
        <time>2022-11-02T14:29:21Z</time>
      </trkpt>
      <trkpt lat="47.87829" lon="6.9027">
        <ele>897.8</ele>
        <time>2022-11-02T14:29:23Z</time>
      </trkpt>
      <trkpt lat="47.87829" lon="6.90269">
        <ele>897.6</ele>
        <time>2022-11-02T14:29:24Z</time>
      </trkpt>
      <trkpt lat="47.87829" lon="6.90268">
        <ele>897.3</ele>
        <time>2022-11-02T14:29:25Z</time>
      </trkpt>
      <trkpt lat="47.87829" lon="6.90267">
        <ele>897.1</ele>
        <time>2022-11-02T14:29:26Z</time>
      </trkpt>
      <trkpt lat="47.87829" lon="6.90266">
        <ele>896.8</ele>
        <time>2022-11-02T14:29:27Z</time>
      </trkpt>
      <trkpt lat="47.87829" lon="6.90265">
        <ele>896.6</ele>
        <time>2022-11-02T14:29:28Z</time>
      </trkpt>
      <trkpt lat="47.87829" lon="6.90264">
        <ele>896.3</ele>
        <time>2022-11-02T14:29:29Z</time>
      </trkpt>
      <trkpt lat="47.87828" lon="6.90263">
        <ele>896.5</ele>
        <time>2022-11-02T14:29:31Z</time>
      </trkpt>
      <trkpt lat="47.87828" lon="6.90262">
        <ele>896.2</ele>
        <time>2022-11-02T14:29:32Z</time>
      </trkpt>
      <trkpt lat="47.87827" lon="6.90262">
        <ele>896.7</ele>
        <time>2022-11-02T14:29:33Z</time>
      </trkpt>
      <trkpt lat="47.87826" lon="6.90261">
        <ele>896.8</ele>
        <time>2022-11-02T14:29:34Z</time>
      </trkpt>
      <trkpt lat="47.87825" lon="6.9026">
        <ele>897</ele>
        <time>2022-11-02T14:29:36Z</time>
      </trkpt>
      <trkpt lat="47.87824" lon="6.90259">
        <ele>897.2</ele>
        <time>2022-11-02T14:29:37Z</time>
      </trkpt>
      <trkpt lat="47.87823" lon="6.90258">
        <ele>897.4</ele>
        <time>2022-11-02T14:29:38Z</time>
      </trkpt>
      <trkpt lat="47.87823" lon="6.90257">
        <ele>897.1</ele>
        <time>2022-11-02T14:29:39Z</time>
      </trkpt>
      <trkpt lat="47.87822" lon="6.90256">
        <ele>897.3</ele>
        <time>2022-11-02T14:29:40Z</time>
      </trkpt>
      <trkpt lat="47.87822" lon="6.90254">
        <ele>896.8</ele>
        <time>2022-11-02T14:29:41Z</time>
      </trkpt>
      <trkpt lat="47.87822" lon="6.90252">
        <ele>896.4</ele>
        <time>2022-11-02T14:29:42Z</time>
      </trkpt>
      <trkpt lat="47.87822" lon="6.90251">
        <ele>896.1</ele>
        <time>2022-11-02T14:29:43Z</time>
      </trkpt>
      <trkpt lat="47.87822" lon="6.90249">
        <ele>895.8</ele>
        <time>2022-11-02T14:29:44Z</time>
      </trkpt>
      <trkpt lat="47.87822" lon="6.90247">
        <ele>895.5</ele>
        <time>2022-11-02T14:29:45Z</time>
      </trkpt>
      <trkpt lat="47.87822" lon="6.90246">
        <ele>895.3</ele>
        <time>2022-11-02T14:29:46Z</time>
      </trkpt>
      <trkpt lat="47.87822" lon="6.90244">
        <ele>895</ele>
        <time>2022-11-02T14:29:47Z</time>
      </trkpt>
      <trkpt lat="47.87822" lon="6.90243">
        <ele>894.9</ele>
        <time>2022-11-02T14:29:48Z</time>
      </trkpt>
      <trkpt lat="47.87822" lon="6.90241">
        <ele>894.6</ele>
        <time>2022-11-02T14:29:49Z</time>
      </trkpt>
      <trkpt lat="47.87822" lon="6.9024">
        <ele>894.5</ele>
        <time>2022-11-02T14:29:50Z</time>
      </trkpt>
      <trkpt lat="47.87822" lon="6.90238">
        <ele>894.2</ele>
        <time>2022-11-02T14:29:51Z</time>
      </trkpt>
      <trkpt lat="47.87823" lon="6.90237">
        <ele>893.6</ele>
        <time>2022-11-02T14:29:52Z</time>
      </trkpt>
      <trkpt lat="47.87823" lon="6.90235">
        <ele>893.3</ele>
        <time>2022-11-02T14:29:53Z</time>
      </trkpt>
      <trkpt lat="47.87823" lon="6.90234">
        <ele>893.2</ele>
        <time>2022-11-02T14:29:54Z</time>
      </trkpt>
      <trkpt lat="47.87823" lon="6.90233">
        <ele>893</ele>
        <time>2022-11-02T14:29:55Z</time>
      </trkpt>
      <trkpt lat="47.87823" lon="6.90232">
        <ele>892.9</ele>
        <time>2022-11-02T14:29:56Z</time>
      </trkpt>
      <trkpt lat="47.87823" lon="6.90231">
        <ele>892.7</ele>
        <time>2022-11-02T14:29:57Z</time>
      </trkpt>
      <trkpt lat="47.87823" lon="6.9023">
        <ele>892.6</ele>
        <time>2022-11-02T14:29:58Z</time>
      </trkpt>
      <trkpt lat="47.87822" lon="6.90228">
        <ele>892.7</ele>
        <time>2022-11-02T14:29:59Z</time>
      </trkpt>
      <trkpt lat="47.87822" lon="6.90227">
        <ele>892.6</ele>
        <time>2022-11-02T14:30:00Z</time>
      </trkpt>
      <trkpt lat="47.87823" lon="6.90226">
        <ele>892</ele>
        <time>2022-11-02T14:30:01Z</time>
      </trkpt>
      <trkpt lat="47.87823" lon="6.90225">
        <ele>891.9</ele>
        <time>2022-11-02T14:30:02Z</time>
      </trkpt>
      <trkpt lat="47.87823" lon="6.90223">
        <ele>891.6</ele>
        <time>2022-11-02T14:30:03Z</time>
      </trkpt>
      <trkpt lat="47.87823" lon="6.90221">
        <ele>891.4</ele>
        <time>2022-11-02T14:30:04Z</time>
      </trkpt>
      <trkpt lat="47.87824" lon="6.9022">
        <ele>891</ele>
        <time>2022-11-02T14:30:05Z</time>
      </trkpt>
      <trkpt lat="47.87824" lon="6.90219">
        <ele>891</ele>
        <time>2022-11-02T14:30:06Z</time>
      </trkpt>
      <trkpt lat="47.87825" lon="6.90218">
        <ele>890.5</ele>
        <time>2022-11-02T14:30:07Z</time>
      </trkpt>
      <trkpt lat="47.87825" lon="6.90216">
        <ele>890.5</ele>
        <time>2022-11-02T14:30:08Z</time>
      </trkpt>
      <trkpt lat="47.87824" lon="6.90215">
        <ele>890.9</ele>
        <time>2022-11-02T14:30:09Z</time>
      </trkpt>
      <trkpt lat="47.87824" lon="6.90213">
        <ele>890.8</ele>
        <time>2022-11-02T14:30:10Z</time>
      </trkpt>
      <trkpt lat="47.87824" lon="6.90211">
        <ele>890.8</ele>
        <time>2022-11-02T14:30:11Z</time>
      </trkpt>
      <trkpt lat="47.87824" lon="6.90208">
        <ele>890.7</ele>
        <time>2022-11-02T14:30:12Z</time>
      </trkpt>
      <trkpt lat="47.87824" lon="6.90206">
        <ele>890.6</ele>
        <time>2022-11-02T14:30:13Z</time>
      </trkpt>
      <trkpt lat="47.87825" lon="6.90204">
        <ele>890.2</ele>
        <time>2022-11-02T14:30:14Z</time>
      </trkpt>
      <trkpt lat="47.87825" lon="6.90202">
        <ele>890.2</ele>
        <time>2022-11-02T14:30:15Z</time>
      </trkpt>
      <trkpt lat="47.87826" lon="6.902">
        <ele>889.7</ele>
        <time>2022-11-02T14:30:16Z</time>
      </trkpt>
      <trkpt lat="47.87826" lon="6.90199">
        <ele>889.7</ele>
        <time>2022-11-02T14:30:17Z</time>
      </trkpt>
      <trkpt lat="47.87826" lon="6.90198">
        <ele>889.7</ele>
        <time>2022-11-02T14:30:18Z</time>
      </trkpt>
      <trkpt lat="47.87826" lon="6.90197">
        <ele>889.7</ele>
        <time>2022-11-02T14:30:19Z</time>
      </trkpt>
      <trkpt lat="47.87826" lon="6.90196">
        <ele>889.7</ele>
        <time>2022-11-02T14:30:21Z</time>
      </trkpt>
      <trkpt lat="47.87827" lon="6.90195">
        <ele>889.3</ele>
        <time>2022-11-02T14:30:22Z</time>
      </trkpt>
      <trkpt lat="47.87828" lon="6.90194">
        <ele>888.9</ele>
        <time>2022-11-02T14:30:24Z</time>
      </trkpt>
      <trkpt lat="47.87829" lon="6.90194">
        <ele>888.5</ele>
        <time>2022-11-02T14:30:25Z</time>
      </trkpt>
      <trkpt lat="47.8783" lon="6.90193">
        <ele>888.1</ele>
        <time>2022-11-02T14:30:26Z</time>
      </trkpt>
      <trkpt lat="47.87831" lon="6.90192">
        <ele>887.7</ele>
        <time>2022-11-02T14:30:27Z</time>
      </trkpt>
      <trkpt lat="47.87832" lon="6.90191">
        <ele>887.3</ele>
        <time>2022-11-02T14:30:28Z</time>
      </trkpt>
      <trkpt lat="47.87833" lon="6.9019">
        <ele>887</ele>
        <time>2022-11-02T14:30:29Z</time>
      </trkpt>
      <trkpt lat="47.87834" lon="6.90189">
        <ele>886.8</ele>
        <time>2022-11-02T14:30:30Z</time>
      </trkpt>
      <trkpt lat="47.87835" lon="6.90189">
        <ele>886.8</ele>
        <time>2022-11-02T14:30:31Z</time>
      </trkpt>
      <trkpt lat="47.87835" lon="6.90188">
        <ele>886.8</ele>
        <time>2022-11-02T14:30:32Z</time>
      </trkpt>
      <trkpt lat="47.87836" lon="6.90187">
        <ele>886.7</ele>
        <time>2022-11-02T14:30:33Z</time>
      </trkpt>
      <trkpt lat="47.87837" lon="6.90186">
        <ele>886.6</ele>
        <time>2022-11-02T14:30:34Z</time>
      </trkpt>
      <trkpt lat="47.87838" lon="6.90185">
        <ele>886.5</ele>
        <time>2022-11-02T14:30:35Z</time>
      </trkpt>
      <trkpt lat="47.87839" lon="6.90184">
        <ele>886.4</ele>
        <time>2022-11-02T14:30:36Z</time>
      </trkpt>
      <trkpt lat="47.8784" lon="6.90183">
        <ele>886.3</ele>
        <time>2022-11-02T14:30:37Z</time>
      </trkpt>
      <trkpt lat="47.87842" lon="6.90182">
        <ele>886.2</ele>
        <time>2022-11-02T14:30:38Z</time>
      </trkpt>
      <trkpt lat="47.87844" lon="6.90181">
        <ele>886</ele>
        <time>2022-11-02T14:30:39Z</time>
      </trkpt>
      <trkpt lat="47.87847" lon="6.9018">
        <ele>885.7</ele>
        <time>2022-11-02T14:30:40Z</time>
      </trkpt>
      <trkpt lat="47.87849" lon="6.9018">
        <ele>885.6</ele>
        <time>2022-11-02T14:30:41Z</time>
      </trkpt>
      <trkpt lat="47.87851" lon="6.90179">
        <ele>885.3</ele>
        <time>2022-11-02T14:30:42Z</time>
      </trkpt>
      <trkpt lat="47.87853" lon="6.90179">
        <ele>885.2</ele>
        <time>2022-11-02T14:30:43Z</time>
      </trkpt>
      <trkpt lat="47.87854" lon="6.90179">
        <ele>885.1</ele>
        <time>2022-11-02T14:30:44Z</time>
      </trkpt>
      <trkpt lat="47.87855" lon="6.90178">
        <ele>884.9</ele>
        <time>2022-11-02T14:30:45Z</time>
      </trkpt>
      <trkpt lat="47.87856" lon="6.90178">
        <ele>884.8</ele>
        <time>2022-11-02T14:30:46Z</time>
      </trkpt>
      <trkpt lat="47.87857" lon="6.90178">
        <ele>884.7</ele>
        <time>2022-11-02T14:30:47Z</time>
      </trkpt>
      <trkpt lat="47.87858" lon="6.90178">
        <ele>884.7</ele>
        <time>2022-11-02T14:30:48Z</time>
      </trkpt>
      <trkpt lat="47.87859" lon="6.90178">
        <ele>884.6</ele>
        <time>2022-11-02T14:30:50Z</time>
      </trkpt>
      <trkpt lat="47.8786" lon="6.90178">
        <ele>884.5</ele>
        <time>2022-11-02T14:30:51Z</time>
      </trkpt>
      <trkpt lat="47.87862" lon="6.90178">
        <ele>884.5</ele>
        <time>2022-11-02T14:30:57Z</time>
      </trkpt>
      <trkpt lat="47.87863" lon="6.90178">
        <ele>884.5</ele>
        <time>2022-11-02T14:30:58Z</time>
      </trkpt>
      <trkpt lat="47.87864" lon="6.90178">
        <ele>884.5</ele>
        <time>2022-11-02T14:30:59Z</time>
      </trkpt>
      <trkpt lat="47.87865" lon="6.90178">
        <ele>884.6</ele>
        <time>2022-11-02T14:31:00Z</time>
      </trkpt>
      <trkpt lat="47.87866" lon="6.90179">
        <ele>884.8</ele>
        <time>2022-11-02T14:31:01Z</time>
      </trkpt>
      <trkpt lat="47.87867" lon="6.90179">
        <ele>884.9</ele>
        <time>2022-11-02T14:31:02Z</time>
      </trkpt>
      <trkpt lat="47.87867" lon="6.9018">
        <ele>885.1</ele>
        <time>2022-11-02T14:31:03Z</time>
      </trkpt>
      <trkpt lat="47.87869" lon="6.9018">
        <ele>885.2</ele>
        <time>2022-11-02T14:31:04Z</time>
      </trkpt>
      <trkpt lat="47.8787" lon="6.90181">
        <ele>885.4</ele>
        <time>2022-11-02T14:31:05Z</time>
      </trkpt>
      <trkpt lat="47.87871" lon="6.9018">
        <ele>885.2</ele>
        <time>2022-11-02T14:31:06Z</time>
      </trkpt>
      <trkpt lat="47.87872" lon="6.9018">
        <ele>885.3</ele>
        <time>2022-11-02T14:31:07Z</time>
      </trkpt>
      <trkpt lat="47.87873" lon="6.9018">
        <ele>885.3</ele>
        <time>2022-11-02T14:31:08Z</time>
      </trkpt>
      <trkpt lat="47.87874" lon="6.90179">
        <ele>885.1</ele>
        <time>2022-11-02T14:31:09Z</time>
      </trkpt>
      <trkpt lat="47.87875" lon="6.90179">
        <ele>885.1</ele>
        <time>2022-11-02T14:31:10Z</time>
      </trkpt>
      <trkpt lat="47.87877" lon="6.90179">
        <ele>885.2</ele>
        <time>2022-11-02T14:31:11Z</time>
      </trkpt>
      <trkpt lat="47.87878" lon="6.90179">
        <ele>885.2</ele>
        <time>2022-11-02T14:31:12Z</time>
      </trkpt>
      <trkpt lat="47.87879" lon="6.90179">
        <ele>885.2</ele>
        <time>2022-11-02T14:31:13Z</time>
      </trkpt>
      <trkpt lat="47.87881" lon="6.90179">
        <ele>885.3</ele>
        <time>2022-11-02T14:31:14Z</time>
      </trkpt>
      <trkpt lat="47.87882" lon="6.90179">
        <ele>885.3</ele>
        <time>2022-11-02T14:31:15Z</time>
      </trkpt>
      <trkpt lat="47.87884" lon="6.90178">
        <ele>885.1</ele>
        <time>2022-11-02T14:31:16Z</time>
      </trkpt>
      <trkpt lat="47.87885" lon="6.90177">
        <ele>884.9</ele>
        <time>2022-11-02T14:31:17Z</time>
      </trkpt>
      <trkpt lat="47.87886" lon="6.90176">
        <ele>884.6</ele>
        <time>2022-11-02T14:31:18Z</time>
      </trkpt>
      <trkpt lat="47.87887" lon="6.90175">
        <ele>884.4</ele>
        <time>2022-11-02T14:31:19Z</time>
      </trkpt>
      <trkpt lat="47.87888" lon="6.90174">
        <ele>884.1</ele>
        <time>2022-11-02T14:31:20Z</time>
      </trkpt>
      <trkpt lat="47.87889" lon="6.90172">
        <ele>883.6</ele>
        <time>2022-11-02T14:31:21Z</time>
      </trkpt>
      <trkpt lat="47.8789" lon="6.90171">
        <ele>883.5</ele>
        <time>2022-11-02T14:31:22Z</time>
      </trkpt>
      <trkpt lat="47.87891" lon="6.9017">
        <ele>883.4</ele>
        <time>2022-11-02T14:31:23Z</time>
      </trkpt>
      <trkpt lat="47.87892" lon="6.90169">
        <ele>883.3</ele>
        <time>2022-11-02T14:31:24Z</time>
      </trkpt>
      <trkpt lat="47.87893" lon="6.90168">
        <ele>883.1</ele>
        <time>2022-11-02T14:31:25Z</time>
      </trkpt>
      <trkpt lat="47.87894" lon="6.90168">
        <ele>883.3</ele>
        <time>2022-11-02T14:31:26Z</time>
      </trkpt>
      <trkpt lat="47.87895" lon="6.90167">
        <ele>883.2</ele>
        <time>2022-11-02T14:31:27Z</time>
      </trkpt>
      <trkpt lat="47.87896" lon="6.90166">
        <ele>883.1</ele>
        <time>2022-11-02T14:31:28Z</time>
      </trkpt>
      <trkpt lat="47.87897" lon="6.90166">
        <ele>883.2</ele>
        <time>2022-11-02T14:31:29Z</time>
      </trkpt>
      <trkpt lat="47.87898" lon="6.90164">
        <ele>882.7</ele>
        <time>2022-11-02T14:31:30Z</time>
      </trkpt>
      <trkpt lat="47.87899" lon="6.90163">
        <ele>882.5</ele>
        <time>2022-11-02T14:31:31Z</time>
      </trkpt>
      <trkpt lat="47.87901" lon="6.90162">
        <ele>882.5</ele>
        <time>2022-11-02T14:31:32Z</time>
      </trkpt>
      <trkpt lat="47.87902" lon="6.9016">
        <ele>882</ele>
        <time>2022-11-02T14:31:33Z</time>
      </trkpt>
      <trkpt lat="47.87903" lon="6.90159">
        <ele>881.8</ele>
        <time>2022-11-02T14:31:34Z</time>
      </trkpt>
      <trkpt lat="47.87904" lon="6.90157">
        <ele>881.2</ele>
        <time>2022-11-02T14:31:35Z</time>
      </trkpt>
      <trkpt lat="47.87905" lon="6.90156">
        <ele>881</ele>
        <time>2022-11-02T14:31:36Z</time>
      </trkpt>
      <trkpt lat="47.87906" lon="6.90155">
        <ele>880.8</ele>
        <time>2022-11-02T14:31:37Z</time>
      </trkpt>
      <trkpt lat="47.87907" lon="6.90154">
        <ele>880.6</ele>
        <time>2022-11-02T14:31:38Z</time>
      </trkpt>
      <trkpt lat="47.87908" lon="6.90153">
        <ele>880.3</ele>
        <time>2022-11-02T14:31:39Z</time>
      </trkpt>
      <trkpt lat="47.87909" lon="6.90152">
        <ele>880.1</ele>
        <time>2022-11-02T14:31:40Z</time>
      </trkpt>
      <trkpt lat="47.8791" lon="6.90151">
        <ele>879.9</ele>
        <time>2022-11-02T14:31:41Z</time>
      </trkpt>
      <trkpt lat="47.87911" lon="6.9015">
        <ele>879.6</ele>
        <time>2022-11-02T14:31:42Z</time>
      </trkpt>
      <trkpt lat="47.87912" lon="6.9015">
        <ele>879.8</ele>
        <time>2022-11-02T14:31:43Z</time>
      </trkpt>
      <trkpt lat="47.87913" lon="6.90149">
        <ele>879.5</ele>
        <time>2022-11-02T14:31:44Z</time>
      </trkpt>
      <trkpt lat="47.87914" lon="6.90149">
        <ele>879.6</ele>
        <time>2022-11-02T14:31:45Z</time>
      </trkpt>
      <trkpt lat="47.87915" lon="6.90149">
        <ele>879.8</ele>
        <time>2022-11-02T14:31:46Z</time>
      </trkpt>
      <trkpt lat="47.87916" lon="6.90149">
        <ele>879.9</ele>
        <time>2022-11-02T14:31:47Z</time>
      </trkpt>
      <trkpt lat="47.87917" lon="6.90149">
        <ele>880</ele>
        <time>2022-11-02T14:31:48Z</time>
      </trkpt>
      <trkpt lat="47.87918" lon="6.90149">
        <ele>879.9</ele>
        <time>2022-11-02T14:31:49Z</time>
      </trkpt>
      <trkpt lat="47.87919" lon="6.90149">
        <ele>879.8</ele>
        <time>2022-11-02T14:31:50Z</time>
      </trkpt>
      <trkpt lat="47.8792" lon="6.90149">
        <ele>879.8</ele>
        <time>2022-11-02T14:31:51Z</time>
      </trkpt>
      <trkpt lat="47.87921" lon="6.90149">
        <ele>879.7</ele>
        <time>2022-11-02T14:31:52Z</time>
      </trkpt>
      <trkpt lat="47.87922" lon="6.90149">
        <ele>879.6</ele>
        <time>2022-11-02T14:31:53Z</time>
      </trkpt>
      <trkpt lat="47.87923" lon="6.90149">
        <ele>879.5</ele>
        <time>2022-11-02T14:31:54Z</time>
      </trkpt>
      <trkpt lat="47.87924" lon="6.90149">
        <ele>879.5</ele>
        <time>2022-11-02T14:31:55Z</time>
      </trkpt>
      <trkpt lat="47.87925" lon="6.9015">
        <ele>879.8</ele>
        <time>2022-11-02T14:31:56Z</time>
      </trkpt>
      <trkpt lat="47.87926" lon="6.9015">
        <ele>879.7</ele>
        <time>2022-11-02T14:31:57Z</time>
      </trkpt>
      <trkpt lat="47.87927" lon="6.9015">
        <ele>879.7</ele>
        <time>2022-11-02T14:31:58Z</time>
      </trkpt>
      <trkpt lat="47.87928" lon="6.90151">
        <ele>880</ele>
        <time>2022-11-02T14:32:00Z</time>
      </trkpt>
      <trkpt lat="47.87929" lon="6.90151">
        <ele>879.9</ele>
        <time>2022-11-02T14:32:02Z</time>
      </trkpt>
      <trkpt lat="47.8793" lon="6.90151">
        <ele>879.8</ele>
        <time>2022-11-02T14:32:03Z</time>
      </trkpt>
      <trkpt lat="47.8793" lon="6.90152">
        <ele>880.2</ele>
        <time>2022-11-02T14:32:04Z</time>
      </trkpt>
      <trkpt lat="47.87931" lon="6.90152">
        <ele>880.2</ele>
        <time>2022-11-02T14:32:05Z</time>
      </trkpt>
      <trkpt lat="47.87932" lon="6.90152">
        <ele>880.1</ele>
        <time>2022-11-02T14:32:06Z</time>
      </trkpt>
      <trkpt lat="47.87933" lon="6.90153">
        <ele>880.4</ele>
        <time>2022-11-02T14:32:07Z</time>
      </trkpt>
      <trkpt lat="47.87934" lon="6.90154">
        <ele>880.7</ele>
        <time>2022-11-02T14:32:08Z</time>
      </trkpt>
      <trkpt lat="47.87936" lon="6.90154">
        <ele>880.6</ele>
        <time>2022-11-02T14:32:09Z</time>
      </trkpt>
      <trkpt lat="47.87937" lon="6.90155">
        <ele>880.9</ele>
        <time>2022-11-02T14:32:10Z</time>
      </trkpt>
      <trkpt lat="47.87938" lon="6.90155">
        <ele>880.8</ele>
        <time>2022-11-02T14:32:11Z</time>
      </trkpt>
      <trkpt lat="47.87939" lon="6.90156">
        <ele>881.2</ele>
        <time>2022-11-02T14:32:12Z</time>
      </trkpt>
      <trkpt lat="47.8794" lon="6.90156">
        <ele>881.1</ele>
        <time>2022-11-02T14:32:13Z</time>
      </trkpt>
      <trkpt lat="47.87941" lon="6.90156">
        <ele>881</ele>
        <time>2022-11-02T14:32:14Z</time>
      </trkpt>
      <trkpt lat="47.87942" lon="6.90156">
        <ele>881</ele>
        <time>2022-11-02T14:32:15Z</time>
      </trkpt>
      <trkpt lat="47.87943" lon="6.90157">
        <ele>881.3</ele>
        <time>2022-11-02T14:32:16Z</time>
      </trkpt>
      <trkpt lat="47.87944" lon="6.90157">
        <ele>881.2</ele>
        <time>2022-11-02T14:32:17Z</time>
      </trkpt>
      <trkpt lat="47.87945" lon="6.90158">
        <ele>881.5</ele>
        <time>2022-11-02T14:32:18Z</time>
      </trkpt>
      <trkpt lat="47.87946" lon="6.90158">
        <ele>881.3</ele>
        <time>2022-11-02T14:32:19Z</time>
      </trkpt>
      <trkpt lat="47.87947" lon="6.90159">
        <ele>881.5</ele>
        <time>2022-11-02T14:32:20Z</time>
      </trkpt>
      <trkpt lat="47.87948" lon="6.90159">
        <ele>881.4</ele>
        <time>2022-11-02T14:32:21Z</time>
      </trkpt>
      <trkpt lat="47.87949" lon="6.9016">
        <ele>881.6</ele>
        <time>2022-11-02T14:32:22Z</time>
      </trkpt>
      <trkpt lat="47.8795" lon="6.90161">
        <ele>881.8</ele>
        <time>2022-11-02T14:32:23Z</time>
      </trkpt>
      <trkpt lat="47.87952" lon="6.90162">
        <ele>881.8</ele>
        <time>2022-11-02T14:32:24Z</time>
      </trkpt>
      <trkpt lat="47.87953" lon="6.90162">
        <ele>881.7</ele>
        <time>2022-11-02T14:32:25Z</time>
      </trkpt>
      <trkpt lat="47.87954" lon="6.90163">
        <ele>881.9</ele>
        <time>2022-11-02T14:32:26Z</time>
      </trkpt>
      <trkpt lat="47.87955" lon="6.90164">
        <ele>882.1</ele>
        <time>2022-11-02T14:32:27Z</time>
      </trkpt>
      <trkpt lat="47.87956" lon="6.90164">
        <ele>881.9</ele>
        <time>2022-11-02T14:32:28Z</time>
      </trkpt>
      <trkpt lat="47.87957" lon="6.90165">
        <ele>882.1</ele>
        <time>2022-11-02T14:32:29Z</time>
      </trkpt>
      <trkpt lat="47.87958" lon="6.90165">
        <ele>881.9</ele>
        <time>2022-11-02T14:32:30Z</time>
      </trkpt>
      <trkpt lat="47.87959" lon="6.90166">
        <ele>882.1</ele>
        <time>2022-11-02T14:32:31Z</time>
      </trkpt>
      <trkpt lat="47.8796" lon="6.90167">
        <ele>882.3</ele>
        <time>2022-11-02T14:32:32Z</time>
      </trkpt>
      <trkpt lat="47.87961" lon="6.90168">
        <ele>882.5</ele>
        <time>2022-11-02T14:32:33Z</time>
      </trkpt>
      <trkpt lat="47.87962" lon="6.90169">
        <ele>882.6</ele>
        <time>2022-11-02T14:32:34Z</time>
      </trkpt>
      <trkpt lat="47.87963" lon="6.9017">
        <ele>882.8</ele>
        <time>2022-11-02T14:32:35Z</time>
      </trkpt>
      <trkpt lat="47.87964" lon="6.90171">
        <ele>882.9</ele>
        <time>2022-11-02T14:32:37Z</time>
      </trkpt>
      <trkpt lat="47.87965" lon="6.90171">
        <ele>882.7</ele>
        <time>2022-11-02T14:32:38Z</time>
      </trkpt>
      <trkpt lat="47.87966" lon="6.9017">
        <ele>882.2</ele>
        <time>2022-11-02T14:32:39Z</time>
      </trkpt>
      <trkpt lat="47.87967" lon="6.9017">
        <ele>882</ele>
        <time>2022-11-02T14:32:40Z</time>
      </trkpt>
      <trkpt lat="47.87968" lon="6.9017">
        <ele>881.9</ele>
        <time>2022-11-02T14:32:41Z</time>
      </trkpt>
      <trkpt lat="47.87969" lon="6.90171">
        <ele>882</ele>
        <time>2022-11-02T14:32:42Z</time>
      </trkpt>
      <trkpt lat="47.87971" lon="6.90171">
        <ele>881.6</ele>
        <time>2022-11-02T14:32:43Z</time>
      </trkpt>
      <trkpt lat="47.87972" lon="6.90172">
        <ele>881.8</ele>
        <time>2022-11-02T14:32:44Z</time>
      </trkpt>
      <trkpt lat="47.87973" lon="6.90172">
        <ele>881.6</ele>
        <time>2022-11-02T14:32:45Z</time>
      </trkpt>
      <trkpt lat="47.87975" lon="6.90172">
        <ele>881.3</ele>
        <time>2022-11-02T14:32:46Z</time>
      </trkpt>
      <trkpt lat="47.87976" lon="6.90173">
        <ele>881.5</ele>
        <time>2022-11-02T14:32:47Z</time>
      </trkpt>
      <trkpt lat="47.87977" lon="6.90174">
        <ele>881.7</ele>
        <time>2022-11-02T14:32:48Z</time>
      </trkpt>
      <trkpt lat="47.87977" lon="6.90175">
        <ele>882</ele>
        <time>2022-11-02T14:32:49Z</time>
      </trkpt>
      <trkpt lat="47.87978" lon="6.90175">
        <ele>881.9</ele>
        <time>2022-11-02T14:32:50Z</time>
      </trkpt>
      <trkpt lat="47.87979" lon="6.90176">
        <ele>882</ele>
        <time>2022-11-02T14:32:51Z</time>
      </trkpt>
      <trkpt lat="47.8798" lon="6.90177">
        <ele>882.2</ele>
        <time>2022-11-02T14:32:52Z</time>
      </trkpt>
      <trkpt lat="47.87981" lon="6.90177">
        <ele>882.1</ele>
        <time>2022-11-02T14:32:53Z</time>
      </trkpt>
      <trkpt lat="47.87982" lon="6.90177">
        <ele>881.9</ele>
        <time>2022-11-02T14:32:54Z</time>
      </trkpt>
      <trkpt lat="47.87983" lon="6.90178">
        <ele>882.1</ele>
        <time>2022-11-02T14:32:55Z</time>
      </trkpt>
      <trkpt lat="47.87984" lon="6.90178">
        <ele>882</ele>
        <time>2022-11-02T14:32:56Z</time>
      </trkpt>
      <trkpt lat="47.87985" lon="6.90179">
        <ele>882.2</ele>
        <time>2022-11-02T14:32:57Z</time>
      </trkpt>
      <trkpt lat="47.87987" lon="6.90179">
        <ele>881.9</ele>
        <time>2022-11-02T14:32:58Z</time>
      </trkpt>
      <trkpt lat="47.87988" lon="6.90179">
        <ele>881.7</ele>
        <time>2022-11-02T14:32:59Z</time>
      </trkpt>
      <trkpt lat="47.87989" lon="6.90179">
        <ele>881.6</ele>
        <time>2022-11-02T14:33:00Z</time>
      </trkpt>
      <trkpt lat="47.8799" lon="6.90179">
        <ele>881.4</ele>
        <time>2022-11-02T14:33:02Z</time>
      </trkpt>
      <trkpt lat="47.87991" lon="6.90179">
        <ele>881.3</ele>
        <time>2022-11-02T14:33:03Z</time>
      </trkpt>
      <trkpt lat="47.87992" lon="6.9018">
        <ele>881.5</ele>
        <time>2022-11-02T14:33:04Z</time>
      </trkpt>
      <trkpt lat="47.87993" lon="6.9018">
        <ele>881.3</ele>
        <time>2022-11-02T14:33:05Z</time>
      </trkpt>
      <trkpt lat="47.87994" lon="6.9018">
        <ele>881.2</ele>
        <time>2022-11-02T14:33:06Z</time>
      </trkpt>
      <trkpt lat="47.87995" lon="6.90181">
        <ele>881.4</ele>
        <time>2022-11-02T14:33:07Z</time>
      </trkpt>
      <trkpt lat="47.87996" lon="6.90181">
        <ele>881.2</ele>
        <time>2022-11-02T14:33:08Z</time>
      </trkpt>
      <trkpt lat="47.87997" lon="6.90182">
        <ele>881.4</ele>
        <time>2022-11-02T14:33:09Z</time>
      </trkpt>
      <trkpt lat="47.87998" lon="6.90183">
        <ele>881.6</ele>
        <time>2022-11-02T14:33:10Z</time>
      </trkpt>
      <trkpt lat="47.88" lon="6.90184">
        <ele>881.6</ele>
        <time>2022-11-02T14:33:11Z</time>
      </trkpt>
      <trkpt lat="47.88001" lon="6.90185">
        <ele>881.8</ele>
        <time>2022-11-02T14:33:12Z</time>
      </trkpt>
      <trkpt lat="47.88002" lon="6.90186">
        <ele>882</ele>
        <time>2022-11-02T14:33:13Z</time>
      </trkpt>
      <trkpt lat="47.88003" lon="6.90188">
        <ele>882.5</ele>
        <time>2022-11-02T14:33:14Z</time>
      </trkpt>
      <trkpt lat="47.88004" lon="6.9019">
        <ele>883</ele>
        <time>2022-11-02T14:33:15Z</time>
      </trkpt>
      <trkpt lat="47.88004" lon="6.90192">
        <ele>883.7</ele>
        <time>2022-11-02T14:33:16Z</time>
      </trkpt>
      <trkpt lat="47.88006" lon="6.90194">
        <ele>884</ele>
        <time>2022-11-02T14:33:17Z</time>
      </trkpt>
      <trkpt lat="47.88007" lon="6.90196">
        <ele>884.4</ele>
        <time>2022-11-02T14:33:18Z</time>
      </trkpt>
      <trkpt lat="47.88008" lon="6.90197">
        <ele>884.5</ele>
        <time>2022-11-02T14:33:19Z</time>
      </trkpt>
      <trkpt lat="47.8801" lon="6.90198">
        <ele>884.5</ele>
        <time>2022-11-02T14:33:20Z</time>
      </trkpt>
      <trkpt lat="47.88011" lon="6.902">
        <ele>884.9</ele>
        <time>2022-11-02T14:33:21Z</time>
      </trkpt>
      <trkpt lat="47.88013" lon="6.90201">
        <ele>884.8</ele>
        <time>2022-11-02T14:33:22Z</time>
      </trkpt>
      <trkpt lat="47.88014" lon="6.90201">
        <ele>884.6</ele>
        <time>2022-11-02T14:33:23Z</time>
      </trkpt>
      <trkpt lat="47.88015" lon="6.90202">
        <ele>884.7</ele>
        <time>2022-11-02T14:33:24Z</time>
      </trkpt>
      <trkpt lat="47.88016" lon="6.90203">
        <ele>884.8</ele>
        <time>2022-11-02T14:33:25Z</time>
      </trkpt>
      <trkpt lat="47.88017" lon="6.90203">
        <ele>884.6</ele>
        <time>2022-11-02T14:33:26Z</time>
      </trkpt>
      <trkpt lat="47.88018" lon="6.90204">
        <ele>884.7</ele>
        <time>2022-11-02T14:33:27Z</time>
      </trkpt>
      <trkpt lat="47.88019" lon="6.90204">
        <ele>884.5</ele>
        <time>2022-11-02T14:33:28Z</time>
      </trkpt>
      <trkpt lat="47.8802" lon="6.90205">
        <ele>884.6</ele>
        <time>2022-11-02T14:33:29Z</time>
      </trkpt>
      <trkpt lat="47.88021" lon="6.90205">
        <ele>884.4</ele>
        <time>2022-11-02T14:33:30Z</time>
      </trkpt>
      <trkpt lat="47.88022" lon="6.90205">
        <ele>884.3</ele>
        <time>2022-11-02T14:33:32Z</time>
      </trkpt>
      <trkpt lat="47.88023" lon="6.90206">
        <ele>884.3</ele>
        <time>2022-11-02T14:33:33Z</time>
      </trkpt>
      <trkpt lat="47.88024" lon="6.90206">
        <ele>884.2</ele>
        <time>2022-11-02T14:33:34Z</time>
      </trkpt>
      <trkpt lat="47.88025" lon="6.90207">
        <ele>884.2</ele>
        <time>2022-11-02T14:33:35Z</time>
      </trkpt>
      <trkpt lat="47.88026" lon="6.90207">
        <ele>884</ele>
        <time>2022-11-02T14:33:36Z</time>
      </trkpt>
      <trkpt lat="47.88027" lon="6.90208">
        <ele>884.1</ele>
        <time>2022-11-02T14:33:37Z</time>
      </trkpt>
      <trkpt lat="47.88028" lon="6.90209">
        <ele>884.1</ele>
        <time>2022-11-02T14:33:38Z</time>
      </trkpt>
      <trkpt lat="47.88029" lon="6.90209">
        <ele>884</ele>
        <time>2022-11-02T14:33:39Z</time>
      </trkpt>
      <trkpt lat="47.8803" lon="6.9021">
        <ele>884.2</ele>
        <time>2022-11-02T14:33:40Z</time>
      </trkpt>
      <trkpt lat="47.88032" lon="6.90211">
        <ele>884.2</ele>
        <time>2022-11-02T14:33:41Z</time>
      </trkpt>
      <trkpt lat="47.88033" lon="6.90212">
        <ele>884.3</ele>
        <time>2022-11-02T14:33:42Z</time>
      </trkpt>
      <trkpt lat="47.88034" lon="6.90212">
        <ele>884.2</ele>
        <time>2022-11-02T14:33:43Z</time>
      </trkpt>
      <trkpt lat="47.88036" lon="6.90213">
        <ele>884.2</ele>
        <time>2022-11-02T14:33:44Z</time>
      </trkpt>
      <trkpt lat="47.88037" lon="6.90214">
        <ele>884.3</ele>
        <time>2022-11-02T14:33:45Z</time>
      </trkpt>
      <trkpt lat="47.88039" lon="6.90215">
        <ele>884.3</ele>
        <time>2022-11-02T14:33:46Z</time>
      </trkpt>
      <trkpt lat="47.8804" lon="6.90216">
        <ele>884.4</ele>
        <time>2022-11-02T14:33:47Z</time>
      </trkpt>
      <trkpt lat="47.88041" lon="6.90217">
        <ele>884.5</ele>
        <time>2022-11-02T14:33:48Z</time>
      </trkpt>
      <trkpt lat="47.88042" lon="6.90218">
        <ele>884.6</ele>
        <time>2022-11-02T14:33:49Z</time>
      </trkpt>
      <trkpt lat="47.88043" lon="6.9022">
        <ele>884.9</ele>
        <time>2022-11-02T14:33:50Z</time>
      </trkpt>
      <trkpt lat="47.88044" lon="6.90221">
        <ele>885</ele>
        <time>2022-11-02T14:33:51Z</time>
      </trkpt>
      <trkpt lat="47.88045" lon="6.90223">
        <ele>885.2</ele>
        <time>2022-11-02T14:33:52Z</time>
      </trkpt>
      <trkpt lat="47.88046" lon="6.90224">
        <ele>885.2</ele>
        <time>2022-11-02T14:33:53Z</time>
      </trkpt>
      <trkpt lat="47.88046" lon="6.90225">
        <ele>885.4</ele>
        <time>2022-11-02T14:33:54Z</time>
      </trkpt>
      <trkpt lat="47.88047" lon="6.90226">
        <ele>885.4</ele>
        <time>2022-11-02T14:33:55Z</time>
      </trkpt>
      <trkpt lat="47.88048" lon="6.90228">
        <ele>885.5</ele>
        <time>2022-11-02T14:33:56Z</time>
      </trkpt>
      <trkpt lat="47.88048" lon="6.90229">
        <ele>885.6</ele>
        <time>2022-11-02T14:33:57Z</time>
      </trkpt>
      <trkpt lat="47.88049" lon="6.90231">
        <ele>885.6</ele>
        <time>2022-11-02T14:33:58Z</time>
      </trkpt>
      <trkpt lat="47.8805" lon="6.90232">
        <ele>885.6</ele>
        <time>2022-11-02T14:33:59Z</time>
      </trkpt>
      <trkpt lat="47.88051" lon="6.90234">
        <ele>885.6</ele>
        <time>2022-11-02T14:34:00Z</time>
      </trkpt>
      <trkpt lat="47.88052" lon="6.90235">
        <ele>885.5</ele>
        <time>2022-11-02T14:34:01Z</time>
      </trkpt>
      <trkpt lat="47.88053" lon="6.90237">
        <ele>885.5</ele>
        <time>2022-11-02T14:34:02Z</time>
      </trkpt>
      <trkpt lat="47.88054" lon="6.90238">
        <ele>885.4</ele>
        <time>2022-11-02T14:34:03Z</time>
      </trkpt>
      <trkpt lat="47.88055" lon="6.9024">
        <ele>885.4</ele>
        <time>2022-11-02T14:34:04Z</time>
      </trkpt>
      <trkpt lat="47.88056" lon="6.90241">
        <ele>885.2</ele>
        <time>2022-11-02T14:34:05Z</time>
      </trkpt>
      <trkpt lat="47.88057" lon="6.90242">
        <ele>884.9</ele>
        <time>2022-11-02T14:34:06Z</time>
      </trkpt>
      <trkpt lat="47.88058" lon="6.90244">
        <ele>884.7</ele>
        <time>2022-11-02T14:34:07Z</time>
      </trkpt>
      <trkpt lat="47.88059" lon="6.90246">
        <ele>884.5</ele>
        <time>2022-11-02T14:34:08Z</time>
      </trkpt>
      <trkpt lat="47.8806" lon="6.90247">
        <ele>884.2</ele>
        <time>2022-11-02T14:34:09Z</time>
      </trkpt>
      <trkpt lat="47.8806" lon="6.90249">
        <ele>884.3</ele>
        <time>2022-11-02T14:34:10Z</time>
      </trkpt>
      <trkpt lat="47.88061" lon="6.9025">
        <ele>884</ele>
        <time>2022-11-02T14:34:11Z</time>
      </trkpt>
      <trkpt lat="47.88062" lon="6.90251">
        <ele>883.8</ele>
        <time>2022-11-02T14:34:12Z</time>
      </trkpt>
      <trkpt lat="47.88062" lon="6.90253">
        <ele>884</ele>
        <time>2022-11-02T14:34:13Z</time>
      </trkpt>
      <trkpt lat="47.88063" lon="6.90254">
        <ele>883.8</ele>
        <time>2022-11-02T14:34:14Z</time>
      </trkpt>
      <trkpt lat="47.88064" lon="6.90255">
        <ele>883.6</ele>
        <time>2022-11-02T14:34:15Z</time>
      </trkpt>
      <trkpt lat="47.88064" lon="6.90257">
        <ele>883.8</ele>
        <time>2022-11-02T14:34:16Z</time>
      </trkpt>
      <trkpt lat="47.88065" lon="6.90258">
        <ele>883.6</ele>
        <time>2022-11-02T14:34:17Z</time>
      </trkpt>
      <trkpt lat="47.88065" lon="6.9026">
        <ele>883.8</ele>
        <time>2022-11-02T14:34:18Z</time>
      </trkpt>
      <trkpt lat="47.88066" lon="6.90262">
        <ele>883.7</ele>
        <time>2022-11-02T14:34:19Z</time>
      </trkpt>
      <trkpt lat="47.88066" lon="6.90263">
        <ele>883.8</ele>
        <time>2022-11-02T14:34:20Z</time>
      </trkpt>
      <trkpt lat="47.88066" lon="6.90265">
        <ele>884.1</ele>
        <time>2022-11-02T14:34:21Z</time>
      </trkpt>
      <trkpt lat="47.88067" lon="6.90267">
        <ele>884</ele>
        <time>2022-11-02T14:34:22Z</time>
      </trkpt>
      <trkpt lat="47.88067" lon="6.90268">
        <ele>884.1</ele>
        <time>2022-11-02T14:34:23Z</time>
      </trkpt>
      <trkpt lat="47.88068" lon="6.9027">
        <ele>884</ele>
        <time>2022-11-02T14:34:24Z</time>
      </trkpt>
      <trkpt lat="47.88068" lon="6.90272">
        <ele>884.3</ele>
        <time>2022-11-02T14:34:25Z</time>
      </trkpt>
      <trkpt lat="47.88068" lon="6.90274">
        <ele>884.5</ele>
        <time>2022-11-02T14:34:26Z</time>
      </trkpt>
      <trkpt lat="47.88069" lon="6.90275">
        <ele>884.3</ele>
        <time>2022-11-02T14:34:27Z</time>
      </trkpt>
      <trkpt lat="47.88069" lon="6.90277">
        <ele>884.5</ele>
        <time>2022-11-02T14:34:28Z</time>
      </trkpt>
      <trkpt lat="47.88069" lon="6.90279">
        <ele>884.8</ele>
        <time>2022-11-02T14:34:29Z</time>
      </trkpt>
      <trkpt lat="47.88069" lon="6.9028">
        <ele>884.9</ele>
        <time>2022-11-02T14:34:30Z</time>
      </trkpt>
      <trkpt lat="47.88069" lon="6.90282">
        <ele>885.2</ele>
        <time>2022-11-02T14:34:31Z</time>
      </trkpt>
      <trkpt lat="47.8807" lon="6.90284">
        <ele>885.1</ele>
        <time>2022-11-02T14:34:32Z</time>
      </trkpt>
      <trkpt lat="47.8807" lon="6.90286">
        <ele>885.4</ele>
        <time>2022-11-02T14:34:33Z</time>
      </trkpt>
      <trkpt lat="47.8807" lon="6.90287">
        <ele>885.5</ele>
        <time>2022-11-02T14:34:34Z</time>
      </trkpt>
      <trkpt lat="47.8807" lon="6.90289">
        <ele>885.7</ele>
        <time>2022-11-02T14:34:35Z</time>
      </trkpt>
      <trkpt lat="47.88071" lon="6.90291">
        <ele>885.7</ele>
        <time>2022-11-02T14:34:36Z</time>
      </trkpt>
      <trkpt lat="47.88071" lon="6.90293">
        <ele>885.9</ele>
        <time>2022-11-02T14:34:37Z</time>
      </trkpt>
      <trkpt lat="47.88072" lon="6.90295">
        <ele>885.9</ele>
        <time>2022-11-02T14:34:38Z</time>
      </trkpt>
      <trkpt lat="47.88072" lon="6.90297">
        <ele>886.2</ele>
        <time>2022-11-02T14:34:39Z</time>
      </trkpt>
      <trkpt lat="47.88073" lon="6.90298">
        <ele>886</ele>
        <time>2022-11-02T14:34:40Z</time>
      </trkpt>
      <trkpt lat="47.88074" lon="6.90299">
        <ele>885.8</ele>
        <time>2022-11-02T14:34:41Z</time>
      </trkpt>
      <trkpt lat="47.88075" lon="6.903">
        <ele>885.7</ele>
        <time>2022-11-02T14:34:42Z</time>
      </trkpt>
      <trkpt lat="47.88076" lon="6.90301">
        <ele>885.5</ele>
        <time>2022-11-02T14:34:43Z</time>
      </trkpt>
      <trkpt lat="47.88078" lon="6.90302">
        <ele>885</ele>
        <time>2022-11-02T14:34:44Z</time>
      </trkpt>
      <trkpt lat="47.88079" lon="6.90303">
        <ele>884.9</ele>
        <time>2022-11-02T14:34:45Z</time>
      </trkpt>
      <trkpt lat="47.8808" lon="6.90304">
        <ele>884.7</ele>
        <time>2022-11-02T14:34:46Z</time>
      </trkpt>
      <trkpt lat="47.88081" lon="6.90305">
        <ele>884.6</ele>
        <time>2022-11-02T14:34:47Z</time>
      </trkpt>
      <trkpt lat="47.88081" lon="6.90307">
        <ele>884.9</ele>
        <time>2022-11-02T14:34:48Z</time>
      </trkpt>
      <trkpt lat="47.88081" lon="6.90308">
        <ele>885</ele>
        <time>2022-11-02T14:34:49Z</time>
      </trkpt>
      <trkpt lat="47.88082" lon="6.9031">
        <ele>885</ele>
        <time>2022-11-02T14:34:50Z</time>
      </trkpt>
      <trkpt lat="47.88082" lon="6.90311">
        <ele>885.2</ele>
        <time>2022-11-02T14:34:51Z</time>
      </trkpt>
      <trkpt lat="47.88083" lon="6.90311">
        <ele>884.9</ele>
        <time>2022-11-02T14:34:52Z</time>
      </trkpt>
      <trkpt lat="47.88084" lon="6.90312">
        <ele>884.9</ele>
        <time>2022-11-02T14:34:53Z</time>
      </trkpt>
      <trkpt lat="47.88085" lon="6.90313">
        <ele>885.1</ele>
        <time>2022-11-02T14:34:54Z</time>
      </trkpt>
      <trkpt lat="47.88086" lon="6.90313">
        <ele>885.1</ele>
        <time>2022-11-02T14:34:55Z</time>
      </trkpt>
      <trkpt lat="47.88087" lon="6.90314">
        <ele>885.3</ele>
        <time>2022-11-02T14:34:56Z</time>
      </trkpt>
      <trkpt lat="47.88088" lon="6.90314">
        <ele>885.3</ele>
        <time>2022-11-02T14:34:57Z</time>
      </trkpt>
      <trkpt lat="47.88089" lon="6.90315">
        <ele>885.5</ele>
        <time>2022-11-02T14:34:58Z</time>
      </trkpt>
      <trkpt lat="47.8809" lon="6.90315">
        <ele>885.5</ele>
        <time>2022-11-02T14:34:59Z</time>
      </trkpt>
      <trkpt lat="47.88091" lon="6.90315">
        <ele>885.5</ele>
        <time>2022-11-02T14:35:01Z</time>
      </trkpt>
      <trkpt lat="47.88092" lon="6.90315">
        <ele>885.6</ele>
        <time>2022-11-02T14:35:02Z</time>
      </trkpt>
      <trkpt lat="47.88093" lon="6.90314">
        <ele>885.4</ele>
        <time>2022-11-02T14:35:03Z</time>
      </trkpt>
      <trkpt lat="47.88094" lon="6.90314">
        <ele>885.4</ele>
        <time>2022-11-02T14:35:04Z</time>
      </trkpt>
      <trkpt lat="47.88095" lon="6.90314">
        <ele>885.5</ele>
        <time>2022-11-02T14:35:05Z</time>
      </trkpt>
      <trkpt lat="47.88096" lon="6.90314">
        <ele>885.5</ele>
        <time>2022-11-02T14:35:06Z</time>
      </trkpt>
      <trkpt lat="47.88097" lon="6.90314">
        <ele>885.5</ele>
        <time>2022-11-02T14:35:07Z</time>
      </trkpt>
      <trkpt lat="47.88098" lon="6.90314">
        <ele>885.5</ele>
        <time>2022-11-02T14:35:08Z</time>
      </trkpt>
      <trkpt lat="47.88098" lon="6.90313">
        <ele>885.4</ele>
        <time>2022-11-02T14:35:09Z</time>
      </trkpt>
      <trkpt lat="47.88099" lon="6.90313">
        <ele>885.4</ele>
        <time>2022-11-02T14:35:10Z</time>
      </trkpt>
      <trkpt lat="47.881" lon="6.90312">
        <ele>885.2</ele>
        <time>2022-11-02T14:35:11Z</time>
      </trkpt>
      <trkpt lat="47.88101" lon="6.90312">
        <ele>885.2</ele>
        <time>2022-11-02T14:35:12Z</time>
      </trkpt>
      <trkpt lat="47.88102" lon="6.90311">
        <ele>885</ele>
        <time>2022-11-02T14:35:13Z</time>
      </trkpt>
      <trkpt lat="47.88103" lon="6.9031">
        <ele>884.9</ele>
        <time>2022-11-02T14:35:14Z</time>
      </trkpt>
      <trkpt lat="47.88103" lon="6.90308">
        <ele>884.5</ele>
        <time>2022-11-02T14:35:15Z</time>
      </trkpt>
      <trkpt lat="47.88104" lon="6.90306">
        <ele>884.1</ele>
        <time>2022-11-02T14:35:16Z</time>
      </trkpt>
      <trkpt lat="47.88105" lon="6.90304">
        <ele>883.7</ele>
        <time>2022-11-02T14:35:17Z</time>
      </trkpt>
      <trkpt lat="47.88106" lon="6.90303">
        <ele>883.5</ele>
        <time>2022-11-02T14:35:18Z</time>
      </trkpt>
      <trkpt lat="47.88107" lon="6.90301">
        <ele>883.1</ele>
        <time>2022-11-02T14:35:19Z</time>
      </trkpt>
      <trkpt lat="47.88107" lon="6.90299">
        <ele>882.7</ele>
        <time>2022-11-02T14:35:20Z</time>
      </trkpt>
      <trkpt lat="47.88108" lon="6.90297">
        <ele>882.2</ele>
        <time>2022-11-02T14:35:21Z</time>
      </trkpt>
      <trkpt lat="47.88109" lon="6.90296">
        <ele>882</ele>
        <time>2022-11-02T14:35:22Z</time>
      </trkpt>
      <trkpt lat="47.88111" lon="6.90295">
        <ele>881.7</ele>
        <time>2022-11-02T14:35:23Z</time>
      </trkpt>
      <trkpt lat="47.88112" lon="6.90294">
        <ele>881.6</ele>
        <time>2022-11-02T14:35:24Z</time>
      </trkpt>
      <trkpt lat="47.88113" lon="6.90293">
        <ele>881.6</ele>
        <time>2022-11-02T14:35:25Z</time>
      </trkpt>
      <trkpt lat="47.88114" lon="6.90292">
        <ele>881.5</ele>
        <time>2022-11-02T14:35:26Z</time>
      </trkpt>
      <trkpt lat="47.88115" lon="6.90291">
        <ele>881.4</ele>
        <time>2022-11-02T14:35:27Z</time>
      </trkpt>
      <trkpt lat="47.88116" lon="6.9029">
        <ele>881.3</ele>
        <time>2022-11-02T14:35:28Z</time>
      </trkpt>
      <trkpt lat="47.88117" lon="6.9029">
        <ele>881.5</ele>
        <time>2022-11-02T14:35:29Z</time>
      </trkpt>
      <trkpt lat="47.88118" lon="6.9029">
        <ele>881.6</ele>
        <time>2022-11-02T14:35:30Z</time>
      </trkpt>
      <trkpt lat="47.88119" lon="6.9029">
        <ele>881.8</ele>
        <time>2022-11-02T14:35:32Z</time>
      </trkpt>
      <trkpt lat="47.8812" lon="6.90289">
        <ele>881.7</ele>
        <time>2022-11-02T14:35:33Z</time>
      </trkpt>
      <trkpt lat="47.88121" lon="6.90289">
        <ele>881.8</ele>
        <time>2022-11-02T14:35:34Z</time>
      </trkpt>
      <trkpt lat="47.88122" lon="6.90289">
        <ele>882</ele>
        <time>2022-11-02T14:35:35Z</time>
      </trkpt>
      <trkpt lat="47.88122" lon="6.90288">
        <ele>881.8</ele>
        <time>2022-11-02T14:35:36Z</time>
      </trkpt>
      <trkpt lat="47.88123" lon="6.90287">
        <ele>881.7</ele>
        <time>2022-11-02T14:35:37Z</time>
      </trkpt>
      <trkpt lat="47.88124" lon="6.90286">
        <ele>881.6</ele>
        <time>2022-11-02T14:35:38Z</time>
      </trkpt>
      <trkpt lat="47.88125" lon="6.90285">
        <ele>881.6</ele>
        <time>2022-11-02T14:35:39Z</time>
      </trkpt>
      <trkpt lat="47.88126" lon="6.90284">
        <ele>881.5</ele>
        <time>2022-11-02T14:35:40Z</time>
      </trkpt>
      <trkpt lat="47.88127" lon="6.90284">
        <ele>881.6</ele>
        <time>2022-11-02T14:35:41Z</time>
      </trkpt>
      <trkpt lat="47.88128" lon="6.90284">
        <ele>881.8</ele>
        <time>2022-11-02T14:35:42Z</time>
      </trkpt>
      <trkpt lat="47.88129" lon="6.90284">
        <ele>881.9</ele>
        <time>2022-11-02T14:35:43Z</time>
      </trkpt>
      <trkpt lat="47.88131" lon="6.90284">
        <ele>882.2</ele>
        <time>2022-11-02T14:35:44Z</time>
      </trkpt>
      <trkpt lat="47.88132" lon="6.90283">
        <ele>882.1</ele>
        <time>2022-11-02T14:35:45Z</time>
      </trkpt>
      <trkpt lat="47.88133" lon="6.90282">
        <ele>882.1</ele>
        <time>2022-11-02T14:35:46Z</time>
      </trkpt>
      <trkpt lat="47.88134" lon="6.90281">
        <ele>882</ele>
        <time>2022-11-02T14:35:47Z</time>
      </trkpt>
      <trkpt lat="47.88135" lon="6.9028">
        <ele>881.9</ele>
        <time>2022-11-02T14:35:48Z</time>
      </trkpt>
      <trkpt lat="47.88137" lon="6.90279">
        <ele>882</ele>
        <time>2022-11-02T14:35:49Z</time>
      </trkpt>
      <trkpt lat="47.88138" lon="6.90278">
        <ele>881.9</ele>
        <time>2022-11-02T14:35:50Z</time>
      </trkpt>
      <trkpt lat="47.88139" lon="6.90277">
        <ele>881.9</ele>
        <time>2022-11-02T14:35:51Z</time>
      </trkpt>
      <trkpt lat="47.8814" lon="6.90277">
        <ele>882.1</ele>
        <time>2022-11-02T14:35:52Z</time>
      </trkpt>
      <trkpt lat="47.88141" lon="6.90276">
        <ele>882.1</ele>
        <time>2022-11-02T14:35:53Z</time>
      </trkpt>
      <trkpt lat="47.88142" lon="6.90276">
        <ele>882.4</ele>
        <time>2022-11-02T14:35:54Z</time>
      </trkpt>
      <trkpt lat="47.88143" lon="6.90275">
        <ele>882.4</ele>
        <time>2022-11-02T14:35:55Z</time>
      </trkpt>
      <trkpt lat="47.88144" lon="6.90275">
        <ele>882.6</ele>
        <time>2022-11-02T14:35:56Z</time>
      </trkpt>
      <trkpt lat="47.88145" lon="6.90274">
        <ele>882.7</ele>
        <time>2022-11-02T14:35:57Z</time>
      </trkpt>
      <trkpt lat="47.88146" lon="6.90273">
        <ele>882.8</ele>
        <time>2022-11-02T14:35:58Z</time>
      </trkpt>
      <trkpt lat="47.88147" lon="6.90273">
        <ele>883</ele>
        <time>2022-11-02T14:35:59Z</time>
      </trkpt>
      <trkpt lat="47.88148" lon="6.90272">
        <ele>883.1</ele>
        <time>2022-11-02T14:36:00Z</time>
      </trkpt>
      <trkpt lat="47.88149" lon="6.90271">
        <ele>883.1</ele>
        <time>2022-11-02T14:36:01Z</time>
      </trkpt>
      <trkpt lat="47.8815" lon="6.9027">
        <ele>883.2</ele>
        <time>2022-11-02T14:36:02Z</time>
      </trkpt>
      <trkpt lat="47.88151" lon="6.90269">
        <ele>883.3</ele>
        <time>2022-11-02T14:36:03Z</time>
      </trkpt>
      <trkpt lat="47.88152" lon="6.90269">
        <ele>883.6</ele>
        <time>2022-11-02T14:36:04Z</time>
      </trkpt>
      <trkpt lat="47.88154" lon="6.90268">
        <ele>883.9</ele>
        <time>2022-11-02T14:36:05Z</time>
      </trkpt>
      <trkpt lat="47.88155" lon="6.90268">
        <ele>884.1</ele>
        <time>2022-11-02T14:36:06Z</time>
      </trkpt>
      <trkpt lat="47.88156" lon="6.90268">
        <ele>884.4</ele>
        <time>2022-11-02T14:36:07Z</time>
      </trkpt>
      <trkpt lat="47.88158" lon="6.90267">
        <ele>884.7</ele>
        <time>2022-11-02T14:36:08Z</time>
      </trkpt>
      <trkpt lat="47.88159" lon="6.90267">
        <ele>885</ele>
        <time>2022-11-02T14:36:09Z</time>
      </trkpt>
      <trkpt lat="47.8816" lon="6.90266">
        <ele>885.1</ele>
        <time>2022-11-02T14:36:10Z</time>
      </trkpt>
      <trkpt lat="47.8816" lon="6.90265">
        <ele>885</ele>
        <time>2022-11-02T14:36:11Z</time>
      </trkpt>
      <trkpt lat="47.88161" lon="6.90264">
        <ele>885.1</ele>
        <time>2022-11-02T14:36:12Z</time>
      </trkpt>
      <trkpt lat="47.88161" lon="6.90263">
        <ele>885</ele>
        <time>2022-11-02T14:36:13Z</time>
      </trkpt>
      <trkpt lat="47.88162" lon="6.90262">
        <ele>885.1</ele>
        <time>2022-11-02T14:36:14Z</time>
      </trkpt>
      <trkpt lat="47.88163" lon="6.90261">
        <ele>885.2</ele>
        <time>2022-11-02T14:36:15Z</time>
      </trkpt>
      <trkpt lat="47.88163" lon="6.9026">
        <ele>885.1</ele>
        <time>2022-11-02T14:36:16Z</time>
      </trkpt>
      <trkpt lat="47.88164" lon="6.90259">
        <ele>885.3</ele>
        <time>2022-11-02T14:36:17Z</time>
      </trkpt>
      <trkpt lat="47.88164" lon="6.90258">
        <ele>885.2</ele>
        <time>2022-11-02T14:36:18Z</time>
      </trkpt>
      <trkpt lat="47.88164" lon="6.90257">
        <ele>885</ele>
        <time>2022-11-02T14:36:19Z</time>
      </trkpt>
      <trkpt lat="47.88164" lon="6.90256">
        <ele>884.9</ele>
        <time>2022-11-02T14:36:20Z</time>
      </trkpt>
      <trkpt lat="47.88164" lon="6.90255">
        <ele>884.8</ele>
        <time>2022-11-02T14:36:22Z</time>
      </trkpt>
      <trkpt lat="47.88163" lon="6.90254">
        <ele>884.4</ele>
        <time>2022-11-02T14:36:23Z</time>
      </trkpt>
      <trkpt lat="47.88163" lon="6.90253">
        <ele>884.3</ele>
        <time>2022-11-02T14:36:25Z</time>
      </trkpt>
      <trkpt lat="47.88162" lon="6.90252">
        <ele>883.9</ele>
        <time>2022-11-02T14:36:26Z</time>
      </trkpt>
      <trkpt lat="47.88162" lon="6.9025">
        <ele>883.7</ele>
        <time>2022-11-02T14:36:27Z</time>
      </trkpt>
      <trkpt lat="47.88162" lon="6.90249">
        <ele>883.6</ele>
        <time>2022-11-02T14:36:28Z</time>
      </trkpt>
      <trkpt lat="47.88162" lon="6.90248">
        <ele>883.5</ele>
        <time>2022-11-02T14:36:29Z</time>
      </trkpt>
      <trkpt lat="47.88162" lon="6.90246">
        <ele>883.4</ele>
        <time>2022-11-02T14:36:30Z</time>
      </trkpt>
      <trkpt lat="47.88162" lon="6.90245">
        <ele>883.4</ele>
        <time>2022-11-02T14:36:31Z</time>
      </trkpt>
      <trkpt lat="47.88162" lon="6.90244">
        <ele>883.3</ele>
        <time>2022-11-02T14:36:32Z</time>
      </trkpt>
      <trkpt lat="47.88162" lon="6.90242">
        <ele>883.2</ele>
        <time>2022-11-02T14:36:33Z</time>
      </trkpt>
      <trkpt lat="47.88163" lon="6.90241">
        <ele>883.5</ele>
        <time>2022-11-02T14:36:34Z</time>
      </trkpt>
      <trkpt lat="47.88163" lon="6.9024">
        <ele>883.4</ele>
        <time>2022-11-02T14:36:35Z</time>
      </trkpt>
      <trkpt lat="47.88163" lon="6.90238">
        <ele>883.3</ele>
        <time>2022-11-02T14:36:36Z</time>
      </trkpt>
      <trkpt lat="47.88163" lon="6.90237">
        <ele>883.3</ele>
        <time>2022-11-02T14:36:37Z</time>
      </trkpt>
      <trkpt lat="47.88163" lon="6.90235">
        <ele>883.2</ele>
        <time>2022-11-02T14:36:38Z</time>
      </trkpt>
      <trkpt lat="47.88162" lon="6.90233">
        <ele>882.7</ele>
        <time>2022-11-02T14:36:39Z</time>
      </trkpt>
      <trkpt lat="47.88162" lon="6.90232">
        <ele>882.7</ele>
        <time>2022-11-02T14:36:40Z</time>
      </trkpt>
      <trkpt lat="47.88163" lon="6.90229">
        <ele>882.9</ele>
        <time>2022-11-02T14:36:41Z</time>
      </trkpt>
      <trkpt lat="47.88163" lon="6.90227">
        <ele>882.8</ele>
        <time>2022-11-02T14:36:42Z</time>
      </trkpt>
      <trkpt lat="47.88164" lon="6.90225">
        <ele>883.1</ele>
        <time>2022-11-02T14:36:43Z</time>
      </trkpt>
      <trkpt lat="47.88164" lon="6.90223">
        <ele>883</ele>
        <time>2022-11-02T14:36:44Z</time>
      </trkpt>
      <trkpt lat="47.88165" lon="6.90221">
        <ele>883.3</ele>
        <time>2022-11-02T14:36:45Z</time>
      </trkpt>
      <trkpt lat="47.88165" lon="6.9022">
        <ele>883.3</ele>
        <time>2022-11-02T14:36:46Z</time>
      </trkpt>
      <trkpt lat="47.88166" lon="6.90217">
        <ele>883.5</ele>
        <time>2022-11-02T14:37:15Z</time>
      </trkpt>
      <trkpt lat="47.88166" lon="6.90216">
        <ele>883.5</ele>
        <time>2022-11-02T14:37:16Z</time>
      </trkpt>
      <trkpt lat="47.88166" lon="6.90215">
        <ele>883.5</ele>
        <time>2022-11-02T14:37:17Z</time>
      </trkpt>
      <trkpt lat="47.88166" lon="6.90212">
        <ele>883.4</ele>
        <time>2022-11-02T14:37:23Z</time>
      </trkpt>
      <trkpt lat="47.88166" lon="6.90211">
        <ele>883.3</ele>
        <time>2022-11-02T14:37:24Z</time>
      </trkpt>
      <trkpt lat="47.88167" lon="6.9021">
        <ele>883.6</ele>
        <time>2022-11-02T14:37:25Z</time>
      </trkpt>
      <trkpt lat="47.88167" lon="6.90208">
        <ele>883.6</ele>
        <time>2022-11-02T14:37:26Z</time>
      </trkpt>
      <trkpt lat="47.88167" lon="6.90206">
        <ele>883.5</ele>
        <time>2022-11-02T14:37:27Z</time>
      </trkpt>
      <trkpt lat="47.88167" lon="6.90205">
        <ele>883.4</ele>
        <time>2022-11-02T14:37:28Z</time>
      </trkpt>
      <trkpt lat="47.88167" lon="6.90203">
        <ele>883.4</ele>
        <time>2022-11-02T14:37:29Z</time>
      </trkpt>
      <trkpt lat="47.88167" lon="6.90201">
        <ele>883.3</ele>
        <time>2022-11-02T14:37:30Z</time>
      </trkpt>
      <trkpt lat="47.88167" lon="6.90199">
        <ele>883.2</ele>
        <time>2022-11-02T14:37:31Z</time>
      </trkpt>
      <trkpt lat="47.88168" lon="6.90197">
        <ele>883.3</ele>
        <time>2022-11-02T14:37:32Z</time>
      </trkpt>
      <trkpt lat="47.88168" lon="6.90195">
        <ele>883.3</ele>
        <time>2022-11-02T14:37:33Z</time>
      </trkpt>
      <trkpt lat="47.88168" lon="6.90194">
        <ele>883.2</ele>
        <time>2022-11-02T14:37:34Z</time>
      </trkpt>
      <trkpt lat="47.88169" lon="6.90192">
        <ele>883.2</ele>
        <time>2022-11-02T14:37:35Z</time>
      </trkpt>
      <trkpt lat="47.88169" lon="6.90191">
        <ele>883.2</ele>
        <time>2022-11-02T14:37:36Z</time>
      </trkpt>
      <trkpt lat="47.8817" lon="6.9019">
        <ele>883.3</ele>
        <time>2022-11-02T14:37:37Z</time>
      </trkpt>
      <trkpt lat="47.88171" lon="6.90188">
        <ele>883.3</ele>
        <time>2022-11-02T14:37:38Z</time>
      </trkpt>
      <trkpt lat="47.88171" lon="6.90186">
        <ele>883.2</ele>
        <time>2022-11-02T14:37:39Z</time>
      </trkpt>
      <trkpt lat="47.88172" lon="6.90185">
        <ele>883.3</ele>
        <time>2022-11-02T14:37:40Z</time>
      </trkpt>
      <trkpt lat="47.88173" lon="6.90183">
        <ele>883.3</ele>
        <time>2022-11-02T14:37:41Z</time>
      </trkpt>
      <trkpt lat="47.88173" lon="6.90182">
        <ele>883.2</ele>
        <time>2022-11-02T14:37:42Z</time>
      </trkpt>
      <trkpt lat="47.88174" lon="6.90181">
        <ele>883.4</ele>
        <time>2022-11-02T14:37:43Z</time>
      </trkpt>
      <trkpt lat="47.88175" lon="6.90179">
        <ele>883.4</ele>
        <time>2022-11-02T14:37:44Z</time>
      </trkpt>
      <trkpt lat="47.88176" lon="6.90178">
        <ele>883.5</ele>
        <time>2022-11-02T14:37:45Z</time>
      </trkpt>
      <trkpt lat="47.88176" lon="6.90177">
        <ele>883.4</ele>
        <time>2022-11-02T14:37:46Z</time>
      </trkpt>
      <trkpt lat="47.88177" lon="6.90176">
        <ele>883.5</ele>
        <time>2022-11-02T14:37:47Z</time>
      </trkpt>
      <trkpt lat="47.88178" lon="6.90175">
        <ele>883.6</ele>
        <time>2022-11-02T14:37:48Z</time>
      </trkpt>
      <trkpt lat="47.88178" lon="6.90174">
        <ele>883.6</ele>
        <time>2022-11-02T14:37:49Z</time>
      </trkpt>
      <trkpt lat="47.88179" lon="6.90173">
        <ele>883.7</ele>
        <time>2022-11-02T14:37:50Z</time>
      </trkpt>
      <trkpt lat="47.88179" lon="6.90171">
        <ele>883.5</ele>
        <time>2022-11-02T14:37:51Z</time>
      </trkpt>
      <trkpt lat="47.8818" lon="6.9017">
        <ele>883.6</ele>
        <time>2022-11-02T14:37:52Z</time>
      </trkpt>
      <trkpt lat="47.8818" lon="6.90168">
        <ele>883.5</ele>
        <time>2022-11-02T14:37:53Z</time>
      </trkpt>
      <trkpt lat="47.88181" lon="6.90167">
        <ele>883.6</ele>
        <time>2022-11-02T14:37:54Z</time>
      </trkpt>
      <trkpt lat="47.88181" lon="6.90166">
        <ele>883.6</ele>
        <time>2022-11-02T14:37:55Z</time>
      </trkpt>
      <trkpt lat="47.88181" lon="6.90164">
        <ele>883.5</ele>
        <time>2022-11-02T14:37:56Z</time>
      </trkpt>
      <trkpt lat="47.88182" lon="6.90163">
        <ele>883.6</ele>
        <time>2022-11-02T14:37:57Z</time>
      </trkpt>
      <trkpt lat="47.88182" lon="6.90161">
        <ele>883.5</ele>
        <time>2022-11-02T14:37:58Z</time>
      </trkpt>
      <trkpt lat="47.88182" lon="6.90159">
        <ele>883.5</ele>
        <time>2022-11-02T14:37:59Z</time>
      </trkpt>
      <trkpt lat="47.88183" lon="6.90158">
        <ele>883.6</ele>
        <time>2022-11-02T14:38:00Z</time>
      </trkpt>
      <trkpt lat="47.88183" lon="6.90157">
        <ele>883.5</ele>
        <time>2022-11-02T14:38:01Z</time>
      </trkpt>
      <trkpt lat="47.88183" lon="6.90155">
        <ele>883.4</ele>
        <time>2022-11-02T14:38:02Z</time>
      </trkpt>
      <trkpt lat="47.88183" lon="6.90153">
        <ele>883.4</ele>
        <time>2022-11-02T14:38:03Z</time>
      </trkpt>
      <trkpt lat="47.88183" lon="6.90152">
        <ele>883.3</ele>
        <time>2022-11-02T14:38:04Z</time>
      </trkpt>
      <trkpt lat="47.88183" lon="6.9015">
        <ele>883.2</ele>
        <time>2022-11-02T14:38:05Z</time>
      </trkpt>
      <trkpt lat="47.88183" lon="6.90149">
        <ele>883.2</ele>
        <time>2022-11-02T14:38:06Z</time>
      </trkpt>
      <trkpt lat="47.88183" lon="6.90147">
        <ele>883.1</ele>
        <time>2022-11-02T14:38:07Z</time>
      </trkpt>
      <trkpt lat="47.88183" lon="6.90146">
        <ele>883.1</ele>
        <time>2022-11-02T14:38:08Z</time>
      </trkpt>
      <trkpt lat="47.88183" lon="6.90144">
        <ele>883</ele>
        <time>2022-11-02T14:38:09Z</time>
      </trkpt>
      <trkpt lat="47.88183" lon="6.90143">
        <ele>882.9</ele>
        <time>2022-11-02T14:38:10Z</time>
      </trkpt>
      <trkpt lat="47.88183" lon="6.90141">
        <ele>882.9</ele>
        <time>2022-11-02T14:38:11Z</time>
      </trkpt>
      <trkpt lat="47.88183" lon="6.9014">
        <ele>882.8</ele>
        <time>2022-11-02T14:38:12Z</time>
      </trkpt>
      <trkpt lat="47.88183" lon="6.90139">
        <ele>882.8</ele>
        <time>2022-11-02T14:38:13Z</time>
      </trkpt>
      <trkpt lat="47.88183" lon="6.90137">
        <ele>882.8</ele>
        <time>2022-11-02T14:38:14Z</time>
      </trkpt>
      <trkpt lat="47.88183" lon="6.90136">
        <ele>882.8</ele>
        <time>2022-11-02T14:38:15Z</time>
      </trkpt>
      <trkpt lat="47.88183" lon="6.90135">
        <ele>882.8</ele>
        <time>2022-11-02T14:38:16Z</time>
      </trkpt>
      <trkpt lat="47.88184" lon="6.90134">
        <ele>882.9</ele>
        <time>2022-11-02T14:38:17Z</time>
      </trkpt>
      <trkpt lat="47.88184" lon="6.90133">
        <ele>882.9</ele>
        <time>2022-11-02T14:38:18Z</time>
      </trkpt>
      <trkpt lat="47.88184" lon="6.90132">
        <ele>882.9</ele>
        <time>2022-11-02T14:38:19Z</time>
      </trkpt>
      <trkpt lat="47.88184" lon="6.90129">
        <ele>883</ele>
        <time>2022-11-02T14:38:36Z</time>
      </trkpt>
      <trkpt lat="47.88184" lon="6.90128">
        <ele>883</ele>
        <time>2022-11-02T14:38:37Z</time>
      </trkpt>
      <trkpt lat="47.88184" lon="6.90127">
        <ele>883</ele>
        <time>2022-11-02T14:38:38Z</time>
      </trkpt>
      <trkpt lat="47.88184" lon="6.90126">
        <ele>883</ele>
        <time>2022-11-02T14:38:39Z</time>
      </trkpt>
      <trkpt lat="47.88183" lon="6.90126">
        <ele>882.8</ele>
        <time>2022-11-02T14:38:40Z</time>
      </trkpt>
      <trkpt lat="47.88183" lon="6.90125">
        <ele>882.9</ele>
        <time>2022-11-02T14:38:41Z</time>
      </trkpt>
      <trkpt lat="47.88182" lon="6.90124">
        <ele>882.7</ele>
        <time>2022-11-02T14:38:42Z</time>
      </trkpt>
      <trkpt lat="47.88182" lon="6.90123">
        <ele>882.7</ele>
        <time>2022-11-02T14:38:43Z</time>
      </trkpt>
      <trkpt lat="47.88182" lon="6.90122">
        <ele>882.7</ele>
        <time>2022-11-02T14:38:44Z</time>
      </trkpt>
      <trkpt lat="47.88181" lon="6.9012">
        <ele>882.6</ele>
        <time>2022-11-02T14:38:45Z</time>
      </trkpt>
      <trkpt lat="47.88181" lon="6.90119">
        <ele>882.6</ele>
        <time>2022-11-02T14:38:46Z</time>
      </trkpt>
      <trkpt lat="47.88181" lon="6.90117">
        <ele>882.6</ele>
        <time>2022-11-02T14:38:47Z</time>
      </trkpt>
      <trkpt lat="47.8818" lon="6.90116">
        <ele>882.4</ele>
        <time>2022-11-02T14:38:48Z</time>
      </trkpt>
      <trkpt lat="47.8818" lon="6.90115">
        <ele>882.4</ele>
        <time>2022-11-02T14:38:49Z</time>
      </trkpt>
      <trkpt lat="47.88179" lon="6.90113">
        <ele>882.2</ele>
        <time>2022-11-02T14:38:50Z</time>
      </trkpt>
      <trkpt lat="47.88179" lon="6.90112">
        <ele>882.2</ele>
        <time>2022-11-02T14:38:51Z</time>
      </trkpt>
      <trkpt lat="47.88178" lon="6.90111">
        <ele>882.1</ele>
        <time>2022-11-02T14:38:52Z</time>
      </trkpt>
      <trkpt lat="47.88178" lon="6.90109">
        <ele>882.3</ele>
        <time>2022-11-02T14:38:53Z</time>
      </trkpt>
      <trkpt lat="47.88177" lon="6.90108">
        <ele>882.2</ele>
        <time>2022-11-02T14:38:54Z</time>
      </trkpt>
      <trkpt lat="47.88176" lon="6.90106">
        <ele>882.2</ele>
        <time>2022-11-02T14:38:55Z</time>
      </trkpt>
      <trkpt lat="47.88176" lon="6.90104">
        <ele>882.5</ele>
        <time>2022-11-02T14:38:56Z</time>
      </trkpt>
      <trkpt lat="47.88175" lon="6.90103">
        <ele>882.3</ele>
        <time>2022-11-02T14:38:57Z</time>
      </trkpt>
      <trkpt lat="47.88175" lon="6.90101">
        <ele>882.5</ele>
        <time>2022-11-02T14:38:58Z</time>
      </trkpt>
      <trkpt lat="47.88175" lon="6.90099">
        <ele>882.7</ele>
        <time>2022-11-02T14:38:59Z</time>
      </trkpt>
      <trkpt lat="47.88174" lon="6.90098">
        <ele>882.5</ele>
        <time>2022-11-02T14:39:00Z</time>
      </trkpt>
      <trkpt lat="47.88174" lon="6.90096">
        <ele>882.7</ele>
        <time>2022-11-02T14:39:01Z</time>
      </trkpt>
      <trkpt lat="47.88173" lon="6.90095">
        <ele>882.5</ele>
        <time>2022-11-02T14:39:02Z</time>
      </trkpt>
      <trkpt lat="47.88173" lon="6.90094">
        <ele>882.6</ele>
        <time>2022-11-02T14:39:03Z</time>
      </trkpt>
      <trkpt lat="47.88172" lon="6.90092">
        <ele>882.4</ele>
        <time>2022-11-02T14:39:04Z</time>
      </trkpt>
      <trkpt lat="47.88171" lon="6.90091">
        <ele>882.2</ele>
        <time>2022-11-02T14:39:05Z</time>
      </trkpt>
      <trkpt lat="47.88171" lon="6.9009">
        <ele>882.3</ele>
        <time>2022-11-02T14:39:06Z</time>
      </trkpt>
      <trkpt lat="47.8817" lon="6.90088">
        <ele>882</ele>
        <time>2022-11-02T14:39:07Z</time>
      </trkpt>
      <trkpt lat="47.8817" lon="6.90087">
        <ele>882.1</ele>
        <time>2022-11-02T14:39:08Z</time>
      </trkpt>
      <trkpt lat="47.88169" lon="6.90085">
        <ele>881.8</ele>
        <time>2022-11-02T14:39:09Z</time>
      </trkpt>
      <trkpt lat="47.88169" lon="6.90084">
        <ele>881.9</ele>
        <time>2022-11-02T14:39:10Z</time>
      </trkpt>
      <trkpt lat="47.88169" lon="6.90082">
        <ele>882.1</ele>
        <time>2022-11-02T14:39:11Z</time>
      </trkpt>
      <trkpt lat="47.88168" lon="6.90081">
        <ele>881.8</ele>
        <time>2022-11-02T14:39:12Z</time>
      </trkpt>
      <trkpt lat="47.88168" lon="6.90079">
        <ele>882</ele>
        <time>2022-11-02T14:39:13Z</time>
      </trkpt>
      <trkpt lat="47.88167" lon="6.90078">
        <ele>881.7</ele>
        <time>2022-11-02T14:39:14Z</time>
      </trkpt>
      <trkpt lat="47.88166" lon="6.90076">
        <ele>881.7</ele>
        <time>2022-11-02T14:39:15Z</time>
      </trkpt>
      <trkpt lat="47.88166" lon="6.90075">
        <ele>881.8</ele>
        <time>2022-11-02T14:39:16Z</time>
      </trkpt>
      <trkpt lat="47.88165" lon="6.90074">
        <ele>881.7</ele>
        <time>2022-11-02T14:39:17Z</time>
      </trkpt>
      <trkpt lat="47.88164" lon="6.90072">
        <ele>881.7</ele>
        <time>2022-11-02T14:39:18Z</time>
      </trkpt>
      <trkpt lat="47.88164" lon="6.90071">
        <ele>881.8</ele>
        <time>2022-11-02T14:39:19Z</time>
      </trkpt>
      <trkpt lat="47.88163" lon="6.9007">
        <ele>881.7</ele>
        <time>2022-11-02T14:39:20Z</time>
      </trkpt>
      <trkpt lat="47.88162" lon="6.90068">
        <ele>881.7</ele>
        <time>2022-11-02T14:39:21Z</time>
      </trkpt>
      <trkpt lat="47.88161" lon="6.90067">
        <ele>881.7</ele>
        <time>2022-11-02T14:39:22Z</time>
      </trkpt>
      <trkpt lat="47.88161" lon="6.90066">
        <ele>881.8</ele>
        <time>2022-11-02T14:39:23Z</time>
      </trkpt>
      <trkpt lat="47.8816" lon="6.90065">
        <ele>881.7</ele>
        <time>2022-11-02T14:39:24Z</time>
      </trkpt>
      <trkpt lat="47.88159" lon="6.90064">
        <ele>881.6</ele>
        <time>2022-11-02T14:39:25Z</time>
      </trkpt>
      <trkpt lat="47.88158" lon="6.90063">
        <ele>881.6</ele>
        <time>2022-11-02T14:39:26Z</time>
      </trkpt>
      <trkpt lat="47.88157" lon="6.90062">
        <ele>881.5</ele>
        <time>2022-11-02T14:39:27Z</time>
      </trkpt>
      <trkpt lat="47.88156" lon="6.9006">
        <ele>881.5</ele>
        <time>2022-11-02T14:39:28Z</time>
      </trkpt>
      <trkpt lat="47.88155" lon="6.90059">
        <ele>881.5</ele>
        <time>2022-11-02T14:39:29Z</time>
      </trkpt>
      <trkpt lat="47.88155" lon="6.90058">
        <ele>881.6</ele>
        <time>2022-11-02T14:39:30Z</time>
      </trkpt>
      <trkpt lat="47.88154" lon="6.90057">
        <ele>881.5</ele>
        <time>2022-11-02T14:39:31Z</time>
      </trkpt>
      <trkpt lat="47.88153" lon="6.90056">
        <ele>881.5</ele>
        <time>2022-11-02T14:39:32Z</time>
      </trkpt>
      <trkpt lat="47.88152" lon="6.90055">
        <ele>881.4</ele>
        <time>2022-11-02T14:39:33Z</time>
      </trkpt>
      <trkpt lat="47.88151" lon="6.90053">
        <ele>881.5</ele>
        <time>2022-11-02T14:39:34Z</time>
      </trkpt>
      <trkpt lat="47.88151" lon="6.90052">
        <ele>881.6</ele>
        <time>2022-11-02T14:39:35Z</time>
      </trkpt>
      <trkpt lat="47.8815" lon="6.9005">
        <ele>881.6</ele>
        <time>2022-11-02T14:39:36Z</time>
      </trkpt>
      <trkpt lat="47.8815" lon="6.90049">
        <ele>881.7</ele>
        <time>2022-11-02T14:39:37Z</time>
      </trkpt>
      <trkpt lat="47.88149" lon="6.90047">
        <ele>881.7</ele>
        <time>2022-11-02T14:39:38Z</time>
      </trkpt>
      <trkpt lat="47.88149" lon="6.90046">
        <ele>881.9</ele>
        <time>2022-11-02T14:39:39Z</time>
      </trkpt>
      <trkpt lat="47.88148" lon="6.90044">
        <ele>881.9</ele>
        <time>2022-11-02T14:39:40Z</time>
      </trkpt>
      <trkpt lat="47.88148" lon="6.90043">
        <ele>882</ele>
        <time>2022-11-02T14:39:41Z</time>
      </trkpt>
      <trkpt lat="47.88147" lon="6.90041">
        <ele>882</ele>
        <time>2022-11-02T14:39:42Z</time>
      </trkpt>
      <trkpt lat="47.88147" lon="6.9004">
        <ele>882.1</ele>
        <time>2022-11-02T14:39:43Z</time>
      </trkpt>
      <trkpt lat="47.88146" lon="6.90038">
        <ele>882.2</ele>
        <time>2022-11-02T14:39:44Z</time>
      </trkpt>
      <trkpt lat="47.88145" lon="6.90037">
        <ele>882.1</ele>
        <time>2022-11-02T14:39:45Z</time>
      </trkpt>
      <trkpt lat="47.88145" lon="6.90036">
        <ele>882.2</ele>
        <time>2022-11-02T14:39:46Z</time>
      </trkpt>
      <trkpt lat="47.88144" lon="6.90035">
        <ele>882.1</ele>
        <time>2022-11-02T14:39:47Z</time>
      </trkpt>
      <trkpt lat="47.88143" lon="6.90033">
        <ele>882.2</ele>
        <time>2022-11-02T14:39:48Z</time>
      </trkpt>
      <trkpt lat="47.88143" lon="6.90032">
        <ele>882.3</ele>
        <time>2022-11-02T14:39:49Z</time>
      </trkpt>
      <trkpt lat="47.88142" lon="6.90031">
        <ele>882.2</ele>
        <time>2022-11-02T14:39:50Z</time>
      </trkpt>
      <trkpt lat="47.88141" lon="6.90029">
        <ele>882.2</ele>
        <time>2022-11-02T14:39:51Z</time>
      </trkpt>
      <trkpt lat="47.88141" lon="6.90028">
        <ele>882.4</ele>
        <time>2022-11-02T14:39:52Z</time>
      </trkpt>
      <trkpt lat="47.8814" lon="6.90027">
        <ele>882.2</ele>
        <time>2022-11-02T14:39:53Z</time>
      </trkpt>
      <trkpt lat="47.88139" lon="6.90025">
        <ele>881.9</ele>
        <time>2022-11-02T14:39:54Z</time>
      </trkpt>
      <trkpt lat="47.88139" lon="6.90024">
        <ele>881.9</ele>
        <time>2022-11-02T14:39:55Z</time>
      </trkpt>
      <trkpt lat="47.88139" lon="6.90022">
        <ele>881.8</ele>
        <time>2022-11-02T14:39:56Z</time>
      </trkpt>
      <trkpt lat="47.88138" lon="6.9002">
        <ele>881.3</ele>
        <time>2022-11-02T14:39:57Z</time>
      </trkpt>
      <trkpt lat="47.88138" lon="6.90018">
        <ele>881.3</ele>
        <time>2022-11-02T14:39:58Z</time>
      </trkpt>
      <trkpt lat="47.88138" lon="6.90016">
        <ele>881.2</ele>
        <time>2022-11-02T14:39:59Z</time>
      </trkpt>
      <trkpt lat="47.88138" lon="6.90014">
        <ele>881.1</ele>
        <time>2022-11-02T14:40:00Z</time>
      </trkpt>
      <trkpt lat="47.88138" lon="6.90012">
        <ele>881.1</ele>
        <time>2022-11-02T14:40:01Z</time>
      </trkpt>
      <trkpt lat="47.88138" lon="6.9001">
        <ele>881</ele>
        <time>2022-11-02T14:40:02Z</time>
      </trkpt>
      <trkpt lat="47.88138" lon="6.90008">
        <ele>880.9</ele>
        <time>2022-11-02T14:40:03Z</time>
      </trkpt>
      <trkpt lat="47.88137" lon="6.90006">
        <ele>880.4</ele>
        <time>2022-11-02T14:40:04Z</time>
      </trkpt>
      <trkpt lat="47.88137" lon="6.90004">
        <ele>880.4</ele>
        <time>2022-11-02T14:40:05Z</time>
      </trkpt>
      <trkpt lat="47.88137" lon="6.90002">
        <ele>880.3</ele>
        <time>2022-11-02T14:40:06Z</time>
      </trkpt>
      <trkpt lat="47.88137" lon="6.9">
        <ele>880.3</ele>
        <time>2022-11-02T14:40:07Z</time>
      </trkpt>
      <trkpt lat="47.88136" lon="6.89998">
        <ele>880</ele>
        <time>2022-11-02T14:40:08Z</time>
      </trkpt>
      <trkpt lat="47.88136" lon="6.89997">
        <ele>880.1</ele>
        <time>2022-11-02T14:40:09Z</time>
      </trkpt>
      <trkpt lat="47.88135" lon="6.89995">
        <ele>879.8</ele>
        <time>2022-11-02T14:40:10Z</time>
      </trkpt>
      <trkpt lat="47.88135" lon="6.89993">
        <ele>880</ele>
        <time>2022-11-02T14:40:11Z</time>
      </trkpt>
      <trkpt lat="47.88135" lon="6.89991">
        <ele>880.1</ele>
        <time>2022-11-02T14:40:12Z</time>
      </trkpt>
      <trkpt lat="47.88134" lon="6.89989">
        <ele>879.9</ele>
        <time>2022-11-02T14:40:13Z</time>
      </trkpt>
      <trkpt lat="47.88134" lon="6.89987">
        <ele>880</ele>
        <time>2022-11-02T14:40:14Z</time>
      </trkpt>
      <trkpt lat="47.88134" lon="6.89985">
        <ele>880.1</ele>
        <time>2022-11-02T14:40:15Z</time>
      </trkpt>
      <trkpt lat="47.88134" lon="6.89984">
        <ele>880.2</ele>
        <time>2022-11-02T14:40:17Z</time>
      </trkpt>
      <trkpt lat="47.88133" lon="6.89983">
        <ele>879.9</ele>
        <time>2022-11-02T14:40:18Z</time>
      </trkpt>
      <trkpt lat="47.88132" lon="6.89982">
        <ele>879.6</ele>
        <time>2022-11-02T14:40:19Z</time>
      </trkpt>
      <trkpt lat="47.88131" lon="6.89981">
        <ele>879.2</ele>
        <time>2022-11-02T14:40:20Z</time>
      </trkpt>
      <trkpt lat="47.8813" lon="6.89981">
        <ele>878.8</ele>
        <time>2022-11-02T14:40:21Z</time>
      </trkpt>
      <trkpt lat="47.8813" lon="6.8998">
        <ele>878.9</ele>
        <time>2022-11-02T14:40:22Z</time>
      </trkpt>
      <trkpt lat="47.88129" lon="6.89979">
        <ele>878.6</ele>
        <time>2022-11-02T14:40:23Z</time>
      </trkpt>
      <trkpt lat="47.88128" lon="6.89977">
        <ele>878.3</ele>
        <time>2022-11-02T14:40:24Z</time>
      </trkpt>
      <trkpt lat="47.88128" lon="6.89976">
        <ele>878.4</ele>
        <time>2022-11-02T14:40:25Z</time>
      </trkpt>
      <trkpt lat="47.88127" lon="6.89974">
        <ele>878.2</ele>
        <time>2022-11-02T14:40:26Z</time>
      </trkpt>
      <trkpt lat="47.88127" lon="6.89973">
        <ele>878.2</ele>
        <time>2022-11-02T14:40:27Z</time>
      </trkpt>
      <trkpt lat="47.88127" lon="6.89971">
        <ele>878.4</ele>
        <time>2022-11-02T14:40:28Z</time>
      </trkpt>
      <trkpt lat="47.88126" lon="6.89969">
        <ele>878.2</ele>
        <time>2022-11-02T14:40:29Z</time>
      </trkpt>
      <trkpt lat="47.88126" lon="6.89968">
        <ele>878.3</ele>
        <time>2022-11-02T14:40:30Z</time>
      </trkpt>
      <trkpt lat="47.88126" lon="6.89966">
        <ele>878.5</ele>
        <time>2022-11-02T14:40:31Z</time>
      </trkpt>
      <trkpt lat="47.88125" lon="6.89964">
        <ele>878.2</ele>
        <time>2022-11-02T14:40:32Z</time>
      </trkpt>
      <trkpt lat="47.88125" lon="6.89963">
        <ele>878.3</ele>
        <time>2022-11-02T14:40:33Z</time>
      </trkpt>
      <trkpt lat="47.88124" lon="6.89961">
        <ele>878.1</ele>
        <time>2022-11-02T14:40:34Z</time>
      </trkpt>
      <trkpt lat="47.88124" lon="6.8996">
        <ele>878.2</ele>
        <time>2022-11-02T14:40:35Z</time>
      </trkpt>
      <trkpt lat="47.88123" lon="6.89958">
        <ele>878</ele>
        <time>2022-11-02T14:40:36Z</time>
      </trkpt>
      <trkpt lat="47.88122" lon="6.89956">
        <ele>877.7</ele>
        <time>2022-11-02T14:40:37Z</time>
      </trkpt>
      <trkpt lat="47.88121" lon="6.89955">
        <ele>877.4</ele>
        <time>2022-11-02T14:40:38Z</time>
      </trkpt>
      <trkpt lat="47.8812" lon="6.89953">
        <ele>877.1</ele>
        <time>2022-11-02T14:40:39Z</time>
      </trkpt>
      <trkpt lat="47.8812" lon="6.89951">
        <ele>877.3</ele>
        <time>2022-11-02T14:40:40Z</time>
      </trkpt>
      <trkpt lat="47.8812" lon="6.89949">
        <ele>877.5</ele>
        <time>2022-11-02T14:40:41Z</time>
      </trkpt>
      <trkpt lat="47.88119" lon="6.89948">
        <ele>877.1</ele>
        <time>2022-11-02T14:40:42Z</time>
      </trkpt>
      <trkpt lat="47.88119" lon="6.89946">
        <ele>877.3</ele>
        <time>2022-11-02T14:40:43Z</time>
      </trkpt>
      <trkpt lat="47.88119" lon="6.89944">
        <ele>877.5</ele>
        <time>2022-11-02T14:40:44Z</time>
      </trkpt>
      <trkpt lat="47.88119" lon="6.89942">
        <ele>877.8</ele>
        <time>2022-11-02T14:40:45Z</time>
      </trkpt>
      <trkpt lat="47.88119" lon="6.89941">
        <ele>877.9</ele>
        <time>2022-11-02T14:40:46Z</time>
      </trkpt>
      <trkpt lat="47.88119" lon="6.89939">
        <ele>878.2</ele>
        <time>2022-11-02T14:40:47Z</time>
      </trkpt>
      <trkpt lat="47.88119" lon="6.89937">
        <ele>878.6</ele>
        <time>2022-11-02T14:40:48Z</time>
      </trkpt>
      <trkpt lat="47.88119" lon="6.89936">
        <ele>878.7</ele>
        <time>2022-11-02T14:40:49Z</time>
      </trkpt>
      <trkpt lat="47.88118" lon="6.89934">
        <ele>878.6</ele>
        <time>2022-11-02T14:40:50Z</time>
      </trkpt>
      <trkpt lat="47.88118" lon="6.89932">
        <ele>878.9</ele>
        <time>2022-11-02T14:40:51Z</time>
      </trkpt>
      <trkpt lat="47.88117" lon="6.89931">
        <ele>878.6</ele>
        <time>2022-11-02T14:40:52Z</time>
      </trkpt>
      <trkpt lat="47.88117" lon="6.89929">
        <ele>878.9</ele>
        <time>2022-11-02T14:40:53Z</time>
      </trkpt>
      <trkpt lat="47.88116" lon="6.89928">
        <ele>878.6</ele>
        <time>2022-11-02T14:40:54Z</time>
      </trkpt>
      <trkpt lat="47.88115" lon="6.89927">
        <ele>878.3</ele>
        <time>2022-11-02T14:40:55Z</time>
      </trkpt>
      <trkpt lat="47.88115" lon="6.89925">
        <ele>878.6</ele>
        <time>2022-11-02T14:40:56Z</time>
      </trkpt>
      <trkpt lat="47.88114" lon="6.89924">
        <ele>878.3</ele>
        <time>2022-11-02T14:40:57Z</time>
      </trkpt>
      <trkpt lat="47.88114" lon="6.89922">
        <ele>878.6</ele>
        <time>2022-11-02T14:40:58Z</time>
      </trkpt>
      <trkpt lat="47.88113" lon="6.8992">
        <ele>878.4</ele>
        <time>2022-11-02T14:40:59Z</time>
      </trkpt>
      <trkpt lat="47.88113" lon="6.89919">
        <ele>878.5</ele>
        <time>2022-11-02T14:41:00Z</time>
      </trkpt>
      <trkpt lat="47.88113" lon="6.89917">
        <ele>878.8</ele>
        <time>2022-11-02T14:41:01Z</time>
      </trkpt>
      <trkpt lat="47.88112" lon="6.89916">
        <ele>878.6</ele>
        <time>2022-11-02T14:41:02Z</time>
      </trkpt>
      <trkpt lat="47.88111" lon="6.89915">
        <ele>878.5</ele>
        <time>2022-11-02T14:41:03Z</time>
      </trkpt>
      <trkpt lat="47.8811" lon="6.89913">
        <ele>878.8</ele>
        <time>2022-11-02T14:41:04Z</time>
      </trkpt>
      <trkpt lat="47.88109" lon="6.89911">
        <ele>879</ele>
        <time>2022-11-02T14:41:05Z</time>
      </trkpt>
      <trkpt lat="47.88109" lon="6.8991">
        <ele>879.3</ele>
        <time>2022-11-02T14:41:06Z</time>
      </trkpt>
      <trkpt lat="47.88108" lon="6.89908">
        <ele>879.5</ele>
        <time>2022-11-02T14:41:07Z</time>
      </trkpt>
      <trkpt lat="47.88107" lon="6.89907">
        <ele>879.4</ele>
        <time>2022-11-02T14:41:08Z</time>
      </trkpt>
      <trkpt lat="47.88106" lon="6.89906">
        <ele>879.3</ele>
        <time>2022-11-02T14:41:09Z</time>
      </trkpt>
      <trkpt lat="47.88105" lon="6.89905">
        <ele>879.2</ele>
        <time>2022-11-02T14:41:10Z</time>
      </trkpt>
      <trkpt lat="47.88104" lon="6.89904">
        <ele>879.1</ele>
        <time>2022-11-02T14:41:11Z</time>
      </trkpt>
      <trkpt lat="47.88103" lon="6.89903">
        <ele>878.9</ele>
        <time>2022-11-02T14:41:12Z</time>
      </trkpt>
      <trkpt lat="47.88102" lon="6.89902">
        <ele>878.8</ele>
        <time>2022-11-02T14:41:13Z</time>
      </trkpt>
      <trkpt lat="47.88101" lon="6.899">
        <ele>878.9</ele>
        <time>2022-11-02T14:41:14Z</time>
      </trkpt>
      <trkpt lat="47.88101" lon="6.89899">
        <ele>879.2</ele>
        <time>2022-11-02T14:41:15Z</time>
      </trkpt>
      <trkpt lat="47.881" lon="6.89898">
        <ele>879</ele>
        <time>2022-11-02T14:41:16Z</time>
      </trkpt>
      <trkpt lat="47.88099" lon="6.89897">
        <ele>878.8</ele>
        <time>2022-11-02T14:41:17Z</time>
      </trkpt>
      <trkpt lat="47.88098" lon="6.89895">
        <ele>878.8</ele>
        <time>2022-11-02T14:41:18Z</time>
      </trkpt>
      <trkpt lat="47.88097" lon="6.89893">
        <ele>878.9</ele>
        <time>2022-11-02T14:41:19Z</time>
      </trkpt>
      <trkpt lat="47.88097" lon="6.89892">
        <ele>879.1</ele>
        <time>2022-11-02T14:41:20Z</time>
      </trkpt>
      <trkpt lat="47.88096" lon="6.8989">
        <ele>879.1</ele>
        <time>2022-11-02T14:41:21Z</time>
      </trkpt>
      <trkpt lat="47.88095" lon="6.89888">
        <ele>879</ele>
        <time>2022-11-02T14:41:22Z</time>
      </trkpt>
      <trkpt lat="47.88095" lon="6.89887">
        <ele>879.2</ele>
        <time>2022-11-02T14:41:23Z</time>
      </trkpt>
      <trkpt lat="47.88094" lon="6.89886">
        <ele>878.9</ele>
        <time>2022-11-02T14:41:24Z</time>
      </trkpt>
      <trkpt lat="47.88093" lon="6.89885">
        <ele>878.5</ele>
        <time>2022-11-02T14:41:25Z</time>
      </trkpt>
      <trkpt lat="47.88092" lon="6.89884">
        <ele>878.2</ele>
        <time>2022-11-02T14:41:26Z</time>
      </trkpt>
      <trkpt lat="47.88091" lon="6.89883">
        <ele>877.9</ele>
        <time>2022-11-02T14:41:27Z</time>
      </trkpt>
      <trkpt lat="47.8809" lon="6.89882">
        <ele>877.5</ele>
        <time>2022-11-02T14:41:28Z</time>
      </trkpt>
      <trkpt lat="47.8809" lon="6.89881">
        <ele>877.7</ele>
        <time>2022-11-02T14:41:29Z</time>
      </trkpt>
      <trkpt lat="47.88089" lon="6.8988">
        <ele>877.4</ele>
        <time>2022-11-02T14:41:30Z</time>
      </trkpt>
      <trkpt lat="47.88088" lon="6.89879">
        <ele>877.1</ele>
        <time>2022-11-02T14:41:31Z</time>
      </trkpt>
      <trkpt lat="47.88088" lon="6.89877">
        <ele>877.4</ele>
        <time>2022-11-02T14:41:32Z</time>
      </trkpt>
      <trkpt lat="47.88087" lon="6.89876">
        <ele>877.1</ele>
        <time>2022-11-02T14:41:33Z</time>
      </trkpt>
      <trkpt lat="47.88087" lon="6.89875">
        <ele>877.3</ele>
        <time>2022-11-02T14:41:34Z</time>
      </trkpt>
      <trkpt lat="47.88086" lon="6.89873">
        <ele>877.1</ele>
        <time>2022-11-02T14:41:35Z</time>
      </trkpt>
      <trkpt lat="47.88086" lon="6.89872">
        <ele>877.3</ele>
        <time>2022-11-02T14:41:36Z</time>
      </trkpt>
      <trkpt lat="47.88086" lon="6.8987">
        <ele>877.7</ele>
        <time>2022-11-02T14:41:37Z</time>
      </trkpt>
      <trkpt lat="47.88085" lon="6.89869">
        <ele>877.4</ele>
        <time>2022-11-02T14:41:38Z</time>
      </trkpt>
      <trkpt lat="47.88085" lon="6.89868">
        <ele>877.6</ele>
        <time>2022-11-02T14:41:39Z</time>
      </trkpt>
      <trkpt lat="47.88085" lon="6.89867">
        <ele>877.7</ele>
        <time>2022-11-02T14:41:40Z</time>
      </trkpt>
      <trkpt lat="47.88084" lon="6.89865">
        <ele>877.6</ele>
        <time>2022-11-02T14:41:41Z</time>
      </trkpt>
      <trkpt lat="47.88084" lon="6.89864">
        <ele>877.8</ele>
        <time>2022-11-02T14:41:42Z</time>
      </trkpt>
      <trkpt lat="47.88083" lon="6.89863">
        <ele>877.5</ele>
        <time>2022-11-02T14:41:43Z</time>
      </trkpt>
      <trkpt lat="47.88083" lon="6.89862">
        <ele>877.7</ele>
        <time>2022-11-02T14:41:44Z</time>
      </trkpt>
      <trkpt lat="47.88082" lon="6.89861">
        <ele>877.5</ele>
        <time>2022-11-02T14:41:45Z</time>
      </trkpt>
      <trkpt lat="47.88082" lon="6.89859">
        <ele>877.8</ele>
        <time>2022-11-02T14:41:46Z</time>
      </trkpt>
      <trkpt lat="47.88081" lon="6.89858">
        <ele>877.6</ele>
        <time>2022-11-02T14:41:47Z</time>
      </trkpt>
      <trkpt lat="47.88081" lon="6.89856">
        <ele>877.8</ele>
        <time>2022-11-02T14:41:48Z</time>
      </trkpt>
      <trkpt lat="47.88081" lon="6.89854">
        <ele>878.1</ele>
        <time>2022-11-02T14:41:49Z</time>
      </trkpt>
      <trkpt lat="47.88081" lon="6.89852">
        <ele>878.4</ele>
        <time>2022-11-02T14:41:50Z</time>
      </trkpt>
      <trkpt lat="47.88081" lon="6.8985">
        <ele>878.7</ele>
        <time>2022-11-02T14:41:51Z</time>
      </trkpt>
      <trkpt lat="47.88081" lon="6.89847">
        <ele>879.1</ele>
        <time>2022-11-02T14:41:52Z</time>
      </trkpt>
      <trkpt lat="47.88081" lon="6.89845">
        <ele>879.3</ele>
        <time>2022-11-02T14:41:53Z</time>
      </trkpt>
      <trkpt lat="47.88082" lon="6.89843">
        <ele>880</ele>
        <time>2022-11-02T14:41:54Z</time>
      </trkpt>
      <trkpt lat="47.88082" lon="6.8984">
        <ele>880.5</ele>
        <time>2022-11-02T14:41:55Z</time>
      </trkpt>
      <trkpt lat="47.88083" lon="6.89838">
        <ele>881.2</ele>
        <time>2022-11-02T14:41:56Z</time>
      </trkpt>
      <trkpt lat="47.88083" lon="6.89836">
        <ele>881.5</ele>
        <time>2022-11-02T14:41:57Z</time>
      </trkpt>
      <trkpt lat="47.88084" lon="6.89834">
        <ele>882.1</ele>
        <time>2022-11-02T14:41:58Z</time>
      </trkpt>
      <trkpt lat="47.88084" lon="6.89832">
        <ele>882.2</ele>
        <time>2022-11-02T14:41:59Z</time>
      </trkpt>
      <trkpt lat="47.88085" lon="6.8983">
        <ele>882.5</ele>
        <time>2022-11-02T14:42:00Z</time>
      </trkpt>
      <trkpt lat="47.88085" lon="6.89828">
        <ele>882.4</ele>
        <time>2022-11-02T14:42:01Z</time>
      </trkpt>
      <trkpt lat="47.88086" lon="6.89826">
        <ele>882.7</ele>
        <time>2022-11-02T14:42:02Z</time>
      </trkpt>
      <trkpt lat="47.88086" lon="6.89824">
        <ele>882.7</ele>
        <time>2022-11-02T14:42:03Z</time>
      </trkpt>
      <trkpt lat="47.88087" lon="6.89823">
        <ele>883</ele>
        <time>2022-11-02T14:42:04Z</time>
      </trkpt>
      <trkpt lat="47.88088" lon="6.89821">
        <ele>883.3</ele>
        <time>2022-11-02T14:42:05Z</time>
      </trkpt>
      <trkpt lat="47.88088" lon="6.89819">
        <ele>883.3</ele>
        <time>2022-11-02T14:42:06Z</time>
      </trkpt>
      <trkpt lat="47.88089" lon="6.89817">
        <ele>883.6</ele>
        <time>2022-11-02T14:42:07Z</time>
      </trkpt>
      <trkpt lat="47.88089" lon="6.89815">
        <ele>883.5</ele>
        <time>2022-11-02T14:42:08Z</time>
      </trkpt>
      <trkpt lat="47.88089" lon="6.89813">
        <ele>883.5</ele>
        <time>2022-11-02T14:42:09Z</time>
      </trkpt>
      <trkpt lat="47.8809" lon="6.89811">
        <ele>883.8</ele>
        <time>2022-11-02T14:42:10Z</time>
      </trkpt>
      <trkpt lat="47.8809" lon="6.89809">
        <ele>883.7</ele>
        <time>2022-11-02T14:42:11Z</time>
      </trkpt>
      <trkpt lat="47.8809" lon="6.89807">
        <ele>883.7</ele>
        <time>2022-11-02T14:42:12Z</time>
      </trkpt>
      <trkpt lat="47.8809" lon="6.89805">
        <ele>883.6</ele>
        <time>2022-11-02T14:42:13Z</time>
      </trkpt>
      <trkpt lat="47.8809" lon="6.89804">
        <ele>883.6</ele>
        <time>2022-11-02T14:42:14Z</time>
      </trkpt>
      <trkpt lat="47.8809" lon="6.89802">
        <ele>883.5</ele>
        <time>2022-11-02T14:42:15Z</time>
      </trkpt>
      <trkpt lat="47.88091" lon="6.89801">
        <ele>883.9</ele>
        <time>2022-11-02T14:42:16Z</time>
      </trkpt>
      <trkpt lat="47.88091" lon="6.89799">
        <ele>883.9</ele>
        <time>2022-11-02T14:42:17Z</time>
      </trkpt>
      <trkpt lat="47.88092" lon="6.89797">
        <ele>884.2</ele>
        <time>2022-11-02T14:42:18Z</time>
      </trkpt>
      <trkpt lat="47.88092" lon="6.89795">
        <ele>884.2</ele>
        <time>2022-11-02T14:42:19Z</time>
      </trkpt>
      <trkpt lat="47.88092" lon="6.89793">
        <ele>884.1</ele>
        <time>2022-11-02T14:42:20Z</time>
      </trkpt>
      <trkpt lat="47.88092" lon="6.89791">
        <ele>884.1</ele>
        <time>2022-11-02T14:42:21Z</time>
      </trkpt>
      <trkpt lat="47.88093" lon="6.8979">
        <ele>884.5</ele>
        <time>2022-11-02T14:42:22Z</time>
      </trkpt>
      <trkpt lat="47.88093" lon="6.89788">
        <ele>884.4</ele>
        <time>2022-11-02T14:42:23Z</time>
      </trkpt>
      <trkpt lat="47.88093" lon="6.89786">
        <ele>884.4</ele>
        <time>2022-11-02T14:42:24Z</time>
      </trkpt>
      <trkpt lat="47.88093" lon="6.89785">
        <ele>884.3</ele>
        <time>2022-11-02T14:42:25Z</time>
      </trkpt>
      <trkpt lat="47.88093" lon="6.89783">
        <ele>884.3</ele>
        <time>2022-11-02T14:42:26Z</time>
      </trkpt>
      <trkpt lat="47.88093" lon="6.89782">
        <ele>884.3</ele>
        <time>2022-11-02T14:42:27Z</time>
      </trkpt>
      <trkpt lat="47.88093" lon="6.8978">
        <ele>884.2</ele>
        <time>2022-11-02T14:42:28Z</time>
      </trkpt>
      <trkpt lat="47.88093" lon="6.89779">
        <ele>884.2</ele>
        <time>2022-11-02T14:42:29Z</time>
      </trkpt>
      <trkpt lat="47.88093" lon="6.89777">
        <ele>884.2</ele>
        <time>2022-11-02T14:42:30Z</time>
      </trkpt>
      <trkpt lat="47.88093" lon="6.89776">
        <ele>884.2</ele>
        <time>2022-11-02T14:42:31Z</time>
      </trkpt>
      <trkpt lat="47.88092" lon="6.89774">
        <ele>883.9</ele>
        <time>2022-11-02T14:42:32Z</time>
      </trkpt>
      <trkpt lat="47.88092" lon="6.89773">
        <ele>883.9</ele>
        <time>2022-11-02T14:42:33Z</time>
      </trkpt>
      <trkpt lat="47.88092" lon="6.89771">
        <ele>884</ele>
        <time>2022-11-02T14:42:34Z</time>
      </trkpt>
      <trkpt lat="47.88092" lon="6.8977">
        <ele>884</ele>
        <time>2022-11-02T14:42:35Z</time>
      </trkpt>
      <trkpt lat="47.88092" lon="6.89769">
        <ele>884</ele>
        <time>2022-11-02T14:42:36Z</time>
      </trkpt>
      <trkpt lat="47.88092" lon="6.89767">
        <ele>884.1</ele>
        <time>2022-11-02T14:42:37Z</time>
      </trkpt>
      <trkpt lat="47.88092" lon="6.89766">
        <ele>884.1</ele>
        <time>2022-11-02T14:42:38Z</time>
      </trkpt>
      <trkpt lat="47.88092" lon="6.89765">
        <ele>884.2</ele>
        <time>2022-11-02T14:42:39Z</time>
      </trkpt>
      <trkpt lat="47.88092" lon="6.89764">
        <ele>884.2</ele>
        <time>2022-11-02T14:42:40Z</time>
      </trkpt>
      <trkpt lat="47.88092" lon="6.89763">
        <ele>884.2</ele>
        <time>2022-11-02T14:42:41Z</time>
      </trkpt>
      <trkpt lat="47.88091" lon="6.89761">
        <ele>883.8</ele>
        <time>2022-11-02T14:42:42Z</time>
      </trkpt>
      <trkpt lat="47.88091" lon="6.8976">
        <ele>883.8</ele>
        <time>2022-11-02T14:42:43Z</time>
      </trkpt>
      <trkpt lat="47.8809" lon="6.89758">
        <ele>883.4</ele>
        <time>2022-11-02T14:42:44Z</time>
      </trkpt>
      <trkpt lat="47.88089" lon="6.89757">
        <ele>882.9</ele>
        <time>2022-11-02T14:42:45Z</time>
      </trkpt>
      <trkpt lat="47.88088" lon="6.89756">
        <ele>882.4</ele>
        <time>2022-11-02T14:42:46Z</time>
      </trkpt>
      <trkpt lat="47.88087" lon="6.89754">
        <ele>881.9</ele>
        <time>2022-11-02T14:42:47Z</time>
      </trkpt>
      <trkpt lat="47.88087" lon="6.89753">
        <ele>881.9</ele>
        <time>2022-11-02T14:42:48Z</time>
      </trkpt>
      <trkpt lat="47.88086" lon="6.89752">
        <ele>881.4</ele>
        <time>2022-11-02T14:42:49Z</time>
      </trkpt>
      <trkpt lat="47.88085" lon="6.89751">
        <ele>880.9</ele>
        <time>2022-11-02T14:42:50Z</time>
      </trkpt>
      <trkpt lat="47.88085" lon="6.89749">
        <ele>881</ele>
        <time>2022-11-02T14:42:51Z</time>
      </trkpt>
      <trkpt lat="47.88085" lon="6.89748">
        <ele>881</ele>
        <time>2022-11-02T14:42:52Z</time>
      </trkpt>
      <trkpt lat="47.88085" lon="6.89747">
        <ele>881.1</ele>
        <time>2022-11-02T14:42:53Z</time>
      </trkpt>
      <trkpt lat="47.88085" lon="6.89746">
        <ele>881.2</ele>
        <time>2022-11-02T14:42:54Z</time>
      </trkpt>
      <trkpt lat="47.88085" lon="6.89744">
        <ele>881.3</ele>
        <time>2022-11-02T14:42:55Z</time>
      </trkpt>
      <trkpt lat="47.88085" lon="6.89743">
        <ele>881.4</ele>
        <time>2022-11-02T14:42:56Z</time>
      </trkpt>
      <trkpt lat="47.88085" lon="6.89742">
        <ele>881.5</ele>
        <time>2022-11-02T14:42:57Z</time>
      </trkpt>
      <trkpt lat="47.88085" lon="6.8974">
        <ele>881.6</ele>
        <time>2022-11-02T14:42:58Z</time>
      </trkpt>
      <trkpt lat="47.88085" lon="6.89739">
        <ele>881.7</ele>
        <time>2022-11-02T14:42:59Z</time>
      </trkpt>
      <trkpt lat="47.88085" lon="6.89737">
        <ele>881.9</ele>
        <time>2022-11-02T14:43:00Z</time>
      </trkpt>
      <trkpt lat="47.88085" lon="6.89735">
        <ele>882</ele>
        <time>2022-11-02T14:43:01Z</time>
      </trkpt>
      <trkpt lat="47.88085" lon="6.89733">
        <ele>882.2</ele>
        <time>2022-11-02T14:43:02Z</time>
      </trkpt>
      <trkpt lat="47.88085" lon="6.89732">
        <ele>882.2</ele>
        <time>2022-11-02T14:43:03Z</time>
      </trkpt>
      <trkpt lat="47.88085" lon="6.8973">
        <ele>882.4</ele>
        <time>2022-11-02T14:43:04Z</time>
      </trkpt>
      <trkpt lat="47.88085" lon="6.89728">
        <ele>882.5</ele>
        <time>2022-11-02T14:43:05Z</time>
      </trkpt>
      <trkpt lat="47.88085" lon="6.89726">
        <ele>882.7</ele>
        <time>2022-11-02T14:43:06Z</time>
      </trkpt>
      <trkpt lat="47.88085" lon="6.89725">
        <ele>882.8</ele>
        <time>2022-11-02T14:43:07Z</time>
      </trkpt>
      <trkpt lat="47.88085" lon="6.89723">
        <ele>882.9</ele>
        <time>2022-11-02T14:43:08Z</time>
      </trkpt>
      <trkpt lat="47.88085" lon="6.89722">
        <ele>883</ele>
        <time>2022-11-02T14:43:09Z</time>
      </trkpt>
      <trkpt lat="47.88085" lon="6.8972">
        <ele>882.9</ele>
        <time>2022-11-02T14:43:10Z</time>
      </trkpt>
      <trkpt lat="47.88085" lon="6.89719">
        <ele>882.9</ele>
        <time>2022-11-02T14:43:11Z</time>
      </trkpt>
      <trkpt lat="47.88086" lon="6.89717">
        <ele>883.4</ele>
        <time>2022-11-02T14:43:12Z</time>
      </trkpt>
      <trkpt lat="47.88087" lon="6.89715">
        <ele>883.9</ele>
        <time>2022-11-02T14:43:13Z</time>
      </trkpt>
      <trkpt lat="47.88087" lon="6.89713">
        <ele>883.8</ele>
        <time>2022-11-02T14:43:14Z</time>
      </trkpt>
      <trkpt lat="47.88088" lon="6.89711">
        <ele>884.4</ele>
        <time>2022-11-02T14:43:15Z</time>
      </trkpt>
      <trkpt lat="47.88088" lon="6.89709">
        <ele>884.3</ele>
        <time>2022-11-02T14:43:16Z</time>
      </trkpt>
      <trkpt lat="47.88088" lon="6.89707">
        <ele>884.2</ele>
        <time>2022-11-02T14:43:17Z</time>
      </trkpt>
      <trkpt lat="47.88088" lon="6.89705">
        <ele>884.2</ele>
        <time>2022-11-02T14:43:18Z</time>
      </trkpt>
      <trkpt lat="47.88088" lon="6.89703">
        <ele>884.1</ele>
        <time>2022-11-02T14:43:19Z</time>
      </trkpt>
      <trkpt lat="47.88088" lon="6.89702">
        <ele>884.1</ele>
        <time>2022-11-02T14:43:20Z</time>
      </trkpt>
      <trkpt lat="47.88088" lon="6.897">
        <ele>884</ele>
        <time>2022-11-02T14:43:21Z</time>
      </trkpt>
      <trkpt lat="47.88088" lon="6.89698">
        <ele>884</ele>
        <time>2022-11-02T14:43:22Z</time>
      </trkpt>
      <trkpt lat="47.88088" lon="6.89697">
        <ele>883.9</ele>
        <time>2022-11-02T14:43:23Z</time>
      </trkpt>
      <trkpt lat="47.88088" lon="6.89695">
        <ele>883.9</ele>
        <time>2022-11-02T14:43:24Z</time>
      </trkpt>
      <trkpt lat="47.88088" lon="6.89694">
        <ele>883.9</ele>
        <time>2022-11-02T14:43:25Z</time>
      </trkpt>
      <trkpt lat="47.88089" lon="6.89692">
        <ele>884.5</ele>
        <time>2022-11-02T14:43:26Z</time>
      </trkpt>
      <trkpt lat="47.88089" lon="6.89691">
        <ele>884.6</ele>
        <time>2022-11-02T14:43:27Z</time>
      </trkpt>
      <trkpt lat="47.88089" lon="6.89689">
        <ele>884.6</ele>
        <time>2022-11-02T14:43:28Z</time>
      </trkpt>
      <trkpt lat="47.88089" lon="6.89688">
        <ele>884.7</ele>
        <time>2022-11-02T14:43:29Z</time>
      </trkpt>
      <trkpt lat="47.88089" lon="6.89687">
        <ele>884.7</ele>
        <time>2022-11-02T14:43:30Z</time>
      </trkpt>
      <trkpt lat="47.88089" lon="6.89685">
        <ele>884.7</ele>
        <time>2022-11-02T14:43:31Z</time>
      </trkpt>
      <trkpt lat="47.88089" lon="6.89683">
        <ele>884.8</ele>
        <time>2022-11-02T14:43:32Z</time>
      </trkpt>
      <trkpt lat="47.88088" lon="6.89681">
        <ele>884.3</ele>
        <time>2022-11-02T14:43:33Z</time>
      </trkpt>
      <trkpt lat="47.88088" lon="6.8968">
        <ele>884.3</ele>
        <time>2022-11-02T14:43:34Z</time>
      </trkpt>
      <trkpt lat="47.88089" lon="6.89678">
        <ele>884.9</ele>
        <time>2022-11-02T14:43:35Z</time>
      </trkpt>
      <trkpt lat="47.88088" lon="6.89676">
        <ele>884.4</ele>
        <time>2022-11-02T14:43:36Z</time>
      </trkpt>
      <trkpt lat="47.88088" lon="6.89674">
        <ele>884.5</ele>
        <time>2022-11-02T14:43:37Z</time>
      </trkpt>
      <trkpt lat="47.88088" lon="6.89673">
        <ele>884.5</ele>
        <time>2022-11-02T14:43:38Z</time>
      </trkpt>
      <trkpt lat="47.88088" lon="6.89671">
        <ele>884.6</ele>
        <time>2022-11-02T14:43:39Z</time>
      </trkpt>
      <trkpt lat="47.88088" lon="6.8967">
        <ele>884.6</ele>
        <time>2022-11-02T14:43:40Z</time>
      </trkpt>
      <trkpt lat="47.88087" lon="6.89669">
        <ele>884</ele>
        <time>2022-11-02T14:43:41Z</time>
      </trkpt>
      <trkpt lat="47.88087" lon="6.89668">
        <ele>884.1</ele>
        <time>2022-11-02T14:43:42Z</time>
      </trkpt>
      <trkpt lat="47.88086" lon="6.89667">
        <ele>883.5</ele>
        <time>2022-11-02T14:43:43Z</time>
      </trkpt>
      <trkpt lat="47.88086" lon="6.89666">
        <ele>883.6</ele>
        <time>2022-11-02T14:43:44Z</time>
      </trkpt>
      <trkpt lat="47.88085" lon="6.89665">
        <ele>883.1</ele>
        <time>2022-11-02T14:43:45Z</time>
      </trkpt>
      <trkpt lat="47.88084" lon="6.89663">
        <ele>882.8</ele>
        <time>2022-11-02T14:43:46Z</time>
      </trkpt>
      <trkpt lat="47.88084" lon="6.89662">
        <ele>882.9</ele>
        <time>2022-11-02T14:43:47Z</time>
      </trkpt>
      <trkpt lat="47.88083" lon="6.89661">
        <ele>882.4</ele>
        <time>2022-11-02T14:43:48Z</time>
      </trkpt>
      <trkpt lat="47.88083" lon="6.89659">
        <ele>882.6</ele>
        <time>2022-11-02T14:43:49Z</time>
      </trkpt>
      <trkpt lat="47.88082" lon="6.89658">
        <ele>882.1</ele>
        <time>2022-11-02T14:43:50Z</time>
      </trkpt>
      <trkpt lat="47.88081" lon="6.89657">
        <ele>881.5</ele>
        <time>2022-11-02T14:43:51Z</time>
      </trkpt>
      <trkpt lat="47.8808" lon="6.89655">
        <ele>881.1</ele>
        <time>2022-11-02T14:43:52Z</time>
      </trkpt>
      <trkpt lat="47.8808" lon="6.89654">
        <ele>881.2</ele>
        <time>2022-11-02T14:43:53Z</time>
      </trkpt>
      <trkpt lat="47.88079" lon="6.89652">
        <ele>880.8</ele>
        <time>2022-11-02T14:43:54Z</time>
      </trkpt>
      <trkpt lat="47.88079" lon="6.8965">
        <ele>881</ele>
        <time>2022-11-02T14:43:55Z</time>
      </trkpt>
      <trkpt lat="47.88079" lon="6.89649">
        <ele>881.1</ele>
        <time>2022-11-02T14:43:56Z</time>
      </trkpt>
      <trkpt lat="47.88078" lon="6.89647">
        <ele>880.7</ele>
        <time>2022-11-02T14:43:57Z</time>
      </trkpt>
      <trkpt lat="47.88078" lon="6.89645">
        <ele>881</ele>
        <time>2022-11-02T14:43:58Z</time>
      </trkpt>
      <trkpt lat="47.88078" lon="6.89644">
        <ele>881.1</ele>
        <time>2022-11-02T14:43:59Z</time>
      </trkpt>
      <trkpt lat="47.88078" lon="6.89642">
        <ele>881.4</ele>
        <time>2022-11-02T14:44:00Z</time>
      </trkpt>
      <trkpt lat="47.88077" lon="6.8964">
        <ele>881</ele>
        <time>2022-11-02T14:44:01Z</time>
      </trkpt>
      <trkpt lat="47.88077" lon="6.89638">
        <ele>881.2</ele>
        <time>2022-11-02T14:44:02Z</time>
      </trkpt>
      <trkpt lat="47.88077" lon="6.89636">
        <ele>881.5</ele>
        <time>2022-11-02T14:44:03Z</time>
      </trkpt>
      <trkpt lat="47.88077" lon="6.89635">
        <ele>881.6</ele>
        <time>2022-11-02T14:44:04Z</time>
      </trkpt>
      <trkpt lat="47.88076" lon="6.89633">
        <ele>881.3</ele>
        <time>2022-11-02T14:44:05Z</time>
      </trkpt>
      <trkpt lat="47.88076" lon="6.89632">
        <ele>881.4</ele>
        <time>2022-11-02T14:44:06Z</time>
      </trkpt>
      <trkpt lat="47.88076" lon="6.89631">
        <ele>881.5</ele>
        <time>2022-11-02T14:44:07Z</time>
      </trkpt>
      <trkpt lat="47.88076" lon="6.89629">
        <ele>881.8</ele>
        <time>2022-11-02T14:44:08Z</time>
      </trkpt>
      <trkpt lat="47.88076" lon="6.89628">
        <ele>881.9</ele>
        <time>2022-11-02T14:44:09Z</time>
      </trkpt>
      <trkpt lat="47.88075" lon="6.89626">
        <ele>881.7</ele>
        <time>2022-11-02T14:44:10Z</time>
      </trkpt>
      <trkpt lat="47.88075" lon="6.89625">
        <ele>881.8</ele>
        <time>2022-11-02T14:44:11Z</time>
      </trkpt>
      <trkpt lat="47.88075" lon="6.89624">
        <ele>881.9</ele>
        <time>2022-11-02T14:44:12Z</time>
      </trkpt>
      <trkpt lat="47.88075" lon="6.89622">
        <ele>882.2</ele>
        <time>2022-11-02T14:44:13Z</time>
      </trkpt>
      <trkpt lat="47.88075" lon="6.89621">
        <ele>882.3</ele>
        <time>2022-11-02T14:44:14Z</time>
      </trkpt>
      <trkpt lat="47.88075" lon="6.89619">
        <ele>882.6</ele>
        <time>2022-11-02T14:44:15Z</time>
      </trkpt>
      <trkpt lat="47.88074" lon="6.89618">
        <ele>882.3</ele>
        <time>2022-11-02T14:44:16Z</time>
      </trkpt>
      <trkpt lat="47.88074" lon="6.89616">
        <ele>882.6</ele>
        <time>2022-11-02T14:44:17Z</time>
      </trkpt>
      <trkpt lat="47.88075" lon="6.89614">
        <ele>883.3</ele>
        <time>2022-11-02T14:44:18Z</time>
      </trkpt>
      <trkpt lat="47.88075" lon="6.89612">
        <ele>883.6</ele>
        <time>2022-11-02T14:44:19Z</time>
      </trkpt>
      <trkpt lat="47.88075" lon="6.89611">
        <ele>883.7</ele>
        <time>2022-11-02T14:44:20Z</time>
      </trkpt>
      <trkpt lat="47.88075" lon="6.89609">
        <ele>883.5</ele>
        <time>2022-11-02T14:44:21Z</time>
      </trkpt>
      <trkpt lat="47.88075" lon="6.89607">
        <ele>883.3</ele>
        <time>2022-11-02T14:44:22Z</time>
      </trkpt>
      <trkpt lat="47.88075" lon="6.89605">
        <ele>883.1</ele>
        <time>2022-11-02T14:44:23Z</time>
      </trkpt>
      <trkpt lat="47.88075" lon="6.89603">
        <ele>882.9</ele>
        <time>2022-11-02T14:44:24Z</time>
      </trkpt>
      <trkpt lat="47.88075" lon="6.89602">
        <ele>882.8</ele>
        <time>2022-11-02T14:44:25Z</time>
      </trkpt>
      <trkpt lat="47.88075" lon="6.896">
        <ele>882.6</ele>
        <time>2022-11-02T14:44:26Z</time>
      </trkpt>
      <trkpt lat="47.88074" lon="6.89599">
        <ele>882</ele>
        <time>2022-11-02T14:44:27Z</time>
      </trkpt>
      <trkpt lat="47.88074" lon="6.89597">
        <ele>881.8</ele>
        <time>2022-11-02T14:44:28Z</time>
      </trkpt>
      <trkpt lat="47.88074" lon="6.89596">
        <ele>881.7</ele>
        <time>2022-11-02T14:44:29Z</time>
      </trkpt>
      <trkpt lat="47.88074" lon="6.89594">
        <ele>881.4</ele>
        <time>2022-11-02T14:44:30Z</time>
      </trkpt>
      <trkpt lat="47.88074" lon="6.89592">
        <ele>881.2</ele>
        <time>2022-11-02T14:44:31Z</time>
      </trkpt>
      <trkpt lat="47.88074" lon="6.8959">
        <ele>881</ele>
        <time>2022-11-02T14:44:32Z</time>
      </trkpt>
      <trkpt lat="47.88074" lon="6.89588">
        <ele>880.8</ele>
        <time>2022-11-02T14:44:33Z</time>
      </trkpt>
      <trkpt lat="47.88075" lon="6.89586">
        <ele>881.2</ele>
        <time>2022-11-02T14:44:34Z</time>
      </trkpt>
      <trkpt lat="47.88075" lon="6.89583">
        <ele>880.9</ele>
        <time>2022-11-02T14:44:35Z</time>
      </trkpt>
      <trkpt lat="47.88075" lon="6.89581">
        <ele>880.8</ele>
        <time>2022-11-02T14:44:36Z</time>
      </trkpt>
      <trkpt lat="47.88075" lon="6.89579">
        <ele>880.8</ele>
        <time>2022-11-02T14:44:37Z</time>
      </trkpt>
      <trkpt lat="47.88076" lon="6.89578">
        <ele>881.3</ele>
        <time>2022-11-02T14:44:38Z</time>
      </trkpt>
      <trkpt lat="47.88076" lon="6.89576">
        <ele>881.3</ele>
        <time>2022-11-02T14:44:39Z</time>
      </trkpt>
      <trkpt lat="47.88076" lon="6.89575">
        <ele>881.2</ele>
        <time>2022-11-02T14:44:40Z</time>
      </trkpt>
      <trkpt lat="47.88076" lon="6.89574">
        <ele>881.2</ele>
        <time>2022-11-02T14:44:41Z</time>
      </trkpt>
      <trkpt lat="47.88076" lon="6.89572">
        <ele>881.1</ele>
        <time>2022-11-02T14:44:42Z</time>
      </trkpt>
      <trkpt lat="47.88076" lon="6.89571">
        <ele>881.1</ele>
        <time>2022-11-02T14:44:43Z</time>
      </trkpt>
      <trkpt lat="47.88076" lon="6.89569">
        <ele>881</ele>
        <time>2022-11-02T14:44:44Z</time>
      </trkpt>
      <trkpt lat="47.88077" lon="6.89568">
        <ele>881.5</ele>
        <time>2022-11-02T14:44:45Z</time>
      </trkpt>
      <trkpt lat="47.88077" lon="6.89566">
        <ele>881.4</ele>
        <time>2022-11-02T14:44:46Z</time>
      </trkpt>
      <trkpt lat="47.88077" lon="6.89565">
        <ele>881.4</ele>
        <time>2022-11-02T14:44:47Z</time>
      </trkpt>
      <trkpt lat="47.88077" lon="6.89563">
        <ele>881.3</ele>
        <time>2022-11-02T14:44:48Z</time>
      </trkpt>
      <trkpt lat="47.88077" lon="6.89562">
        <ele>881.3</ele>
        <time>2022-11-02T14:44:49Z</time>
      </trkpt>
      <trkpt lat="47.88077" lon="6.8956">
        <ele>881.2</ele>
        <time>2022-11-02T14:44:50Z</time>
      </trkpt>
      <trkpt lat="47.88077" lon="6.89558">
        <ele>881.1</ele>
        <time>2022-11-02T14:44:51Z</time>
      </trkpt>
      <trkpt lat="47.88077" lon="6.89556">
        <ele>881.1</ele>
        <time>2022-11-02T14:44:52Z</time>
      </trkpt>
      <trkpt lat="47.88077" lon="6.89555">
        <ele>881</ele>
        <time>2022-11-02T14:44:53Z</time>
      </trkpt>
      <trkpt lat="47.88077" lon="6.89551">
        <ele>880.7</ele>
        <time>2022-11-02T14:44:59Z</time>
      </trkpt>
      <trkpt lat="47.88077" lon="6.8955">
        <ele>880.7</ele>
        <time>2022-11-02T14:45:00Z</time>
      </trkpt>
      <trkpt lat="47.88077" lon="6.89548">
        <ele>880.5</ele>
        <time>2022-11-02T14:45:01Z</time>
      </trkpt>
      <trkpt lat="47.88077" lon="6.89547">
        <ele>880.5</ele>
        <time>2022-11-02T14:45:02Z</time>
      </trkpt>
      <trkpt lat="47.88077" lon="6.89546">
        <ele>880.4</ele>
        <time>2022-11-02T14:45:03Z</time>
      </trkpt>
      <trkpt lat="47.88078" lon="6.89544">
        <ele>880.7</ele>
        <time>2022-11-02T14:45:04Z</time>
      </trkpt>
      <trkpt lat="47.88078" lon="6.89543">
        <ele>880.6</ele>
        <time>2022-11-02T14:45:05Z</time>
      </trkpt>
      <trkpt lat="47.88079" lon="6.89541">
        <ele>880.8</ele>
        <time>2022-11-02T14:45:06Z</time>
      </trkpt>
      <trkpt lat="47.88079" lon="6.89539">
        <ele>880.6</ele>
        <time>2022-11-02T14:45:07Z</time>
      </trkpt>
      <trkpt lat="47.88079" lon="6.89538">
        <ele>880.6</ele>
        <time>2022-11-02T14:45:08Z</time>
      </trkpt>
      <trkpt lat="47.8808" lon="6.89536">
        <ele>880.8</ele>
        <time>2022-11-02T14:45:09Z</time>
      </trkpt>
      <trkpt lat="47.8808" lon="6.89534">
        <ele>880.6</ele>
        <time>2022-11-02T14:45:10Z</time>
      </trkpt>
      <trkpt lat="47.8808" lon="6.89533">
        <ele>880.5</ele>
        <time>2022-11-02T14:45:11Z</time>
      </trkpt>
      <trkpt lat="47.88081" lon="6.89531">
        <ele>880.6</ele>
        <time>2022-11-02T14:45:12Z</time>
      </trkpt>
      <trkpt lat="47.88081" lon="6.89529">
        <ele>880.4</ele>
        <time>2022-11-02T14:45:13Z</time>
      </trkpt>
      <trkpt lat="47.88081" lon="6.89528">
        <ele>880.3</ele>
        <time>2022-11-02T14:45:14Z</time>
      </trkpt>
      <trkpt lat="47.88082" lon="6.89526">
        <ele>880.2</ele>
        <time>2022-11-02T14:45:15Z</time>
      </trkpt>
      <trkpt lat="47.88082" lon="6.89525">
        <ele>880</ele>
        <time>2022-11-02T14:45:16Z</time>
      </trkpt>
      <trkpt lat="47.88083" lon="6.89524">
        <ele>880.1</ele>
        <time>2022-11-02T14:45:17Z</time>
      </trkpt>
      <trkpt lat="47.88083" lon="6.89522">
        <ele>879.7</ele>
        <time>2022-11-02T14:45:18Z</time>
      </trkpt>
      <trkpt lat="47.88084" lon="6.89521">
        <ele>879.7</ele>
        <time>2022-11-02T14:45:19Z</time>
      </trkpt>
      <trkpt lat="47.88084" lon="6.8952">
        <ele>879.5</ele>
        <time>2022-11-02T14:45:20Z</time>
      </trkpt>
      <trkpt lat="47.88085" lon="6.89518">
        <ele>879.2</ele>
        <time>2022-11-02T14:45:21Z</time>
      </trkpt>
      <trkpt lat="47.88085" lon="6.89517">
        <ele>879</ele>
        <time>2022-11-02T14:45:22Z</time>
      </trkpt>
      <trkpt lat="47.88086" lon="6.89515">
        <ele>878.8</ele>
        <time>2022-11-02T14:45:23Z</time>
      </trkpt>
      <trkpt lat="47.88086" lon="6.89514">
        <ele>878.6</ele>
        <time>2022-11-02T14:45:24Z</time>
      </trkpt>
      <trkpt lat="47.88087" lon="6.89513">
        <ele>878.5</ele>
        <time>2022-11-02T14:45:25Z</time>
      </trkpt>
      <trkpt lat="47.88087" lon="6.89512">
        <ele>878.3</ele>
        <time>2022-11-02T14:45:26Z</time>
      </trkpt>
      <trkpt lat="47.88088" lon="6.89511">
        <ele>878.3</ele>
        <time>2022-11-02T14:45:27Z</time>
      </trkpt>
      <trkpt lat="47.88089" lon="6.8951">
        <ele>878.3</ele>
        <time>2022-11-02T14:45:28Z</time>
      </trkpt>
      <trkpt lat="47.8809" lon="6.89509">
        <ele>878.2</ele>
        <time>2022-11-02T14:45:29Z</time>
      </trkpt>
      <trkpt lat="47.88091" lon="6.89508">
        <ele>878.2</ele>
        <time>2022-11-02T14:45:30Z</time>
      </trkpt>
      <trkpt lat="47.88093" lon="6.89507">
        <ele>878.3</ele>
        <time>2022-11-02T14:45:31Z</time>
      </trkpt>
      <trkpt lat="47.88094" lon="6.89506">
        <ele>878.3</ele>
        <time>2022-11-02T14:45:32Z</time>
      </trkpt>
      <trkpt lat="47.88095" lon="6.89505">
        <ele>878.3</ele>
        <time>2022-11-02T14:45:33Z</time>
      </trkpt>
      <trkpt lat="47.88096" lon="6.89504">
        <ele>878.2</ele>
        <time>2022-11-02T14:45:34Z</time>
      </trkpt>
      <trkpt lat="47.88097" lon="6.89503">
        <ele>878.2</ele>
        <time>2022-11-02T14:45:35Z</time>
      </trkpt>
      <trkpt lat="47.88098" lon="6.89503">
        <ele>878.3</ele>
        <time>2022-11-02T14:45:36Z</time>
      </trkpt>
      <trkpt lat="47.88099" lon="6.89502">
        <ele>878.3</ele>
        <time>2022-11-02T14:45:37Z</time>
      </trkpt>
      <trkpt lat="47.88099" lon="6.89501">
        <ele>878.1</ele>
        <time>2022-11-02T14:45:38Z</time>
      </trkpt>
      <trkpt lat="47.881" lon="6.895">
        <ele>878</ele>
        <time>2022-11-02T14:45:39Z</time>
      </trkpt>
      <trkpt lat="47.88101" lon="6.89499">
        <ele>877.9</ele>
        <time>2022-11-02T14:45:40Z</time>
      </trkpt>
      <trkpt lat="47.88102" lon="6.89498">
        <ele>877.9</ele>
        <time>2022-11-02T14:45:41Z</time>
      </trkpt>
      <trkpt lat="47.88102" lon="6.89497">
        <ele>877.6</ele>
        <time>2022-11-02T14:45:42Z</time>
      </trkpt>
      <trkpt lat="47.88103" lon="6.89496">
        <ele>877.6</ele>
        <time>2022-11-02T14:45:43Z</time>
      </trkpt>
      <trkpt lat="47.88103" lon="6.89494">
        <ele>877.1</ele>
        <time>2022-11-02T14:45:44Z</time>
      </trkpt>
      <trkpt lat="47.88104" lon="6.89493">
        <ele>877</ele>
        <time>2022-11-02T14:45:45Z</time>
      </trkpt>
      <trkpt lat="47.88104" lon="6.89491">
        <ele>876.5</ele>
        <time>2022-11-02T14:45:46Z</time>
      </trkpt>
      <trkpt lat="47.88105" lon="6.89489">
        <ele>876.2</ele>
        <time>2022-11-02T14:45:47Z</time>
      </trkpt>
      <trkpt lat="47.88105" lon="6.89487">
        <ele>875.7</ele>
        <time>2022-11-02T14:45:48Z</time>
      </trkpt>
      <trkpt lat="47.88106" lon="6.89485">
        <ele>875.4</ele>
        <time>2022-11-02T14:45:49Z</time>
      </trkpt>
      <trkpt lat="47.88106" lon="6.89483">
        <ele>874.9</ele>
        <time>2022-11-02T14:45:50Z</time>
      </trkpt>
      <trkpt lat="47.88107" lon="6.89482">
        <ele>874.8</ele>
        <time>2022-11-02T14:45:51Z</time>
      </trkpt>
      <trkpt lat="47.88108" lon="6.8948">
        <ele>874.5</ele>
        <time>2022-11-02T14:45:52Z</time>
      </trkpt>
      <trkpt lat="47.88109" lon="6.89479">
        <ele>874.4</ele>
        <time>2022-11-02T14:45:53Z</time>
      </trkpt>
      <trkpt lat="47.88109" lon="6.89478">
        <ele>874.1</ele>
        <time>2022-11-02T14:45:54Z</time>
      </trkpt>
      <trkpt lat="47.8811" lon="6.89476">
        <ele>873.8</ele>
        <time>2022-11-02T14:45:55Z</time>
      </trkpt>
      <trkpt lat="47.88111" lon="6.89475">
        <ele>873.7</ele>
        <time>2022-11-02T14:45:56Z</time>
      </trkpt>
      <trkpt lat="47.88111" lon="6.89474">
        <ele>873.4</ele>
        <time>2022-11-02T14:45:57Z</time>
      </trkpt>
      <trkpt lat="47.88112" lon="6.89473">
        <ele>873.6</ele>
        <time>2022-11-02T14:45:58Z</time>
      </trkpt>
      <trkpt lat="47.88112" lon="6.89471">
        <ele>873.1</ele>
        <time>2022-11-02T14:45:59Z</time>
      </trkpt>
      <trkpt lat="47.88113" lon="6.8947">
        <ele>873.3</ele>
        <time>2022-11-02T14:46:00Z</time>
      </trkpt>
      <trkpt lat="47.88114" lon="6.89469">
        <ele>873.5</ele>
        <time>2022-11-02T14:46:01Z</time>
      </trkpt>
      <trkpt lat="47.88114" lon="6.89468">
        <ele>873.3</ele>
        <time>2022-11-02T14:46:02Z</time>
      </trkpt>
      <trkpt lat="47.88115" lon="6.89466">
        <ele>873.2</ele>
        <time>2022-11-02T14:46:03Z</time>
      </trkpt>
      <trkpt lat="47.88115" lon="6.89465">
        <ele>873</ele>
        <time>2022-11-02T14:46:04Z</time>
      </trkpt>
      <trkpt lat="47.88116" lon="6.89464">
        <ele>873.2</ele>
        <time>2022-11-02T14:46:05Z</time>
      </trkpt>
      <trkpt lat="47.88117" lon="6.89462">
        <ele>873.1</ele>
        <time>2022-11-02T14:46:06Z</time>
      </trkpt>
      <trkpt lat="47.88117" lon="6.89461">
        <ele>872.9</ele>
        <time>2022-11-02T14:46:07Z</time>
      </trkpt>
      <trkpt lat="47.88118" lon="6.8946">
        <ele>873</ele>
        <time>2022-11-02T14:46:08Z</time>
      </trkpt>
      <trkpt lat="47.88118" lon="6.89459">
        <ele>872.8</ele>
        <time>2022-11-02T14:46:09Z</time>
      </trkpt>
      <trkpt lat="47.88119" lon="6.89458">
        <ele>872.9</ele>
        <time>2022-11-02T14:46:10Z</time>
      </trkpt>
      <trkpt lat="47.88119" lon="6.89457">
        <ele>872.7</ele>
        <time>2022-11-02T14:46:11Z</time>
      </trkpt>
      <trkpt lat="47.88119" lon="6.89455">
        <ele>872.2</ele>
        <time>2022-11-02T14:46:12Z</time>
      </trkpt>
      <trkpt lat="47.8812" lon="6.89454">
        <ele>872.3</ele>
        <time>2022-11-02T14:46:13Z</time>
      </trkpt>
      <trkpt lat="47.8812" lon="6.89453">
        <ele>872</ele>
        <time>2022-11-02T14:46:14Z</time>
      </trkpt>
      <trkpt lat="47.88121" lon="6.89452">
        <ele>872.1</ele>
        <time>2022-11-02T14:46:15Z</time>
      </trkpt>
      <trkpt lat="47.88121" lon="6.8945">
        <ele>871.6</ele>
        <time>2022-11-02T14:46:16Z</time>
      </trkpt>
      <trkpt lat="47.88122" lon="6.89449">
        <ele>871.7</ele>
        <time>2022-11-02T14:46:17Z</time>
      </trkpt>
      <trkpt lat="47.88123" lon="6.89448">
        <ele>871.8</ele>
        <time>2022-11-02T14:46:18Z</time>
      </trkpt>
      <trkpt lat="47.88123" lon="6.89446">
        <ele>871.3</ele>
        <time>2022-11-02T14:46:19Z</time>
      </trkpt>
      <trkpt lat="47.88124" lon="6.89445">
        <ele>871.3</ele>
        <time>2022-11-02T14:46:20Z</time>
      </trkpt>
      <trkpt lat="47.88125" lon="6.89444">
        <ele>871.4</ele>
        <time>2022-11-02T14:46:21Z</time>
      </trkpt>
      <trkpt lat="47.88125" lon="6.89442">
        <ele>870.7</ele>
        <time>2022-11-02T14:46:22Z</time>
      </trkpt>
      <trkpt lat="47.88126" lon="6.89441">
        <ele>870.7</ele>
        <time>2022-11-02T14:46:23Z</time>
      </trkpt>
      <trkpt lat="47.88126" lon="6.8944">
        <ele>870.4</ele>
        <time>2022-11-02T14:46:24Z</time>
      </trkpt>
      <trkpt lat="47.88127" lon="6.89438">
        <ele>870.1</ele>
        <time>2022-11-02T14:46:25Z</time>
      </trkpt>
      <trkpt lat="47.88128" lon="6.89437">
        <ele>870.1</ele>
        <time>2022-11-02T14:46:26Z</time>
      </trkpt>
      <trkpt lat="47.88128" lon="6.89435">
        <ele>869.4</ele>
        <time>2022-11-02T14:46:27Z</time>
      </trkpt>
      <trkpt lat="47.88129" lon="6.89434">
        <ele>869.4</ele>
        <time>2022-11-02T14:46:28Z</time>
      </trkpt>
      <trkpt lat="47.8813" lon="6.89432">
        <ele>869.1</ele>
        <time>2022-11-02T14:46:29Z</time>
      </trkpt>
      <trkpt lat="47.8813" lon="6.8943">
        <ele>868.4</ele>
        <time>2022-11-02T14:46:30Z</time>
      </trkpt>
      <trkpt lat="47.88131" lon="6.89429">
        <ele>868.4</ele>
        <time>2022-11-02T14:46:31Z</time>
      </trkpt>
      <trkpt lat="47.88132" lon="6.89427">
        <ele>868.1</ele>
        <time>2022-11-02T14:46:32Z</time>
      </trkpt>
      <trkpt lat="47.88133" lon="6.89427">
        <ele>868.4</ele>
        <time>2022-11-02T14:46:33Z</time>
      </trkpt>
      <trkpt lat="47.88134" lon="6.89426">
        <ele>868.4</ele>
        <time>2022-11-02T14:46:34Z</time>
      </trkpt>
      <trkpt lat="47.88134" lon="6.89425">
        <ele>868.1</ele>
        <time>2022-11-02T14:46:35Z</time>
      </trkpt>
      <trkpt lat="47.88135" lon="6.89424">
        <ele>868.1</ele>
        <time>2022-11-02T14:46:36Z</time>
      </trkpt>
      <trkpt lat="47.88136" lon="6.89423">
        <ele>868.1</ele>
        <time>2022-11-02T14:46:37Z</time>
      </trkpt>
      <trkpt lat="47.88137" lon="6.89423">
        <ele>868.4</ele>
        <time>2022-11-02T14:46:38Z</time>
      </trkpt>
      <trkpt lat="47.88137" lon="6.89422">
        <ele>868.1</ele>
        <time>2022-11-02T14:46:39Z</time>
      </trkpt>
      <trkpt lat="47.88138" lon="6.89421">
        <ele>868.1</ele>
        <time>2022-11-02T14:46:40Z</time>
      </trkpt>
      <trkpt lat="47.88139" lon="6.8942">
        <ele>868.1</ele>
        <time>2022-11-02T14:46:41Z</time>
      </trkpt>
      <trkpt lat="47.88139" lon="6.89419">
        <ele>867.8</ele>
        <time>2022-11-02T14:46:42Z</time>
      </trkpt>
      <trkpt lat="47.8814" lon="6.89418">
        <ele>867.7</ele>
        <time>2022-11-02T14:46:43Z</time>
      </trkpt>
      <trkpt lat="47.88141" lon="6.89418">
        <ele>867.9</ele>
        <time>2022-11-02T14:46:44Z</time>
      </trkpt>
      <trkpt lat="47.88141" lon="6.89417">
        <ele>867.6</ele>
        <time>2022-11-02T14:46:45Z</time>
      </trkpt>
      <trkpt lat="47.88142" lon="6.89416">
        <ele>867.4</ele>
        <time>2022-11-02T14:46:46Z</time>
      </trkpt>
      <trkpt lat="47.88143" lon="6.89415">
        <ele>867.2</ele>
        <time>2022-11-02T14:46:47Z</time>
      </trkpt>
      <trkpt lat="47.88144" lon="6.89414">
        <ele>867</ele>
        <time>2022-11-02T14:46:48Z</time>
      </trkpt>
      <trkpt lat="47.88144" lon="6.89413">
        <ele>866.5</ele>
        <time>2022-11-02T14:46:49Z</time>
      </trkpt>
      <trkpt lat="47.88145" lon="6.89412">
        <ele>866.3</ele>
        <time>2022-11-02T14:46:50Z</time>
      </trkpt>
      <trkpt lat="47.88146" lon="6.89412">
        <ele>866.6</ele>
        <time>2022-11-02T14:46:51Z</time>
      </trkpt>
      <trkpt lat="47.88147" lon="6.89411">
        <ele>866.4</ele>
        <time>2022-11-02T14:46:52Z</time>
      </trkpt>
      <trkpt lat="47.88148" lon="6.8941">
        <ele>866.2</ele>
        <time>2022-11-02T14:46:53Z</time>
      </trkpt>
      <trkpt lat="47.88149" lon="6.89409">
        <ele>866</ele>
        <time>2022-11-02T14:46:54Z</time>
      </trkpt>
      <trkpt lat="47.8815" lon="6.89409">
        <ele>866.2</ele>
        <time>2022-11-02T14:46:55Z</time>
      </trkpt>
      <trkpt lat="47.8815" lon="6.89408">
        <ele>865.8</ele>
        <time>2022-11-02T14:46:56Z</time>
      </trkpt>
      <trkpt lat="47.88151" lon="6.89408">
        <ele>866</ele>
        <time>2022-11-02T14:46:57Z</time>
      </trkpt>
      <trkpt lat="47.88152" lon="6.89407">
        <ele>865.8</ele>
        <time>2022-11-02T14:46:58Z</time>
      </trkpt>
      <trkpt lat="47.88153" lon="6.89407">
        <ele>866</ele>
        <time>2022-11-02T14:46:59Z</time>
      </trkpt>
      <trkpt lat="47.88153" lon="6.89406">
        <ele>865.6</ele>
        <time>2022-11-02T14:47:00Z</time>
      </trkpt>
      <trkpt lat="47.88154" lon="6.89406">
        <ele>865.9</ele>
        <time>2022-11-02T14:47:01Z</time>
      </trkpt>
      <trkpt lat="47.88156" lon="6.89405">
        <ele>865.9</ele>
        <time>2022-11-02T14:47:02Z</time>
      </trkpt>
      <trkpt lat="47.88157" lon="6.89404">
        <ele>865.7</ele>
        <time>2022-11-02T14:47:03Z</time>
      </trkpt>
      <trkpt lat="47.88158" lon="6.89404">
        <ele>866</ele>
        <time>2022-11-02T14:47:04Z</time>
      </trkpt>
      <trkpt lat="47.88159" lon="6.89403">
        <ele>865.8</ele>
        <time>2022-11-02T14:47:05Z</time>
      </trkpt>
      <trkpt lat="47.8816" lon="6.89402">
        <ele>865.6</ele>
        <time>2022-11-02T14:47:06Z</time>
      </trkpt>
      <trkpt lat="47.88161" lon="6.89402">
        <ele>865.9</ele>
        <time>2022-11-02T14:47:07Z</time>
      </trkpt>
      <trkpt lat="47.88161" lon="6.89401">
        <ele>865.5</ele>
        <time>2022-11-02T14:47:08Z</time>
      </trkpt>
      <trkpt lat="47.88162" lon="6.89401">
        <ele>865.7</ele>
        <time>2022-11-02T14:47:09Z</time>
      </trkpt>
      <trkpt lat="47.88163" lon="6.894">
        <ele>865.5</ele>
        <time>2022-11-02T14:47:10Z</time>
      </trkpt>
      <trkpt lat="47.88164" lon="6.894">
        <ele>865.8</ele>
        <time>2022-11-02T14:47:11Z</time>
      </trkpt>
      <trkpt lat="47.88165" lon="6.89399">
        <ele>865.6</ele>
        <time>2022-11-02T14:47:12Z</time>
      </trkpt>
      <trkpt lat="47.88165" lon="6.89398">
        <ele>865.2</ele>
        <time>2022-11-02T14:47:13Z</time>
      </trkpt>
      <trkpt lat="47.88166" lon="6.89397">
        <ele>865.1</ele>
        <time>2022-11-02T14:47:14Z</time>
      </trkpt>
      <trkpt lat="47.88167" lon="6.89396">
        <ele>864.9</ele>
        <time>2022-11-02T14:47:15Z</time>
      </trkpt>
      <trkpt lat="47.88168" lon="6.89396">
        <ele>865.3</ele>
        <time>2022-11-02T14:47:16Z</time>
      </trkpt>
      <trkpt lat="47.88168" lon="6.89394">
        <ele>864.5</ele>
        <time>2022-11-02T14:47:17Z</time>
      </trkpt>
      <trkpt lat="47.88169" lon="6.89393">
        <ele>864.5</ele>
        <time>2022-11-02T14:47:18Z</time>
      </trkpt>
      <trkpt lat="47.8817" lon="6.89392">
        <ele>864.4</ele>
        <time>2022-11-02T14:47:19Z</time>
      </trkpt>
      <trkpt lat="47.8817" lon="6.89391">
        <ele>864</ele>
        <time>2022-11-02T14:47:20Z</time>
      </trkpt>
      <trkpt lat="47.88171" lon="6.89389">
        <ele>863.6</ele>
        <time>2022-11-02T14:47:21Z</time>
      </trkpt>
      <trkpt lat="47.88172" lon="6.89388">
        <ele>863.5</ele>
        <time>2022-11-02T14:47:22Z</time>
      </trkpt>
      <trkpt lat="47.88172" lon="6.89387">
        <ele>863.1</ele>
        <time>2022-11-02T14:47:23Z</time>
      </trkpt>
      <trkpt lat="47.88173" lon="6.89385">
        <ele>862.7</ele>
        <time>2022-11-02T14:47:24Z</time>
      </trkpt>
      <trkpt lat="47.88173" lon="6.89384">
        <ele>862.2</ele>
        <time>2022-11-02T14:47:25Z</time>
      </trkpt>
      <trkpt lat="47.88174" lon="6.89382">
        <ele>861.8</ele>
        <time>2022-11-02T14:47:26Z</time>
      </trkpt>
      <trkpt lat="47.88174" lon="6.89381">
        <ele>861.4</ele>
        <time>2022-11-02T14:47:27Z</time>
      </trkpt>
      <trkpt lat="47.88175" lon="6.89379">
        <ele>860.9</ele>
        <time>2022-11-02T14:47:28Z</time>
      </trkpt>
      <trkpt lat="47.88176" lon="6.89378">
        <ele>860.9</ele>
        <time>2022-11-02T14:47:29Z</time>
      </trkpt>
      <trkpt lat="47.88176" lon="6.89377">
        <ele>860.5</ele>
        <time>2022-11-02T14:47:30Z</time>
      </trkpt>
      <trkpt lat="47.88177" lon="6.89376">
        <ele>860.5</ele>
        <time>2022-11-02T14:47:31Z</time>
      </trkpt>
      <trkpt lat="47.88178" lon="6.89374">
        <ele>860.1</ele>
        <time>2022-11-02T14:47:32Z</time>
      </trkpt>
      <trkpt lat="47.88178" lon="6.89373">
        <ele>859.7</ele>
        <time>2022-11-02T14:47:33Z</time>
      </trkpt>
      <trkpt lat="47.88179" lon="6.89372">
        <ele>859.7</ele>
        <time>2022-11-02T14:47:34Z</time>
      </trkpt>
      <trkpt lat="47.8818" lon="6.89372">
        <ele>860.1</ele>
        <time>2022-11-02T14:47:35Z</time>
      </trkpt>
      <trkpt lat="47.8818" lon="6.89371">
        <ele>859.7</ele>
        <time>2022-11-02T14:47:36Z</time>
      </trkpt>
      <trkpt lat="47.88181" lon="6.8937">
        <ele>859.7</ele>
        <time>2022-11-02T14:47:37Z</time>
      </trkpt>
      <trkpt lat="47.88182" lon="6.89369">
        <ele>859.7</ele>
        <time>2022-11-02T14:47:38Z</time>
      </trkpt>
      <trkpt lat="47.88182" lon="6.89367">
        <ele>858.9</ele>
        <time>2022-11-02T14:47:39Z</time>
      </trkpt>
      <trkpt lat="47.88183" lon="6.89366">
        <ele>859</ele>
        <time>2022-11-02T14:47:40Z</time>
      </trkpt>
      <trkpt lat="47.88183" lon="6.89365">
        <ele>858.6</ele>
        <time>2022-11-02T14:47:41Z</time>
      </trkpt>
      <trkpt lat="47.88184" lon="6.89363">
        <ele>858.2</ele>
        <time>2022-11-02T14:47:42Z</time>
      </trkpt>
      <trkpt lat="47.88184" lon="6.89362">
        <ele>857.8</ele>
        <time>2022-11-02T14:47:43Z</time>
      </trkpt>
      <trkpt lat="47.88185" lon="6.8936">
        <ele>857.6</ele>
        <time>2022-11-02T14:47:44Z</time>
      </trkpt>
      <trkpt lat="47.88185" lon="6.89359">
        <ele>857.2</ele>
        <time>2022-11-02T14:47:45Z</time>
      </trkpt>
      <trkpt lat="47.88185" lon="6.89357">
        <ele>856.6</ele>
        <time>2022-11-02T14:47:46Z</time>
      </trkpt>
      <trkpt lat="47.88186" lon="6.89356">
        <ele>856.7</ele>
        <time>2022-11-02T14:47:47Z</time>
      </trkpt>
      <trkpt lat="47.88186" lon="6.89355">
        <ele>856.4</ele>
        <time>2022-11-02T14:47:48Z</time>
      </trkpt>
      <trkpt lat="47.88187" lon="6.89353">
        <ele>856.2</ele>
        <time>2022-11-02T14:47:49Z</time>
      </trkpt>
      <trkpt lat="47.88188" lon="6.89352">
        <ele>856.3</ele>
        <time>2022-11-02T14:47:50Z</time>
      </trkpt>
      <trkpt lat="47.88189" lon="6.89351">
        <ele>856.4</ele>
        <time>2022-11-02T14:47:52Z</time>
      </trkpt>
      <trkpt lat="47.88189" lon="6.8935">
        <ele>856</ele>
        <time>2022-11-02T14:47:53Z</time>
      </trkpt>
      <trkpt lat="47.8819" lon="6.89349">
        <ele>856.2</ele>
        <time>2022-11-02T14:47:54Z</time>
      </trkpt>
      <trkpt lat="47.88191" lon="6.89348">
        <ele>856.3</ele>
        <time>2022-11-02T14:47:55Z</time>
      </trkpt>
      <trkpt lat="47.88191" lon="6.89347">
        <ele>855.9</ele>
        <time>2022-11-02T14:47:56Z</time>
      </trkpt>
      <trkpt lat="47.88192" lon="6.89345">
        <ele>855.7</ele>
        <time>2022-11-02T14:47:57Z</time>
      </trkpt>
      <trkpt lat="47.88193" lon="6.89344">
        <ele>855.8</ele>
        <time>2022-11-02T14:47:58Z</time>
      </trkpt>
      <trkpt lat="47.88194" lon="6.89343">
        <ele>855.9</ele>
        <time>2022-11-02T14:47:59Z</time>
      </trkpt>
      <trkpt lat="47.88194" lon="6.89341">
        <ele>855.3</ele>
        <time>2022-11-02T14:48:00Z</time>
      </trkpt>
      <trkpt lat="47.88195" lon="6.89341">
        <ele>855.8</ele>
        <time>2022-11-02T14:48:01Z</time>
      </trkpt>
      <trkpt lat="47.88196" lon="6.8934">
        <ele>855.9</ele>
        <time>2022-11-02T14:48:02Z</time>
      </trkpt>
      <trkpt lat="47.88197" lon="6.89339">
        <ele>856.1</ele>
        <time>2022-11-02T14:48:03Z</time>
      </trkpt>
      <trkpt lat="47.88198" lon="6.89339">
        <ele>856.6</ele>
        <time>2022-11-02T14:48:04Z</time>
      </trkpt>
      <trkpt lat="47.88199" lon="6.89338">
        <ele>856.8</ele>
        <time>2022-11-02T14:48:05Z</time>
      </trkpt>
      <trkpt lat="47.88199" lon="6.89337">
        <ele>856.5</ele>
        <time>2022-11-02T14:48:06Z</time>
      </trkpt>
      <trkpt lat="47.882" lon="6.89337">
        <ele>857</ele>
        <time>2022-11-02T14:48:07Z</time>
      </trkpt>
      <trkpt lat="47.882" lon="6.89336">
        <ele>856.7</ele>
        <time>2022-11-02T14:48:08Z</time>
      </trkpt>
      <trkpt lat="47.88201" lon="6.89335">
        <ele>856.8</ele>
        <time>2022-11-02T14:48:09Z</time>
      </trkpt>
      <trkpt lat="47.88201" lon="6.89334">
        <ele>856.5</ele>
        <time>2022-11-02T14:48:10Z</time>
      </trkpt>
      <trkpt lat="47.88202" lon="6.89333">
        <ele>856.7</ele>
        <time>2022-11-02T14:48:11Z</time>
      </trkpt>
      <trkpt lat="47.88202" lon="6.89332">
        <ele>856.3</ele>
        <time>2022-11-02T14:48:12Z</time>
      </trkpt>
      <trkpt lat="47.88203" lon="6.89331">
        <ele>856.5</ele>
        <time>2022-11-02T14:48:13Z</time>
      </trkpt>
      <trkpt lat="47.88203" lon="6.8933">
        <ele>856.2</ele>
        <time>2022-11-02T14:48:14Z</time>
      </trkpt>
      <trkpt lat="47.88204" lon="6.89328">
        <ele>856</ele>
        <time>2022-11-02T14:48:15Z</time>
      </trkpt>
      <trkpt lat="47.88204" lon="6.89327">
        <ele>855.6</ele>
        <time>2022-11-02T14:48:16Z</time>
      </trkpt>
      <trkpt lat="47.88205" lon="6.89326">
        <ele>855.7</ele>
        <time>2022-11-02T14:48:17Z</time>
      </trkpt>
      <trkpt lat="47.88205" lon="6.89325">
        <ele>855.4</ele>
        <time>2022-11-02T14:48:18Z</time>
      </trkpt>
      <trkpt lat="47.88206" lon="6.89324">
        <ele>855.5</ele>
        <time>2022-11-02T14:48:19Z</time>
      </trkpt>
      <trkpt lat="47.88207" lon="6.89322">
        <ele>855.3</ele>
        <time>2022-11-02T14:48:20Z</time>
      </trkpt>
      <trkpt lat="47.88207" lon="6.89321">
        <ele>854.9</ele>
        <time>2022-11-02T14:48:21Z</time>
      </trkpt>
      <trkpt lat="47.88208" lon="6.8932">
        <ele>855</ele>
        <time>2022-11-02T14:48:22Z</time>
      </trkpt>
      <trkpt lat="47.88208" lon="6.89319">
        <ele>854.7</ele>
        <time>2022-11-02T14:48:23Z</time>
      </trkpt>
      <trkpt lat="47.88209" lon="6.89318">
        <ele>854.8</ele>
        <time>2022-11-02T14:48:24Z</time>
      </trkpt>
      <trkpt lat="47.88209" lon="6.89317">
        <ele>854.4</ele>
        <time>2022-11-02T14:48:25Z</time>
      </trkpt>
      <trkpt lat="47.8821" lon="6.89316">
        <ele>854.5</ele>
        <time>2022-11-02T14:48:26Z</time>
      </trkpt>
      <trkpt lat="47.88211" lon="6.89315">
        <ele>854.6</ele>
        <time>2022-11-02T14:48:28Z</time>
      </trkpt>
      <trkpt lat="47.88212" lon="6.89314">
        <ele>854.7</ele>
        <time>2022-11-02T14:48:29Z</time>
      </trkpt>
      <trkpt lat="47.88213" lon="6.89313">
        <ele>854.8</ele>
        <time>2022-11-02T14:48:31Z</time>
      </trkpt>
      <trkpt lat="47.88214" lon="6.89312">
        <ele>854.9</ele>
        <time>2022-11-02T14:48:32Z</time>
      </trkpt>
      <trkpt lat="47.88214" lon="6.89311">
        <ele>854.5</ele>
        <time>2022-11-02T14:48:33Z</time>
      </trkpt>
      <trkpt lat="47.88215" lon="6.8931">
        <ele>854.6</ele>
        <time>2022-11-02T14:48:34Z</time>
      </trkpt>
      <trkpt lat="47.88216" lon="6.89309">
        <ele>854.6</ele>
        <time>2022-11-02T14:48:35Z</time>
      </trkpt>
      <trkpt lat="47.88216" lon="6.89308">
        <ele>854.2</ele>
        <time>2022-11-02T14:48:36Z</time>
      </trkpt>
      <trkpt lat="47.88217" lon="6.89306">
        <ele>853.9</ele>
        <time>2022-11-02T14:48:42Z</time>
      </trkpt>
      <trkpt lat="47.88218" lon="6.89305">
        <ele>853.9</ele>
        <time>2022-11-02T14:48:43Z</time>
      </trkpt>
      <trkpt lat="47.88218" lon="6.89304">
        <ele>853.5</ele>
        <time>2022-11-02T14:48:44Z</time>
      </trkpt>
      <trkpt lat="47.88219" lon="6.89304">
        <ele>853.9</ele>
        <time>2022-11-02T14:48:45Z</time>
      </trkpt>
      <trkpt lat="47.88219" lon="6.89303">
        <ele>853.4</ele>
        <time>2022-11-02T14:48:46Z</time>
      </trkpt>
      <trkpt lat="47.8822" lon="6.89302">
        <ele>853.3</ele>
        <time>2022-11-02T14:48:47Z</time>
      </trkpt>
      <trkpt lat="47.88221" lon="6.89302">
        <ele>853.7</ele>
        <time>2022-11-02T14:48:48Z</time>
      </trkpt>
      <trkpt lat="47.88222" lon="6.89301">
        <ele>853.6</ele>
        <time>2022-11-02T14:48:49Z</time>
      </trkpt>
      <trkpt lat="47.88223" lon="6.89301">
        <ele>853.6</ele>
        <time>2022-11-02T14:48:50Z</time>
      </trkpt>
      <trkpt lat="47.88224" lon="6.89301">
        <ele>853.5</ele>
        <time>2022-11-02T14:48:51Z</time>
      </trkpt>
      <trkpt lat="47.88225" lon="6.893">
        <ele>852.9</ele>
        <time>2022-11-02T14:48:52Z</time>
      </trkpt>
      <trkpt lat="47.88226" lon="6.893">
        <ele>852.7</ele>
        <time>2022-11-02T14:48:53Z</time>
      </trkpt>
      <trkpt lat="47.88227" lon="6.893">
        <ele>852.6</ele>
        <time>2022-11-02T14:48:54Z</time>
      </trkpt>
      <trkpt lat="47.88228" lon="6.893">
        <ele>852.5</ele>
        <time>2022-11-02T14:48:55Z</time>
      </trkpt>
      <trkpt lat="47.88229" lon="6.893">
        <ele>852.4</ele>
        <time>2022-11-02T14:48:56Z</time>
      </trkpt>
      <trkpt lat="47.88231" lon="6.89299">
        <ele>851.7</ele>
        <time>2022-11-02T14:48:57Z</time>
      </trkpt>
      <trkpt lat="47.88232" lon="6.89299">
        <ele>851.5</ele>
        <time>2022-11-02T14:48:58Z</time>
      </trkpt>
      <trkpt lat="47.88233" lon="6.89299">
        <ele>851.4</ele>
        <time>2022-11-02T14:48:59Z</time>
      </trkpt>
      <trkpt lat="47.88234" lon="6.89298">
        <ele>850.8</ele>
        <time>2022-11-02T14:49:00Z</time>
      </trkpt>
      <trkpt lat="47.88235" lon="6.89298">
        <ele>850.7</ele>
        <time>2022-11-02T14:49:01Z</time>
      </trkpt>
      <trkpt lat="47.88236" lon="6.89297">
        <ele>850.2</ele>
        <time>2022-11-02T14:49:02Z</time>
      </trkpt>
      <trkpt lat="47.88237" lon="6.89296">
        <ele>849.6</ele>
        <time>2022-11-02T14:49:04Z</time>
      </trkpt>
      <trkpt lat="47.88238" lon="6.89296">
        <ele>849.5</ele>
        <time>2022-11-02T14:49:05Z</time>
      </trkpt>
      <trkpt lat="47.88239" lon="6.89295">
        <ele>849</ele>
        <time>2022-11-02T14:49:06Z</time>
      </trkpt>
      <trkpt lat="47.8824" lon="6.89295">
        <ele>848.8</ele>
        <time>2022-11-02T14:49:07Z</time>
      </trkpt>
      <trkpt lat="47.88241" lon="6.89294">
        <ele>848.3</ele>
        <time>2022-11-02T14:49:08Z</time>
      </trkpt>
      <trkpt lat="47.88242" lon="6.89293">
        <ele>847.8</ele>
        <time>2022-11-02T14:49:10Z</time>
      </trkpt>
      <trkpt lat="47.88243" lon="6.89293">
        <ele>847.7</ele>
        <time>2022-11-02T14:49:11Z</time>
      </trkpt>
      <trkpt lat="47.88244" lon="6.89292">
        <ele>847.2</ele>
        <time>2022-11-02T14:49:13Z</time>
      </trkpt>
      <trkpt lat="47.88245" lon="6.89292">
        <ele>847.1</ele>
        <time>2022-11-02T14:49:14Z</time>
      </trkpt>
      <trkpt lat="47.88246" lon="6.89292">
        <ele>847</ele>
        <time>2022-11-02T14:49:15Z</time>
      </trkpt>
      <trkpt lat="47.88246" lon="6.89291">
        <ele>846.6</ele>
        <time>2022-11-02T14:49:16Z</time>
      </trkpt>
      <trkpt lat="47.88247" lon="6.89291">
        <ele>846.5</ele>
        <time>2022-11-02T14:49:17Z</time>
      </trkpt>
      <trkpt lat="47.88248" lon="6.89291">
        <ele>846.4</ele>
        <time>2022-11-02T14:49:18Z</time>
      </trkpt>
      <trkpt lat="47.88249" lon="6.8929">
        <ele>845.9</ele>
        <time>2022-11-02T14:49:19Z</time>
      </trkpt>
      <trkpt lat="47.8825" lon="6.8929">
        <ele>845.8</ele>
        <time>2022-11-02T14:49:20Z</time>
      </trkpt>
      <trkpt lat="47.88251" lon="6.8929">
        <ele>845.9</ele>
        <time>2022-11-02T14:49:21Z</time>
      </trkpt>
      <trkpt lat="47.88252" lon="6.89289">
        <ele>845.6</ele>
        <time>2022-11-02T14:49:22Z</time>
      </trkpt>
      <trkpt lat="47.88253" lon="6.89288">
        <ele>845.3</ele>
        <time>2022-11-02T14:49:23Z</time>
      </trkpt>
      <trkpt lat="47.88254" lon="6.89287">
        <ele>845</ele>
        <time>2022-11-02T14:49:24Z</time>
      </trkpt>
      <trkpt lat="47.88255" lon="6.89287">
        <ele>845.1</ele>
        <time>2022-11-02T14:49:25Z</time>
      </trkpt>
      <trkpt lat="47.88256" lon="6.89286">
        <ele>844.8</ele>
        <time>2022-11-02T14:49:26Z</time>
      </trkpt>
      <trkpt lat="47.88257" lon="6.89285">
        <ele>844.6</ele>
        <time>2022-11-02T14:49:27Z</time>
      </trkpt>
      <trkpt lat="47.88259" lon="6.89284">
        <ele>844.4</ele>
        <time>2022-11-02T14:49:28Z</time>
      </trkpt>
      <trkpt lat="47.8826" lon="6.89282">
        <ele>843.7</ele>
        <time>2022-11-02T14:49:29Z</time>
      </trkpt>
      <trkpt lat="47.88262" lon="6.89281">
        <ele>843.5</ele>
        <time>2022-11-02T14:49:30Z</time>
      </trkpt>
      <trkpt lat="47.88263" lon="6.8928">
        <ele>843.2</ele>
        <time>2022-11-02T14:49:31Z</time>
      </trkpt>
      <trkpt lat="47.88264" lon="6.8928">
        <ele>843.4</ele>
        <time>2022-11-02T14:49:32Z</time>
      </trkpt>
      <trkpt lat="47.88265" lon="6.89279">
        <ele>843.1</ele>
        <time>2022-11-02T14:49:33Z</time>
      </trkpt>
      <trkpt lat="47.88267" lon="6.89279">
        <ele>843.3</ele>
        <time>2022-11-02T14:49:34Z</time>
      </trkpt>
      <trkpt lat="47.88268" lon="6.89279">
        <ele>843.4</ele>
        <time>2022-11-02T14:49:35Z</time>
      </trkpt>
      <trkpt lat="47.88269" lon="6.89278">
        <ele>843.1</ele>
        <time>2022-11-02T14:49:36Z</time>
      </trkpt>
      <trkpt lat="47.8827" lon="6.89277">
        <ele>842.9</ele>
        <time>2022-11-02T14:49:37Z</time>
      </trkpt>
      <trkpt lat="47.88271" lon="6.89277">
        <ele>843</ele>
        <time>2022-11-02T14:49:38Z</time>
      </trkpt>
      <trkpt lat="47.88272" lon="6.89276">
        <ele>842.7</ele>
        <time>2022-11-02T14:49:39Z</time>
      </trkpt>
      <trkpt lat="47.88273" lon="6.89275">
        <ele>842.4</ele>
        <time>2022-11-02T14:49:40Z</time>
      </trkpt>
      <trkpt lat="47.88274" lon="6.89274">
        <ele>842.2</ele>
        <time>2022-11-02T14:49:41Z</time>
      </trkpt>
      <trkpt lat="47.88275" lon="6.89274">
        <ele>842.2</ele>
        <time>2022-11-02T14:49:42Z</time>
      </trkpt>
      <trkpt lat="47.88275" lon="6.89273">
        <ele>841.9</ele>
        <time>2022-11-02T14:49:43Z</time>
      </trkpt>
      <trkpt lat="47.88276" lon="6.89273">
        <ele>841.9</ele>
        <time>2022-11-02T14:49:44Z</time>
      </trkpt>
      <trkpt lat="47.88277" lon="6.89272">
        <ele>841.6</ele>
        <time>2022-11-02T14:49:45Z</time>
      </trkpt>
      <trkpt lat="47.88278" lon="6.89272">
        <ele>841.7</ele>
        <time>2022-11-02T14:49:46Z</time>
      </trkpt>
      <trkpt lat="47.88279" lon="6.89272">
        <ele>841.8</ele>
        <time>2022-11-02T14:49:47Z</time>
      </trkpt>
      <trkpt lat="47.8828" lon="6.89272">
        <ele>841.9</ele>
        <time>2022-11-02T14:49:48Z</time>
      </trkpt>
      <trkpt lat="47.88281" lon="6.89272">
        <ele>842</ele>
        <time>2022-11-02T14:49:49Z</time>
      </trkpt>
      <trkpt lat="47.88282" lon="6.89272">
        <ele>842.1</ele>
        <time>2022-11-02T14:49:50Z</time>
      </trkpt>
      <trkpt lat="47.88283" lon="6.89271">
        <ele>841.8</ele>
        <time>2022-11-02T14:49:51Z</time>
      </trkpt>
      <trkpt lat="47.88284" lon="6.8927">
        <ele>841.6</ele>
        <time>2022-11-02T14:49:53Z</time>
      </trkpt>
      <trkpt lat="47.88285" lon="6.8927">
        <ele>841.7</ele>
        <time>2022-11-02T14:49:54Z</time>
      </trkpt>
      <trkpt lat="47.88286" lon="6.89269">
        <ele>841.4</ele>
        <time>2022-11-02T14:49:55Z</time>
      </trkpt>
      <trkpt lat="47.88287" lon="6.89269">
        <ele>841.5</ele>
        <time>2022-11-02T14:49:56Z</time>
      </trkpt>
      <trkpt lat="47.88288" lon="6.89268">
        <ele>841.3</ele>
        <time>2022-11-02T14:49:57Z</time>
      </trkpt>
      <trkpt lat="47.88288" lon="6.89267">
        <ele>840.9</ele>
        <time>2022-11-02T14:49:58Z</time>
      </trkpt>
      <trkpt lat="47.88289" lon="6.89267">
        <ele>841</ele>
        <time>2022-11-02T14:49:59Z</time>
      </trkpt>
      <trkpt lat="47.8829" lon="6.89267">
        <ele>841.1</ele>
        <time>2022-11-02T14:50:00Z</time>
      </trkpt>
      <trkpt lat="47.88291" lon="6.89266">
        <ele>840.9</ele>
        <time>2022-11-02T14:50:01Z</time>
      </trkpt>
      <trkpt lat="47.88292" lon="6.89266">
        <ele>841</ele>
        <time>2022-11-02T14:50:02Z</time>
      </trkpt>
      <trkpt lat="47.88293" lon="6.89266">
        <ele>841.1</ele>
        <time>2022-11-02T14:50:03Z</time>
      </trkpt>
      <trkpt lat="47.88294" lon="6.89266">
        <ele>841.2</ele>
        <time>2022-11-02T14:50:04Z</time>
      </trkpt>
      <trkpt lat="47.88295" lon="6.89265">
        <ele>841</ele>
        <time>2022-11-02T14:50:05Z</time>
      </trkpt>
      <trkpt lat="47.88296" lon="6.89265">
        <ele>841.2</ele>
        <time>2022-11-02T14:50:07Z</time>
      </trkpt>
      <trkpt lat="47.88297" lon="6.89264">
        <ele>841</ele>
        <time>2022-11-02T14:50:08Z</time>
      </trkpt>
      <trkpt lat="47.88298" lon="6.89263">
        <ele>840.8</ele>
        <time>2022-11-02T14:50:09Z</time>
      </trkpt>
      <trkpt lat="47.88299" lon="6.89263">
        <ele>840.9</ele>
        <time>2022-11-02T14:50:10Z</time>
      </trkpt>
      <trkpt lat="47.883" lon="6.89262">
        <ele>840.7</ele>
        <time>2022-11-02T14:50:11Z</time>
      </trkpt>
      <trkpt lat="47.88301" lon="6.89262">
        <ele>840.8</ele>
        <time>2022-11-02T14:50:12Z</time>
      </trkpt>
      <trkpt lat="47.88302" lon="6.89261">
        <ele>840.7</ele>
        <time>2022-11-02T14:50:13Z</time>
      </trkpt>
      <trkpt lat="47.88303" lon="6.89261">
        <ele>840.8</ele>
        <time>2022-11-02T14:50:14Z</time>
      </trkpt>
      <trkpt lat="47.88304" lon="6.8926">
        <ele>840.7</ele>
        <time>2022-11-02T14:50:15Z</time>
      </trkpt>
      <trkpt lat="47.88304" lon="6.89259">
        <ele>840.4</ele>
        <time>2022-11-02T14:50:16Z</time>
      </trkpt>
      <trkpt lat="47.88305" lon="6.89258">
        <ele>840.2</ele>
        <time>2022-11-02T14:50:17Z</time>
      </trkpt>
      <trkpt lat="47.88306" lon="6.89256">
        <ele>839.9</ele>
        <time>2022-11-02T14:50:18Z</time>
      </trkpt>
      <trkpt lat="47.88306" lon="6.89255">
        <ele>839.6</ele>
        <time>2022-11-02T14:50:19Z</time>
      </trkpt>
      <trkpt lat="47.88307" lon="6.89254">
        <ele>839.8</ele>
        <time>2022-11-02T14:50:20Z</time>
      </trkpt>
      <trkpt lat="47.88308" lon="6.89253">
        <ele>839.9</ele>
        <time>2022-11-02T14:50:21Z</time>
      </trkpt>
      <trkpt lat="47.88308" lon="6.89252">
        <ele>839.6</ele>
        <time>2022-11-02T14:50:22Z</time>
      </trkpt>
      <trkpt lat="47.88309" lon="6.89251">
        <ele>839.8</ele>
        <time>2022-11-02T14:50:23Z</time>
      </trkpt>
      <trkpt lat="47.8831" lon="6.89251">
        <ele>840.2</ele>
        <time>2022-11-02T14:50:24Z</time>
      </trkpt>
      <trkpt lat="47.88311" lon="6.8925">
        <ele>840.4</ele>
        <time>2022-11-02T14:50:25Z</time>
      </trkpt>
      <trkpt lat="47.88312" lon="6.8925">
        <ele>840.8</ele>
        <time>2022-11-02T14:50:26Z</time>
      </trkpt>
      <trkpt lat="47.88312" lon="6.89249">
        <ele>840.7</ele>
        <time>2022-11-02T14:50:27Z</time>
      </trkpt>
      <trkpt lat="47.88313" lon="6.89248">
        <ele>841</ele>
        <time>2022-11-02T14:50:28Z</time>
      </trkpt>
      <trkpt lat="47.88313" lon="6.89247">
        <ele>840.8</ele>
        <time>2022-11-02T14:50:29Z</time>
      </trkpt>
      <trkpt lat="47.88314" lon="6.89246">
        <ele>841.1</ele>
        <time>2022-11-02T14:50:30Z</time>
      </trkpt>
      <trkpt lat="47.88315" lon="6.89245">
        <ele>841.4</ele>
        <time>2022-11-02T14:50:31Z</time>
      </trkpt>
      <trkpt lat="47.88315" lon="6.89244">
        <ele>841.3</ele>
        <time>2022-11-02T14:50:32Z</time>
      </trkpt>
      <trkpt lat="47.88316" lon="6.89243">
        <ele>841.6</ele>
        <time>2022-11-02T14:50:33Z</time>
      </trkpt>
      <trkpt lat="47.88316" lon="6.89242">
        <ele>841.4</ele>
        <time>2022-11-02T14:50:34Z</time>
      </trkpt>
      <trkpt lat="47.88316" lon="6.89241">
        <ele>841.3</ele>
        <time>2022-11-02T14:50:35Z</time>
      </trkpt>
      <trkpt lat="47.88317" lon="6.89239">
        <ele>841.4</ele>
        <time>2022-11-02T14:50:36Z</time>
      </trkpt>
      <trkpt lat="47.88317" lon="6.89238">
        <ele>841.3</ele>
        <time>2022-11-02T14:50:37Z</time>
      </trkpt>
      <trkpt lat="47.88318" lon="6.89237">
        <ele>841.6</ele>
        <time>2022-11-02T14:50:38Z</time>
      </trkpt>
      <trkpt lat="47.88318" lon="6.89235">
        <ele>841.3</ele>
        <time>2022-11-02T14:50:39Z</time>
      </trkpt>
      <trkpt lat="47.88318" lon="6.89234">
        <ele>841.1</ele>
        <time>2022-11-02T14:50:40Z</time>
      </trkpt>
      <trkpt lat="47.88319" lon="6.89233">
        <ele>841.4</ele>
        <time>2022-11-02T14:50:41Z</time>
      </trkpt>
      <trkpt lat="47.88319" lon="6.89232">
        <ele>841.2</ele>
        <time>2022-11-02T14:50:42Z</time>
      </trkpt>
      <trkpt lat="47.88319" lon="6.8923">
        <ele>841</ele>
        <time>2022-11-02T14:50:43Z</time>
      </trkpt>
      <trkpt lat="47.8832" lon="6.89229">
        <ele>841.2</ele>
        <time>2022-11-02T14:50:44Z</time>
      </trkpt>
      <trkpt lat="47.8832" lon="6.89228">
        <ele>841</ele>
        <time>2022-11-02T14:50:45Z</time>
      </trkpt>
      <trkpt lat="47.8832" lon="6.89227">
        <ele>840.9</ele>
        <time>2022-11-02T14:50:46Z</time>
      </trkpt>
      <trkpt lat="47.8832" lon="6.89226">
        <ele>840.7</ele>
        <time>2022-11-02T14:50:47Z</time>
      </trkpt>
      <trkpt lat="47.88321" lon="6.89226">
        <ele>841.1</ele>
        <time>2022-11-02T14:50:48Z</time>
      </trkpt>
      <trkpt lat="47.88321" lon="6.89225">
        <ele>841</ele>
        <time>2022-11-02T14:50:49Z</time>
      </trkpt>
      <trkpt lat="47.88322" lon="6.89224">
        <ele>841.2</ele>
        <time>2022-11-02T14:50:50Z</time>
      </trkpt>
      <trkpt lat="47.88322" lon="6.89222">
        <ele>840.9</ele>
        <time>2022-11-02T14:50:51Z</time>
      </trkpt>
      <trkpt lat="47.88322" lon="6.89221">
        <ele>840.7</ele>
        <time>2022-11-02T14:50:52Z</time>
      </trkpt>
      <trkpt lat="47.88323" lon="6.8922">
        <ele>840.9</ele>
        <time>2022-11-02T14:50:53Z</time>
      </trkpt>
      <trkpt lat="47.88324" lon="6.89219">
        <ele>841</ele>
        <time>2022-11-02T14:50:54Z</time>
      </trkpt>
      <trkpt lat="47.88324" lon="6.89218">
        <ele>840.8</ele>
        <time>2022-11-02T14:50:55Z</time>
      </trkpt>
      <trkpt lat="47.88325" lon="6.89217">
        <ele>841</ele>
        <time>2022-11-02T14:50:56Z</time>
      </trkpt>
      <trkpt lat="47.88325" lon="6.89216">
        <ele>840.8</ele>
        <time>2022-11-02T14:50:57Z</time>
      </trkpt>
      <trkpt lat="47.88325" lon="6.89214">
        <ele>840.4</ele>
        <time>2022-11-02T14:50:58Z</time>
      </trkpt>
      <trkpt lat="47.88326" lon="6.89213">
        <ele>840.5</ele>
        <time>2022-11-02T14:50:59Z</time>
      </trkpt>
      <trkpt lat="47.88326" lon="6.89212">
        <ele>840.3</ele>
        <time>2022-11-02T14:51:00Z</time>
      </trkpt>
      <trkpt lat="47.88326" lon="6.89211">
        <ele>840.1</ele>
        <time>2022-11-02T14:51:01Z</time>
      </trkpt>
      <trkpt lat="47.88326" lon="6.89209">
        <ele>839.8</ele>
        <time>2022-11-02T14:51:02Z</time>
      </trkpt>
      <trkpt lat="47.88326" lon="6.89208">
        <ele>839.6</ele>
        <time>2022-11-02T14:51:03Z</time>
      </trkpt>
      <trkpt lat="47.88326" lon="6.89207">
        <ele>839.4</ele>
        <time>2022-11-02T14:51:04Z</time>
      </trkpt>
      <trkpt lat="47.88326" lon="6.89205">
        <ele>839</ele>
        <time>2022-11-02T14:51:05Z</time>
      </trkpt>
      <trkpt lat="47.88326" lon="6.89204">
        <ele>838.8</ele>
        <time>2022-11-02T14:51:06Z</time>
      </trkpt>
      <trkpt lat="47.88326" lon="6.89203">
        <ele>838.6</ele>
        <time>2022-11-02T14:51:07Z</time>
      </trkpt>
      <trkpt lat="47.88326" lon="6.89201">
        <ele>838.2</ele>
        <time>2022-11-02T14:51:08Z</time>
      </trkpt>
      <trkpt lat="47.88326" lon="6.892">
        <ele>838</ele>
        <time>2022-11-02T14:51:09Z</time>
      </trkpt>
      <trkpt lat="47.88326" lon="6.89199">
        <ele>837.8</ele>
        <time>2022-11-02T14:51:10Z</time>
      </trkpt>
      <trkpt lat="47.88327" lon="6.89197">
        <ele>837.7</ele>
        <time>2022-11-02T14:51:11Z</time>
      </trkpt>
      <trkpt lat="47.88327" lon="6.89196">
        <ele>837.5</ele>
        <time>2022-11-02T14:51:12Z</time>
      </trkpt>
      <trkpt lat="47.88328" lon="6.89194">
        <ele>837.3</ele>
        <time>2022-11-02T14:51:13Z</time>
      </trkpt>
      <trkpt lat="47.88329" lon="6.89193">
        <ele>837.2</ele>
        <time>2022-11-02T14:51:14Z</time>
      </trkpt>
      <trkpt lat="47.88329" lon="6.89192">
        <ele>836.8</ele>
        <time>2022-11-02T14:51:15Z</time>
      </trkpt>
      <trkpt lat="47.8833" lon="6.89191">
        <ele>836.7</ele>
        <time>2022-11-02T14:51:16Z</time>
      </trkpt>
      <trkpt lat="47.88331" lon="6.8919">
        <ele>836.6</ele>
        <time>2022-11-02T14:51:17Z</time>
      </trkpt>
      <trkpt lat="47.88332" lon="6.89189">
        <ele>836.5</ele>
        <time>2022-11-02T14:51:18Z</time>
      </trkpt>
      <trkpt lat="47.88333" lon="6.89188">
        <ele>836.4</ele>
        <time>2022-11-02T14:51:19Z</time>
      </trkpt>
      <trkpt lat="47.88334" lon="6.89187">
        <ele>836.1</ele>
        <time>2022-11-02T14:51:20Z</time>
      </trkpt>
      <trkpt lat="47.88335" lon="6.89186">
        <ele>835.8</ele>
        <time>2022-11-02T14:51:21Z</time>
      </trkpt>
      <trkpt lat="47.88336" lon="6.89186">
        <ele>835.9</ele>
        <time>2022-11-02T14:51:22Z</time>
      </trkpt>
      <trkpt lat="47.88337" lon="6.89184">
        <ele>835.2</ele>
        <time>2022-11-02T14:51:23Z</time>
      </trkpt>
      <trkpt lat="47.88337" lon="6.89183">
        <ele>834.8</ele>
        <time>2022-11-02T14:51:24Z</time>
      </trkpt>
      <trkpt lat="47.88338" lon="6.89182">
        <ele>834.6</ele>
        <time>2022-11-02T14:51:25Z</time>
      </trkpt>
      <trkpt lat="47.88339" lon="6.89181">
        <ele>834.3</ele>
        <time>2022-11-02T14:51:26Z</time>
      </trkpt>
      <trkpt lat="47.8834" lon="6.8918">
        <ele>834</ele>
        <time>2022-11-02T14:51:27Z</time>
      </trkpt>
      <trkpt lat="47.8834" lon="6.89179">
        <ele>833.6</ele>
        <time>2022-11-02T14:51:28Z</time>
      </trkpt>
      <trkpt lat="47.88341" lon="6.89177">
        <ele>833</ele>
        <time>2022-11-02T14:51:29Z</time>
      </trkpt>
      <trkpt lat="47.88342" lon="6.89176">
        <ele>832.7</ele>
        <time>2022-11-02T14:51:30Z</time>
      </trkpt>
      <trkpt lat="47.88342" lon="6.89175">
        <ele>832.4</ele>
        <time>2022-11-02T14:51:31Z</time>
      </trkpt>
      <trkpt lat="47.88343" lon="6.89173">
        <ele>831.7</ele>
        <time>2022-11-02T14:51:32Z</time>
      </trkpt>
      <trkpt lat="47.88344" lon="6.89173">
        <ele>831.9</ele>
        <time>2022-11-02T14:51:33Z</time>
      </trkpt>
      <trkpt lat="47.88345" lon="6.89172">
        <ele>831.6</ele>
        <time>2022-11-02T14:51:34Z</time>
      </trkpt>
      <trkpt lat="47.88346" lon="6.89171">
        <ele>831.4</ele>
        <time>2022-11-02T14:51:35Z</time>
      </trkpt>
      <trkpt lat="47.88347" lon="6.8917">
        <ele>831.2</ele>
        <time>2022-11-02T14:51:36Z</time>
      </trkpt>
      <trkpt lat="47.88348" lon="6.8917">
        <ele>831.3</ele>
        <time>2022-11-02T14:51:37Z</time>
      </trkpt>
      <trkpt lat="47.88349" lon="6.89169">
        <ele>831.1</ele>
        <time>2022-11-02T14:51:38Z</time>
      </trkpt>
      <trkpt lat="47.8835" lon="6.89169">
        <ele>831.2</ele>
        <time>2022-11-02T14:51:39Z</time>
      </trkpt>
      <trkpt lat="47.88351" lon="6.89169">
        <ele>831.4</ele>
        <time>2022-11-02T14:51:40Z</time>
      </trkpt>
      <trkpt lat="47.88352" lon="6.89168">
        <ele>831.2</ele>
        <time>2022-11-02T14:51:41Z</time>
      </trkpt>
      <trkpt lat="47.88353" lon="6.89168">
        <ele>831.3</ele>
        <time>2022-11-02T14:51:42Z</time>
      </trkpt>
      <trkpt lat="47.88354" lon="6.89167">
        <ele>831.1</ele>
        <time>2022-11-02T14:51:44Z</time>
      </trkpt>
      <trkpt lat="47.88355" lon="6.89167">
        <ele>831.2</ele>
        <time>2022-11-02T14:51:45Z</time>
      </trkpt>
      <trkpt lat="47.88356" lon="6.89166">
        <ele>831</ele>
        <time>2022-11-02T14:51:46Z</time>
      </trkpt>
      <trkpt lat="47.88357" lon="6.89165">
        <ele>830.8</ele>
        <time>2022-11-02T14:51:47Z</time>
      </trkpt>
      <trkpt lat="47.88358" lon="6.89164">
        <ele>830.7</ele>
        <time>2022-11-02T14:51:49Z</time>
      </trkpt>
      <trkpt lat="47.88359" lon="6.89164">
        <ele>830.8</ele>
        <time>2022-11-02T14:51:50Z</time>
      </trkpt>
      <trkpt lat="47.8836" lon="6.89163">
        <ele>830.6</ele>
        <time>2022-11-02T14:51:51Z</time>
      </trkpt>
      <trkpt lat="47.88361" lon="6.89162">
        <ele>830.5</ele>
        <time>2022-11-02T14:51:52Z</time>
      </trkpt>
      <trkpt lat="47.88362" lon="6.89161">
        <ele>830.4</ele>
        <time>2022-11-02T14:51:53Z</time>
      </trkpt>
      <trkpt lat="47.88363" lon="6.8916">
        <ele>830.3</ele>
        <time>2022-11-02T14:51:55Z</time>
      </trkpt>
      <trkpt lat="47.88364" lon="6.89159">
        <ele>830.2</ele>
        <time>2022-11-02T14:51:56Z</time>
      </trkpt>
      <trkpt lat="47.88365" lon="6.89158">
        <ele>830.2</ele>
        <time>2022-11-02T14:51:57Z</time>
      </trkpt>
      <trkpt lat="47.88366" lon="6.89157">
        <ele>830.1</ele>
        <time>2022-11-02T14:51:58Z</time>
      </trkpt>
      <trkpt lat="47.88367" lon="6.89156">
        <ele>830.1</ele>
        <time>2022-11-02T14:51:59Z</time>
      </trkpt>
      <trkpt lat="47.88368" lon="6.89155">
        <ele>830</ele>
        <time>2022-11-02T14:52:00Z</time>
      </trkpt>
      <trkpt lat="47.88368" lon="6.89154">
        <ele>829.7</ele>
        <time>2022-11-02T14:52:01Z</time>
      </trkpt>
      <trkpt lat="47.88369" lon="6.89153">
        <ele>829.7</ele>
        <time>2022-11-02T14:52:02Z</time>
      </trkpt>
      <trkpt lat="47.8837" lon="6.89151">
        <ele>829.4</ele>
        <time>2022-11-02T14:52:03Z</time>
      </trkpt>
      <trkpt lat="47.88371" lon="6.8915">
        <ele>829.4</ele>
        <time>2022-11-02T14:52:04Z</time>
      </trkpt>
      <trkpt lat="47.88371" lon="6.89149">
        <ele>829.1</ele>
        <time>2022-11-02T14:52:05Z</time>
      </trkpt>
      <trkpt lat="47.88372" lon="6.89148">
        <ele>829.1</ele>
        <time>2022-11-02T14:52:06Z</time>
      </trkpt>
      <trkpt lat="47.88373" lon="6.89147">
        <ele>829.1</ele>
        <time>2022-11-02T14:52:07Z</time>
      </trkpt>
      <trkpt lat="47.88373" lon="6.89146">
        <ele>828.8</ele>
        <time>2022-11-02T14:52:08Z</time>
      </trkpt>
      <trkpt lat="47.88374" lon="6.89144">
        <ele>828.6</ele>
        <time>2022-11-02T14:52:09Z</time>
      </trkpt>
      <trkpt lat="47.88374" lon="6.89143">
        <ele>828.3</ele>
        <time>2022-11-02T14:52:10Z</time>
      </trkpt>
      <trkpt lat="47.88375" lon="6.89142">
        <ele>828.3</ele>
        <time>2022-11-02T14:52:11Z</time>
      </trkpt>
      <trkpt lat="47.88376" lon="6.89141">
        <ele>828.4</ele>
        <time>2022-11-02T14:52:12Z</time>
      </trkpt>
      <trkpt lat="47.88376" lon="6.8914">
        <ele>828.1</ele>
        <time>2022-11-02T14:52:13Z</time>
      </trkpt>
      <trkpt lat="47.88377" lon="6.89138">
        <ele>828</ele>
        <time>2022-11-02T14:52:14Z</time>
      </trkpt>
      <trkpt lat="47.88378" lon="6.89137">
        <ele>828.1</ele>
        <time>2022-11-02T14:52:15Z</time>
      </trkpt>
      <trkpt lat="47.88379" lon="6.89136">
        <ele>828.2</ele>
        <time>2022-11-02T14:52:16Z</time>
      </trkpt>
      <trkpt lat="47.88379" lon="6.89135">
        <ele>828</ele>
        <time>2022-11-02T14:52:17Z</time>
      </trkpt>
      <trkpt lat="47.8838" lon="6.89134">
        <ele>828.1</ele>
        <time>2022-11-02T14:52:18Z</time>
      </trkpt>
      <trkpt lat="47.88381" lon="6.89133">
        <ele>828.1</ele>
        <time>2022-11-02T14:52:19Z</time>
      </trkpt>
      <trkpt lat="47.88382" lon="6.89132">
        <ele>828.2</ele>
        <time>2022-11-02T14:52:20Z</time>
      </trkpt>
      <trkpt lat="47.88383" lon="6.89131">
        <ele>828.3</ele>
        <time>2022-11-02T14:52:21Z</time>
      </trkpt>
      <trkpt lat="47.88384" lon="6.89129">
        <ele>828.1</ele>
        <time>2022-11-02T14:52:22Z</time>
      </trkpt>
      <trkpt lat="47.88385" lon="6.89128">
        <ele>828.2</ele>
        <time>2022-11-02T14:52:23Z</time>
      </trkpt>
      <trkpt lat="47.88386" lon="6.89126">
        <ele>828</ele>
        <time>2022-11-02T14:52:24Z</time>
      </trkpt>
      <trkpt lat="47.88386" lon="6.89124">
        <ele>827.5</ele>
        <time>2022-11-02T14:52:25Z</time>
      </trkpt>
      <trkpt lat="47.88387" lon="6.89122">
        <ele>827.3</ele>
        <time>2022-11-02T14:52:26Z</time>
      </trkpt>
      <trkpt lat="47.88387" lon="6.8912">
        <ele>826.8</ele>
        <time>2022-11-02T14:52:27Z</time>
      </trkpt>
      <trkpt lat="47.88388" lon="6.89118">
        <ele>826.5</ele>
        <time>2022-11-02T14:52:28Z</time>
      </trkpt>
      <trkpt lat="47.88388" lon="6.89117">
        <ele>826.3</ele>
        <time>2022-11-02T14:52:29Z</time>
      </trkpt>
      <trkpt lat="47.88389" lon="6.89116">
        <ele>826.3</ele>
        <time>2022-11-02T14:52:30Z</time>
      </trkpt>
      <trkpt lat="47.88389" lon="6.89114">
        <ele>825.8</ele>
        <time>2022-11-02T14:52:31Z</time>
      </trkpt>
      <trkpt lat="47.8839" lon="6.89113">
        <ele>825.8</ele>
        <time>2022-11-02T14:52:32Z</time>
      </trkpt>
      <trkpt lat="47.8839" lon="6.89112">
        <ele>825.6</ele>
        <time>2022-11-02T14:52:33Z</time>
      </trkpt>
      <trkpt lat="47.88391" lon="6.89111">
        <ele>825.7</ele>
        <time>2022-11-02T14:52:34Z</time>
      </trkpt>
      <trkpt lat="47.88392" lon="6.8911">
        <ele>825.8</ele>
        <time>2022-11-02T14:52:35Z</time>
      </trkpt>
      <trkpt lat="47.88392" lon="6.89109">
        <ele>825.6</ele>
        <time>2022-11-02T14:52:36Z</time>
      </trkpt>
      <trkpt lat="47.88393" lon="6.89108">
        <ele>825.8</ele>
        <time>2022-11-02T14:52:37Z</time>
      </trkpt>
      <trkpt lat="47.88394" lon="6.89106">
        <ele>825.7</ele>
        <time>2022-11-02T14:52:39Z</time>
      </trkpt>
      <trkpt lat="47.88394" lon="6.89105">
        <ele>825.5</ele>
        <time>2022-11-02T14:52:40Z</time>
      </trkpt>
      <trkpt lat="47.88395" lon="6.89104">
        <ele>825.6</ele>
        <time>2022-11-02T14:52:41Z</time>
      </trkpt>
      <trkpt lat="47.88395" lon="6.89103">
        <ele>825.5</ele>
        <time>2022-11-02T14:52:42Z</time>
      </trkpt>
      <trkpt lat="47.88395" lon="6.89102">
        <ele>825.3</ele>
        <time>2022-11-02T14:52:43Z</time>
      </trkpt>
      <trkpt lat="47.88396" lon="6.89101">
        <ele>825.4</ele>
        <time>2022-11-02T14:52:44Z</time>
      </trkpt>
      <trkpt lat="47.88397" lon="6.89099">
        <ele>825.3</ele>
        <time>2022-11-02T14:52:45Z</time>
      </trkpt>
      <trkpt lat="47.88398" lon="6.89098">
        <ele>825.4</ele>
        <time>2022-11-02T14:52:46Z</time>
      </trkpt>
      <trkpt lat="47.88398" lon="6.89097">
        <ele>825.2</ele>
        <time>2022-11-02T14:52:47Z</time>
      </trkpt>
      <trkpt lat="47.88399" lon="6.89096">
        <ele>825.4</ele>
        <time>2022-11-02T14:52:48Z</time>
      </trkpt>
      <trkpt lat="47.88399" lon="6.89095">
        <ele>825.2</ele>
        <time>2022-11-02T14:52:49Z</time>
      </trkpt>
      <trkpt lat="47.884" lon="6.89095">
        <ele>825.5</ele>
        <time>2022-11-02T14:52:50Z</time>
      </trkpt>
      <trkpt lat="47.884" lon="6.89094">
        <ele>825.3</ele>
        <time>2022-11-02T14:52:51Z</time>
      </trkpt>
      <trkpt lat="47.88401" lon="6.89093">
        <ele>825.4</ele>
        <time>2022-11-02T14:52:52Z</time>
      </trkpt>
      <trkpt lat="47.88401" lon="6.89092">
        <ele>825.2</ele>
        <time>2022-11-02T14:52:53Z</time>
      </trkpt>
      <trkpt lat="47.88402" lon="6.89091">
        <ele>825.3</ele>
        <time>2022-11-02T14:52:54Z</time>
      </trkpt>
      <trkpt lat="47.88402" lon="6.8909">
        <ele>825.1</ele>
        <time>2022-11-02T14:52:55Z</time>
      </trkpt>
      <trkpt lat="47.88403" lon="6.89088">
        <ele>825</ele>
        <time>2022-11-02T14:52:56Z</time>
      </trkpt>
      <trkpt lat="47.88403" lon="6.89087">
        <ele>824.8</ele>
        <time>2022-11-02T14:52:57Z</time>
      </trkpt>
      <trkpt lat="47.88404" lon="6.89086">
        <ele>824.9</ele>
        <time>2022-11-02T14:52:58Z</time>
      </trkpt>
      <trkpt lat="47.88405" lon="6.89085">
        <ele>825</ele>
        <time>2022-11-02T14:52:59Z</time>
      </trkpt>
      <trkpt lat="47.88405" lon="6.89084">
        <ele>824.8</ele>
        <time>2022-11-02T14:53:00Z</time>
      </trkpt>
      <trkpt lat="47.88406" lon="6.89083">
        <ele>824.9</ele>
        <time>2022-11-02T14:53:01Z</time>
      </trkpt>
      <trkpt lat="47.88407" lon="6.89082">
        <ele>825</ele>
        <time>2022-11-02T14:53:02Z</time>
      </trkpt>
      <trkpt lat="47.88407" lon="6.89081">
        <ele>824.8</ele>
        <time>2022-11-02T14:53:03Z</time>
      </trkpt>
      <trkpt lat="47.88408" lon="6.8908">
        <ele>824.9</ele>
        <time>2022-11-02T14:53:04Z</time>
      </trkpt>
      <trkpt lat="47.88409" lon="6.89079">
        <ele>825</ele>
        <time>2022-11-02T14:53:05Z</time>
      </trkpt>
      <trkpt lat="47.8841" lon="6.89078">
        <ele>825.1</ele>
        <time>2022-11-02T14:53:07Z</time>
      </trkpt>
      <trkpt lat="47.8841" lon="6.89077">
        <ele>824.9</ele>
        <time>2022-11-02T14:53:08Z</time>
      </trkpt>
      <trkpt lat="47.88411" lon="6.89076">
        <ele>825</ele>
        <time>2022-11-02T14:53:09Z</time>
      </trkpt>
      <trkpt lat="47.88411" lon="6.89074">
        <ele>824.7</ele>
        <time>2022-11-02T14:53:10Z</time>
      </trkpt>
      <trkpt lat="47.88412" lon="6.89073">
        <ele>824.8</ele>
        <time>2022-11-02T14:53:11Z</time>
      </trkpt>
      <trkpt lat="47.88412" lon="6.89072">
        <ele>824.6</ele>
        <time>2022-11-02T14:53:12Z</time>
      </trkpt>
      <trkpt lat="47.88413" lon="6.89071">
        <ele>824.7</ele>
        <time>2022-11-02T14:53:13Z</time>
      </trkpt>
      <trkpt lat="47.88413" lon="6.89069">
        <ele>824.4</ele>
        <time>2022-11-02T14:53:14Z</time>
      </trkpt>
      <trkpt lat="47.88413" lon="6.89067">
        <ele>824</ele>
        <time>2022-11-02T14:53:15Z</time>
      </trkpt>
      <trkpt lat="47.88413" lon="6.89066">
        <ele>823.8</ele>
        <time>2022-11-02T14:53:16Z</time>
      </trkpt>
      <trkpt lat="47.88413" lon="6.89064">
        <ele>823.5</ele>
        <time>2022-11-02T14:53:17Z</time>
      </trkpt>
      <trkpt lat="47.88413" lon="6.89062">
        <ele>823.1</ele>
        <time>2022-11-02T14:53:18Z</time>
      </trkpt>
      <trkpt lat="47.88414" lon="6.8906">
        <ele>823</ele>
        <time>2022-11-02T14:53:19Z</time>
      </trkpt>
      <trkpt lat="47.88414" lon="6.89058">
        <ele>822.7</ele>
        <time>2022-11-02T14:53:20Z</time>
      </trkpt>
      <trkpt lat="47.88414" lon="6.89056">
        <ele>822.3</ele>
        <time>2022-11-02T14:53:21Z</time>
      </trkpt>
      <trkpt lat="47.88415" lon="6.89054">
        <ele>822.2</ele>
        <time>2022-11-02T14:53:22Z</time>
      </trkpt>
      <trkpt lat="47.88415" lon="6.89053">
        <ele>822.1</ele>
        <time>2022-11-02T14:53:23Z</time>
      </trkpt>
      <trkpt lat="47.88415" lon="6.89051">
        <ele>821.7</ele>
        <time>2022-11-02T14:53:24Z</time>
      </trkpt>
      <trkpt lat="47.88416" lon="6.8905">
        <ele>821.8</ele>
        <time>2022-11-02T14:53:25Z</time>
      </trkpt>
      <trkpt lat="47.88416" lon="6.89049">
        <ele>821.6</ele>
        <time>2022-11-02T14:53:26Z</time>
      </trkpt>
      <trkpt lat="47.88416" lon="6.89048">
        <ele>821.4</ele>
        <time>2022-11-02T14:53:27Z</time>
      </trkpt>
      <trkpt lat="47.88417" lon="6.89046">
        <ele>821.4</ele>
        <time>2022-11-02T14:53:28Z</time>
      </trkpt>
      <trkpt lat="47.88417" lon="6.89045">
        <ele>821.2</ele>
        <time>2022-11-02T14:53:29Z</time>
      </trkpt>
      <trkpt lat="47.88417" lon="6.89044">
        <ele>821.1</ele>
        <time>2022-11-02T14:53:30Z</time>
      </trkpt>
      <trkpt lat="47.88417" lon="6.89043">
        <ele>820.9</ele>
        <time>2022-11-02T14:53:31Z</time>
      </trkpt>
      <trkpt lat="47.88417" lon="6.89042">
        <ele>820.7</ele>
        <time>2022-11-02T14:53:32Z</time>
      </trkpt>
      <trkpt lat="47.88418" lon="6.89041">
        <ele>820.9</ele>
        <time>2022-11-02T14:53:33Z</time>
      </trkpt>
      <trkpt lat="47.88418" lon="6.8904">
        <ele>820.7</ele>
        <time>2022-11-02T14:53:34Z</time>
      </trkpt>
      <trkpt lat="47.88419" lon="6.89039">
        <ele>821</ele>
        <time>2022-11-02T14:53:35Z</time>
      </trkpt>
      <trkpt lat="47.8842" lon="6.89038">
        <ele>821.2</ele>
        <time>2022-11-02T14:53:36Z</time>
      </trkpt>
      <trkpt lat="47.8842" lon="6.89037">
        <ele>821</ele>
        <time>2022-11-02T14:53:37Z</time>
      </trkpt>
      <trkpt lat="47.8842" lon="6.89036">
        <ele>820.8</ele>
        <time>2022-11-02T14:53:38Z</time>
      </trkpt>
      <trkpt lat="47.88421" lon="6.89035">
        <ele>821.1</ele>
        <time>2022-11-02T14:53:39Z</time>
      </trkpt>
      <trkpt lat="47.88422" lon="6.89034">
        <ele>821.3</ele>
        <time>2022-11-02T14:53:40Z</time>
      </trkpt>
      <trkpt lat="47.88422" lon="6.89033">
        <ele>821.1</ele>
        <time>2022-11-02T14:53:41Z</time>
      </trkpt>
      <trkpt lat="47.88423" lon="6.89032">
        <ele>821.3</ele>
        <time>2022-11-02T14:53:42Z</time>
      </trkpt>
      <trkpt lat="47.88423" lon="6.89031">
        <ele>821.1</ele>
        <time>2022-11-02T14:53:43Z</time>
      </trkpt>
      <trkpt lat="47.88424" lon="6.89029">
        <ele>821.1</ele>
        <time>2022-11-02T14:53:44Z</time>
      </trkpt>
      <trkpt lat="47.88425" lon="6.89028">
        <ele>821.3</ele>
        <time>2022-11-02T14:53:45Z</time>
      </trkpt>
      <trkpt lat="47.88425" lon="6.89027">
        <ele>821.1</ele>
        <time>2022-11-02T14:53:46Z</time>
      </trkpt>
      <trkpt lat="47.88426" lon="6.89025">
        <ele>821.1</ele>
        <time>2022-11-02T14:53:47Z</time>
      </trkpt>
      <trkpt lat="47.88426" lon="6.89024">
        <ele>820.9</ele>
        <time>2022-11-02T14:53:48Z</time>
      </trkpt>
      <trkpt lat="47.88427" lon="6.89022">
        <ele>820.8</ele>
        <time>2022-11-02T14:53:49Z</time>
      </trkpt>
      <trkpt lat="47.88428" lon="6.89021">
        <ele>821</ele>
        <time>2022-11-02T14:53:50Z</time>
      </trkpt>
      <trkpt lat="47.88428" lon="6.89019">
        <ele>820.6</ele>
        <time>2022-11-02T14:53:51Z</time>
      </trkpt>
      <trkpt lat="47.88428" lon="6.89017">
        <ele>820.2</ele>
        <time>2022-11-02T14:53:52Z</time>
      </trkpt>
      <trkpt lat="47.88429" lon="6.89016">
        <ele>820.3</ele>
        <time>2022-11-02T14:53:53Z</time>
      </trkpt>
      <trkpt lat="47.88429" lon="6.89014">
        <ele>819.9</ele>
        <time>2022-11-02T14:53:54Z</time>
      </trkpt>
      <trkpt lat="47.88429" lon="6.89012">
        <ele>819.5</ele>
        <time>2022-11-02T14:53:55Z</time>
      </trkpt>
      <trkpt lat="47.88429" lon="6.89011">
        <ele>819.3</ele>
        <time>2022-11-02T14:53:56Z</time>
      </trkpt>
      <trkpt lat="47.88429" lon="6.89009">
        <ele>818.8</ele>
        <time>2022-11-02T14:53:57Z</time>
      </trkpt>
      <trkpt lat="47.88429" lon="6.89007">
        <ele>818.4</ele>
        <time>2022-11-02T14:53:58Z</time>
      </trkpt>
      <trkpt lat="47.88429" lon="6.89005">
        <ele>818</ele>
        <time>2022-11-02T14:53:59Z</time>
      </trkpt>
      <trkpt lat="47.8843" lon="6.89003">
        <ele>817.9</ele>
        <time>2022-11-02T14:54:00Z</time>
      </trkpt>
      <trkpt lat="47.8843" lon="6.89002">
        <ele>817.7</ele>
        <time>2022-11-02T14:54:01Z</time>
      </trkpt>
      <trkpt lat="47.8843" lon="6.89">
        <ele>817.3</ele>
        <time>2022-11-02T14:54:02Z</time>
      </trkpt>
      <trkpt lat="47.88431" lon="6.88998">
        <ele>817.5</ele>
        <time>2022-11-02T14:54:03Z</time>
      </trkpt>
      <trkpt lat="47.88432" lon="6.88997">
        <ele>817.7</ele>
        <time>2022-11-02T14:54:04Z</time>
      </trkpt>
      <trkpt lat="47.88432" lon="6.88995">
        <ele>817.5</ele>
        <time>2022-11-02T14:54:05Z</time>
      </trkpt>
      <trkpt lat="47.88433" lon="6.88994">
        <ele>817.8</ele>
        <time>2022-11-02T14:54:06Z</time>
      </trkpt>
      <trkpt lat="47.88434" lon="6.88993">
        <ele>818</ele>
        <time>2022-11-02T14:54:07Z</time>
      </trkpt>
      <trkpt lat="47.88434" lon="6.88991">
        <ele>817.8</ele>
        <time>2022-11-02T14:54:08Z</time>
      </trkpt>
      <trkpt lat="47.88435" lon="6.8899">
        <ele>818.1</ele>
        <time>2022-11-02T14:54:09Z</time>
      </trkpt>
      <trkpt lat="47.88436" lon="6.88989">
        <ele>818.3</ele>
        <time>2022-11-02T14:54:10Z</time>
      </trkpt>
      <trkpt lat="47.88436" lon="6.88988">
        <ele>818.2</ele>
        <time>2022-11-02T14:54:11Z</time>
      </trkpt>
      <trkpt lat="47.88436" lon="6.88986">
        <ele>817.9</ele>
        <time>2022-11-02T14:54:12Z</time>
      </trkpt>
      <trkpt lat="47.88437" lon="6.88985">
        <ele>818.2</ele>
        <time>2022-11-02T14:54:13Z</time>
      </trkpt>
      <trkpt lat="47.88437" lon="6.88984">
        <ele>818.1</ele>
        <time>2022-11-02T14:54:14Z</time>
      </trkpt>
      <trkpt lat="47.88438" lon="6.88982">
        <ele>818.2</ele>
        <time>2022-11-02T14:54:15Z</time>
      </trkpt>
      <trkpt lat="47.88438" lon="6.88981">
        <ele>818</ele>
        <time>2022-11-02T14:54:16Z</time>
      </trkpt>
      <trkpt lat="47.88439" lon="6.88979">
        <ele>818.1</ele>
        <time>2022-11-02T14:54:17Z</time>
      </trkpt>
      <trkpt lat="47.88439" lon="6.88978">
        <ele>818</ele>
        <time>2022-11-02T14:54:18Z</time>
      </trkpt>
      <trkpt lat="47.8844" lon="6.88976">
        <ele>818.1</ele>
        <time>2022-11-02T14:54:19Z</time>
      </trkpt>
      <trkpt lat="47.88441" lon="6.88974">
        <ele>818.1</ele>
        <time>2022-11-02T14:54:20Z</time>
      </trkpt>
      <trkpt lat="47.88441" lon="6.88973">
        <ele>818</ele>
        <time>2022-11-02T14:54:21Z</time>
      </trkpt>
      <trkpt lat="47.88442" lon="6.88971">
        <ele>818.1</ele>
        <time>2022-11-02T14:54:22Z</time>
      </trkpt>
      <trkpt lat="47.88442" lon="6.8897">
        <ele>818</ele>
        <time>2022-11-02T14:54:24Z</time>
      </trkpt>
      <trkpt lat="47.88442" lon="6.88969">
        <ele>817.8</ele>
        <time>2022-11-02T14:54:25Z</time>
      </trkpt>
      <trkpt lat="47.88443" lon="6.88968">
        <ele>818.1</ele>
        <time>2022-11-02T14:54:26Z</time>
      </trkpt>
      <trkpt lat="47.88442" lon="6.88967">
        <ele>817.6</ele>
        <time>2022-11-02T14:54:27Z</time>
      </trkpt>
      <trkpt lat="47.88442" lon="6.88966">
        <ele>817.5</ele>
        <time>2022-11-02T14:54:28Z</time>
      </trkpt>
      <trkpt lat="47.88442" lon="6.88965">
        <ele>817.4</ele>
        <time>2022-11-02T14:54:29Z</time>
      </trkpt>
      <trkpt lat="47.88442" lon="6.88963">
        <ele>817.2</ele>
        <time>2022-11-02T14:54:30Z</time>
      </trkpt>
      <trkpt lat="47.88442" lon="6.88962">
        <ele>817.1</ele>
        <time>2022-11-02T14:54:31Z</time>
      </trkpt>
      <trkpt lat="47.88441" lon="6.8896">
        <ele>816.5</ele>
        <time>2022-11-02T14:54:32Z</time>
      </trkpt>
      <trkpt lat="47.88441" lon="6.88959">
        <ele>816.4</ele>
        <time>2022-11-02T14:54:33Z</time>
      </trkpt>
      <trkpt lat="47.88442" lon="6.88958">
        <ele>816.6</ele>
        <time>2022-11-02T14:54:34Z</time>
      </trkpt>
      <trkpt lat="47.88442" lon="6.88956">
        <ele>816.4</ele>
        <time>2022-11-02T14:54:35Z</time>
      </trkpt>
      <trkpt lat="47.88442" lon="6.88955">
        <ele>816.3</ele>
        <time>2022-11-02T14:54:36Z</time>
      </trkpt>
      <trkpt lat="47.88442" lon="6.88954">
        <ele>816.2</ele>
        <time>2022-11-02T14:54:37Z</time>
      </trkpt>
      <trkpt lat="47.88443" lon="6.88954">
        <ele>816.5</ele>
        <time>2022-11-02T14:54:38Z</time>
      </trkpt>
      <trkpt lat="47.88443" lon="6.88953">
        <ele>816.4</ele>
        <time>2022-11-02T14:54:39Z</time>
      </trkpt>
      <trkpt lat="47.88443" lon="6.88952">
        <ele>816.3</ele>
        <time>2022-11-02T14:54:40Z</time>
      </trkpt>
      <trkpt lat="47.88443" lon="6.88951">
        <ele>816.2</ele>
        <time>2022-11-02T14:54:41Z</time>
      </trkpt>
      <trkpt lat="47.88443" lon="6.88949">
        <ele>816</ele>
        <time>2022-11-02T14:54:42Z</time>
      </trkpt>
      <trkpt lat="47.88443" lon="6.88948">
        <ele>815.9</ele>
        <time>2022-11-02T14:54:43Z</time>
      </trkpt>
      <trkpt lat="47.88443" lon="6.88946">
        <ele>815.7</ele>
        <time>2022-11-02T14:54:44Z</time>
      </trkpt>
      <trkpt lat="47.88443" lon="6.88945">
        <ele>815.5</ele>
        <time>2022-11-02T14:54:45Z</time>
      </trkpt>
      <trkpt lat="47.88443" lon="6.88943">
        <ele>815.2</ele>
        <time>2022-11-02T14:54:46Z</time>
      </trkpt>
      <trkpt lat="47.88443" lon="6.88942">
        <ele>815</ele>
        <time>2022-11-02T14:54:47Z</time>
      </trkpt>
      <trkpt lat="47.88444" lon="6.8894">
        <ele>815</ele>
        <time>2022-11-02T14:54:48Z</time>
      </trkpt>
      <trkpt lat="47.88444" lon="6.88939">
        <ele>814.9</ele>
        <time>2022-11-02T14:54:49Z</time>
      </trkpt>
      <trkpt lat="47.88445" lon="6.88937">
        <ele>814.8</ele>
        <time>2022-11-02T14:54:50Z</time>
      </trkpt>
      <trkpt lat="47.88445" lon="6.88935">
        <ele>814.5</ele>
        <time>2022-11-02T14:54:51Z</time>
      </trkpt>
      <trkpt lat="47.88446" lon="6.88934">
        <ele>814.5</ele>
        <time>2022-11-02T14:54:52Z</time>
      </trkpt>
      <trkpt lat="47.88446" lon="6.88932">
        <ele>814.2</ele>
        <time>2022-11-02T14:54:53Z</time>
      </trkpt>
      <trkpt lat="47.88447" lon="6.8893">
        <ele>814.1</ele>
        <time>2022-11-02T14:54:54Z</time>
      </trkpt>
      <trkpt lat="47.88447" lon="6.88928">
        <ele>813.7</ele>
        <time>2022-11-02T14:54:55Z</time>
      </trkpt>
      <trkpt lat="47.88448" lon="6.88927">
        <ele>813.8</ele>
        <time>2022-11-02T14:54:56Z</time>
      </trkpt>
      <trkpt lat="47.88448" lon="6.88925">
        <ele>813.4</ele>
        <time>2022-11-02T14:54:57Z</time>
      </trkpt>
      <trkpt lat="47.88449" lon="6.88924">
        <ele>813.5</ele>
        <time>2022-11-02T14:54:58Z</time>
      </trkpt>
      <trkpt lat="47.88449" lon="6.88923">
        <ele>813.3</ele>
        <time>2022-11-02T14:54:59Z</time>
      </trkpt>
      <trkpt lat="47.8845" lon="6.88921">
        <ele>813.2</ele>
        <time>2022-11-02T14:55:00Z</time>
      </trkpt>
      <trkpt lat="47.8845" lon="6.8892">
        <ele>813</ele>
        <time>2022-11-02T14:55:01Z</time>
      </trkpt>
      <trkpt lat="47.88451" lon="6.88919">
        <ele>813.1</ele>
        <time>2022-11-02T14:55:02Z</time>
      </trkpt>
      <trkpt lat="47.88451" lon="6.88918">
        <ele>812.9</ele>
        <time>2022-11-02T14:55:03Z</time>
      </trkpt>
      <trkpt lat="47.88452" lon="6.88917">
        <ele>813</ele>
        <time>2022-11-02T14:55:04Z</time>
      </trkpt>
      <trkpt lat="47.88452" lon="6.88915">
        <ele>812.5</ele>
        <time>2022-11-02T14:55:05Z</time>
      </trkpt>
      <trkpt lat="47.88452" lon="6.88914">
        <ele>812.3</ele>
        <time>2022-11-02T14:55:06Z</time>
      </trkpt>
      <trkpt lat="47.88453" lon="6.88913">
        <ele>812.4</ele>
        <time>2022-11-02T14:55:07Z</time>
      </trkpt>
      <trkpt lat="47.88453" lon="6.88912">
        <ele>812.1</ele>
        <time>2022-11-02T14:55:08Z</time>
      </trkpt>
      <trkpt lat="47.88453" lon="6.88911">
        <ele>811.9</ele>
        <time>2022-11-02T14:55:09Z</time>
      </trkpt>
      <trkpt lat="47.88453" lon="6.8891">
        <ele>811.7</ele>
        <time>2022-11-02T14:55:10Z</time>
      </trkpt>
      <trkpt lat="47.88454" lon="6.88908">
        <ele>811.5</ele>
        <time>2022-11-02T14:55:11Z</time>
      </trkpt>
      <trkpt lat="47.88454" lon="6.88907">
        <ele>811.3</ele>
        <time>2022-11-02T14:55:12Z</time>
      </trkpt>
      <trkpt lat="47.88455" lon="6.88906">
        <ele>811.4</ele>
        <time>2022-11-02T14:55:13Z</time>
      </trkpt>
      <trkpt lat="47.88455" lon="6.88904">
        <ele>810.9</ele>
        <time>2022-11-02T14:55:14Z</time>
      </trkpt>
      <trkpt lat="47.88456" lon="6.88903">
        <ele>811</ele>
        <time>2022-11-02T14:55:15Z</time>
      </trkpt>
      <trkpt lat="47.88456" lon="6.88902">
        <ele>810.7</ele>
        <time>2022-11-02T14:55:16Z</time>
      </trkpt>
      <trkpt lat="47.88457" lon="6.88901">
        <ele>810.8</ele>
        <time>2022-11-02T14:55:17Z</time>
      </trkpt>
      <trkpt lat="47.88458" lon="6.889">
        <ele>810.8</ele>
        <time>2022-11-02T14:55:18Z</time>
      </trkpt>
      <trkpt lat="47.88459" lon="6.88899">
        <ele>810.9</ele>
        <time>2022-11-02T14:55:19Z</time>
      </trkpt>
      <trkpt lat="47.8846" lon="6.88897">
        <ele>810.7</ele>
        <time>2022-11-02T14:55:20Z</time>
      </trkpt>
      <trkpt lat="47.88461" lon="6.88896">
        <ele>810.7</ele>
        <time>2022-11-02T14:55:21Z</time>
      </trkpt>
      <trkpt lat="47.88462" lon="6.88894">
        <ele>810.5</ele>
        <time>2022-11-02T14:55:22Z</time>
      </trkpt>
      <trkpt lat="47.88463" lon="6.88892">
        <ele>810.3</ele>
        <time>2022-11-02T14:55:23Z</time>
      </trkpt>
      <trkpt lat="47.88463" lon="6.8889">
        <ele>809.9</ele>
        <time>2022-11-02T14:55:24Z</time>
      </trkpt>
      <trkpt lat="47.88464" lon="6.88888">
        <ele>809.8</ele>
        <time>2022-11-02T14:55:25Z</time>
      </trkpt>
      <trkpt lat="47.88464" lon="6.88886">
        <ele>809.4</ele>
        <time>2022-11-02T14:55:26Z</time>
      </trkpt>
      <trkpt lat="47.88464" lon="6.88884">
        <ele>809</ele>
        <time>2022-11-02T14:55:27Z</time>
      </trkpt>
      <trkpt lat="47.88465" lon="6.88883">
        <ele>809.1</ele>
        <time>2022-11-02T14:55:28Z</time>
      </trkpt>
      <trkpt lat="47.88465" lon="6.88882">
        <ele>808.9</ele>
        <time>2022-11-02T14:55:29Z</time>
      </trkpt>
      <trkpt lat="47.88466" lon="6.88881">
        <ele>808.9</ele>
        <time>2022-11-02T14:55:30Z</time>
      </trkpt>
      <trkpt lat="47.88466" lon="6.8888">
        <ele>808.8</ele>
        <time>2022-11-02T14:55:31Z</time>
      </trkpt>
      <trkpt lat="47.88467" lon="6.88878">
        <ele>808.7</ele>
        <time>2022-11-02T14:55:32Z</time>
      </trkpt>
      <trkpt lat="47.88468" lon="6.88877">
        <ele>808.7</ele>
        <time>2022-11-02T14:55:33Z</time>
      </trkpt>
      <trkpt lat="47.88468" lon="6.88876">
        <ele>808.5</ele>
        <time>2022-11-02T14:55:34Z</time>
      </trkpt>
      <trkpt lat="47.88469" lon="6.88875">
        <ele>808.6</ele>
        <time>2022-11-02T14:55:35Z</time>
      </trkpt>
      <trkpt lat="47.88469" lon="6.88874">
        <ele>808.4</ele>
        <time>2022-11-02T14:55:36Z</time>
      </trkpt>
      <trkpt lat="47.8847" lon="6.88873">
        <ele>808.5</ele>
        <time>2022-11-02T14:55:37Z</time>
      </trkpt>
      <trkpt lat="47.88471" lon="6.88872">
        <ele>808.6</ele>
        <time>2022-11-02T14:55:38Z</time>
      </trkpt>
      <trkpt lat="47.88472" lon="6.8887">
        <ele>808.5</ele>
        <time>2022-11-02T14:55:39Z</time>
      </trkpt>
      <trkpt lat="47.88473" lon="6.88869">
        <ele>808.7</ele>
        <time>2022-11-02T14:55:40Z</time>
      </trkpt>
      <trkpt lat="47.88473" lon="6.88868">
        <ele>808.5</ele>
        <time>2022-11-02T14:55:41Z</time>
      </trkpt>
      <trkpt lat="47.88474" lon="6.88867">
        <ele>808.6</ele>
        <time>2022-11-02T14:55:42Z</time>
      </trkpt>
      <trkpt lat="47.88474" lon="6.88866">
        <ele>808.4</ele>
        <time>2022-11-02T14:55:43Z</time>
      </trkpt>
      <trkpt lat="47.88475" lon="6.88865">
        <ele>808.5</ele>
        <time>2022-11-02T14:55:44Z</time>
      </trkpt>
      <trkpt lat="47.88475" lon="6.88864">
        <ele>808.3</ele>
        <time>2022-11-02T14:55:45Z</time>
      </trkpt>
      <trkpt lat="47.88475" lon="6.88863">
        <ele>808.2</ele>
        <time>2022-11-02T14:55:46Z</time>
      </trkpt>
      <trkpt lat="47.88476" lon="6.88862">
        <ele>808.3</ele>
        <time>2022-11-02T14:55:47Z</time>
      </trkpt>
      <trkpt lat="47.88476" lon="6.88861">
        <ele>808.1</ele>
        <time>2022-11-02T14:55:48Z</time>
      </trkpt>
      <trkpt lat="47.88477" lon="6.8886">
        <ele>808.1</ele>
        <time>2022-11-02T14:55:49Z</time>
      </trkpt>
      <trkpt lat="47.88478" lon="6.88859">
        <ele>808.2</ele>
        <time>2022-11-02T14:55:50Z</time>
      </trkpt>
      <trkpt lat="47.88478" lon="6.88857">
        <ele>807.8</ele>
        <time>2022-11-02T14:55:51Z</time>
      </trkpt>
      <trkpt lat="47.88479" lon="6.88856">
        <ele>807.8</ele>
        <time>2022-11-02T14:55:52Z</time>
      </trkpt>
      <trkpt lat="47.88479" lon="6.88855">
        <ele>807.6</ele>
        <time>2022-11-02T14:55:53Z</time>
      </trkpt>
      <trkpt lat="47.8848" lon="6.88853">
        <ele>807.5</ele>
        <time>2022-11-02T14:55:54Z</time>
      </trkpt>
      <trkpt lat="47.88481" lon="6.88852">
        <ele>807.6</ele>
        <time>2022-11-02T14:55:55Z</time>
      </trkpt>
      <trkpt lat="47.88481" lon="6.8885">
        <ele>807.1</ele>
        <time>2022-11-02T14:55:56Z</time>
      </trkpt>
      <trkpt lat="47.88482" lon="6.88849">
        <ele>807.2</ele>
        <time>2022-11-02T14:55:57Z</time>
      </trkpt>
      <trkpt lat="47.88483" lon="6.88848">
        <ele>807.3</ele>
        <time>2022-11-02T14:55:58Z</time>
      </trkpt>
      <trkpt lat="47.88483" lon="6.88847">
        <ele>807.1</ele>
        <time>2022-11-02T14:55:59Z</time>
      </trkpt>
      <trkpt lat="47.88484" lon="6.88845">
        <ele>806.9</ele>
        <time>2022-11-02T14:56:00Z</time>
      </trkpt>
      <trkpt lat="47.88484" lon="6.88844">
        <ele>806.7</ele>
        <time>2022-11-02T14:56:01Z</time>
      </trkpt>
      <trkpt lat="47.88485" lon="6.88842">
        <ele>806.6</ele>
        <time>2022-11-02T14:56:02Z</time>
      </trkpt>
      <trkpt lat="47.88485" lon="6.8884">
        <ele>806.1</ele>
        <time>2022-11-02T14:56:03Z</time>
      </trkpt>
      <trkpt lat="47.88486" lon="6.88839">
        <ele>806.2</ele>
        <time>2022-11-02T14:56:04Z</time>
      </trkpt>
      <trkpt lat="47.88486" lon="6.88837">
        <ele>805.8</ele>
        <time>2022-11-02T14:56:05Z</time>
      </trkpt>
      <trkpt lat="47.88487" lon="6.88835">
        <ele>805.6</ele>
        <time>2022-11-02T14:56:06Z</time>
      </trkpt>
      <trkpt lat="47.88487" lon="6.88834">
        <ele>805.4</ele>
        <time>2022-11-02T14:56:07Z</time>
      </trkpt>
      <trkpt lat="47.88488" lon="6.88833">
        <ele>805.5</ele>
        <time>2022-11-02T14:56:08Z</time>
      </trkpt>
      <trkpt lat="47.88488" lon="6.88832">
        <ele>805.3</ele>
        <time>2022-11-02T14:56:09Z</time>
      </trkpt>
      <trkpt lat="47.88489" lon="6.88831">
        <ele>805.4</ele>
        <time>2022-11-02T14:56:10Z</time>
      </trkpt>
      <trkpt lat="47.88489" lon="6.88829">
        <ele>805.1</ele>
        <time>2022-11-02T14:56:11Z</time>
      </trkpt>
      <trkpt lat="47.8849" lon="6.88828">
        <ele>805.2</ele>
        <time>2022-11-02T14:56:12Z</time>
      </trkpt>
      <trkpt lat="47.8849" lon="6.88827">
        <ele>805</ele>
        <time>2022-11-02T14:56:13Z</time>
      </trkpt>
      <trkpt lat="47.88491" lon="6.88825">
        <ele>804.9</ele>
        <time>2022-11-02T14:56:14Z</time>
      </trkpt>
      <trkpt lat="47.88491" lon="6.88823">
        <ele>804.5</ele>
        <time>2022-11-02T14:56:15Z</time>
      </trkpt>
      <trkpt lat="47.88492" lon="6.88821">
        <ele>804.5</ele>
        <time>2022-11-02T14:56:16Z</time>
      </trkpt>
      <trkpt lat="47.88493" lon="6.88819">
        <ele>804.4</ele>
        <time>2022-11-02T14:56:17Z</time>
      </trkpt>
      <trkpt lat="47.88494" lon="6.88817">
        <ele>804.3</ele>
        <time>2022-11-02T14:56:18Z</time>
      </trkpt>
      <trkpt lat="47.88494" lon="6.88814">
        <ele>803.8</ele>
        <time>2022-11-02T14:56:19Z</time>
      </trkpt>
      <trkpt lat="47.88495" lon="6.88812">
        <ele>803.7</ele>
        <time>2022-11-02T14:56:20Z</time>
      </trkpt>
      <trkpt lat="47.88496" lon="6.8881">
        <ele>803.6</ele>
        <time>2022-11-02T14:56:21Z</time>
      </trkpt>
      <trkpt lat="47.88496" lon="6.88808">
        <ele>803.3</ele>
        <time>2022-11-02T14:56:22Z</time>
      </trkpt>
      <trkpt lat="47.88497" lon="6.88807">
        <ele>803.4</ele>
        <time>2022-11-02T14:56:23Z</time>
      </trkpt>
      <trkpt lat="47.88497" lon="6.88805">
        <ele>803</ele>
        <time>2022-11-02T14:56:24Z</time>
      </trkpt>
      <trkpt lat="47.88498" lon="6.88804">
        <ele>803.1</ele>
        <time>2022-11-02T14:56:25Z</time>
      </trkpt>
      <trkpt lat="47.88499" lon="6.88803">
        <ele>803.2</ele>
        <time>2022-11-02T14:56:26Z</time>
      </trkpt>
      <trkpt lat="47.88499" lon="6.88802">
        <ele>803.1</ele>
        <time>2022-11-02T14:56:27Z</time>
      </trkpt>
      <trkpt lat="47.885" lon="6.88801">
        <ele>803.2</ele>
        <time>2022-11-02T14:56:28Z</time>
      </trkpt>
      <trkpt lat="47.88501" lon="6.888">
        <ele>803.2</ele>
        <time>2022-11-02T14:56:29Z</time>
      </trkpt>
      <trkpt lat="47.88501" lon="6.88799">
        <ele>803</ele>
        <time>2022-11-02T14:56:30Z</time>
      </trkpt>
      <trkpt lat="47.88502" lon="6.88798">
        <ele>803</ele>
        <time>2022-11-02T14:56:31Z</time>
      </trkpt>
      <trkpt lat="47.88503" lon="6.88797">
        <ele>803</ele>
        <time>2022-11-02T14:56:32Z</time>
      </trkpt>
      <trkpt lat="47.88503" lon="6.88796">
        <ele>802.8</ele>
        <time>2022-11-02T14:56:33Z</time>
      </trkpt>
      <trkpt lat="47.88504" lon="6.88794">
        <ele>802.6</ele>
        <time>2022-11-02T14:56:34Z</time>
      </trkpt>
      <trkpt lat="47.88505" lon="6.88793">
        <ele>802.6</ele>
        <time>2022-11-02T14:56:36Z</time>
      </trkpt>
      <trkpt lat="47.88506" lon="6.88792">
        <ele>802.6</ele>
        <time>2022-11-02T14:56:37Z</time>
      </trkpt>
      <trkpt lat="47.88506" lon="6.88791">
        <ele>802.5</ele>
        <time>2022-11-02T14:56:38Z</time>
      </trkpt>
      <trkpt lat="47.88507" lon="6.8879">
        <ele>802.5</ele>
        <time>2022-11-02T14:56:39Z</time>
      </trkpt>
      <trkpt lat="47.88507" lon="6.88789">
        <ele>802.3</ele>
        <time>2022-11-02T14:56:40Z</time>
      </trkpt>
      <trkpt lat="47.88508" lon="6.88788">
        <ele>802.3</ele>
        <time>2022-11-02T14:56:41Z</time>
      </trkpt>
      <trkpt lat="47.88508" lon="6.88787">
        <ele>802.1</ele>
        <time>2022-11-02T14:56:42Z</time>
      </trkpt>
      <trkpt lat="47.88509" lon="6.88786">
        <ele>802.1</ele>
        <time>2022-11-02T14:56:43Z</time>
      </trkpt>
      <trkpt lat="47.8851" lon="6.88785">
        <ele>802.1</ele>
        <time>2022-11-02T14:56:44Z</time>
      </trkpt>
      <trkpt lat="47.8851" lon="6.88784">
        <ele>801.9</ele>
        <time>2022-11-02T14:56:45Z</time>
      </trkpt>
      <trkpt lat="47.88511" lon="6.88783">
        <ele>801.9</ele>
        <time>2022-11-02T14:56:46Z</time>
      </trkpt>
      <trkpt lat="47.88511" lon="6.88782">
        <ele>801.7</ele>
        <time>2022-11-02T14:56:47Z</time>
      </trkpt>
      <trkpt lat="47.88512" lon="6.88781">
        <ele>801.7</ele>
        <time>2022-11-02T14:56:48Z</time>
      </trkpt>
      <trkpt lat="47.88513" lon="6.8878">
        <ele>801.7</ele>
        <time>2022-11-02T14:56:49Z</time>
      </trkpt>
      <trkpt lat="47.88513" lon="6.88779">
        <ele>801.6</ele>
        <time>2022-11-02T14:56:50Z</time>
      </trkpt>
      <trkpt lat="47.88514" lon="6.88778">
        <ele>801.6</ele>
        <time>2022-11-02T14:56:51Z</time>
      </trkpt>
      <trkpt lat="47.88515" lon="6.88777">
        <ele>801.5</ele>
        <time>2022-11-02T14:56:52Z</time>
      </trkpt>
      <trkpt lat="47.88515" lon="6.88776">
        <ele>801.3</ele>
        <time>2022-11-02T14:56:53Z</time>
      </trkpt>
      <trkpt lat="47.88516" lon="6.88775">
        <ele>801.3</ele>
        <time>2022-11-02T14:56:54Z</time>
      </trkpt>
      <trkpt lat="47.88516" lon="6.88774">
        <ele>801.1</ele>
        <time>2022-11-02T14:56:55Z</time>
      </trkpt>
      <trkpt lat="47.88517" lon="6.88773">
        <ele>801.1</ele>
        <time>2022-11-02T14:56:56Z</time>
      </trkpt>
      <trkpt lat="47.88518" lon="6.88772">
        <ele>801.1</ele>
        <time>2022-11-02T14:56:57Z</time>
      </trkpt>
      <trkpt lat="47.88518" lon="6.88771">
        <ele>800.8</ele>
        <time>2022-11-02T14:56:58Z</time>
      </trkpt>
      <trkpt lat="47.88519" lon="6.88769">
        <ele>800.6</ele>
        <time>2022-11-02T14:56:59Z</time>
      </trkpt>
      <trkpt lat="47.88519" lon="6.88768">
        <ele>800.4</ele>
        <time>2022-11-02T14:57:00Z</time>
      </trkpt>
      <trkpt lat="47.8852" lon="6.88767">
        <ele>800.4</ele>
        <time>2022-11-02T14:57:01Z</time>
      </trkpt>
      <trkpt lat="47.88521" lon="6.88765">
        <ele>800.3</ele>
        <time>2022-11-02T14:57:02Z</time>
      </trkpt>
      <trkpt lat="47.88521" lon="6.88764">
        <ele>800.1</ele>
        <time>2022-11-02T14:57:03Z</time>
      </trkpt>
      <trkpt lat="47.88522" lon="6.88763">
        <ele>800.1</ele>
        <time>2022-11-02T14:57:04Z</time>
      </trkpt>
      <trkpt lat="47.88522" lon="6.88762">
        <ele>799.9</ele>
        <time>2022-11-02T14:57:06Z</time>
      </trkpt>
      <trkpt lat="47.88523" lon="6.88761">
        <ele>799.9</ele>
        <time>2022-11-02T14:57:07Z</time>
      </trkpt>
      <trkpt lat="47.88523" lon="6.8876">
        <ele>799.7</ele>
        <time>2022-11-02T14:57:08Z</time>
      </trkpt>
      <trkpt lat="47.88524" lon="6.88759">
        <ele>799.8</ele>
        <time>2022-11-02T14:57:09Z</time>
      </trkpt>
      <trkpt lat="47.88524" lon="6.88758">
        <ele>799.6</ele>
        <time>2022-11-02T14:57:10Z</time>
      </trkpt>
      <trkpt lat="47.88525" lon="6.88757">
        <ele>799.6</ele>
        <time>2022-11-02T14:57:11Z</time>
      </trkpt>
      <trkpt lat="47.88526" lon="6.88756">
        <ele>799.7</ele>
        <time>2022-11-02T14:57:12Z</time>
      </trkpt>
      <trkpt lat="47.88526" lon="6.88755">
        <ele>799.5</ele>
        <time>2022-11-02T14:57:13Z</time>
      </trkpt>
      <trkpt lat="47.88527" lon="6.88754">
        <ele>799.5</ele>
        <time>2022-11-02T14:57:14Z</time>
      </trkpt>
      <trkpt lat="47.88528" lon="6.88753">
        <ele>799.5</ele>
        <time>2022-11-02T14:57:15Z</time>
      </trkpt>
      <trkpt lat="47.88529" lon="6.88751">
        <ele>799.1</ele>
        <time>2022-11-02T14:57:16Z</time>
      </trkpt>
      <trkpt lat="47.8853" lon="6.8875">
        <ele>798.8</ele>
        <time>2022-11-02T14:57:17Z</time>
      </trkpt>
      <trkpt lat="47.88531" lon="6.88749">
        <ele>798.6</ele>
        <time>2022-11-02T14:57:18Z</time>
      </trkpt>
      <trkpt lat="47.88532" lon="6.88747">
        <ele>798.2</ele>
        <time>2022-11-02T14:57:19Z</time>
      </trkpt>
      <trkpt lat="47.88533" lon="6.88746">
        <ele>798</ele>
        <time>2022-11-02T14:57:21Z</time>
      </trkpt>
      <trkpt lat="47.88533" lon="6.88745">
        <ele>797.8</ele>
        <time>2022-11-02T14:57:22Z</time>
      </trkpt>
      <trkpt lat="47.88533" lon="6.88744">
        <ele>797.7</ele>
        <time>2022-11-02T14:57:24Z</time>
      </trkpt>
      <trkpt lat="47.88533" lon="6.88743">
        <ele>797.5</ele>
        <time>2022-11-02T14:57:25Z</time>
      </trkpt>
      <trkpt lat="47.88532" lon="6.88742">
        <ele>797.4</ele>
        <time>2022-11-02T14:57:26Z</time>
      </trkpt>
      <trkpt lat="47.88532" lon="6.8874">
        <ele>797.1</ele>
        <time>2022-11-02T14:57:28Z</time>
      </trkpt>
      <trkpt lat="47.88533" lon="6.88739">
        <ele>796.9</ele>
        <time>2022-11-02T14:57:29Z</time>
      </trkpt>
      <trkpt lat="47.88533" lon="6.88738">
        <ele>796.7</ele>
        <time>2022-11-02T14:57:30Z</time>
      </trkpt>
      <trkpt lat="47.88534" lon="6.88737">
        <ele>796.5</ele>
        <time>2022-11-02T14:57:31Z</time>
      </trkpt>
      <trkpt lat="47.88534" lon="6.88735">
        <ele>796.2</ele>
        <time>2022-11-02T14:57:32Z</time>
      </trkpt>
      <trkpt lat="47.88535" lon="6.88734">
        <ele>796</ele>
        <time>2022-11-02T14:57:33Z</time>
      </trkpt>
      <trkpt lat="47.88535" lon="6.88732">
        <ele>795.7</ele>
        <time>2022-11-02T14:57:34Z</time>
      </trkpt>
      <trkpt lat="47.88536" lon="6.88731">
        <ele>795.6</ele>
        <time>2022-11-02T14:57:35Z</time>
      </trkpt>
      <trkpt lat="47.88536" lon="6.8873">
        <ele>795.4</ele>
        <time>2022-11-02T14:57:36Z</time>
      </trkpt>
      <trkpt lat="47.88537" lon="6.88729">
        <ele>795.3</ele>
        <time>2022-11-02T14:57:37Z</time>
      </trkpt>
      <trkpt lat="47.88538" lon="6.88728">
        <ele>795.2</ele>
        <time>2022-11-02T14:57:39Z</time>
      </trkpt>
      <trkpt lat="47.88538" lon="6.88727">
        <ele>795</ele>
        <time>2022-11-02T14:57:40Z</time>
      </trkpt>
      <trkpt lat="47.88539" lon="6.88726">
        <ele>794.9</ele>
        <time>2022-11-02T14:57:41Z</time>
      </trkpt>
      <trkpt lat="47.88539" lon="6.88725">
        <ele>794.8</ele>
        <time>2022-11-02T14:57:42Z</time>
      </trkpt>
      <trkpt lat="47.8854" lon="6.88725">
        <ele>794.8</ele>
        <time>2022-11-02T14:57:43Z</time>
      </trkpt>
      <trkpt lat="47.8854" lon="6.88724">
        <ele>794.7</ele>
        <time>2022-11-02T14:57:44Z</time>
      </trkpt>
      <trkpt lat="47.88541" lon="6.88723">
        <ele>794.6</ele>
        <time>2022-11-02T14:57:45Z</time>
      </trkpt>
      <trkpt lat="47.88542" lon="6.88723">
        <ele>794.6</ele>
        <time>2022-11-02T14:57:46Z</time>
      </trkpt>
      <trkpt lat="47.88543" lon="6.88723">
        <ele>794.6</ele>
        <time>2022-11-02T14:57:48Z</time>
      </trkpt>
      <trkpt lat="47.88544" lon="6.88723">
        <ele>794.7</ele>
        <time>2022-11-02T14:57:49Z</time>
      </trkpt>
      <trkpt lat="47.88545" lon="6.88723">
        <ele>794.7</ele>
        <time>2022-11-02T14:57:50Z</time>
      </trkpt>
      <trkpt lat="47.88546" lon="6.88724">
        <ele>794.9</ele>
        <time>2022-11-02T14:57:51Z</time>
      </trkpt>
      <trkpt lat="47.88547" lon="6.88725">
        <ele>795</ele>
        <time>2022-11-02T14:57:52Z</time>
      </trkpt>
      <trkpt lat="47.88548" lon="6.88726">
        <ele>795.1</ele>
        <time>2022-11-02T14:57:54Z</time>
      </trkpt>
      <trkpt lat="47.88549" lon="6.88727">
        <ele>795.2</ele>
        <time>2022-11-02T14:57:55Z</time>
      </trkpt>
      <trkpt lat="47.8855" lon="6.88728">
        <ele>795.3</ele>
        <time>2022-11-02T14:57:56Z</time>
      </trkpt>
      <trkpt lat="47.88551" lon="6.88729">
        <ele>795.4</ele>
        <time>2022-11-02T14:57:57Z</time>
      </trkpt>
      <trkpt lat="47.88551" lon="6.8873">
        <ele>795.5</ele>
        <time>2022-11-02T14:57:58Z</time>
      </trkpt>
      <trkpt lat="47.88552" lon="6.88731">
        <ele>795.6</ele>
        <time>2022-11-02T14:57:59Z</time>
      </trkpt>
      <trkpt lat="47.88553" lon="6.88732">
        <ele>795.7</ele>
        <time>2022-11-02T14:58:00Z</time>
      </trkpt>
      <trkpt lat="47.88554" lon="6.88733">
        <ele>795.8</ele>
        <time>2022-11-02T14:58:01Z</time>
      </trkpt>
      <trkpt lat="47.88555" lon="6.88733">
        <ele>795.8</ele>
        <time>2022-11-02T14:58:02Z</time>
      </trkpt>
      <trkpt lat="47.88556" lon="6.88734">
        <ele>795.8</ele>
        <time>2022-11-02T14:58:03Z</time>
      </trkpt>
      <trkpt lat="47.88557" lon="6.88734">
        <ele>795.6</ele>
        <time>2022-11-02T14:58:05Z</time>
      </trkpt>
      <trkpt lat="47.88558" lon="6.88734">
        <ele>795.4</ele>
        <time>2022-11-02T14:58:06Z</time>
      </trkpt>
      <trkpt lat="47.88559" lon="6.88735">
        <ele>795.2</ele>
        <time>2022-11-02T14:58:07Z</time>
      </trkpt>
      <trkpt lat="47.88561" lon="6.88736">
        <ele>794.9</ele>
        <time>2022-11-02T14:58:30Z</time>
      </trkpt>
      <trkpt lat="47.88562" lon="6.88736">
        <ele>794.7</ele>
        <time>2022-11-02T14:58:31Z</time>
      </trkpt>
      <trkpt lat="47.88563" lon="6.88736">
        <ele>794.5</ele>
        <time>2022-11-02T14:58:32Z</time>
      </trkpt>
      <trkpt lat="47.88564" lon="6.88737">
        <ele>794.4</ele>
        <time>2022-11-02T14:58:33Z</time>
      </trkpt>
      <trkpt lat="47.88565" lon="6.88737">
        <ele>794.2</ele>
        <time>2022-11-02T14:58:34Z</time>
      </trkpt>
      <trkpt lat="47.88566" lon="6.88739">
        <ele>794.2</ele>
        <time>2022-11-02T14:58:35Z</time>
      </trkpt>
      <trkpt lat="47.88566" lon="6.8874">
        <ele>794.3</ele>
        <time>2022-11-02T14:58:36Z</time>
      </trkpt>
      <trkpt lat="47.88567" lon="6.88742">
        <ele>794.2</ele>
        <time>2022-11-02T14:58:37Z</time>
      </trkpt>
      <trkpt lat="47.88568" lon="6.88744">
        <ele>794.2</ele>
        <time>2022-11-02T14:58:38Z</time>
      </trkpt>
      <trkpt lat="47.88568" lon="6.88746">
        <ele>794.4</ele>
        <time>2022-11-02T14:58:39Z</time>
      </trkpt>
      <trkpt lat="47.88569" lon="6.88747">
        <ele>794.3</ele>
        <time>2022-11-02T14:58:40Z</time>
      </trkpt>
      <trkpt lat="47.8857" lon="6.88748">
        <ele>794.2</ele>
        <time>2022-11-02T14:58:41Z</time>
      </trkpt>
      <trkpt lat="47.8857" lon="6.88749">
        <ele>794.3</ele>
        <time>2022-11-02T14:58:42Z</time>
      </trkpt>
      <trkpt lat="47.88571" lon="6.8875">
        <ele>794.2</ele>
        <time>2022-11-02T14:58:43Z</time>
      </trkpt>
      <trkpt lat="47.88572" lon="6.88749">
        <ele>793.9</ele>
        <time>2022-11-02T14:58:52Z</time>
      </trkpt>
      <trkpt lat="47.88573" lon="6.88748">
        <ele>793.7</ele>
        <time>2022-11-02T14:58:53Z</time>
      </trkpt>
      <trkpt lat="47.88574" lon="6.88748">
        <ele>793.5</ele>
        <time>2022-11-02T14:58:54Z</time>
      </trkpt>
      <trkpt lat="47.88575" lon="6.88747">
        <ele>793.2</ele>
        <time>2022-11-02T14:58:55Z</time>
      </trkpt>
      <trkpt lat="47.88576" lon="6.88747">
        <ele>793</ele>
        <time>2022-11-02T14:58:56Z</time>
      </trkpt>
      <trkpt lat="47.88577" lon="6.88747">
        <ele>792.8</ele>
        <time>2022-11-02T14:58:57Z</time>
      </trkpt>
      <trkpt lat="47.88578" lon="6.88747">
        <ele>792.7</ele>
        <time>2022-11-02T14:58:58Z</time>
      </trkpt>
      <trkpt lat="47.88579" lon="6.88747">
        <ele>792.5</ele>
        <time>2022-11-02T14:58:59Z</time>
      </trkpt>
      <trkpt lat="47.8858" lon="6.88747">
        <ele>792.3</ele>
        <time>2022-11-02T14:59:00Z</time>
      </trkpt>
      <trkpt lat="47.88581" lon="6.88747">
        <ele>792.1</ele>
        <time>2022-11-02T14:59:01Z</time>
      </trkpt>
      <trkpt lat="47.88582" lon="6.88747">
        <ele>791.9</ele>
        <time>2022-11-02T14:59:02Z</time>
      </trkpt>
      <trkpt lat="47.88583" lon="6.88748">
        <ele>791.8</ele>
        <time>2022-11-02T14:59:03Z</time>
      </trkpt>
      <trkpt lat="47.88584" lon="6.88748">
        <ele>791.7</ele>
        <time>2022-11-02T14:59:04Z</time>
      </trkpt>
      <trkpt lat="47.88585" lon="6.88749">
        <ele>791.6</ele>
        <time>2022-11-02T14:59:05Z</time>
      </trkpt>
      <trkpt lat="47.88586" lon="6.88749">
        <ele>791.4</ele>
        <time>2022-11-02T14:59:06Z</time>
      </trkpt>
      <trkpt lat="47.88589" lon="6.88751">
        <ele>791.2</ele>
        <time>2022-11-02T14:59:15Z</time>
      </trkpt>
      <trkpt lat="47.8859" lon="6.88752">
        <ele>791.2</ele>
        <time>2022-11-02T14:59:17Z</time>
      </trkpt>
      <trkpt lat="47.88591" lon="6.88752">
        <ele>791</ele>
        <time>2022-11-02T14:59:19Z</time>
      </trkpt>
      <trkpt lat="47.88592" lon="6.88752">
        <ele>790.8</ele>
        <time>2022-11-02T14:59:20Z</time>
      </trkpt>
      <trkpt lat="47.88593" lon="6.88752">
        <ele>790.6</ele>
        <time>2022-11-02T14:59:21Z</time>
      </trkpt>
      <trkpt lat="47.88594" lon="6.88752">
        <ele>790.4</ele>
        <time>2022-11-02T14:59:22Z</time>
      </trkpt>
      <trkpt lat="47.88594" lon="6.88753">
        <ele>790.6</ele>
        <time>2022-11-02T14:59:23Z</time>
      </trkpt>
      <trkpt lat="47.88595" lon="6.88753">
        <ele>790.4</ele>
        <time>2022-11-02T14:59:24Z</time>
      </trkpt>
      <trkpt lat="47.88596" lon="6.88753">
        <ele>790.3</ele>
        <time>2022-11-02T14:59:25Z</time>
      </trkpt>
      <trkpt lat="47.88597" lon="6.88753">
        <ele>790.1</ele>
        <time>2022-11-02T14:59:26Z</time>
      </trkpt>
      <trkpt lat="47.88598" lon="6.88754">
        <ele>790.1</ele>
        <time>2022-11-02T14:59:27Z</time>
      </trkpt>
      <trkpt lat="47.88599" lon="6.88754">
        <ele>789.9</ele>
        <time>2022-11-02T14:59:28Z</time>
      </trkpt>
      <trkpt lat="47.886" lon="6.88754">
        <ele>789.7</ele>
        <time>2022-11-02T14:59:30Z</time>
      </trkpt>
      <trkpt lat="47.88601" lon="6.88754">
        <ele>789.5</ele>
        <time>2022-11-02T14:59:31Z</time>
      </trkpt>
      <trkpt lat="47.88602" lon="6.88754">
        <ele>789.4</ele>
        <time>2022-11-02T14:59:32Z</time>
      </trkpt>
      <trkpt lat="47.88603" lon="6.88754">
        <ele>789.2</ele>
        <time>2022-11-02T14:59:33Z</time>
      </trkpt>
      <trkpt lat="47.88604" lon="6.88755">
        <ele>789.2</ele>
        <time>2022-11-02T14:59:34Z</time>
      </trkpt>
      <trkpt lat="47.88605" lon="6.88755">
        <ele>789</ele>
        <time>2022-11-02T14:59:35Z</time>
      </trkpt>
      <trkpt lat="47.88606" lon="6.88755">
        <ele>788.8</ele>
        <time>2022-11-02T14:59:36Z</time>
      </trkpt>
      <trkpt lat="47.88607" lon="6.88756">
        <ele>788.8</ele>
        <time>2022-11-02T14:59:37Z</time>
      </trkpt>
      <trkpt lat="47.88608" lon="6.88756">
        <ele>788.6</ele>
        <time>2022-11-02T14:59:38Z</time>
      </trkpt>
      <trkpt lat="47.88608" lon="6.88757">
        <ele>788.8</ele>
        <time>2022-11-02T14:59:39Z</time>
      </trkpt>
      <trkpt lat="47.88609" lon="6.88757">
        <ele>788.6</ele>
        <time>2022-11-02T14:59:40Z</time>
      </trkpt>
      <trkpt lat="47.8861" lon="6.88758">
        <ele>788.6</ele>
        <time>2022-11-02T14:59:41Z</time>
      </trkpt>
      <trkpt lat="47.88611" lon="6.88758">
        <ele>788.5</ele>
        <time>2022-11-02T14:59:42Z</time>
      </trkpt>
      <trkpt lat="47.88612" lon="6.88759">
        <ele>788.4</ele>
        <time>2022-11-02T14:59:43Z</time>
      </trkpt>
      <trkpt lat="47.88613" lon="6.8876">
        <ele>788.3</ele>
        <time>2022-11-02T14:59:44Z</time>
      </trkpt>
      <trkpt lat="47.88614" lon="6.8876">
        <ele>788.1</ele>
        <time>2022-11-02T14:59:45Z</time>
      </trkpt>
      <trkpt lat="47.88615" lon="6.8876">
        <ele>787.9</ele>
        <time>2022-11-02T14:59:46Z</time>
      </trkpt>
      <trkpt lat="47.88616" lon="6.8876">
        <ele>787.6</ele>
        <time>2022-11-02T14:59:47Z</time>
      </trkpt>
      <trkpt lat="47.88617" lon="6.8876">
        <ele>787.4</ele>
        <time>2022-11-02T14:59:48Z</time>
      </trkpt>
      <trkpt lat="47.88618" lon="6.8876">
        <ele>787.2</ele>
        <time>2022-11-02T14:59:49Z</time>
      </trkpt>
      <trkpt lat="47.88619" lon="6.8876">
        <ele>786.9</ele>
        <time>2022-11-02T14:59:50Z</time>
      </trkpt>
      <trkpt lat="47.8862" lon="6.8876">
        <ele>786.7</ele>
        <time>2022-11-02T14:59:51Z</time>
      </trkpt>
      <trkpt lat="47.88622" lon="6.8876">
        <ele>786.2</ele>
        <time>2022-11-02T14:59:52Z</time>
      </trkpt>
      <trkpt lat="47.88623" lon="6.88761">
        <ele>786.2</ele>
        <time>2022-11-02T14:59:53Z</time>
      </trkpt>
      <trkpt lat="47.88624" lon="6.88761">
        <ele>785.9</ele>
        <time>2022-11-02T14:59:54Z</time>
      </trkpt>
      <trkpt lat="47.88625" lon="6.88761">
        <ele>785.7</ele>
        <time>2022-11-02T14:59:55Z</time>
      </trkpt>
      <trkpt lat="47.88626" lon="6.88762">
        <ele>785.6</ele>
        <time>2022-11-02T14:59:56Z</time>
      </trkpt>
      <trkpt lat="47.88627" lon="6.88762">
        <ele>785.4</ele>
        <time>2022-11-02T14:59:57Z</time>
      </trkpt>
      <trkpt lat="47.88628" lon="6.88763">
        <ele>785.4</ele>
        <time>2022-11-02T14:59:58Z</time>
      </trkpt>
      <trkpt lat="47.88629" lon="6.88763">
        <ele>785.1</ele>
        <time>2022-11-02T14:59:59Z</time>
      </trkpt>
      <trkpt lat="47.8863" lon="6.88763">
        <ele>784.9</ele>
        <time>2022-11-02T15:00:00Z</time>
      </trkpt>
      <trkpt lat="47.88631" lon="6.88763">
        <ele>784.7</ele>
        <time>2022-11-02T15:00:01Z</time>
      </trkpt>
      <trkpt lat="47.88632" lon="6.88764">
        <ele>784.6</ele>
        <time>2022-11-02T15:00:02Z</time>
      </trkpt>
      <trkpt lat="47.88633" lon="6.88765">
        <ele>784.6</ele>
        <time>2022-11-02T15:00:03Z</time>
      </trkpt>
      <trkpt lat="47.88633" lon="6.88766">
        <ele>784.8</ele>
        <time>2022-11-02T15:00:04Z</time>
      </trkpt>
      <trkpt lat="47.88634" lon="6.88766">
        <ele>784.6</ele>
        <time>2022-11-02T15:00:05Z</time>
      </trkpt>
      <trkpt lat="47.88634" lon="6.88767">
        <ele>784.8</ele>
        <time>2022-11-02T15:00:06Z</time>
      </trkpt>
      <trkpt lat="47.88635" lon="6.88768">
        <ele>784.8</ele>
        <time>2022-11-02T15:00:07Z</time>
      </trkpt>
      <trkpt lat="47.88636" lon="6.88769">
        <ele>784.8</ele>
        <time>2022-11-02T15:00:08Z</time>
      </trkpt>
      <trkpt lat="47.88637" lon="6.8877">
        <ele>784.7</ele>
        <time>2022-11-02T15:00:10Z</time>
      </trkpt>
      <trkpt lat="47.88638" lon="6.8877">
        <ele>784.5</ele>
        <time>2022-11-02T15:00:11Z</time>
      </trkpt>
      <trkpt lat="47.88639" lon="6.88771">
        <ele>784.5</ele>
        <time>2022-11-02T15:00:12Z</time>
      </trkpt>
      <trkpt lat="47.8864" lon="6.88771">
        <ele>784.3</ele>
        <time>2022-11-02T15:00:18Z</time>
      </trkpt>
      <trkpt lat="47.88641" lon="6.88771">
        <ele>784</ele>
        <time>2022-11-02T15:00:19Z</time>
      </trkpt>
      <trkpt lat="47.88642" lon="6.88772">
        <ele>784</ele>
        <time>2022-11-02T15:00:20Z</time>
      </trkpt>
      <trkpt lat="47.88643" lon="6.88772">
        <ele>783.8</ele>
        <time>2022-11-02T15:00:21Z</time>
      </trkpt>
      <trkpt lat="47.88644" lon="6.88772">
        <ele>783.5</ele>
        <time>2022-11-02T15:00:22Z</time>
      </trkpt>
      <trkpt lat="47.88645" lon="6.88773">
        <ele>783.5</ele>
        <time>2022-11-02T15:00:24Z</time>
      </trkpt>
      <trkpt lat="47.88646" lon="6.88773">
        <ele>783.3</ele>
        <time>2022-11-02T15:00:25Z</time>
      </trkpt>
      <trkpt lat="47.88647" lon="6.88773">
        <ele>783</ele>
        <time>2022-11-02T15:00:26Z</time>
      </trkpt>
      <trkpt lat="47.88648" lon="6.88773">
        <ele>782.8</ele>
        <time>2022-11-02T15:00:33Z</time>
      </trkpt>
      <trkpt lat="47.88649" lon="6.88774">
        <ele>782.7</ele>
        <time>2022-11-02T15:00:34Z</time>
      </trkpt>
      <trkpt lat="47.8865" lon="6.88775">
        <ele>782.7</ele>
        <time>2022-11-02T15:00:35Z</time>
      </trkpt>
      <trkpt lat="47.8865" lon="6.88776">
        <ele>782.9</ele>
        <time>2022-11-02T15:00:36Z</time>
      </trkpt>
      <trkpt lat="47.88651" lon="6.88777">
        <ele>782.8</ele>
        <time>2022-11-02T15:00:37Z</time>
      </trkpt>
      <trkpt lat="47.88651" lon="6.88779">
        <ele>783.1</ele>
        <time>2022-11-02T15:00:38Z</time>
      </trkpt>
      <trkpt lat="47.88652" lon="6.8878">
        <ele>783</ele>
        <time>2022-11-02T15:00:39Z</time>
      </trkpt>
      <trkpt lat="47.88652" lon="6.88782">
        <ele>783.3</ele>
        <time>2022-11-02T15:00:40Z</time>
      </trkpt>
      <trkpt lat="47.88653" lon="6.88783">
        <ele>783.2</ele>
        <time>2022-11-02T15:00:41Z</time>
      </trkpt>
      <trkpt lat="47.88654" lon="6.88784">
        <ele>783.1</ele>
        <time>2022-11-02T15:00:42Z</time>
      </trkpt>
      <trkpt lat="47.88655" lon="6.88785">
        <ele>782.9</ele>
        <time>2022-11-02T15:00:43Z</time>
      </trkpt>
      <trkpt lat="47.88656" lon="6.88786">
        <ele>782.8</ele>
        <time>2022-11-02T15:00:45Z</time>
      </trkpt>
      <trkpt lat="47.88657" lon="6.88787">
        <ele>782.7</ele>
        <time>2022-11-02T15:00:46Z</time>
      </trkpt>
      <trkpt lat="47.88657" lon="6.88788">
        <ele>782.8</ele>
        <time>2022-11-02T15:00:47Z</time>
      </trkpt>
      <trkpt lat="47.88658" lon="6.88789">
        <ele>782.6</ele>
        <time>2022-11-02T15:00:48Z</time>
      </trkpt>
      <trkpt lat="47.88659" lon="6.88791">
        <ele>782.6</ele>
        <time>2022-11-02T15:00:49Z</time>
      </trkpt>
      <trkpt lat="47.8866" lon="6.88792">
        <ele>782.5</ele>
        <time>2022-11-02T15:00:50Z</time>
      </trkpt>
      <trkpt lat="47.8866" lon="6.88793">
        <ele>782.6</ele>
        <time>2022-11-02T15:00:51Z</time>
      </trkpt>
      <trkpt lat="47.88661" lon="6.88794">
        <ele>782.4</ele>
        <time>2022-11-02T15:00:52Z</time>
      </trkpt>
      <trkpt lat="47.88662" lon="6.88795">
        <ele>782.2</ele>
        <time>2022-11-02T15:00:53Z</time>
      </trkpt>
      <trkpt lat="47.88663" lon="6.88797">
        <ele>782.2</ele>
        <time>2022-11-02T15:00:54Z</time>
      </trkpt>
      <trkpt lat="47.88664" lon="6.88798">
        <ele>782</ele>
        <time>2022-11-02T15:00:55Z</time>
      </trkpt>
      <trkpt lat="47.88665" lon="6.88799">
        <ele>781.8</ele>
        <time>2022-11-02T15:00:56Z</time>
      </trkpt>
      <trkpt lat="47.88666" lon="6.888">
        <ele>781.6</ele>
        <time>2022-11-02T15:00:57Z</time>
      </trkpt>
      <trkpt lat="47.88667" lon="6.88801">
        <ele>781.4</ele>
        <time>2022-11-02T15:00:58Z</time>
      </trkpt>
      <trkpt lat="47.88668" lon="6.88802">
        <ele>781.1</ele>
        <time>2022-11-02T15:00:59Z</time>
      </trkpt>
      <trkpt lat="47.88668" lon="6.88803">
        <ele>781.2</ele>
        <time>2022-11-02T15:01:00Z</time>
      </trkpt>
      <trkpt lat="47.88669" lon="6.88804">
        <ele>781</ele>
        <time>2022-11-02T15:01:01Z</time>
      </trkpt>
      <trkpt lat="47.8867" lon="6.88805">
        <ele>780.7</ele>
        <time>2022-11-02T15:01:02Z</time>
      </trkpt>
      <trkpt lat="47.88671" lon="6.88806">
        <ele>780.5</ele>
        <time>2022-11-02T15:01:03Z</time>
      </trkpt>
      <trkpt lat="47.88672" lon="6.88807">
        <ele>780.3</ele>
        <time>2022-11-02T15:01:04Z</time>
      </trkpt>
      <trkpt lat="47.88673" lon="6.88809">
        <ele>780.3</ele>
        <time>2022-11-02T15:01:05Z</time>
      </trkpt>
      <trkpt lat="47.88674" lon="6.8881">
        <ele>780.1</ele>
        <time>2022-11-02T15:01:06Z</time>
      </trkpt>
      <trkpt lat="47.88675" lon="6.88812">
        <ele>780.1</ele>
        <time>2022-11-02T15:01:07Z</time>
      </trkpt>
      <trkpt lat="47.88675" lon="6.88813">
        <ele>780.3</ele>
        <time>2022-11-02T15:01:08Z</time>
      </trkpt>
      <trkpt lat="47.88676" lon="6.88814">
        <ele>780.1</ele>
        <time>2022-11-02T15:01:09Z</time>
      </trkpt>
      <trkpt lat="47.88677" lon="6.88816">
        <ele>780</ele>
        <time>2022-11-02T15:01:10Z</time>
      </trkpt>
      <trkpt lat="47.88678" lon="6.88818">
        <ele>780</ele>
        <time>2022-11-02T15:01:11Z</time>
      </trkpt>
      <trkpt lat="47.88679" lon="6.88821">
        <ele>780.1</ele>
        <time>2022-11-02T15:01:12Z</time>
      </trkpt>
      <trkpt lat="47.88681" lon="6.88824">
        <ele>779.8</ele>
        <time>2022-11-02T15:01:13Z</time>
      </trkpt>
      <trkpt lat="47.88683" lon="6.88826">
        <ele>779.4</ele>
        <time>2022-11-02T15:01:14Z</time>
      </trkpt>
      <trkpt lat="47.88684" lon="6.88829">
        <ele>779.5</ele>
        <time>2022-11-02T15:01:15Z</time>
      </trkpt>
      <trkpt lat="47.88685" lon="6.8883">
        <ele>779.2</ele>
        <time>2022-11-02T15:01:16Z</time>
      </trkpt>
      <trkpt lat="47.88686" lon="6.88831">
        <ele>779</ele>
        <time>2022-11-02T15:01:17Z</time>
      </trkpt>
      <trkpt lat="47.88687" lon="6.88833">
        <ele>778.9</ele>
        <time>2022-11-02T15:01:18Z</time>
      </trkpt>
      <trkpt lat="47.88687" lon="6.88834">
        <ele>779.1</ele>
        <time>2022-11-02T15:01:19Z</time>
      </trkpt>
      <trkpt lat="47.88688" lon="6.88835">
        <ele>778.9</ele>
        <time>2022-11-02T15:01:20Z</time>
      </trkpt>
      <trkpt lat="47.88689" lon="6.88836">
        <ele>778.6</ele>
        <time>2022-11-02T15:01:21Z</time>
      </trkpt>
      <trkpt lat="47.8869" lon="6.88836">
        <ele>778.2</ele>
        <time>2022-11-02T15:01:22Z</time>
      </trkpt>
      <trkpt lat="47.8869" lon="6.88837">
        <ele>778.4</ele>
        <time>2022-11-02T15:01:23Z</time>
      </trkpt>
      <trkpt lat="47.88691" lon="6.88838">
        <ele>778.2</ele>
        <time>2022-11-02T15:01:24Z</time>
      </trkpt>
      <trkpt lat="47.88692" lon="6.88839">
        <ele>778</ele>
        <time>2022-11-02T15:01:25Z</time>
      </trkpt>
      <trkpt lat="47.88693" lon="6.8884">
        <ele>777.8</ele>
        <time>2022-11-02T15:01:26Z</time>
      </trkpt>
      <trkpt lat="47.88694" lon="6.88841">
        <ele>777.6</ele>
        <time>2022-11-02T15:01:27Z</time>
      </trkpt>
      <trkpt lat="47.88695" lon="6.88842">
        <ele>777.3</ele>
        <time>2022-11-02T15:01:28Z</time>
      </trkpt>
      <trkpt lat="47.88696" lon="6.88843">
        <ele>777.1</ele>
        <time>2022-11-02T15:01:29Z</time>
      </trkpt>
      <trkpt lat="47.88696" lon="6.88844">
        <ele>777.3</ele>
        <time>2022-11-02T15:01:30Z</time>
      </trkpt>
      <trkpt lat="47.88697" lon="6.88845">
        <ele>777.1</ele>
        <time>2022-11-02T15:01:31Z</time>
      </trkpt>
      <trkpt lat="47.88698" lon="6.88846">
        <ele>776.9</ele>
        <time>2022-11-02T15:01:32Z</time>
      </trkpt>
      <trkpt lat="47.88698" lon="6.88848">
        <ele>777.3</ele>
        <time>2022-11-02T15:01:33Z</time>
      </trkpt>
      <trkpt lat="47.88699" lon="6.88849">
        <ele>777.1</ele>
        <time>2022-11-02T15:01:34Z</time>
      </trkpt>
      <trkpt lat="47.887" lon="6.8885">
        <ele>776.9</ele>
        <time>2022-11-02T15:01:35Z</time>
      </trkpt>
      <trkpt lat="47.88701" lon="6.88851">
        <ele>776.7</ele>
        <time>2022-11-02T15:01:36Z</time>
      </trkpt>
      <trkpt lat="47.88702" lon="6.88851">
        <ele>776.4</ele>
        <time>2022-11-02T15:01:37Z</time>
      </trkpt>
      <trkpt lat="47.88702" lon="6.88852">
        <ele>776.6</ele>
        <time>2022-11-02T15:01:38Z</time>
      </trkpt>
      <trkpt lat="47.88703" lon="6.88853">
        <ele>776.4</ele>
        <time>2022-11-02T15:01:39Z</time>
      </trkpt>
      <trkpt lat="47.88704" lon="6.88853">
        <ele>776</ele>
        <time>2022-11-02T15:01:45Z</time>
      </trkpt>
      <trkpt lat="47.88705" lon="6.88854">
        <ele>775.8</ele>
        <time>2022-11-02T15:01:46Z</time>
      </trkpt>
      <trkpt lat="47.88705" lon="6.88855">
        <ele>776</ele>
        <time>2022-11-02T15:01:47Z</time>
      </trkpt>
      <trkpt lat="47.88706" lon="6.88855">
        <ele>775.6</ele>
        <time>2022-11-02T15:01:48Z</time>
      </trkpt>
      <trkpt lat="47.88706" lon="6.88856">
        <ele>775.8</ele>
        <time>2022-11-02T15:01:49Z</time>
      </trkpt>
      <trkpt lat="47.88707" lon="6.88857">
        <ele>775.7</ele>
        <time>2022-11-02T15:01:50Z</time>
      </trkpt>
      <trkpt lat="47.88708" lon="6.88858">
        <ele>775.5</ele>
        <time>2022-11-02T15:01:51Z</time>
      </trkpt>
      <trkpt lat="47.88709" lon="6.8886">
        <ele>775.5</ele>
        <time>2022-11-02T15:01:52Z</time>
      </trkpt>
      <trkpt lat="47.88709" lon="6.88861">
        <ele>775.7</ele>
        <time>2022-11-02T15:01:53Z</time>
      </trkpt>
      <trkpt lat="47.8871" lon="6.88862">
        <ele>775.6</ele>
        <time>2022-11-02T15:01:54Z</time>
      </trkpt>
      <trkpt lat="47.88711" lon="6.88864">
        <ele>775.7</ele>
        <time>2022-11-02T15:01:55Z</time>
      </trkpt>
      <trkpt lat="47.88712" lon="6.88865">
        <ele>775.6</ele>
        <time>2022-11-02T15:01:56Z</time>
      </trkpt>
      <trkpt lat="47.88712" lon="6.88866">
        <ele>775.8</ele>
        <time>2022-11-02T15:01:57Z</time>
      </trkpt>
      <trkpt lat="47.88713" lon="6.88867">
        <ele>775.7</ele>
        <time>2022-11-02T15:01:58Z</time>
      </trkpt>
      <trkpt lat="47.88714" lon="6.88868">
        <ele>775.5</ele>
        <time>2022-11-02T15:01:59Z</time>
      </trkpt>
      <trkpt lat="47.88715" lon="6.88869">
        <ele>775.4</ele>
        <time>2022-11-02T15:02:01Z</time>
      </trkpt>
      <trkpt lat="47.88716" lon="6.8887">
        <ele>775.2</ele>
        <time>2022-11-02T15:02:02Z</time>
      </trkpt>
      <trkpt lat="47.88717" lon="6.8887">
        <ele>774.9</ele>
        <time>2022-11-02T15:02:03Z</time>
      </trkpt>
      <trkpt lat="47.88718" lon="6.88871">
        <ele>774.7</ele>
        <time>2022-11-02T15:02:04Z</time>
      </trkpt>
      <trkpt lat="47.88719" lon="6.88872">
        <ele>774.6</ele>
        <time>2022-11-02T15:02:05Z</time>
      </trkpt>
      <trkpt lat="47.8872" lon="6.88872">
        <ele>774.2</ele>
        <time>2022-11-02T15:02:06Z</time>
      </trkpt>
      <trkpt lat="47.88721" lon="6.88873">
        <ele>774</ele>
        <time>2022-11-02T15:02:07Z</time>
      </trkpt>
      <trkpt lat="47.88721" lon="6.88874">
        <ele>774.2</ele>
        <time>2022-11-02T15:02:08Z</time>
      </trkpt>
      <trkpt lat="47.88722" lon="6.88875">
        <ele>774.1</ele>
        <time>2022-11-02T15:02:09Z</time>
      </trkpt>
      <trkpt lat="47.88723" lon="6.88875">
        <ele>773.8</ele>
        <time>2022-11-02T15:02:10Z</time>
      </trkpt>
      <trkpt lat="47.88724" lon="6.88875">
        <ele>773.5</ele>
        <time>2022-11-02T15:02:11Z</time>
      </trkpt>
      <trkpt lat="47.88725" lon="6.88876">
        <ele>773.4</ele>
        <time>2022-11-02T15:02:12Z</time>
      </trkpt>
      <trkpt lat="47.88726" lon="6.88876">
        <ele>773.1</ele>
        <time>2022-11-02T15:02:13Z</time>
      </trkpt>
      <trkpt lat="47.88727" lon="6.88877">
        <ele>773.1</ele>
        <time>2022-11-02T15:02:15Z</time>
      </trkpt>
      <trkpt lat="47.88728" lon="6.88877">
        <ele>772.8</ele>
        <time>2022-11-02T15:02:16Z</time>
      </trkpt>
      <trkpt lat="47.88729" lon="6.88878">
        <ele>772.7</ele>
        <time>2022-11-02T15:02:17Z</time>
      </trkpt>
      <trkpt lat="47.8873" lon="6.88879">
        <ele>772.6</ele>
        <time>2022-11-02T15:02:18Z</time>
      </trkpt>
      <trkpt lat="47.88731" lon="6.8888">
        <ele>772.6</ele>
        <time>2022-11-02T15:02:20Z</time>
      </trkpt>
      <trkpt lat="47.88732" lon="6.8888">
        <ele>772.3</ele>
        <time>2022-11-02T15:02:21Z</time>
      </trkpt>
      <trkpt lat="47.88733" lon="6.88881">
        <ele>772.2</ele>
        <time>2022-11-02T15:02:22Z</time>
      </trkpt>
      <trkpt lat="47.88734" lon="6.88881">
        <ele>771.9</ele>
        <time>2022-11-02T15:02:24Z</time>
      </trkpt>
      <trkpt lat="47.88735" lon="6.88881">
        <ele>771.6</ele>
        <time>2022-11-02T15:02:25Z</time>
      </trkpt>
      <trkpt lat="47.88736" lon="6.88882">
        <ele>771.5</ele>
        <time>2022-11-02T15:02:26Z</time>
      </trkpt>
      <trkpt lat="47.88737" lon="6.88882">
        <ele>771.3</ele>
        <time>2022-11-02T15:02:27Z</time>
      </trkpt>
      <trkpt lat="47.88738" lon="6.88883">
        <ele>771.2</ele>
        <time>2022-11-02T15:02:28Z</time>
      </trkpt>
      <trkpt lat="47.88739" lon="6.88884">
        <ele>771.1</ele>
        <time>2022-11-02T15:02:29Z</time>
      </trkpt>
      <trkpt lat="47.8874" lon="6.88885">
        <ele>771</ele>
        <time>2022-11-02T15:02:30Z</time>
      </trkpt>
      <trkpt lat="47.8874" lon="6.88887">
        <ele>771.5</ele>
        <time>2022-11-02T15:02:31Z</time>
      </trkpt>
      <trkpt lat="47.88741" lon="6.88889">
        <ele>771.6</ele>
        <time>2022-11-02T15:02:32Z</time>
      </trkpt>
      <trkpt lat="47.88742" lon="6.8889">
        <ele>771.6</ele>
        <time>2022-11-02T15:02:33Z</time>
      </trkpt>
      <trkpt lat="47.88743" lon="6.88892">
        <ele>771.9</ele>
        <time>2022-11-02T15:02:34Z</time>
      </trkpt>
      <trkpt lat="47.88744" lon="6.88893">
        <ele>771.8</ele>
        <time>2022-11-02T15:02:36Z</time>
      </trkpt>
      <trkpt lat="47.88745" lon="6.88893">
        <ele>771.5</ele>
        <time>2022-11-02T15:02:37Z</time>
      </trkpt>
      <trkpt lat="47.88746" lon="6.88894">
        <ele>771.5</ele>
        <time>2022-11-02T15:02:38Z</time>
      </trkpt>
      <trkpt lat="47.88747" lon="6.88895">
        <ele>771.5</ele>
        <time>2022-11-02T15:02:39Z</time>
      </trkpt>
      <trkpt lat="47.88748" lon="6.88895">
        <ele>771.1</ele>
        <time>2022-11-02T15:02:40Z</time>
      </trkpt>
      <trkpt lat="47.88749" lon="6.88897">
        <ele>771.4</ele>
        <time>2022-11-02T15:02:41Z</time>
      </trkpt>
      <trkpt lat="47.8875" lon="6.88898">
        <ele>771.3</ele>
        <time>2022-11-02T15:02:42Z</time>
      </trkpt>
      <trkpt lat="47.88751" lon="6.88899">
        <ele>771.1</ele>
        <time>2022-11-02T15:02:43Z</time>
      </trkpt>
      <trkpt lat="47.88752" lon="6.88901">
        <ele>771.2</ele>
        <time>2022-11-02T15:02:44Z</time>
      </trkpt>
      <trkpt lat="47.88753" lon="6.88902">
        <ele>771</ele>
        <time>2022-11-02T15:02:45Z</time>
      </trkpt>
      <trkpt lat="47.88753" lon="6.88903">
        <ele>771.3</ele>
        <time>2022-11-02T15:02:46Z</time>
      </trkpt>
      <trkpt lat="47.88754" lon="6.88904">
        <ele>771.2</ele>
        <time>2022-11-02T15:02:47Z</time>
      </trkpt>
      <trkpt lat="47.88755" lon="6.88904">
        <ele>770.8</ele>
        <time>2022-11-02T15:02:48Z</time>
      </trkpt>
      <trkpt lat="47.88755" lon="6.88905">
        <ele>771.1</ele>
        <time>2022-11-02T15:02:49Z</time>
      </trkpt>
      <trkpt lat="47.88756" lon="6.88905">
        <ele>770.7</ele>
        <time>2022-11-02T15:02:50Z</time>
      </trkpt>
      <trkpt lat="47.88757" lon="6.88905">
        <ele>770.3</ele>
        <time>2022-11-02T15:02:51Z</time>
      </trkpt>
      <trkpt lat="47.88758" lon="6.88905">
        <ele>769.9</ele>
        <time>2022-11-02T15:02:52Z</time>
      </trkpt>
      <trkpt lat="47.88759" lon="6.88906">
        <ele>769.8</ele>
        <time>2022-11-02T15:02:53Z</time>
      </trkpt>
      <trkpt lat="47.8876" lon="6.88907">
        <ele>769.7</ele>
        <time>2022-11-02T15:02:55Z</time>
      </trkpt>
      <trkpt lat="47.88761" lon="6.88908">
        <ele>769.6</ele>
        <time>2022-11-02T15:02:56Z</time>
      </trkpt>
      <trkpt lat="47.88762" lon="6.88908">
        <ele>769.3</ele>
        <time>2022-11-02T15:02:57Z</time>
      </trkpt>
      <trkpt lat="47.88762" lon="6.88909">
        <ele>769.6</ele>
        <time>2022-11-02T15:02:58Z</time>
      </trkpt>
      <trkpt lat="47.88763" lon="6.8891">
        <ele>769.5</ele>
        <time>2022-11-02T15:02:59Z</time>
      </trkpt>
      <trkpt lat="47.88764" lon="6.88911">
        <ele>769.5</ele>
        <time>2022-11-02T15:03:00Z</time>
      </trkpt>
      <trkpt lat="47.88766" lon="6.88912">
        <ele>769.2</ele>
        <time>2022-11-02T15:03:01Z</time>
      </trkpt>
      <trkpt lat="47.88767" lon="6.88913">
        <ele>769.2</ele>
        <time>2022-11-02T15:03:02Z</time>
      </trkpt>
      <trkpt lat="47.88768" lon="6.88914">
        <ele>769.2</ele>
        <time>2022-11-02T15:03:03Z</time>
      </trkpt>
      <trkpt lat="47.8877" lon="6.88915">
        <ele>768.9</ele>
        <time>2022-11-02T15:03:04Z</time>
      </trkpt>
      <trkpt lat="47.88771" lon="6.88916">
        <ele>768.9</ele>
        <time>2022-11-02T15:03:05Z</time>
      </trkpt>
      <trkpt lat="47.88773" lon="6.88916">
        <ele>768.3</ele>
        <time>2022-11-02T15:03:06Z</time>
      </trkpt>
      <trkpt lat="47.88774" lon="6.88917">
        <ele>768.3</ele>
        <time>2022-11-02T15:03:07Z</time>
      </trkpt>
      <trkpt lat="47.88775" lon="6.88918">
        <ele>768.3</ele>
        <time>2022-11-02T15:03:08Z</time>
      </trkpt>
      <trkpt lat="47.88776" lon="6.88918">
        <ele>768</ele>
        <time>2022-11-02T15:03:09Z</time>
      </trkpt>
      <trkpt lat="47.88777" lon="6.88919">
        <ele>768</ele>
        <time>2022-11-02T15:03:10Z</time>
      </trkpt>
      <trkpt lat="47.88778" lon="6.88919">
        <ele>767.7</ele>
        <time>2022-11-02T15:03:11Z</time>
      </trkpt>
      <trkpt lat="47.88778" lon="6.8892">
        <ele>768</ele>
        <time>2022-11-02T15:03:12Z</time>
      </trkpt>
      <trkpt lat="47.88779" lon="6.88921">
        <ele>767.8</ele>
        <time>2022-11-02T15:03:13Z</time>
      </trkpt>
      <trkpt lat="47.8878" lon="6.88921">
        <ele>767.3</ele>
        <time>2022-11-02T15:03:14Z</time>
      </trkpt>
      <trkpt lat="47.88782" lon="6.88922">
        <ele>766.7</ele>
        <time>2022-11-02T15:03:15Z</time>
      </trkpt>
      <trkpt lat="47.88783" lon="6.88923">
        <ele>766.5</ele>
        <time>2022-11-02T15:03:16Z</time>
      </trkpt>
      <trkpt lat="47.88784" lon="6.88924">
        <ele>766.3</ele>
        <time>2022-11-02T15:03:17Z</time>
      </trkpt>
      <trkpt lat="47.88785" lon="6.88926">
        <ele>766.5</ele>
        <time>2022-11-02T15:03:18Z</time>
      </trkpt>
      <trkpt lat="47.88786" lon="6.88927">
        <ele>766.3</ele>
        <time>2022-11-02T15:03:19Z</time>
      </trkpt>
      <trkpt lat="47.88787" lon="6.88928">
        <ele>766.1</ele>
        <time>2022-11-02T15:03:20Z</time>
      </trkpt>
      <trkpt lat="47.88788" lon="6.8893">
        <ele>766.2</ele>
        <time>2022-11-02T15:03:21Z</time>
      </trkpt>
      <trkpt lat="47.88789" lon="6.88931">
        <ele>766</ele>
        <time>2022-11-02T15:03:22Z</time>
      </trkpt>
      <trkpt lat="47.8879" lon="6.88932">
        <ele>765.8</ele>
        <time>2022-11-02T15:03:23Z</time>
      </trkpt>
      <trkpt lat="47.8879" lon="6.88934">
        <ele>766.3</ele>
        <time>2022-11-02T15:03:24Z</time>
      </trkpt>
      <trkpt lat="47.88791" lon="6.88936">
        <ele>766.4</ele>
        <time>2022-11-02T15:03:25Z</time>
      </trkpt>
      <trkpt lat="47.88792" lon="6.88937">
        <ele>766.2</ele>
        <time>2022-11-02T15:03:26Z</time>
      </trkpt>
      <trkpt lat="47.88793" lon="6.88939">
        <ele>766.2</ele>
        <time>2022-11-02T15:03:27Z</time>
      </trkpt>
      <trkpt lat="47.88793" lon="6.88941">
        <ele>766.8</ele>
        <time>2022-11-02T15:03:28Z</time>
      </trkpt>
      <trkpt lat="47.88794" lon="6.88942">
        <ele>766.6</ele>
        <time>2022-11-02T15:03:29Z</time>
      </trkpt>
      <trkpt lat="47.88795" lon="6.88943">
        <ele>766.3</ele>
        <time>2022-11-02T15:03:30Z</time>
      </trkpt>
      <trkpt lat="47.88796" lon="6.88944">
        <ele>766</ele>
        <time>2022-11-02T15:03:31Z</time>
      </trkpt>
      <trkpt lat="47.88797" lon="6.88945">
        <ele>765.7</ele>
        <time>2022-11-02T15:03:32Z</time>
      </trkpt>
      <trkpt lat="47.88798" lon="6.88946">
        <ele>765.4</ele>
        <time>2022-11-02T15:03:33Z</time>
      </trkpt>
      <trkpt lat="47.88798" lon="6.88947">
        <ele>765.7</ele>
        <time>2022-11-02T15:03:34Z</time>
      </trkpt>
      <trkpt lat="47.88799" lon="6.88949">
        <ele>765.6</ele>
        <time>2022-11-02T15:03:35Z</time>
      </trkpt>
      <trkpt lat="47.888" lon="6.8895">
        <ele>765.3</ele>
        <time>2022-11-02T15:03:36Z</time>
      </trkpt>
      <trkpt lat="47.88802" lon="6.88951">
        <ele>764.5</ele>
        <time>2022-11-02T15:03:37Z</time>
      </trkpt>
      <trkpt lat="47.88803" lon="6.88952">
        <ele>764.2</ele>
        <time>2022-11-02T15:03:38Z</time>
      </trkpt>
      <trkpt lat="47.88803" lon="6.88953">
        <ele>764.5</ele>
        <time>2022-11-02T15:03:39Z</time>
      </trkpt>
      <trkpt lat="47.88804" lon="6.88954">
        <ele>764.2</ele>
        <time>2022-11-02T15:03:40Z</time>
      </trkpt>
      <trkpt lat="47.88804" lon="6.88956">
        <ele>764.7</ele>
        <time>2022-11-02T15:03:41Z</time>
      </trkpt>
      <trkpt lat="47.88805" lon="6.88957">
        <ele>764.4</ele>
        <time>2022-11-02T15:03:42Z</time>
      </trkpt>
      <trkpt lat="47.88805" lon="6.88958">
        <ele>764.7</ele>
        <time>2022-11-02T15:03:43Z</time>
      </trkpt>
      <trkpt lat="47.88805" lon="6.88959">
        <ele>764.9</ele>
        <time>2022-11-02T15:03:44Z</time>
      </trkpt>
      <trkpt lat="47.88806" lon="6.88961">
        <ele>765</ele>
        <time>2022-11-02T15:03:45Z</time>
      </trkpt>
      <trkpt lat="47.88806" lon="6.88962">
        <ele>765.3</ele>
        <time>2022-11-02T15:03:46Z</time>
      </trkpt>
      <trkpt lat="47.88807" lon="6.88964">
        <ele>765.4</ele>
        <time>2022-11-02T15:03:47Z</time>
      </trkpt>
      <trkpt lat="47.88807" lon="6.88965">
        <ele>765.6</ele>
        <time>2022-11-02T15:03:48Z</time>
      </trkpt>
      <trkpt lat="47.88808" lon="6.88967">
        <ele>765.8</ele>
        <time>2022-11-02T15:03:49Z</time>
      </trkpt>
      <trkpt lat="47.88809" lon="6.88968">
        <ele>765.7</ele>
        <time>2022-11-02T15:03:50Z</time>
      </trkpt>
      <trkpt lat="47.8881" lon="6.8897">
        <ele>765.8</ele>
        <time>2022-11-02T15:03:51Z</time>
      </trkpt>
      <trkpt lat="47.88811" lon="6.88971">
        <ele>765.7</ele>
        <time>2022-11-02T15:03:52Z</time>
      </trkpt>
      <trkpt lat="47.88812" lon="6.88973">
        <ele>765.8</ele>
        <time>2022-11-02T15:03:53Z</time>
      </trkpt>
      <trkpt lat="47.88813" lon="6.88974">
        <ele>765.7</ele>
        <time>2022-11-02T15:03:54Z</time>
      </trkpt>
      <trkpt lat="47.88814" lon="6.88976">
        <ele>765.7</ele>
        <time>2022-11-02T15:03:55Z</time>
      </trkpt>
      <trkpt lat="47.88816" lon="6.88977">
        <ele>765.2</ele>
        <time>2022-11-02T15:03:56Z</time>
      </trkpt>
      <trkpt lat="47.88817" lon="6.88979">
        <ele>765.2</ele>
        <time>2022-11-02T15:03:57Z</time>
      </trkpt>
      <trkpt lat="47.88818" lon="6.8898">
        <ele>765.1</ele>
        <time>2022-11-02T15:03:58Z</time>
      </trkpt>
      <trkpt lat="47.8882" lon="6.88982">
        <ele>764.7</ele>
        <time>2022-11-02T15:03:59Z</time>
      </trkpt>
      <trkpt lat="47.88821" lon="6.88983">
        <ele>764.6</ele>
        <time>2022-11-02T15:04:00Z</time>
      </trkpt>
      <trkpt lat="47.88822" lon="6.88984">
        <ele>764.4</ele>
        <time>2022-11-02T15:04:01Z</time>
      </trkpt>
      <trkpt lat="47.88824" lon="6.88986">
        <ele>764</ele>
        <time>2022-11-02T15:04:02Z</time>
      </trkpt>
      <trkpt lat="47.88824" lon="6.88988">
        <ele>764.4</ele>
        <time>2022-11-02T15:04:03Z</time>
      </trkpt>
      <trkpt lat="47.88825" lon="6.88989">
        <ele>764.2</ele>
        <time>2022-11-02T15:04:04Z</time>
      </trkpt>
      <trkpt lat="47.88825" lon="6.88991">
        <ele>764.6</ele>
        <time>2022-11-02T15:04:05Z</time>
      </trkpt>
      <trkpt lat="47.88826" lon="6.88992">
        <ele>764.4</ele>
        <time>2022-11-02T15:04:06Z</time>
      </trkpt>
      <trkpt lat="47.88826" lon="6.88994">
        <ele>764.8</ele>
        <time>2022-11-02T15:04:07Z</time>
      </trkpt>
      <trkpt lat="47.88827" lon="6.88995">
        <ele>764.6</ele>
        <time>2022-11-02T15:04:08Z</time>
      </trkpt>
      <trkpt lat="47.88827" lon="6.88997">
        <ele>764.9</ele>
        <time>2022-11-02T15:04:09Z</time>
      </trkpt>
      <trkpt lat="47.88827" lon="6.88998">
        <ele>765.1</ele>
        <time>2022-11-02T15:04:10Z</time>
      </trkpt>
      <trkpt lat="47.88828" lon="6.89">
        <ele>765.1</ele>
        <time>2022-11-02T15:04:11Z</time>
      </trkpt>
      <trkpt lat="47.88828" lon="6.89001">
        <ele>765.3</ele>
        <time>2022-11-02T15:04:12Z</time>
      </trkpt>
      <trkpt lat="47.88828" lon="6.89002">
        <ele>765.5</ele>
        <time>2022-11-02T15:04:13Z</time>
      </trkpt>
      <trkpt lat="47.88828" lon="6.89003">
        <ele>765.7</ele>
        <time>2022-11-02T15:04:14Z</time>
      </trkpt>
      <trkpt lat="47.88828" lon="6.89004">
        <ele>765.9</ele>
        <time>2022-11-02T15:04:15Z</time>
      </trkpt>
      <trkpt lat="47.88829" lon="6.89004">
        <ele>765.5</ele>
        <time>2022-11-02T15:04:17Z</time>
      </trkpt>
      <trkpt lat="47.8883" lon="6.89004">
        <ele>765.1</ele>
        <time>2022-11-02T15:04:18Z</time>
      </trkpt>
      <trkpt lat="47.88831" lon="6.89004">
        <ele>764.8</ele>
        <time>2022-11-02T15:04:19Z</time>
      </trkpt>
      <trkpt lat="47.88832" lon="6.89003">
        <ele>764.2</ele>
        <time>2022-11-02T15:04:20Z</time>
      </trkpt>
      <trkpt lat="47.88833" lon="6.89003">
        <ele>763.8</ele>
        <time>2022-11-02T15:04:21Z</time>
      </trkpt>
      <trkpt lat="47.88834" lon="6.89003">
        <ele>763.3</ele>
        <time>2022-11-02T15:04:22Z</time>
      </trkpt>
      <trkpt lat="47.88835" lon="6.89003">
        <ele>762.9</ele>
        <time>2022-11-02T15:04:23Z</time>
      </trkpt>
      <trkpt lat="47.88836" lon="6.89003">
        <ele>762.4</ele>
        <time>2022-11-02T15:04:24Z</time>
      </trkpt>
      <trkpt lat="47.88836" lon="6.89002">
        <ele>762.2</ele>
        <time>2022-11-02T15:04:25Z</time>
      </trkpt>
      <trkpt lat="47.88837" lon="6.89001">
        <ele>761.6</ele>
        <time>2022-11-02T15:04:26Z</time>
      </trkpt>
      <trkpt lat="47.88838" lon="6.89">
        <ele>761</ele>
        <time>2022-11-02T15:04:27Z</time>
      </trkpt>
      <trkpt lat="47.88839" lon="6.88999">
        <ele>760.4</ele>
        <time>2022-11-02T15:04:29Z</time>
      </trkpt>
      <trkpt lat="47.88839" lon="6.88998">
        <ele>760.2</ele>
        <time>2022-11-02T15:04:31Z</time>
      </trkpt>
      <trkpt lat="47.88839" lon="6.88997">
        <ele>760.1</ele>
        <time>2022-11-02T15:04:32Z</time>
      </trkpt>
      <trkpt lat="47.8884" lon="6.88997">
        <ele>759.7</ele>
        <time>2022-11-02T15:04:33Z</time>
      </trkpt>
      <trkpt lat="47.8884" lon="6.88996">
        <ele>759.5</ele>
        <time>2022-11-02T15:04:34Z</time>
      </trkpt>
      <trkpt lat="47.88839" lon="6.88995">
        <ele>759.8</ele>
        <time>2022-11-02T15:04:35Z</time>
      </trkpt>
      <trkpt lat="47.88839" lon="6.88994">
        <ele>759.6</ele>
        <time>2022-11-02T15:04:36Z</time>
      </trkpt>
      <trkpt lat="47.88839" lon="6.88993">
        <ele>759.4</ele>
        <time>2022-11-02T15:04:37Z</time>
      </trkpt>
      <trkpt lat="47.88838" lon="6.88993">
        <ele>759.9</ele>
        <time>2022-11-02T15:04:38Z</time>
      </trkpt>
      <trkpt lat="47.88838" lon="6.88992">
        <ele>759.7</ele>
        <time>2022-11-02T15:04:39Z</time>
      </trkpt>
      <trkpt lat="47.88837" lon="6.88991">
        <ele>759.9</ele>
        <time>2022-11-02T15:04:40Z</time>
      </trkpt>
      <trkpt lat="47.88836" lon="6.8899">
        <ele>760.2</ele>
        <time>2022-11-02T15:04:42Z</time>
      </trkpt>
      <trkpt lat="47.88836" lon="6.88989">
        <ele>760</ele>
        <time>2022-11-02T15:04:43Z</time>
      </trkpt>
      <trkpt lat="47.88835" lon="6.88989">
        <ele>760.4</ele>
        <time>2022-11-02T15:04:44Z</time>
      </trkpt>
      <trkpt lat="47.88835" lon="6.88988">
        <ele>760.2</ele>
        <time>2022-11-02T15:04:45Z</time>
      </trkpt>
      <trkpt lat="47.88834" lon="6.88987">
        <ele>760.4</ele>
        <time>2022-11-02T15:04:46Z</time>
      </trkpt>
      <trkpt lat="47.88834" lon="6.88986">
        <ele>760.2</ele>
        <time>2022-11-02T15:04:47Z</time>
      </trkpt>
      <trkpt lat="47.88833" lon="6.88985">
        <ele>760.4</ele>
        <time>2022-11-02T15:04:48Z</time>
      </trkpt>
      <trkpt lat="47.88833" lon="6.88984">
        <ele>760.2</ele>
        <time>2022-11-02T15:04:49Z</time>
      </trkpt>
      <trkpt lat="47.88832" lon="6.88983">
        <ele>760.4</ele>
        <time>2022-11-02T15:04:50Z</time>
      </trkpt>
      <trkpt lat="47.88831" lon="6.88982">
        <ele>760.6</ele>
        <time>2022-11-02T15:04:52Z</time>
      </trkpt>
      <trkpt lat="47.88831" lon="6.88981">
        <ele>760.4</ele>
        <time>2022-11-02T15:04:53Z</time>
      </trkpt>
      <trkpt lat="47.8883" lon="6.8898">
        <ele>760.6</ele>
        <time>2022-11-02T15:04:54Z</time>
      </trkpt>
      <trkpt lat="47.88829" lon="6.88979">
        <ele>760.8</ele>
        <time>2022-11-02T15:04:55Z</time>
      </trkpt>
      <trkpt lat="47.88828" lon="6.88978">
        <ele>761</ele>
        <time>2022-11-02T15:04:56Z</time>
      </trkpt>
      <trkpt lat="47.88827" lon="6.88977">
        <ele>761.2</ele>
        <time>2022-11-02T15:04:57Z</time>
      </trkpt>
      <trkpt lat="47.88826" lon="6.88976">
        <ele>761.4</ele>
        <time>2022-11-02T15:04:58Z</time>
      </trkpt>
      <trkpt lat="47.88825" lon="6.88975">
        <ele>761.5</ele>
        <time>2022-11-02T15:04:59Z</time>
      </trkpt>
      <trkpt lat="47.88824" lon="6.88974">
        <ele>761.7</ele>
        <time>2022-11-02T15:05:00Z</time>
      </trkpt>
      <trkpt lat="47.88823" lon="6.88974">
        <ele>762.1</ele>
        <time>2022-11-02T15:05:01Z</time>
      </trkpt>
      <trkpt lat="47.88822" lon="6.88973">
        <ele>762.2</ele>
        <time>2022-11-02T15:05:02Z</time>
      </trkpt>
      <trkpt lat="47.88821" lon="6.88973">
        <ele>762.6</ele>
        <time>2022-11-02T15:05:03Z</time>
      </trkpt>
      <trkpt lat="47.8882" lon="6.88972">
        <ele>762.7</ele>
        <time>2022-11-02T15:05:04Z</time>
      </trkpt>
      <trkpt lat="47.88819" lon="6.88971">
        <ele>762.8</ele>
        <time>2022-11-02T15:05:05Z</time>
      </trkpt>
      <trkpt lat="47.88818" lon="6.88969">
        <ele>762.6</ele>
        <time>2022-11-02T15:05:06Z</time>
      </trkpt>
      <trkpt lat="47.88817" lon="6.88968">
        <ele>762.7</ele>
        <time>2022-11-02T15:05:07Z</time>
      </trkpt>
      <trkpt lat="47.88817" lon="6.88966">
        <ele>762.1</ele>
        <time>2022-11-02T15:05:08Z</time>
      </trkpt>
      <trkpt lat="47.88816" lon="6.88965">
        <ele>762.2</ele>
        <time>2022-11-02T15:05:09Z</time>
      </trkpt>
      <trkpt lat="47.88815" lon="6.88963">
        <ele>762.1</ele>
        <time>2022-11-02T15:05:10Z</time>
      </trkpt>
      <trkpt lat="47.88814" lon="6.88961">
        <ele>761.9</ele>
        <time>2022-11-02T15:05:11Z</time>
      </trkpt>
      <trkpt lat="47.88814" lon="6.8896">
        <ele>761.6</ele>
        <time>2022-11-02T15:05:12Z</time>
      </trkpt>
      <trkpt lat="47.88813" lon="6.88959">
        <ele>761.7</ele>
        <time>2022-11-02T15:05:13Z</time>
      </trkpt>
      <trkpt lat="47.88813" lon="6.88957">
        <ele>761.2</ele>
        <time>2022-11-02T15:05:14Z</time>
      </trkpt>
      <trkpt lat="47.88813" lon="6.88955">
        <ele>760.6</ele>
        <time>2022-11-02T15:05:15Z</time>
      </trkpt>
      <trkpt lat="47.88813" lon="6.88954">
        <ele>760.4</ele>
        <time>2022-11-02T15:05:16Z</time>
      </trkpt>
      <trkpt lat="47.88813" lon="6.88952">
        <ele>759.8</ele>
        <time>2022-11-02T15:05:17Z</time>
      </trkpt>
      <trkpt lat="47.88812" lon="6.88951">
        <ele>760</ele>
        <time>2022-11-02T15:05:18Z</time>
      </trkpt>
      <trkpt lat="47.88812" lon="6.88949">
        <ele>759.4</ele>
        <time>2022-11-02T15:05:19Z</time>
      </trkpt>
      <trkpt lat="47.88813" lon="6.88948">
        <ele>758.7</ele>
        <time>2022-11-02T15:05:20Z</time>
      </trkpt>
      <trkpt lat="47.88813" lon="6.88947">
        <ele>758.5</ele>
        <time>2022-11-02T15:05:21Z</time>
      </trkpt>
      <trkpt lat="47.88813" lon="6.88945">
        <ele>757.9</ele>
        <time>2022-11-02T15:05:22Z</time>
      </trkpt>
      <trkpt lat="47.88813" lon="6.88944">
        <ele>757.7</ele>
        <time>2022-11-02T15:05:23Z</time>
      </trkpt>
      <trkpt lat="47.88813" lon="6.88942">
        <ele>757.2</ele>
        <time>2022-11-02T15:05:24Z</time>
      </trkpt>
      <trkpt lat="47.88812" lon="6.88941">
        <ele>757.3</ele>
        <time>2022-11-02T15:05:25Z</time>
      </trkpt>
      <trkpt lat="47.88812" lon="6.8894">
        <ele>757.1</ele>
        <time>2022-11-02T15:05:26Z</time>
      </trkpt>
      <trkpt lat="47.88811" lon="6.88939">
        <ele>757.3</ele>
        <time>2022-11-02T15:05:27Z</time>
      </trkpt>
      <trkpt lat="47.88811" lon="6.88938">
        <ele>757</ele>
        <time>2022-11-02T15:05:28Z</time>
      </trkpt>
      <trkpt lat="47.8881" lon="6.88937">
        <ele>757.2</ele>
        <time>2022-11-02T15:05:29Z</time>
      </trkpt>
      <trkpt lat="47.8881" lon="6.88936">
        <ele>757</ele>
        <time>2022-11-02T15:05:31Z</time>
      </trkpt>
      <trkpt lat="47.8881" lon="6.88935">
        <ele>756.7</ele>
        <time>2022-11-02T15:05:32Z</time>
      </trkpt>
      <trkpt lat="47.88809" lon="6.88934">
        <ele>756.9</ele>
        <time>2022-11-02T15:05:33Z</time>
      </trkpt>
      <trkpt lat="47.88809" lon="6.88933">
        <ele>756.6</ele>
        <time>2022-11-02T15:05:34Z</time>
      </trkpt>
      <trkpt lat="47.88809" lon="6.88932">
        <ele>756.4</ele>
        <time>2022-11-02T15:05:35Z</time>
      </trkpt>
      <trkpt lat="47.88808" lon="6.8893">
        <ele>756.3</ele>
        <time>2022-11-02T15:05:36Z</time>
      </trkpt>
      <trkpt lat="47.88808" lon="6.88929">
        <ele>756.1</ele>
        <time>2022-11-02T15:05:37Z</time>
      </trkpt>
      <trkpt lat="47.88807" lon="6.88928">
        <ele>756.2</ele>
        <time>2022-11-02T15:05:38Z</time>
      </trkpt>
      <trkpt lat="47.88806" lon="6.88927">
        <ele>756.4</ele>
        <time>2022-11-02T15:05:39Z</time>
      </trkpt>
      <trkpt lat="47.88806" lon="6.88926">
        <ele>756.2</ele>
        <time>2022-11-02T15:05:40Z</time>
      </trkpt>
      <trkpt lat="47.88805" lon="6.88925">
        <ele>756.4</ele>
        <time>2022-11-02T15:05:41Z</time>
      </trkpt>
      <trkpt lat="47.88804" lon="6.88923">
        <ele>756.3</ele>
        <time>2022-11-02T15:05:42Z</time>
      </trkpt>
      <trkpt lat="47.88803" lon="6.88922">
        <ele>756.6</ele>
        <time>2022-11-02T15:05:43Z</time>
      </trkpt>
      <trkpt lat="47.88802" lon="6.88921">
        <ele>756.8</ele>
        <time>2022-11-02T15:05:44Z</time>
      </trkpt>
      <trkpt lat="47.88802" lon="6.88919">
        <ele>756.3</ele>
        <time>2022-11-02T15:05:45Z</time>
      </trkpt>
      <trkpt lat="47.88801" lon="6.88918">
        <ele>756.5</ele>
        <time>2022-11-02T15:05:46Z</time>
      </trkpt>
      <trkpt lat="47.88801" lon="6.88917">
        <ele>756.2</ele>
        <time>2022-11-02T15:05:47Z</time>
      </trkpt>
      <trkpt lat="47.888" lon="6.88915">
        <ele>756.2</ele>
        <time>2022-11-02T15:05:48Z</time>
      </trkpt>
      <trkpt lat="47.88799" lon="6.88914">
        <ele>756.4</ele>
        <time>2022-11-02T15:05:49Z</time>
      </trkpt>
      <trkpt lat="47.88798" lon="6.88913">
        <ele>756.5</ele>
        <time>2022-11-02T15:05:50Z</time>
      </trkpt>
      <trkpt lat="47.88797" lon="6.88912">
        <ele>756.7</ele>
        <time>2022-11-02T15:05:51Z</time>
      </trkpt>
      <trkpt lat="47.88796" lon="6.88911">
        <ele>756.8</ele>
        <time>2022-11-02T15:05:52Z</time>
      </trkpt>
      <trkpt lat="47.88796" lon="6.8891">
        <ele>756.5</ele>
        <time>2022-11-02T15:05:53Z</time>
      </trkpt>
      <trkpt lat="47.88795" lon="6.88909">
        <ele>756.7</ele>
        <time>2022-11-02T15:05:54Z</time>
      </trkpt>
      <trkpt lat="47.88794" lon="6.88908">
        <ele>756.8</ele>
        <time>2022-11-02T15:05:55Z</time>
      </trkpt>
      <trkpt lat="47.88793" lon="6.88907">
        <ele>756.8</ele>
        <time>2022-11-02T15:05:56Z</time>
      </trkpt>
      <trkpt lat="47.88792" lon="6.88906">
        <ele>756.9</ele>
        <time>2022-11-02T15:05:57Z</time>
      </trkpt>
      <trkpt lat="47.8879" lon="6.88905">
        <ele>757.3</ele>
        <time>2022-11-02T15:05:58Z</time>
      </trkpt>
      <trkpt lat="47.88789" lon="6.88904">
        <ele>757.4</ele>
        <time>2022-11-02T15:05:59Z</time>
      </trkpt>
      <trkpt lat="47.88787" lon="6.88904">
        <ele>758.1</ele>
        <time>2022-11-02T15:06:00Z</time>
      </trkpt>
      <trkpt lat="47.88786" lon="6.88902">
        <ele>757.8</ele>
        <time>2022-11-02T15:06:01Z</time>
      </trkpt>
      <trkpt lat="47.88785" lon="6.88901">
        <ele>757.7</ele>
        <time>2022-11-02T15:06:02Z</time>
      </trkpt>
      <trkpt lat="47.88785" lon="6.889">
        <ele>757.4</ele>
        <time>2022-11-02T15:06:03Z</time>
      </trkpt>
      <trkpt lat="47.88784" lon="6.88898">
        <ele>756.9</ele>
        <time>2022-11-02T15:06:04Z</time>
      </trkpt>
      <trkpt lat="47.88783" lon="6.88897">
        <ele>756.9</ele>
        <time>2022-11-02T15:06:05Z</time>
      </trkpt>
      <trkpt lat="47.88782" lon="6.88895">
        <ele>756.4</ele>
        <time>2022-11-02T15:06:06Z</time>
      </trkpt>
      <trkpt lat="47.88782" lon="6.88894">
        <ele>756</ele>
        <time>2022-11-02T15:06:07Z</time>
      </trkpt>
      <trkpt lat="47.88781" lon="6.88893">
        <ele>755.9</ele>
        <time>2022-11-02T15:06:08Z</time>
      </trkpt>
      <trkpt lat="47.88781" lon="6.88892">
        <ele>755.5</ele>
        <time>2022-11-02T15:06:09Z</time>
      </trkpt>
      <trkpt lat="47.8878" lon="6.8889">
        <ele>754.9</ele>
        <time>2022-11-02T15:06:10Z</time>
      </trkpt>
      <trkpt lat="47.8878" lon="6.88889">
        <ele>754.5</ele>
        <time>2022-11-02T15:06:11Z</time>
      </trkpt>
      <trkpt lat="47.8878" lon="6.88888">
        <ele>754.4</ele>
        <time>2022-11-02T15:06:12Z</time>
      </trkpt>
      <trkpt lat="47.8878" lon="6.88886">
        <ele>754.2</ele>
        <time>2022-11-02T15:06:13Z</time>
      </trkpt>
      <trkpt lat="47.8878" lon="6.88885">
        <ele>754.1</ele>
        <time>2022-11-02T15:06:14Z</time>
      </trkpt>
      <trkpt lat="47.8878" lon="6.88883">
        <ele>753.9</ele>
        <time>2022-11-02T15:06:15Z</time>
      </trkpt>
      <trkpt lat="47.8878" lon="6.88881">
        <ele>753.8</ele>
        <time>2022-11-02T15:06:16Z</time>
      </trkpt>
      <trkpt lat="47.8878" lon="6.8888">
        <ele>753.7</ele>
        <time>2022-11-02T15:06:17Z</time>
      </trkpt>
      <trkpt lat="47.8878" lon="6.88878">
        <ele>753.5</ele>
        <time>2022-11-02T15:06:18Z</time>
      </trkpt>
      <trkpt lat="47.88781" lon="6.88876">
        <ele>753</ele>
        <time>2022-11-02T15:06:19Z</time>
      </trkpt>
      <trkpt lat="47.88781" lon="6.88874">
        <ele>752.9</ele>
        <time>2022-11-02T15:06:20Z</time>
      </trkpt>
      <trkpt lat="47.88782" lon="6.88873">
        <ele>752.4</ele>
        <time>2022-11-02T15:06:21Z</time>
      </trkpt>
      <trkpt lat="47.88783" lon="6.88871">
        <ele>751.9</ele>
        <time>2022-11-02T15:06:22Z</time>
      </trkpt>
      <trkpt lat="47.88784" lon="6.8887">
        <ele>751.5</ele>
        <time>2022-11-02T15:06:23Z</time>
      </trkpt>
      <trkpt lat="47.88784" lon="6.88869">
        <ele>751.4</ele>
        <time>2022-11-02T15:06:24Z</time>
      </trkpt>
      <trkpt lat="47.88785" lon="6.88868">
        <ele>750.9</ele>
        <time>2022-11-02T15:06:25Z</time>
      </trkpt>
      <trkpt lat="47.88786" lon="6.88868">
        <ele>750.5</ele>
        <time>2022-11-02T15:06:26Z</time>
      </trkpt>
      <trkpt lat="47.88786" lon="6.88867">
        <ele>750.4</ele>
        <time>2022-11-02T15:06:27Z</time>
      </trkpt>
      <trkpt lat="47.88787" lon="6.88866">
        <ele>749.9</ele>
        <time>2022-11-02T15:06:28Z</time>
      </trkpt>
      <trkpt lat="47.88788" lon="6.88865">
        <ele>749.4</ele>
        <time>2022-11-02T15:06:29Z</time>
      </trkpt>
      <trkpt lat="47.88789" lon="6.88864">
        <ele>748.9</ele>
        <time>2022-11-02T15:06:30Z</time>
      </trkpt>
      <trkpt lat="47.8879" lon="6.88863">
        <ele>748.4</ele>
        <time>2022-11-02T15:06:32Z</time>
      </trkpt>
      <trkpt lat="47.88791" lon="6.88863">
        <ele>748</ele>
        <time>2022-11-02T15:06:34Z</time>
      </trkpt>
      <trkpt lat="47.88792" lon="6.88864">
        <ele>747.8</ele>
        <time>2022-11-02T15:06:35Z</time>
      </trkpt>
      <trkpt lat="47.88793" lon="6.88865">
        <ele>747.6</ele>
        <time>2022-11-02T15:06:36Z</time>
      </trkpt>
      <trkpt lat="47.88794" lon="6.88865">
        <ele>747.2</ele>
        <time>2022-11-02T15:06:37Z</time>
      </trkpt>
      <trkpt lat="47.88795" lon="6.88865">
        <ele>746.8</ele>
        <time>2022-11-02T15:06:39Z</time>
      </trkpt>
      <trkpt lat="47.88796" lon="6.88865">
        <ele>746.4</ele>
        <time>2022-11-02T15:06:40Z</time>
      </trkpt>
      <trkpt lat="47.88797" lon="6.88866">
        <ele>746.2</ele>
        <time>2022-11-02T15:06:42Z</time>
      </trkpt>
      <trkpt lat="47.88798" lon="6.88868">
        <ele>746.2</ele>
        <time>2022-11-02T15:06:48Z</time>
      </trkpt>
      <trkpt lat="47.88799" lon="6.88868">
        <ele>745.8</ele>
        <time>2022-11-02T15:06:49Z</time>
      </trkpt>
      <trkpt lat="47.88799" lon="6.88869">
        <ele>746</ele>
        <time>2022-11-02T15:06:50Z</time>
      </trkpt>
      <trkpt lat="47.88799" lon="6.8887">
        <ele>746.2</ele>
        <time>2022-11-02T15:06:51Z</time>
      </trkpt>
      <trkpt lat="47.888" lon="6.8887">
        <ele>745.9</ele>
        <time>2022-11-02T15:06:52Z</time>
      </trkpt>
      <trkpt lat="47.888" lon="6.88871">
        <ele>746.1</ele>
        <time>2022-11-02T15:06:53Z</time>
      </trkpt>
      <trkpt lat="47.888" lon="6.88872">
        <ele>746.2</ele>
        <time>2022-11-02T15:06:54Z</time>
      </trkpt>
      <trkpt lat="47.88801" lon="6.88873">
        <ele>746.1</ele>
        <time>2022-11-02T15:06:55Z</time>
      </trkpt>
      <trkpt lat="47.88801" lon="6.88875">
        <ele>746.5</ele>
        <time>2022-11-02T15:06:56Z</time>
      </trkpt>
      <trkpt lat="47.88802" lon="6.88876">
        <ele>746.3</ele>
        <time>2022-11-02T15:06:57Z</time>
      </trkpt>
      <trkpt lat="47.88802" lon="6.88877">
        <ele>746.5</ele>
        <time>2022-11-02T15:06:58Z</time>
      </trkpt>
      <trkpt lat="47.88802" lon="6.88878">
        <ele>746.7</ele>
        <time>2022-11-02T15:06:59Z</time>
      </trkpt>
      <trkpt lat="47.88803" lon="6.88879">
        <ele>746.6</ele>
        <time>2022-11-02T15:07:00Z</time>
      </trkpt>
      <trkpt lat="47.88803" lon="6.8888">
        <ele>746.8</ele>
        <time>2022-11-02T15:07:01Z</time>
      </trkpt>
      <trkpt lat="47.88804" lon="6.88882">
        <ele>747</ele>
        <time>2022-11-02T15:07:02Z</time>
      </trkpt>
      <trkpt lat="47.88804" lon="6.88883">
        <ele>747.2</ele>
        <time>2022-11-02T15:07:03Z</time>
      </trkpt>
      <trkpt lat="47.88805" lon="6.88885">
        <ele>747.3</ele>
        <time>2022-11-02T15:07:04Z</time>
      </trkpt>
      <trkpt lat="47.88806" lon="6.88885">
        <ele>746.9</ele>
        <time>2022-11-02T15:07:05Z</time>
      </trkpt>
      <trkpt lat="47.88806" lon="6.88886">
        <ele>747.2</ele>
        <time>2022-11-02T15:07:06Z</time>
      </trkpt>
      <trkpt lat="47.88807" lon="6.88887">
        <ele>746.9</ele>
        <time>2022-11-02T15:07:07Z</time>
      </trkpt>
      <trkpt lat="47.88808" lon="6.88888">
        <ele>746.7</ele>
        <time>2022-11-02T15:07:08Z</time>
      </trkpt>
      <trkpt lat="47.88808" lon="6.88889">
        <ele>746.9</ele>
        <time>2022-11-02T15:07:09Z</time>
      </trkpt>
      <trkpt lat="47.88809" lon="6.88889">
        <ele>746.4</ele>
        <time>2022-11-02T15:07:10Z</time>
      </trkpt>
      <trkpt lat="47.8881" lon="6.8889">
        <ele>746.2</ele>
        <time>2022-11-02T15:07:11Z</time>
      </trkpt>
      <trkpt lat="47.88811" lon="6.88891">
        <ele>745.9</ele>
        <time>2022-11-02T15:07:12Z</time>
      </trkpt>
      <trkpt lat="47.88811" lon="6.88892">
        <ele>746.1</ele>
        <time>2022-11-02T15:07:13Z</time>
      </trkpt>
      <trkpt lat="47.88812" lon="6.88893">
        <ele>745.9</ele>
        <time>2022-11-02T15:07:14Z</time>
      </trkpt>
      <trkpt lat="47.88813" lon="6.88894">
        <ele>745.7</ele>
        <time>2022-11-02T15:07:15Z</time>
      </trkpt>
      <trkpt lat="47.88814" lon="6.88896">
        <ele>745.7</ele>
        <time>2022-11-02T15:07:16Z</time>
      </trkpt>
      <trkpt lat="47.88814" lon="6.88898">
        <ele>746.1</ele>
        <time>2022-11-02T15:07:17Z</time>
      </trkpt>
      <trkpt lat="47.88815" lon="6.889">
        <ele>746.1</ele>
        <time>2022-11-02T15:07:18Z</time>
      </trkpt>
      <trkpt lat="47.88816" lon="6.88902">
        <ele>746.1</ele>
        <time>2022-11-02T15:07:19Z</time>
      </trkpt>
      <trkpt lat="47.88817" lon="6.88904">
        <ele>746.1</ele>
        <time>2022-11-02T15:07:20Z</time>
      </trkpt>
      <trkpt lat="47.88817" lon="6.88906">
        <ele>746.6</ele>
        <time>2022-11-02T15:07:21Z</time>
      </trkpt>
      <trkpt lat="47.88818" lon="6.88908">
        <ele>746.6</ele>
        <time>2022-11-02T15:07:22Z</time>
      </trkpt>
      <trkpt lat="47.88819" lon="6.8891">
        <ele>746.6</ele>
        <time>2022-11-02T15:07:23Z</time>
      </trkpt>
      <trkpt lat="47.8882" lon="6.88913">
        <ele>746.9</ele>
        <time>2022-11-02T15:07:24Z</time>
      </trkpt>
      <trkpt lat="47.88821" lon="6.88914">
        <ele>746.7</ele>
        <time>2022-11-02T15:07:25Z</time>
      </trkpt>
      <trkpt lat="47.88822" lon="6.88916">
        <ele>746.7</ele>
        <time>2022-11-02T15:07:26Z</time>
      </trkpt>
      <trkpt lat="47.88823" lon="6.88917">
        <ele>746.5</ele>
        <time>2022-11-02T15:07:27Z</time>
      </trkpt>
      <trkpt lat="47.88824" lon="6.88918">
        <ele>746.4</ele>
        <time>2022-11-02T15:07:28Z</time>
      </trkpt>
      <trkpt lat="47.88825" lon="6.88918">
        <ele>745.9</ele>
        <time>2022-11-02T15:07:29Z</time>
      </trkpt>
      <trkpt lat="47.88826" lon="6.88919">
        <ele>745.8</ele>
        <time>2022-11-02T15:07:30Z</time>
      </trkpt>
      <trkpt lat="47.88827" lon="6.8892">
        <ele>745.6</ele>
        <time>2022-11-02T15:07:31Z</time>
      </trkpt>
      <trkpt lat="47.88828" lon="6.88921">
        <ele>745.4</ele>
        <time>2022-11-02T15:07:32Z</time>
      </trkpt>
      <trkpt lat="47.88829" lon="6.88922">
        <ele>745.2</ele>
        <time>2022-11-02T15:07:33Z</time>
      </trkpt>
      <trkpt lat="47.8883" lon="6.88923">
        <ele>745</ele>
        <time>2022-11-02T15:07:34Z</time>
      </trkpt>
      <trkpt lat="47.88831" lon="6.88924">
        <ele>744.9</ele>
        <time>2022-11-02T15:07:35Z</time>
      </trkpt>
      <trkpt lat="47.88831" lon="6.88925">
        <ele>745.1</ele>
        <time>2022-11-02T15:07:36Z</time>
      </trkpt>
      <trkpt lat="47.88832" lon="6.88926">
        <ele>744.9</ele>
        <time>2022-11-02T15:07:37Z</time>
      </trkpt>
      <trkpt lat="47.88833" lon="6.88927">
        <ele>744.7</ele>
        <time>2022-11-02T15:07:38Z</time>
      </trkpt>
      <trkpt lat="47.88835" lon="6.88927">
        <ele>744.1</ele>
        <time>2022-11-02T15:07:39Z</time>
      </trkpt>
      <trkpt lat="47.88836" lon="6.88928">
        <ele>744.1</ele>
        <time>2022-11-02T15:07:40Z</time>
      </trkpt>
      <trkpt lat="47.88837" lon="6.88929">
        <ele>744.1</ele>
        <time>2022-11-02T15:07:41Z</time>
      </trkpt>
      <trkpt lat="47.88838" lon="6.88929">
        <ele>743.8</ele>
        <time>2022-11-02T15:07:42Z</time>
      </trkpt>
      <trkpt lat="47.88839" lon="6.88929">
        <ele>743.6</ele>
        <time>2022-11-02T15:07:43Z</time>
      </trkpt>
      <trkpt lat="47.8884" lon="6.88929">
        <ele>743.3</ele>
        <time>2022-11-02T15:07:45Z</time>
      </trkpt>
      <trkpt lat="47.88841" lon="6.88929">
        <ele>743</ele>
        <time>2022-11-02T15:07:46Z</time>
      </trkpt>
      <trkpt lat="47.88842" lon="6.88929">
        <ele>742.8</ele>
        <time>2022-11-02T15:07:47Z</time>
      </trkpt>
      <trkpt lat="47.88842" lon="6.88928">
        <ele>742.5</ele>
        <time>2022-11-02T15:07:48Z</time>
      </trkpt>
      <trkpt lat="47.88843" lon="6.88929">
        <ele>742.5</ele>
        <time>2022-11-02T15:07:49Z</time>
      </trkpt>
      <trkpt lat="47.88844" lon="6.88929">
        <ele>742.2</ele>
        <time>2022-11-02T15:07:50Z</time>
      </trkpt>
      <trkpt lat="47.88844" lon="6.8893">
        <ele>742.5</ele>
        <time>2022-11-02T15:07:51Z</time>
      </trkpt>
      <trkpt lat="47.88845" lon="6.88931">
        <ele>742.5</ele>
        <time>2022-11-02T15:07:52Z</time>
      </trkpt>
      <trkpt lat="47.88846" lon="6.88931">
        <ele>742.2</ele>
        <time>2022-11-02T15:07:53Z</time>
      </trkpt>
      <trkpt lat="47.88846" lon="6.88932">
        <ele>742.5</ele>
        <time>2022-11-02T15:07:54Z</time>
      </trkpt>
      <trkpt lat="47.88847" lon="6.88932">
        <ele>742.2</ele>
        <time>2022-11-02T15:07:55Z</time>
      </trkpt>
      <trkpt lat="47.88848" lon="6.88933">
        <ele>742.2</ele>
        <time>2022-11-02T15:07:56Z</time>
      </trkpt>
      <trkpt lat="47.88849" lon="6.88933">
        <ele>741.9</ele>
        <time>2022-11-02T15:07:57Z</time>
      </trkpt>
      <trkpt lat="47.8885" lon="6.88934">
        <ele>741.9</ele>
        <time>2022-11-02T15:07:58Z</time>
      </trkpt>
      <trkpt lat="47.88851" lon="6.88935">
        <ele>742</ele>
        <time>2022-11-02T15:07:59Z</time>
      </trkpt>
      <trkpt lat="47.88852" lon="6.88936">
        <ele>742</ele>
        <time>2022-11-02T15:08:00Z</time>
      </trkpt>
      <trkpt lat="47.88853" lon="6.88937">
        <ele>742</ele>
        <time>2022-11-02T15:08:01Z</time>
      </trkpt>
      <trkpt lat="47.88854" lon="6.88938">
        <ele>742</ele>
        <time>2022-11-02T15:08:02Z</time>
      </trkpt>
      <trkpt lat="47.88855" lon="6.88938">
        <ele>741.7</ele>
        <time>2022-11-02T15:08:03Z</time>
      </trkpt>
      <trkpt lat="47.88855" lon="6.88939">
        <ele>742</ele>
        <time>2022-11-02T15:08:04Z</time>
      </trkpt>
      <trkpt lat="47.88856" lon="6.8894">
        <ele>742</ele>
        <time>2022-11-02T15:08:05Z</time>
      </trkpt>
      <trkpt lat="47.88857" lon="6.8894">
        <ele>741.8</ele>
        <time>2022-11-02T15:08:06Z</time>
      </trkpt>
      <trkpt lat="47.88859" lon="6.88941">
        <ele>741.5</ele>
        <time>2022-11-02T15:08:07Z</time>
      </trkpt>
      <trkpt lat="47.8886" lon="6.88942">
        <ele>741.6</ele>
        <time>2022-11-02T15:08:08Z</time>
      </trkpt>
      <trkpt lat="47.88861" lon="6.88943">
        <ele>741.6</ele>
        <time>2022-11-02T15:08:09Z</time>
      </trkpt>
      <trkpt lat="47.88862" lon="6.88944">
        <ele>741.5</ele>
        <time>2022-11-02T15:08:10Z</time>
      </trkpt>
      <trkpt lat="47.88863" lon="6.88945">
        <ele>741.4</ele>
        <time>2022-11-02T15:08:11Z</time>
      </trkpt>
      <trkpt lat="47.88864" lon="6.88947">
        <ele>741.5</ele>
        <time>2022-11-02T15:08:12Z</time>
      </trkpt>
      <trkpt lat="47.88865" lon="6.88948">
        <ele>741.3</ele>
        <time>2022-11-02T15:08:13Z</time>
      </trkpt>
      <trkpt lat="47.88866" lon="6.8895">
        <ele>741.3</ele>
        <time>2022-11-02T15:08:14Z</time>
      </trkpt>
      <trkpt lat="47.88867" lon="6.88951">
        <ele>741.1</ele>
        <time>2022-11-02T15:08:15Z</time>
      </trkpt>
      <trkpt lat="47.88868" lon="6.88953">
        <ele>741</ele>
        <time>2022-11-02T15:08:16Z</time>
      </trkpt>
      <trkpt lat="47.88869" lon="6.88954">
        <ele>740.8</ele>
        <time>2022-11-02T15:08:17Z</time>
      </trkpt>
      <trkpt lat="47.88869" lon="6.88956">
        <ele>741.2</ele>
        <time>2022-11-02T15:08:18Z</time>
      </trkpt>
      <trkpt lat="47.8887" lon="6.88957">
        <ele>740.9</ele>
        <time>2022-11-02T15:08:19Z</time>
      </trkpt>
      <trkpt lat="47.88871" lon="6.88958">
        <ele>740.6</ele>
        <time>2022-11-02T15:08:20Z</time>
      </trkpt>
      <trkpt lat="47.88871" lon="6.8896">
        <ele>741</ele>
        <time>2022-11-02T15:08:21Z</time>
      </trkpt>
      <trkpt lat="47.88872" lon="6.88962">
        <ele>740.9</ele>
        <time>2022-11-02T15:08:22Z</time>
      </trkpt>
      <trkpt lat="47.88872" lon="6.88963">
        <ele>741.1</ele>
        <time>2022-11-02T15:08:23Z</time>
      </trkpt>
      <trkpt lat="47.88873" lon="6.88965">
        <ele>740.9</ele>
        <time>2022-11-02T15:08:24Z</time>
      </trkpt>
      <trkpt lat="47.88873" lon="6.88966">
        <ele>741.1</ele>
        <time>2022-11-02T15:08:25Z</time>
      </trkpt>
      <trkpt lat="47.88874" lon="6.88968">
        <ele>740.9</ele>
        <time>2022-11-02T15:08:26Z</time>
      </trkpt>
      <trkpt lat="47.88874" lon="6.8897">
        <ele>741.2</ele>
        <time>2022-11-02T15:08:27Z</time>
      </trkpt>
      <trkpt lat="47.88875" lon="6.88971">
        <ele>740.8</ele>
        <time>2022-11-02T15:08:28Z</time>
      </trkpt>
      <trkpt lat="47.88876" lon="6.88973">
        <ele>740.4</ele>
        <time>2022-11-02T15:08:29Z</time>
      </trkpt>
      <trkpt lat="47.88876" lon="6.88975">
        <ele>740.5</ele>
        <time>2022-11-02T15:08:30Z</time>
      </trkpt>
      <trkpt lat="47.88877" lon="6.88976">
        <ele>740</ele>
        <time>2022-11-02T15:08:31Z</time>
      </trkpt>
      <trkpt lat="47.88878" lon="6.88978">
        <ele>739.4</ele>
        <time>2022-11-02T15:08:32Z</time>
      </trkpt>
      <trkpt lat="47.88879" lon="6.8898">
        <ele>738.9</ele>
        <time>2022-11-02T15:08:33Z</time>
      </trkpt>
      <trkpt lat="47.88881" lon="6.88982">
        <ele>737.7</ele>
        <time>2022-11-02T15:08:34Z</time>
      </trkpt>
      <trkpt lat="47.88882" lon="6.88985">
        <ele>737.2</ele>
        <time>2022-11-02T15:08:35Z</time>
      </trkpt>
      <trkpt lat="47.88883" lon="6.88987">
        <ele>736.6</ele>
        <time>2022-11-02T15:08:36Z</time>
      </trkpt>
      <trkpt lat="47.88884" lon="6.88989">
        <ele>736</ele>
        <time>2022-11-02T15:08:37Z</time>
      </trkpt>
      <trkpt lat="47.88886" lon="6.88991">
        <ele>734.8</ele>
        <time>2022-11-02T15:08:38Z</time>
      </trkpt>
      <trkpt lat="47.88886" lon="6.88992">
        <ele>734.8</ele>
        <time>2022-11-02T15:08:39Z</time>
      </trkpt>
      <trkpt lat="47.88887" lon="6.88994">
        <ele>734.2</ele>
        <time>2022-11-02T15:08:40Z</time>
      </trkpt>
      <trkpt lat="47.88887" lon="6.88995">
        <ele>734.2</ele>
        <time>2022-11-02T15:08:41Z</time>
      </trkpt>
      <trkpt lat="47.88888" lon="6.88996">
        <ele>733.6</ele>
        <time>2022-11-02T15:08:42Z</time>
      </trkpt>
      <trkpt lat="47.88888" lon="6.88998">
        <ele>733.6</ele>
        <time>2022-11-02T15:08:43Z</time>
      </trkpt>
      <trkpt lat="47.88888" lon="6.88999">
        <ele>733.6</ele>
        <time>2022-11-02T15:08:44Z</time>
      </trkpt>
      <trkpt lat="47.88887" lon="6.89">
        <ele>734.2</ele>
        <time>2022-11-02T15:08:45Z</time>
      </trkpt>
      <trkpt lat="47.88887" lon="6.89001">
        <ele>734.2</ele>
        <time>2022-11-02T15:08:46Z</time>
      </trkpt>
      <trkpt lat="47.88887" lon="6.89002">
        <ele>734.1</ele>
        <time>2022-11-02T15:08:47Z</time>
      </trkpt>
      <trkpt lat="47.88887" lon="6.89004">
        <ele>734</ele>
        <time>2022-11-02T15:08:48Z</time>
      </trkpt>
      <trkpt lat="47.88887" lon="6.89005">
        <ele>733.9</ele>
        <time>2022-11-02T15:08:49Z</time>
      </trkpt>
      <trkpt lat="47.88887" lon="6.89007">
        <ele>733.8</ele>
        <time>2022-11-02T15:08:50Z</time>
      </trkpt>
      <trkpt lat="47.88887" lon="6.89008">
        <ele>733.7</ele>
        <time>2022-11-02T15:08:51Z</time>
      </trkpt>
      <trkpt lat="47.88887" lon="6.8901">
        <ele>733.6</ele>
        <time>2022-11-02T15:08:52Z</time>
      </trkpt>
      <trkpt lat="47.88888" lon="6.89011">
        <ele>732.8</ele>
        <time>2022-11-02T15:08:53Z</time>
      </trkpt>
      <trkpt lat="47.88888" lon="6.89013">
        <ele>732.7</ele>
        <time>2022-11-02T15:08:54Z</time>
      </trkpt>
      <trkpt lat="47.88888" lon="6.89014">
        <ele>732.6</ele>
        <time>2022-11-02T15:08:55Z</time>
      </trkpt>
      <trkpt lat="47.88888" lon="6.89015">
        <ele>732.5</ele>
        <time>2022-11-02T15:08:56Z</time>
      </trkpt>
      <trkpt lat="47.88888" lon="6.89017">
        <ele>732.4</ele>
        <time>2022-11-02T15:08:57Z</time>
      </trkpt>
      <trkpt lat="47.88888" lon="6.89018">
        <ele>732.3</ele>
        <time>2022-11-02T15:08:58Z</time>
      </trkpt>
      <trkpt lat="47.88888" lon="6.89019">
        <ele>732.3</ele>
        <time>2022-11-02T15:08:59Z</time>
      </trkpt>
      <trkpt lat="47.88888" lon="6.89021">
        <ele>732.1</ele>
        <time>2022-11-02T15:09:00Z</time>
      </trkpt>
      <trkpt lat="47.88888" lon="6.89022">
        <ele>732.1</ele>
        <time>2022-11-02T15:09:01Z</time>
      </trkpt>
      <trkpt lat="47.88888" lon="6.89023">
        <ele>732</ele>
        <time>2022-11-02T15:09:02Z</time>
      </trkpt>
      <trkpt lat="47.88889" lon="6.89025">
        <ele>731.1</ele>
        <time>2022-11-02T15:09:03Z</time>
      </trkpt>
      <trkpt lat="47.88889" lon="6.89026">
        <ele>731</ele>
        <time>2022-11-02T15:09:04Z</time>
      </trkpt>
      <trkpt lat="47.88889" lon="6.89027">
        <ele>731</ele>
        <time>2022-11-02T15:09:05Z</time>
      </trkpt>
      <trkpt lat="47.88889" lon="6.89029">
        <ele>730.9</ele>
        <time>2022-11-02T15:09:06Z</time>
      </trkpt>
      <trkpt lat="47.88889" lon="6.8903">
        <ele>730.8</ele>
        <time>2022-11-02T15:09:07Z</time>
      </trkpt>
      <trkpt lat="47.8889" lon="6.89031">
        <ele>729.9</ele>
        <time>2022-11-02T15:09:08Z</time>
      </trkpt>
      <trkpt lat="47.8889" lon="6.89033">
        <ele>729.9</ele>
        <time>2022-11-02T15:09:09Z</time>
      </trkpt>
      <trkpt lat="47.8889" lon="6.89034">
        <ele>729.8</ele>
        <time>2022-11-02T15:09:10Z</time>
      </trkpt>
      <trkpt lat="47.8889" lon="6.89036">
        <ele>729.8</ele>
        <time>2022-11-02T15:09:11Z</time>
      </trkpt>
      <trkpt lat="47.8889" lon="6.89037">
        <ele>729.7</ele>
        <time>2022-11-02T15:09:12Z</time>
      </trkpt>
      <trkpt lat="47.8889" lon="6.89039">
        <ele>729.7</ele>
        <time>2022-11-02T15:09:13Z</time>
      </trkpt>
      <trkpt lat="47.8889" lon="6.8904">
        <ele>729.6</ele>
        <time>2022-11-02T15:09:14Z</time>
      </trkpt>
      <trkpt lat="47.8889" lon="6.89041">
        <ele>729.6</ele>
        <time>2022-11-02T15:09:15Z</time>
      </trkpt>
      <trkpt lat="47.8889" lon="6.89043">
        <ele>729.5</ele>
        <time>2022-11-02T15:09:16Z</time>
      </trkpt>
      <trkpt lat="47.8889" lon="6.89044">
        <ele>729.5</ele>
        <time>2022-11-02T15:09:17Z</time>
      </trkpt>
      <trkpt lat="47.8889" lon="6.89045">
        <ele>729.4</ele>
        <time>2022-11-02T15:09:18Z</time>
      </trkpt>
      <trkpt lat="47.8889" lon="6.89047">
        <ele>729.4</ele>
        <time>2022-11-02T15:09:19Z</time>
      </trkpt>
      <trkpt lat="47.8889" lon="6.89048">
        <ele>729.3</ele>
        <time>2022-11-02T15:09:20Z</time>
      </trkpt>
      <trkpt lat="47.8889" lon="6.8905">
        <ele>729.3</ele>
        <time>2022-11-02T15:09:21Z</time>
      </trkpt>
      <trkpt lat="47.88889" lon="6.89051">
        <ele>730.1</ele>
        <time>2022-11-02T15:09:22Z</time>
      </trkpt>
      <trkpt lat="47.88889" lon="6.89053">
        <ele>730</ele>
        <time>2022-11-02T15:09:23Z</time>
      </trkpt>
      <trkpt lat="47.88889" lon="6.89055">
        <ele>729.9</ele>
        <time>2022-11-02T15:09:24Z</time>
      </trkpt>
      <trkpt lat="47.88889" lon="6.89056">
        <ele>729.9</ele>
        <time>2022-11-02T15:09:25Z</time>
      </trkpt>
      <trkpt lat="47.88889" lon="6.89058">
        <ele>729.6</ele>
        <time>2022-11-02T15:09:26Z</time>
      </trkpt>
      <trkpt lat="47.88889" lon="6.89059">
        <ele>729.5</ele>
        <time>2022-11-02T15:09:27Z</time>
      </trkpt>
      <trkpt lat="47.88889" lon="6.89061">
        <ele>729.3</ele>
        <time>2022-11-02T15:09:28Z</time>
      </trkpt>
      <trkpt lat="47.88889" lon="6.89063">
        <ele>729.1</ele>
        <time>2022-11-02T15:09:29Z</time>
      </trkpt>
      <trkpt lat="47.88889" lon="6.89064">
        <ele>729</ele>
        <time>2022-11-02T15:09:30Z</time>
      </trkpt>
      <trkpt lat="47.88889" lon="6.89066">
        <ele>728.8</ele>
        <time>2022-11-02T15:09:31Z</time>
      </trkpt>
      <trkpt lat="47.88889" lon="6.89067">
        <ele>728.7</ele>
        <time>2022-11-02T15:09:32Z</time>
      </trkpt>
      <trkpt lat="47.88889" lon="6.89069">
        <ele>728.5</ele>
        <time>2022-11-02T15:09:33Z</time>
      </trkpt>
      <trkpt lat="47.88888" lon="6.89071">
        <ele>729</ele>
        <time>2022-11-02T15:09:34Z</time>
      </trkpt>
      <trkpt lat="47.88888" lon="6.89072">
        <ele>728.9</ele>
        <time>2022-11-02T15:09:35Z</time>
      </trkpt>
      <trkpt lat="47.88888" lon="6.89074">
        <ele>728.7</ele>
        <time>2022-11-02T15:09:36Z</time>
      </trkpt>
      <trkpt lat="47.88888" lon="6.89075">
        <ele>728.6</ele>
        <time>2022-11-02T15:09:37Z</time>
      </trkpt>
      <trkpt lat="47.88888" lon="6.89077">
        <ele>728.4</ele>
        <time>2022-11-02T15:09:38Z</time>
      </trkpt>
      <trkpt lat="47.88888" lon="6.89078">
        <ele>728.3</ele>
        <time>2022-11-02T15:09:39Z</time>
      </trkpt>
      <trkpt lat="47.88888" lon="6.8908">
        <ele>728</ele>
        <time>2022-11-02T15:09:40Z</time>
      </trkpt>
      <trkpt lat="47.88888" lon="6.89081">
        <ele>727.9</ele>
        <time>2022-11-02T15:09:41Z</time>
      </trkpt>
      <trkpt lat="47.88888" lon="6.89083">
        <ele>727.7</ele>
        <time>2022-11-02T15:09:42Z</time>
      </trkpt>
      <trkpt lat="47.88888" lon="6.89084">
        <ele>727.6</ele>
        <time>2022-11-02T15:09:43Z</time>
      </trkpt>
      <trkpt lat="47.88889" lon="6.89086">
        <ele>726.5</ele>
        <time>2022-11-02T15:09:44Z</time>
      </trkpt>
      <trkpt lat="47.88889" lon="6.89087">
        <ele>726.4</ele>
        <time>2022-11-02T15:09:45Z</time>
      </trkpt>
      <trkpt lat="47.88889" lon="6.89089">
        <ele>726.1</ele>
        <time>2022-11-02T15:09:46Z</time>
      </trkpt>
      <trkpt lat="47.88888" lon="6.8909">
        <ele>726.7</ele>
        <time>2022-11-02T15:09:47Z</time>
      </trkpt>
      <trkpt lat="47.88888" lon="6.89091">
        <ele>726.6</ele>
        <time>2022-11-02T15:09:48Z</time>
      </trkpt>
      <trkpt lat="47.88888" lon="6.89093">
        <ele>726.3</ele>
        <time>2022-11-02T15:09:49Z</time>
      </trkpt>
      <trkpt lat="47.88888" lon="6.89094">
        <ele>726.1</ele>
        <time>2022-11-02T15:09:50Z</time>
      </trkpt>
      <trkpt lat="47.88888" lon="6.89095">
        <ele>726</ele>
        <time>2022-11-02T15:09:51Z</time>
      </trkpt>
      <trkpt lat="47.88888" lon="6.89097">
        <ele>725.7</ele>
        <time>2022-11-02T15:09:52Z</time>
      </trkpt>
      <trkpt lat="47.88888" lon="6.89098">
        <ele>725.6</ele>
        <time>2022-11-02T15:09:53Z</time>
      </trkpt>
      <trkpt lat="47.88888" lon="6.89099">
        <ele>725.4</ele>
        <time>2022-11-02T15:09:54Z</time>
      </trkpt>
      <trkpt lat="47.88888" lon="6.891">
        <ele>725.3</ele>
        <time>2022-11-02T15:09:55Z</time>
      </trkpt>
      <trkpt lat="47.88888" lon="6.89102">
        <ele>725</ele>
        <time>2022-11-02T15:09:56Z</time>
      </trkpt>
      <trkpt lat="47.88888" lon="6.89103">
        <ele>724.9</ele>
        <time>2022-11-02T15:09:57Z</time>
      </trkpt>
      <trkpt lat="47.88888" lon="6.89105">
        <ele>724.6</ele>
        <time>2022-11-02T15:09:58Z</time>
      </trkpt>
      <trkpt lat="47.88888" lon="6.89106">
        <ele>724.4</ele>
        <time>2022-11-02T15:09:59Z</time>
      </trkpt>
      <trkpt lat="47.88889" lon="6.89108">
        <ele>723.4</ele>
        <time>2022-11-02T15:10:00Z</time>
      </trkpt>
      <trkpt lat="47.8889" lon="6.89109">
        <ele>722.7</ele>
        <time>2022-11-02T15:10:01Z</time>
      </trkpt>
      <trkpt lat="47.88891" lon="6.89111">
        <ele>721.9</ele>
        <time>2022-11-02T15:10:02Z</time>
      </trkpt>
      <trkpt lat="47.88891" lon="6.89113">
        <ele>721.7</ele>
        <time>2022-11-02T15:10:03Z</time>
      </trkpt>
      <trkpt lat="47.88892" lon="6.89114">
        <ele>721.1</ele>
        <time>2022-11-02T15:10:04Z</time>
      </trkpt>
      <trkpt lat="47.88893" lon="6.89116">
        <ele>720.4</ele>
        <time>2022-11-02T15:10:05Z</time>
      </trkpt>
      <trkpt lat="47.88893" lon="6.89118">
        <ele>720.2</ele>
        <time>2022-11-02T15:10:06Z</time>
      </trkpt>
      <trkpt lat="47.88894" lon="6.8912">
        <ele>719.5</ele>
        <time>2022-11-02T15:10:07Z</time>
      </trkpt>
      <trkpt lat="47.88894" lon="6.89121">
        <ele>719.4</ele>
        <time>2022-11-02T15:10:08Z</time>
      </trkpt>
      <trkpt lat="47.88894" lon="6.89122">
        <ele>719.4</ele>
        <time>2022-11-02T15:10:09Z</time>
      </trkpt>
      <trkpt lat="47.88894" lon="6.89123">
        <ele>719.3</ele>
        <time>2022-11-02T15:10:10Z</time>
      </trkpt>
      <trkpt lat="47.88894" lon="6.89124">
        <ele>719.2</ele>
        <time>2022-11-02T15:10:11Z</time>
      </trkpt>
      <trkpt lat="47.88894" lon="6.89126">
        <ele>719</ele>
        <time>2022-11-02T15:10:12Z</time>
      </trkpt>
      <trkpt lat="47.88894" lon="6.89127">
        <ele>718.9</ele>
        <time>2022-11-02T15:10:13Z</time>
      </trkpt>
      <trkpt lat="47.88894" lon="6.89128">
        <ele>718.9</ele>
        <time>2022-11-02T15:10:14Z</time>
      </trkpt>
      <trkpt lat="47.88894" lon="6.8913">
        <ele>718.7</ele>
        <time>2022-11-02T15:10:15Z</time>
      </trkpt>
      <trkpt lat="47.88894" lon="6.89131">
        <ele>718.6</ele>
        <time>2022-11-02T15:10:16Z</time>
      </trkpt>
      <trkpt lat="47.88894" lon="6.89133">
        <ele>718.5</ele>
        <time>2022-11-02T15:10:17Z</time>
      </trkpt>
      <trkpt lat="47.88894" lon="6.89134">
        <ele>718.4</ele>
        <time>2022-11-02T15:10:18Z</time>
      </trkpt>
      <trkpt lat="47.88893" lon="6.89136">
        <ele>718.6</ele>
        <time>2022-11-02T15:10:19Z</time>
      </trkpt>
      <trkpt lat="47.88893" lon="6.89137">
        <ele>718.5</ele>
        <time>2022-11-02T15:10:20Z</time>
      </trkpt>
      <trkpt lat="47.88893" lon="6.89138">
        <ele>718.4</ele>
        <time>2022-11-02T15:10:21Z</time>
      </trkpt>
      <trkpt lat="47.88892" lon="6.8914">
        <ele>718.7</ele>
        <time>2022-11-02T15:10:22Z</time>
      </trkpt>
      <trkpt lat="47.88892" lon="6.89142">
        <ele>718.7</ele>
        <time>2022-11-02T15:10:23Z</time>
      </trkpt>
      <trkpt lat="47.88892" lon="6.89143">
        <ele>718.6</ele>
        <time>2022-11-02T15:10:24Z</time>
      </trkpt>
      <trkpt lat="47.88891" lon="6.89145">
        <ele>719</ele>
        <time>2022-11-02T15:10:25Z</time>
      </trkpt>
      <trkpt lat="47.88891" lon="6.89146">
        <ele>718.9</ele>
        <time>2022-11-02T15:10:26Z</time>
      </trkpt>
      <trkpt lat="47.8889" lon="6.89148">
        <ele>719.2</ele>
        <time>2022-11-02T15:10:27Z</time>
      </trkpt>
      <trkpt lat="47.8889" lon="6.89149">
        <ele>719.2</ele>
        <time>2022-11-02T15:10:28Z</time>
      </trkpt>
      <trkpt lat="47.88889" lon="6.8915">
        <ele>719.6</ele>
        <time>2022-11-02T15:10:29Z</time>
      </trkpt>
      <trkpt lat="47.88889" lon="6.89151">
        <ele>719.5</ele>
        <time>2022-11-02T15:10:30Z</time>
      </trkpt>
      <trkpt lat="47.88888" lon="6.89152">
        <ele>720.2</ele>
        <time>2022-11-02T15:10:31Z</time>
      </trkpt>
      <trkpt lat="47.88888" lon="6.89153">
        <ele>720.2</ele>
        <time>2022-11-02T15:10:32Z</time>
      </trkpt>
      <trkpt lat="47.88888" lon="6.89154">
        <ele>720.1</ele>
        <time>2022-11-02T15:10:33Z</time>
      </trkpt>
      <trkpt lat="47.88887" lon="6.89155">
        <ele>720.8</ele>
        <time>2022-11-02T15:10:34Z</time>
      </trkpt>
      <trkpt lat="47.88887" lon="6.89156">
        <ele>720.8</ele>
        <time>2022-11-02T15:10:35Z</time>
      </trkpt>
      <trkpt lat="47.88887" lon="6.89158">
        <ele>720.7</ele>
        <time>2022-11-02T15:10:36Z</time>
      </trkpt>
      <trkpt lat="47.88887" lon="6.89159">
        <ele>720.7</ele>
        <time>2022-11-02T15:10:37Z</time>
      </trkpt>
      <trkpt lat="47.88887" lon="6.89161">
        <ele>720.6</ele>
        <time>2022-11-02T15:10:38Z</time>
      </trkpt>
      <trkpt lat="47.88887" lon="6.89162">
        <ele>720.6</ele>
        <time>2022-11-02T15:10:39Z</time>
      </trkpt>
      <trkpt lat="47.88887" lon="6.89164">
        <ele>720.5</ele>
        <time>2022-11-02T15:10:40Z</time>
      </trkpt>
      <trkpt lat="47.88887" lon="6.89166">
        <ele>720.4</ele>
        <time>2022-11-02T15:10:41Z</time>
      </trkpt>
      <trkpt lat="47.88887" lon="6.89167">
        <ele>720.3</ele>
        <time>2022-11-02T15:10:42Z</time>
      </trkpt>
      <trkpt lat="47.88887" lon="6.89169">
        <ele>720.2</ele>
        <time>2022-11-02T15:10:43Z</time>
      </trkpt>
      <trkpt lat="47.88887" lon="6.8917">
        <ele>720.1</ele>
        <time>2022-11-02T15:10:44Z</time>
      </trkpt>
      <trkpt lat="47.88887" lon="6.89172">
        <ele>720</ele>
        <time>2022-11-02T15:10:45Z</time>
      </trkpt>
      <trkpt lat="47.88887" lon="6.89173">
        <ele>719.9</ele>
        <time>2022-11-02T15:10:46Z</time>
      </trkpt>
      <trkpt lat="47.88887" lon="6.89175">
        <ele>719.7</ele>
        <time>2022-11-02T15:10:47Z</time>
      </trkpt>
      <trkpt lat="47.88886" lon="6.89176">
        <ele>720.4</ele>
        <time>2022-11-02T15:10:48Z</time>
      </trkpt>
      <trkpt lat="47.88886" lon="6.89178">
        <ele>720.2</ele>
        <time>2022-11-02T15:10:49Z</time>
      </trkpt>
      <trkpt lat="47.88886" lon="6.89179">
        <ele>720.1</ele>
        <time>2022-11-02T15:10:50Z</time>
      </trkpt>
      <trkpt lat="47.88885" lon="6.89181">
        <ele>720.7</ele>
        <time>2022-11-02T15:10:51Z</time>
      </trkpt>
      <trkpt lat="47.88885" lon="6.89183">
        <ele>720.5</ele>
        <time>2022-11-02T15:10:52Z</time>
      </trkpt>
      <trkpt lat="47.88886" lon="6.89184">
        <ele>719.8</ele>
        <time>2022-11-02T15:10:53Z</time>
      </trkpt>
      <trkpt lat="47.88886" lon="6.89186">
        <ele>719.6</ele>
        <time>2022-11-02T15:10:54Z</time>
      </trkpt>
      <trkpt lat="47.88886" lon="6.89187">
        <ele>719.5</ele>
        <time>2022-11-02T15:10:55Z</time>
      </trkpt>
      <trkpt lat="47.88886" lon="6.89188">
        <ele>719.5</ele>
        <time>2022-11-02T15:10:56Z</time>
      </trkpt>
      <trkpt lat="47.88886" lon="6.8919">
        <ele>719.3</ele>
        <time>2022-11-02T15:10:57Z</time>
      </trkpt>
      <trkpt lat="47.88885" lon="6.89191">
        <ele>719.9</ele>
        <time>2022-11-02T15:10:58Z</time>
      </trkpt>
      <trkpt lat="47.88885" lon="6.89192">
        <ele>719.8</ele>
        <time>2022-11-02T15:10:59Z</time>
      </trkpt>
      <trkpt lat="47.88885" lon="6.89193">
        <ele>719.8</ele>
        <time>2022-11-02T15:11:00Z</time>
      </trkpt>
      <trkpt lat="47.88885" lon="6.89195">
        <ele>719.7</ele>
        <time>2022-11-02T15:11:01Z</time>
      </trkpt>
      <trkpt lat="47.88885" lon="6.89196">
        <ele>719.6</ele>
        <time>2022-11-02T15:11:02Z</time>
      </trkpt>
      <trkpt lat="47.88885" lon="6.89198">
        <ele>719.6</ele>
        <time>2022-11-02T15:11:03Z</time>
      </trkpt>
      <trkpt lat="47.88885" lon="6.89199">
        <ele>719.6</ele>
        <time>2022-11-02T15:11:04Z</time>
      </trkpt>
      <trkpt lat="47.88885" lon="6.892">
        <ele>719.6</ele>
        <time>2022-11-02T15:11:05Z</time>
      </trkpt>
      <trkpt lat="47.88886" lon="6.89202">
        <ele>718.9</ele>
        <time>2022-11-02T15:11:06Z</time>
      </trkpt>
      <trkpt lat="47.88885" lon="6.89203">
        <ele>719.6</ele>
        <time>2022-11-02T15:11:07Z</time>
      </trkpt>
      <trkpt lat="47.88885" lon="6.89204">
        <ele>719.6</ele>
        <time>2022-11-02T15:11:08Z</time>
      </trkpt>
      <trkpt lat="47.88884" lon="6.89206">
        <ele>720.2</ele>
        <time>2022-11-02T15:11:09Z</time>
      </trkpt>
      <trkpt lat="47.88884" lon="6.89208">
        <ele>720.2</ele>
        <time>2022-11-02T15:11:10Z</time>
      </trkpt>
      <trkpt lat="47.88883" lon="6.89209">
        <ele>720.8</ele>
        <time>2022-11-02T15:11:11Z</time>
      </trkpt>
      <trkpt lat="47.88883" lon="6.89211">
        <ele>720.8</ele>
        <time>2022-11-02T15:11:12Z</time>
      </trkpt>
      <trkpt lat="47.88883" lon="6.89212">
        <ele>720.8</ele>
        <time>2022-11-02T15:11:13Z</time>
      </trkpt>
      <trkpt lat="47.88883" lon="6.89214">
        <ele>720.7</ele>
        <time>2022-11-02T15:11:14Z</time>
      </trkpt>
      <trkpt lat="47.88883" lon="6.89216">
        <ele>720.7</ele>
        <time>2022-11-02T15:11:15Z</time>
      </trkpt>
      <trkpt lat="47.88883" lon="6.89217">
        <ele>720.7</ele>
        <time>2022-11-02T15:11:16Z</time>
      </trkpt>
      <trkpt lat="47.88883" lon="6.89219">
        <ele>720.7</ele>
        <time>2022-11-02T15:11:17Z</time>
      </trkpt>
      <trkpt lat="47.88882" lon="6.8922">
        <ele>721.3</ele>
        <time>2022-11-02T15:11:18Z</time>
      </trkpt>
      <trkpt lat="47.88882" lon="6.89221">
        <ele>721.2</ele>
        <time>2022-11-02T15:11:19Z</time>
      </trkpt>
      <trkpt lat="47.88882" lon="6.89223">
        <ele>721.3</ele>
        <time>2022-11-02T15:11:20Z</time>
      </trkpt>
      <trkpt lat="47.88882" lon="6.89225">
        <ele>721.4</ele>
        <time>2022-11-02T15:12:12Z</time>
      </trkpt>
      <trkpt lat="47.88883" lon="6.89225">
        <ele>720.8</ele>
        <time>2022-11-02T15:12:13Z</time>
      </trkpt>
      <trkpt lat="47.88883" lon="6.89226">
        <ele>720.8</ele>
        <time>2022-11-02T15:12:14Z</time>
      </trkpt>
      <trkpt lat="47.88883" lon="6.89227">
        <ele>720.9</ele>
        <time>2022-11-02T15:12:15Z</time>
      </trkpt>
      <trkpt lat="47.88883" lon="6.89228">
        <ele>720.9</ele>
        <time>2022-11-02T15:12:17Z</time>
      </trkpt>
      <trkpt lat="47.88883" lon="6.89229">
        <ele>721</ele>
        <time>2022-11-02T15:12:18Z</time>
      </trkpt>
      <trkpt lat="47.88883" lon="6.8923">
        <ele>721</ele>
        <time>2022-11-02T15:12:19Z</time>
      </trkpt>
      <trkpt lat="47.88883" lon="6.89231">
        <ele>721.1</ele>
        <time>2022-11-02T15:12:20Z</time>
      </trkpt>
      <trkpt lat="47.88882" lon="6.89232">
        <ele>721.7</ele>
        <time>2022-11-02T15:12:21Z</time>
      </trkpt>
      <trkpt lat="47.88882" lon="6.89233">
        <ele>721.8</ele>
        <time>2022-11-02T15:12:22Z</time>
      </trkpt>
      <trkpt lat="47.88882" lon="6.89235">
        <ele>721.9</ele>
        <time>2022-11-02T15:12:29Z</time>
      </trkpt>
      <trkpt lat="47.88882" lon="6.89236">
        <ele>722</ele>
        <time>2022-11-02T15:12:30Z</time>
      </trkpt>
      <trkpt lat="47.88882" lon="6.89237">
        <ele>722</ele>
        <time>2022-11-02T15:12:31Z</time>
      </trkpt>
      <trkpt lat="47.88881" lon="6.89238">
        <ele>722.6</ele>
        <time>2022-11-02T15:12:32Z</time>
      </trkpt>
      <trkpt lat="47.88881" lon="6.89239">
        <ele>722.7</ele>
        <time>2022-11-02T15:12:33Z</time>
      </trkpt>
      <trkpt lat="47.8888" lon="6.8924">
        <ele>723.3</ele>
        <time>2022-11-02T15:12:35Z</time>
      </trkpt>
      <trkpt lat="47.8888" lon="6.89241">
        <ele>723.4</ele>
        <time>2022-11-02T15:12:37Z</time>
      </trkpt>
      <trkpt lat="47.88879" lon="6.89242">
        <ele>724</ele>
        <time>2022-11-02T15:12:38Z</time>
      </trkpt>
      <trkpt lat="47.88878" lon="6.89242">
        <ele>724.5</ele>
        <time>2022-11-02T15:12:39Z</time>
      </trkpt>
      <trkpt lat="47.88878" lon="6.89243">
        <ele>724.6</ele>
        <time>2022-11-02T15:12:40Z</time>
      </trkpt>
      <trkpt lat="47.88877" lon="6.89244">
        <ele>725.2</ele>
        <time>2022-11-02T15:12:41Z</time>
      </trkpt>
      <trkpt lat="47.88877" lon="6.89245">
        <ele>725.2</ele>
        <time>2022-11-02T15:12:42Z</time>
      </trkpt>
      <trkpt lat="47.88876" lon="6.89246">
        <ele>725.8</ele>
        <time>2022-11-02T15:12:43Z</time>
      </trkpt>
      <trkpt lat="47.88876" lon="6.89247">
        <ele>725.8</ele>
        <time>2022-11-02T15:12:44Z</time>
      </trkpt>
      <trkpt lat="47.88876" lon="6.89249">
        <ele>725.9</ele>
        <time>2022-11-02T15:12:45Z</time>
      </trkpt>
      <trkpt lat="47.88877" lon="6.8925">
        <ele>725.4</ele>
        <time>2022-11-02T15:12:46Z</time>
      </trkpt>
      <trkpt lat="47.88878" lon="6.89251">
        <ele>724.8</ele>
        <time>2022-11-02T15:12:48Z</time>
      </trkpt>
      <trkpt lat="47.88878" lon="6.89252">
        <ele>724.8</ele>
        <time>2022-11-02T15:12:49Z</time>
      </trkpt>
      <trkpt lat="47.88879" lon="6.89253">
        <ele>724.2</ele>
        <time>2022-11-02T15:12:50Z</time>
      </trkpt>
      <trkpt lat="47.88879" lon="6.89254">
        <ele>724.2</ele>
        <time>2022-11-02T15:12:51Z</time>
      </trkpt>
      <trkpt lat="47.88879" lon="6.89255">
        <ele>724.2</ele>
        <time>2022-11-02T15:12:52Z</time>
      </trkpt>
      <trkpt lat="47.8888" lon="6.89256">
        <ele>723.6</ele>
        <time>2022-11-02T15:12:53Z</time>
      </trkpt>
      <trkpt lat="47.8888" lon="6.89258">
        <ele>723.5</ele>
        <time>2022-11-02T15:12:54Z</time>
      </trkpt>
      <trkpt lat="47.8888" lon="6.89259">
        <ele>723.5</ele>
        <time>2022-11-02T15:12:55Z</time>
      </trkpt>
      <trkpt lat="47.88881" lon="6.89261">
        <ele>722.9</ele>
        <time>2022-11-02T15:12:56Z</time>
      </trkpt>
      <trkpt lat="47.88882" lon="6.89262">
        <ele>722.3</ele>
        <time>2022-11-02T15:12:57Z</time>
      </trkpt>
      <trkpt lat="47.88882" lon="6.89264">
        <ele>722.2</ele>
        <time>2022-11-02T15:12:58Z</time>
      </trkpt>
      <trkpt lat="47.88883" lon="6.89267">
        <ele>721.6</ele>
        <time>2022-11-02T15:12:59Z</time>
      </trkpt>
      <trkpt lat="47.88883" lon="6.89268">
        <ele>721.5</ele>
        <time>2022-11-02T15:13:00Z</time>
      </trkpt>
      <trkpt lat="47.88884" lon="6.8927">
        <ele>720.9</ele>
        <time>2022-11-02T15:13:01Z</time>
      </trkpt>
      <trkpt lat="47.88884" lon="6.89272">
        <ele>720.8</ele>
        <time>2022-11-02T15:13:02Z</time>
      </trkpt>
      <trkpt lat="47.88885" lon="6.89273">
        <ele>720.3</ele>
        <time>2022-11-02T15:13:03Z</time>
      </trkpt>
      <trkpt lat="47.88885" lon="6.89274">
        <ele>720.2</ele>
        <time>2022-11-02T15:13:04Z</time>
      </trkpt>
      <trkpt lat="47.88886" lon="6.89276">
        <ele>719.6</ele>
        <time>2022-11-02T15:13:05Z</time>
      </trkpt>
      <trkpt lat="47.88886" lon="6.89277">
        <ele>719.6</ele>
        <time>2022-11-02T15:13:06Z</time>
      </trkpt>
      <trkpt lat="47.88886" lon="6.89279">
        <ele>719.8</ele>
        <time>2022-11-02T15:13:07Z</time>
      </trkpt>
      <trkpt lat="47.88887" lon="6.89281">
        <ele>719.6</ele>
        <time>2022-11-02T15:13:08Z</time>
      </trkpt>
      <trkpt lat="47.88887" lon="6.89283">
        <ele>719.9</ele>
        <time>2022-11-02T15:13:09Z</time>
      </trkpt>
      <trkpt lat="47.88887" lon="6.89285">
        <ele>720.2</ele>
        <time>2022-11-02T15:13:10Z</time>
      </trkpt>
      <trkpt lat="47.88888" lon="6.89287">
        <ele>720.1</ele>
        <time>2022-11-02T15:13:11Z</time>
      </trkpt>
      <trkpt lat="47.88888" lon="6.89288">
        <ele>720.3</ele>
        <time>2022-11-02T15:13:12Z</time>
      </trkpt>
      <trkpt lat="47.88888" lon="6.8929">
        <ele>720.6</ele>
        <time>2022-11-02T15:13:13Z</time>
      </trkpt>
      <trkpt lat="47.88888" lon="6.89291">
        <ele>720.8</ele>
        <time>2022-11-02T15:13:14Z</time>
      </trkpt>
      <trkpt lat="47.88888" lon="6.89293">
        <ele>721.1</ele>
        <time>2022-11-02T15:13:15Z</time>
      </trkpt>
      <trkpt lat="47.88889" lon="6.89294">
        <ele>720.9</ele>
        <time>2022-11-02T15:13:16Z</time>
      </trkpt>
      <trkpt lat="47.8889" lon="6.89295">
        <ele>720.8</ele>
        <time>2022-11-02T15:13:17Z</time>
      </trkpt>
      <trkpt lat="47.88891" lon="6.89296">
        <ele>720.7</ele>
        <time>2022-11-02T15:13:18Z</time>
      </trkpt>
      <trkpt lat="47.88893" lon="6.89296">
        <ele>720.2</ele>
        <time>2022-11-02T15:13:19Z</time>
      </trkpt>
      <trkpt lat="47.88894" lon="6.89297">
        <ele>720</ele>
        <time>2022-11-02T15:13:20Z</time>
      </trkpt>
      <trkpt lat="47.88895" lon="6.89298">
        <ele>719.9</ele>
        <time>2022-11-02T15:13:21Z</time>
      </trkpt>
      <trkpt lat="47.88896" lon="6.89299">
        <ele>719.8</ele>
        <time>2022-11-02T15:13:22Z</time>
      </trkpt>
      <trkpt lat="47.88897" lon="6.893">
        <ele>719.6</ele>
        <time>2022-11-02T15:13:23Z</time>
      </trkpt>
      <trkpt lat="47.88898" lon="6.893">
        <ele>719.3</ele>
        <time>2022-11-02T15:13:24Z</time>
      </trkpt>
      <trkpt lat="47.88898" lon="6.89301">
        <ele>719.4</ele>
        <time>2022-11-02T15:13:25Z</time>
      </trkpt>
      <trkpt lat="47.88899" lon="6.89302">
        <ele>719.3</ele>
        <time>2022-11-02T15:13:26Z</time>
      </trkpt>
      <trkpt lat="47.88899" lon="6.89303">
        <ele>719.4</ele>
        <time>2022-11-02T15:13:27Z</time>
      </trkpt>
      <trkpt lat="47.889" lon="6.89304">
        <ele>719.2</ele>
        <time>2022-11-02T15:13:28Z</time>
      </trkpt>
      <trkpt lat="47.889" lon="6.89305">
        <ele>719.3</ele>
        <time>2022-11-02T15:13:29Z</time>
      </trkpt>
      <trkpt lat="47.889" lon="6.89306">
        <ele>719.5</ele>
        <time>2022-11-02T15:13:30Z</time>
      </trkpt>
      <trkpt lat="47.88901" lon="6.89308">
        <ele>719.5</ele>
        <time>2022-11-02T15:13:31Z</time>
      </trkpt>
      <trkpt lat="47.88901" lon="6.89309">
        <ele>719.6</ele>
        <time>2022-11-02T15:13:33Z</time>
      </trkpt>
      <trkpt lat="47.88902" lon="6.8931">
        <ele>719.4</ele>
        <time>2022-11-02T15:13:34Z</time>
      </trkpt>
      <trkpt lat="47.88902" lon="6.89311">
        <ele>719.6</ele>
        <time>2022-11-02T15:13:35Z</time>
      </trkpt>
      <trkpt lat="47.88902" lon="6.89312">
        <ele>719.7</ele>
        <time>2022-11-02T15:13:37Z</time>
      </trkpt>
      <trkpt lat="47.88903" lon="6.89313">
        <ele>719.5</ele>
        <time>2022-11-02T15:13:38Z</time>
      </trkpt>
      <trkpt lat="47.88903" lon="6.89314">
        <ele>719.6</ele>
        <time>2022-11-02T15:13:39Z</time>
      </trkpt>
      <trkpt lat="47.88903" lon="6.89315">
        <ele>719.8</ele>
        <time>2022-11-02T15:13:40Z</time>
      </trkpt>
      <trkpt lat="47.88904" lon="6.89316">
        <ele>719.5</ele>
        <time>2022-11-02T15:13:41Z</time>
      </trkpt>
      <trkpt lat="47.88904" lon="6.89317">
        <ele>719.6</ele>
        <time>2022-11-02T15:13:42Z</time>
      </trkpt>
      <trkpt lat="47.88905" lon="6.89318">
        <ele>719.4</ele>
        <time>2022-11-02T15:13:43Z</time>
      </trkpt>
      <trkpt lat="47.88905" lon="6.89319">
        <ele>719.5</ele>
        <time>2022-11-02T15:13:44Z</time>
      </trkpt>
      <trkpt lat="47.88906" lon="6.8932">
        <ele>719.2</ele>
        <time>2022-11-02T15:13:45Z</time>
      </trkpt>
      <trkpt lat="47.88906" lon="6.89321">
        <ele>719.3</ele>
        <time>2022-11-02T15:13:46Z</time>
      </trkpt>
      <trkpt lat="47.88906" lon="6.89323">
        <ele>719.5</ele>
        <time>2022-11-02T15:13:47Z</time>
      </trkpt>
      <trkpt lat="47.88906" lon="6.89324">
        <ele>719.6</ele>
        <time>2022-11-02T15:13:48Z</time>
      </trkpt>
      <trkpt lat="47.88906" lon="6.89325">
        <ele>719.8</ele>
        <time>2022-11-02T15:13:49Z</time>
      </trkpt>
      <trkpt lat="47.88906" lon="6.89326">
        <ele>719.9</ele>
        <time>2022-11-02T15:13:50Z</time>
      </trkpt>
      <trkpt lat="47.88906" lon="6.89327">
        <ele>720</ele>
        <time>2022-11-02T15:13:51Z</time>
      </trkpt>
      <trkpt lat="47.88907" lon="6.89329">
        <ele>719.7</ele>
        <time>2022-11-02T15:13:52Z</time>
      </trkpt>
      <trkpt lat="47.88907" lon="6.8933">
        <ele>719.8</ele>
        <time>2022-11-02T15:13:53Z</time>
      </trkpt>
      <trkpt lat="47.88907" lon="6.89332">
        <ele>720.1</ele>
        <time>2022-11-02T15:13:54Z</time>
      </trkpt>
      <trkpt lat="47.88907" lon="6.89333">
        <ele>720.2</ele>
        <time>2022-11-02T15:13:55Z</time>
      </trkpt>
      <trkpt lat="47.88907" lon="6.89335">
        <ele>720.4</ele>
        <time>2022-11-02T15:13:56Z</time>
      </trkpt>
      <trkpt lat="47.88907" lon="6.89337">
        <ele>720.7</ele>
        <time>2022-11-02T15:13:57Z</time>
      </trkpt>
      <trkpt lat="47.88908" lon="6.89338">
        <ele>720.3</ele>
        <time>2022-11-02T15:13:58Z</time>
      </trkpt>
      <trkpt lat="47.88908" lon="6.8934">
        <ele>720.5</ele>
        <time>2022-11-02T15:13:59Z</time>
      </trkpt>
      <trkpt lat="47.88908" lon="6.89341">
        <ele>720.6</ele>
        <time>2022-11-02T15:14:00Z</time>
      </trkpt>
      <trkpt lat="47.88908" lon="6.89342">
        <ele>720.8</ele>
        <time>2022-11-02T15:14:01Z</time>
      </trkpt>
      <trkpt lat="47.88908" lon="6.89344">
        <ele>721</ele>
        <time>2022-11-02T15:14:02Z</time>
      </trkpt>
      <trkpt lat="47.88908" lon="6.89346">
        <ele>721.3</ele>
        <time>2022-11-02T15:14:03Z</time>
      </trkpt>
      <trkpt lat="47.88909" lon="6.89347">
        <ele>720.7</ele>
        <time>2022-11-02T15:14:04Z</time>
      </trkpt>
      <trkpt lat="47.88909" lon="6.89349">
        <ele>720.9</ele>
        <time>2022-11-02T15:14:05Z</time>
      </trkpt>
      <trkpt lat="47.88909" lon="6.8935">
        <ele>721.1</ele>
        <time>2022-11-02T15:14:06Z</time>
      </trkpt>
      <trkpt lat="47.88909" lon="6.89352">
        <ele>721.3</ele>
        <time>2022-11-02T15:14:07Z</time>
      </trkpt>
      <trkpt lat="47.88909" lon="6.89353">
        <ele>721.4</ele>
        <time>2022-11-02T15:14:08Z</time>
      </trkpt>
      <trkpt lat="47.8891" lon="6.89355">
        <ele>720.9</ele>
        <time>2022-11-02T15:14:09Z</time>
      </trkpt>
      <trkpt lat="47.8891" lon="6.89357">
        <ele>721.1</ele>
        <time>2022-11-02T15:14:10Z</time>
      </trkpt>
      <trkpt lat="47.8891" lon="6.89358">
        <ele>721.2</ele>
        <time>2022-11-02T15:14:11Z</time>
      </trkpt>
      <trkpt lat="47.8891" lon="6.8936">
        <ele>721.4</ele>
        <time>2022-11-02T15:14:12Z</time>
      </trkpt>
      <trkpt lat="47.8891" lon="6.89361">
        <ele>721.5</ele>
        <time>2022-11-02T15:14:13Z</time>
      </trkpt>
      <trkpt lat="47.8891" lon="6.89363">
        <ele>721.7</ele>
        <time>2022-11-02T15:14:14Z</time>
      </trkpt>
      <trkpt lat="47.88911" lon="6.89364">
        <ele>721</ele>
        <time>2022-11-02T15:14:15Z</time>
      </trkpt>
      <trkpt lat="47.88911" lon="6.89366">
        <ele>721.2</ele>
        <time>2022-11-02T15:14:16Z</time>
      </trkpt>
      <trkpt lat="47.88911" lon="6.89367">
        <ele>721.2</ele>
        <time>2022-11-02T15:14:17Z</time>
      </trkpt>
      <trkpt lat="47.88911" lon="6.89369">
        <ele>721.4</ele>
        <time>2022-11-02T15:14:18Z</time>
      </trkpt>
      <trkpt lat="47.88912" lon="6.8937">
        <ele>720.6</ele>
        <time>2022-11-02T15:14:19Z</time>
      </trkpt>
      <trkpt lat="47.88912" lon="6.89371">
        <ele>720.7</ele>
        <time>2022-11-02T15:14:20Z</time>
      </trkpt>
      <trkpt lat="47.88913" lon="6.89373">
        <ele>719.9</ele>
        <time>2022-11-02T15:14:21Z</time>
      </trkpt>
      <trkpt lat="47.88913" lon="6.89374">
        <ele>720</ele>
        <time>2022-11-02T15:14:22Z</time>
      </trkpt>
      <trkpt lat="47.88914" lon="6.89375">
        <ele>719.1</ele>
        <time>2022-11-02T15:14:23Z</time>
      </trkpt>
      <trkpt lat="47.88914" lon="6.89377">
        <ele>719.2</ele>
        <time>2022-11-02T15:14:24Z</time>
      </trkpt>
      <trkpt lat="47.88914" lon="6.89378">
        <ele>719.3</ele>
        <time>2022-11-02T15:14:25Z</time>
      </trkpt>
      <trkpt lat="47.88915" lon="6.8938">
        <ele>718.4</ele>
        <time>2022-11-02T15:14:26Z</time>
      </trkpt>
      <trkpt lat="47.88915" lon="6.89381">
        <ele>718.4</ele>
        <time>2022-11-02T15:14:27Z</time>
      </trkpt>
      <trkpt lat="47.88916" lon="6.89383">
        <ele>717.5</ele>
        <time>2022-11-02T15:14:28Z</time>
      </trkpt>
      <trkpt lat="47.88916" lon="6.89384">
        <ele>717.5</ele>
        <time>2022-11-02T15:14:29Z</time>
      </trkpt>
      <trkpt lat="47.88917" lon="6.89386">
        <ele>716.9</ele>
        <time>2022-11-02T15:14:46Z</time>
      </trkpt>
      <trkpt lat="47.88917" lon="6.89387">
        <ele>716.9</ele>
        <time>2022-11-02T15:14:47Z</time>
      </trkpt>
      <trkpt lat="47.88918" lon="6.89388">
        <ele>716.8</ele>
        <time>2022-11-02T15:14:48Z</time>
      </trkpt>
      <trkpt lat="47.88918" lon="6.8939">
        <ele>717.2</ele>
        <time>2022-11-02T15:14:49Z</time>
      </trkpt>
      <trkpt lat="47.88919" lon="6.89391">
        <ele>717.3</ele>
        <time>2022-11-02T15:14:50Z</time>
      </trkpt>
      <trkpt lat="47.88919" lon="6.89392">
        <ele>717.6</ele>
        <time>2022-11-02T15:14:51Z</time>
      </trkpt>
      <trkpt lat="47.8892" lon="6.89394">
        <ele>718</ele>
        <time>2022-11-02T15:14:52Z</time>
      </trkpt>
      <trkpt lat="47.8892" lon="6.89395">
        <ele>718.2</ele>
        <time>2022-11-02T15:14:53Z</time>
      </trkpt>
      <trkpt lat="47.88921" lon="6.89397">
        <ele>718.6</ele>
        <time>2022-11-02T15:14:54Z</time>
      </trkpt>
      <trkpt lat="47.88921" lon="6.89398">
        <ele>718.8</ele>
        <time>2022-11-02T15:14:55Z</time>
      </trkpt>
      <trkpt lat="47.88922" lon="6.894">
        <ele>719.2</ele>
        <time>2022-11-02T15:14:56Z</time>
      </trkpt>
      <trkpt lat="47.88923" lon="6.89401">
        <ele>719.2</ele>
        <time>2022-11-02T15:14:57Z</time>
      </trkpt>
      <trkpt lat="47.88923" lon="6.89402">
        <ele>719.4</ele>
        <time>2022-11-02T15:14:58Z</time>
      </trkpt>
      <trkpt lat="47.88924" lon="6.89404">
        <ele>719.7</ele>
        <time>2022-11-02T15:14:59Z</time>
      </trkpt>
      <trkpt lat="47.88925" lon="6.89405">
        <ele>719.7</ele>
        <time>2022-11-02T15:15:00Z</time>
      </trkpt>
      <trkpt lat="47.88925" lon="6.89406">
        <ele>719.9</ele>
        <time>2022-11-02T15:15:01Z</time>
      </trkpt>
      <trkpt lat="47.88926" lon="6.89408">
        <ele>720.1</ele>
        <time>2022-11-02T15:15:02Z</time>
      </trkpt>
      <trkpt lat="47.88927" lon="6.89409">
        <ele>720.1</ele>
        <time>2022-11-02T15:15:03Z</time>
      </trkpt>
      <trkpt lat="47.88927" lon="6.89411">
        <ele>720.5</ele>
        <time>2022-11-02T15:15:04Z</time>
      </trkpt>
      <trkpt lat="47.88928" lon="6.89412">
        <ele>720.4</ele>
        <time>2022-11-02T15:15:05Z</time>
      </trkpt>
      <trkpt lat="47.88928" lon="6.89414">
        <ele>720.8</ele>
        <time>2022-11-02T15:15:06Z</time>
      </trkpt>
      <trkpt lat="47.88928" lon="6.89416">
        <ele>721.2</ele>
        <time>2022-11-02T15:15:07Z</time>
      </trkpt>
      <trkpt lat="47.88929" lon="6.89418">
        <ele>721.3</ele>
        <time>2022-11-02T15:15:08Z</time>
      </trkpt>
      <trkpt lat="47.88929" lon="6.8942">
        <ele>721.7</ele>
        <time>2022-11-02T15:15:09Z</time>
      </trkpt>
      <trkpt lat="47.88929" lon="6.89422">
        <ele>722.1</ele>
        <time>2022-11-02T15:15:10Z</time>
      </trkpt>
      <trkpt lat="47.88929" lon="6.89423">
        <ele>722.2</ele>
        <time>2022-11-02T15:15:11Z</time>
      </trkpt>
      <trkpt lat="47.8893" lon="6.89425">
        <ele>722.2</ele>
        <time>2022-11-02T15:15:12Z</time>
      </trkpt>
      <trkpt lat="47.8893" lon="6.89427">
        <ele>722.6</ele>
        <time>2022-11-02T15:15:13Z</time>
      </trkpt>
      <trkpt lat="47.8893" lon="6.89429">
        <ele>723</ele>
        <time>2022-11-02T15:15:14Z</time>
      </trkpt>
      <trkpt lat="47.8893" lon="6.89431">
        <ele>723.3</ele>
        <time>2022-11-02T15:15:15Z</time>
      </trkpt>
      <trkpt lat="47.8893" lon="6.89433">
        <ele>723.7</ele>
        <time>2022-11-02T15:15:16Z</time>
      </trkpt>
      <trkpt lat="47.88931" lon="6.89434">
        <ele>723.4</ele>
        <time>2022-11-02T15:15:17Z</time>
      </trkpt>
      <trkpt lat="47.88931" lon="6.89436">
        <ele>723.7</ele>
        <time>2022-11-02T15:15:18Z</time>
      </trkpt>
      <trkpt lat="47.88931" lon="6.89438">
        <ele>724.1</ele>
        <time>2022-11-02T15:15:19Z</time>
      </trkpt>
      <trkpt lat="47.88931" lon="6.89439">
        <ele>724.3</ele>
        <time>2022-11-02T15:15:20Z</time>
      </trkpt>
      <trkpt lat="47.88931" lon="6.89441">
        <ele>724.6</ele>
        <time>2022-11-02T15:15:21Z</time>
      </trkpt>
      <trkpt lat="47.88931" lon="6.89443">
        <ele>725</ele>
        <time>2022-11-02T15:15:22Z</time>
      </trkpt>
      <trkpt lat="47.88931" lon="6.89444">
        <ele>725.2</ele>
        <time>2022-11-02T15:15:23Z</time>
      </trkpt>
      <trkpt lat="47.88932" lon="6.89446">
        <ele>724.7</ele>
        <time>2022-11-02T15:15:24Z</time>
      </trkpt>
      <trkpt lat="47.88932" lon="6.89448">
        <ele>724.8</ele>
        <time>2022-11-02T15:15:25Z</time>
      </trkpt>
      <trkpt lat="47.88932" lon="6.8945">
        <ele>724.9</ele>
        <time>2022-11-02T15:15:26Z</time>
      </trkpt>
      <trkpt lat="47.88932" lon="6.89451">
        <ele>725</ele>
        <time>2022-11-02T15:15:27Z</time>
      </trkpt>
      <trkpt lat="47.88933" lon="6.89453">
        <ele>724.5</ele>
        <time>2022-11-02T15:15:28Z</time>
      </trkpt>
      <trkpt lat="47.88933" lon="6.89455">
        <ele>724.6</ele>
        <time>2022-11-02T15:15:29Z</time>
      </trkpt>
      <trkpt lat="47.88933" lon="6.89457">
        <ele>724.7</ele>
        <time>2022-11-02T15:15:30Z</time>
      </trkpt>
      <trkpt lat="47.88933" lon="6.89459">
        <ele>724.8</ele>
        <time>2022-11-02T15:15:31Z</time>
      </trkpt>
      <trkpt lat="47.88933" lon="6.8946">
        <ele>724.9</ele>
        <time>2022-11-02T15:15:32Z</time>
      </trkpt>
      <trkpt lat="47.88933" lon="6.89462">
        <ele>725</ele>
        <time>2022-11-02T15:15:33Z</time>
      </trkpt>
      <trkpt lat="47.88933" lon="6.89464">
        <ele>725.1</ele>
        <time>2022-11-02T15:15:34Z</time>
      </trkpt>
      <trkpt lat="47.88934" lon="6.89465">
        <ele>724.6</ele>
        <time>2022-11-02T15:15:35Z</time>
      </trkpt>
      <trkpt lat="47.88934" lon="6.89467">
        <ele>724.7</ele>
        <time>2022-11-02T15:15:36Z</time>
      </trkpt>
      <trkpt lat="47.88935" lon="6.89469">
        <ele>724.2</ele>
        <time>2022-11-02T15:15:37Z</time>
      </trkpt>
      <trkpt lat="47.88935" lon="6.89471">
        <ele>724.4</ele>
        <time>2022-11-02T15:15:38Z</time>
      </trkpt>
      <trkpt lat="47.88935" lon="6.89472">
        <ele>724.4</ele>
        <time>2022-11-02T15:15:39Z</time>
      </trkpt>
      <trkpt lat="47.88936" lon="6.89474">
        <ele>723.9</ele>
        <time>2022-11-02T15:15:40Z</time>
      </trkpt>
      <trkpt lat="47.88936" lon="6.89476">
        <ele>724</ele>
        <time>2022-11-02T15:15:41Z</time>
      </trkpt>
      <trkpt lat="47.88936" lon="6.89478">
        <ele>724.1</ele>
        <time>2022-11-02T15:15:42Z</time>
      </trkpt>
      <trkpt lat="47.88935" lon="6.8948">
        <ele>724.7</ele>
        <time>2022-11-02T15:15:43Z</time>
      </trkpt>
      <trkpt lat="47.88935" lon="6.89482">
        <ele>724.8</ele>
        <time>2022-11-02T15:15:44Z</time>
      </trkpt>
      <trkpt lat="47.88935" lon="6.89484">
        <ele>724.9</ele>
        <time>2022-11-02T15:15:45Z</time>
      </trkpt>
      <trkpt lat="47.88935" lon="6.89486">
        <ele>724.9</ele>
        <time>2022-11-02T15:15:46Z</time>
      </trkpt>
      <trkpt lat="47.88935" lon="6.89487">
        <ele>725</ele>
        <time>2022-11-02T15:15:47Z</time>
      </trkpt>
      <trkpt lat="47.88935" lon="6.89489">
        <ele>725</ele>
        <time>2022-11-02T15:15:48Z</time>
      </trkpt>
      <trkpt lat="47.88935" lon="6.89491">
        <ele>725.1</ele>
        <time>2022-11-02T15:15:49Z</time>
      </trkpt>
      <trkpt lat="47.88936" lon="6.89492">
        <ele>724.6</ele>
        <time>2022-11-02T15:15:50Z</time>
      </trkpt>
      <trkpt lat="47.88936" lon="6.89494">
        <ele>724.6</ele>
        <time>2022-11-02T15:15:51Z</time>
      </trkpt>
      <trkpt lat="47.88936" lon="6.89495">
        <ele>724.7</ele>
        <time>2022-11-02T15:15:52Z</time>
      </trkpt>
      <trkpt lat="47.88936" lon="6.89497">
        <ele>724.8</ele>
        <time>2022-11-02T15:15:53Z</time>
      </trkpt>
      <trkpt lat="47.88936" lon="6.89498">
        <ele>724.8</ele>
        <time>2022-11-02T15:15:54Z</time>
      </trkpt>
      <trkpt lat="47.88936" lon="6.89499">
        <ele>724.8</ele>
        <time>2022-11-02T15:15:56Z</time>
      </trkpt>
      <trkpt lat="47.88937" lon="6.895">
        <ele>724.3</ele>
        <time>2022-11-02T15:15:58Z</time>
      </trkpt>
      <trkpt lat="47.88938" lon="6.895">
        <ele>723.7</ele>
        <time>2022-11-02T15:16:00Z</time>
      </trkpt>
      <trkpt lat="47.88939" lon="6.895">
        <ele>723.1</ele>
        <time>2022-11-02T15:16:01Z</time>
      </trkpt>
      <trkpt lat="47.8894" lon="6.895">
        <ele>722.6</ele>
        <time>2022-11-02T15:16:02Z</time>
      </trkpt>
      <trkpt lat="47.88941" lon="6.895">
        <ele>722</ele>
        <time>2022-11-02T15:16:03Z</time>
      </trkpt>
      <trkpt lat="47.88942" lon="6.895">
        <ele>721.4</ele>
        <time>2022-11-02T15:16:04Z</time>
      </trkpt>
      <trkpt lat="47.88944" lon="6.89499">
        <ele>720.2</ele>
        <time>2022-11-02T15:16:05Z</time>
      </trkpt>
      <trkpt lat="47.88945" lon="6.89499">
        <ele>719.9</ele>
        <time>2022-11-02T15:16:06Z</time>
      </trkpt>
      <trkpt lat="47.88946" lon="6.89499">
        <ele>719.8</ele>
        <time>2022-11-02T15:16:07Z</time>
      </trkpt>
      <trkpt lat="47.88947" lon="6.89499">
        <ele>719.8</ele>
        <time>2022-11-02T15:16:08Z</time>
      </trkpt>
      <trkpt lat="47.88948" lon="6.89499">
        <ele>719.7</ele>
        <time>2022-11-02T15:16:09Z</time>
      </trkpt>
      <trkpt lat="47.88949" lon="6.89499">
        <ele>719.6</ele>
        <time>2022-11-02T15:16:10Z</time>
      </trkpt>
      <trkpt lat="47.8895" lon="6.89499">
        <ele>719.5</ele>
        <time>2022-11-02T15:16:11Z</time>
      </trkpt>
      <trkpt lat="47.88951" lon="6.89499">
        <ele>719.5</ele>
        <time>2022-11-02T15:16:13Z</time>
      </trkpt>
      <trkpt lat="47.88952" lon="6.89498">
        <ele>719.3</ele>
        <time>2022-11-02T15:16:14Z</time>
      </trkpt>
      <trkpt lat="47.88953" lon="6.89498">
        <ele>719.2</ele>
        <time>2022-11-02T15:16:15Z</time>
      </trkpt>
      <trkpt lat="47.88954" lon="6.89497">
        <ele>719.1</ele>
        <time>2022-11-02T15:16:16Z</time>
      </trkpt>
      <trkpt lat="47.88955" lon="6.89497">
        <ele>719</ele>
        <time>2022-11-02T15:16:17Z</time>
      </trkpt>
      <trkpt lat="47.88956" lon="6.89497">
        <ele>718.9</ele>
        <time>2022-11-02T15:16:18Z</time>
      </trkpt>
      <trkpt lat="47.88957" lon="6.89496">
        <ele>718.7</ele>
        <time>2022-11-02T15:16:19Z</time>
      </trkpt>
      <trkpt lat="47.88958" lon="6.89495">
        <ele>718.5</ele>
        <time>2022-11-02T15:16:20Z</time>
      </trkpt>
      <trkpt lat="47.88959" lon="6.89495">
        <ele>718.4</ele>
        <time>2022-11-02T15:16:21Z</time>
      </trkpt>
      <trkpt lat="47.8896" lon="6.89494">
        <ele>718.2</ele>
        <time>2022-11-02T15:16:22Z</time>
      </trkpt>
      <trkpt lat="47.88961" lon="6.89493">
        <ele>718</ele>
        <time>2022-11-02T15:16:23Z</time>
      </trkpt>
      <trkpt lat="47.88962" lon="6.89492">
        <ele>717.7</ele>
        <time>2022-11-02T15:16:24Z</time>
      </trkpt>
      <trkpt lat="47.88963" lon="6.8949">
        <ele>717.3</ele>
        <time>2022-11-02T15:16:25Z</time>
      </trkpt>
      <trkpt lat="47.88964" lon="6.89489">
        <ele>717.1</ele>
        <time>2022-11-02T15:16:26Z</time>
      </trkpt>
      <trkpt lat="47.88965" lon="6.89488">
        <ele>716.8</ele>
        <time>2022-11-02T15:16:27Z</time>
      </trkpt>
      <trkpt lat="47.88965" lon="6.89486">
        <ele>716.5</ele>
        <time>2022-11-02T15:16:28Z</time>
      </trkpt>
      <trkpt lat="47.88966" lon="6.89485">
        <ele>716.2</ele>
        <time>2022-11-02T15:16:29Z</time>
      </trkpt>
      <trkpt lat="47.88966" lon="6.89484">
        <ele>716.1</ele>
        <time>2022-11-02T15:16:30Z</time>
      </trkpt>
      <trkpt lat="47.88966" lon="6.89483">
        <ele>715.9</ele>
        <time>2022-11-02T15:16:31Z</time>
      </trkpt>
      <trkpt lat="47.88966" lon="6.89482">
        <ele>715.8</ele>
        <time>2022-11-02T15:16:32Z</time>
      </trkpt>
      <trkpt lat="47.88967" lon="6.8948">
        <ele>715.3</ele>
        <time>2022-11-02T15:16:33Z</time>
      </trkpt>
      <trkpt lat="47.88967" lon="6.89479">
        <ele>715.2</ele>
        <time>2022-11-02T15:16:34Z</time>
      </trkpt>
      <trkpt lat="47.88967" lon="6.89477">
        <ele>714.9</ele>
        <time>2022-11-02T15:16:35Z</time>
      </trkpt>
      <trkpt lat="47.88967" lon="6.89476">
        <ele>714.7</ele>
        <time>2022-11-02T15:16:36Z</time>
      </trkpt>
      <trkpt lat="47.88967" lon="6.89474">
        <ele>714.4</ele>
        <time>2022-11-02T15:16:37Z</time>
      </trkpt>
      <trkpt lat="47.88967" lon="6.89473">
        <ele>714.2</ele>
        <time>2022-11-02T15:16:38Z</time>
      </trkpt>
      <trkpt lat="47.88968" lon="6.89472">
        <ele>713.9</ele>
        <time>2022-11-02T15:16:39Z</time>
      </trkpt>
      <trkpt lat="47.88968" lon="6.89471">
        <ele>713.9</ele>
        <time>2022-11-02T15:16:40Z</time>
      </trkpt>
      <trkpt lat="47.88969" lon="6.8947">
        <ele>713.6</ele>
        <time>2022-11-02T15:16:41Z</time>
      </trkpt>
      <trkpt lat="47.88969" lon="6.89468">
        <ele>713.5</ele>
        <time>2022-11-02T15:16:42Z</time>
      </trkpt>
      <trkpt lat="47.88969" lon="6.89467">
        <ele>713.5</ele>
        <time>2022-11-02T15:16:43Z</time>
      </trkpt>
      <trkpt lat="47.88969" lon="6.89465">
        <ele>713.4</ele>
        <time>2022-11-02T15:16:44Z</time>
      </trkpt>
      <trkpt lat="47.8897" lon="6.89464">
        <ele>713.2</ele>
        <time>2022-11-02T15:16:45Z</time>
      </trkpt>
      <trkpt lat="47.8897" lon="6.89462">
        <ele>713.1</ele>
        <time>2022-11-02T15:16:46Z</time>
      </trkpt>
      <trkpt lat="47.8897" lon="6.89461">
        <ele>713</ele>
        <time>2022-11-02T15:16:47Z</time>
      </trkpt>
      <trkpt lat="47.8897" lon="6.89459">
        <ele>713</ele>
        <time>2022-11-02T15:16:48Z</time>
      </trkpt>
      <trkpt lat="47.8897" lon="6.89458">
        <ele>712.9</ele>
        <time>2022-11-02T15:16:49Z</time>
      </trkpt>
      <trkpt lat="47.88971" lon="6.89456">
        <ele>712.7</ele>
        <time>2022-11-02T15:16:50Z</time>
      </trkpt>
      <trkpt lat="47.88971" lon="6.89455">
        <ele>712.6</ele>
        <time>2022-11-02T15:16:51Z</time>
      </trkpt>
      <trkpt lat="47.88971" lon="6.89453">
        <ele>712.5</ele>
        <time>2022-11-02T15:16:52Z</time>
      </trkpt>
      <trkpt lat="47.8897" lon="6.89452">
        <ele>712.7</ele>
        <time>2022-11-02T15:16:53Z</time>
      </trkpt>
      <trkpt lat="47.8897" lon="6.8945">
        <ele>712.6</ele>
        <time>2022-11-02T15:16:54Z</time>
      </trkpt>
      <trkpt lat="47.8897" lon="6.89449">
        <ele>712.6</ele>
        <time>2022-11-02T15:16:55Z</time>
      </trkpt>
      <trkpt lat="47.8897" lon="6.89447">
        <ele>712.5</ele>
        <time>2022-11-02T15:16:56Z</time>
      </trkpt>
      <trkpt lat="47.8897" lon="6.89446">
        <ele>712.5</ele>
        <time>2022-11-02T15:16:57Z</time>
      </trkpt>
      <trkpt lat="47.8897" lon="6.89445">
        <ele>712.4</ele>
        <time>2022-11-02T15:16:58Z</time>
      </trkpt>
      <trkpt lat="47.8897" lon="6.89444">
        <ele>712.4</ele>
        <time>2022-11-02T15:16:59Z</time>
      </trkpt>
      <trkpt lat="47.8897" lon="6.89443">
        <ele>712.3</ele>
        <time>2022-11-02T15:17:00Z</time>
      </trkpt>
      <trkpt lat="47.88971" lon="6.89443">
        <ele>712.2</ele>
        <time>2022-11-02T15:17:01Z</time>
      </trkpt>
      <trkpt lat="47.88971" lon="6.89442">
        <ele>712.1</ele>
        <time>2022-11-02T15:17:02Z</time>
      </trkpt>
      <trkpt lat="47.88971" lon="6.89441">
        <ele>712.1</ele>
        <time>2022-11-02T15:17:03Z</time>
      </trkpt>
      <trkpt lat="47.88971" lon="6.8944">
        <ele>712.1</ele>
        <time>2022-11-02T15:17:04Z</time>
      </trkpt>
      <trkpt lat="47.88971" lon="6.89438">
        <ele>712</ele>
        <time>2022-11-02T15:17:05Z</time>
      </trkpt>
      <trkpt lat="47.88972" lon="6.89437">
        <ele>711.8</ele>
        <time>2022-11-02T15:17:06Z</time>
      </trkpt>
      <trkpt lat="47.88971" lon="6.89436">
        <ele>711.9</ele>
        <time>2022-11-02T15:17:07Z</time>
      </trkpt>
      <trkpt lat="47.88971" lon="6.89435">
        <ele>711.9</ele>
        <time>2022-11-02T15:17:08Z</time>
      </trkpt>
      <trkpt lat="47.88971" lon="6.89434">
        <ele>711.8</ele>
        <time>2022-11-02T15:17:09Z</time>
      </trkpt>
      <trkpt lat="47.88971" lon="6.89433">
        <ele>711.8</ele>
        <time>2022-11-02T15:17:10Z</time>
      </trkpt>
      <trkpt lat="47.88971" lon="6.89432">
        <ele>711.8</ele>
        <time>2022-11-02T15:17:11Z</time>
      </trkpt>
      <trkpt lat="47.88971" lon="6.8943">
        <ele>711.7</ele>
        <time>2022-11-02T15:17:12Z</time>
      </trkpt>
      <trkpt lat="47.88971" lon="6.89429">
        <ele>711.7</ele>
        <time>2022-11-02T15:17:13Z</time>
      </trkpt>
      <trkpt lat="47.88971" lon="6.89428">
        <ele>711.6</ele>
        <time>2022-11-02T15:17:14Z</time>
      </trkpt>
      <trkpt lat="47.88971" lon="6.89426">
        <ele>711.6</ele>
        <time>2022-11-02T15:17:15Z</time>
      </trkpt>
      <trkpt lat="47.88971" lon="6.89425">
        <ele>711.5</ele>
        <time>2022-11-02T15:17:16Z</time>
      </trkpt>
      <trkpt lat="47.88971" lon="6.89423">
        <ele>711.4</ele>
        <time>2022-11-02T15:17:17Z</time>
      </trkpt>
      <trkpt lat="47.88971" lon="6.89422">
        <ele>711.4</ele>
        <time>2022-11-02T15:17:18Z</time>
      </trkpt>
      <trkpt lat="47.88971" lon="6.89421">
        <ele>711.4</ele>
        <time>2022-11-02T15:17:19Z</time>
      </trkpt>
      <trkpt lat="47.88971" lon="6.89419">
        <ele>711.3</ele>
        <time>2022-11-02T15:17:20Z</time>
      </trkpt>
      <trkpt lat="47.88971" lon="6.89418">
        <ele>711.3</ele>
        <time>2022-11-02T15:17:21Z</time>
      </trkpt>
      <trkpt lat="47.88971" lon="6.89417">
        <ele>711.2</ele>
        <time>2022-11-02T15:17:22Z</time>
      </trkpt>
      <trkpt lat="47.88971" lon="6.89415">
        <ele>711</ele>
        <time>2022-11-02T15:17:23Z</time>
      </trkpt>
      <trkpt lat="47.88971" lon="6.89414">
        <ele>710.9</ele>
        <time>2022-11-02T15:17:24Z</time>
      </trkpt>
      <trkpt lat="47.88971" lon="6.89413">
        <ele>710.8</ele>
        <time>2022-11-02T15:17:25Z</time>
      </trkpt>
      <trkpt lat="47.88971" lon="6.89412">
        <ele>710.7</ele>
        <time>2022-11-02T15:17:26Z</time>
      </trkpt>
      <trkpt lat="47.88971" lon="6.89411">
        <ele>710.6</ele>
        <time>2022-11-02T15:17:27Z</time>
      </trkpt>
      <trkpt lat="47.88971" lon="6.89409">
        <ele>710.4</ele>
        <time>2022-11-02T15:17:28Z</time>
      </trkpt>
      <trkpt lat="47.88971" lon="6.89408">
        <ele>710.3</ele>
        <time>2022-11-02T15:17:29Z</time>
      </trkpt>
      <trkpt lat="47.88971" lon="6.89407">
        <ele>710.2</ele>
        <time>2022-11-02T15:17:30Z</time>
      </trkpt>
      <trkpt lat="47.88971" lon="6.89405">
        <ele>710</ele>
        <time>2022-11-02T15:17:31Z</time>
      </trkpt>
      <trkpt lat="47.88971" lon="6.89404">
        <ele>709.9</ele>
        <time>2022-11-02T15:17:32Z</time>
      </trkpt>
      <trkpt lat="47.88972" lon="6.89402">
        <ele>709.5</ele>
        <time>2022-11-02T15:17:33Z</time>
      </trkpt>
      <trkpt lat="47.88972" lon="6.89401">
        <ele>709.4</ele>
        <time>2022-11-02T15:17:34Z</time>
      </trkpt>
      <trkpt lat="47.88972" lon="6.894">
        <ele>709.2</ele>
        <time>2022-11-02T15:17:35Z</time>
      </trkpt>
      <trkpt lat="47.88972" lon="6.89398">
        <ele>709</ele>
        <time>2022-11-02T15:17:36Z</time>
      </trkpt>
      <trkpt lat="47.88972" lon="6.89397">
        <ele>708.9</ele>
        <time>2022-11-02T15:17:37Z</time>
      </trkpt>
      <trkpt lat="47.88972" lon="6.89396">
        <ele>708.8</ele>
        <time>2022-11-02T15:17:38Z</time>
      </trkpt>
      <trkpt lat="47.88973" lon="6.89394">
        <ele>708.8</ele>
        <time>2022-11-02T15:17:39Z</time>
      </trkpt>
      <trkpt lat="47.88973" lon="6.89393">
        <ele>708.7</ele>
        <time>2022-11-02T15:17:40Z</time>
      </trkpt>
      <trkpt lat="47.88973" lon="6.89392">
        <ele>708.6</ele>
        <time>2022-11-02T15:17:41Z</time>
      </trkpt>
      <trkpt lat="47.88973" lon="6.8939">
        <ele>708.4</ele>
        <time>2022-11-02T15:17:42Z</time>
      </trkpt>
      <trkpt lat="47.88973" lon="6.89389">
        <ele>708.3</ele>
        <time>2022-11-02T15:17:43Z</time>
      </trkpt>
      <trkpt lat="47.88973" lon="6.89387">
        <ele>708.1</ele>
        <time>2022-11-02T15:17:44Z</time>
      </trkpt>
      <trkpt lat="47.88974" lon="6.89386">
        <ele>708.4</ele>
        <time>2022-11-02T15:17:45Z</time>
      </trkpt>
      <trkpt lat="47.88974" lon="6.89385">
        <ele>708.3</ele>
        <time>2022-11-02T15:17:46Z</time>
      </trkpt>
      <trkpt lat="47.88975" lon="6.89383">
        <ele>708.5</ele>
        <time>2022-11-02T15:17:47Z</time>
      </trkpt>
      <trkpt lat="47.88975" lon="6.89382">
        <ele>708.4</ele>
        <time>2022-11-02T15:17:48Z</time>
      </trkpt>
      <trkpt lat="47.88975" lon="6.89381">
        <ele>708.3</ele>
        <time>2022-11-02T15:17:49Z</time>
      </trkpt>
      <trkpt lat="47.88975" lon="6.89379">
        <ele>708.2</ele>
        <time>2022-11-02T15:17:50Z</time>
      </trkpt>
      <trkpt lat="47.88975" lon="6.89378">
        <ele>708.1</ele>
        <time>2022-11-02T15:17:51Z</time>
      </trkpt>
      <trkpt lat="47.88975" lon="6.89376">
        <ele>707.9</ele>
        <time>2022-11-02T15:17:52Z</time>
      </trkpt>
      <trkpt lat="47.88975" lon="6.89375">
        <ele>707.8</ele>
        <time>2022-11-02T15:17:53Z</time>
      </trkpt>
      <trkpt lat="47.88975" lon="6.89374">
        <ele>707.8</ele>
        <time>2022-11-02T15:17:54Z</time>
      </trkpt>
      <trkpt lat="47.88975" lon="6.89372">
        <ele>707.6</ele>
        <time>2022-11-02T15:17:55Z</time>
      </trkpt>
      <trkpt lat="47.88975" lon="6.89371">
        <ele>707.5</ele>
        <time>2022-11-02T15:17:56Z</time>
      </trkpt>
      <trkpt lat="47.88975" lon="6.8937">
        <ele>707.5</ele>
        <time>2022-11-02T15:17:57Z</time>
      </trkpt>
      <trkpt lat="47.88975" lon="6.89368">
        <ele>707.3</ele>
        <time>2022-11-02T15:17:58Z</time>
      </trkpt>
      <trkpt lat="47.88974" lon="6.89367">
        <ele>706.9</ele>
        <time>2022-11-02T15:17:59Z</time>
      </trkpt>
      <trkpt lat="47.88973" lon="6.89366">
        <ele>706.6</ele>
        <time>2022-11-02T15:18:00Z</time>
      </trkpt>
      <trkpt lat="47.88972" lon="6.89364">
        <ele>706.3</ele>
        <time>2022-11-02T15:18:01Z</time>
      </trkpt>
      <trkpt lat="47.88972" lon="6.89363">
        <ele>706.2</ele>
        <time>2022-11-02T15:18:02Z</time>
      </trkpt>
      <trkpt lat="47.88971" lon="6.89362">
        <ele>706.3</ele>
        <time>2022-11-02T15:18:03Z</time>
      </trkpt>
      <trkpt lat="47.8897" lon="6.8936">
        <ele>706.4</ele>
        <time>2022-11-02T15:18:04Z</time>
      </trkpt>
      <trkpt lat="47.8897" lon="6.89359">
        <ele>706.3</ele>
        <time>2022-11-02T15:18:05Z</time>
      </trkpt>
      <trkpt lat="47.8897" lon="6.89358">
        <ele>706.2</ele>
        <time>2022-11-02T15:18:06Z</time>
      </trkpt>
      <trkpt lat="47.8897" lon="6.89356">
        <ele>705.9</ele>
        <time>2022-11-02T15:18:07Z</time>
      </trkpt>
      <trkpt lat="47.8897" lon="6.89355">
        <ele>705.8</ele>
        <time>2022-11-02T15:18:08Z</time>
      </trkpt>
      <trkpt lat="47.8897" lon="6.89354">
        <ele>705.7</ele>
        <time>2022-11-02T15:18:09Z</time>
      </trkpt>
      <trkpt lat="47.88969" lon="6.89352">
        <ele>705.8</ele>
        <time>2022-11-02T15:18:10Z</time>
      </trkpt>
      <trkpt lat="47.88969" lon="6.89351">
        <ele>705.6</ele>
        <time>2022-11-02T15:18:11Z</time>
      </trkpt>
      <trkpt lat="47.88969" lon="6.89349">
        <ele>705.4</ele>
        <time>2022-11-02T15:18:12Z</time>
      </trkpt>
      <trkpt lat="47.88969" lon="6.89348">
        <ele>705.3</ele>
        <time>2022-11-02T15:18:13Z</time>
      </trkpt>
      <trkpt lat="47.88969" lon="6.89347">
        <ele>705.2</ele>
        <time>2022-11-02T15:18:14Z</time>
      </trkpt>
      <trkpt lat="47.88969" lon="6.89345">
        <ele>705</ele>
        <time>2022-11-02T15:18:15Z</time>
      </trkpt>
      <trkpt lat="47.88969" lon="6.89344">
        <ele>704.9</ele>
        <time>2022-11-02T15:18:16Z</time>
      </trkpt>
      <trkpt lat="47.88969" lon="6.89343">
        <ele>704.8</ele>
        <time>2022-11-02T15:18:17Z</time>
      </trkpt>
      <trkpt lat="47.88968" lon="6.89342">
        <ele>705</ele>
        <time>2022-11-02T15:18:18Z</time>
      </trkpt>
      <trkpt lat="47.88968" lon="6.89341">
        <ele>704.9</ele>
        <time>2022-11-02T15:18:19Z</time>
      </trkpt>
      <trkpt lat="47.88968" lon="6.8934">
        <ele>704.7</ele>
        <time>2022-11-02T15:18:20Z</time>
      </trkpt>
      <trkpt lat="47.88968" lon="6.89339">
        <ele>704.6</ele>
        <time>2022-11-02T15:18:21Z</time>
      </trkpt>
      <trkpt lat="47.88968" lon="6.89337">
        <ele>704.4</ele>
        <time>2022-11-02T15:18:22Z</time>
      </trkpt>
      <trkpt lat="47.88968" lon="6.89336">
        <ele>704.3</ele>
        <time>2022-11-02T15:18:23Z</time>
      </trkpt>
      <trkpt lat="47.88968" lon="6.89334">
        <ele>704.1</ele>
        <time>2022-11-02T15:18:24Z</time>
      </trkpt>
      <trkpt lat="47.88968" lon="6.89333">
        <ele>704</ele>
        <time>2022-11-02T15:18:25Z</time>
      </trkpt>
      <trkpt lat="47.88968" lon="6.89331">
        <ele>703.6</ele>
        <time>2022-11-02T15:18:26Z</time>
      </trkpt>
      <trkpt lat="47.88968" lon="6.8933">
        <ele>703.3</ele>
        <time>2022-11-02T15:18:27Z</time>
      </trkpt>
      <trkpt lat="47.88967" lon="6.89329">
        <ele>703.4</ele>
        <time>2022-11-02T15:18:28Z</time>
      </trkpt>
      <trkpt lat="47.88967" lon="6.89327">
        <ele>702.9</ele>
        <time>2022-11-02T15:18:29Z</time>
      </trkpt>
      <trkpt lat="47.88967" lon="6.89326">
        <ele>702.7</ele>
        <time>2022-11-02T15:18:30Z</time>
      </trkpt>
      <trkpt lat="47.88967" lon="6.89325">
        <ele>702.5</ele>
        <time>2022-11-02T15:18:31Z</time>
      </trkpt>
      <trkpt lat="47.88967" lon="6.89323">
        <ele>702.1</ele>
        <time>2022-11-02T15:18:32Z</time>
      </trkpt>
      <trkpt lat="47.88967" lon="6.89322">
        <ele>701.9</ele>
        <time>2022-11-02T15:18:33Z</time>
      </trkpt>
      <trkpt lat="47.88967" lon="6.89321">
        <ele>701.7</ele>
        <time>2022-11-02T15:18:34Z</time>
      </trkpt>
      <trkpt lat="47.88967" lon="6.89319">
        <ele>701.2</ele>
        <time>2022-11-02T15:18:35Z</time>
      </trkpt>
      <trkpt lat="47.88967" lon="6.89318">
        <ele>701</ele>
        <time>2022-11-02T15:18:36Z</time>
      </trkpt>
      <trkpt lat="47.88966" lon="6.89317">
        <ele>701</ele>
        <time>2022-11-02T15:18:37Z</time>
      </trkpt>
      <trkpt lat="47.88966" lon="6.89315">
        <ele>700.6</ele>
        <time>2022-11-02T15:18:38Z</time>
      </trkpt>
      <trkpt lat="47.88966" lon="6.89314">
        <ele>700.4</ele>
        <time>2022-11-02T15:18:39Z</time>
      </trkpt>
      <trkpt lat="47.88965" lon="6.89312">
        <ele>700.2</ele>
        <time>2022-11-02T15:18:40Z</time>
      </trkpt>
      <trkpt lat="47.88965" lon="6.89311">
        <ele>700</ele>
        <time>2022-11-02T15:18:41Z</time>
      </trkpt>
      <trkpt lat="47.88965" lon="6.89309">
        <ele>699.6</ele>
        <time>2022-11-02T15:18:42Z</time>
      </trkpt>
      <trkpt lat="47.88964" lon="6.89308">
        <ele>699.6</ele>
        <time>2022-11-02T15:18:43Z</time>
      </trkpt>
      <trkpt lat="47.88964" lon="6.89307">
        <ele>699.4</ele>
        <time>2022-11-02T15:18:44Z</time>
      </trkpt>
      <trkpt lat="47.88963" lon="6.89307">
        <ele>699.6</ele>
        <time>2022-11-02T15:18:45Z</time>
      </trkpt>
      <trkpt lat="47.88963" lon="6.89306">
        <ele>699.4</ele>
        <time>2022-11-02T15:18:46Z</time>
      </trkpt>
      <trkpt lat="47.88962" lon="6.89306">
        <ele>699.7</ele>
        <time>2022-11-02T15:18:47Z</time>
      </trkpt>
      <trkpt lat="47.88961" lon="6.89306">
        <ele>699.9</ele>
        <time>2022-11-02T15:18:48Z</time>
      </trkpt>
      <trkpt lat="47.88961" lon="6.89305">
        <ele>699.8</ele>
        <time>2022-11-02T15:19:43Z</time>
      </trkpt>
      <trkpt lat="47.88961" lon="6.89304">
        <ele>699.6</ele>
        <time>2022-11-02T15:19:45Z</time>
      </trkpt>
      <trkpt lat="47.88961" lon="6.89303">
        <ele>699.5</ele>
        <time>2022-11-02T15:19:47Z</time>
      </trkpt>
      <trkpt lat="47.88961" lon="6.89302">
        <ele>699.4</ele>
        <time>2022-11-02T15:19:48Z</time>
      </trkpt>
      <trkpt lat="47.8896" lon="6.893">
        <ele>699.4</ele>
        <time>2022-11-02T15:19:49Z</time>
      </trkpt>
      <trkpt lat="47.8896" lon="6.89299">
        <ele>699.3</ele>
        <time>2022-11-02T15:19:50Z</time>
      </trkpt>
      <trkpt lat="47.8896" lon="6.89297">
        <ele>699</ele>
        <time>2022-11-02T15:19:51Z</time>
      </trkpt>
      <trkpt lat="47.8896" lon="6.89296">
        <ele>698.9</ele>
        <time>2022-11-02T15:19:52Z</time>
      </trkpt>
      <trkpt lat="47.88961" lon="6.89294">
        <ele>698.4</ele>
        <time>2022-11-02T15:19:53Z</time>
      </trkpt>
      <trkpt lat="47.88961" lon="6.89293">
        <ele>698.3</ele>
        <time>2022-11-02T15:19:54Z</time>
      </trkpt>
      <trkpt lat="47.88961" lon="6.89292">
        <ele>698.2</ele>
        <time>2022-11-02T15:19:55Z</time>
      </trkpt>
      <trkpt lat="47.88961" lon="6.89291">
        <ele>698</ele>
        <time>2022-11-02T15:19:56Z</time>
      </trkpt>
      <trkpt lat="47.88961" lon="6.89289">
        <ele>697.8</ele>
        <time>2022-11-02T15:19:57Z</time>
      </trkpt>
      <trkpt lat="47.88961" lon="6.89288">
        <ele>697.7</ele>
        <time>2022-11-02T15:19:58Z</time>
      </trkpt>
      <trkpt lat="47.88961" lon="6.89286">
        <ele>697.4</ele>
        <time>2022-11-02T15:19:59Z</time>
      </trkpt>
      <trkpt lat="47.88961" lon="6.89284">
        <ele>697.2</ele>
        <time>2022-11-02T15:20:00Z</time>
      </trkpt>
      <trkpt lat="47.88961" lon="6.89283">
        <ele>697.1</ele>
        <time>2022-11-02T15:20:01Z</time>
      </trkpt>
      <trkpt lat="47.88961" lon="6.8928">
        <ele>696.7</ele>
        <time>2022-11-02T15:20:02Z</time>
      </trkpt>
      <trkpt lat="47.8896" lon="6.89278">
        <ele>696.7</ele>
        <time>2022-11-02T15:20:03Z</time>
      </trkpt>
    </trkseg>
  </trk>
</gpx>